<?xml version="1.0" encoding="UTF-8" standalone="no" ?>
<gpx xmlns="http://www.topografix.com/GPX/1/1" xmlns:xsi="http://www.w3.org/2001/XMLSchema-instance" xsi:schemaLocation="http://www.topografix.com/GPX/1/1 http://www.topografix.com/GPX/1/1/gpx.xsd" version="1.1" creator="VisuGPX - https://www.visugpx.com">
  <metadata>
    <name>Guignemicourt Randonnée dans l'après-midi</name>
  </metadata>
  <trk>
    <name><![CDATA[Guignemicourt Randonnée dans l'après-midi_1]]></name>
    <trkseg>
      <trkpt lat="49.87022" lon="2.17607">
        <ele>111</ele>
        <time>2022-01-12T13:02:06Z</time>
      </trkpt>
      <trkpt lat="49.87021" lon="2.17605">
        <ele>111</ele>
        <time>2022-01-12T13:02:07Z</time>
      </trkpt>
      <trkpt lat="49.8702" lon="2.17604">
        <ele>111</ele>
        <time>2022-01-12T13:02:08Z</time>
      </trkpt>
      <trkpt lat="49.8702" lon="2.17601">
        <ele>111</ele>
        <time>2022-01-12T13:02:10Z</time>
      </trkpt>
      <trkpt lat="49.87019" lon="2.17599">
        <ele>111</ele>
        <time>2022-01-12T13:02:12Z</time>
      </trkpt>
      <trkpt lat="49.87018" lon="2.17597">
        <ele>111</ele>
        <time>2022-01-12T13:02:13Z</time>
      </trkpt>
      <trkpt lat="49.87017" lon="2.17594">
        <ele>111</ele>
        <time>2022-01-12T13:02:14Z</time>
      </trkpt>
      <trkpt lat="49.87016" lon="2.17594">
        <ele>111</ele>
        <time>2022-01-12T13:02:16Z</time>
      </trkpt>
      <trkpt lat="49.87016" lon="2.17593">
        <ele>111</ele>
        <time>2022-01-12T13:02:17Z</time>
      </trkpt>
      <trkpt lat="49.87016" lon="2.17592">
        <ele>111</ele>
        <time>2022-01-12T13:02:18Z</time>
      </trkpt>
      <trkpt lat="49.87015" lon="2.1759">
        <ele>111</ele>
        <time>2022-01-12T13:02:19Z</time>
      </trkpt>
      <trkpt lat="49.87015" lon="2.17588">
        <ele>111</ele>
        <time>2022-01-12T13:02:21Z</time>
      </trkpt>
      <trkpt lat="49.87014" lon="2.17587">
        <ele>111</ele>
        <time>2022-01-12T13:02:22Z</time>
      </trkpt>
      <trkpt lat="49.87014" lon="2.17587">
        <ele>111</ele>
        <time>2022-01-12T13:02:23Z</time>
      </trkpt>
      <trkpt lat="49.87014" lon="2.17586">
        <ele>111</ele>
        <time>2022-01-12T13:02:24Z</time>
      </trkpt>
      <trkpt lat="49.87013" lon="2.17585">
        <ele>111</ele>
        <time>2022-01-12T13:02:25Z</time>
      </trkpt>
      <trkpt lat="49.87012" lon="2.17583">
        <ele>111</ele>
        <time>2022-01-12T13:02:26Z</time>
      </trkpt>
      <trkpt lat="49.87011" lon="2.17582">
        <ele>111</ele>
        <time>2022-01-12T13:02:28Z</time>
      </trkpt>
      <trkpt lat="49.8701" lon="2.17581">
        <ele>111</ele>
        <time>2022-01-12T13:02:29Z</time>
      </trkpt>
      <trkpt lat="49.87009" lon="2.1758">
        <ele>111</ele>
        <time>2022-01-12T13:02:30Z</time>
      </trkpt>
      <trkpt lat="49.87008" lon="2.17578">
        <ele>111</ele>
        <time>2022-01-12T13:02:31Z</time>
      </trkpt>
      <trkpt lat="49.87007" lon="2.17577">
        <ele>111</ele>
        <time>2022-01-12T13:02:32Z</time>
      </trkpt>
      <trkpt lat="49.87006" lon="2.17575">
        <ele>111</ele>
        <time>2022-01-12T13:02:33Z</time>
      </trkpt>
      <trkpt lat="49.87005" lon="2.17573">
        <ele>111.1</ele>
        <time>2022-01-12T13:02:35Z</time>
      </trkpt>
      <trkpt lat="49.87005" lon="2.17571">
        <ele>111.1</ele>
        <time>2022-01-12T13:02:36Z</time>
      </trkpt>
      <trkpt lat="49.87004" lon="2.17569">
        <ele>111.1</ele>
        <time>2022-01-12T13:02:37Z</time>
      </trkpt>
      <trkpt lat="49.87003" lon="2.17568">
        <ele>111.1</ele>
        <time>2022-01-12T13:02:38Z</time>
      </trkpt>
      <trkpt lat="49.87002" lon="2.17566">
        <ele>111.1</ele>
        <time>2022-01-12T13:02:39Z</time>
      </trkpt>
      <trkpt lat="49.87002" lon="2.17565">
        <ele>111.1</ele>
        <time>2022-01-12T13:02:41Z</time>
      </trkpt>
      <trkpt lat="49.87001" lon="2.17563">
        <ele>111.1</ele>
        <time>2022-01-12T13:02:42Z</time>
      </trkpt>
      <trkpt lat="49.87" lon="2.17562">
        <ele>111.1</ele>
        <time>2022-01-12T13:02:43Z</time>
      </trkpt>
      <trkpt lat="49.86999" lon="2.1756">
        <ele>111.1</ele>
        <time>2022-01-12T13:02:45Z</time>
      </trkpt>
      <trkpt lat="49.86998" lon="2.17559">
        <ele>111.1</ele>
        <time>2022-01-12T13:02:46Z</time>
      </trkpt>
      <trkpt lat="49.86998" lon="2.17557">
        <ele>111.1</ele>
        <time>2022-01-12T13:02:48Z</time>
      </trkpt>
      <trkpt lat="49.86997" lon="2.17556">
        <ele>111.1</ele>
        <time>2022-01-12T13:02:49Z</time>
      </trkpt>
      <trkpt lat="49.86996" lon="2.17555">
        <ele>111.1</ele>
        <time>2022-01-12T13:02:50Z</time>
      </trkpt>
      <trkpt lat="49.86996" lon="2.17554">
        <ele>111.1</ele>
        <time>2022-01-12T13:02:51Z</time>
      </trkpt>
      <trkpt lat="49.86995" lon="2.17551">
        <ele>111.1</ele>
        <time>2022-01-12T13:02:53Z</time>
      </trkpt>
      <trkpt lat="49.86994" lon="2.17549">
        <ele>111.1</ele>
        <time>2022-01-12T13:02:54Z</time>
      </trkpt>
      <trkpt lat="49.86993" lon="2.17548">
        <ele>111.2</ele>
        <time>2022-01-12T13:02:56Z</time>
      </trkpt>
      <trkpt lat="49.86992" lon="2.17547">
        <ele>111.2</ele>
        <time>2022-01-12T13:02:57Z</time>
      </trkpt>
      <trkpt lat="49.86992" lon="2.17545">
        <ele>111.2</ele>
        <time>2022-01-12T13:02:58Z</time>
      </trkpt>
      <trkpt lat="49.86992" lon="2.17544">
        <ele>111.2</ele>
        <time>2022-01-12T13:02:59Z</time>
      </trkpt>
      <trkpt lat="49.86992" lon="2.17543">
        <ele>111.2</ele>
        <time>2022-01-12T13:03:01Z</time>
      </trkpt>
      <trkpt lat="49.86992" lon="2.17542">
        <ele>111.2</ele>
        <time>2022-01-12T13:03:02Z</time>
      </trkpt>
      <trkpt lat="49.86991" lon="2.1754">
        <ele>111.2</ele>
        <time>2022-01-12T13:03:03Z</time>
      </trkpt>
      <trkpt lat="49.86992" lon="2.17538">
        <ele>111.2</ele>
        <time>2022-01-12T13:03:05Z</time>
      </trkpt>
      <trkpt lat="49.86992" lon="2.17536">
        <ele>111.2</ele>
        <time>2022-01-12T13:03:06Z</time>
      </trkpt>
      <trkpt lat="49.86993" lon="2.17533">
        <ele>111.2</ele>
        <time>2022-01-12T13:03:07Z</time>
      </trkpt>
      <trkpt lat="49.86993" lon="2.17532">
        <ele>111.2</ele>
        <time>2022-01-12T13:03:09Z</time>
      </trkpt>
      <trkpt lat="49.86993" lon="2.17531">
        <ele>111.2</ele>
        <time>2022-01-12T13:03:10Z</time>
      </trkpt>
      <trkpt lat="49.86993" lon="2.17529">
        <ele>111.2</ele>
        <time>2022-01-12T13:03:11Z</time>
      </trkpt>
      <trkpt lat="49.86992" lon="2.17528">
        <ele>111.2</ele>
        <time>2022-01-12T13:03:13Z</time>
      </trkpt>
      <trkpt lat="49.86992" lon="2.17526">
        <ele>111.2</ele>
        <time>2022-01-12T13:03:14Z</time>
      </trkpt>
      <trkpt lat="49.86992" lon="2.17525">
        <ele>111.2</ele>
        <time>2022-01-12T13:03:15Z</time>
      </trkpt>
      <trkpt lat="49.86992" lon="2.17523">
        <ele>111.2</ele>
        <time>2022-01-12T13:03:16Z</time>
      </trkpt>
      <trkpt lat="49.86991" lon="2.17521">
        <ele>111.2</ele>
        <time>2022-01-12T13:03:17Z</time>
      </trkpt>
      <trkpt lat="49.86991" lon="2.1752">
        <ele>111.2</ele>
        <time>2022-01-12T13:03:18Z</time>
      </trkpt>
      <trkpt lat="49.86991" lon="2.17519">
        <ele>111.2</ele>
        <time>2022-01-12T13:03:19Z</time>
      </trkpt>
      <trkpt lat="49.8699" lon="2.1752">
        <ele>111.2</ele>
        <time>2022-01-12T13:03:20Z</time>
      </trkpt>
      <trkpt lat="49.8699" lon="2.17519">
        <ele>111.2</ele>
        <time>2022-01-12T13:03:22Z</time>
      </trkpt>
      <trkpt lat="49.8699" lon="2.17516">
        <ele>111.2</ele>
        <time>2022-01-12T13:03:23Z</time>
      </trkpt>
      <trkpt lat="49.8699" lon="2.17514">
        <ele>111.2</ele>
        <time>2022-01-12T13:03:24Z</time>
      </trkpt>
      <trkpt lat="49.8699" lon="2.17512">
        <ele>111.2</ele>
        <time>2022-01-12T13:03:25Z</time>
      </trkpt>
      <trkpt lat="49.8699" lon="2.17511">
        <ele>111.2</ele>
        <time>2022-01-12T13:03:26Z</time>
      </trkpt>
      <trkpt lat="49.86989" lon="2.1751">
        <ele>111.3</ele>
        <time>2022-01-12T13:03:27Z</time>
      </trkpt>
      <trkpt lat="49.86988" lon="2.17509">
        <ele>111.3</ele>
        <time>2022-01-12T13:03:29Z</time>
      </trkpt>
      <trkpt lat="49.86988" lon="2.17508">
        <ele>111.3</ele>
        <time>2022-01-12T13:03:30Z</time>
      </trkpt>
      <trkpt lat="49.86987" lon="2.17505">
        <ele>111.3</ele>
        <time>2022-01-12T13:03:31Z</time>
      </trkpt>
      <trkpt lat="49.86987" lon="2.17503">
        <ele>111.3</ele>
        <time>2022-01-12T13:03:32Z</time>
      </trkpt>
      <trkpt lat="49.86987" lon="2.17501">
        <ele>111.3</ele>
        <time>2022-01-12T13:03:33Z</time>
      </trkpt>
      <trkpt lat="49.86986" lon="2.17499">
        <ele>111.3</ele>
        <time>2022-01-12T13:03:34Z</time>
      </trkpt>
      <trkpt lat="49.86984" lon="2.17494">
        <ele>111.3</ele>
        <time>2022-01-12T13:03:36Z</time>
      </trkpt>
      <trkpt lat="49.86984" lon="2.17493">
        <ele>111.3</ele>
        <time>2022-01-12T13:03:37Z</time>
      </trkpt>
      <trkpt lat="49.86982" lon="2.17489">
        <ele>111.3</ele>
        <time>2022-01-12T13:03:38Z</time>
      </trkpt>
      <trkpt lat="49.86982" lon="2.17488">
        <ele>111.3</ele>
        <time>2022-01-12T13:03:39Z</time>
      </trkpt>
      <trkpt lat="49.86981" lon="2.17486">
        <ele>111.3</ele>
        <time>2022-01-12T13:03:40Z</time>
      </trkpt>
      <trkpt lat="49.86981" lon="2.17484">
        <ele>111.3</ele>
        <time>2022-01-12T13:03:41Z</time>
      </trkpt>
      <trkpt lat="49.8698" lon="2.17482">
        <ele>111.3</ele>
        <time>2022-01-12T13:03:42Z</time>
      </trkpt>
      <trkpt lat="49.8698" lon="2.1748">
        <ele>111.3</ele>
        <time>2022-01-12T13:03:44Z</time>
      </trkpt>
      <trkpt lat="49.86979" lon="2.17477">
        <ele>111.3</ele>
        <time>2022-01-12T13:03:45Z</time>
      </trkpt>
      <trkpt lat="49.86979" lon="2.17476">
        <ele>111.3</ele>
        <time>2022-01-12T13:03:46Z</time>
      </trkpt>
      <trkpt lat="49.86979" lon="2.17473">
        <ele>111.3</ele>
        <time>2022-01-12T13:03:48Z</time>
      </trkpt>
      <trkpt lat="49.86978" lon="2.17471">
        <ele>111.3</ele>
        <time>2022-01-12T13:03:49Z</time>
      </trkpt>
      <trkpt lat="49.86978" lon="2.17468">
        <ele>111.3</ele>
        <time>2022-01-12T13:03:50Z</time>
      </trkpt>
      <trkpt lat="49.86977" lon="2.17466">
        <ele>111.3</ele>
        <time>2022-01-12T13:03:51Z</time>
      </trkpt>
      <trkpt lat="49.86977" lon="2.17465">
        <ele>111.3</ele>
        <time>2022-01-12T13:03:52Z</time>
      </trkpt>
      <trkpt lat="49.86976" lon="2.17463">
        <ele>111.3</ele>
        <time>2022-01-12T13:03:54Z</time>
      </trkpt>
      <trkpt lat="49.86975" lon="2.17461">
        <ele>111.4</ele>
        <time>2022-01-12T13:03:55Z</time>
      </trkpt>
      <trkpt lat="49.86974" lon="2.17461">
        <ele>111.4</ele>
        <time>2022-01-12T13:03:56Z</time>
      </trkpt>
      <trkpt lat="49.86973" lon="2.17461">
        <ele>111.4</ele>
        <time>2022-01-12T13:03:57Z</time>
      </trkpt>
      <trkpt lat="49.86972" lon="2.17461">
        <ele>111.4</ele>
        <time>2022-01-12T13:03:58Z</time>
      </trkpt>
      <trkpt lat="49.86971" lon="2.17461">
        <ele>111.4</ele>
        <time>2022-01-12T13:03:59Z</time>
      </trkpt>
      <trkpt lat="49.86971" lon="2.17461">
        <ele>111.4</ele>
        <time>2022-01-12T13:04:00Z</time>
      </trkpt>
      <trkpt lat="49.86969" lon="2.17461">
        <ele>111.4</ele>
        <time>2022-01-12T13:04:02Z</time>
      </trkpt>
      <trkpt lat="49.86969" lon="2.17461">
        <ele>111.4</ele>
        <time>2022-01-12T13:04:03Z</time>
      </trkpt>
      <trkpt lat="49.86968" lon="2.17462">
        <ele>111.4</ele>
        <time>2022-01-12T13:04:04Z</time>
      </trkpt>
      <trkpt lat="49.86968" lon="2.17461">
        <ele>111.4</ele>
        <time>2022-01-12T13:04:06Z</time>
      </trkpt>
      <trkpt lat="49.86968" lon="2.17461">
        <ele>111.4</ele>
        <time>2022-01-12T13:04:07Z</time>
      </trkpt>
      <trkpt lat="49.86967" lon="2.1746">
        <ele>111.4</ele>
        <time>2022-01-12T13:04:08Z</time>
      </trkpt>
      <trkpt lat="49.86967" lon="2.17459">
        <ele>111.4</ele>
        <time>2022-01-12T13:04:09Z</time>
      </trkpt>
      <trkpt lat="49.86967" lon="2.17458">
        <ele>111.4</ele>
        <time>2022-01-12T13:04:11Z</time>
      </trkpt>
      <trkpt lat="49.86966" lon="2.17456">
        <ele>111.4</ele>
        <time>2022-01-12T13:04:12Z</time>
      </trkpt>
      <trkpt lat="49.86966" lon="2.17455">
        <ele>111.4</ele>
        <time>2022-01-12T13:04:13Z</time>
      </trkpt>
      <trkpt lat="49.86965" lon="2.17453">
        <ele>111.4</ele>
        <time>2022-01-12T13:04:15Z</time>
      </trkpt>
      <trkpt lat="49.86965" lon="2.17452">
        <ele>111.4</ele>
        <time>2022-01-12T13:04:16Z</time>
      </trkpt>
      <trkpt lat="49.86964" lon="2.1745">
        <ele>111.4</ele>
        <time>2022-01-12T13:04:17Z</time>
      </trkpt>
      <trkpt lat="49.86964" lon="2.17449">
        <ele>111.4</ele>
        <time>2022-01-12T13:04:18Z</time>
      </trkpt>
      <trkpt lat="49.86963" lon="2.17446">
        <ele>111.4</ele>
        <time>2022-01-12T13:04:20Z</time>
      </trkpt>
      <trkpt lat="49.86963" lon="2.17444">
        <ele>111.4</ele>
        <time>2022-01-12T13:04:21Z</time>
      </trkpt>
      <trkpt lat="49.86963" lon="2.17441">
        <ele>111.4</ele>
        <time>2022-01-12T13:04:22Z</time>
      </trkpt>
      <trkpt lat="49.86963" lon="2.1744">
        <ele>111.4</ele>
        <time>2022-01-12T13:04:23Z</time>
      </trkpt>
      <trkpt lat="49.86963" lon="2.17438">
        <ele>111.4</ele>
        <time>2022-01-12T13:04:24Z</time>
      </trkpt>
      <trkpt lat="49.86962" lon="2.17435">
        <ele>111.5</ele>
        <time>2022-01-12T13:04:26Z</time>
      </trkpt>
      <trkpt lat="49.86962" lon="2.17434">
        <ele>111.5</ele>
        <time>2022-01-12T13:04:27Z</time>
      </trkpt>
      <trkpt lat="49.86962" lon="2.17432">
        <ele>111.5</ele>
        <time>2022-01-12T13:04:28Z</time>
      </trkpt>
      <trkpt lat="49.86962" lon="2.17429">
        <ele>111.5</ele>
        <time>2022-01-12T13:04:29Z</time>
      </trkpt>
      <trkpt lat="49.86962" lon="2.17428">
        <ele>111.5</ele>
        <time>2022-01-12T13:04:30Z</time>
      </trkpt>
      <trkpt lat="49.86962" lon="2.17426">
        <ele>111.5</ele>
        <time>2022-01-12T13:04:31Z</time>
      </trkpt>
      <trkpt lat="49.86962" lon="2.17423">
        <ele>111.4</ele>
        <time>2022-01-12T13:04:32Z</time>
      </trkpt>
      <trkpt lat="49.86962" lon="2.17422">
        <ele>111.4</ele>
        <time>2022-01-12T13:04:33Z</time>
      </trkpt>
      <trkpt lat="49.86962" lon="2.17421">
        <ele>111.4</ele>
        <time>2022-01-12T13:04:34Z</time>
      </trkpt>
      <trkpt lat="49.86963" lon="2.17417">
        <ele>111.4</ele>
        <time>2022-01-12T13:04:36Z</time>
      </trkpt>
      <trkpt lat="49.86963" lon="2.17416">
        <ele>111.4</ele>
        <time>2022-01-12T13:04:37Z</time>
      </trkpt>
      <trkpt lat="49.86963" lon="2.17415">
        <ele>111.4</ele>
        <time>2022-01-12T13:04:38Z</time>
      </trkpt>
      <trkpt lat="49.86964" lon="2.17413">
        <ele>111.4</ele>
        <time>2022-01-12T13:04:39Z</time>
      </trkpt>
      <trkpt lat="49.86964" lon="2.17412">
        <ele>111.4</ele>
        <time>2022-01-12T13:04:40Z</time>
      </trkpt>
      <trkpt lat="49.86965" lon="2.17411">
        <ele>111.4</ele>
        <time>2022-01-12T13:04:41Z</time>
      </trkpt>
      <trkpt lat="49.86966" lon="2.17409">
        <ele>111.3</ele>
        <time>2022-01-12T13:04:43Z</time>
      </trkpt>
      <trkpt lat="49.86968" lon="2.17408">
        <ele>111.3</ele>
        <time>2022-01-12T13:04:44Z</time>
      </trkpt>
      <trkpt lat="49.86969" lon="2.17406">
        <ele>111.3</ele>
        <time>2022-01-12T13:04:45Z</time>
      </trkpt>
      <trkpt lat="49.8697" lon="2.17405">
        <ele>111.3</ele>
        <time>2022-01-12T13:04:47Z</time>
      </trkpt>
      <trkpt lat="49.86972" lon="2.17404">
        <ele>111.3</ele>
        <time>2022-01-12T13:04:48Z</time>
      </trkpt>
      <trkpt lat="49.86973" lon="2.17404">
        <ele>111.2</ele>
        <time>2022-01-12T13:04:49Z</time>
      </trkpt>
      <trkpt lat="49.86975" lon="2.17403">
        <ele>111.2</ele>
        <time>2022-01-12T13:04:50Z</time>
      </trkpt>
      <trkpt lat="49.86976" lon="2.17403">
        <ele>111.2</ele>
        <time>2022-01-12T13:04:51Z</time>
      </trkpt>
      <trkpt lat="49.86977" lon="2.17402">
        <ele>111.2</ele>
        <time>2022-01-12T13:04:52Z</time>
      </trkpt>
      <trkpt lat="49.86978" lon="2.17402">
        <ele>111.2</ele>
        <time>2022-01-12T13:04:53Z</time>
      </trkpt>
      <trkpt lat="49.8698" lon="2.17401">
        <ele>111.2</ele>
        <time>2022-01-12T13:04:55Z</time>
      </trkpt>
      <trkpt lat="49.86981" lon="2.174">
        <ele>111.1</ele>
        <time>2022-01-12T13:04:56Z</time>
      </trkpt>
      <trkpt lat="49.86982" lon="2.17399">
        <ele>111.1</ele>
        <time>2022-01-12T13:04:57Z</time>
      </trkpt>
      <trkpt lat="49.86984" lon="2.17397">
        <ele>111.1</ele>
        <time>2022-01-12T13:04:58Z</time>
      </trkpt>
      <trkpt lat="49.86985" lon="2.17397">
        <ele>111.1</ele>
        <time>2022-01-12T13:04:59Z</time>
      </trkpt>
      <trkpt lat="49.86985" lon="2.17396">
        <ele>111.1</ele>
        <time>2022-01-12T13:05:00Z</time>
      </trkpt>
      <trkpt lat="49.86986" lon="2.17395">
        <ele>111.1</ele>
        <time>2022-01-12T13:05:01Z</time>
      </trkpt>
      <trkpt lat="49.86987" lon="2.17394">
        <ele>111.1</ele>
        <time>2022-01-12T13:05:02Z</time>
      </trkpt>
      <trkpt lat="49.86989" lon="2.17394">
        <ele>111.1</ele>
        <time>2022-01-12T13:05:04Z</time>
      </trkpt>
      <trkpt lat="49.8699" lon="2.17394">
        <ele>111.1</ele>
        <time>2022-01-12T13:05:05Z</time>
      </trkpt>
      <trkpt lat="49.86991" lon="2.17393">
        <ele>111.1</ele>
        <time>2022-01-12T13:05:06Z</time>
      </trkpt>
      <trkpt lat="49.86992" lon="2.17392">
        <ele>111</ele>
        <time>2022-01-12T13:05:07Z</time>
      </trkpt>
      <trkpt lat="49.86994" lon="2.17391">
        <ele>111</ele>
        <time>2022-01-12T13:05:08Z</time>
      </trkpt>
      <trkpt lat="49.86995" lon="2.1739">
        <ele>111</ele>
        <time>2022-01-12T13:05:09Z</time>
      </trkpt>
      <trkpt lat="49.86995" lon="2.17389">
        <ele>111</ele>
        <time>2022-01-12T13:05:10Z</time>
      </trkpt>
      <trkpt lat="49.86997" lon="2.17387">
        <ele>111</ele>
        <time>2022-01-12T13:05:11Z</time>
      </trkpt>
      <trkpt lat="49.86998" lon="2.17386">
        <ele>111</ele>
        <time>2022-01-12T13:05:13Z</time>
      </trkpt>
      <trkpt lat="49.86999" lon="2.17385">
        <ele>111</ele>
        <time>2022-01-12T13:05:14Z</time>
      </trkpt>
      <trkpt lat="49.86999" lon="2.17383">
        <ele>111</ele>
        <time>2022-01-12T13:05:15Z</time>
      </trkpt>
      <trkpt lat="49.87" lon="2.17382">
        <ele>111</ele>
        <time>2022-01-12T13:05:16Z</time>
      </trkpt>
      <trkpt lat="49.87" lon="2.17381">
        <ele>111</ele>
        <time>2022-01-12T13:05:17Z</time>
      </trkpt>
      <trkpt lat="49.87001" lon="2.1738">
        <ele>111</ele>
        <time>2022-01-12T13:05:18Z</time>
      </trkpt>
      <trkpt lat="49.87002" lon="2.17378">
        <ele>110.9</ele>
        <time>2022-01-12T13:05:19Z</time>
      </trkpt>
      <trkpt lat="49.87003" lon="2.17377">
        <ele>110.9</ele>
        <time>2022-01-12T13:05:20Z</time>
      </trkpt>
      <trkpt lat="49.87004" lon="2.17375">
        <ele>110.9</ele>
        <time>2022-01-12T13:05:21Z</time>
      </trkpt>
      <trkpt lat="49.87005" lon="2.17374">
        <ele>110.9</ele>
        <time>2022-01-12T13:05:22Z</time>
      </trkpt>
      <trkpt lat="49.87006" lon="2.17372">
        <ele>110.9</ele>
        <time>2022-01-12T13:05:23Z</time>
      </trkpt>
      <trkpt lat="49.87007" lon="2.17371">
        <ele>110.9</ele>
        <time>2022-01-12T13:05:25Z</time>
      </trkpt>
      <trkpt lat="49.87008" lon="2.1737">
        <ele>110.9</ele>
        <time>2022-01-12T13:05:26Z</time>
      </trkpt>
      <trkpt lat="49.87009" lon="2.17369">
        <ele>110.9</ele>
        <time>2022-01-12T13:05:27Z</time>
      </trkpt>
      <trkpt lat="49.87009" lon="2.17367">
        <ele>110.9</ele>
        <time>2022-01-12T13:05:28Z</time>
      </trkpt>
      <trkpt lat="49.8701" lon="2.17366">
        <ele>110.9</ele>
        <time>2022-01-12T13:05:29Z</time>
      </trkpt>
      <trkpt lat="49.87011" lon="2.17365">
        <ele>110.8</ele>
        <time>2022-01-12T13:05:30Z</time>
      </trkpt>
      <trkpt lat="49.87012" lon="2.17364">
        <ele>110.8</ele>
        <time>2022-01-12T13:05:32Z</time>
      </trkpt>
      <trkpt lat="49.87014" lon="2.17362">
        <ele>110.8</ele>
        <time>2022-01-12T13:05:33Z</time>
      </trkpt>
      <trkpt lat="49.87015" lon="2.17361">
        <ele>110.8</ele>
        <time>2022-01-12T13:05:34Z</time>
      </trkpt>
      <trkpt lat="49.87016" lon="2.1736">
        <ele>110.8</ele>
        <time>2022-01-12T13:05:35Z</time>
      </trkpt>
      <trkpt lat="49.87017" lon="2.17359">
        <ele>110.8</ele>
        <time>2022-01-12T13:05:36Z</time>
      </trkpt>
      <trkpt lat="49.87018" lon="2.17358">
        <ele>110.8</ele>
        <time>2022-01-12T13:05:37Z</time>
      </trkpt>
      <trkpt lat="49.87019" lon="2.17357">
        <ele>110.7</ele>
        <time>2022-01-12T13:05:39Z</time>
      </trkpt>
      <trkpt lat="49.8702" lon="2.17355">
        <ele>110.7</ele>
        <time>2022-01-12T13:05:40Z</time>
      </trkpt>
      <trkpt lat="49.87022" lon="2.17353">
        <ele>110.7</ele>
        <time>2022-01-12T13:05:41Z</time>
      </trkpt>
      <trkpt lat="49.87022" lon="2.17353">
        <ele>110.7</ele>
        <time>2022-01-12T13:05:42Z</time>
      </trkpt>
      <trkpt lat="49.87023" lon="2.17352">
        <ele>110.7</ele>
        <time>2022-01-12T13:05:43Z</time>
      </trkpt>
      <trkpt lat="49.87024" lon="2.17351">
        <ele>110.7</ele>
        <time>2022-01-12T13:05:44Z</time>
      </trkpt>
      <trkpt lat="49.87025" lon="2.1735">
        <ele>110.6</ele>
        <time>2022-01-12T13:05:45Z</time>
      </trkpt>
      <trkpt lat="49.87026" lon="2.17348">
        <ele>110.6</ele>
        <time>2022-01-12T13:05:47Z</time>
      </trkpt>
      <trkpt lat="49.87027" lon="2.17345">
        <ele>110.6</ele>
        <time>2022-01-12T13:05:48Z</time>
      </trkpt>
      <trkpt lat="49.87028" lon="2.17345">
        <ele>110.5</ele>
        <time>2022-01-12T13:05:49Z</time>
      </trkpt>
      <trkpt lat="49.87029" lon="2.17344">
        <ele>110.5</ele>
        <time>2022-01-12T13:05:50Z</time>
      </trkpt>
      <trkpt lat="49.8703" lon="2.17342">
        <ele>110.4</ele>
        <time>2022-01-12T13:05:51Z</time>
      </trkpt>
      <trkpt lat="49.87031" lon="2.1734">
        <ele>110.3</ele>
        <time>2022-01-12T13:05:52Z</time>
      </trkpt>
      <trkpt lat="49.87032" lon="2.17337">
        <ele>110.2</ele>
        <time>2022-01-12T13:05:53Z</time>
      </trkpt>
      <trkpt lat="49.87033" lon="2.17335">
        <ele>110.1</ele>
        <time>2022-01-12T13:05:55Z</time>
      </trkpt>
      <trkpt lat="49.87033" lon="2.17334">
        <ele>110</ele>
        <time>2022-01-12T13:05:56Z</time>
      </trkpt>
      <trkpt lat="49.87034" lon="2.17332">
        <ele>110</ele>
        <time>2022-01-12T13:05:57Z</time>
      </trkpt>
      <trkpt lat="49.87035" lon="2.17331">
        <ele>109.9</ele>
        <time>2022-01-12T13:05:58Z</time>
      </trkpt>
      <trkpt lat="49.87035" lon="2.17329">
        <ele>109.8</ele>
        <time>2022-01-12T13:05:59Z</time>
      </trkpt>
      <trkpt lat="49.87035" lon="2.17328">
        <ele>109.7</ele>
        <time>2022-01-12T13:06:00Z</time>
      </trkpt>
      <trkpt lat="49.87036" lon="2.17326">
        <ele>109.7</ele>
        <time>2022-01-12T13:06:01Z</time>
      </trkpt>
      <trkpt lat="49.87036" lon="2.17325">
        <ele>109.6</ele>
        <time>2022-01-12T13:06:02Z</time>
      </trkpt>
      <trkpt lat="49.87037" lon="2.17325">
        <ele>109.6</ele>
        <time>2022-01-12T13:06:03Z</time>
      </trkpt>
      <trkpt lat="49.87039" lon="2.17323">
        <ele>109.4</ele>
        <time>2022-01-12T13:06:05Z</time>
      </trkpt>
      <trkpt lat="49.8704" lon="2.17321">
        <ele>109.3</ele>
        <time>2022-01-12T13:06:06Z</time>
      </trkpt>
      <trkpt lat="49.87041" lon="2.1732">
        <ele>109.3</ele>
        <time>2022-01-12T13:06:07Z</time>
      </trkpt>
      <trkpt lat="49.87042" lon="2.17319">
        <ele>109.2</ele>
        <time>2022-01-12T13:06:08Z</time>
      </trkpt>
      <trkpt lat="49.87043" lon="2.17317">
        <ele>109.1</ele>
        <time>2022-01-12T13:06:10Z</time>
      </trkpt>
      <trkpt lat="49.87044" lon="2.17316">
        <ele>109</ele>
        <time>2022-01-12T13:06:11Z</time>
      </trkpt>
      <trkpt lat="49.87045" lon="2.17315">
        <ele>108.9</ele>
        <time>2022-01-12T13:06:12Z</time>
      </trkpt>
      <trkpt lat="49.87046" lon="2.17314">
        <ele>108.8</ele>
        <time>2022-01-12T13:06:13Z</time>
      </trkpt>
      <trkpt lat="49.87047" lon="2.17312">
        <ele>108.7</ele>
        <time>2022-01-12T13:06:15Z</time>
      </trkpt>
      <trkpt lat="49.87048" lon="2.1731">
        <ele>108.6</ele>
        <time>2022-01-12T13:06:16Z</time>
      </trkpt>
      <trkpt lat="49.87049" lon="2.17309">
        <ele>108.6</ele>
        <time>2022-01-12T13:06:17Z</time>
      </trkpt>
      <trkpt lat="49.8705" lon="2.17308">
        <ele>108.5</ele>
        <time>2022-01-12T13:06:18Z</time>
      </trkpt>
      <trkpt lat="49.8705" lon="2.17306">
        <ele>108.4</ele>
        <time>2022-01-12T13:06:19Z</time>
      </trkpt>
      <trkpt lat="49.87051" lon="2.17305">
        <ele>108.3</ele>
        <time>2022-01-12T13:06:20Z</time>
      </trkpt>
      <trkpt lat="49.87052" lon="2.17303">
        <ele>108.2</ele>
        <time>2022-01-12T13:06:21Z</time>
      </trkpt>
      <trkpt lat="49.87052" lon="2.17301">
        <ele>108.1</ele>
        <time>2022-01-12T13:06:22Z</time>
      </trkpt>
      <trkpt lat="49.87053" lon="2.17299">
        <ele>108</ele>
        <time>2022-01-12T13:06:24Z</time>
      </trkpt>
      <trkpt lat="49.87054" lon="2.17297">
        <ele>107.9</ele>
        <time>2022-01-12T13:06:25Z</time>
      </trkpt>
      <trkpt lat="49.87055" lon="2.17295">
        <ele>107.8</ele>
        <time>2022-01-12T13:06:27Z</time>
      </trkpt>
      <trkpt lat="49.87056" lon="2.17293">
        <ele>107.7</ele>
        <time>2022-01-12T13:06:28Z</time>
      </trkpt>
      <trkpt lat="49.87057" lon="2.17291">
        <ele>107.6</ele>
        <time>2022-01-12T13:06:29Z</time>
      </trkpt>
      <trkpt lat="49.87058" lon="2.17288">
        <ele>107.4</ele>
        <time>2022-01-12T13:06:30Z</time>
      </trkpt>
      <trkpt lat="49.87058" lon="2.17287">
        <ele>107.4</ele>
        <time>2022-01-12T13:06:31Z</time>
      </trkpt>
      <trkpt lat="49.87059" lon="2.17286">
        <ele>107.3</ele>
        <time>2022-01-12T13:06:32Z</time>
      </trkpt>
      <trkpt lat="49.87059" lon="2.17284">
        <ele>107.2</ele>
        <time>2022-01-12T13:06:33Z</time>
      </trkpt>
      <trkpt lat="49.8706" lon="2.17283">
        <ele>107.2</ele>
        <time>2022-01-12T13:06:34Z</time>
      </trkpt>
      <trkpt lat="49.87061" lon="2.17283">
        <ele>107.1</ele>
        <time>2022-01-12T13:06:35Z</time>
      </trkpt>
      <trkpt lat="49.87063" lon="2.17281">
        <ele>106.9</ele>
        <time>2022-01-12T13:06:37Z</time>
      </trkpt>
      <trkpt lat="49.87064" lon="2.1728">
        <ele>106.9</ele>
        <time>2022-01-12T13:06:38Z</time>
      </trkpt>
      <trkpt lat="49.87064" lon="2.1728">
        <ele>106.8</ele>
        <time>2022-01-12T13:06:39Z</time>
      </trkpt>
      <trkpt lat="49.87065" lon="2.17278">
        <ele>106.7</ele>
        <time>2022-01-12T13:06:40Z</time>
      </trkpt>
      <trkpt lat="49.87066" lon="2.17276">
        <ele>106.6</ele>
        <time>2022-01-12T13:06:41Z</time>
      </trkpt>
      <trkpt lat="49.87066" lon="2.17274">
        <ele>106.6</ele>
        <time>2022-01-12T13:06:42Z</time>
      </trkpt>
      <trkpt lat="49.87066" lon="2.17272">
        <ele>106.5</ele>
        <time>2022-01-12T13:06:44Z</time>
      </trkpt>
      <trkpt lat="49.87067" lon="2.1727">
        <ele>106.4</ele>
        <time>2022-01-12T13:06:45Z</time>
      </trkpt>
      <trkpt lat="49.87068" lon="2.17268">
        <ele>106.3</ele>
        <time>2022-01-12T13:06:46Z</time>
      </trkpt>
      <trkpt lat="49.87068" lon="2.17267">
        <ele>106.2</ele>
        <time>2022-01-12T13:06:47Z</time>
      </trkpt>
      <trkpt lat="49.87069" lon="2.17264">
        <ele>106.1</ele>
        <time>2022-01-12T13:06:48Z</time>
      </trkpt>
      <trkpt lat="49.8707" lon="2.17263">
        <ele>106</ele>
        <time>2022-01-12T13:06:49Z</time>
      </trkpt>
      <trkpt lat="49.8707" lon="2.17262">
        <ele>105.9</ele>
        <time>2022-01-12T13:06:50Z</time>
      </trkpt>
      <trkpt lat="49.87071" lon="2.1726">
        <ele>105.8</ele>
        <time>2022-01-12T13:06:51Z</time>
      </trkpt>
      <trkpt lat="49.87072" lon="2.17259">
        <ele>105.7</ele>
        <time>2022-01-12T13:06:52Z</time>
      </trkpt>
      <trkpt lat="49.87074" lon="2.17257">
        <ele>105.6</ele>
        <time>2022-01-12T13:06:53Z</time>
      </trkpt>
      <trkpt lat="49.87075" lon="2.17255">
        <ele>105.5</ele>
        <time>2022-01-12T13:06:55Z</time>
      </trkpt>
      <trkpt lat="49.87076" lon="2.17254">
        <ele>105.4</ele>
        <time>2022-01-12T13:06:56Z</time>
      </trkpt>
      <trkpt lat="49.87077" lon="2.17253">
        <ele>105.4</ele>
        <time>2022-01-12T13:06:57Z</time>
      </trkpt>
      <trkpt lat="49.87077" lon="2.17252">
        <ele>105.3</ele>
        <time>2022-01-12T13:06:58Z</time>
      </trkpt>
      <trkpt lat="49.87078" lon="2.17251">
        <ele>105.2</ele>
        <time>2022-01-12T13:06:59Z</time>
      </trkpt>
      <trkpt lat="49.8708" lon="2.17249">
        <ele>105.1</ele>
        <time>2022-01-12T13:07:01Z</time>
      </trkpt>
      <trkpt lat="49.87081" lon="2.17247">
        <ele>105</ele>
        <time>2022-01-12T13:07:02Z</time>
      </trkpt>
      <trkpt lat="49.87081" lon="2.17245">
        <ele>104.9</ele>
        <time>2022-01-12T13:07:03Z</time>
      </trkpt>
      <trkpt lat="49.87082" lon="2.17243">
        <ele>104.8</ele>
        <time>2022-01-12T13:07:04Z</time>
      </trkpt>
      <trkpt lat="49.87083" lon="2.17241">
        <ele>104.7</ele>
        <time>2022-01-12T13:07:05Z</time>
      </trkpt>
      <trkpt lat="49.87084" lon="2.17239">
        <ele>104.6</ele>
        <time>2022-01-12T13:07:07Z</time>
      </trkpt>
      <trkpt lat="49.87085" lon="2.17237">
        <ele>104.5</ele>
        <time>2022-01-12T13:07:08Z</time>
      </trkpt>
      <trkpt lat="49.87086" lon="2.17234">
        <ele>104.4</ele>
        <time>2022-01-12T13:07:09Z</time>
      </trkpt>
      <trkpt lat="49.87086" lon="2.17233">
        <ele>104.3</ele>
        <time>2022-01-12T13:07:10Z</time>
      </trkpt>
      <trkpt lat="49.87086" lon="2.17232">
        <ele>104.3</ele>
        <time>2022-01-12T13:07:11Z</time>
      </trkpt>
      <trkpt lat="49.87087" lon="2.1723">
        <ele>104.2</ele>
        <time>2022-01-12T13:07:12Z</time>
      </trkpt>
      <trkpt lat="49.87087" lon="2.17228">
        <ele>104.1</ele>
        <time>2022-01-12T13:07:13Z</time>
      </trkpt>
      <trkpt lat="49.87088" lon="2.17227">
        <ele>104</ele>
        <time>2022-01-12T13:07:14Z</time>
      </trkpt>
      <trkpt lat="49.87088" lon="2.17226">
        <ele>103.9</ele>
        <time>2022-01-12T13:07:15Z</time>
      </trkpt>
      <trkpt lat="49.87089" lon="2.17224">
        <ele>103.9</ele>
        <time>2022-01-12T13:07:16Z</time>
      </trkpt>
      <trkpt lat="49.87089" lon="2.17222">
        <ele>103.8</ele>
        <time>2022-01-12T13:07:17Z</time>
      </trkpt>
      <trkpt lat="49.8709" lon="2.1722">
        <ele>103.6</ele>
        <time>2022-01-12T13:07:19Z</time>
      </trkpt>
      <trkpt lat="49.8709" lon="2.17218">
        <ele>103.5</ele>
        <time>2022-01-12T13:07:21Z</time>
      </trkpt>
      <trkpt lat="49.8709" lon="2.17216">
        <ele>103.5</ele>
        <time>2022-01-12T13:07:22Z</time>
      </trkpt>
      <trkpt lat="49.87091" lon="2.17214">
        <ele>103.4</ele>
        <time>2022-01-12T13:07:23Z</time>
      </trkpt>
      <trkpt lat="49.87092" lon="2.17213">
        <ele>103.3</ele>
        <time>2022-01-12T13:07:25Z</time>
      </trkpt>
      <trkpt lat="49.87092" lon="2.17213">
        <ele>103.2</ele>
        <time>2022-01-12T13:07:27Z</time>
      </trkpt>
      <trkpt lat="49.87092" lon="2.17214">
        <ele>103.2</ele>
        <time>2022-01-12T13:07:29Z</time>
      </trkpt>
      <trkpt lat="49.87092" lon="2.17215">
        <ele>103.2</ele>
        <time>2022-01-12T13:07:31Z</time>
      </trkpt>
      <trkpt lat="49.87092" lon="2.17215">
        <ele>103.1</ele>
        <time>2022-01-12T13:07:33Z</time>
      </trkpt>
      <trkpt lat="49.87092" lon="2.17215">
        <ele>103.1</ele>
        <time>2022-01-12T13:07:34Z</time>
      </trkpt>
      <trkpt lat="49.87092" lon="2.17215">
        <ele>103.1</ele>
        <time>2022-01-12T13:07:36Z</time>
      </trkpt>
      <trkpt lat="49.87092" lon="2.17215">
        <ele>103.1</ele>
        <time>2022-01-12T13:07:37Z</time>
      </trkpt>
      <trkpt lat="49.87092" lon="2.17215">
        <ele>103.1</ele>
        <time>2022-01-12T13:07:39Z</time>
      </trkpt>
      <trkpt lat="49.87092" lon="2.17215">
        <ele>103.1</ele>
        <time>2022-01-12T13:07:41Z</time>
      </trkpt>
      <trkpt lat="49.87091" lon="2.17216">
        <ele>103.1</ele>
        <time>2022-01-12T13:07:43Z</time>
      </trkpt>
      <trkpt lat="49.87091" lon="2.17216">
        <ele>103.1</ele>
        <time>2022-01-12T13:07:45Z</time>
      </trkpt>
      <trkpt lat="49.87091" lon="2.17216">
        <ele>103.1</ele>
        <time>2022-01-12T13:07:47Z</time>
      </trkpt>
      <trkpt lat="49.87091" lon="2.17216">
        <ele>103</ele>
        <time>2022-01-12T13:07:48Z</time>
      </trkpt>
      <trkpt lat="49.87091" lon="2.17216">
        <ele>103</ele>
        <time>2022-01-12T13:07:49Z</time>
      </trkpt>
      <trkpt lat="49.87091" lon="2.17216">
        <ele>103</ele>
        <time>2022-01-12T13:07:51Z</time>
      </trkpt>
      <trkpt lat="49.87091" lon="2.17216">
        <ele>103</ele>
        <time>2022-01-12T13:07:53Z</time>
      </trkpt>
      <trkpt lat="49.8709" lon="2.17217">
        <ele>103</ele>
        <time>2022-01-12T13:07:54Z</time>
      </trkpt>
      <trkpt lat="49.8709" lon="2.17218">
        <ele>102.9</ele>
        <time>2022-01-12T13:07:55Z</time>
      </trkpt>
      <trkpt lat="49.87089" lon="2.17218">
        <ele>102.9</ele>
        <time>2022-01-12T13:07:57Z</time>
      </trkpt>
      <trkpt lat="49.8709" lon="2.17217">
        <ele>102.9</ele>
        <time>2022-01-12T13:07:58Z</time>
      </trkpt>
      <trkpt lat="49.87091" lon="2.17215">
        <ele>102.7</ele>
        <time>2022-01-12T13:08:00Z</time>
      </trkpt>
      <trkpt lat="49.87091" lon="2.17214">
        <ele>102.7</ele>
        <time>2022-01-12T13:08:01Z</time>
      </trkpt>
      <trkpt lat="49.87092" lon="2.17212">
        <ele>102.5</ele>
        <time>2022-01-12T13:08:02Z</time>
      </trkpt>
      <trkpt lat="49.87092" lon="2.17211">
        <ele>102.5</ele>
        <time>2022-01-12T13:08:03Z</time>
      </trkpt>
      <trkpt lat="49.87092" lon="2.17209">
        <ele>102.4</ele>
        <time>2022-01-12T13:08:04Z</time>
      </trkpt>
      <trkpt lat="49.87093" lon="2.17206">
        <ele>102.4</ele>
        <time>2022-01-12T13:08:05Z</time>
      </trkpt>
      <trkpt lat="49.87093" lon="2.17205">
        <ele>102.4</ele>
        <time>2022-01-12T13:08:06Z</time>
      </trkpt>
      <trkpt lat="49.87093" lon="2.17203">
        <ele>102.3</ele>
        <time>2022-01-12T13:08:07Z</time>
      </trkpt>
      <trkpt lat="49.87093" lon="2.172">
        <ele>102.3</ele>
        <time>2022-01-12T13:08:09Z</time>
      </trkpt>
      <trkpt lat="49.87093" lon="2.17198">
        <ele>102.3</ele>
        <time>2022-01-12T13:08:10Z</time>
      </trkpt>
      <trkpt lat="49.87094" lon="2.17196">
        <ele>102.2</ele>
        <time>2022-01-12T13:08:11Z</time>
      </trkpt>
      <trkpt lat="49.87094" lon="2.17195">
        <ele>102.2</ele>
        <time>2022-01-12T13:08:12Z</time>
      </trkpt>
      <trkpt lat="49.87093" lon="2.17193">
        <ele>102.2</ele>
        <time>2022-01-12T13:08:14Z</time>
      </trkpt>
      <trkpt lat="49.87093" lon="2.17189">
        <ele>102.1</ele>
        <time>2022-01-12T13:08:15Z</time>
      </trkpt>
      <trkpt lat="49.87093" lon="2.17188">
        <ele>102.1</ele>
        <time>2022-01-12T13:08:16Z</time>
      </trkpt>
      <trkpt lat="49.87092" lon="2.17187">
        <ele>102.1</ele>
        <time>2022-01-12T13:08:17Z</time>
      </trkpt>
      <trkpt lat="49.87092" lon="2.17183">
        <ele>102</ele>
        <time>2022-01-12T13:08:18Z</time>
      </trkpt>
      <trkpt lat="49.87092" lon="2.17181">
        <ele>102</ele>
        <time>2022-01-12T13:08:20Z</time>
      </trkpt>
      <trkpt lat="49.87092" lon="2.17179">
        <ele>101.9</ele>
        <time>2022-01-12T13:08:21Z</time>
      </trkpt>
      <trkpt lat="49.87091" lon="2.17176">
        <ele>101.9</ele>
        <time>2022-01-12T13:08:22Z</time>
      </trkpt>
      <trkpt lat="49.87091" lon="2.17175">
        <ele>101.9</ele>
        <time>2022-01-12T13:08:24Z</time>
      </trkpt>
      <trkpt lat="49.87091" lon="2.17173">
        <ele>101.8</ele>
        <time>2022-01-12T13:08:25Z</time>
      </trkpt>
      <trkpt lat="49.8709" lon="2.17171">
        <ele>101.8</ele>
        <time>2022-01-12T13:08:26Z</time>
      </trkpt>
      <trkpt lat="49.8709" lon="2.1717">
        <ele>101.8</ele>
        <time>2022-01-12T13:08:27Z</time>
      </trkpt>
      <trkpt lat="49.8709" lon="2.17169">
        <ele>101.7</ele>
        <time>2022-01-12T13:08:28Z</time>
      </trkpt>
      <trkpt lat="49.8709" lon="2.17167">
        <ele>101.7</ele>
        <time>2022-01-12T13:08:30Z</time>
      </trkpt>
      <trkpt lat="49.87089" lon="2.17165">
        <ele>101.7</ele>
        <time>2022-01-12T13:08:31Z</time>
      </trkpt>
      <trkpt lat="49.87089" lon="2.17163">
        <ele>101.6</ele>
        <time>2022-01-12T13:08:32Z</time>
      </trkpt>
      <trkpt lat="49.87089" lon="2.1716">
        <ele>101.6</ele>
        <time>2022-01-12T13:08:33Z</time>
      </trkpt>
      <trkpt lat="49.87089" lon="2.17157">
        <ele>101.5</ele>
        <time>2022-01-12T13:08:34Z</time>
      </trkpt>
      <trkpt lat="49.87089" lon="2.17156">
        <ele>101.5</ele>
        <time>2022-01-12T13:08:36Z</time>
      </trkpt>
      <trkpt lat="49.87089" lon="2.17154">
        <ele>101.5</ele>
        <time>2022-01-12T13:08:37Z</time>
      </trkpt>
      <trkpt lat="49.87089" lon="2.17152">
        <ele>101.4</ele>
        <time>2022-01-12T13:08:38Z</time>
      </trkpt>
      <trkpt lat="49.87088" lon="2.1715">
        <ele>101.4</ele>
        <time>2022-01-12T13:08:39Z</time>
      </trkpt>
      <trkpt lat="49.87088" lon="2.17147">
        <ele>101.3</ele>
        <time>2022-01-12T13:08:41Z</time>
      </trkpt>
      <trkpt lat="49.87088" lon="2.17144">
        <ele>101.3</ele>
        <time>2022-01-12T13:08:42Z</time>
      </trkpt>
      <trkpt lat="49.87088" lon="2.17141">
        <ele>101.2</ele>
        <time>2022-01-12T13:08:43Z</time>
      </trkpt>
      <trkpt lat="49.87088" lon="2.1714">
        <ele>101.2</ele>
        <time>2022-01-12T13:08:44Z</time>
      </trkpt>
      <trkpt lat="49.87088" lon="2.17139">
        <ele>101.2</ele>
        <time>2022-01-12T13:08:45Z</time>
      </trkpt>
      <trkpt lat="49.87088" lon="2.17136">
        <ele>101.1</ele>
        <time>2022-01-12T13:08:46Z</time>
      </trkpt>
      <trkpt lat="49.87088" lon="2.17134">
        <ele>101.1</ele>
        <time>2022-01-12T13:08:48Z</time>
      </trkpt>
      <trkpt lat="49.87087" lon="2.17133">
        <ele>101.1</ele>
        <time>2022-01-12T13:08:49Z</time>
      </trkpt>
      <trkpt lat="49.87087" lon="2.17131">
        <ele>101</ele>
        <time>2022-01-12T13:08:50Z</time>
      </trkpt>
      <trkpt lat="49.87087" lon="2.17129">
        <ele>101</ele>
        <time>2022-01-12T13:08:51Z</time>
      </trkpt>
      <trkpt lat="49.87087" lon="2.17126">
        <ele>101</ele>
        <time>2022-01-12T13:08:52Z</time>
      </trkpt>
      <trkpt lat="49.87087" lon="2.17124">
        <ele>100.9</ele>
        <time>2022-01-12T13:08:53Z</time>
      </trkpt>
      <trkpt lat="49.87087" lon="2.17123">
        <ele>100.9</ele>
        <time>2022-01-12T13:08:54Z</time>
      </trkpt>
      <trkpt lat="49.87087" lon="2.17119">
        <ele>100.8</ele>
        <time>2022-01-12T13:08:55Z</time>
      </trkpt>
      <trkpt lat="49.87087" lon="2.17118">
        <ele>100.8</ele>
        <time>2022-01-12T13:08:56Z</time>
      </trkpt>
      <trkpt lat="49.87087" lon="2.17117">
        <ele>100.8</ele>
        <time>2022-01-12T13:08:57Z</time>
      </trkpt>
      <trkpt lat="49.87087" lon="2.17113">
        <ele>100.7</ele>
        <time>2022-01-12T13:08:59Z</time>
      </trkpt>
      <trkpt lat="49.87087" lon="2.17112">
        <ele>100.7</ele>
        <time>2022-01-12T13:09:00Z</time>
      </trkpt>
      <trkpt lat="49.87087" lon="2.17111">
        <ele>100.7</ele>
        <time>2022-01-12T13:09:01Z</time>
      </trkpt>
      <trkpt lat="49.87086" lon="2.17109">
        <ele>100.7</ele>
        <time>2022-01-12T13:09:02Z</time>
      </trkpt>
      <trkpt lat="49.87086" lon="2.17107">
        <ele>100.6</ele>
        <time>2022-01-12T13:09:03Z</time>
      </trkpt>
      <trkpt lat="49.87086" lon="2.17106">
        <ele>100.6</ele>
        <time>2022-01-12T13:09:04Z</time>
      </trkpt>
      <trkpt lat="49.87086" lon="2.17104">
        <ele>100.6</ele>
        <time>2022-01-12T13:09:05Z</time>
      </trkpt>
      <trkpt lat="49.87087" lon="2.171">
        <ele>100.5</ele>
        <time>2022-01-12T13:09:07Z</time>
      </trkpt>
      <trkpt lat="49.87087" lon="2.17098">
        <ele>100.5</ele>
        <time>2022-01-12T13:09:08Z</time>
      </trkpt>
      <trkpt lat="49.87087" lon="2.17095">
        <ele>100.5</ele>
        <time>2022-01-12T13:09:10Z</time>
      </trkpt>
      <trkpt lat="49.87087" lon="2.17093">
        <ele>100.4</ele>
        <time>2022-01-12T13:09:11Z</time>
      </trkpt>
      <trkpt lat="49.87086" lon="2.17089">
        <ele>100.4</ele>
        <time>2022-01-12T13:09:13Z</time>
      </trkpt>
      <trkpt lat="49.87086" lon="2.17086">
        <ele>100.4</ele>
        <time>2022-01-12T13:09:14Z</time>
      </trkpt>
      <trkpt lat="49.87086" lon="2.17085">
        <ele>100.3</ele>
        <time>2022-01-12T13:09:15Z</time>
      </trkpt>
      <trkpt lat="49.87085" lon="2.17083">
        <ele>100.3</ele>
        <time>2022-01-12T13:09:16Z</time>
      </trkpt>
      <trkpt lat="49.87085" lon="2.17081">
        <ele>100.3</ele>
        <time>2022-01-12T13:09:17Z</time>
      </trkpt>
      <trkpt lat="49.87085" lon="2.17078">
        <ele>100.3</ele>
        <time>2022-01-12T13:09:18Z</time>
      </trkpt>
      <trkpt lat="49.87085" lon="2.17074">
        <ele>100.2</ele>
        <time>2022-01-12T13:09:20Z</time>
      </trkpt>
      <trkpt lat="49.87085" lon="2.17072">
        <ele>100.2</ele>
        <time>2022-01-12T13:09:21Z</time>
      </trkpt>
      <trkpt lat="49.87085" lon="2.1707">
        <ele>100.2</ele>
        <time>2022-01-12T13:09:22Z</time>
      </trkpt>
      <trkpt lat="49.87085" lon="2.17067">
        <ele>100.2</ele>
        <time>2022-01-12T13:09:24Z</time>
      </trkpt>
      <trkpt lat="49.87084" lon="2.17065">
        <ele>100.1</ele>
        <time>2022-01-12T13:09:25Z</time>
      </trkpt>
      <trkpt lat="49.87084" lon="2.17063">
        <ele>100.1</ele>
        <time>2022-01-12T13:09:26Z</time>
      </trkpt>
      <trkpt lat="49.87084" lon="2.17061">
        <ele>100.1</ele>
        <time>2022-01-12T13:09:27Z</time>
      </trkpt>
      <trkpt lat="49.87084" lon="2.17059">
        <ele>100.1</ele>
        <time>2022-01-12T13:09:28Z</time>
      </trkpt>
      <trkpt lat="49.87084" lon="2.17056">
        <ele>100</ele>
        <time>2022-01-12T13:09:30Z</time>
      </trkpt>
      <trkpt lat="49.87084" lon="2.17053">
        <ele>99.9</ele>
        <time>2022-01-12T13:09:31Z</time>
      </trkpt>
      <trkpt lat="49.87084" lon="2.17052">
        <ele>99.9</ele>
        <time>2022-01-12T13:09:32Z</time>
      </trkpt>
      <trkpt lat="49.87084" lon="2.1705">
        <ele>99.9</ele>
        <time>2022-01-12T13:09:33Z</time>
      </trkpt>
      <trkpt lat="49.87084" lon="2.17047">
        <ele>99.8</ele>
        <time>2022-01-12T13:09:34Z</time>
      </trkpt>
      <trkpt lat="49.87084" lon="2.17046">
        <ele>99.7</ele>
        <time>2022-01-12T13:09:36Z</time>
      </trkpt>
      <trkpt lat="49.87084" lon="2.17045">
        <ele>99.7</ele>
        <time>2022-01-12T13:09:37Z</time>
      </trkpt>
      <trkpt lat="49.87084" lon="2.17041">
        <ele>99.6</ele>
        <time>2022-01-12T13:09:38Z</time>
      </trkpt>
      <trkpt lat="49.87084" lon="2.1704">
        <ele>99.6</ele>
        <time>2022-01-12T13:09:39Z</time>
      </trkpt>
      <trkpt lat="49.87084" lon="2.17039">
        <ele>99.5</ele>
        <time>2022-01-12T13:09:40Z</time>
      </trkpt>
      <trkpt lat="49.87084" lon="2.17036">
        <ele>99.4</ele>
        <time>2022-01-12T13:09:41Z</time>
      </trkpt>
      <trkpt lat="49.87085" lon="2.17034">
        <ele>99.4</ele>
        <time>2022-01-12T13:09:43Z</time>
      </trkpt>
      <trkpt lat="49.87085" lon="2.17033">
        <ele>99.3</ele>
        <time>2022-01-12T13:09:44Z</time>
      </trkpt>
      <trkpt lat="49.87085" lon="2.1703">
        <ele>99.3</ele>
        <time>2022-01-12T13:09:45Z</time>
      </trkpt>
      <trkpt lat="49.87085" lon="2.17028">
        <ele>99.2</ele>
        <time>2022-01-12T13:09:46Z</time>
      </trkpt>
      <trkpt lat="49.87085" lon="2.17027">
        <ele>99.2</ele>
        <time>2022-01-12T13:09:47Z</time>
      </trkpt>
      <trkpt lat="49.87085" lon="2.17025">
        <ele>99.1</ele>
        <time>2022-01-12T13:09:48Z</time>
      </trkpt>
      <trkpt lat="49.87084" lon="2.17022">
        <ele>99</ele>
        <time>2022-01-12T13:09:50Z</time>
      </trkpt>
      <trkpt lat="49.87084" lon="2.17018">
        <ele>98.9</ele>
        <time>2022-01-12T13:09:51Z</time>
      </trkpt>
      <trkpt lat="49.87084" lon="2.17016">
        <ele>98.8</ele>
        <time>2022-01-12T13:09:53Z</time>
      </trkpt>
      <trkpt lat="49.87084" lon="2.17014">
        <ele>98.8</ele>
        <time>2022-01-12T13:09:54Z</time>
      </trkpt>
      <trkpt lat="49.87084" lon="2.17012">
        <ele>98.7</ele>
        <time>2022-01-12T13:09:55Z</time>
      </trkpt>
      <trkpt lat="49.87084" lon="2.1701">
        <ele>98.7</ele>
        <time>2022-01-12T13:09:56Z</time>
      </trkpt>
      <trkpt lat="49.87084" lon="2.17009">
        <ele>98.6</ele>
        <time>2022-01-12T13:09:57Z</time>
      </trkpt>
      <trkpt lat="49.87084" lon="2.17007">
        <ele>98.6</ele>
        <time>2022-01-12T13:09:58Z</time>
      </trkpt>
      <trkpt lat="49.87083" lon="2.17006">
        <ele>98.5</ele>
        <time>2022-01-12T13:09:59Z</time>
      </trkpt>
      <trkpt lat="49.87083" lon="2.17002">
        <ele>98.4</ele>
        <time>2022-01-12T13:10:01Z</time>
      </trkpt>
      <trkpt lat="49.87083" lon="2.17001">
        <ele>98.4</ele>
        <time>2022-01-12T13:10:02Z</time>
      </trkpt>
      <trkpt lat="49.87083" lon="2.17">
        <ele>98.3</ele>
        <time>2022-01-12T13:10:03Z</time>
      </trkpt>
      <trkpt lat="49.87083" lon="2.16997">
        <ele>98.2</ele>
        <time>2022-01-12T13:10:04Z</time>
      </trkpt>
      <trkpt lat="49.87083" lon="2.16995">
        <ele>98.2</ele>
        <time>2022-01-12T13:10:05Z</time>
      </trkpt>
      <trkpt lat="49.87083" lon="2.16994">
        <ele>98.2</ele>
        <time>2022-01-12T13:10:06Z</time>
      </trkpt>
      <trkpt lat="49.87083" lon="2.16992">
        <ele>98.1</ele>
        <time>2022-01-12T13:10:07Z</time>
      </trkpt>
      <trkpt lat="49.87083" lon="2.1699">
        <ele>98</ele>
        <time>2022-01-12T13:10:09Z</time>
      </trkpt>
      <trkpt lat="49.87083" lon="2.16988">
        <ele>98</ele>
        <time>2022-01-12T13:10:10Z</time>
      </trkpt>
      <trkpt lat="49.87082" lon="2.16986">
        <ele>97.9</ele>
        <time>2022-01-12T13:10:11Z</time>
      </trkpt>
      <trkpt lat="49.87082" lon="2.16984">
        <ele>97.9</ele>
        <time>2022-01-12T13:10:12Z</time>
      </trkpt>
      <trkpt lat="49.87082" lon="2.16982">
        <ele>97.8</ele>
        <time>2022-01-12T13:10:13Z</time>
      </trkpt>
      <trkpt lat="49.87082" lon="2.1698">
        <ele>97.7</ele>
        <time>2022-01-12T13:10:15Z</time>
      </trkpt>
      <trkpt lat="49.87082" lon="2.16979">
        <ele>97.7</ele>
        <time>2022-01-12T13:10:16Z</time>
      </trkpt>
      <trkpt lat="49.87081" lon="2.16977">
        <ele>97.6</ele>
        <time>2022-01-12T13:10:17Z</time>
      </trkpt>
      <trkpt lat="49.87081" lon="2.16974">
        <ele>97.5</ele>
        <time>2022-01-12T13:10:19Z</time>
      </trkpt>
      <trkpt lat="49.87081" lon="2.16972">
        <ele>97.5</ele>
        <time>2022-01-12T13:10:20Z</time>
      </trkpt>
      <trkpt lat="49.87081" lon="2.1697">
        <ele>97.4</ele>
        <time>2022-01-12T13:10:21Z</time>
      </trkpt>
      <trkpt lat="49.87082" lon="2.16967">
        <ele>97.3</ele>
        <time>2022-01-12T13:10:22Z</time>
      </trkpt>
      <trkpt lat="49.87082" lon="2.16965">
        <ele>97.3</ele>
        <time>2022-01-12T13:10:23Z</time>
      </trkpt>
      <trkpt lat="49.87083" lon="2.16964">
        <ele>97.2</ele>
        <time>2022-01-12T13:10:24Z</time>
      </trkpt>
      <trkpt lat="49.87083" lon="2.16962">
        <ele>97.1</ele>
        <time>2022-01-12T13:10:25Z</time>
      </trkpt>
      <trkpt lat="49.87084" lon="2.1696">
        <ele>97.1</ele>
        <time>2022-01-12T13:10:26Z</time>
      </trkpt>
      <trkpt lat="49.87084" lon="2.16958">
        <ele>97</ele>
        <time>2022-01-12T13:10:27Z</time>
      </trkpt>
      <trkpt lat="49.87085" lon="2.16956">
        <ele>96.9</ele>
        <time>2022-01-12T13:10:28Z</time>
      </trkpt>
      <trkpt lat="49.87085" lon="2.16955">
        <ele>96.9</ele>
        <time>2022-01-12T13:10:29Z</time>
      </trkpt>
      <trkpt lat="49.87085" lon="2.16951">
        <ele>96.9</ele>
        <time>2022-01-12T13:10:31Z</time>
      </trkpt>
      <trkpt lat="49.87085" lon="2.1695">
        <ele>96.8</ele>
        <time>2022-01-12T13:10:32Z</time>
      </trkpt>
      <trkpt lat="49.87085" lon="2.16948">
        <ele>96.8</ele>
        <time>2022-01-12T13:10:33Z</time>
      </trkpt>
      <trkpt lat="49.87085" lon="2.16946">
        <ele>96.7</ele>
        <time>2022-01-12T13:10:34Z</time>
      </trkpt>
      <trkpt lat="49.87085" lon="2.16944">
        <ele>96.7</ele>
        <time>2022-01-12T13:10:35Z</time>
      </trkpt>
      <trkpt lat="49.87086" lon="2.16942">
        <ele>96.6</ele>
        <time>2022-01-12T13:10:36Z</time>
      </trkpt>
      <trkpt lat="49.87087" lon="2.1694">
        <ele>96.5</ele>
        <time>2022-01-12T13:10:37Z</time>
      </trkpt>
      <trkpt lat="49.87087" lon="2.16939">
        <ele>96.5</ele>
        <time>2022-01-12T13:10:38Z</time>
      </trkpt>
      <trkpt lat="49.87088" lon="2.16937">
        <ele>96.4</ele>
        <time>2022-01-12T13:10:39Z</time>
      </trkpt>
      <trkpt lat="49.87089" lon="2.16936">
        <ele>96.4</ele>
        <time>2022-01-12T13:10:40Z</time>
      </trkpt>
      <trkpt lat="49.8709" lon="2.16934">
        <ele>96.3</ele>
        <time>2022-01-12T13:10:42Z</time>
      </trkpt>
      <trkpt lat="49.87091" lon="2.16933">
        <ele>96.2</ele>
        <time>2022-01-12T13:10:43Z</time>
      </trkpt>
      <trkpt lat="49.87092" lon="2.16931">
        <ele>96.2</ele>
        <time>2022-01-12T13:10:44Z</time>
      </trkpt>
      <trkpt lat="49.87093" lon="2.16929">
        <ele>96.1</ele>
        <time>2022-01-12T13:10:45Z</time>
      </trkpt>
      <trkpt lat="49.87094" lon="2.16927">
        <ele>96.1</ele>
        <time>2022-01-12T13:10:46Z</time>
      </trkpt>
      <trkpt lat="49.87095" lon="2.16925">
        <ele>96</ele>
        <time>2022-01-12T13:10:47Z</time>
      </trkpt>
      <trkpt lat="49.87095" lon="2.16923">
        <ele>95.9</ele>
        <time>2022-01-12T13:10:49Z</time>
      </trkpt>
      <trkpt lat="49.87096" lon="2.16921">
        <ele>95.9</ele>
        <time>2022-01-12T13:10:50Z</time>
      </trkpt>
      <trkpt lat="49.87097" lon="2.16919">
        <ele>95.8</ele>
        <time>2022-01-12T13:10:51Z</time>
      </trkpt>
      <trkpt lat="49.87097" lon="2.16917">
        <ele>95.7</ele>
        <time>2022-01-12T13:10:52Z</time>
      </trkpt>
      <trkpt lat="49.87098" lon="2.16916">
        <ele>95.7</ele>
        <time>2022-01-12T13:10:53Z</time>
      </trkpt>
      <trkpt lat="49.87099" lon="2.16914">
        <ele>95.6</ele>
        <time>2022-01-12T13:10:54Z</time>
      </trkpt>
      <trkpt lat="49.87099" lon="2.16912">
        <ele>95.6</ele>
        <time>2022-01-12T13:10:55Z</time>
      </trkpt>
      <trkpt lat="49.87099" lon="2.1691">
        <ele>95.6</ele>
        <time>2022-01-12T13:10:56Z</time>
      </trkpt>
      <trkpt lat="49.871" lon="2.16909">
        <ele>95.5</ele>
        <time>2022-01-12T13:10:57Z</time>
      </trkpt>
      <trkpt lat="49.871" lon="2.16907">
        <ele>95.5</ele>
        <time>2022-01-12T13:10:58Z</time>
      </trkpt>
      <trkpt lat="49.87101" lon="2.16904">
        <ele>95.4</ele>
        <time>2022-01-12T13:10:59Z</time>
      </trkpt>
      <trkpt lat="49.87101" lon="2.16903">
        <ele>95.3</ele>
        <time>2022-01-12T13:11:01Z</time>
      </trkpt>
      <trkpt lat="49.87101" lon="2.16901">
        <ele>95.3</ele>
        <time>2022-01-12T13:11:02Z</time>
      </trkpt>
      <trkpt lat="49.87102" lon="2.16899">
        <ele>95.2</ele>
        <time>2022-01-12T13:11:03Z</time>
      </trkpt>
      <trkpt lat="49.87103" lon="2.16896">
        <ele>95.1</ele>
        <time>2022-01-12T13:11:05Z</time>
      </trkpt>
      <trkpt lat="49.87104" lon="2.16894">
        <ele>95.1</ele>
        <time>2022-01-12T13:11:06Z</time>
      </trkpt>
      <trkpt lat="49.87104" lon="2.16892">
        <ele>95</ele>
        <time>2022-01-12T13:11:07Z</time>
      </trkpt>
      <trkpt lat="49.87105" lon="2.16889">
        <ele>94.9</ele>
        <time>2022-01-12T13:11:08Z</time>
      </trkpt>
      <trkpt lat="49.87105" lon="2.16888">
        <ele>94.9</ele>
        <time>2022-01-12T13:11:10Z</time>
      </trkpt>
      <trkpt lat="49.87106" lon="2.16887">
        <ele>94.8</ele>
        <time>2022-01-12T13:11:11Z</time>
      </trkpt>
      <trkpt lat="49.87106" lon="2.16885">
        <ele>94.8</ele>
        <time>2022-01-12T13:11:12Z</time>
      </trkpt>
      <trkpt lat="49.87107" lon="2.16883">
        <ele>94.7</ele>
        <time>2022-01-12T13:11:13Z</time>
      </trkpt>
      <trkpt lat="49.87108" lon="2.1688">
        <ele>94.6</ele>
        <time>2022-01-12T13:11:15Z</time>
      </trkpt>
      <trkpt lat="49.87108" lon="2.16878">
        <ele>94.5</ele>
        <time>2022-01-12T13:11:16Z</time>
      </trkpt>
      <trkpt lat="49.87109" lon="2.16876">
        <ele>94.5</ele>
        <time>2022-01-12T13:11:17Z</time>
      </trkpt>
      <trkpt lat="49.8711" lon="2.16874">
        <ele>94.4</ele>
        <time>2022-01-12T13:11:18Z</time>
      </trkpt>
      <trkpt lat="49.87111" lon="2.16872">
        <ele>94.3</ele>
        <time>2022-01-12T13:11:19Z</time>
      </trkpt>
      <trkpt lat="49.87111" lon="2.1687">
        <ele>94.3</ele>
        <time>2022-01-12T13:11:21Z</time>
      </trkpt>
      <trkpt lat="49.87112" lon="2.16868">
        <ele>94.2</ele>
        <time>2022-01-12T13:11:22Z</time>
      </trkpt>
      <trkpt lat="49.87112" lon="2.16866">
        <ele>94.1</ele>
        <time>2022-01-12T13:11:23Z</time>
      </trkpt>
      <trkpt lat="49.87113" lon="2.16864">
        <ele>94</ele>
        <time>2022-01-12T13:11:24Z</time>
      </trkpt>
      <trkpt lat="49.87113" lon="2.16862">
        <ele>93.9</ele>
        <time>2022-01-12T13:11:25Z</time>
      </trkpt>
      <trkpt lat="49.87114" lon="2.16859">
        <ele>93.8</ele>
        <time>2022-01-12T13:11:26Z</time>
      </trkpt>
      <trkpt lat="49.87114" lon="2.16858">
        <ele>93.8</ele>
        <time>2022-01-12T13:11:27Z</time>
      </trkpt>
      <trkpt lat="49.87114" lon="2.16856">
        <ele>93.7</ele>
        <time>2022-01-12T13:11:28Z</time>
      </trkpt>
      <trkpt lat="49.87115" lon="2.16854">
        <ele>93.6</ele>
        <time>2022-01-12T13:11:29Z</time>
      </trkpt>
      <trkpt lat="49.87115" lon="2.16852">
        <ele>93.6</ele>
        <time>2022-01-12T13:11:30Z</time>
      </trkpt>
      <trkpt lat="49.87115" lon="2.1685">
        <ele>93.5</ele>
        <time>2022-01-12T13:11:32Z</time>
      </trkpt>
      <trkpt lat="49.87115" lon="2.16848">
        <ele>93.4</ele>
        <time>2022-01-12T13:11:33Z</time>
      </trkpt>
      <trkpt lat="49.87115" lon="2.16846">
        <ele>93.3</ele>
        <time>2022-01-12T13:11:34Z</time>
      </trkpt>
      <trkpt lat="49.87116" lon="2.16843">
        <ele>93.2</ele>
        <time>2022-01-12T13:11:35Z</time>
      </trkpt>
      <trkpt lat="49.87116" lon="2.1684">
        <ele>93.1</ele>
        <time>2022-01-12T13:11:36Z</time>
      </trkpt>
      <trkpt lat="49.87116" lon="2.16839">
        <ele>93</ele>
        <time>2022-01-12T13:11:37Z</time>
      </trkpt>
      <trkpt lat="49.87117" lon="2.16838">
        <ele>93</ele>
        <time>2022-01-12T13:11:38Z</time>
      </trkpt>
      <trkpt lat="49.87117" lon="2.16835">
        <ele>92.9</ele>
        <time>2022-01-12T13:11:40Z</time>
      </trkpt>
      <trkpt lat="49.87118" lon="2.16833">
        <ele>92.8</ele>
        <time>2022-01-12T13:11:41Z</time>
      </trkpt>
      <trkpt lat="49.87118" lon="2.16831">
        <ele>92.7</ele>
        <time>2022-01-12T13:11:42Z</time>
      </trkpt>
      <trkpt lat="49.87118" lon="2.16829">
        <ele>92.6</ele>
        <time>2022-01-12T13:11:43Z</time>
      </trkpt>
      <trkpt lat="49.87118" lon="2.16828">
        <ele>92.6</ele>
        <time>2022-01-12T13:11:44Z</time>
      </trkpt>
      <trkpt lat="49.87118" lon="2.16825">
        <ele>92.5</ele>
        <time>2022-01-12T13:11:46Z</time>
      </trkpt>
      <trkpt lat="49.87119" lon="2.16823">
        <ele>92.4</ele>
        <time>2022-01-12T13:11:47Z</time>
      </trkpt>
      <trkpt lat="49.87119" lon="2.1682">
        <ele>92.3</ele>
        <time>2022-01-12T13:11:49Z</time>
      </trkpt>
      <trkpt lat="49.8712" lon="2.16818">
        <ele>92.2</ele>
        <time>2022-01-12T13:11:50Z</time>
      </trkpt>
      <trkpt lat="49.8712" lon="2.16816">
        <ele>92.1</ele>
        <time>2022-01-12T13:11:51Z</time>
      </trkpt>
      <trkpt lat="49.87121" lon="2.16814">
        <ele>92</ele>
        <time>2022-01-12T13:11:52Z</time>
      </trkpt>
      <trkpt lat="49.87121" lon="2.16812">
        <ele>91.9</ele>
        <time>2022-01-12T13:11:53Z</time>
      </trkpt>
      <trkpt lat="49.87121" lon="2.1681">
        <ele>91.8</ele>
        <time>2022-01-12T13:11:54Z</time>
      </trkpt>
      <trkpt lat="49.87121" lon="2.16808">
        <ele>91.8</ele>
        <time>2022-01-12T13:11:55Z</time>
      </trkpt>
      <trkpt lat="49.87121" lon="2.16805">
        <ele>91.6</ele>
        <time>2022-01-12T13:11:57Z</time>
      </trkpt>
      <trkpt lat="49.87122" lon="2.16803">
        <ele>91.5</ele>
        <time>2022-01-12T13:11:58Z</time>
      </trkpt>
      <trkpt lat="49.87122" lon="2.168">
        <ele>91.4</ele>
        <time>2022-01-12T13:11:59Z</time>
      </trkpt>
      <trkpt lat="49.87122" lon="2.16797">
        <ele>91.3</ele>
        <time>2022-01-12T13:12:01Z</time>
      </trkpt>
      <trkpt lat="49.87122" lon="2.16795">
        <ele>91.2</ele>
        <time>2022-01-12T13:12:02Z</time>
      </trkpt>
      <trkpt lat="49.87122" lon="2.16793">
        <ele>91.1</ele>
        <time>2022-01-12T13:12:03Z</time>
      </trkpt>
      <trkpt lat="49.87122" lon="2.16792">
        <ele>91.1</ele>
        <time>2022-01-12T13:12:04Z</time>
      </trkpt>
      <trkpt lat="49.87123" lon="2.16787">
        <ele>90.9</ele>
        <time>2022-01-12T13:12:06Z</time>
      </trkpt>
      <trkpt lat="49.87123" lon="2.16786">
        <ele>90.8</ele>
        <time>2022-01-12T13:12:07Z</time>
      </trkpt>
      <trkpt lat="49.87123" lon="2.16784">
        <ele>90.7</ele>
        <time>2022-01-12T13:12:09Z</time>
      </trkpt>
      <trkpt lat="49.87123" lon="2.16782">
        <ele>90.6</ele>
        <time>2022-01-12T13:12:10Z</time>
      </trkpt>
      <trkpt lat="49.87124" lon="2.16779">
        <ele>90.5</ele>
        <time>2022-01-12T13:12:11Z</time>
      </trkpt>
      <trkpt lat="49.87124" lon="2.16777">
        <ele>90.4</ele>
        <time>2022-01-12T13:12:12Z</time>
      </trkpt>
      <trkpt lat="49.87124" lon="2.16775">
        <ele>90.3</ele>
        <time>2022-01-12T13:12:13Z</time>
      </trkpt>
      <trkpt lat="49.87124" lon="2.16772">
        <ele>90.1</ele>
        <time>2022-01-12T13:12:14Z</time>
      </trkpt>
      <trkpt lat="49.87124" lon="2.1677">
        <ele>90</ele>
        <time>2022-01-12T13:12:15Z</time>
      </trkpt>
      <trkpt lat="49.87125" lon="2.16767">
        <ele>89.9</ele>
        <time>2022-01-12T13:12:17Z</time>
      </trkpt>
      <trkpt lat="49.87125" lon="2.16765">
        <ele>89.8</ele>
        <time>2022-01-12T13:12:18Z</time>
      </trkpt>
      <trkpt lat="49.87125" lon="2.16763">
        <ele>89.7</ele>
        <time>2022-01-12T13:12:19Z</time>
      </trkpt>
      <trkpt lat="49.87125" lon="2.16761">
        <ele>89.6</ele>
        <time>2022-01-12T13:12:20Z</time>
      </trkpt>
      <trkpt lat="49.87125" lon="2.16759">
        <ele>89.5</ele>
        <time>2022-01-12T13:12:21Z</time>
      </trkpt>
      <trkpt lat="49.87125" lon="2.16757">
        <ele>89.4</ele>
        <time>2022-01-12T13:12:22Z</time>
      </trkpt>
      <trkpt lat="49.87125" lon="2.16756">
        <ele>89.4</ele>
        <time>2022-01-12T13:12:23Z</time>
      </trkpt>
      <trkpt lat="49.87125" lon="2.16754">
        <ele>89.3</ele>
        <time>2022-01-12T13:12:24Z</time>
      </trkpt>
      <trkpt lat="49.87125" lon="2.16752">
        <ele>89.2</ele>
        <time>2022-01-12T13:12:25Z</time>
      </trkpt>
      <trkpt lat="49.87126" lon="2.1675">
        <ele>89.1</ele>
        <time>2022-01-12T13:12:27Z</time>
      </trkpt>
      <trkpt lat="49.87126" lon="2.16747">
        <ele>89</ele>
        <time>2022-01-12T13:12:28Z</time>
      </trkpt>
      <trkpt lat="49.87126" lon="2.16745">
        <ele>88.9</ele>
        <time>2022-01-12T13:12:29Z</time>
      </trkpt>
      <trkpt lat="49.87127" lon="2.16743">
        <ele>88.8</ele>
        <time>2022-01-12T13:12:30Z</time>
      </trkpt>
      <trkpt lat="49.87126" lon="2.16741">
        <ele>88.7</ele>
        <time>2022-01-12T13:12:31Z</time>
      </trkpt>
      <trkpt lat="49.87126" lon="2.16739">
        <ele>88.6</ele>
        <time>2022-01-12T13:12:32Z</time>
      </trkpt>
      <trkpt lat="49.87126" lon="2.16737">
        <ele>88.5</ele>
        <time>2022-01-12T13:12:34Z</time>
      </trkpt>
      <trkpt lat="49.87127" lon="2.16735">
        <ele>88.4</ele>
        <time>2022-01-12T13:12:35Z</time>
      </trkpt>
      <trkpt lat="49.87127" lon="2.16733">
        <ele>88.3</ele>
        <time>2022-01-12T13:12:36Z</time>
      </trkpt>
      <trkpt lat="49.87127" lon="2.16731">
        <ele>88.2</ele>
        <time>2022-01-12T13:12:37Z</time>
      </trkpt>
      <trkpt lat="49.87127" lon="2.16729">
        <ele>88.1</ele>
        <time>2022-01-12T13:12:38Z</time>
      </trkpt>
      <trkpt lat="49.87127" lon="2.16726">
        <ele>88</ele>
        <time>2022-01-12T13:12:39Z</time>
      </trkpt>
      <trkpt lat="49.87128" lon="2.16725">
        <ele>87.9</ele>
        <time>2022-01-12T13:12:40Z</time>
      </trkpt>
      <trkpt lat="49.87128" lon="2.16723">
        <ele>87.9</ele>
        <time>2022-01-12T13:12:41Z</time>
      </trkpt>
      <trkpt lat="49.87128" lon="2.1672">
        <ele>87.7</ele>
        <time>2022-01-12T13:12:42Z</time>
      </trkpt>
      <trkpt lat="49.87129" lon="2.16719">
        <ele>87.7</ele>
        <time>2022-01-12T13:12:43Z</time>
      </trkpt>
      <trkpt lat="49.87129" lon="2.16718">
        <ele>87.6</ele>
        <time>2022-01-12T13:12:44Z</time>
      </trkpt>
      <trkpt lat="49.8713" lon="2.16716">
        <ele>87.5</ele>
        <time>2022-01-12T13:12:45Z</time>
      </trkpt>
      <trkpt lat="49.8713" lon="2.16714">
        <ele>87.4</ele>
        <time>2022-01-12T13:12:46Z</time>
      </trkpt>
      <trkpt lat="49.8713" lon="2.16711">
        <ele>87.3</ele>
        <time>2022-01-12T13:12:47Z</time>
      </trkpt>
      <trkpt lat="49.8713" lon="2.16708">
        <ele>87.2</ele>
        <time>2022-01-12T13:12:49Z</time>
      </trkpt>
      <trkpt lat="49.87131" lon="2.16707">
        <ele>87.1</ele>
        <time>2022-01-12T13:12:50Z</time>
      </trkpt>
      <trkpt lat="49.87131" lon="2.16705">
        <ele>87</ele>
        <time>2022-01-12T13:12:51Z</time>
      </trkpt>
      <trkpt lat="49.87131" lon="2.16702">
        <ele>86.9</ele>
        <time>2022-01-12T13:12:53Z</time>
      </trkpt>
      <trkpt lat="49.87131" lon="2.16701">
        <ele>86.9</ele>
        <time>2022-01-12T13:12:54Z</time>
      </trkpt>
      <trkpt lat="49.87131" lon="2.16699">
        <ele>86.8</ele>
        <time>2022-01-12T13:12:55Z</time>
      </trkpt>
      <trkpt lat="49.87131" lon="2.16698">
        <ele>86.7</ele>
        <time>2022-01-12T13:12:56Z</time>
      </trkpt>
      <trkpt lat="49.87132" lon="2.16695">
        <ele>86.5</ele>
        <time>2022-01-12T13:12:58Z</time>
      </trkpt>
      <trkpt lat="49.87132" lon="2.16693">
        <ele>86.5</ele>
        <time>2022-01-12T13:12:59Z</time>
      </trkpt>
      <trkpt lat="49.87132" lon="2.16692">
        <ele>86.4</ele>
        <time>2022-01-12T13:13:00Z</time>
      </trkpt>
      <trkpt lat="49.87132" lon="2.1669">
        <ele>86.3</ele>
        <time>2022-01-12T13:13:01Z</time>
      </trkpt>
      <trkpt lat="49.87133" lon="2.16688">
        <ele>86.2</ele>
        <time>2022-01-12T13:13:02Z</time>
      </trkpt>
      <trkpt lat="49.87133" lon="2.16684">
        <ele>86.1</ele>
        <time>2022-01-12T13:13:04Z</time>
      </trkpt>
      <trkpt lat="49.87133" lon="2.16682">
        <ele>86</ele>
        <time>2022-01-12T13:13:05Z</time>
      </trkpt>
      <trkpt lat="49.87133" lon="2.1668">
        <ele>85.9</ele>
        <time>2022-01-12T13:13:06Z</time>
      </trkpt>
      <trkpt lat="49.87133" lon="2.16678">
        <ele>85.8</ele>
        <time>2022-01-12T13:13:07Z</time>
      </trkpt>
      <trkpt lat="49.87133" lon="2.16675">
        <ele>85.7</ele>
        <time>2022-01-12T13:13:09Z</time>
      </trkpt>
      <trkpt lat="49.87134" lon="2.16673">
        <ele>85.6</ele>
        <time>2022-01-12T13:13:10Z</time>
      </trkpt>
      <trkpt lat="49.87134" lon="2.1667">
        <ele>85.4</ele>
        <time>2022-01-12T13:13:11Z</time>
      </trkpt>
      <trkpt lat="49.87134" lon="2.16669">
        <ele>85.4</ele>
        <time>2022-01-12T13:13:12Z</time>
      </trkpt>
      <trkpt lat="49.87134" lon="2.16667">
        <ele>85.3</ele>
        <time>2022-01-12T13:13:13Z</time>
      </trkpt>
      <trkpt lat="49.87135" lon="2.16662">
        <ele>85.1</ele>
        <time>2022-01-12T13:13:15Z</time>
      </trkpt>
      <trkpt lat="49.87135" lon="2.16661">
        <ele>85.1</ele>
        <time>2022-01-12T13:13:16Z</time>
      </trkpt>
      <trkpt lat="49.87134" lon="2.16659">
        <ele>84.9</ele>
        <time>2022-01-12T13:13:17Z</time>
      </trkpt>
      <trkpt lat="49.87135" lon="2.16657">
        <ele>84.8</ele>
        <time>2022-01-12T13:13:18Z</time>
      </trkpt>
      <trkpt lat="49.87135" lon="2.16655">
        <ele>84.8</ele>
        <time>2022-01-12T13:13:19Z</time>
      </trkpt>
      <trkpt lat="49.87135" lon="2.16653">
        <ele>84.7</ele>
        <time>2022-01-12T13:13:20Z</time>
      </trkpt>
      <trkpt lat="49.87136" lon="2.1665">
        <ele>84.6</ele>
        <time>2022-01-12T13:13:21Z</time>
      </trkpt>
      <trkpt lat="49.87136" lon="2.16648">
        <ele>84.5</ele>
        <time>2022-01-12T13:13:23Z</time>
      </trkpt>
      <trkpt lat="49.87136" lon="2.16646">
        <ele>84.4</ele>
        <time>2022-01-12T13:13:24Z</time>
      </trkpt>
      <trkpt lat="49.87137" lon="2.16645">
        <ele>84.3</ele>
        <time>2022-01-12T13:13:25Z</time>
      </trkpt>
      <trkpt lat="49.87137" lon="2.16643">
        <ele>84.2</ele>
        <time>2022-01-12T13:13:26Z</time>
      </trkpt>
      <trkpt lat="49.87138" lon="2.16642">
        <ele>84.1</ele>
        <time>2022-01-12T13:13:27Z</time>
      </trkpt>
      <trkpt lat="49.87138" lon="2.1664">
        <ele>84.1</ele>
        <time>2022-01-12T13:13:28Z</time>
      </trkpt>
      <trkpt lat="49.87139" lon="2.16638">
        <ele>84</ele>
        <time>2022-01-12T13:13:29Z</time>
      </trkpt>
      <trkpt lat="49.87139" lon="2.16636">
        <ele>83.9</ele>
        <time>2022-01-12T13:13:30Z</time>
      </trkpt>
      <trkpt lat="49.87139" lon="2.16634">
        <ele>83.8</ele>
        <time>2022-01-12T13:13:31Z</time>
      </trkpt>
      <trkpt lat="49.87139" lon="2.16633">
        <ele>83.8</ele>
        <time>2022-01-12T13:13:32Z</time>
      </trkpt>
      <trkpt lat="49.8714" lon="2.16631">
        <ele>83.7</ele>
        <time>2022-01-12T13:13:33Z</time>
      </trkpt>
      <trkpt lat="49.8714" lon="2.16629">
        <ele>83.6</ele>
        <time>2022-01-12T13:13:35Z</time>
      </trkpt>
      <trkpt lat="49.8714" lon="2.16627">
        <ele>83.5</ele>
        <time>2022-01-12T13:13:36Z</time>
      </trkpt>
      <trkpt lat="49.87141" lon="2.16626">
        <ele>83.5</ele>
        <time>2022-01-12T13:13:37Z</time>
      </trkpt>
      <trkpt lat="49.87141" lon="2.16624">
        <ele>83.4</ele>
        <time>2022-01-12T13:13:38Z</time>
      </trkpt>
      <trkpt lat="49.87141" lon="2.16622">
        <ele>83.4</ele>
        <time>2022-01-12T13:13:39Z</time>
      </trkpt>
      <trkpt lat="49.87141" lon="2.16619">
        <ele>83.2</ele>
        <time>2022-01-12T13:13:40Z</time>
      </trkpt>
      <trkpt lat="49.87141" lon="2.16618">
        <ele>83.2</ele>
        <time>2022-01-12T13:13:41Z</time>
      </trkpt>
      <trkpt lat="49.87141" lon="2.16616">
        <ele>83.1</ele>
        <time>2022-01-12T13:13:42Z</time>
      </trkpt>
      <trkpt lat="49.87142" lon="2.16614">
        <ele>83</ele>
        <time>2022-01-12T13:13:44Z</time>
      </trkpt>
      <trkpt lat="49.87142" lon="2.16612">
        <ele>83</ele>
        <time>2022-01-12T13:13:45Z</time>
      </trkpt>
      <trkpt lat="49.87142" lon="2.16608">
        <ele>82.8</ele>
        <time>2022-01-12T13:13:46Z</time>
      </trkpt>
      <trkpt lat="49.87142" lon="2.16607">
        <ele>82.8</ele>
        <time>2022-01-12T13:13:47Z</time>
      </trkpt>
      <trkpt lat="49.87143" lon="2.16606">
        <ele>82.8</ele>
        <time>2022-01-12T13:13:48Z</time>
      </trkpt>
      <trkpt lat="49.87143" lon="2.16604">
        <ele>82.7</ele>
        <time>2022-01-12T13:13:49Z</time>
      </trkpt>
      <trkpt lat="49.87143" lon="2.16602">
        <ele>82.6</ele>
        <time>2022-01-12T13:13:50Z</time>
      </trkpt>
      <trkpt lat="49.87144" lon="2.166">
        <ele>82.6</ele>
        <time>2022-01-12T13:13:52Z</time>
      </trkpt>
      <trkpt lat="49.87144" lon="2.16597">
        <ele>82.5</ele>
        <time>2022-01-12T13:13:53Z</time>
      </trkpt>
      <trkpt lat="49.87145" lon="2.16595">
        <ele>82.4</ele>
        <time>2022-01-12T13:13:54Z</time>
      </trkpt>
      <trkpt lat="49.87145" lon="2.16593">
        <ele>82.4</ele>
        <time>2022-01-12T13:13:55Z</time>
      </trkpt>
      <trkpt lat="49.87145" lon="2.16591">
        <ele>82.3</ele>
        <time>2022-01-12T13:13:56Z</time>
      </trkpt>
      <trkpt lat="49.87145" lon="2.16589">
        <ele>82.2</ele>
        <time>2022-01-12T13:13:57Z</time>
      </trkpt>
      <trkpt lat="49.87146" lon="2.16587">
        <ele>82.2</ele>
        <time>2022-01-12T13:13:59Z</time>
      </trkpt>
      <trkpt lat="49.87146" lon="2.16584">
        <ele>82.1</ele>
        <time>2022-01-12T13:14:00Z</time>
      </trkpt>
      <trkpt lat="49.87146" lon="2.16582">
        <ele>82</ele>
        <time>2022-01-12T13:14:01Z</time>
      </trkpt>
      <trkpt lat="49.87146" lon="2.16579">
        <ele>82</ele>
        <time>2022-01-12T13:14:02Z</time>
      </trkpt>
      <trkpt lat="49.87147" lon="2.16578">
        <ele>81.9</ele>
        <time>2022-01-12T13:14:03Z</time>
      </trkpt>
      <trkpt lat="49.87147" lon="2.16577">
        <ele>81.9</ele>
        <time>2022-01-12T13:14:04Z</time>
      </trkpt>
      <trkpt lat="49.87147" lon="2.16575">
        <ele>81.8</ele>
        <time>2022-01-12T13:14:06Z</time>
      </trkpt>
      <trkpt lat="49.87147" lon="2.16573">
        <ele>81.8</ele>
        <time>2022-01-12T13:14:07Z</time>
      </trkpt>
      <trkpt lat="49.87148" lon="2.1657">
        <ele>81.7</ele>
        <time>2022-01-12T13:14:08Z</time>
      </trkpt>
      <trkpt lat="49.87148" lon="2.16568">
        <ele>81.7</ele>
        <time>2022-01-12T13:14:09Z</time>
      </trkpt>
      <trkpt lat="49.87148" lon="2.16566">
        <ele>81.6</ele>
        <time>2022-01-12T13:14:10Z</time>
      </trkpt>
      <trkpt lat="49.87149" lon="2.16563">
        <ele>81.6</ele>
        <time>2022-01-12T13:14:12Z</time>
      </trkpt>
      <trkpt lat="49.87149" lon="2.16562">
        <ele>81.5</ele>
        <time>2022-01-12T13:14:13Z</time>
      </trkpt>
      <trkpt lat="49.87149" lon="2.1656">
        <ele>81.5</ele>
        <time>2022-01-12T13:14:14Z</time>
      </trkpt>
      <trkpt lat="49.8715" lon="2.16558">
        <ele>81.5</ele>
        <time>2022-01-12T13:14:15Z</time>
      </trkpt>
      <trkpt lat="49.8715" lon="2.16555">
        <ele>81.4</ele>
        <time>2022-01-12T13:14:16Z</time>
      </trkpt>
      <trkpt lat="49.8715" lon="2.16554">
        <ele>81.4</ele>
        <time>2022-01-12T13:14:18Z</time>
      </trkpt>
      <trkpt lat="49.8715" lon="2.16552">
        <ele>81.4</ele>
        <time>2022-01-12T13:14:19Z</time>
      </trkpt>
      <trkpt lat="49.8715" lon="2.16549">
        <ele>81.3</ele>
        <time>2022-01-12T13:14:21Z</time>
      </trkpt>
      <trkpt lat="49.8715" lon="2.16547">
        <ele>81.3</ele>
        <time>2022-01-12T13:14:22Z</time>
      </trkpt>
      <trkpt lat="49.8715" lon="2.16545">
        <ele>81.2</ele>
        <time>2022-01-12T13:14:23Z</time>
      </trkpt>
      <trkpt lat="49.8715" lon="2.16542">
        <ele>81.2</ele>
        <time>2022-01-12T13:14:24Z</time>
      </trkpt>
      <trkpt lat="49.87151" lon="2.16539">
        <ele>81.1</ele>
        <time>2022-01-12T13:14:25Z</time>
      </trkpt>
      <trkpt lat="49.87151" lon="2.16537">
        <ele>81.1</ele>
        <time>2022-01-12T13:14:26Z</time>
      </trkpt>
      <trkpt lat="49.87151" lon="2.16536">
        <ele>81.1</ele>
        <time>2022-01-12T13:14:27Z</time>
      </trkpt>
      <trkpt lat="49.87151" lon="2.16533">
        <ele>81</ele>
        <time>2022-01-12T13:14:28Z</time>
      </trkpt>
      <trkpt lat="49.87151" lon="2.16532">
        <ele>81</ele>
        <time>2022-01-12T13:14:29Z</time>
      </trkpt>
      <trkpt lat="49.87152" lon="2.1653">
        <ele>81</ele>
        <time>2022-01-12T13:14:30Z</time>
      </trkpt>
      <trkpt lat="49.87152" lon="2.16529">
        <ele>81</ele>
        <time>2022-01-12T13:14:31Z</time>
      </trkpt>
      <trkpt lat="49.87151" lon="2.16527">
        <ele>81</ele>
        <time>2022-01-12T13:14:32Z</time>
      </trkpt>
      <trkpt lat="49.87152" lon="2.16525">
        <ele>80.9</ele>
        <time>2022-01-12T13:14:34Z</time>
      </trkpt>
      <trkpt lat="49.87152" lon="2.16521">
        <ele>80.9</ele>
        <time>2022-01-12T13:14:35Z</time>
      </trkpt>
      <trkpt lat="49.87152" lon="2.1652">
        <ele>80.9</ele>
        <time>2022-01-12T13:14:36Z</time>
      </trkpt>
      <trkpt lat="49.87152" lon="2.16519">
        <ele>80.9</ele>
        <time>2022-01-12T13:14:37Z</time>
      </trkpt>
      <trkpt lat="49.87153" lon="2.16516">
        <ele>80.8</ele>
        <time>2022-01-12T13:14:38Z</time>
      </trkpt>
      <trkpt lat="49.87153" lon="2.16514">
        <ele>80.8</ele>
        <time>2022-01-12T13:14:39Z</time>
      </trkpt>
      <trkpt lat="49.87153" lon="2.16511">
        <ele>80.8</ele>
        <time>2022-01-12T13:14:40Z</time>
      </trkpt>
      <trkpt lat="49.87153" lon="2.16509">
        <ele>80.7</ele>
        <time>2022-01-12T13:14:42Z</time>
      </trkpt>
      <trkpt lat="49.87153" lon="2.16508">
        <ele>80.7</ele>
        <time>2022-01-12T13:14:43Z</time>
      </trkpt>
      <trkpt lat="49.87153" lon="2.16505">
        <ele>80.7</ele>
        <time>2022-01-12T13:14:44Z</time>
      </trkpt>
      <trkpt lat="49.87153" lon="2.16504">
        <ele>80.7</ele>
        <time>2022-01-12T13:14:45Z</time>
      </trkpt>
      <trkpt lat="49.87153" lon="2.16502">
        <ele>80.7</ele>
        <time>2022-01-12T13:14:46Z</time>
      </trkpt>
      <trkpt lat="49.87153" lon="2.16501">
        <ele>80.7</ele>
        <time>2022-01-12T13:14:47Z</time>
      </trkpt>
      <trkpt lat="49.87153" lon="2.16499">
        <ele>80.6</ele>
        <time>2022-01-12T13:14:48Z</time>
      </trkpt>
      <trkpt lat="49.87153" lon="2.16497">
        <ele>80.6</ele>
        <time>2022-01-12T13:14:49Z</time>
      </trkpt>
      <trkpt lat="49.87153" lon="2.16495">
        <ele>80.6</ele>
        <time>2022-01-12T13:14:50Z</time>
      </trkpt>
      <trkpt lat="49.87153" lon="2.16493">
        <ele>80.6</ele>
        <time>2022-01-12T13:14:51Z</time>
      </trkpt>
      <trkpt lat="49.87153" lon="2.16491">
        <ele>80.6</ele>
        <time>2022-01-12T13:14:52Z</time>
      </trkpt>
      <trkpt lat="49.87152" lon="2.16488">
        <ele>80.6</ele>
        <time>2022-01-12T13:14:53Z</time>
      </trkpt>
      <trkpt lat="49.87152" lon="2.16487">
        <ele>80.6</ele>
        <time>2022-01-12T13:14:54Z</time>
      </trkpt>
      <trkpt lat="49.87152" lon="2.16485">
        <ele>80.6</ele>
        <time>2022-01-12T13:14:55Z</time>
      </trkpt>
      <trkpt lat="49.87151" lon="2.16482">
        <ele>80.5</ele>
        <time>2022-01-12T13:14:57Z</time>
      </trkpt>
      <trkpt lat="49.87151" lon="2.16478">
        <ele>80.5</ele>
        <time>2022-01-12T13:14:58Z</time>
      </trkpt>
      <trkpt lat="49.87151" lon="2.16477">
        <ele>80.5</ele>
        <time>2022-01-12T13:14:59Z</time>
      </trkpt>
      <trkpt lat="49.87151" lon="2.16476">
        <ele>80.5</ele>
        <time>2022-01-12T13:15:00Z</time>
      </trkpt>
      <trkpt lat="49.8715" lon="2.16474">
        <ele>80.5</ele>
        <time>2022-01-12T13:15:01Z</time>
      </trkpt>
      <trkpt lat="49.8715" lon="2.16473">
        <ele>80.5</ele>
        <time>2022-01-12T13:15:02Z</time>
      </trkpt>
      <trkpt lat="49.8715" lon="2.16471">
        <ele>80.5</ele>
        <time>2022-01-12T13:15:03Z</time>
      </trkpt>
      <trkpt lat="49.8715" lon="2.16469">
        <ele>80.5</ele>
        <time>2022-01-12T13:15:04Z</time>
      </trkpt>
      <trkpt lat="49.87149" lon="2.16468">
        <ele>80.5</ele>
        <time>2022-01-12T13:15:05Z</time>
      </trkpt>
      <trkpt lat="49.87149" lon="2.16466">
        <ele>80.5</ele>
        <time>2022-01-12T13:15:06Z</time>
      </trkpt>
      <trkpt lat="49.87149" lon="2.16463">
        <ele>80.5</ele>
        <time>2022-01-12T13:15:08Z</time>
      </trkpt>
      <trkpt lat="49.87149" lon="2.16461">
        <ele>80.5</ele>
        <time>2022-01-12T13:15:09Z</time>
      </trkpt>
      <trkpt lat="49.87149" lon="2.1646">
        <ele>80.5</ele>
        <time>2022-01-12T13:15:10Z</time>
      </trkpt>
      <trkpt lat="49.87149" lon="2.16458">
        <ele>80.5</ele>
        <time>2022-01-12T13:15:11Z</time>
      </trkpt>
      <trkpt lat="49.87149" lon="2.16456">
        <ele>80.5</ele>
        <time>2022-01-12T13:15:12Z</time>
      </trkpt>
      <trkpt lat="49.87149" lon="2.16452">
        <ele>80.5</ele>
        <time>2022-01-12T13:15:14Z</time>
      </trkpt>
      <trkpt lat="49.87149" lon="2.1645">
        <ele>80.5</ele>
        <time>2022-01-12T13:15:15Z</time>
      </trkpt>
      <trkpt lat="49.87149" lon="2.16447">
        <ele>80.5</ele>
        <time>2022-01-12T13:15:16Z</time>
      </trkpt>
      <trkpt lat="49.87149" lon="2.16446">
        <ele>80.5</ele>
        <time>2022-01-12T13:15:17Z</time>
      </trkpt>
      <trkpt lat="49.87149" lon="2.16444">
        <ele>80.6</ele>
        <time>2022-01-12T13:15:18Z</time>
      </trkpt>
      <trkpt lat="49.87149" lon="2.16441">
        <ele>80.6</ele>
        <time>2022-01-12T13:15:19Z</time>
      </trkpt>
      <trkpt lat="49.87149" lon="2.1644">
        <ele>80.6</ele>
        <time>2022-01-12T13:15:20Z</time>
      </trkpt>
      <trkpt lat="49.87149" lon="2.16439">
        <ele>80.6</ele>
        <time>2022-01-12T13:15:21Z</time>
      </trkpt>
      <trkpt lat="49.87149" lon="2.16436">
        <ele>80.6</ele>
        <time>2022-01-12T13:15:23Z</time>
      </trkpt>
      <trkpt lat="49.87149" lon="2.16434">
        <ele>80.6</ele>
        <time>2022-01-12T13:15:24Z</time>
      </trkpt>
      <trkpt lat="49.87149" lon="2.16431">
        <ele>80.6</ele>
        <time>2022-01-12T13:15:25Z</time>
      </trkpt>
      <trkpt lat="49.87149" lon="2.16429">
        <ele>80.6</ele>
        <time>2022-01-12T13:15:26Z</time>
      </trkpt>
      <trkpt lat="49.87149" lon="2.16427">
        <ele>80.7</ele>
        <time>2022-01-12T13:15:27Z</time>
      </trkpt>
      <trkpt lat="49.87149" lon="2.16423">
        <ele>80.7</ele>
        <time>2022-01-12T13:15:29Z</time>
      </trkpt>
      <trkpt lat="49.87148" lon="2.16421">
        <ele>80.7</ele>
        <time>2022-01-12T13:15:30Z</time>
      </trkpt>
      <trkpt lat="49.87148" lon="2.1642">
        <ele>80.7</ele>
        <time>2022-01-12T13:15:31Z</time>
      </trkpt>
      <trkpt lat="49.87149" lon="2.16418">
        <ele>80.7</ele>
        <time>2022-01-12T13:15:32Z</time>
      </trkpt>
      <trkpt lat="49.87149" lon="2.16416">
        <ele>80.7</ele>
        <time>2022-01-12T13:15:33Z</time>
      </trkpt>
      <trkpt lat="49.87149" lon="2.16415">
        <ele>80.7</ele>
        <time>2022-01-12T13:15:34Z</time>
      </trkpt>
      <trkpt lat="49.87149" lon="2.16413">
        <ele>80.8</ele>
        <time>2022-01-12T13:15:35Z</time>
      </trkpt>
      <trkpt lat="49.87149" lon="2.1641">
        <ele>80.8</ele>
        <time>2022-01-12T13:15:37Z</time>
      </trkpt>
      <trkpt lat="49.87149" lon="2.16408">
        <ele>80.8</ele>
        <time>2022-01-12T13:15:38Z</time>
      </trkpt>
      <trkpt lat="49.87149" lon="2.16406">
        <ele>80.8</ele>
        <time>2022-01-12T13:15:39Z</time>
      </trkpt>
      <trkpt lat="49.87149" lon="2.16403">
        <ele>80.8</ele>
        <time>2022-01-12T13:15:40Z</time>
      </trkpt>
      <trkpt lat="49.87149" lon="2.16401">
        <ele>80.9</ele>
        <time>2022-01-12T13:15:41Z</time>
      </trkpt>
      <trkpt lat="49.87149" lon="2.16399">
        <ele>80.9</ele>
        <time>2022-01-12T13:15:42Z</time>
      </trkpt>
      <trkpt lat="49.87149" lon="2.16397">
        <ele>80.9</ele>
        <time>2022-01-12T13:15:43Z</time>
      </trkpt>
      <trkpt lat="49.87149" lon="2.16395">
        <ele>80.9</ele>
        <time>2022-01-12T13:15:44Z</time>
      </trkpt>
      <trkpt lat="49.87149" lon="2.16393">
        <ele>80.9</ele>
        <time>2022-01-12T13:15:45Z</time>
      </trkpt>
      <trkpt lat="49.8715" lon="2.16391">
        <ele>81</ele>
        <time>2022-01-12T13:15:46Z</time>
      </trkpt>
      <trkpt lat="49.8715" lon="2.16388">
        <ele>81</ele>
        <time>2022-01-12T13:15:48Z</time>
      </trkpt>
      <trkpt lat="49.8715" lon="2.16386">
        <ele>81</ele>
        <time>2022-01-12T13:15:49Z</time>
      </trkpt>
      <trkpt lat="49.87151" lon="2.16384">
        <ele>81</ele>
        <time>2022-01-12T13:15:50Z</time>
      </trkpt>
      <trkpt lat="49.87151" lon="2.16382">
        <ele>81.1</ele>
        <time>2022-01-12T13:15:51Z</time>
      </trkpt>
      <trkpt lat="49.87151" lon="2.1638">
        <ele>81.1</ele>
        <time>2022-01-12T13:15:52Z</time>
      </trkpt>
      <trkpt lat="49.87151" lon="2.16375">
        <ele>81.1</ele>
        <time>2022-01-12T13:15:54Z</time>
      </trkpt>
      <trkpt lat="49.87151" lon="2.16374">
        <ele>81.2</ele>
        <time>2022-01-12T13:15:55Z</time>
      </trkpt>
      <trkpt lat="49.87152" lon="2.16371">
        <ele>81.2</ele>
        <time>2022-01-12T13:15:56Z</time>
      </trkpt>
      <trkpt lat="49.87152" lon="2.16369">
        <ele>81.2</ele>
        <time>2022-01-12T13:15:57Z</time>
      </trkpt>
      <trkpt lat="49.87152" lon="2.16367">
        <ele>81.2</ele>
        <time>2022-01-12T13:15:59Z</time>
      </trkpt>
      <trkpt lat="49.87153" lon="2.16365">
        <ele>81.3</ele>
        <time>2022-01-12T13:16:00Z</time>
      </trkpt>
      <trkpt lat="49.87153" lon="2.16362">
        <ele>81.3</ele>
        <time>2022-01-12T13:16:01Z</time>
      </trkpt>
      <trkpt lat="49.87153" lon="2.1636">
        <ele>81.3</ele>
        <time>2022-01-12T13:16:02Z</time>
      </trkpt>
      <trkpt lat="49.87153" lon="2.16359">
        <ele>81.3</ele>
        <time>2022-01-12T13:16:03Z</time>
      </trkpt>
      <trkpt lat="49.87153" lon="2.16356">
        <ele>81.4</ele>
        <time>2022-01-12T13:16:04Z</time>
      </trkpt>
      <trkpt lat="49.87153" lon="2.16354">
        <ele>81.4</ele>
        <time>2022-01-12T13:16:05Z</time>
      </trkpt>
      <trkpt lat="49.87153" lon="2.16353">
        <ele>81.4</ele>
        <time>2022-01-12T13:16:06Z</time>
      </trkpt>
      <trkpt lat="49.87153" lon="2.16351">
        <ele>81.4</ele>
        <time>2022-01-12T13:16:07Z</time>
      </trkpt>
      <trkpt lat="49.87153" lon="2.16349">
        <ele>81.5</ele>
        <time>2022-01-12T13:16:08Z</time>
      </trkpt>
      <trkpt lat="49.87154" lon="2.16346">
        <ele>81.5</ele>
        <time>2022-01-12T13:16:10Z</time>
      </trkpt>
      <trkpt lat="49.87154" lon="2.16344">
        <ele>81.5</ele>
        <time>2022-01-12T13:16:11Z</time>
      </trkpt>
      <trkpt lat="49.87154" lon="2.16342">
        <ele>81.6</ele>
        <time>2022-01-12T13:16:12Z</time>
      </trkpt>
      <trkpt lat="49.87155" lon="2.16339">
        <ele>81.6</ele>
        <time>2022-01-12T13:16:13Z</time>
      </trkpt>
      <trkpt lat="49.87155" lon="2.16338">
        <ele>81.6</ele>
        <time>2022-01-12T13:16:14Z</time>
      </trkpt>
      <trkpt lat="49.87155" lon="2.16337">
        <ele>81.6</ele>
        <time>2022-01-12T13:16:15Z</time>
      </trkpt>
      <trkpt lat="49.87156" lon="2.16333">
        <ele>81.7</ele>
        <time>2022-01-12T13:16:17Z</time>
      </trkpt>
      <trkpt lat="49.87156" lon="2.16332">
        <ele>81.7</ele>
        <time>2022-01-12T13:16:18Z</time>
      </trkpt>
      <trkpt lat="49.87156" lon="2.16331">
        <ele>81.7</ele>
        <time>2022-01-12T13:16:19Z</time>
      </trkpt>
      <trkpt lat="49.87156" lon="2.16329">
        <ele>81.8</ele>
        <time>2022-01-12T13:16:20Z</time>
      </trkpt>
      <trkpt lat="49.87157" lon="2.16327">
        <ele>81.8</ele>
        <time>2022-01-12T13:16:21Z</time>
      </trkpt>
      <trkpt lat="49.87157" lon="2.16324">
        <ele>81.8</ele>
        <time>2022-01-12T13:16:23Z</time>
      </trkpt>
      <trkpt lat="49.87158" lon="2.16322">
        <ele>81.9</ele>
        <time>2022-01-12T13:16:24Z</time>
      </trkpt>
      <trkpt lat="49.87158" lon="2.16321">
        <ele>81.9</ele>
        <time>2022-01-12T13:16:25Z</time>
      </trkpt>
      <trkpt lat="49.87159" lon="2.16318">
        <ele>81.9</ele>
        <time>2022-01-12T13:16:27Z</time>
      </trkpt>
      <trkpt lat="49.87159" lon="2.16316">
        <ele>82</ele>
        <time>2022-01-12T13:16:28Z</time>
      </trkpt>
      <trkpt lat="49.8716" lon="2.16314">
        <ele>82</ele>
        <time>2022-01-12T13:16:29Z</time>
      </trkpt>
      <trkpt lat="49.87161" lon="2.16312">
        <ele>82</ele>
        <time>2022-01-12T13:16:30Z</time>
      </trkpt>
      <trkpt lat="49.87161" lon="2.1631">
        <ele>82.1</ele>
        <time>2022-01-12T13:16:31Z</time>
      </trkpt>
      <trkpt lat="49.87162" lon="2.16307">
        <ele>82.1</ele>
        <time>2022-01-12T13:16:32Z</time>
      </trkpt>
      <trkpt lat="49.87163" lon="2.16306">
        <ele>82.2</ele>
        <time>2022-01-12T13:16:34Z</time>
      </trkpt>
      <trkpt lat="49.87163" lon="2.16304">
        <ele>82.2</ele>
        <time>2022-01-12T13:16:35Z</time>
      </trkpt>
      <trkpt lat="49.87164" lon="2.16301">
        <ele>82.3</ele>
        <time>2022-01-12T13:16:36Z</time>
      </trkpt>
      <trkpt lat="49.87164" lon="2.163">
        <ele>82.3</ele>
        <time>2022-01-12T13:16:37Z</time>
      </trkpt>
      <trkpt lat="49.87165" lon="2.16299">
        <ele>82.3</ele>
        <time>2022-01-12T13:16:38Z</time>
      </trkpt>
      <trkpt lat="49.87166" lon="2.16297">
        <ele>82.4</ele>
        <time>2022-01-12T13:16:39Z</time>
      </trkpt>
      <trkpt lat="49.87166" lon="2.16295">
        <ele>82.4</ele>
        <time>2022-01-12T13:16:40Z</time>
      </trkpt>
      <trkpt lat="49.87167" lon="2.16294">
        <ele>82.5</ele>
        <time>2022-01-12T13:16:41Z</time>
      </trkpt>
      <trkpt lat="49.87167" lon="2.16293">
        <ele>82.5</ele>
        <time>2022-01-12T13:16:42Z</time>
      </trkpt>
      <trkpt lat="49.87168" lon="2.16291">
        <ele>82.6</ele>
        <time>2022-01-12T13:16:43Z</time>
      </trkpt>
      <trkpt lat="49.87169" lon="2.16289">
        <ele>82.6</ele>
        <time>2022-01-12T13:16:45Z</time>
      </trkpt>
      <trkpt lat="49.8717" lon="2.16287">
        <ele>82.7</ele>
        <time>2022-01-12T13:16:46Z</time>
      </trkpt>
      <trkpt lat="49.8717" lon="2.16285">
        <ele>82.7</ele>
        <time>2022-01-12T13:16:47Z</time>
      </trkpt>
      <trkpt lat="49.87171" lon="2.16284">
        <ele>82.8</ele>
        <time>2022-01-12T13:16:48Z</time>
      </trkpt>
      <trkpt lat="49.87172" lon="2.16283">
        <ele>82.8</ele>
        <time>2022-01-12T13:16:49Z</time>
      </trkpt>
      <trkpt lat="49.87172" lon="2.16281">
        <ele>82.8</ele>
        <time>2022-01-12T13:16:50Z</time>
      </trkpt>
      <trkpt lat="49.87174" lon="2.16279">
        <ele>82.9</ele>
        <time>2022-01-12T13:16:51Z</time>
      </trkpt>
      <trkpt lat="49.87175" lon="2.16278">
        <ele>83</ele>
        <time>2022-01-12T13:16:53Z</time>
      </trkpt>
      <trkpt lat="49.87175" lon="2.16277">
        <ele>83</ele>
        <time>2022-01-12T13:16:54Z</time>
      </trkpt>
      <trkpt lat="49.87176" lon="2.16275">
        <ele>83</ele>
        <time>2022-01-12T13:16:55Z</time>
      </trkpt>
      <trkpt lat="49.87176" lon="2.16274">
        <ele>83.1</ele>
        <time>2022-01-12T13:16:56Z</time>
      </trkpt>
      <trkpt lat="49.87177" lon="2.16273">
        <ele>83.1</ele>
        <time>2022-01-12T13:16:57Z</time>
      </trkpt>
      <trkpt lat="49.87178" lon="2.16272">
        <ele>83.1</ele>
        <time>2022-01-12T13:16:58Z</time>
      </trkpt>
      <trkpt lat="49.87179" lon="2.16271">
        <ele>83.2</ele>
        <time>2022-01-12T13:17:00Z</time>
      </trkpt>
      <trkpt lat="49.8718" lon="2.16269">
        <ele>83.2</ele>
        <time>2022-01-12T13:17:01Z</time>
      </trkpt>
      <trkpt lat="49.8718" lon="2.16268">
        <ele>83.3</ele>
        <time>2022-01-12T13:17:02Z</time>
      </trkpt>
      <trkpt lat="49.87181" lon="2.16267">
        <ele>83.3</ele>
        <time>2022-01-12T13:17:03Z</time>
      </trkpt>
      <trkpt lat="49.87182" lon="2.16265">
        <ele>83.4</ele>
        <time>2022-01-12T13:17:04Z</time>
      </trkpt>
      <trkpt lat="49.87183" lon="2.16263">
        <ele>83.4</ele>
        <time>2022-01-12T13:17:06Z</time>
      </trkpt>
      <trkpt lat="49.87184" lon="2.16262">
        <ele>83.5</ele>
        <time>2022-01-12T13:17:07Z</time>
      </trkpt>
      <trkpt lat="49.87184" lon="2.16261">
        <ele>83.5</ele>
        <time>2022-01-12T13:17:08Z</time>
      </trkpt>
      <trkpt lat="49.87186" lon="2.16258">
        <ele>83.6</ele>
        <time>2022-01-12T13:17:09Z</time>
      </trkpt>
      <trkpt lat="49.87186" lon="2.16257">
        <ele>83.6</ele>
        <time>2022-01-12T13:17:10Z</time>
      </trkpt>
      <trkpt lat="49.87187" lon="2.16256">
        <ele>83.7</ele>
        <time>2022-01-12T13:17:11Z</time>
      </trkpt>
      <trkpt lat="49.87187" lon="2.16255">
        <ele>83.7</ele>
        <time>2022-01-12T13:17:12Z</time>
      </trkpt>
      <trkpt lat="49.87188" lon="2.16254">
        <ele>83.7</ele>
        <time>2022-01-12T13:17:13Z</time>
      </trkpt>
      <trkpt lat="49.87189" lon="2.16252">
        <ele>83.8</ele>
        <time>2022-01-12T13:17:15Z</time>
      </trkpt>
      <trkpt lat="49.8719" lon="2.16251">
        <ele>83.8</ele>
        <time>2022-01-12T13:17:16Z</time>
      </trkpt>
      <trkpt lat="49.8719" lon="2.1625">
        <ele>83.9</ele>
        <time>2022-01-12T13:17:17Z</time>
      </trkpt>
      <trkpt lat="49.87191" lon="2.16248">
        <ele>83.9</ele>
        <time>2022-01-12T13:17:18Z</time>
      </trkpt>
      <trkpt lat="49.87192" lon="2.16247">
        <ele>84</ele>
        <time>2022-01-12T13:17:19Z</time>
      </trkpt>
      <trkpt lat="49.87193" lon="2.16246">
        <ele>84</ele>
        <time>2022-01-12T13:17:20Z</time>
      </trkpt>
      <trkpt lat="49.87194" lon="2.16245">
        <ele>84.1</ele>
        <time>2022-01-12T13:17:21Z</time>
      </trkpt>
      <trkpt lat="49.87196" lon="2.16243">
        <ele>84.2</ele>
        <time>2022-01-12T13:17:23Z</time>
      </trkpt>
      <trkpt lat="49.87196" lon="2.16242">
        <ele>84.2</ele>
        <time>2022-01-12T13:17:24Z</time>
      </trkpt>
      <trkpt lat="49.87197" lon="2.16241">
        <ele>84.3</ele>
        <time>2022-01-12T13:17:25Z</time>
      </trkpt>
      <trkpt lat="49.87198" lon="2.1624">
        <ele>84.3</ele>
        <time>2022-01-12T13:17:26Z</time>
      </trkpt>
      <trkpt lat="49.87199" lon="2.16238">
        <ele>84.4</ele>
        <time>2022-01-12T13:17:27Z</time>
      </trkpt>
      <trkpt lat="49.87199" lon="2.16237">
        <ele>84.4</ele>
        <time>2022-01-12T13:17:28Z</time>
      </trkpt>
      <trkpt lat="49.87201" lon="2.16235">
        <ele>84.5</ele>
        <time>2022-01-12T13:17:29Z</time>
      </trkpt>
      <trkpt lat="49.87201" lon="2.16234">
        <ele>84.5</ele>
        <time>2022-01-12T13:17:31Z</time>
      </trkpt>
      <trkpt lat="49.87202" lon="2.16233">
        <ele>84.6</ele>
        <time>2022-01-12T13:17:32Z</time>
      </trkpt>
      <trkpt lat="49.87203" lon="2.16232">
        <ele>84.6</ele>
        <time>2022-01-12T13:17:33Z</time>
      </trkpt>
      <trkpt lat="49.87204" lon="2.16231">
        <ele>84.7</ele>
        <time>2022-01-12T13:17:34Z</time>
      </trkpt>
      <trkpt lat="49.87205" lon="2.1623">
        <ele>84.8</ele>
        <time>2022-01-12T13:17:35Z</time>
      </trkpt>
      <trkpt lat="49.87205" lon="2.16229">
        <ele>84.8</ele>
        <time>2022-01-12T13:17:37Z</time>
      </trkpt>
      <trkpt lat="49.87206" lon="2.16227">
        <ele>84.9</ele>
        <time>2022-01-12T13:17:38Z</time>
      </trkpt>
      <trkpt lat="49.87207" lon="2.16226">
        <ele>84.9</ele>
        <time>2022-01-12T13:17:39Z</time>
      </trkpt>
      <trkpt lat="49.87208" lon="2.16225">
        <ele>85</ele>
        <time>2022-01-12T13:17:40Z</time>
      </trkpt>
      <trkpt lat="49.87208" lon="2.16224">
        <ele>85.1</ele>
        <time>2022-01-12T13:17:42Z</time>
      </trkpt>
      <trkpt lat="49.87209" lon="2.16223">
        <ele>85.1</ele>
        <time>2022-01-12T13:17:43Z</time>
      </trkpt>
      <trkpt lat="49.8721" lon="2.16222">
        <ele>85.1</ele>
        <time>2022-01-12T13:17:44Z</time>
      </trkpt>
      <trkpt lat="49.87211" lon="2.16222">
        <ele>85.2</ele>
        <time>2022-01-12T13:17:46Z</time>
      </trkpt>
      <trkpt lat="49.87212" lon="2.16221">
        <ele>85.3</ele>
        <time>2022-01-12T13:17:47Z</time>
      </trkpt>
      <trkpt lat="49.87212" lon="2.1622">
        <ele>85.3</ele>
        <time>2022-01-12T13:17:49Z</time>
      </trkpt>
      <trkpt lat="49.87213" lon="2.16219">
        <ele>85.4</ele>
        <time>2022-01-12T13:17:50Z</time>
      </trkpt>
      <trkpt lat="49.87214" lon="2.16219">
        <ele>85.4</ele>
        <time>2022-01-12T13:17:51Z</time>
      </trkpt>
      <trkpt lat="49.87215" lon="2.16221">
        <ele>85.5</ele>
        <time>2022-01-12T13:17:53Z</time>
      </trkpt>
      <trkpt lat="49.87216" lon="2.16222">
        <ele>85.6</ele>
        <time>2022-01-12T13:17:54Z</time>
      </trkpt>
      <trkpt lat="49.87214" lon="2.16224">
        <ele>85.7</ele>
        <time>2022-01-12T13:17:56Z</time>
      </trkpt>
      <trkpt lat="49.87213" lon="2.16224">
        <ele>85.7</ele>
        <time>2022-01-12T13:17:57Z</time>
      </trkpt>
      <trkpt lat="49.87213" lon="2.16223">
        <ele>85.8</ele>
        <time>2022-01-12T13:17:58Z</time>
      </trkpt>
      <trkpt lat="49.87213" lon="2.16223">
        <ele>85.8</ele>
        <time>2022-01-12T13:17:59Z</time>
      </trkpt>
      <trkpt lat="49.87213" lon="2.16222">
        <ele>85.8</ele>
        <time>2022-01-12T13:18:01Z</time>
      </trkpt>
      <trkpt lat="49.87213" lon="2.16222">
        <ele>85.9</ele>
        <time>2022-01-12T13:18:02Z</time>
      </trkpt>
      <trkpt lat="49.87213" lon="2.16221">
        <ele>85.9</ele>
        <time>2022-01-12T13:18:03Z</time>
      </trkpt>
      <trkpt lat="49.87213" lon="2.16221">
        <ele>85.9</ele>
        <time>2022-01-12T13:18:05Z</time>
      </trkpt>
      <trkpt lat="49.87213" lon="2.1622">
        <ele>85.9</ele>
        <time>2022-01-12T13:18:07Z</time>
      </trkpt>
      <trkpt lat="49.87213" lon="2.1622">
        <ele>85.9</ele>
        <time>2022-01-12T13:18:09Z</time>
      </trkpt>
      <trkpt lat="49.87213" lon="2.16219">
        <ele>86</ele>
        <time>2022-01-12T13:18:10Z</time>
      </trkpt>
      <trkpt lat="49.87213" lon="2.16219">
        <ele>86</ele>
        <time>2022-01-12T13:18:11Z</time>
      </trkpt>
      <trkpt lat="49.87213" lon="2.16218">
        <ele>86</ele>
        <time>2022-01-12T13:18:13Z</time>
      </trkpt>
      <trkpt lat="49.87213" lon="2.16218">
        <ele>86</ele>
        <time>2022-01-12T13:18:14Z</time>
      </trkpt>
      <trkpt lat="49.87213" lon="2.16217">
        <ele>86</ele>
        <time>2022-01-12T13:18:16Z</time>
      </trkpt>
      <trkpt lat="49.87213" lon="2.16216">
        <ele>86.1</ele>
        <time>2022-01-12T13:18:17Z</time>
      </trkpt>
      <trkpt lat="49.87213" lon="2.16216">
        <ele>86.1</ele>
        <time>2022-01-12T13:18:18Z</time>
      </trkpt>
      <trkpt lat="49.87213" lon="2.16215">
        <ele>86.1</ele>
        <time>2022-01-12T13:18:19Z</time>
      </trkpt>
      <trkpt lat="49.87214" lon="2.16213">
        <ele>86.2</ele>
        <time>2022-01-12T13:18:21Z</time>
      </trkpt>
      <trkpt lat="49.87215" lon="2.16211">
        <ele>86.3</ele>
        <time>2022-01-12T13:18:22Z</time>
      </trkpt>
      <trkpt lat="49.87216" lon="2.16208">
        <ele>86.3</ele>
        <time>2022-01-12T13:18:23Z</time>
      </trkpt>
      <trkpt lat="49.87217" lon="2.16207">
        <ele>86.3</ele>
        <time>2022-01-12T13:18:25Z</time>
      </trkpt>
      <trkpt lat="49.87218" lon="2.16205">
        <ele>86.4</ele>
        <time>2022-01-12T13:18:26Z</time>
      </trkpt>
      <trkpt lat="49.87219" lon="2.16203">
        <ele>86.4</ele>
        <time>2022-01-12T13:18:27Z</time>
      </trkpt>
      <trkpt lat="49.8722" lon="2.16201">
        <ele>86.4</ele>
        <time>2022-01-12T13:18:28Z</time>
      </trkpt>
      <trkpt lat="49.87221" lon="2.16199">
        <ele>86.4</ele>
        <time>2022-01-12T13:18:29Z</time>
      </trkpt>
      <trkpt lat="49.87221" lon="2.16198">
        <ele>86.4</ele>
        <time>2022-01-12T13:18:30Z</time>
      </trkpt>
      <trkpt lat="49.87222" lon="2.16196">
        <ele>86.5</ele>
        <time>2022-01-12T13:18:32Z</time>
      </trkpt>
      <trkpt lat="49.87223" lon="2.16194">
        <ele>86.5</ele>
        <time>2022-01-12T13:18:33Z</time>
      </trkpt>
      <trkpt lat="49.87224" lon="2.16192">
        <ele>86.5</ele>
        <time>2022-01-12T13:18:34Z</time>
      </trkpt>
      <trkpt lat="49.87225" lon="2.16189">
        <ele>86.6</ele>
        <time>2022-01-12T13:18:35Z</time>
      </trkpt>
      <trkpt lat="49.87226" lon="2.16187">
        <ele>86.7</ele>
        <time>2022-01-12T13:18:37Z</time>
      </trkpt>
      <trkpt lat="49.87227" lon="2.16186">
        <ele>86.7</ele>
        <time>2022-01-12T13:18:38Z</time>
      </trkpt>
      <trkpt lat="49.87227" lon="2.16184">
        <ele>86.7</ele>
        <time>2022-01-12T13:18:39Z</time>
      </trkpt>
      <trkpt lat="49.87228" lon="2.16182">
        <ele>86.8</ele>
        <time>2022-01-12T13:18:40Z</time>
      </trkpt>
      <trkpt lat="49.87228" lon="2.16179">
        <ele>86.8</ele>
        <time>2022-01-12T13:18:41Z</time>
      </trkpt>
      <trkpt lat="49.87228" lon="2.16178">
        <ele>86.8</ele>
        <time>2022-01-12T13:18:42Z</time>
      </trkpt>
      <trkpt lat="49.87228" lon="2.16177">
        <ele>86.9</ele>
        <time>2022-01-12T13:18:43Z</time>
      </trkpt>
      <trkpt lat="49.87229" lon="2.16174">
        <ele>86.9</ele>
        <time>2022-01-12T13:18:45Z</time>
      </trkpt>
      <trkpt lat="49.87229" lon="2.16172">
        <ele>86.9</ele>
        <time>2022-01-12T13:18:46Z</time>
      </trkpt>
      <trkpt lat="49.87229" lon="2.16171">
        <ele>87</ele>
        <time>2022-01-12T13:18:47Z</time>
      </trkpt>
      <trkpt lat="49.87229" lon="2.16169">
        <ele>87</ele>
        <time>2022-01-12T13:18:48Z</time>
      </trkpt>
      <trkpt lat="49.87229" lon="2.16167">
        <ele>87</ele>
        <time>2022-01-12T13:18:49Z</time>
      </trkpt>
      <trkpt lat="49.87228" lon="2.16165">
        <ele>87</ele>
        <time>2022-01-12T13:18:50Z</time>
      </trkpt>
      <trkpt lat="49.87228" lon="2.16163">
        <ele>87.1</ele>
        <time>2022-01-12T13:18:52Z</time>
      </trkpt>
      <trkpt lat="49.87227" lon="2.16161">
        <ele>87.1</ele>
        <time>2022-01-12T13:18:53Z</time>
      </trkpt>
      <trkpt lat="49.87227" lon="2.16158">
        <ele>87.2</ele>
        <time>2022-01-12T13:18:54Z</time>
      </trkpt>
      <trkpt lat="49.87227" lon="2.16156">
        <ele>87.2</ele>
        <time>2022-01-12T13:18:55Z</time>
      </trkpt>
      <trkpt lat="49.87227" lon="2.16155">
        <ele>87.2</ele>
        <time>2022-01-12T13:18:56Z</time>
      </trkpt>
      <trkpt lat="49.87227" lon="2.16153">
        <ele>87.3</ele>
        <time>2022-01-12T13:18:57Z</time>
      </trkpt>
      <trkpt lat="49.87227" lon="2.16151">
        <ele>87.3</ele>
        <time>2022-01-12T13:18:58Z</time>
      </trkpt>
      <trkpt lat="49.87227" lon="2.16149">
        <ele>87.3</ele>
        <time>2022-01-12T13:18:59Z</time>
      </trkpt>
      <trkpt lat="49.87227" lon="2.16147">
        <ele>87.3</ele>
        <time>2022-01-12T13:19:00Z</time>
      </trkpt>
      <trkpt lat="49.87227" lon="2.16145">
        <ele>87.4</ele>
        <time>2022-01-12T13:19:02Z</time>
      </trkpt>
      <trkpt lat="49.87226" lon="2.16143">
        <ele>87.4</ele>
        <time>2022-01-12T13:19:03Z</time>
      </trkpt>
      <trkpt lat="49.87226" lon="2.16141">
        <ele>87.4</ele>
        <time>2022-01-12T13:19:04Z</time>
      </trkpt>
      <trkpt lat="49.87226" lon="2.1614">
        <ele>87.4</ele>
        <time>2022-01-12T13:19:05Z</time>
      </trkpt>
      <trkpt lat="49.87226" lon="2.16138">
        <ele>87.5</ele>
        <time>2022-01-12T13:19:06Z</time>
      </trkpt>
      <trkpt lat="49.87226" lon="2.16136">
        <ele>87.5</ele>
        <time>2022-01-12T13:19:07Z</time>
      </trkpt>
      <trkpt lat="49.87226" lon="2.16135">
        <ele>87.5</ele>
        <time>2022-01-12T13:19:08Z</time>
      </trkpt>
      <trkpt lat="49.87227" lon="2.16132">
        <ele>87.5</ele>
        <time>2022-01-12T13:19:10Z</time>
      </trkpt>
      <trkpt lat="49.87227" lon="2.1613">
        <ele>87.6</ele>
        <time>2022-01-12T13:19:11Z</time>
      </trkpt>
      <trkpt lat="49.87227" lon="2.16128">
        <ele>87.6</ele>
        <time>2022-01-12T13:19:12Z</time>
      </trkpt>
      <trkpt lat="49.87227" lon="2.16126">
        <ele>87.6</ele>
        <time>2022-01-12T13:19:13Z</time>
      </trkpt>
      <trkpt lat="49.87227" lon="2.16124">
        <ele>87.6</ele>
        <time>2022-01-12T13:19:15Z</time>
      </trkpt>
      <trkpt lat="49.87227" lon="2.16122">
        <ele>87.7</ele>
        <time>2022-01-12T13:19:16Z</time>
      </trkpt>
      <trkpt lat="49.87227" lon="2.1612">
        <ele>87.7</ele>
        <time>2022-01-12T13:19:17Z</time>
      </trkpt>
      <trkpt lat="49.87227" lon="2.16118">
        <ele>87.7</ele>
        <time>2022-01-12T13:19:18Z</time>
      </trkpt>
      <trkpt lat="49.87227" lon="2.16117">
        <ele>87.7</ele>
        <time>2022-01-12T13:19:19Z</time>
      </trkpt>
      <trkpt lat="49.87227" lon="2.16116">
        <ele>87.7</ele>
        <time>2022-01-12T13:19:20Z</time>
      </trkpt>
      <trkpt lat="49.87227" lon="2.16114">
        <ele>87.8</ele>
        <time>2022-01-12T13:19:22Z</time>
      </trkpt>
      <trkpt lat="49.87226" lon="2.16112">
        <ele>87.8</ele>
        <time>2022-01-12T13:19:23Z</time>
      </trkpt>
      <trkpt lat="49.87227" lon="2.1611">
        <ele>87.8</ele>
        <time>2022-01-12T13:19:24Z</time>
      </trkpt>
      <trkpt lat="49.87227" lon="2.16109">
        <ele>87.8</ele>
        <time>2022-01-12T13:19:25Z</time>
      </trkpt>
      <trkpt lat="49.87227" lon="2.16106">
        <ele>87.9</ele>
        <time>2022-01-12T13:19:26Z</time>
      </trkpt>
      <trkpt lat="49.87228" lon="2.16104">
        <ele>87.9</ele>
        <time>2022-01-12T13:19:27Z</time>
      </trkpt>
      <trkpt lat="49.87228" lon="2.16103">
        <ele>87.9</ele>
        <time>2022-01-12T13:19:29Z</time>
      </trkpt>
      <trkpt lat="49.87228" lon="2.16101">
        <ele>87.9</ele>
        <time>2022-01-12T13:19:30Z</time>
      </trkpt>
      <trkpt lat="49.87228" lon="2.161">
        <ele>87.9</ele>
        <time>2022-01-12T13:19:31Z</time>
      </trkpt>
      <trkpt lat="49.87228" lon="2.16098">
        <ele>88</ele>
        <time>2022-01-12T13:19:32Z</time>
      </trkpt>
      <trkpt lat="49.87228" lon="2.16096">
        <ele>88</ele>
        <time>2022-01-12T13:19:33Z</time>
      </trkpt>
      <trkpt lat="49.87228" lon="2.16095">
        <ele>88</ele>
        <time>2022-01-12T13:19:34Z</time>
      </trkpt>
      <trkpt lat="49.87228" lon="2.16093">
        <ele>88</ele>
        <time>2022-01-12T13:19:36Z</time>
      </trkpt>
      <trkpt lat="49.87228" lon="2.16091">
        <ele>88</ele>
        <time>2022-01-12T13:19:37Z</time>
      </trkpt>
      <trkpt lat="49.87228" lon="2.16089">
        <ele>88.1</ele>
        <time>2022-01-12T13:19:38Z</time>
      </trkpt>
      <trkpt lat="49.87228" lon="2.16086">
        <ele>88.1</ele>
        <time>2022-01-12T13:19:39Z</time>
      </trkpt>
      <trkpt lat="49.87228" lon="2.16084">
        <ele>88.1</ele>
        <time>2022-01-12T13:19:40Z</time>
      </trkpt>
      <trkpt lat="49.87228" lon="2.16081">
        <ele>88.1</ele>
        <time>2022-01-12T13:19:41Z</time>
      </trkpt>
      <trkpt lat="49.87228" lon="2.16079">
        <ele>88.2</ele>
        <time>2022-01-12T13:19:42Z</time>
      </trkpt>
      <trkpt lat="49.87228" lon="2.16078">
        <ele>88.2</ele>
        <time>2022-01-12T13:19:43Z</time>
      </trkpt>
      <trkpt lat="49.87228" lon="2.16076">
        <ele>88.2</ele>
        <time>2022-01-12T13:19:45Z</time>
      </trkpt>
      <trkpt lat="49.87227" lon="2.16074">
        <ele>88.2</ele>
        <time>2022-01-12T13:19:46Z</time>
      </trkpt>
      <trkpt lat="49.87227" lon="2.16072">
        <ele>88.2</ele>
        <time>2022-01-12T13:19:47Z</time>
      </trkpt>
      <trkpt lat="49.87227" lon="2.1607">
        <ele>88.2</ele>
        <time>2022-01-12T13:19:48Z</time>
      </trkpt>
      <trkpt lat="49.87227" lon="2.16067">
        <ele>88.2</ele>
        <time>2022-01-12T13:19:49Z</time>
      </trkpt>
      <trkpt lat="49.87227" lon="2.16066">
        <ele>88.2</ele>
        <time>2022-01-12T13:19:50Z</time>
      </trkpt>
      <trkpt lat="49.87227" lon="2.16064">
        <ele>88.2</ele>
        <time>2022-01-12T13:19:51Z</time>
      </trkpt>
      <trkpt lat="49.87228" lon="2.16061">
        <ele>88.3</ele>
        <time>2022-01-12T13:19:52Z</time>
      </trkpt>
      <trkpt lat="49.87228" lon="2.1606">
        <ele>88.3</ele>
        <time>2022-01-12T13:19:54Z</time>
      </trkpt>
      <trkpt lat="49.87228" lon="2.16058">
        <ele>88.3</ele>
        <time>2022-01-12T13:19:55Z</time>
      </trkpt>
      <trkpt lat="49.87228" lon="2.16055">
        <ele>88.3</ele>
        <time>2022-01-12T13:19:56Z</time>
      </trkpt>
      <trkpt lat="49.87228" lon="2.16054">
        <ele>88.3</ele>
        <time>2022-01-12T13:19:57Z</time>
      </trkpt>
      <trkpt lat="49.87228" lon="2.16052">
        <ele>88.3</ele>
        <time>2022-01-12T13:19:58Z</time>
      </trkpt>
      <trkpt lat="49.87229" lon="2.16051">
        <ele>88.4</ele>
        <time>2022-01-12T13:19:59Z</time>
      </trkpt>
      <trkpt lat="49.87229" lon="2.16049">
        <ele>88.4</ele>
        <time>2022-01-12T13:20:00Z</time>
      </trkpt>
      <trkpt lat="49.87229" lon="2.16048">
        <ele>88.4</ele>
        <time>2022-01-12T13:20:01Z</time>
      </trkpt>
      <trkpt lat="49.87229" lon="2.16044">
        <ele>88.4</ele>
        <time>2022-01-12T13:20:03Z</time>
      </trkpt>
      <trkpt lat="49.87229" lon="2.16043">
        <ele>88.4</ele>
        <time>2022-01-12T13:20:04Z</time>
      </trkpt>
      <trkpt lat="49.87229" lon="2.16042">
        <ele>88.5</ele>
        <time>2022-01-12T13:20:05Z</time>
      </trkpt>
      <trkpt lat="49.87229" lon="2.1604">
        <ele>88.5</ele>
        <time>2022-01-12T13:20:06Z</time>
      </trkpt>
      <trkpt lat="49.87229" lon="2.16038">
        <ele>88.5</ele>
        <time>2022-01-12T13:20:07Z</time>
      </trkpt>
      <trkpt lat="49.87229" lon="2.16037">
        <ele>88.5</ele>
        <time>2022-01-12T13:20:08Z</time>
      </trkpt>
      <trkpt lat="49.87229" lon="2.16036">
        <ele>88.5</ele>
        <time>2022-01-12T13:20:10Z</time>
      </trkpt>
      <trkpt lat="49.87229" lon="2.16034">
        <ele>88.6</ele>
        <time>2022-01-12T13:20:11Z</time>
      </trkpt>
      <trkpt lat="49.87229" lon="2.16032">
        <ele>88.6</ele>
        <time>2022-01-12T13:20:12Z</time>
      </trkpt>
      <trkpt lat="49.87229" lon="2.1603">
        <ele>88.6</ele>
        <time>2022-01-12T13:20:13Z</time>
      </trkpt>
      <trkpt lat="49.87229" lon="2.16029">
        <ele>88.6</ele>
        <time>2022-01-12T13:20:14Z</time>
      </trkpt>
      <trkpt lat="49.8723" lon="2.16027">
        <ele>88.7</ele>
        <time>2022-01-12T13:20:15Z</time>
      </trkpt>
      <trkpt lat="49.8723" lon="2.16026">
        <ele>88.7</ele>
        <time>2022-01-12T13:20:16Z</time>
      </trkpt>
      <trkpt lat="49.8723" lon="2.16024">
        <ele>88.7</ele>
        <time>2022-01-12T13:20:18Z</time>
      </trkpt>
      <trkpt lat="49.8723" lon="2.16022">
        <ele>88.7</ele>
        <time>2022-01-12T13:20:19Z</time>
      </trkpt>
      <trkpt lat="49.8723" lon="2.1602">
        <ele>88.7</ele>
        <time>2022-01-12T13:20:20Z</time>
      </trkpt>
      <trkpt lat="49.8723" lon="2.16018">
        <ele>88.8</ele>
        <time>2022-01-12T13:20:21Z</time>
      </trkpt>
      <trkpt lat="49.8723" lon="2.16015">
        <ele>88.8</ele>
        <time>2022-01-12T13:20:23Z</time>
      </trkpt>
      <trkpt lat="49.87231" lon="2.16012">
        <ele>88.8</ele>
        <time>2022-01-12T13:20:24Z</time>
      </trkpt>
      <trkpt lat="49.87231" lon="2.1601">
        <ele>88.9</ele>
        <time>2022-01-12T13:20:25Z</time>
      </trkpt>
      <trkpt lat="49.87231" lon="2.16009">
        <ele>88.9</ele>
        <time>2022-01-12T13:20:26Z</time>
      </trkpt>
      <trkpt lat="49.87231" lon="2.16006">
        <ele>88.9</ele>
        <time>2022-01-12T13:20:28Z</time>
      </trkpt>
      <trkpt lat="49.87231" lon="2.16004">
        <ele>88.9</ele>
        <time>2022-01-12T13:20:29Z</time>
      </trkpt>
      <trkpt lat="49.87231" lon="2.16002">
        <ele>89</ele>
        <time>2022-01-12T13:20:30Z</time>
      </trkpt>
      <trkpt lat="49.87231" lon="2.16">
        <ele>89</ele>
        <time>2022-01-12T13:20:31Z</time>
      </trkpt>
      <trkpt lat="49.87232" lon="2.15997">
        <ele>89</ele>
        <time>2022-01-12T13:20:33Z</time>
      </trkpt>
      <trkpt lat="49.87232" lon="2.15994">
        <ele>89</ele>
        <time>2022-01-12T13:20:34Z</time>
      </trkpt>
      <trkpt lat="49.87232" lon="2.15993">
        <ele>89</ele>
        <time>2022-01-12T13:20:35Z</time>
      </trkpt>
      <trkpt lat="49.87232" lon="2.15992">
        <ele>89</ele>
        <time>2022-01-12T13:20:36Z</time>
      </trkpt>
      <trkpt lat="49.87232" lon="2.1599">
        <ele>89.1</ele>
        <time>2022-01-12T13:20:37Z</time>
      </trkpt>
      <trkpt lat="49.87232" lon="2.15987">
        <ele>89.1</ele>
        <time>2022-01-12T13:20:38Z</time>
      </trkpt>
      <trkpt lat="49.87232" lon="2.15984">
        <ele>89.1</ele>
        <time>2022-01-12T13:20:39Z</time>
      </trkpt>
      <trkpt lat="49.87232" lon="2.15983">
        <ele>89.1</ele>
        <time>2022-01-12T13:20:41Z</time>
      </trkpt>
      <trkpt lat="49.87231" lon="2.15981">
        <ele>89.1</ele>
        <time>2022-01-12T13:20:42Z</time>
      </trkpt>
      <trkpt lat="49.87232" lon="2.15978">
        <ele>89.2</ele>
        <time>2022-01-12T13:20:43Z</time>
      </trkpt>
      <trkpt lat="49.87232" lon="2.15977">
        <ele>89.2</ele>
        <time>2022-01-12T13:20:44Z</time>
      </trkpt>
      <trkpt lat="49.87232" lon="2.15976">
        <ele>89.2</ele>
        <time>2022-01-12T13:20:45Z</time>
      </trkpt>
      <trkpt lat="49.87232" lon="2.15972">
        <ele>89.2</ele>
        <time>2022-01-12T13:20:46Z</time>
      </trkpt>
      <trkpt lat="49.87232" lon="2.15971">
        <ele>89.2</ele>
        <time>2022-01-12T13:20:47Z</time>
      </trkpt>
      <trkpt lat="49.87232" lon="2.1597">
        <ele>89.2</ele>
        <time>2022-01-12T13:20:48Z</time>
      </trkpt>
      <trkpt lat="49.87232" lon="2.15968">
        <ele>89.3</ele>
        <time>2022-01-12T13:20:50Z</time>
      </trkpt>
      <trkpt lat="49.87232" lon="2.15965">
        <ele>89.3</ele>
        <time>2022-01-12T13:20:51Z</time>
      </trkpt>
      <trkpt lat="49.87232" lon="2.15964">
        <ele>89.3</ele>
        <time>2022-01-12T13:20:52Z</time>
      </trkpt>
      <trkpt lat="49.87232" lon="2.15962">
        <ele>89.3</ele>
        <time>2022-01-12T13:20:53Z</time>
      </trkpt>
      <trkpt lat="49.87232" lon="2.1596">
        <ele>89.3</ele>
        <time>2022-01-12T13:20:54Z</time>
      </trkpt>
      <trkpt lat="49.87232" lon="2.15957">
        <ele>89.3</ele>
        <time>2022-01-12T13:20:55Z</time>
      </trkpt>
      <trkpt lat="49.87232" lon="2.15955">
        <ele>89.4</ele>
        <time>2022-01-12T13:20:56Z</time>
      </trkpt>
      <trkpt lat="49.87232" lon="2.15954">
        <ele>89.4</ele>
        <time>2022-01-12T13:20:57Z</time>
      </trkpt>
      <trkpt lat="49.87231" lon="2.15951">
        <ele>89.4</ele>
        <time>2022-01-12T13:20:59Z</time>
      </trkpt>
      <trkpt lat="49.87231" lon="2.15949">
        <ele>89.4</ele>
        <time>2022-01-12T13:21:00Z</time>
      </trkpt>
      <trkpt lat="49.87231" lon="2.15948">
        <ele>89.4</ele>
        <time>2022-01-12T13:21:01Z</time>
      </trkpt>
      <trkpt lat="49.87231" lon="2.15947">
        <ele>89.4</ele>
        <time>2022-01-12T13:21:02Z</time>
      </trkpt>
      <trkpt lat="49.87231" lon="2.15945">
        <ele>89.5</ele>
        <time>2022-01-12T13:21:03Z</time>
      </trkpt>
      <trkpt lat="49.87231" lon="2.15943">
        <ele>89.5</ele>
        <time>2022-01-12T13:21:04Z</time>
      </trkpt>
      <trkpt lat="49.87231" lon="2.15941">
        <ele>89.5</ele>
        <time>2022-01-12T13:21:05Z</time>
      </trkpt>
      <trkpt lat="49.87231" lon="2.15939">
        <ele>89.5</ele>
        <time>2022-01-12T13:21:06Z</time>
      </trkpt>
      <trkpt lat="49.87231" lon="2.15936">
        <ele>89.5</ele>
        <time>2022-01-12T13:21:08Z</time>
      </trkpt>
      <trkpt lat="49.87231" lon="2.15933">
        <ele>89.6</ele>
        <time>2022-01-12T13:21:09Z</time>
      </trkpt>
      <trkpt lat="49.87231" lon="2.15932">
        <ele>89.6</ele>
        <time>2022-01-12T13:21:10Z</time>
      </trkpt>
      <trkpt lat="49.87231" lon="2.1593">
        <ele>89.6</ele>
        <time>2022-01-12T13:21:11Z</time>
      </trkpt>
      <trkpt lat="49.87231" lon="2.15927">
        <ele>89.6</ele>
        <time>2022-01-12T13:21:13Z</time>
      </trkpt>
      <trkpt lat="49.87231" lon="2.15926">
        <ele>89.6</ele>
        <time>2022-01-12T13:21:14Z</time>
      </trkpt>
      <trkpt lat="49.87231" lon="2.15924">
        <ele>89.6</ele>
        <time>2022-01-12T13:21:15Z</time>
      </trkpt>
      <trkpt lat="49.87231" lon="2.15921">
        <ele>89.7</ele>
        <time>2022-01-12T13:21:16Z</time>
      </trkpt>
      <trkpt lat="49.87231" lon="2.1592">
        <ele>89.7</ele>
        <time>2022-01-12T13:21:17Z</time>
      </trkpt>
      <trkpt lat="49.87231" lon="2.15919">
        <ele>89.7</ele>
        <time>2022-01-12T13:21:18Z</time>
      </trkpt>
      <trkpt lat="49.8723" lon="2.15917">
        <ele>89.7</ele>
        <time>2022-01-12T13:21:19Z</time>
      </trkpt>
      <trkpt lat="49.8723" lon="2.15915">
        <ele>89.7</ele>
        <time>2022-01-12T13:21:20Z</time>
      </trkpt>
      <trkpt lat="49.8723" lon="2.15912">
        <ele>89.8</ele>
        <time>2022-01-12T13:21:22Z</time>
      </trkpt>
      <trkpt lat="49.8723" lon="2.1591">
        <ele>89.8</ele>
        <time>2022-01-12T13:21:23Z</time>
      </trkpt>
      <trkpt lat="49.8723" lon="2.15908">
        <ele>89.8</ele>
        <time>2022-01-12T13:21:24Z</time>
      </trkpt>
      <trkpt lat="49.8723" lon="2.15905">
        <ele>89.8</ele>
        <time>2022-01-12T13:21:26Z</time>
      </trkpt>
      <trkpt lat="49.8723" lon="2.15903">
        <ele>89.8</ele>
        <time>2022-01-12T13:21:27Z</time>
      </trkpt>
      <trkpt lat="49.8723" lon="2.15902">
        <ele>89.8</ele>
        <time>2022-01-12T13:21:28Z</time>
      </trkpt>
      <trkpt lat="49.8723" lon="2.159">
        <ele>89.9</ele>
        <time>2022-01-12T13:21:29Z</time>
      </trkpt>
      <trkpt lat="49.8723" lon="2.15897">
        <ele>89.9</ele>
        <time>2022-01-12T13:21:30Z</time>
      </trkpt>
      <trkpt lat="49.8723" lon="2.15895">
        <ele>89.9</ele>
        <time>2022-01-12T13:21:31Z</time>
      </trkpt>
      <trkpt lat="49.8723" lon="2.15894">
        <ele>89.9</ele>
        <time>2022-01-12T13:21:32Z</time>
      </trkpt>
      <trkpt lat="49.8723" lon="2.15891">
        <ele>89.9</ele>
        <time>2022-01-12T13:21:33Z</time>
      </trkpt>
      <trkpt lat="49.8723" lon="2.15889">
        <ele>90</ele>
        <time>2022-01-12T13:21:35Z</time>
      </trkpt>
      <trkpt lat="49.8723" lon="2.15888">
        <ele>90</ele>
        <time>2022-01-12T13:21:36Z</time>
      </trkpt>
      <trkpt lat="49.8723" lon="2.15886">
        <ele>90</ele>
        <time>2022-01-12T13:21:37Z</time>
      </trkpt>
      <trkpt lat="49.87229" lon="2.15885">
        <ele>90</ele>
        <time>2022-01-12T13:21:38Z</time>
      </trkpt>
      <trkpt lat="49.87229" lon="2.15883">
        <ele>90</ele>
        <time>2022-01-12T13:21:39Z</time>
      </trkpt>
      <trkpt lat="49.87229" lon="2.1588">
        <ele>90</ele>
        <time>2022-01-12T13:21:41Z</time>
      </trkpt>
      <trkpt lat="49.87229" lon="2.15878">
        <ele>90</ele>
        <time>2022-01-12T13:21:42Z</time>
      </trkpt>
      <trkpt lat="49.87229" lon="2.15877">
        <ele>90</ele>
        <time>2022-01-12T13:21:43Z</time>
      </trkpt>
      <trkpt lat="49.87229" lon="2.15875">
        <ele>90</ele>
        <time>2022-01-12T13:21:44Z</time>
      </trkpt>
      <trkpt lat="49.87229" lon="2.15873">
        <ele>90</ele>
        <time>2022-01-12T13:21:45Z</time>
      </trkpt>
      <trkpt lat="49.87229" lon="2.1587">
        <ele>90</ele>
        <time>2022-01-12T13:21:47Z</time>
      </trkpt>
      <trkpt lat="49.87228" lon="2.15867">
        <ele>90</ele>
        <time>2022-01-12T13:21:48Z</time>
      </trkpt>
      <trkpt lat="49.87228" lon="2.15866">
        <ele>90</ele>
        <time>2022-01-12T13:21:49Z</time>
      </trkpt>
      <trkpt lat="49.87228" lon="2.15864">
        <ele>90</ele>
        <time>2022-01-12T13:21:50Z</time>
      </trkpt>
      <trkpt lat="49.87228" lon="2.15862">
        <ele>90.1</ele>
        <time>2022-01-12T13:21:51Z</time>
      </trkpt>
      <trkpt lat="49.87228" lon="2.1586">
        <ele>90.1</ele>
        <time>2022-01-12T13:21:52Z</time>
      </trkpt>
      <trkpt lat="49.87228" lon="2.15857">
        <ele>90.1</ele>
        <time>2022-01-12T13:21:53Z</time>
      </trkpt>
      <trkpt lat="49.87229" lon="2.15855">
        <ele>90.1</ele>
        <time>2022-01-12T13:21:54Z</time>
      </trkpt>
      <trkpt lat="49.87229" lon="2.15854">
        <ele>90.1</ele>
        <time>2022-01-12T13:21:55Z</time>
      </trkpt>
      <trkpt lat="49.87229" lon="2.15852">
        <ele>90.1</ele>
        <time>2022-01-12T13:21:57Z</time>
      </trkpt>
      <trkpt lat="49.87229" lon="2.15849">
        <ele>90.1</ele>
        <time>2022-01-12T13:21:58Z</time>
      </trkpt>
      <trkpt lat="49.87228" lon="2.15846">
        <ele>90.1</ele>
        <time>2022-01-12T13:21:59Z</time>
      </trkpt>
      <trkpt lat="49.87229" lon="2.15845">
        <ele>90.1</ele>
        <time>2022-01-12T13:22:00Z</time>
      </trkpt>
      <trkpt lat="49.87229" lon="2.15844">
        <ele>90.1</ele>
        <time>2022-01-12T13:22:01Z</time>
      </trkpt>
      <trkpt lat="49.87228" lon="2.1584">
        <ele>90.1</ele>
        <time>2022-01-12T13:22:02Z</time>
      </trkpt>
      <trkpt lat="49.87228" lon="2.15839">
        <ele>90.1</ele>
        <time>2022-01-12T13:22:03Z</time>
      </trkpt>
      <trkpt lat="49.87228" lon="2.15838">
        <ele>90.1</ele>
        <time>2022-01-12T13:22:04Z</time>
      </trkpt>
      <trkpt lat="49.87228" lon="2.15836">
        <ele>90.1</ele>
        <time>2022-01-12T13:22:05Z</time>
      </trkpt>
      <trkpt lat="49.87228" lon="2.15834">
        <ele>90.1</ele>
        <time>2022-01-12T13:22:06Z</time>
      </trkpt>
      <trkpt lat="49.87228" lon="2.1583">
        <ele>90.1</ele>
        <time>2022-01-12T13:22:08Z</time>
      </trkpt>
      <trkpt lat="49.87227" lon="2.15827">
        <ele>90.1</ele>
        <time>2022-01-12T13:22:09Z</time>
      </trkpt>
      <trkpt lat="49.87227" lon="2.15826">
        <ele>90.1</ele>
        <time>2022-01-12T13:22:10Z</time>
      </trkpt>
      <trkpt lat="49.87227" lon="2.15824">
        <ele>90.1</ele>
        <time>2022-01-12T13:22:11Z</time>
      </trkpt>
      <trkpt lat="49.87226" lon="2.15823">
        <ele>90.1</ele>
        <time>2022-01-12T13:22:12Z</time>
      </trkpt>
      <trkpt lat="49.87226" lon="2.15821">
        <ele>90.1</ele>
        <time>2022-01-12T13:22:13Z</time>
      </trkpt>
      <trkpt lat="49.87226" lon="2.15818">
        <ele>90.1</ele>
        <time>2022-01-12T13:22:15Z</time>
      </trkpt>
      <trkpt lat="49.87225" lon="2.15816">
        <ele>90.1</ele>
        <time>2022-01-12T13:22:16Z</time>
      </trkpt>
      <trkpt lat="49.87225" lon="2.15815">
        <ele>90.1</ele>
        <time>2022-01-12T13:22:17Z</time>
      </trkpt>
      <trkpt lat="49.87225" lon="2.15812">
        <ele>90.1</ele>
        <time>2022-01-12T13:22:19Z</time>
      </trkpt>
      <trkpt lat="49.87225" lon="2.15808">
        <ele>90.1</ele>
        <time>2022-01-12T13:22:20Z</time>
      </trkpt>
      <trkpt lat="49.87224" lon="2.15807">
        <ele>90.1</ele>
        <time>2022-01-12T13:22:21Z</time>
      </trkpt>
      <trkpt lat="49.87224" lon="2.15806">
        <ele>90.1</ele>
        <time>2022-01-12T13:22:22Z</time>
      </trkpt>
      <trkpt lat="49.87224" lon="2.15804">
        <ele>90.1</ele>
        <time>2022-01-12T13:22:23Z</time>
      </trkpt>
      <trkpt lat="49.87224" lon="2.15802">
        <ele>90.1</ele>
        <time>2022-01-12T13:22:24Z</time>
      </trkpt>
      <trkpt lat="49.87224" lon="2.158">
        <ele>90.1</ele>
        <time>2022-01-12T13:22:26Z</time>
      </trkpt>
      <trkpt lat="49.87224" lon="2.15798">
        <ele>90.1</ele>
        <time>2022-01-12T13:22:27Z</time>
      </trkpt>
      <trkpt lat="49.87224" lon="2.15796">
        <ele>90.1</ele>
        <time>2022-01-12T13:22:28Z</time>
      </trkpt>
      <trkpt lat="49.87224" lon="2.15794">
        <ele>90.1</ele>
        <time>2022-01-12T13:22:29Z</time>
      </trkpt>
      <trkpt lat="49.87223" lon="2.15791">
        <ele>90</ele>
        <time>2022-01-12T13:22:31Z</time>
      </trkpt>
      <trkpt lat="49.87223" lon="2.15789">
        <ele>90</ele>
        <time>2022-01-12T13:22:32Z</time>
      </trkpt>
      <trkpt lat="49.87223" lon="2.15788">
        <ele>90</ele>
        <time>2022-01-12T13:22:33Z</time>
      </trkpt>
      <trkpt lat="49.87223" lon="2.15786">
        <ele>90</ele>
        <time>2022-01-12T13:22:34Z</time>
      </trkpt>
      <trkpt lat="49.87223" lon="2.15784">
        <ele>90</ele>
        <time>2022-01-12T13:22:35Z</time>
      </trkpt>
      <trkpt lat="49.87223" lon="2.15782">
        <ele>90</ele>
        <time>2022-01-12T13:22:36Z</time>
      </trkpt>
      <trkpt lat="49.87223" lon="2.15779">
        <ele>90</ele>
        <time>2022-01-12T13:22:38Z</time>
      </trkpt>
      <trkpt lat="49.87223" lon="2.15776">
        <ele>90</ele>
        <time>2022-01-12T13:22:39Z</time>
      </trkpt>
      <trkpt lat="49.87223" lon="2.15774">
        <ele>90</ele>
        <time>2022-01-12T13:22:40Z</time>
      </trkpt>
      <trkpt lat="49.87223" lon="2.15773">
        <ele>89.9</ele>
        <time>2022-01-12T13:22:41Z</time>
      </trkpt>
      <trkpt lat="49.87223" lon="2.15768">
        <ele>89.9</ele>
        <time>2022-01-12T13:22:43Z</time>
      </trkpt>
      <trkpt lat="49.87223" lon="2.15767">
        <ele>89.9</ele>
        <time>2022-01-12T13:22:44Z</time>
      </trkpt>
      <trkpt lat="49.87223" lon="2.15765">
        <ele>89.9</ele>
        <time>2022-01-12T13:22:45Z</time>
      </trkpt>
      <trkpt lat="49.87224" lon="2.15763">
        <ele>89.9</ele>
        <time>2022-01-12T13:22:46Z</time>
      </trkpt>
      <trkpt lat="49.87224" lon="2.15762">
        <ele>89.9</ele>
        <time>2022-01-12T13:22:47Z</time>
      </trkpt>
      <trkpt lat="49.87224" lon="2.1576">
        <ele>89.8</ele>
        <time>2022-01-12T13:22:49Z</time>
      </trkpt>
      <trkpt lat="49.87224" lon="2.15757">
        <ele>89.8</ele>
        <time>2022-01-12T13:22:50Z</time>
      </trkpt>
      <trkpt lat="49.87224" lon="2.15755">
        <ele>89.8</ele>
        <time>2022-01-12T13:22:51Z</time>
      </trkpt>
      <trkpt lat="49.87224" lon="2.15752">
        <ele>89.8</ele>
        <time>2022-01-12T13:22:53Z</time>
      </trkpt>
      <trkpt lat="49.87224" lon="2.1575">
        <ele>89.8</ele>
        <time>2022-01-12T13:22:54Z</time>
      </trkpt>
      <trkpt lat="49.87224" lon="2.15747">
        <ele>89.8</ele>
        <time>2022-01-12T13:22:55Z</time>
      </trkpt>
      <trkpt lat="49.87224" lon="2.15744">
        <ele>89.7</ele>
        <time>2022-01-12T13:22:56Z</time>
      </trkpt>
      <trkpt lat="49.87224" lon="2.15743">
        <ele>89.7</ele>
        <time>2022-01-12T13:22:57Z</time>
      </trkpt>
      <trkpt lat="49.87224" lon="2.15742">
        <ele>89.7</ele>
        <time>2022-01-12T13:22:58Z</time>
      </trkpt>
      <trkpt lat="49.87224" lon="2.1574">
        <ele>89.7</ele>
        <time>2022-01-12T13:22:59Z</time>
      </trkpt>
      <trkpt lat="49.87224" lon="2.15737">
        <ele>89.7</ele>
        <time>2022-01-12T13:23:00Z</time>
      </trkpt>
      <trkpt lat="49.87224" lon="2.15733">
        <ele>89.7</ele>
        <time>2022-01-12T13:23:02Z</time>
      </trkpt>
      <trkpt lat="49.87224" lon="2.15732">
        <ele>89.7</ele>
        <time>2022-01-12T13:23:03Z</time>
      </trkpt>
      <trkpt lat="49.87224" lon="2.15727">
        <ele>89.6</ele>
        <time>2022-01-12T13:23:05Z</time>
      </trkpt>
      <trkpt lat="49.87224" lon="2.15726">
        <ele>89.6</ele>
        <time>2022-01-12T13:23:06Z</time>
      </trkpt>
      <trkpt lat="49.87224" lon="2.15724">
        <ele>89.6</ele>
        <time>2022-01-12T13:23:07Z</time>
      </trkpt>
      <trkpt lat="49.87223" lon="2.15721">
        <ele>89.6</ele>
        <time>2022-01-12T13:23:08Z</time>
      </trkpt>
      <trkpt lat="49.87223" lon="2.15718">
        <ele>89.6</ele>
        <time>2022-01-12T13:23:09Z</time>
      </trkpt>
      <trkpt lat="49.87223" lon="2.15717">
        <ele>89.6</ele>
        <time>2022-01-12T13:23:10Z</time>
      </trkpt>
      <trkpt lat="49.87223" lon="2.15716">
        <ele>89.6</ele>
        <time>2022-01-12T13:23:11Z</time>
      </trkpt>
      <trkpt lat="49.87223" lon="2.15713">
        <ele>89.6</ele>
        <time>2022-01-12T13:23:13Z</time>
      </trkpt>
      <trkpt lat="49.87224" lon="2.15711">
        <ele>89.6</ele>
        <time>2022-01-12T13:23:14Z</time>
      </trkpt>
      <trkpt lat="49.87224" lon="2.15709">
        <ele>89.6</ele>
        <time>2022-01-12T13:23:15Z</time>
      </trkpt>
      <trkpt lat="49.87224" lon="2.15707">
        <ele>89.6</ele>
        <time>2022-01-12T13:23:16Z</time>
      </trkpt>
      <trkpt lat="49.87224" lon="2.15704">
        <ele>89.6</ele>
        <time>2022-01-12T13:23:18Z</time>
      </trkpt>
      <trkpt lat="49.87224" lon="2.15702">
        <ele>89.6</ele>
        <time>2022-01-12T13:23:19Z</time>
      </trkpt>
      <trkpt lat="49.87224" lon="2.157">
        <ele>89.7</ele>
        <time>2022-01-12T13:23:20Z</time>
      </trkpt>
      <trkpt lat="49.87224" lon="2.15699">
        <ele>89.7</ele>
        <time>2022-01-12T13:23:21Z</time>
      </trkpt>
      <trkpt lat="49.87224" lon="2.15696">
        <ele>89.7</ele>
        <time>2022-01-12T13:23:23Z</time>
      </trkpt>
      <trkpt lat="49.87224" lon="2.15694">
        <ele>89.7</ele>
        <time>2022-01-12T13:23:24Z</time>
      </trkpt>
      <trkpt lat="49.87225" lon="2.15691">
        <ele>89.7</ele>
        <time>2022-01-12T13:23:25Z</time>
      </trkpt>
      <trkpt lat="49.87225" lon="2.15689">
        <ele>89.7</ele>
        <time>2022-01-12T13:23:26Z</time>
      </trkpt>
      <trkpt lat="49.87225" lon="2.15688">
        <ele>89.7</ele>
        <time>2022-01-12T13:23:27Z</time>
      </trkpt>
      <trkpt lat="49.87225" lon="2.15685">
        <ele>89.6</ele>
        <time>2022-01-12T13:23:29Z</time>
      </trkpt>
      <trkpt lat="49.87225" lon="2.15683">
        <ele>89.6</ele>
        <time>2022-01-12T13:23:30Z</time>
      </trkpt>
      <trkpt lat="49.87225" lon="2.1568">
        <ele>89.6</ele>
        <time>2022-01-12T13:23:31Z</time>
      </trkpt>
      <trkpt lat="49.87225" lon="2.15679">
        <ele>89.6</ele>
        <time>2022-01-12T13:23:32Z</time>
      </trkpt>
      <trkpt lat="49.87225" lon="2.15677">
        <ele>89.6</ele>
        <time>2022-01-12T13:23:33Z</time>
      </trkpt>
      <trkpt lat="49.87225" lon="2.15674">
        <ele>89.6</ele>
        <time>2022-01-12T13:23:35Z</time>
      </trkpt>
      <trkpt lat="49.87225" lon="2.15672">
        <ele>89.6</ele>
        <time>2022-01-12T13:23:36Z</time>
      </trkpt>
      <trkpt lat="49.87225" lon="2.15671">
        <ele>89.6</ele>
        <time>2022-01-12T13:23:37Z</time>
      </trkpt>
      <trkpt lat="49.87225" lon="2.1567">
        <ele>89.6</ele>
        <time>2022-01-12T13:23:38Z</time>
      </trkpt>
      <trkpt lat="49.87225" lon="2.15668">
        <ele>89.6</ele>
        <time>2022-01-12T13:23:39Z</time>
      </trkpt>
      <trkpt lat="49.87225" lon="2.15666">
        <ele>89.6</ele>
        <time>2022-01-12T13:23:40Z</time>
      </trkpt>
      <trkpt lat="49.87224" lon="2.15662">
        <ele>89.6</ele>
        <time>2022-01-12T13:23:41Z</time>
      </trkpt>
      <trkpt lat="49.87224" lon="2.15661">
        <ele>89.6</ele>
        <time>2022-01-12T13:23:43Z</time>
      </trkpt>
      <trkpt lat="49.87224" lon="2.15659">
        <ele>89.6</ele>
        <time>2022-01-12T13:23:44Z</time>
      </trkpt>
      <trkpt lat="49.87223" lon="2.15658">
        <ele>89.6</ele>
        <time>2022-01-12T13:23:45Z</time>
      </trkpt>
      <trkpt lat="49.87223" lon="2.15656">
        <ele>89.6</ele>
        <time>2022-01-12T13:23:46Z</time>
      </trkpt>
      <trkpt lat="49.87223" lon="2.15653">
        <ele>89.6</ele>
        <time>2022-01-12T13:23:47Z</time>
      </trkpt>
      <trkpt lat="49.87222" lon="2.15652">
        <ele>89.6</ele>
        <time>2022-01-12T13:23:48Z</time>
      </trkpt>
      <trkpt lat="49.87222" lon="2.15651">
        <ele>89.6</ele>
        <time>2022-01-12T13:23:49Z</time>
      </trkpt>
      <trkpt lat="49.87222" lon="2.15648">
        <ele>89.6</ele>
        <time>2022-01-12T13:23:50Z</time>
      </trkpt>
      <trkpt lat="49.87222" lon="2.15646">
        <ele>89.5</ele>
        <time>2022-01-12T13:23:51Z</time>
      </trkpt>
      <trkpt lat="49.87222" lon="2.15644">
        <ele>89.5</ele>
        <time>2022-01-12T13:23:52Z</time>
      </trkpt>
      <trkpt lat="49.87221" lon="2.15641">
        <ele>89.5</ele>
        <time>2022-01-12T13:23:54Z</time>
      </trkpt>
      <trkpt lat="49.87221" lon="2.15639">
        <ele>89.5</ele>
        <time>2022-01-12T13:23:55Z</time>
      </trkpt>
      <trkpt lat="49.87221" lon="2.15636">
        <ele>89.5</ele>
        <time>2022-01-12T13:23:56Z</time>
      </trkpt>
      <trkpt lat="49.87221" lon="2.15633">
        <ele>89.5</ele>
        <time>2022-01-12T13:23:57Z</time>
      </trkpt>
      <trkpt lat="49.87221" lon="2.15631">
        <ele>89.5</ele>
        <time>2022-01-12T13:23:59Z</time>
      </trkpt>
      <trkpt lat="49.87221" lon="2.15629">
        <ele>89.5</ele>
        <time>2022-01-12T13:24:00Z</time>
      </trkpt>
      <trkpt lat="49.87221" lon="2.15628">
        <ele>89.5</ele>
        <time>2022-01-12T13:24:01Z</time>
      </trkpt>
      <trkpt lat="49.87221" lon="2.15626">
        <ele>89.5</ele>
        <time>2022-01-12T13:24:02Z</time>
      </trkpt>
      <trkpt lat="49.87221" lon="2.15624">
        <ele>89.5</ele>
        <time>2022-01-12T13:24:03Z</time>
      </trkpt>
      <trkpt lat="49.87221" lon="2.15622">
        <ele>89.4</ele>
        <time>2022-01-12T13:24:04Z</time>
      </trkpt>
      <trkpt lat="49.87221" lon="2.15619">
        <ele>89.4</ele>
        <time>2022-01-12T13:24:05Z</time>
      </trkpt>
      <trkpt lat="49.87221" lon="2.15617">
        <ele>89.4</ele>
        <time>2022-01-12T13:24:06Z</time>
      </trkpt>
      <trkpt lat="49.87221" lon="2.15615">
        <ele>89.4</ele>
        <time>2022-01-12T13:24:07Z</time>
      </trkpt>
      <trkpt lat="49.87221" lon="2.15613">
        <ele>89.4</ele>
        <time>2022-01-12T13:24:09Z</time>
      </trkpt>
      <trkpt lat="49.87221" lon="2.1561">
        <ele>89.4</ele>
        <time>2022-01-12T13:24:10Z</time>
      </trkpt>
      <trkpt lat="49.87221" lon="2.15608">
        <ele>89.4</ele>
        <time>2022-01-12T13:24:11Z</time>
      </trkpt>
      <trkpt lat="49.87221" lon="2.15604">
        <ele>89.4</ele>
        <time>2022-01-12T13:24:12Z</time>
      </trkpt>
      <trkpt lat="49.87221" lon="2.15603">
        <ele>89.4</ele>
        <time>2022-01-12T13:24:13Z</time>
      </trkpt>
      <trkpt lat="49.87221" lon="2.15602">
        <ele>89.4</ele>
        <time>2022-01-12T13:24:14Z</time>
      </trkpt>
      <trkpt lat="49.87221" lon="2.156">
        <ele>89.4</ele>
        <time>2022-01-12T13:24:15Z</time>
      </trkpt>
      <trkpt lat="49.87222" lon="2.15597">
        <ele>89.4</ele>
        <time>2022-01-12T13:24:17Z</time>
      </trkpt>
      <trkpt lat="49.87222" lon="2.15595">
        <ele>89.4</ele>
        <time>2022-01-12T13:24:18Z</time>
      </trkpt>
      <trkpt lat="49.87222" lon="2.15593">
        <ele>89.4</ele>
        <time>2022-01-12T13:24:19Z</time>
      </trkpt>
      <trkpt lat="49.87222" lon="2.15591">
        <ele>89.4</ele>
        <time>2022-01-12T13:24:20Z</time>
      </trkpt>
      <trkpt lat="49.87222" lon="2.15587">
        <ele>89.4</ele>
        <time>2022-01-12T13:24:22Z</time>
      </trkpt>
      <trkpt lat="49.87222" lon="2.15585">
        <ele>89.4</ele>
        <time>2022-01-12T13:24:23Z</time>
      </trkpt>
      <trkpt lat="49.87221" lon="2.15583">
        <ele>89.4</ele>
        <time>2022-01-12T13:24:24Z</time>
      </trkpt>
      <trkpt lat="49.87221" lon="2.15579">
        <ele>89.4</ele>
        <time>2022-01-12T13:24:25Z</time>
      </trkpt>
      <trkpt lat="49.87221" lon="2.15578">
        <ele>89.4</ele>
        <time>2022-01-12T13:24:27Z</time>
      </trkpt>
      <trkpt lat="49.87221" lon="2.15576">
        <ele>89.4</ele>
        <time>2022-01-12T13:24:28Z</time>
      </trkpt>
      <trkpt lat="49.87221" lon="2.15574">
        <ele>89.4</ele>
        <time>2022-01-12T13:24:29Z</time>
      </trkpt>
      <trkpt lat="49.87221" lon="2.15572">
        <ele>89.3</ele>
        <time>2022-01-12T13:24:30Z</time>
      </trkpt>
      <trkpt lat="49.8722" lon="2.1557">
        <ele>89.3</ele>
        <time>2022-01-12T13:24:31Z</time>
      </trkpt>
      <trkpt lat="49.8722" lon="2.15568">
        <ele>89.4</ele>
        <time>2022-01-12T13:24:32Z</time>
      </trkpt>
      <trkpt lat="49.87219" lon="2.15567">
        <ele>89.4</ele>
        <time>2022-01-12T13:24:33Z</time>
      </trkpt>
      <trkpt lat="49.87219" lon="2.15564">
        <ele>89.3</ele>
        <time>2022-01-12T13:24:35Z</time>
      </trkpt>
      <trkpt lat="49.87219" lon="2.15562">
        <ele>89.3</ele>
        <time>2022-01-12T13:24:36Z</time>
      </trkpt>
      <trkpt lat="49.87219" lon="2.1556">
        <ele>89.3</ele>
        <time>2022-01-12T13:24:37Z</time>
      </trkpt>
      <trkpt lat="49.87218" lon="2.15559">
        <ele>89.3</ele>
        <time>2022-01-12T13:24:38Z</time>
      </trkpt>
      <trkpt lat="49.87218" lon="2.15558">
        <ele>89.3</ele>
        <time>2022-01-12T13:24:39Z</time>
      </trkpt>
      <trkpt lat="49.87218" lon="2.15556">
        <ele>89.3</ele>
        <time>2022-01-12T13:24:41Z</time>
      </trkpt>
      <trkpt lat="49.87217" lon="2.15554">
        <ele>89.3</ele>
        <time>2022-01-12T13:24:42Z</time>
      </trkpt>
      <trkpt lat="49.87217" lon="2.15553">
        <ele>89.3</ele>
        <time>2022-01-12T13:24:43Z</time>
      </trkpt>
      <trkpt lat="49.87217" lon="2.15551">
        <ele>89.3</ele>
        <time>2022-01-12T13:24:44Z</time>
      </trkpt>
      <trkpt lat="49.87217" lon="2.1555">
        <ele>89.3</ele>
        <time>2022-01-12T13:24:45Z</time>
      </trkpt>
      <trkpt lat="49.87217" lon="2.15547">
        <ele>89.3</ele>
        <time>2022-01-12T13:24:46Z</time>
      </trkpt>
      <trkpt lat="49.87217" lon="2.15545">
        <ele>89.3</ele>
        <time>2022-01-12T13:24:47Z</time>
      </trkpt>
      <trkpt lat="49.87217" lon="2.15544">
        <ele>89.3</ele>
        <time>2022-01-12T13:24:48Z</time>
      </trkpt>
      <trkpt lat="49.87217" lon="2.15541">
        <ele>89.3</ele>
        <time>2022-01-12T13:24:49Z</time>
      </trkpt>
      <trkpt lat="49.87216" lon="2.15539">
        <ele>89.3</ele>
        <time>2022-01-12T13:24:51Z</time>
      </trkpt>
      <trkpt lat="49.87216" lon="2.15537">
        <ele>89.2</ele>
        <time>2022-01-12T13:24:52Z</time>
      </trkpt>
      <trkpt lat="49.87216" lon="2.15535">
        <ele>89.2</ele>
        <time>2022-01-12T13:24:53Z</time>
      </trkpt>
      <trkpt lat="49.87216" lon="2.15534">
        <ele>89.2</ele>
        <time>2022-01-12T13:24:54Z</time>
      </trkpt>
      <trkpt lat="49.87216" lon="2.15531">
        <ele>89.2</ele>
        <time>2022-01-12T13:24:56Z</time>
      </trkpt>
      <trkpt lat="49.87216" lon="2.15529">
        <ele>89.2</ele>
        <time>2022-01-12T13:24:57Z</time>
      </trkpt>
      <trkpt lat="49.87216" lon="2.15525">
        <ele>89.2</ele>
        <time>2022-01-12T13:24:58Z</time>
      </trkpt>
      <trkpt lat="49.87216" lon="2.15524">
        <ele>89.2</ele>
        <time>2022-01-12T13:24:59Z</time>
      </trkpt>
      <trkpt lat="49.87216" lon="2.15523">
        <ele>89.2</ele>
        <time>2022-01-12T13:25:00Z</time>
      </trkpt>
      <trkpt lat="49.87216" lon="2.15519">
        <ele>89.2</ele>
        <time>2022-01-12T13:25:01Z</time>
      </trkpt>
      <trkpt lat="49.87216" lon="2.15518">
        <ele>89.2</ele>
        <time>2022-01-12T13:25:02Z</time>
      </trkpt>
      <trkpt lat="49.87216" lon="2.15516">
        <ele>89.2</ele>
        <time>2022-01-12T13:25:03Z</time>
      </trkpt>
      <trkpt lat="49.87217" lon="2.15512">
        <ele>89.2</ele>
        <time>2022-01-12T13:25:04Z</time>
      </trkpt>
      <trkpt lat="49.87217" lon="2.15511">
        <ele>89.2</ele>
        <time>2022-01-12T13:25:06Z</time>
      </trkpt>
      <trkpt lat="49.87217" lon="2.15509">
        <ele>89.2</ele>
        <time>2022-01-12T13:25:07Z</time>
      </trkpt>
      <trkpt lat="49.87218" lon="2.15507">
        <ele>89.2</ele>
        <time>2022-01-12T13:25:08Z</time>
      </trkpt>
      <trkpt lat="49.87218" lon="2.15506">
        <ele>89.2</ele>
        <time>2022-01-12T13:25:09Z</time>
      </trkpt>
      <trkpt lat="49.87218" lon="2.15504">
        <ele>89.2</ele>
        <time>2022-01-12T13:25:10Z</time>
      </trkpt>
      <trkpt lat="49.87219" lon="2.15502">
        <ele>89.2</ele>
        <time>2022-01-12T13:25:11Z</time>
      </trkpt>
      <trkpt lat="49.87219" lon="2.155">
        <ele>89.2</ele>
        <time>2022-01-12T13:25:12Z</time>
      </trkpt>
      <trkpt lat="49.87219" lon="2.15497">
        <ele>89.2</ele>
        <time>2022-01-12T13:25:13Z</time>
      </trkpt>
      <trkpt lat="49.87219" lon="2.15496">
        <ele>89.2</ele>
        <time>2022-01-12T13:25:14Z</time>
      </trkpt>
      <trkpt lat="49.8722" lon="2.15495">
        <ele>89.2</ele>
        <time>2022-01-12T13:25:15Z</time>
      </trkpt>
      <trkpt lat="49.8722" lon="2.15491">
        <ele>89.2</ele>
        <time>2022-01-12T13:25:16Z</time>
      </trkpt>
      <trkpt lat="49.87219" lon="2.15489">
        <ele>89.2</ele>
        <time>2022-01-12T13:25:18Z</time>
      </trkpt>
      <trkpt lat="49.87219" lon="2.15487">
        <ele>89.2</ele>
        <time>2022-01-12T13:25:19Z</time>
      </trkpt>
      <trkpt lat="49.87219" lon="2.15485">
        <ele>89.2</ele>
        <time>2022-01-12T13:25:20Z</time>
      </trkpt>
      <trkpt lat="49.87219" lon="2.15483">
        <ele>89.2</ele>
        <time>2022-01-12T13:25:21Z</time>
      </trkpt>
      <trkpt lat="49.87218" lon="2.15482">
        <ele>89.2</ele>
        <time>2022-01-12T13:25:22Z</time>
      </trkpt>
      <trkpt lat="49.87218" lon="2.1548">
        <ele>89.2</ele>
        <time>2022-01-12T13:25:23Z</time>
      </trkpt>
      <trkpt lat="49.87217" lon="2.15477">
        <ele>89.2</ele>
        <time>2022-01-12T13:25:25Z</time>
      </trkpt>
      <trkpt lat="49.87217" lon="2.15475">
        <ele>89.2</ele>
        <time>2022-01-12T13:25:26Z</time>
      </trkpt>
      <trkpt lat="49.87217" lon="2.15473">
        <ele>89.2</ele>
        <time>2022-01-12T13:25:27Z</time>
      </trkpt>
      <trkpt lat="49.87216" lon="2.15471">
        <ele>89.3</ele>
        <time>2022-01-12T13:25:29Z</time>
      </trkpt>
      <trkpt lat="49.87217" lon="2.15467">
        <ele>89.3</ele>
        <time>2022-01-12T13:25:30Z</time>
      </trkpt>
      <trkpt lat="49.87217" lon="2.15466">
        <ele>89.3</ele>
        <time>2022-01-12T13:25:31Z</time>
      </trkpt>
      <trkpt lat="49.87217" lon="2.15465">
        <ele>89.3</ele>
        <time>2022-01-12T13:25:32Z</time>
      </trkpt>
      <trkpt lat="49.87217" lon="2.15463">
        <ele>89.3</ele>
        <time>2022-01-12T13:25:34Z</time>
      </trkpt>
      <trkpt lat="49.87217" lon="2.15461">
        <ele>89.3</ele>
        <time>2022-01-12T13:25:35Z</time>
      </trkpt>
      <trkpt lat="49.87217" lon="2.1546">
        <ele>89.4</ele>
        <time>2022-01-12T13:25:36Z</time>
      </trkpt>
      <trkpt lat="49.87217" lon="2.15458">
        <ele>89.4</ele>
        <time>2022-01-12T13:25:37Z</time>
      </trkpt>
      <trkpt lat="49.87217" lon="2.15456">
        <ele>89.4</ele>
        <time>2022-01-12T13:25:38Z</time>
      </trkpt>
      <trkpt lat="49.87217" lon="2.15454">
        <ele>89.4</ele>
        <time>2022-01-12T13:25:40Z</time>
      </trkpt>
      <trkpt lat="49.87217" lon="2.15452">
        <ele>89.5</ele>
        <time>2022-01-12T13:25:41Z</time>
      </trkpt>
      <trkpt lat="49.87217" lon="2.15451">
        <ele>89.5</ele>
        <time>2022-01-12T13:25:42Z</time>
      </trkpt>
      <trkpt lat="49.87216" lon="2.15449">
        <ele>89.5</ele>
        <time>2022-01-12T13:25:43Z</time>
      </trkpt>
      <trkpt lat="49.87216" lon="2.15447">
        <ele>89.5</ele>
        <time>2022-01-12T13:25:44Z</time>
      </trkpt>
      <trkpt lat="49.87216" lon="2.15445">
        <ele>89.6</ele>
        <time>2022-01-12T13:25:45Z</time>
      </trkpt>
      <trkpt lat="49.87216" lon="2.15444">
        <ele>89.6</ele>
        <time>2022-01-12T13:25:46Z</time>
      </trkpt>
      <trkpt lat="49.87215" lon="2.15442">
        <ele>89.6</ele>
        <time>2022-01-12T13:25:47Z</time>
      </trkpt>
      <trkpt lat="49.87214" lon="2.15439">
        <ele>89.6</ele>
        <time>2022-01-12T13:25:49Z</time>
      </trkpt>
      <trkpt lat="49.87214" lon="2.15437">
        <ele>89.7</ele>
        <time>2022-01-12T13:25:50Z</time>
      </trkpt>
      <trkpt lat="49.87213" lon="2.15435">
        <ele>89.7</ele>
        <time>2022-01-12T13:25:51Z</time>
      </trkpt>
      <trkpt lat="49.87213" lon="2.15432">
        <ele>89.7</ele>
        <time>2022-01-12T13:25:52Z</time>
      </trkpt>
      <trkpt lat="49.87213" lon="2.15431">
        <ele>89.7</ele>
        <time>2022-01-12T13:25:53Z</time>
      </trkpt>
      <trkpt lat="49.87213" lon="2.15429">
        <ele>89.8</ele>
        <time>2022-01-12T13:25:54Z</time>
      </trkpt>
      <trkpt lat="49.87212" lon="2.15427">
        <ele>89.8</ele>
        <time>2022-01-12T13:25:55Z</time>
      </trkpt>
      <trkpt lat="49.87212" lon="2.15425">
        <ele>89.8</ele>
        <time>2022-01-12T13:25:57Z</time>
      </trkpt>
      <trkpt lat="49.87212" lon="2.15423">
        <ele>89.9</ele>
        <time>2022-01-12T13:25:58Z</time>
      </trkpt>
      <trkpt lat="49.87212" lon="2.15421">
        <ele>89.9</ele>
        <time>2022-01-12T13:25:59Z</time>
      </trkpt>
      <trkpt lat="49.87212" lon="2.15418">
        <ele>89.9</ele>
        <time>2022-01-12T13:26:01Z</time>
      </trkpt>
      <trkpt lat="49.87211" lon="2.15415">
        <ele>89.9</ele>
        <time>2022-01-12T13:26:02Z</time>
      </trkpt>
      <trkpt lat="49.87211" lon="2.15414">
        <ele>89.9</ele>
        <time>2022-01-12T13:26:03Z</time>
      </trkpt>
      <trkpt lat="49.87211" lon="2.15413">
        <ele>90</ele>
        <time>2022-01-12T13:26:04Z</time>
      </trkpt>
      <trkpt lat="49.87211" lon="2.1541">
        <ele>90</ele>
        <time>2022-01-12T13:26:05Z</time>
      </trkpt>
      <trkpt lat="49.87212" lon="2.15408">
        <ele>90</ele>
        <time>2022-01-12T13:26:07Z</time>
      </trkpt>
      <trkpt lat="49.87212" lon="2.15407">
        <ele>90</ele>
        <time>2022-01-12T13:26:08Z</time>
      </trkpt>
      <trkpt lat="49.87212" lon="2.15405">
        <ele>90</ele>
        <time>2022-01-12T13:26:09Z</time>
      </trkpt>
      <trkpt lat="49.87212" lon="2.15404">
        <ele>90.1</ele>
        <time>2022-01-12T13:26:10Z</time>
      </trkpt>
      <trkpt lat="49.87212" lon="2.15402">
        <ele>90.1</ele>
        <time>2022-01-12T13:26:11Z</time>
      </trkpt>
      <trkpt lat="49.87213" lon="2.15401">
        <ele>90.1</ele>
        <time>2022-01-12T13:26:12Z</time>
      </trkpt>
      <trkpt lat="49.87213" lon="2.154">
        <ele>90.1</ele>
        <time>2022-01-12T13:26:13Z</time>
      </trkpt>
      <trkpt lat="49.87214" lon="2.15398">
        <ele>90.1</ele>
        <time>2022-01-12T13:26:14Z</time>
      </trkpt>
      <trkpt lat="49.87214" lon="2.15397">
        <ele>90.1</ele>
        <time>2022-01-12T13:26:15Z</time>
      </trkpt>
      <trkpt lat="49.87214" lon="2.15396">
        <ele>90.1</ele>
        <time>2022-01-12T13:26:17Z</time>
      </trkpt>
      <trkpt lat="49.87214" lon="2.15394">
        <ele>90.2</ele>
        <time>2022-01-12T13:26:18Z</time>
      </trkpt>
      <trkpt lat="49.87214" lon="2.15393">
        <ele>90.2</ele>
        <time>2022-01-12T13:26:19Z</time>
      </trkpt>
      <trkpt lat="49.87215" lon="2.15391">
        <ele>90.2</ele>
        <time>2022-01-12T13:26:20Z</time>
      </trkpt>
      <trkpt lat="49.87215" lon="2.1539">
        <ele>90.2</ele>
        <time>2022-01-12T13:26:21Z</time>
      </trkpt>
      <trkpt lat="49.87215" lon="2.15389">
        <ele>90.2</ele>
        <time>2022-01-12T13:26:22Z</time>
      </trkpt>
      <trkpt lat="49.87215" lon="2.15387">
        <ele>90.2</ele>
        <time>2022-01-12T13:26:23Z</time>
      </trkpt>
      <trkpt lat="49.87215" lon="2.15385">
        <ele>90.2</ele>
        <time>2022-01-12T13:26:24Z</time>
      </trkpt>
      <trkpt lat="49.87215" lon="2.15383">
        <ele>90.3</ele>
        <time>2022-01-12T13:26:26Z</time>
      </trkpt>
      <trkpt lat="49.87215" lon="2.15381">
        <ele>90.3</ele>
        <time>2022-01-12T13:26:27Z</time>
      </trkpt>
      <trkpt lat="49.87215" lon="2.15378">
        <ele>90.3</ele>
        <time>2022-01-12T13:26:28Z</time>
      </trkpt>
      <trkpt lat="49.87215" lon="2.15376">
        <ele>90.3</ele>
        <time>2022-01-12T13:26:29Z</time>
      </trkpt>
      <trkpt lat="49.87215" lon="2.15375">
        <ele>90.4</ele>
        <time>2022-01-12T13:26:30Z</time>
      </trkpt>
      <trkpt lat="49.87215" lon="2.15372">
        <ele>90.4</ele>
        <time>2022-01-12T13:26:32Z</time>
      </trkpt>
      <trkpt lat="49.87214" lon="2.1537">
        <ele>90.4</ele>
        <time>2022-01-12T13:26:33Z</time>
      </trkpt>
      <trkpt lat="49.87214" lon="2.15368">
        <ele>90.4</ele>
        <time>2022-01-12T13:26:34Z</time>
      </trkpt>
      <trkpt lat="49.87214" lon="2.15366">
        <ele>90.5</ele>
        <time>2022-01-12T13:26:35Z</time>
      </trkpt>
      <trkpt lat="49.87214" lon="2.15364">
        <ele>90.5</ele>
        <time>2022-01-12T13:26:36Z</time>
      </trkpt>
      <trkpt lat="49.87214" lon="2.15361">
        <ele>90.5</ele>
        <time>2022-01-12T13:26:38Z</time>
      </trkpt>
      <trkpt lat="49.87214" lon="2.15359">
        <ele>90.6</ele>
        <time>2022-01-12T13:26:39Z</time>
      </trkpt>
      <trkpt lat="49.87214" lon="2.15357">
        <ele>90.6</ele>
        <time>2022-01-12T13:26:40Z</time>
      </trkpt>
      <trkpt lat="49.87214" lon="2.15353">
        <ele>90.6</ele>
        <time>2022-01-12T13:26:41Z</time>
      </trkpt>
      <trkpt lat="49.87214" lon="2.15352">
        <ele>90.6</ele>
        <time>2022-01-12T13:26:42Z</time>
      </trkpt>
      <trkpt lat="49.87213" lon="2.15351">
        <ele>90.6</ele>
        <time>2022-01-12T13:26:43Z</time>
      </trkpt>
      <trkpt lat="49.87213" lon="2.15347">
        <ele>90.6</ele>
        <time>2022-01-12T13:26:44Z</time>
      </trkpt>
      <trkpt lat="49.87213" lon="2.15346">
        <ele>90.7</ele>
        <time>2022-01-12T13:26:45Z</time>
      </trkpt>
      <trkpt lat="49.87213" lon="2.15344">
        <ele>90.7</ele>
        <time>2022-01-12T13:26:46Z</time>
      </trkpt>
      <trkpt lat="49.87213" lon="2.15341">
        <ele>90.7</ele>
        <time>2022-01-12T13:26:48Z</time>
      </trkpt>
      <trkpt lat="49.87213" lon="2.1534">
        <ele>90.7</ele>
        <time>2022-01-12T13:26:49Z</time>
      </trkpt>
      <trkpt lat="49.87213" lon="2.15339">
        <ele>90.7</ele>
        <time>2022-01-12T13:26:50Z</time>
      </trkpt>
      <trkpt lat="49.87213" lon="2.15337">
        <ele>90.7</ele>
        <time>2022-01-12T13:26:51Z</time>
      </trkpt>
      <trkpt lat="49.87213" lon="2.15335">
        <ele>90.7</ele>
        <time>2022-01-12T13:26:52Z</time>
      </trkpt>
      <trkpt lat="49.87213" lon="2.15334">
        <ele>90.8</ele>
        <time>2022-01-12T13:26:53Z</time>
      </trkpt>
      <trkpt lat="49.87212" lon="2.15332">
        <ele>90.8</ele>
        <time>2022-01-12T13:26:54Z</time>
      </trkpt>
      <trkpt lat="49.87212" lon="2.1533">
        <ele>90.8</ele>
        <time>2022-01-12T13:26:55Z</time>
      </trkpt>
      <trkpt lat="49.87212" lon="2.15328">
        <ele>90.8</ele>
        <time>2022-01-12T13:26:56Z</time>
      </trkpt>
      <trkpt lat="49.87212" lon="2.15326">
        <ele>90.8</ele>
        <time>2022-01-12T13:26:57Z</time>
      </trkpt>
      <trkpt lat="49.87212" lon="2.15323">
        <ele>90.8</ele>
        <time>2022-01-12T13:26:59Z</time>
      </trkpt>
      <trkpt lat="49.87211" lon="2.1532">
        <ele>90.9</ele>
        <time>2022-01-12T13:27:00Z</time>
      </trkpt>
      <trkpt lat="49.87211" lon="2.15318">
        <ele>90.9</ele>
        <time>2022-01-12T13:27:01Z</time>
      </trkpt>
      <trkpt lat="49.87211" lon="2.15316">
        <ele>90.9</ele>
        <time>2022-01-12T13:27:02Z</time>
      </trkpt>
      <trkpt lat="49.87211" lon="2.15314">
        <ele>90.9</ele>
        <time>2022-01-12T13:27:03Z</time>
      </trkpt>
      <trkpt lat="49.87211" lon="2.15311">
        <ele>90.9</ele>
        <time>2022-01-12T13:27:04Z</time>
      </trkpt>
      <trkpt lat="49.87211" lon="2.15309">
        <ele>91</ele>
        <time>2022-01-12T13:27:05Z</time>
      </trkpt>
      <trkpt lat="49.87211" lon="2.15307">
        <ele>91</ele>
        <time>2022-01-12T13:27:07Z</time>
      </trkpt>
      <trkpt lat="49.87211" lon="2.15304">
        <ele>91</ele>
        <time>2022-01-12T13:27:08Z</time>
      </trkpt>
      <trkpt lat="49.8721" lon="2.15299">
        <ele>91</ele>
        <time>2022-01-12T13:27:10Z</time>
      </trkpt>
      <trkpt lat="49.8721" lon="2.15298">
        <ele>91.1</ele>
        <time>2022-01-12T13:27:11Z</time>
      </trkpt>
      <trkpt lat="49.8721" lon="2.15296">
        <ele>91.1</ele>
        <time>2022-01-12T13:27:12Z</time>
      </trkpt>
      <trkpt lat="49.8721" lon="2.15294">
        <ele>91.1</ele>
        <time>2022-01-12T13:27:13Z</time>
      </trkpt>
      <trkpt lat="49.8721" lon="2.15291">
        <ele>91.1</ele>
        <time>2022-01-12T13:27:15Z</time>
      </trkpt>
      <trkpt lat="49.8721" lon="2.15289">
        <ele>91.2</ele>
        <time>2022-01-12T13:27:16Z</time>
      </trkpt>
      <trkpt lat="49.87209" lon="2.15287">
        <ele>91.2</ele>
        <time>2022-01-12T13:27:17Z</time>
      </trkpt>
      <trkpt lat="49.87209" lon="2.15285">
        <ele>91.2</ele>
        <time>2022-01-12T13:27:18Z</time>
      </trkpt>
      <trkpt lat="49.87209" lon="2.15283">
        <ele>91.2</ele>
        <time>2022-01-12T13:27:19Z</time>
      </trkpt>
      <trkpt lat="49.87209" lon="2.1528">
        <ele>91.3</ele>
        <time>2022-01-12T13:27:20Z</time>
      </trkpt>
      <trkpt lat="49.87209" lon="2.15278">
        <ele>91.3</ele>
        <time>2022-01-12T13:27:21Z</time>
      </trkpt>
      <trkpt lat="49.87209" lon="2.15277">
        <ele>91.3</ele>
        <time>2022-01-12T13:27:22Z</time>
      </trkpt>
      <trkpt lat="49.87208" lon="2.15274">
        <ele>91.3</ele>
        <time>2022-01-12T13:27:24Z</time>
      </trkpt>
      <trkpt lat="49.87208" lon="2.15272">
        <ele>91.4</ele>
        <time>2022-01-12T13:27:25Z</time>
      </trkpt>
      <trkpt lat="49.87208" lon="2.15271">
        <ele>91.4</ele>
        <time>2022-01-12T13:27:26Z</time>
      </trkpt>
      <trkpt lat="49.87208" lon="2.15269">
        <ele>91.4</ele>
        <time>2022-01-12T13:27:27Z</time>
      </trkpt>
      <trkpt lat="49.87208" lon="2.15268">
        <ele>91.4</ele>
        <time>2022-01-12T13:27:28Z</time>
      </trkpt>
      <trkpt lat="49.87207" lon="2.15266">
        <ele>91.5</ele>
        <time>2022-01-12T13:27:29Z</time>
      </trkpt>
      <trkpt lat="49.87207" lon="2.15264">
        <ele>91.5</ele>
        <time>2022-01-12T13:27:30Z</time>
      </trkpt>
      <trkpt lat="49.87206" lon="2.15263">
        <ele>91.5</ele>
        <time>2022-01-12T13:27:32Z</time>
      </trkpt>
      <trkpt lat="49.87206" lon="2.15261">
        <ele>91.5</ele>
        <time>2022-01-12T13:27:33Z</time>
      </trkpt>
      <trkpt lat="49.87206" lon="2.15259">
        <ele>91.5</ele>
        <time>2022-01-12T13:27:34Z</time>
      </trkpt>
      <trkpt lat="49.87205" lon="2.15257">
        <ele>91.6</ele>
        <time>2022-01-12T13:27:35Z</time>
      </trkpt>
      <trkpt lat="49.87205" lon="2.15256">
        <ele>91.6</ele>
        <time>2022-01-12T13:27:36Z</time>
      </trkpt>
      <trkpt lat="49.87204" lon="2.15253">
        <ele>91.6</ele>
        <time>2022-01-12T13:27:37Z</time>
      </trkpt>
      <trkpt lat="49.87203" lon="2.15252">
        <ele>91.6</ele>
        <time>2022-01-12T13:27:38Z</time>
      </trkpt>
      <trkpt lat="49.87203" lon="2.15251">
        <ele>91.7</ele>
        <time>2022-01-12T13:27:39Z</time>
      </trkpt>
      <trkpt lat="49.87202" lon="2.15249">
        <ele>91.7</ele>
        <time>2022-01-12T13:27:40Z</time>
      </trkpt>
      <trkpt lat="49.87201" lon="2.15247">
        <ele>91.7</ele>
        <time>2022-01-12T13:27:41Z</time>
      </trkpt>
      <trkpt lat="49.87201" lon="2.15245">
        <ele>91.7</ele>
        <time>2022-01-12T13:27:43Z</time>
      </trkpt>
      <trkpt lat="49.872" lon="2.15243">
        <ele>91.8</ele>
        <time>2022-01-12T13:27:44Z</time>
      </trkpt>
      <trkpt lat="49.872" lon="2.15241">
        <ele>91.8</ele>
        <time>2022-01-12T13:27:45Z</time>
      </trkpt>
      <trkpt lat="49.872" lon="2.1524">
        <ele>91.8</ele>
        <time>2022-01-12T13:27:46Z</time>
      </trkpt>
      <trkpt lat="49.87199" lon="2.15238">
        <ele>91.8</ele>
        <time>2022-01-12T13:27:47Z</time>
      </trkpt>
      <trkpt lat="49.87198" lon="2.15235">
        <ele>91.8</ele>
        <time>2022-01-12T13:27:48Z</time>
      </trkpt>
      <trkpt lat="49.87198" lon="2.15234">
        <ele>91.8</ele>
        <time>2022-01-12T13:27:49Z</time>
      </trkpt>
      <trkpt lat="49.87197" lon="2.15233">
        <ele>91.8</ele>
        <time>2022-01-12T13:27:50Z</time>
      </trkpt>
      <trkpt lat="49.87197" lon="2.15231">
        <ele>91.9</ele>
        <time>2022-01-12T13:27:51Z</time>
      </trkpt>
      <trkpt lat="49.87196" lon="2.15229">
        <ele>91.9</ele>
        <time>2022-01-12T13:27:53Z</time>
      </trkpt>
      <trkpt lat="49.87195" lon="2.15227">
        <ele>91.9</ele>
        <time>2022-01-12T13:27:54Z</time>
      </trkpt>
      <trkpt lat="49.87194" lon="2.15226">
        <ele>91.9</ele>
        <time>2022-01-12T13:27:55Z</time>
      </trkpt>
      <trkpt lat="49.87192" lon="2.15224">
        <ele>91.9</ele>
        <time>2022-01-12T13:27:57Z</time>
      </trkpt>
      <trkpt lat="49.87191" lon="2.15221">
        <ele>91.9</ele>
        <time>2022-01-12T13:27:58Z</time>
      </trkpt>
      <trkpt lat="49.87191" lon="2.1522">
        <ele>91.9</ele>
        <time>2022-01-12T13:27:59Z</time>
      </trkpt>
      <trkpt lat="49.8719" lon="2.15219">
        <ele>91.9</ele>
        <time>2022-01-12T13:28:00Z</time>
      </trkpt>
      <trkpt lat="49.8719" lon="2.15217">
        <ele>92</ele>
        <time>2022-01-12T13:28:01Z</time>
      </trkpt>
      <trkpt lat="49.8719" lon="2.15215">
        <ele>92</ele>
        <time>2022-01-12T13:28:03Z</time>
      </trkpt>
      <trkpt lat="49.87189" lon="2.15212">
        <ele>92</ele>
        <time>2022-01-12T13:28:04Z</time>
      </trkpt>
      <trkpt lat="49.87188" lon="2.15211">
        <ele>92</ele>
        <time>2022-01-12T13:28:05Z</time>
      </trkpt>
      <trkpt lat="49.87188" lon="2.15208">
        <ele>92</ele>
        <time>2022-01-12T13:28:06Z</time>
      </trkpt>
      <trkpt lat="49.87187" lon="2.15206">
        <ele>92</ele>
        <time>2022-01-12T13:28:07Z</time>
      </trkpt>
      <trkpt lat="49.87187" lon="2.15205">
        <ele>92</ele>
        <time>2022-01-12T13:28:08Z</time>
      </trkpt>
      <trkpt lat="49.87186" lon="2.15204">
        <ele>92</ele>
        <time>2022-01-12T13:28:09Z</time>
      </trkpt>
      <trkpt lat="49.87186" lon="2.15202">
        <ele>92</ele>
        <time>2022-01-12T13:28:10Z</time>
      </trkpt>
      <trkpt lat="49.87185" lon="2.15201">
        <ele>92</ele>
        <time>2022-01-12T13:28:12Z</time>
      </trkpt>
      <trkpt lat="49.87184" lon="2.15199">
        <ele>92</ele>
        <time>2022-01-12T13:28:13Z</time>
      </trkpt>
      <trkpt lat="49.87184" lon="2.15198">
        <ele>92.1</ele>
        <time>2022-01-12T13:28:14Z</time>
      </trkpt>
      <trkpt lat="49.87183" lon="2.15197">
        <ele>92.1</ele>
        <time>2022-01-12T13:28:15Z</time>
      </trkpt>
      <trkpt lat="49.87183" lon="2.15195">
        <ele>92.1</ele>
        <time>2022-01-12T13:28:16Z</time>
      </trkpt>
      <trkpt lat="49.87182" lon="2.15194">
        <ele>92.1</ele>
        <time>2022-01-12T13:28:17Z</time>
      </trkpt>
      <trkpt lat="49.87182" lon="2.15192">
        <ele>92.1</ele>
        <time>2022-01-12T13:28:18Z</time>
      </trkpt>
      <trkpt lat="49.87182" lon="2.15191">
        <ele>92.1</ele>
        <time>2022-01-12T13:28:19Z</time>
      </trkpt>
      <trkpt lat="49.87181" lon="2.15189">
        <ele>92.1</ele>
        <time>2022-01-12T13:28:21Z</time>
      </trkpt>
      <trkpt lat="49.87181" lon="2.15187">
        <ele>92.1</ele>
        <time>2022-01-12T13:28:22Z</time>
      </trkpt>
      <trkpt lat="49.8718" lon="2.15186">
        <ele>92.1</ele>
        <time>2022-01-12T13:28:23Z</time>
      </trkpt>
      <trkpt lat="49.8718" lon="2.15184">
        <ele>92.1</ele>
        <time>2022-01-12T13:28:24Z</time>
      </trkpt>
      <trkpt lat="49.8718" lon="2.15183">
        <ele>92.1</ele>
        <time>2022-01-12T13:28:25Z</time>
      </trkpt>
      <trkpt lat="49.8718" lon="2.15181">
        <ele>92.2</ele>
        <time>2022-01-12T13:28:26Z</time>
      </trkpt>
      <trkpt lat="49.87179" lon="2.15179">
        <ele>92.2</ele>
        <time>2022-01-12T13:28:27Z</time>
      </trkpt>
      <trkpt lat="49.87179" lon="2.15178">
        <ele>92.2</ele>
        <time>2022-01-12T13:28:28Z</time>
      </trkpt>
      <trkpt lat="49.87179" lon="2.15176">
        <ele>92.2</ele>
        <time>2022-01-12T13:28:30Z</time>
      </trkpt>
      <trkpt lat="49.87178" lon="2.15174">
        <ele>92.2</ele>
        <time>2022-01-12T13:28:31Z</time>
      </trkpt>
      <trkpt lat="49.87178" lon="2.15172">
        <ele>92.2</ele>
        <time>2022-01-12T13:28:32Z</time>
      </trkpt>
      <trkpt lat="49.87178" lon="2.15171">
        <ele>92.2</ele>
        <time>2022-01-12T13:28:33Z</time>
      </trkpt>
      <trkpt lat="49.87177" lon="2.15169">
        <ele>92.3</ele>
        <time>2022-01-12T13:28:34Z</time>
      </trkpt>
      <trkpt lat="49.87177" lon="2.15167">
        <ele>92.3</ele>
        <time>2022-01-12T13:28:35Z</time>
      </trkpt>
      <trkpt lat="49.87175" lon="2.15164">
        <ele>92.3</ele>
        <time>2022-01-12T13:28:36Z</time>
      </trkpt>
      <trkpt lat="49.87175" lon="2.15163">
        <ele>92.3</ele>
        <time>2022-01-12T13:28:37Z</time>
      </trkpt>
      <trkpt lat="49.87175" lon="2.15162">
        <ele>92.3</ele>
        <time>2022-01-12T13:28:38Z</time>
      </trkpt>
      <trkpt lat="49.87174" lon="2.1516">
        <ele>92.4</ele>
        <time>2022-01-12T13:28:40Z</time>
      </trkpt>
      <trkpt lat="49.87173" lon="2.15158">
        <ele>92.4</ele>
        <time>2022-01-12T13:28:41Z</time>
      </trkpt>
      <trkpt lat="49.87173" lon="2.15157">
        <ele>92.4</ele>
        <time>2022-01-12T13:28:42Z</time>
      </trkpt>
      <trkpt lat="49.87172" lon="2.15156">
        <ele>92.4</ele>
        <time>2022-01-12T13:28:43Z</time>
      </trkpt>
      <trkpt lat="49.87171" lon="2.15153">
        <ele>92.4</ele>
        <time>2022-01-12T13:28:45Z</time>
      </trkpt>
      <trkpt lat="49.8717" lon="2.1515">
        <ele>92.5</ele>
        <time>2022-01-12T13:28:46Z</time>
      </trkpt>
      <trkpt lat="49.8717" lon="2.15149">
        <ele>92.5</ele>
        <time>2022-01-12T13:28:47Z</time>
      </trkpt>
      <trkpt lat="49.8717" lon="2.15148">
        <ele>92.5</ele>
        <time>2022-01-12T13:28:48Z</time>
      </trkpt>
      <trkpt lat="49.87169" lon="2.15146">
        <ele>92.5</ele>
        <time>2022-01-12T13:28:50Z</time>
      </trkpt>
      <trkpt lat="49.87169" lon="2.15144">
        <ele>92.5</ele>
        <time>2022-01-12T13:28:51Z</time>
      </trkpt>
      <trkpt lat="49.87168" lon="2.15143">
        <ele>92.5</ele>
        <time>2022-01-12T13:28:52Z</time>
      </trkpt>
      <trkpt lat="49.87167" lon="2.15141">
        <ele>92.5</ele>
        <time>2022-01-12T13:28:53Z</time>
      </trkpt>
      <trkpt lat="49.87167" lon="2.1514">
        <ele>92.5</ele>
        <time>2022-01-12T13:28:54Z</time>
      </trkpt>
      <trkpt lat="49.87166" lon="2.15138">
        <ele>92.6</ele>
        <time>2022-01-12T13:28:55Z</time>
      </trkpt>
      <trkpt lat="49.87165" lon="2.15137">
        <ele>92.6</ele>
        <time>2022-01-12T13:28:56Z</time>
      </trkpt>
      <trkpt lat="49.87165" lon="2.15135">
        <ele>92.6</ele>
        <time>2022-01-12T13:28:58Z</time>
      </trkpt>
      <trkpt lat="49.87165" lon="2.15133">
        <ele>92.6</ele>
        <time>2022-01-12T13:28:59Z</time>
      </trkpt>
      <trkpt lat="49.87164" lon="2.15131">
        <ele>92.6</ele>
        <time>2022-01-12T13:29:00Z</time>
      </trkpt>
      <trkpt lat="49.87164" lon="2.1513">
        <ele>92.6</ele>
        <time>2022-01-12T13:29:01Z</time>
      </trkpt>
      <trkpt lat="49.87164" lon="2.15128">
        <ele>92.6</ele>
        <time>2022-01-12T13:29:02Z</time>
      </trkpt>
      <trkpt lat="49.87163" lon="2.15124">
        <ele>92.7</ele>
        <time>2022-01-12T13:29:03Z</time>
      </trkpt>
      <trkpt lat="49.87163" lon="2.15123">
        <ele>92.7</ele>
        <time>2022-01-12T13:29:05Z</time>
      </trkpt>
      <trkpt lat="49.87163" lon="2.15122">
        <ele>92.7</ele>
        <time>2022-01-12T13:29:06Z</time>
      </trkpt>
      <trkpt lat="49.87162" lon="2.15118">
        <ele>92.7</ele>
        <time>2022-01-12T13:29:07Z</time>
      </trkpt>
      <trkpt lat="49.87162" lon="2.15117">
        <ele>92.7</ele>
        <time>2022-01-12T13:29:08Z</time>
      </trkpt>
      <trkpt lat="49.87161" lon="2.15116">
        <ele>92.8</ele>
        <time>2022-01-12T13:29:09Z</time>
      </trkpt>
      <trkpt lat="49.87161" lon="2.15113">
        <ele>92.8</ele>
        <time>2022-01-12T13:29:10Z</time>
      </trkpt>
      <trkpt lat="49.8716" lon="2.15112">
        <ele>92.8</ele>
        <time>2022-01-12T13:29:12Z</time>
      </trkpt>
      <trkpt lat="49.8716" lon="2.15111">
        <ele>92.8</ele>
        <time>2022-01-12T13:29:13Z</time>
      </trkpt>
      <trkpt lat="49.8716" lon="2.15109">
        <ele>92.8</ele>
        <time>2022-01-12T13:29:14Z</time>
      </trkpt>
      <trkpt lat="49.87159" lon="2.15107">
        <ele>92.9</ele>
        <time>2022-01-12T13:29:15Z</time>
      </trkpt>
      <trkpt lat="49.87159" lon="2.15106">
        <ele>92.9</ele>
        <time>2022-01-12T13:29:16Z</time>
      </trkpt>
      <trkpt lat="49.87158" lon="2.15104">
        <ele>92.9</ele>
        <time>2022-01-12T13:29:17Z</time>
      </trkpt>
      <trkpt lat="49.87158" lon="2.15103">
        <ele>92.9</ele>
        <time>2022-01-12T13:29:19Z</time>
      </trkpt>
      <trkpt lat="49.87157" lon="2.15101">
        <ele>92.9</ele>
        <time>2022-01-12T13:29:20Z</time>
      </trkpt>
      <trkpt lat="49.87157" lon="2.151">
        <ele>93</ele>
        <time>2022-01-12T13:29:21Z</time>
      </trkpt>
      <trkpt lat="49.87156" lon="2.15099">
        <ele>93</ele>
        <time>2022-01-12T13:29:23Z</time>
      </trkpt>
      <trkpt lat="49.87155" lon="2.15098">
        <ele>93</ele>
        <time>2022-01-12T13:29:24Z</time>
      </trkpt>
      <trkpt lat="49.87155" lon="2.15097">
        <ele>93</ele>
        <time>2022-01-12T13:29:25Z</time>
      </trkpt>
      <trkpt lat="49.87154" lon="2.15096">
        <ele>93</ele>
        <time>2022-01-12T13:29:26Z</time>
      </trkpt>
      <trkpt lat="49.87153" lon="2.15094">
        <ele>93.1</ele>
        <time>2022-01-12T13:29:28Z</time>
      </trkpt>
      <trkpt lat="49.87153" lon="2.15093">
        <ele>93.1</ele>
        <time>2022-01-12T13:29:29Z</time>
      </trkpt>
      <trkpt lat="49.87153" lon="2.15091">
        <ele>93.1</ele>
        <time>2022-01-12T13:29:31Z</time>
      </trkpt>
      <trkpt lat="49.87153" lon="2.1509">
        <ele>93.1</ele>
        <time>2022-01-12T13:29:32Z</time>
      </trkpt>
      <trkpt lat="49.87154" lon="2.1509">
        <ele>93.1</ele>
        <time>2022-01-12T13:29:33Z</time>
      </trkpt>
      <trkpt lat="49.87155" lon="2.1509">
        <ele>93.1</ele>
        <time>2022-01-12T13:29:34Z</time>
      </trkpt>
      <trkpt lat="49.87156" lon="2.15092">
        <ele>93.1</ele>
        <time>2022-01-12T13:29:36Z</time>
      </trkpt>
      <trkpt lat="49.87156" lon="2.15093">
        <ele>93.2</ele>
        <time>2022-01-12T13:29:37Z</time>
      </trkpt>
      <trkpt lat="49.87157" lon="2.15094">
        <ele>93.2</ele>
        <time>2022-01-12T13:29:39Z</time>
      </trkpt>
      <trkpt lat="49.87157" lon="2.15095">
        <ele>93.2</ele>
        <time>2022-01-12T13:29:41Z</time>
      </trkpt>
      <trkpt lat="49.87157" lon="2.15096">
        <ele>93.2</ele>
        <time>2022-01-12T13:29:43Z</time>
      </trkpt>
      <trkpt lat="49.87157" lon="2.15096">
        <ele>93.2</ele>
        <time>2022-01-12T13:29:44Z</time>
      </trkpt>
      <trkpt lat="49.87157" lon="2.15095">
        <ele>93.2</ele>
        <time>2022-01-12T13:29:46Z</time>
      </trkpt>
      <trkpt lat="49.87157" lon="2.15095">
        <ele>93.2</ele>
        <time>2022-01-12T13:29:47Z</time>
      </trkpt>
      <trkpt lat="49.87156" lon="2.15094">
        <ele>93.2</ele>
        <time>2022-01-12T13:29:48Z</time>
      </trkpt>
      <trkpt lat="49.87156" lon="2.15092">
        <ele>93.2</ele>
        <time>2022-01-12T13:29:50Z</time>
      </trkpt>
      <trkpt lat="49.87155" lon="2.15091">
        <ele>93.2</ele>
        <time>2022-01-12T13:29:51Z</time>
      </trkpt>
      <trkpt lat="49.87155" lon="2.15089">
        <ele>93.3</ele>
        <time>2022-01-12T13:29:52Z</time>
      </trkpt>
      <trkpt lat="49.87155" lon="2.15086">
        <ele>93.3</ele>
        <time>2022-01-12T13:29:53Z</time>
      </trkpt>
      <trkpt lat="49.87154" lon="2.15085">
        <ele>93.3</ele>
        <time>2022-01-12T13:29:55Z</time>
      </trkpt>
      <trkpt lat="49.87154" lon="2.15084">
        <ele>93.3</ele>
        <time>2022-01-12T13:29:56Z</time>
      </trkpt>
      <trkpt lat="49.87154" lon="2.15082">
        <ele>93.3</ele>
        <time>2022-01-12T13:29:58Z</time>
      </trkpt>
      <trkpt lat="49.87154" lon="2.1508">
        <ele>93.4</ele>
        <time>2022-01-12T13:29:59Z</time>
      </trkpt>
      <trkpt lat="49.87154" lon="2.15079">
        <ele>93.4</ele>
        <time>2022-01-12T13:30:00Z</time>
      </trkpt>
      <trkpt lat="49.87154" lon="2.15076">
        <ele>93.4</ele>
        <time>2022-01-12T13:30:02Z</time>
      </trkpt>
      <trkpt lat="49.87155" lon="2.15074">
        <ele>93.4</ele>
        <time>2022-01-12T13:30:03Z</time>
      </trkpt>
      <trkpt lat="49.87155" lon="2.15073">
        <ele>93.5</ele>
        <time>2022-01-12T13:30:05Z</time>
      </trkpt>
      <trkpt lat="49.87155" lon="2.15071">
        <ele>93.5</ele>
        <time>2022-01-12T13:30:06Z</time>
      </trkpt>
      <trkpt lat="49.87156" lon="2.1507">
        <ele>93.5</ele>
        <time>2022-01-12T13:30:08Z</time>
      </trkpt>
      <trkpt lat="49.87156" lon="2.15069">
        <ele>93.5</ele>
        <time>2022-01-12T13:30:09Z</time>
      </trkpt>
      <trkpt lat="49.87157" lon="2.15068">
        <ele>93.5</ele>
        <time>2022-01-12T13:30:10Z</time>
      </trkpt>
      <trkpt lat="49.87158" lon="2.15066">
        <ele>93.6</ele>
        <time>2022-01-12T13:30:11Z</time>
      </trkpt>
      <trkpt lat="49.87158" lon="2.15065">
        <ele>93.6</ele>
        <time>2022-01-12T13:30:12Z</time>
      </trkpt>
      <trkpt lat="49.87158" lon="2.15063">
        <ele>93.6</ele>
        <time>2022-01-12T13:30:14Z</time>
      </trkpt>
      <trkpt lat="49.87159" lon="2.15061">
        <ele>93.7</ele>
        <time>2022-01-12T13:30:15Z</time>
      </trkpt>
      <trkpt lat="49.87159" lon="2.15059">
        <ele>93.7</ele>
        <time>2022-01-12T13:30:16Z</time>
      </trkpt>
      <trkpt lat="49.87159" lon="2.15058">
        <ele>93.8</ele>
        <time>2022-01-12T13:30:17Z</time>
      </trkpt>
      <trkpt lat="49.8716" lon="2.15056">
        <ele>93.8</ele>
        <time>2022-01-12T13:30:18Z</time>
      </trkpt>
      <trkpt lat="49.8716" lon="2.15053">
        <ele>93.9</ele>
        <time>2022-01-12T13:30:20Z</time>
      </trkpt>
      <trkpt lat="49.87161" lon="2.15052">
        <ele>93.9</ele>
        <time>2022-01-12T13:30:21Z</time>
      </trkpt>
      <trkpt lat="49.87161" lon="2.15051">
        <ele>94</ele>
        <time>2022-01-12T13:30:22Z</time>
      </trkpt>
      <trkpt lat="49.87162" lon="2.15049">
        <ele>94.1</ele>
        <time>2022-01-12T13:30:23Z</time>
      </trkpt>
      <trkpt lat="49.87162" lon="2.15047">
        <ele>94.1</ele>
        <time>2022-01-12T13:30:24Z</time>
      </trkpt>
      <trkpt lat="49.87163" lon="2.15045">
        <ele>94.3</ele>
        <time>2022-01-12T13:30:26Z</time>
      </trkpt>
      <trkpt lat="49.87164" lon="2.15043">
        <ele>94.3</ele>
        <time>2022-01-12T13:30:27Z</time>
      </trkpt>
      <trkpt lat="49.87165" lon="2.15042">
        <ele>94.4</ele>
        <time>2022-01-12T13:30:28Z</time>
      </trkpt>
      <trkpt lat="49.87165" lon="2.15041">
        <ele>94.5</ele>
        <time>2022-01-12T13:30:30Z</time>
      </trkpt>
      <trkpt lat="49.87166" lon="2.15039">
        <ele>94.6</ele>
        <time>2022-01-12T13:30:31Z</time>
      </trkpt>
      <trkpt lat="49.87167" lon="2.15038">
        <ele>94.6</ele>
        <time>2022-01-12T13:30:32Z</time>
      </trkpt>
      <trkpt lat="49.87167" lon="2.15037">
        <ele>94.7</ele>
        <time>2022-01-12T13:30:33Z</time>
      </trkpt>
      <trkpt lat="49.87168" lon="2.15036">
        <ele>94.8</ele>
        <time>2022-01-12T13:30:34Z</time>
      </trkpt>
      <trkpt lat="49.87169" lon="2.15034">
        <ele>94.9</ele>
        <time>2022-01-12T13:30:36Z</time>
      </trkpt>
      <trkpt lat="49.8717" lon="2.15033">
        <ele>95</ele>
        <time>2022-01-12T13:30:37Z</time>
      </trkpt>
      <trkpt lat="49.87171" lon="2.15031">
        <ele>95.2</ele>
        <time>2022-01-12T13:30:39Z</time>
      </trkpt>
      <trkpt lat="49.87172" lon="2.15029">
        <ele>95.3</ele>
        <time>2022-01-12T13:30:40Z</time>
      </trkpt>
      <trkpt lat="49.87173" lon="2.15028">
        <ele>95.4</ele>
        <time>2022-01-12T13:30:42Z</time>
      </trkpt>
      <trkpt lat="49.87173" lon="2.15026">
        <ele>95.5</ele>
        <time>2022-01-12T13:30:43Z</time>
      </trkpt>
      <trkpt lat="49.87174" lon="2.15025">
        <ele>95.6</ele>
        <time>2022-01-12T13:30:44Z</time>
      </trkpt>
      <trkpt lat="49.87175" lon="2.15024">
        <ele>95.7</ele>
        <time>2022-01-12T13:30:45Z</time>
      </trkpt>
      <trkpt lat="49.87175" lon="2.15023">
        <ele>95.7</ele>
        <time>2022-01-12T13:30:47Z</time>
      </trkpt>
      <trkpt lat="49.87176" lon="2.15022">
        <ele>95.8</ele>
        <time>2022-01-12T13:30:48Z</time>
      </trkpt>
      <trkpt lat="49.87176" lon="2.15021">
        <ele>95.9</ele>
        <time>2022-01-12T13:30:49Z</time>
      </trkpt>
      <trkpt lat="49.87177" lon="2.1502">
        <ele>96</ele>
        <time>2022-01-12T13:30:50Z</time>
      </trkpt>
      <trkpt lat="49.87178" lon="2.15018">
        <ele>96.1</ele>
        <time>2022-01-12T13:30:52Z</time>
      </trkpt>
      <trkpt lat="49.87178" lon="2.15017">
        <ele>96.2</ele>
        <time>2022-01-12T13:30:53Z</time>
      </trkpt>
      <trkpt lat="49.87179" lon="2.15017">
        <ele>96.2</ele>
        <time>2022-01-12T13:30:55Z</time>
      </trkpt>
      <trkpt lat="49.87179" lon="2.15016">
        <ele>96.3</ele>
        <time>2022-01-12T13:30:56Z</time>
      </trkpt>
      <trkpt lat="49.8718" lon="2.15015">
        <ele>96.4</ele>
        <time>2022-01-12T13:30:57Z</time>
      </trkpt>
      <trkpt lat="49.8718" lon="2.15014">
        <ele>96.5</ele>
        <time>2022-01-12T13:30:58Z</time>
      </trkpt>
      <trkpt lat="49.87181" lon="2.15014">
        <ele>96.5</ele>
        <time>2022-01-12T13:31:00Z</time>
      </trkpt>
      <trkpt lat="49.87182" lon="2.15012">
        <ele>96.7</ele>
        <time>2022-01-12T13:31:01Z</time>
      </trkpt>
      <trkpt lat="49.87183" lon="2.1501">
        <ele>96.9</ele>
        <time>2022-01-12T13:31:02Z</time>
      </trkpt>
      <trkpt lat="49.87184" lon="2.15009">
        <ele>97</ele>
        <time>2022-01-12T13:31:04Z</time>
      </trkpt>
      <trkpt lat="49.87185" lon="2.15008">
        <ele>97</ele>
        <time>2022-01-12T13:31:05Z</time>
      </trkpt>
      <trkpt lat="49.87185" lon="2.15007">
        <ele>97.2</ele>
        <time>2022-01-12T13:31:06Z</time>
      </trkpt>
      <trkpt lat="49.87186" lon="2.15005">
        <ele>97.3</ele>
        <time>2022-01-12T13:31:07Z</time>
      </trkpt>
      <trkpt lat="49.87187" lon="2.15004">
        <ele>97.4</ele>
        <time>2022-01-12T13:31:08Z</time>
      </trkpt>
      <trkpt lat="49.87188" lon="2.15002">
        <ele>97.6</ele>
        <time>2022-01-12T13:31:10Z</time>
      </trkpt>
      <trkpt lat="49.87188" lon="2.15001">
        <ele>97.7</ele>
        <time>2022-01-12T13:31:11Z</time>
      </trkpt>
      <trkpt lat="49.87189" lon="2.14999">
        <ele>97.8</ele>
        <time>2022-01-12T13:31:12Z</time>
      </trkpt>
      <trkpt lat="49.8719" lon="2.14998">
        <ele>97.9</ele>
        <time>2022-01-12T13:31:14Z</time>
      </trkpt>
      <trkpt lat="49.8719" lon="2.14997">
        <ele>98</ele>
        <time>2022-01-12T13:31:15Z</time>
      </trkpt>
      <trkpt lat="49.87191" lon="2.14995">
        <ele>98.1</ele>
        <time>2022-01-12T13:31:16Z</time>
      </trkpt>
      <trkpt lat="49.87191" lon="2.14994">
        <ele>98.2</ele>
        <time>2022-01-12T13:31:17Z</time>
      </trkpt>
      <trkpt lat="49.87192" lon="2.14993">
        <ele>98.4</ele>
        <time>2022-01-12T13:31:19Z</time>
      </trkpt>
      <trkpt lat="49.87193" lon="2.14991">
        <ele>98.5</ele>
        <time>2022-01-12T13:31:20Z</time>
      </trkpt>
      <trkpt lat="49.87194" lon="2.1499">
        <ele>98.6</ele>
        <time>2022-01-12T13:31:21Z</time>
      </trkpt>
      <trkpt lat="49.87195" lon="2.14988">
        <ele>98.7</ele>
        <time>2022-01-12T13:31:23Z</time>
      </trkpt>
      <trkpt lat="49.87196" lon="2.14987">
        <ele>98.8</ele>
        <time>2022-01-12T13:31:25Z</time>
      </trkpt>
      <trkpt lat="49.87196" lon="2.14986">
        <ele>98.9</ele>
        <time>2022-01-12T13:31:26Z</time>
      </trkpt>
      <trkpt lat="49.87197" lon="2.14985">
        <ele>99</ele>
        <time>2022-01-12T13:31:27Z</time>
      </trkpt>
      <trkpt lat="49.87197" lon="2.14984">
        <ele>99.1</ele>
        <time>2022-01-12T13:31:28Z</time>
      </trkpt>
      <trkpt lat="49.87198" lon="2.14983">
        <ele>99.2</ele>
        <time>2022-01-12T13:31:30Z</time>
      </trkpt>
      <trkpt lat="49.87198" lon="2.14982">
        <ele>99.2</ele>
        <time>2022-01-12T13:31:31Z</time>
      </trkpt>
      <trkpt lat="49.87199" lon="2.14981">
        <ele>99.3</ele>
        <time>2022-01-12T13:31:33Z</time>
      </trkpt>
      <trkpt lat="49.872" lon="2.1498">
        <ele>99.4</ele>
        <time>2022-01-12T13:31:34Z</time>
      </trkpt>
      <trkpt lat="49.87201" lon="2.1498">
        <ele>99.5</ele>
        <time>2022-01-12T13:31:35Z</time>
      </trkpt>
      <trkpt lat="49.87201" lon="2.14979">
        <ele>99.6</ele>
        <time>2022-01-12T13:31:36Z</time>
      </trkpt>
      <trkpt lat="49.87202" lon="2.14978">
        <ele>99.6</ele>
        <time>2022-01-12T13:31:38Z</time>
      </trkpt>
      <trkpt lat="49.87203" lon="2.14977">
        <ele>99.7</ele>
        <time>2022-01-12T13:31:39Z</time>
      </trkpt>
      <trkpt lat="49.87203" lon="2.14976">
        <ele>99.8</ele>
        <time>2022-01-12T13:31:40Z</time>
      </trkpt>
      <trkpt lat="49.87204" lon="2.14975">
        <ele>99.9</ele>
        <time>2022-01-12T13:31:41Z</time>
      </trkpt>
      <trkpt lat="49.87205" lon="2.14974">
        <ele>100</ele>
        <time>2022-01-12T13:31:43Z</time>
      </trkpt>
      <trkpt lat="49.87206" lon="2.14972">
        <ele>100.1</ele>
        <time>2022-01-12T13:31:44Z</time>
      </trkpt>
      <trkpt lat="49.87207" lon="2.1497">
        <ele>100.2</ele>
        <time>2022-01-12T13:31:45Z</time>
      </trkpt>
      <trkpt lat="49.87208" lon="2.14969">
        <ele>100.3</ele>
        <time>2022-01-12T13:31:47Z</time>
      </trkpt>
      <trkpt lat="49.87209" lon="2.14968">
        <ele>100.4</ele>
        <time>2022-01-12T13:31:48Z</time>
      </trkpt>
      <trkpt lat="49.8721" lon="2.14966">
        <ele>100.5</ele>
        <time>2022-01-12T13:31:49Z</time>
      </trkpt>
      <trkpt lat="49.8721" lon="2.14965">
        <ele>100.5</ele>
        <time>2022-01-12T13:31:50Z</time>
      </trkpt>
      <trkpt lat="49.87212" lon="2.14962">
        <ele>100.7</ele>
        <time>2022-01-12T13:31:51Z</time>
      </trkpt>
      <trkpt lat="49.87212" lon="2.14961">
        <ele>100.7</ele>
        <time>2022-01-12T13:31:53Z</time>
      </trkpt>
      <trkpt lat="49.87213" lon="2.1496">
        <ele>100.8</ele>
        <time>2022-01-12T13:31:54Z</time>
      </trkpt>
      <trkpt lat="49.87215" lon="2.14958">
        <ele>100.9</ele>
        <time>2022-01-12T13:31:55Z</time>
      </trkpt>
      <trkpt lat="49.87215" lon="2.14957">
        <ele>101</ele>
        <time>2022-01-12T13:31:57Z</time>
      </trkpt>
      <trkpt lat="49.87216" lon="2.14956">
        <ele>101.1</ele>
        <time>2022-01-12T13:31:58Z</time>
      </trkpt>
      <trkpt lat="49.87217" lon="2.14955">
        <ele>101.1</ele>
        <time>2022-01-12T13:31:59Z</time>
      </trkpt>
      <trkpt lat="49.87217" lon="2.14954">
        <ele>101.2</ele>
        <time>2022-01-12T13:32:00Z</time>
      </trkpt>
      <trkpt lat="49.87219" lon="2.14952">
        <ele>101.3</ele>
        <time>2022-01-12T13:32:02Z</time>
      </trkpt>
      <trkpt lat="49.87219" lon="2.14951">
        <ele>101.4</ele>
        <time>2022-01-12T13:32:03Z</time>
      </trkpt>
      <trkpt lat="49.8722" lon="2.14949">
        <ele>101.5</ele>
        <time>2022-01-12T13:32:05Z</time>
      </trkpt>
      <trkpt lat="49.87221" lon="2.14947">
        <ele>101.6</ele>
        <time>2022-01-12T13:32:07Z</time>
      </trkpt>
      <trkpt lat="49.87222" lon="2.14946">
        <ele>101.6</ele>
        <time>2022-01-12T13:32:08Z</time>
      </trkpt>
      <trkpt lat="49.87222" lon="2.14945">
        <ele>101.7</ele>
        <time>2022-01-12T13:32:09Z</time>
      </trkpt>
      <trkpt lat="49.87223" lon="2.14944">
        <ele>101.8</ele>
        <time>2022-01-12T13:32:10Z</time>
      </trkpt>
      <trkpt lat="49.87223" lon="2.14943">
        <ele>101.8</ele>
        <time>2022-01-12T13:32:11Z</time>
      </trkpt>
      <trkpt lat="49.87223" lon="2.14943">
        <ele>101.9</ele>
        <time>2022-01-12T13:32:13Z</time>
      </trkpt>
      <trkpt lat="49.87224" lon="2.14941">
        <ele>101.9</ele>
        <time>2022-01-12T13:32:14Z</time>
      </trkpt>
      <trkpt lat="49.87225" lon="2.14939">
        <ele>102.1</ele>
        <time>2022-01-12T13:32:15Z</time>
      </trkpt>
      <trkpt lat="49.87226" lon="2.14938">
        <ele>102.2</ele>
        <time>2022-01-12T13:32:16Z</time>
      </trkpt>
      <trkpt lat="49.87226" lon="2.14936">
        <ele>102.2</ele>
        <time>2022-01-12T13:32:18Z</time>
      </trkpt>
      <trkpt lat="49.87227" lon="2.14935">
        <ele>102.3</ele>
        <time>2022-01-12T13:32:19Z</time>
      </trkpt>
      <trkpt lat="49.87228" lon="2.14934">
        <ele>102.4</ele>
        <time>2022-01-12T13:32:21Z</time>
      </trkpt>
      <trkpt lat="49.87228" lon="2.14933">
        <ele>102.4</ele>
        <time>2022-01-12T13:32:22Z</time>
      </trkpt>
      <trkpt lat="49.8723" lon="2.1493">
        <ele>102.6</ele>
        <time>2022-01-12T13:32:23Z</time>
      </trkpt>
      <trkpt lat="49.8723" lon="2.14929">
        <ele>102.6</ele>
        <time>2022-01-12T13:32:24Z</time>
      </trkpt>
      <trkpt lat="49.87231" lon="2.14927">
        <ele>102.7</ele>
        <time>2022-01-12T13:32:26Z</time>
      </trkpt>
      <trkpt lat="49.87232" lon="2.14926">
        <ele>102.8</ele>
        <time>2022-01-12T13:32:27Z</time>
      </trkpt>
      <trkpt lat="49.87232" lon="2.14925">
        <ele>102.8</ele>
        <time>2022-01-12T13:32:28Z</time>
      </trkpt>
      <trkpt lat="49.87233" lon="2.14924">
        <ele>102.9</ele>
        <time>2022-01-12T13:32:29Z</time>
      </trkpt>
      <trkpt lat="49.87234" lon="2.14921">
        <ele>103</ele>
        <time>2022-01-12T13:32:31Z</time>
      </trkpt>
      <trkpt lat="49.87235" lon="2.14919">
        <ele>103.1</ele>
        <time>2022-01-12T13:32:32Z</time>
      </trkpt>
      <trkpt lat="49.87236" lon="2.14917">
        <ele>103.2</ele>
        <time>2022-01-12T13:32:33Z</time>
      </trkpt>
      <trkpt lat="49.87236" lon="2.14916">
        <ele>103.2</ele>
        <time>2022-01-12T13:32:34Z</time>
      </trkpt>
      <trkpt lat="49.87237" lon="2.14915">
        <ele>103.3</ele>
        <time>2022-01-12T13:32:35Z</time>
      </trkpt>
      <trkpt lat="49.87238" lon="2.14913">
        <ele>103.3</ele>
        <time>2022-01-12T13:32:37Z</time>
      </trkpt>
      <trkpt lat="49.87239" lon="2.14911">
        <ele>103.4</ele>
        <time>2022-01-12T13:32:38Z</time>
      </trkpt>
      <trkpt lat="49.8724" lon="2.14909">
        <ele>103.5</ele>
        <time>2022-01-12T13:32:39Z</time>
      </trkpt>
      <trkpt lat="49.87241" lon="2.14908">
        <ele>103.5</ele>
        <time>2022-01-12T13:32:40Z</time>
      </trkpt>
      <trkpt lat="49.87241" lon="2.14907">
        <ele>103.6</ele>
        <time>2022-01-12T13:32:41Z</time>
      </trkpt>
      <trkpt lat="49.87242" lon="2.14905">
        <ele>103.6</ele>
        <time>2022-01-12T13:32:43Z</time>
      </trkpt>
      <trkpt lat="49.87243" lon="2.14903">
        <ele>103.7</ele>
        <time>2022-01-12T13:32:44Z</time>
      </trkpt>
      <trkpt lat="49.87244" lon="2.14901">
        <ele>103.8</ele>
        <time>2022-01-12T13:32:45Z</time>
      </trkpt>
      <trkpt lat="49.87245" lon="2.149">
        <ele>103.8</ele>
        <time>2022-01-12T13:32:46Z</time>
      </trkpt>
      <trkpt lat="49.87245" lon="2.14899">
        <ele>103.9</ele>
        <time>2022-01-12T13:32:47Z</time>
      </trkpt>
      <trkpt lat="49.87246" lon="2.14897">
        <ele>103.9</ele>
        <time>2022-01-12T13:32:49Z</time>
      </trkpt>
      <trkpt lat="49.87247" lon="2.14895">
        <ele>104</ele>
        <time>2022-01-12T13:32:50Z</time>
      </trkpt>
      <trkpt lat="49.87248" lon="2.14893">
        <ele>104.1</ele>
        <time>2022-01-12T13:32:51Z</time>
      </trkpt>
      <trkpt lat="49.87249" lon="2.14891">
        <ele>104.1</ele>
        <time>2022-01-12T13:32:52Z</time>
      </trkpt>
      <trkpt lat="49.8725" lon="2.1489">
        <ele>104.2</ele>
        <time>2022-01-12T13:32:54Z</time>
      </trkpt>
      <trkpt lat="49.87251" lon="2.14888">
        <ele>104.3</ele>
        <time>2022-01-12T13:32:55Z</time>
      </trkpt>
      <trkpt lat="49.87251" lon="2.14887">
        <ele>104.3</ele>
        <time>2022-01-12T13:32:56Z</time>
      </trkpt>
      <trkpt lat="49.87252" lon="2.14885">
        <ele>104.4</ele>
        <time>2022-01-12T13:32:57Z</time>
      </trkpt>
      <trkpt lat="49.87253" lon="2.14884">
        <ele>104.4</ele>
        <time>2022-01-12T13:32:58Z</time>
      </trkpt>
      <trkpt lat="49.87254" lon="2.14882">
        <ele>104.5</ele>
        <time>2022-01-12T13:33:00Z</time>
      </trkpt>
      <trkpt lat="49.87255" lon="2.14881">
        <ele>104.5</ele>
        <time>2022-01-12T13:33:01Z</time>
      </trkpt>
      <trkpt lat="49.87255" lon="2.14879">
        <ele>104.6</ele>
        <time>2022-01-12T13:33:02Z</time>
      </trkpt>
      <trkpt lat="49.87256" lon="2.14878">
        <ele>104.6</ele>
        <time>2022-01-12T13:33:03Z</time>
      </trkpt>
      <trkpt lat="49.87257" lon="2.14877">
        <ele>104.7</ele>
        <time>2022-01-12T13:33:04Z</time>
      </trkpt>
      <trkpt lat="49.87257" lon="2.14875">
        <ele>104.7</ele>
        <time>2022-01-12T13:33:05Z</time>
      </trkpt>
      <trkpt lat="49.87258" lon="2.14874">
        <ele>104.8</ele>
        <time>2022-01-12T13:33:07Z</time>
      </trkpt>
      <trkpt lat="49.87258" lon="2.14873">
        <ele>104.8</ele>
        <time>2022-01-12T13:33:08Z</time>
      </trkpt>
      <trkpt lat="49.87259" lon="2.14872">
        <ele>104.8</ele>
        <time>2022-01-12T13:33:09Z</time>
      </trkpt>
      <trkpt lat="49.87259" lon="2.1487">
        <ele>104.9</ele>
        <time>2022-01-12T13:33:10Z</time>
      </trkpt>
      <trkpt lat="49.8726" lon="2.14869">
        <ele>104.9</ele>
        <time>2022-01-12T13:33:12Z</time>
      </trkpt>
      <trkpt lat="49.8726" lon="2.14867">
        <ele>105</ele>
        <time>2022-01-12T13:33:13Z</time>
      </trkpt>
      <trkpt lat="49.87261" lon="2.14866">
        <ele>105</ele>
        <time>2022-01-12T13:33:14Z</time>
      </trkpt>
      <trkpt lat="49.87261" lon="2.14865">
        <ele>105</ele>
        <time>2022-01-12T13:33:15Z</time>
      </trkpt>
      <trkpt lat="49.87262" lon="2.14864">
        <ele>105.1</ele>
        <time>2022-01-12T13:33:16Z</time>
      </trkpt>
      <trkpt lat="49.87262" lon="2.14862">
        <ele>105.1</ele>
        <time>2022-01-12T13:33:17Z</time>
      </trkpt>
      <trkpt lat="49.87263" lon="2.14861">
        <ele>105.2</ele>
        <time>2022-01-12T13:33:19Z</time>
      </trkpt>
      <trkpt lat="49.87264" lon="2.14859">
        <ele>105.2</ele>
        <time>2022-01-12T13:33:20Z</time>
      </trkpt>
      <trkpt lat="49.87264" lon="2.14858">
        <ele>105.3</ele>
        <time>2022-01-12T13:33:21Z</time>
      </trkpt>
      <trkpt lat="49.87265" lon="2.14857">
        <ele>105.3</ele>
        <time>2022-01-12T13:33:22Z</time>
      </trkpt>
      <trkpt lat="49.87265" lon="2.14855">
        <ele>105.3</ele>
        <time>2022-01-12T13:33:23Z</time>
      </trkpt>
      <trkpt lat="49.87266" lon="2.14854">
        <ele>105.4</ele>
        <time>2022-01-12T13:33:24Z</time>
      </trkpt>
      <trkpt lat="49.87266" lon="2.14852">
        <ele>105.4</ele>
        <time>2022-01-12T13:33:26Z</time>
      </trkpt>
      <trkpt lat="49.87267" lon="2.14851">
        <ele>105.5</ele>
        <time>2022-01-12T13:33:27Z</time>
      </trkpt>
      <trkpt lat="49.87267" lon="2.14849">
        <ele>105.5</ele>
        <time>2022-01-12T13:33:28Z</time>
      </trkpt>
      <trkpt lat="49.87268" lon="2.14848">
        <ele>105.5</ele>
        <time>2022-01-12T13:33:29Z</time>
      </trkpt>
      <trkpt lat="49.87269" lon="2.14847">
        <ele>105.6</ele>
        <time>2022-01-12T13:33:30Z</time>
      </trkpt>
      <trkpt lat="49.87269" lon="2.14846">
        <ele>105.6</ele>
        <time>2022-01-12T13:33:31Z</time>
      </trkpt>
      <trkpt lat="49.8727" lon="2.14846">
        <ele>105.6</ele>
        <time>2022-01-12T13:33:33Z</time>
      </trkpt>
      <trkpt lat="49.8727" lon="2.14845">
        <ele>105.6</ele>
        <time>2022-01-12T13:33:34Z</time>
      </trkpt>
      <trkpt lat="49.8727" lon="2.14845">
        <ele>105.7</ele>
        <time>2022-01-12T13:33:35Z</time>
      </trkpt>
      <trkpt lat="49.87271" lon="2.14844">
        <ele>105.7</ele>
        <time>2022-01-12T13:33:36Z</time>
      </trkpt>
      <trkpt lat="49.87272" lon="2.14842">
        <ele>105.7</ele>
        <time>2022-01-12T13:33:37Z</time>
      </trkpt>
      <trkpt lat="49.87273" lon="2.14841">
        <ele>105.8</ele>
        <time>2022-01-12T13:33:38Z</time>
      </trkpt>
      <trkpt lat="49.87274" lon="2.14839">
        <ele>105.8</ele>
        <time>2022-01-12T13:33:40Z</time>
      </trkpt>
      <trkpt lat="49.87275" lon="2.14838">
        <ele>105.9</ele>
        <time>2022-01-12T13:33:41Z</time>
      </trkpt>
      <trkpt lat="49.87276" lon="2.14837">
        <ele>106</ele>
        <time>2022-01-12T13:33:42Z</time>
      </trkpt>
      <trkpt lat="49.87277" lon="2.14835">
        <ele>106</ele>
        <time>2022-01-12T13:33:43Z</time>
      </trkpt>
      <trkpt lat="49.87278" lon="2.14834">
        <ele>106.1</ele>
        <time>2022-01-12T13:33:44Z</time>
      </trkpt>
      <trkpt lat="49.87279" lon="2.14832">
        <ele>106.1</ele>
        <time>2022-01-12T13:33:46Z</time>
      </trkpt>
      <trkpt lat="49.8728" lon="2.14831">
        <ele>106.2</ele>
        <time>2022-01-12T13:33:47Z</time>
      </trkpt>
      <trkpt lat="49.87282" lon="2.14829">
        <ele>106.2</ele>
        <time>2022-01-12T13:33:48Z</time>
      </trkpt>
      <trkpt lat="49.87283" lon="2.14828">
        <ele>106.3</ele>
        <time>2022-01-12T13:33:49Z</time>
      </trkpt>
      <trkpt lat="49.87284" lon="2.14828">
        <ele>106.3</ele>
        <time>2022-01-12T13:33:50Z</time>
      </trkpt>
      <trkpt lat="49.87285" lon="2.14827">
        <ele>106.3</ele>
        <time>2022-01-12T13:33:51Z</time>
      </trkpt>
      <trkpt lat="49.87286" lon="2.14826">
        <ele>106.4</ele>
        <time>2022-01-12T13:33:52Z</time>
      </trkpt>
      <trkpt lat="49.87287" lon="2.14826">
        <ele>106.4</ele>
        <time>2022-01-12T13:33:53Z</time>
      </trkpt>
      <trkpt lat="49.87288" lon="2.14825">
        <ele>106.4</ele>
        <time>2022-01-12T13:33:55Z</time>
      </trkpt>
      <trkpt lat="49.87289" lon="2.14825">
        <ele>106.5</ele>
        <time>2022-01-12T13:33:56Z</time>
      </trkpt>
      <trkpt lat="49.87289" lon="2.14825">
        <ele>106.5</ele>
        <time>2022-01-12T13:33:57Z</time>
      </trkpt>
      <trkpt lat="49.8729" lon="2.14825">
        <ele>106.5</ele>
        <time>2022-01-12T13:33:58Z</time>
      </trkpt>
      <trkpt lat="49.87291" lon="2.14825">
        <ele>106.5</ele>
        <time>2022-01-12T13:33:59Z</time>
      </trkpt>
      <trkpt lat="49.87292" lon="2.14824">
        <ele>106.5</ele>
        <time>2022-01-12T13:34:00Z</time>
      </trkpt>
      <trkpt lat="49.87293" lon="2.14823">
        <ele>106.6</ele>
        <time>2022-01-12T13:34:01Z</time>
      </trkpt>
      <trkpt lat="49.87294" lon="2.14822">
        <ele>106.6</ele>
        <time>2022-01-12T13:34:03Z</time>
      </trkpt>
      <trkpt lat="49.87295" lon="2.14821">
        <ele>106.6</ele>
        <time>2022-01-12T13:34:04Z</time>
      </trkpt>
      <trkpt lat="49.87297" lon="2.1482">
        <ele>106.7</ele>
        <time>2022-01-12T13:34:05Z</time>
      </trkpt>
      <trkpt lat="49.87298" lon="2.14819">
        <ele>106.7</ele>
        <time>2022-01-12T13:34:06Z</time>
      </trkpt>
      <trkpt lat="49.87299" lon="2.14818">
        <ele>106.7</ele>
        <time>2022-01-12T13:34:07Z</time>
      </trkpt>
      <trkpt lat="49.873" lon="2.14817">
        <ele>106.8</ele>
        <time>2022-01-12T13:34:08Z</time>
      </trkpt>
      <trkpt lat="49.87301" lon="2.14816">
        <ele>106.8</ele>
        <time>2022-01-12T13:34:09Z</time>
      </trkpt>
      <trkpt lat="49.87302" lon="2.14815">
        <ele>106.8</ele>
        <time>2022-01-12T13:34:11Z</time>
      </trkpt>
      <trkpt lat="49.87303" lon="2.14813">
        <ele>106.9</ele>
        <time>2022-01-12T13:34:12Z</time>
      </trkpt>
      <trkpt lat="49.87305" lon="2.14811">
        <ele>106.9</ele>
        <time>2022-01-12T13:34:13Z</time>
      </trkpt>
      <trkpt lat="49.87306" lon="2.14809">
        <ele>107</ele>
        <time>2022-01-12T13:34:15Z</time>
      </trkpt>
      <trkpt lat="49.87307" lon="2.14807">
        <ele>107</ele>
        <time>2022-01-12T13:34:16Z</time>
      </trkpt>
      <trkpt lat="49.87309" lon="2.14805">
        <ele>107</ele>
        <time>2022-01-12T13:34:17Z</time>
      </trkpt>
      <trkpt lat="49.8731" lon="2.14804">
        <ele>107.1</ele>
        <time>2022-01-12T13:34:18Z</time>
      </trkpt>
      <trkpt lat="49.87311" lon="2.14802">
        <ele>107.1</ele>
        <time>2022-01-12T13:34:19Z</time>
      </trkpt>
      <trkpt lat="49.87312" lon="2.14801">
        <ele>107.1</ele>
        <time>2022-01-12T13:34:20Z</time>
      </trkpt>
      <trkpt lat="49.87313" lon="2.14799">
        <ele>107.2</ele>
        <time>2022-01-12T13:34:21Z</time>
      </trkpt>
      <trkpt lat="49.87314" lon="2.14798">
        <ele>107.2</ele>
        <time>2022-01-12T13:34:22Z</time>
      </trkpt>
      <trkpt lat="49.87315" lon="2.14797">
        <ele>107.3</ele>
        <time>2022-01-12T13:34:24Z</time>
      </trkpt>
      <trkpt lat="49.87316" lon="2.14796">
        <ele>107.3</ele>
        <time>2022-01-12T13:34:25Z</time>
      </trkpt>
      <trkpt lat="49.87318" lon="2.14795">
        <ele>107.3</ele>
        <time>2022-01-12T13:34:26Z</time>
      </trkpt>
      <trkpt lat="49.87318" lon="2.14794">
        <ele>107.4</ele>
        <time>2022-01-12T13:34:27Z</time>
      </trkpt>
      <trkpt lat="49.87319" lon="2.14793">
        <ele>107.4</ele>
        <time>2022-01-12T13:34:28Z</time>
      </trkpt>
      <trkpt lat="49.8732" lon="2.14792">
        <ele>107.4</ele>
        <time>2022-01-12T13:34:29Z</time>
      </trkpt>
      <trkpt lat="49.87321" lon="2.14792">
        <ele>107.5</ele>
        <time>2022-01-12T13:34:30Z</time>
      </trkpt>
      <trkpt lat="49.87323" lon="2.14791">
        <ele>107.5</ele>
        <time>2022-01-12T13:34:32Z</time>
      </trkpt>
      <trkpt lat="49.87324" lon="2.1479">
        <ele>107.6</ele>
        <time>2022-01-12T13:34:33Z</time>
      </trkpt>
      <trkpt lat="49.87325" lon="2.14789">
        <ele>107.6</ele>
        <time>2022-01-12T13:34:34Z</time>
      </trkpt>
      <trkpt lat="49.87327" lon="2.14788">
        <ele>107.7</ele>
        <time>2022-01-12T13:34:35Z</time>
      </trkpt>
      <trkpt lat="49.87328" lon="2.14787">
        <ele>107.8</ele>
        <time>2022-01-12T13:34:36Z</time>
      </trkpt>
      <trkpt lat="49.87329" lon="2.14786">
        <ele>107.8</ele>
        <time>2022-01-12T13:34:37Z</time>
      </trkpt>
      <trkpt lat="49.87331" lon="2.14785">
        <ele>107.9</ele>
        <time>2022-01-12T13:34:38Z</time>
      </trkpt>
      <trkpt lat="49.87332" lon="2.14784">
        <ele>107.9</ele>
        <time>2022-01-12T13:34:40Z</time>
      </trkpt>
      <trkpt lat="49.87333" lon="2.14783">
        <ele>108</ele>
        <time>2022-01-12T13:34:41Z</time>
      </trkpt>
      <trkpt lat="49.87335" lon="2.14781">
        <ele>108</ele>
        <time>2022-01-12T13:34:42Z</time>
      </trkpt>
      <trkpt lat="49.87335" lon="2.1478">
        <ele>108.1</ele>
        <time>2022-01-12T13:34:43Z</time>
      </trkpt>
      <trkpt lat="49.87336" lon="2.14779">
        <ele>108.1</ele>
        <time>2022-01-12T13:34:44Z</time>
      </trkpt>
      <trkpt lat="49.87337" lon="2.14777">
        <ele>108.1</ele>
        <time>2022-01-12T13:34:46Z</time>
      </trkpt>
      <trkpt lat="49.87338" lon="2.14776">
        <ele>108.2</ele>
        <time>2022-01-12T13:34:47Z</time>
      </trkpt>
      <trkpt lat="49.87339" lon="2.14774">
        <ele>108.2</ele>
        <time>2022-01-12T13:34:48Z</time>
      </trkpt>
      <trkpt lat="49.8734" lon="2.14773">
        <ele>108.3</ele>
        <time>2022-01-12T13:34:49Z</time>
      </trkpt>
      <trkpt lat="49.87342" lon="2.1477">
        <ele>108.3</ele>
        <time>2022-01-12T13:34:51Z</time>
      </trkpt>
      <trkpt lat="49.87342" lon="2.14769">
        <ele>108.3</ele>
        <time>2022-01-12T13:34:52Z</time>
      </trkpt>
      <trkpt lat="49.87343" lon="2.14768">
        <ele>108.4</ele>
        <time>2022-01-12T13:34:53Z</time>
      </trkpt>
      <trkpt lat="49.87344" lon="2.14767">
        <ele>108.4</ele>
        <time>2022-01-12T13:34:54Z</time>
      </trkpt>
      <trkpt lat="49.87345" lon="2.14766">
        <ele>108.4</ele>
        <time>2022-01-12T13:34:55Z</time>
      </trkpt>
      <trkpt lat="49.87345" lon="2.14764">
        <ele>108.5</ele>
        <time>2022-01-12T13:34:57Z</time>
      </trkpt>
      <trkpt lat="49.87346" lon="2.14763">
        <ele>108.5</ele>
        <time>2022-01-12T13:34:58Z</time>
      </trkpt>
      <trkpt lat="49.87347" lon="2.14762">
        <ele>108.5</ele>
        <time>2022-01-12T13:34:59Z</time>
      </trkpt>
      <trkpt lat="49.87348" lon="2.1476">
        <ele>108.6</ele>
        <time>2022-01-12T13:35:00Z</time>
      </trkpt>
      <trkpt lat="49.87349" lon="2.14758">
        <ele>108.7</ele>
        <time>2022-01-12T13:35:01Z</time>
      </trkpt>
      <trkpt lat="49.87349" lon="2.14756">
        <ele>108.7</ele>
        <time>2022-01-12T13:35:02Z</time>
      </trkpt>
      <trkpt lat="49.87349" lon="2.14755">
        <ele>108.7</ele>
        <time>2022-01-12T13:35:03Z</time>
      </trkpt>
      <trkpt lat="49.8735" lon="2.14752">
        <ele>108.8</ele>
        <time>2022-01-12T13:35:05Z</time>
      </trkpt>
      <trkpt lat="49.8735" lon="2.14751">
        <ele>108.8</ele>
        <time>2022-01-12T13:35:06Z</time>
      </trkpt>
      <trkpt lat="49.8735" lon="2.14749">
        <ele>108.9</ele>
        <time>2022-01-12T13:35:07Z</time>
      </trkpt>
      <trkpt lat="49.8735" lon="2.14746">
        <ele>108.9</ele>
        <time>2022-01-12T13:35:08Z</time>
      </trkpt>
      <trkpt lat="49.8735" lon="2.14745">
        <ele>109</ele>
        <time>2022-01-12T13:35:09Z</time>
      </trkpt>
      <trkpt lat="49.87349" lon="2.14744">
        <ele>109</ele>
        <time>2022-01-12T13:35:10Z</time>
      </trkpt>
      <trkpt lat="49.8735" lon="2.1474">
        <ele>109.1</ele>
        <time>2022-01-12T13:35:12Z</time>
      </trkpt>
      <trkpt lat="49.8735" lon="2.14738">
        <ele>109.1</ele>
        <time>2022-01-12T13:35:13Z</time>
      </trkpt>
      <trkpt lat="49.8735" lon="2.14736">
        <ele>109.2</ele>
        <time>2022-01-12T13:35:14Z</time>
      </trkpt>
      <trkpt lat="49.8735" lon="2.14735">
        <ele>109.2</ele>
        <time>2022-01-12T13:35:15Z</time>
      </trkpt>
      <trkpt lat="49.8735" lon="2.14733">
        <ele>109.3</ele>
        <time>2022-01-12T13:35:17Z</time>
      </trkpt>
      <trkpt lat="49.87351" lon="2.14731">
        <ele>109.3</ele>
        <time>2022-01-12T13:35:18Z</time>
      </trkpt>
      <trkpt lat="49.87351" lon="2.1473">
        <ele>109.3</ele>
        <time>2022-01-12T13:35:19Z</time>
      </trkpt>
      <trkpt lat="49.87351" lon="2.14728">
        <ele>109.4</ele>
        <time>2022-01-12T13:35:20Z</time>
      </trkpt>
      <trkpt lat="49.87351" lon="2.14727">
        <ele>109.4</ele>
        <time>2022-01-12T13:35:21Z</time>
      </trkpt>
      <trkpt lat="49.87352" lon="2.14725">
        <ele>109.5</ele>
        <time>2022-01-12T13:35:22Z</time>
      </trkpt>
      <trkpt lat="49.87352" lon="2.14724">
        <ele>109.5</ele>
        <time>2022-01-12T13:35:23Z</time>
      </trkpt>
      <trkpt lat="49.87352" lon="2.14723">
        <ele>109.5</ele>
        <time>2022-01-12T13:35:25Z</time>
      </trkpt>
      <trkpt lat="49.87353" lon="2.14721">
        <ele>109.6</ele>
        <time>2022-01-12T13:35:26Z</time>
      </trkpt>
      <trkpt lat="49.87353" lon="2.1472">
        <ele>109.6</ele>
        <time>2022-01-12T13:35:27Z</time>
      </trkpt>
      <trkpt lat="49.87354" lon="2.14718">
        <ele>109.7</ele>
        <time>2022-01-12T13:35:28Z</time>
      </trkpt>
      <trkpt lat="49.87354" lon="2.14717">
        <ele>109.7</ele>
        <time>2022-01-12T13:35:29Z</time>
      </trkpt>
      <trkpt lat="49.87354" lon="2.14716">
        <ele>109.7</ele>
        <time>2022-01-12T13:35:30Z</time>
      </trkpt>
      <trkpt lat="49.87355" lon="2.14715">
        <ele>109.8</ele>
        <time>2022-01-12T13:35:31Z</time>
      </trkpt>
      <trkpt lat="49.87355" lon="2.14714">
        <ele>109.8</ele>
        <time>2022-01-12T13:35:33Z</time>
      </trkpt>
      <trkpt lat="49.87355" lon="2.14712">
        <ele>109.8</ele>
        <time>2022-01-12T13:35:34Z</time>
      </trkpt>
      <trkpt lat="49.87356" lon="2.1471">
        <ele>109.9</ele>
        <time>2022-01-12T13:35:35Z</time>
      </trkpt>
      <trkpt lat="49.87356" lon="2.14708">
        <ele>109.9</ele>
        <time>2022-01-12T13:35:36Z</time>
      </trkpt>
      <trkpt lat="49.87356" lon="2.14706">
        <ele>110</ele>
        <time>2022-01-12T13:35:37Z</time>
      </trkpt>
      <trkpt lat="49.87356" lon="2.14705">
        <ele>110</ele>
        <time>2022-01-12T13:35:38Z</time>
      </trkpt>
      <trkpt lat="49.87357" lon="2.14703">
        <ele>110</ele>
        <time>2022-01-12T13:35:39Z</time>
      </trkpt>
      <trkpt lat="49.87357" lon="2.147">
        <ele>110.1</ele>
        <time>2022-01-12T13:35:40Z</time>
      </trkpt>
      <trkpt lat="49.87357" lon="2.14699">
        <ele>110.1</ele>
        <time>2022-01-12T13:35:42Z</time>
      </trkpt>
      <trkpt lat="49.87357" lon="2.14698">
        <ele>110.2</ele>
        <time>2022-01-12T13:35:43Z</time>
      </trkpt>
      <trkpt lat="49.87357" lon="2.14695">
        <ele>110.3</ele>
        <time>2022-01-12T13:35:44Z</time>
      </trkpt>
      <trkpt lat="49.87357" lon="2.14693">
        <ele>110.3</ele>
        <time>2022-01-12T13:35:45Z</time>
      </trkpt>
      <trkpt lat="49.87358" lon="2.14692">
        <ele>110.3</ele>
        <time>2022-01-12T13:35:46Z</time>
      </trkpt>
      <trkpt lat="49.87358" lon="2.1469">
        <ele>110.4</ele>
        <time>2022-01-12T13:35:47Z</time>
      </trkpt>
      <trkpt lat="49.87358" lon="2.14689">
        <ele>110.4</ele>
        <time>2022-01-12T13:35:49Z</time>
      </trkpt>
      <trkpt lat="49.87358" lon="2.14687">
        <ele>110.4</ele>
        <time>2022-01-12T13:35:50Z</time>
      </trkpt>
      <trkpt lat="49.87358" lon="2.14685">
        <ele>110.5</ele>
        <time>2022-01-12T13:35:51Z</time>
      </trkpt>
      <trkpt lat="49.87359" lon="2.14682">
        <ele>110.5</ele>
        <time>2022-01-12T13:35:52Z</time>
      </trkpt>
      <trkpt lat="49.87359" lon="2.1468">
        <ele>110.6</ele>
        <time>2022-01-12T13:35:53Z</time>
      </trkpt>
      <trkpt lat="49.87359" lon="2.14678">
        <ele>110.6</ele>
        <time>2022-01-12T13:35:54Z</time>
      </trkpt>
      <trkpt lat="49.87359" lon="2.14676">
        <ele>110.7</ele>
        <time>2022-01-12T13:35:55Z</time>
      </trkpt>
      <trkpt lat="49.87359" lon="2.14675">
        <ele>110.7</ele>
        <time>2022-01-12T13:35:57Z</time>
      </trkpt>
      <trkpt lat="49.8736" lon="2.14673">
        <ele>110.8</ele>
        <time>2022-01-12T13:35:58Z</time>
      </trkpt>
      <trkpt lat="49.8736" lon="2.14669">
        <ele>110.9</ele>
        <time>2022-01-12T13:35:59Z</time>
      </trkpt>
      <trkpt lat="49.8736" lon="2.14668">
        <ele>110.9</ele>
        <time>2022-01-12T13:36:00Z</time>
      </trkpt>
      <trkpt lat="49.8736" lon="2.14667">
        <ele>110.9</ele>
        <time>2022-01-12T13:36:01Z</time>
      </trkpt>
      <trkpt lat="49.87361" lon="2.14666">
        <ele>110.9</ele>
        <time>2022-01-12T13:36:03Z</time>
      </trkpt>
      <trkpt lat="49.87361" lon="2.14664">
        <ele>111</ele>
        <time>2022-01-12T13:36:04Z</time>
      </trkpt>
      <trkpt lat="49.87361" lon="2.14662">
        <ele>111</ele>
        <time>2022-01-12T13:36:05Z</time>
      </trkpt>
      <trkpt lat="49.87361" lon="2.1466">
        <ele>111.1</ele>
        <time>2022-01-12T13:36:06Z</time>
      </trkpt>
      <trkpt lat="49.87361" lon="2.14659">
        <ele>111.1</ele>
        <time>2022-01-12T13:36:07Z</time>
      </trkpt>
      <trkpt lat="49.87361" lon="2.14657">
        <ele>111.1</ele>
        <time>2022-01-12T13:36:08Z</time>
      </trkpt>
      <trkpt lat="49.87361" lon="2.14656">
        <ele>111.2</ele>
        <time>2022-01-12T13:36:10Z</time>
      </trkpt>
      <trkpt lat="49.87361" lon="2.14654">
        <ele>111.2</ele>
        <time>2022-01-12T13:36:11Z</time>
      </trkpt>
      <trkpt lat="49.87361" lon="2.14653">
        <ele>111.2</ele>
        <time>2022-01-12T13:36:12Z</time>
      </trkpt>
      <trkpt lat="49.87361" lon="2.14651">
        <ele>111.3</ele>
        <time>2022-01-12T13:36:13Z</time>
      </trkpt>
      <trkpt lat="49.87361" lon="2.14649">
        <ele>111.3</ele>
        <time>2022-01-12T13:36:14Z</time>
      </trkpt>
      <trkpt lat="49.87361" lon="2.14647">
        <ele>111.4</ele>
        <time>2022-01-12T13:36:15Z</time>
      </trkpt>
      <trkpt lat="49.87362" lon="2.14646">
        <ele>111.4</ele>
        <time>2022-01-12T13:36:16Z</time>
      </trkpt>
      <trkpt lat="49.87362" lon="2.14644">
        <ele>111.4</ele>
        <time>2022-01-12T13:36:18Z</time>
      </trkpt>
      <trkpt lat="49.87362" lon="2.14642">
        <ele>111.5</ele>
        <time>2022-01-12T13:36:19Z</time>
      </trkpt>
      <trkpt lat="49.87363" lon="2.14639">
        <ele>111.5</ele>
        <time>2022-01-12T13:36:20Z</time>
      </trkpt>
      <trkpt lat="49.87363" lon="2.14638">
        <ele>111.6</ele>
        <time>2022-01-12T13:36:21Z</time>
      </trkpt>
      <trkpt lat="49.87364" lon="2.14637">
        <ele>111.6</ele>
        <time>2022-01-12T13:36:22Z</time>
      </trkpt>
      <trkpt lat="49.87365" lon="2.14634">
        <ele>111.7</ele>
        <time>2022-01-12T13:36:23Z</time>
      </trkpt>
      <trkpt lat="49.87365" lon="2.14633">
        <ele>111.7</ele>
        <time>2022-01-12T13:36:25Z</time>
      </trkpt>
      <trkpt lat="49.87365" lon="2.14632">
        <ele>111.7</ele>
        <time>2022-01-12T13:36:26Z</time>
      </trkpt>
      <trkpt lat="49.87366" lon="2.1463">
        <ele>111.7</ele>
        <time>2022-01-12T13:36:27Z</time>
      </trkpt>
      <trkpt lat="49.87366" lon="2.14627">
        <ele>111.8</ele>
        <time>2022-01-12T13:36:28Z</time>
      </trkpt>
      <trkpt lat="49.87367" lon="2.14624">
        <ele>111.9</ele>
        <time>2022-01-12T13:36:29Z</time>
      </trkpt>
      <trkpt lat="49.87367" lon="2.14623">
        <ele>111.9</ele>
        <time>2022-01-12T13:36:30Z</time>
      </trkpt>
      <trkpt lat="49.87367" lon="2.14621">
        <ele>111.9</ele>
        <time>2022-01-12T13:36:31Z</time>
      </trkpt>
      <trkpt lat="49.87367" lon="2.14618">
        <ele>112</ele>
        <time>2022-01-12T13:36:32Z</time>
      </trkpt>
      <trkpt lat="49.87367" lon="2.14617">
        <ele>112</ele>
        <time>2022-01-12T13:36:34Z</time>
      </trkpt>
      <trkpt lat="49.87368" lon="2.14616">
        <ele>112</ele>
        <time>2022-01-12T13:36:35Z</time>
      </trkpt>
      <trkpt lat="49.87368" lon="2.14613">
        <ele>112.1</ele>
        <time>2022-01-12T13:36:36Z</time>
      </trkpt>
      <trkpt lat="49.87369" lon="2.14612">
        <ele>112.1</ele>
        <time>2022-01-12T13:36:37Z</time>
      </trkpt>
      <trkpt lat="49.87369" lon="2.14611">
        <ele>112.1</ele>
        <time>2022-01-12T13:36:38Z</time>
      </trkpt>
      <trkpt lat="49.8737" lon="2.14608">
        <ele>112.2</ele>
        <time>2022-01-12T13:36:40Z</time>
      </trkpt>
      <trkpt lat="49.8737" lon="2.14606">
        <ele>112.2</ele>
        <time>2022-01-12T13:36:41Z</time>
      </trkpt>
      <trkpt lat="49.87371" lon="2.14603">
        <ele>112.3</ele>
        <time>2022-01-12T13:36:42Z</time>
      </trkpt>
      <trkpt lat="49.87371" lon="2.14602">
        <ele>112.3</ele>
        <time>2022-01-12T13:36:43Z</time>
      </trkpt>
      <trkpt lat="49.87371" lon="2.146">
        <ele>112.3</ele>
        <time>2022-01-12T13:36:44Z</time>
      </trkpt>
      <trkpt lat="49.87371" lon="2.14597">
        <ele>112.4</ele>
        <time>2022-01-12T13:36:46Z</time>
      </trkpt>
      <trkpt lat="49.87372" lon="2.14596">
        <ele>112.4</ele>
        <time>2022-01-12T13:36:47Z</time>
      </trkpt>
      <trkpt lat="49.87372" lon="2.14595">
        <ele>112.5</ele>
        <time>2022-01-12T13:36:48Z</time>
      </trkpt>
      <trkpt lat="49.87372" lon="2.14591">
        <ele>112.5</ele>
        <time>2022-01-12T13:36:49Z</time>
      </trkpt>
      <trkpt lat="49.87372" lon="2.1459">
        <ele>112.5</ele>
        <time>2022-01-12T13:36:50Z</time>
      </trkpt>
      <trkpt lat="49.87372" lon="2.14589">
        <ele>112.6</ele>
        <time>2022-01-12T13:36:51Z</time>
      </trkpt>
      <trkpt lat="49.87373" lon="2.14585">
        <ele>112.6</ele>
        <time>2022-01-12T13:36:52Z</time>
      </trkpt>
      <trkpt lat="49.87373" lon="2.14584">
        <ele>112.6</ele>
        <time>2022-01-12T13:36:54Z</time>
      </trkpt>
      <trkpt lat="49.87373" lon="2.14583">
        <ele>112.7</ele>
        <time>2022-01-12T13:36:55Z</time>
      </trkpt>
      <trkpt lat="49.87373" lon="2.14582">
        <ele>112.7</ele>
        <time>2022-01-12T13:36:56Z</time>
      </trkpt>
      <trkpt lat="49.87374" lon="2.1458">
        <ele>112.7</ele>
        <time>2022-01-12T13:36:57Z</time>
      </trkpt>
      <trkpt lat="49.87374" lon="2.14578">
        <ele>112.8</ele>
        <time>2022-01-12T13:36:58Z</time>
      </trkpt>
      <trkpt lat="49.87374" lon="2.14577">
        <ele>112.8</ele>
        <time>2022-01-12T13:36:59Z</time>
      </trkpt>
      <trkpt lat="49.87374" lon="2.14576">
        <ele>112.8</ele>
        <time>2022-01-12T13:37:01Z</time>
      </trkpt>
      <trkpt lat="49.87374" lon="2.14574">
        <ele>112.8</ele>
        <time>2022-01-12T13:37:02Z</time>
      </trkpt>
      <trkpt lat="49.87374" lon="2.14573">
        <ele>112.8</ele>
        <time>2022-01-12T13:37:03Z</time>
      </trkpt>
      <trkpt lat="49.87374" lon="2.14571">
        <ele>112.9</ele>
        <time>2022-01-12T13:37:04Z</time>
      </trkpt>
      <trkpt lat="49.87375" lon="2.1457">
        <ele>112.9</ele>
        <time>2022-01-12T13:37:05Z</time>
      </trkpt>
      <trkpt lat="49.87375" lon="2.14568">
        <ele>112.9</ele>
        <time>2022-01-12T13:37:06Z</time>
      </trkpt>
      <trkpt lat="49.87375" lon="2.14567">
        <ele>112.9</ele>
        <time>2022-01-12T13:37:07Z</time>
      </trkpt>
      <trkpt lat="49.87375" lon="2.14565">
        <ele>113</ele>
        <time>2022-01-12T13:37:09Z</time>
      </trkpt>
      <trkpt lat="49.87375" lon="2.14563">
        <ele>113</ele>
        <time>2022-01-12T13:37:10Z</time>
      </trkpt>
      <trkpt lat="49.87375" lon="2.14561">
        <ele>113</ele>
        <time>2022-01-12T13:37:11Z</time>
      </trkpt>
      <trkpt lat="49.87375" lon="2.14559">
        <ele>113</ele>
        <time>2022-01-12T13:37:12Z</time>
      </trkpt>
      <trkpt lat="49.87375" lon="2.14557">
        <ele>113</ele>
        <time>2022-01-12T13:37:13Z</time>
      </trkpt>
      <trkpt lat="49.87376" lon="2.14555">
        <ele>113.1</ele>
        <time>2022-01-12T13:37:14Z</time>
      </trkpt>
      <trkpt lat="49.87376" lon="2.14551">
        <ele>113.1</ele>
        <time>2022-01-12T13:37:15Z</time>
      </trkpt>
      <trkpt lat="49.87377" lon="2.14549">
        <ele>113.1</ele>
        <time>2022-01-12T13:37:17Z</time>
      </trkpt>
      <trkpt lat="49.87377" lon="2.14548">
        <ele>113.1</ele>
        <time>2022-01-12T13:37:18Z</time>
      </trkpt>
      <trkpt lat="49.87377" lon="2.14546">
        <ele>113.1</ele>
        <time>2022-01-12T13:37:19Z</time>
      </trkpt>
      <trkpt lat="49.87377" lon="2.14544">
        <ele>113.2</ele>
        <time>2022-01-12T13:37:20Z</time>
      </trkpt>
      <trkpt lat="49.87378" lon="2.14542">
        <ele>113.2</ele>
        <time>2022-01-12T13:37:21Z</time>
      </trkpt>
      <trkpt lat="49.87378" lon="2.1454">
        <ele>113.2</ele>
        <time>2022-01-12T13:37:22Z</time>
      </trkpt>
      <trkpt lat="49.87379" lon="2.14536">
        <ele>113.2</ele>
        <time>2022-01-12T13:37:23Z</time>
      </trkpt>
      <trkpt lat="49.87379" lon="2.14535">
        <ele>113.3</ele>
        <time>2022-01-12T13:37:25Z</time>
      </trkpt>
      <trkpt lat="49.87379" lon="2.14533">
        <ele>113.3</ele>
        <time>2022-01-12T13:37:26Z</time>
      </trkpt>
      <trkpt lat="49.8738" lon="2.14531">
        <ele>113.3</ele>
        <time>2022-01-12T13:37:27Z</time>
      </trkpt>
      <trkpt lat="49.8738" lon="2.1453">
        <ele>113.3</ele>
        <time>2022-01-12T13:37:28Z</time>
      </trkpt>
      <trkpt lat="49.8738" lon="2.14527">
        <ele>113.4</ele>
        <time>2022-01-12T13:37:30Z</time>
      </trkpt>
      <trkpt lat="49.87381" lon="2.14525">
        <ele>113.4</ele>
        <time>2022-01-12T13:37:31Z</time>
      </trkpt>
      <trkpt lat="49.87381" lon="2.14522">
        <ele>113.4</ele>
        <time>2022-01-12T13:37:32Z</time>
      </trkpt>
      <trkpt lat="49.87381" lon="2.14521">
        <ele>113.4</ele>
        <time>2022-01-12T13:37:33Z</time>
      </trkpt>
      <trkpt lat="49.87381" lon="2.1452">
        <ele>113.5</ele>
        <time>2022-01-12T13:37:34Z</time>
      </trkpt>
      <trkpt lat="49.87381" lon="2.14518">
        <ele>113.5</ele>
        <time>2022-01-12T13:37:36Z</time>
      </trkpt>
      <trkpt lat="49.87382" lon="2.14516">
        <ele>113.5</ele>
        <time>2022-01-12T13:37:37Z</time>
      </trkpt>
      <trkpt lat="49.87382" lon="2.14514">
        <ele>113.6</ele>
        <time>2022-01-12T13:37:38Z</time>
      </trkpt>
      <trkpt lat="49.87382" lon="2.14513">
        <ele>113.6</ele>
        <time>2022-01-12T13:37:39Z</time>
      </trkpt>
      <trkpt lat="49.87382" lon="2.14511">
        <ele>113.6</ele>
        <time>2022-01-12T13:37:40Z</time>
      </trkpt>
      <trkpt lat="49.87383" lon="2.14509">
        <ele>113.6</ele>
        <time>2022-01-12T13:37:41Z</time>
      </trkpt>
      <trkpt lat="49.87383" lon="2.14508">
        <ele>113.7</ele>
        <time>2022-01-12T13:37:42Z</time>
      </trkpt>
      <trkpt lat="49.87383" lon="2.14506">
        <ele>113.7</ele>
        <time>2022-01-12T13:37:43Z</time>
      </trkpt>
      <trkpt lat="49.87383" lon="2.14504">
        <ele>113.7</ele>
        <time>2022-01-12T13:37:45Z</time>
      </trkpt>
      <trkpt lat="49.87383" lon="2.14503">
        <ele>113.7</ele>
        <time>2022-01-12T13:37:46Z</time>
      </trkpt>
      <trkpt lat="49.87383" lon="2.14501">
        <ele>113.8</ele>
        <time>2022-01-12T13:37:47Z</time>
      </trkpt>
      <trkpt lat="49.87384" lon="2.14499">
        <ele>113.8</ele>
        <time>2022-01-12T13:37:48Z</time>
      </trkpt>
      <trkpt lat="49.87384" lon="2.14497">
        <ele>113.8</ele>
        <time>2022-01-12T13:37:49Z</time>
      </trkpt>
      <trkpt lat="49.87384" lon="2.14496">
        <ele>113.8</ele>
        <time>2022-01-12T13:37:50Z</time>
      </trkpt>
      <trkpt lat="49.87385" lon="2.14495">
        <ele>113.9</ele>
        <time>2022-01-12T13:37:51Z</time>
      </trkpt>
      <trkpt lat="49.87385" lon="2.14494">
        <ele>113.9</ele>
        <time>2022-01-12T13:37:53Z</time>
      </trkpt>
      <trkpt lat="49.87386" lon="2.14492">
        <ele>113.9</ele>
        <time>2022-01-12T13:37:54Z</time>
      </trkpt>
      <trkpt lat="49.87386" lon="2.1449">
        <ele>113.9</ele>
        <time>2022-01-12T13:37:55Z</time>
      </trkpt>
      <trkpt lat="49.87387" lon="2.14488">
        <ele>114</ele>
        <time>2022-01-12T13:37:56Z</time>
      </trkpt>
      <trkpt lat="49.87388" lon="2.14486">
        <ele>114</ele>
        <time>2022-01-12T13:37:57Z</time>
      </trkpt>
      <trkpt lat="49.87388" lon="2.14485">
        <ele>114</ele>
        <time>2022-01-12T13:37:58Z</time>
      </trkpt>
      <trkpt lat="49.87388" lon="2.14484">
        <ele>114</ele>
        <time>2022-01-12T13:37:59Z</time>
      </trkpt>
      <trkpt lat="49.87388" lon="2.14482">
        <ele>114</ele>
        <time>2022-01-12T13:38:00Z</time>
      </trkpt>
      <trkpt lat="49.87389" lon="2.14481">
        <ele>114.1</ele>
        <time>2022-01-12T13:38:01Z</time>
      </trkpt>
      <trkpt lat="49.87389" lon="2.14479">
        <ele>114.1</ele>
        <time>2022-01-12T13:38:03Z</time>
      </trkpt>
      <trkpt lat="49.87389" lon="2.14476">
        <ele>114.1</ele>
        <time>2022-01-12T13:38:04Z</time>
      </trkpt>
      <trkpt lat="49.8739" lon="2.14474">
        <ele>114.2</ele>
        <time>2022-01-12T13:38:05Z</time>
      </trkpt>
      <trkpt lat="49.8739" lon="2.14472">
        <ele>114.2</ele>
        <time>2022-01-12T13:38:06Z</time>
      </trkpt>
      <trkpt lat="49.8739" lon="2.1447">
        <ele>114.2</ele>
        <time>2022-01-12T13:38:07Z</time>
      </trkpt>
      <trkpt lat="49.8739" lon="2.14469">
        <ele>114.2</ele>
        <time>2022-01-12T13:38:08Z</time>
      </trkpt>
      <trkpt lat="49.8739" lon="2.14467">
        <ele>114.2</ele>
        <time>2022-01-12T13:38:09Z</time>
      </trkpt>
      <trkpt lat="49.87391" lon="2.14464">
        <ele>114.3</ele>
        <time>2022-01-12T13:38:11Z</time>
      </trkpt>
      <trkpt lat="49.87391" lon="2.14463">
        <ele>114.3</ele>
        <time>2022-01-12T13:38:12Z</time>
      </trkpt>
      <trkpt lat="49.87391" lon="2.14461">
        <ele>114.3</ele>
        <time>2022-01-12T13:38:13Z</time>
      </trkpt>
      <trkpt lat="49.87391" lon="2.1446">
        <ele>114.3</ele>
        <time>2022-01-12T13:38:14Z</time>
      </trkpt>
      <trkpt lat="49.87391" lon="2.14458">
        <ele>114.4</ele>
        <time>2022-01-12T13:38:15Z</time>
      </trkpt>
      <trkpt lat="49.87392" lon="2.14456">
        <ele>114.4</ele>
        <time>2022-01-12T13:38:16Z</time>
      </trkpt>
      <trkpt lat="49.87392" lon="2.14453">
        <ele>114.4</ele>
        <time>2022-01-12T13:38:17Z</time>
      </trkpt>
      <trkpt lat="49.87392" lon="2.14451">
        <ele>114.4</ele>
        <time>2022-01-12T13:38:18Z</time>
      </trkpt>
      <trkpt lat="49.87393" lon="2.1445">
        <ele>114.5</ele>
        <time>2022-01-12T13:38:20Z</time>
      </trkpt>
      <trkpt lat="49.87393" lon="2.14448">
        <ele>114.5</ele>
        <time>2022-01-12T13:38:21Z</time>
      </trkpt>
      <trkpt lat="49.87393" lon="2.14447">
        <ele>114.5</ele>
        <time>2022-01-12T13:38:22Z</time>
      </trkpt>
      <trkpt lat="49.87393" lon="2.14445">
        <ele>114.5</ele>
        <time>2022-01-12T13:38:23Z</time>
      </trkpt>
      <trkpt lat="49.87394" lon="2.14443">
        <ele>114.5</ele>
        <time>2022-01-12T13:38:24Z</time>
      </trkpt>
      <trkpt lat="49.87394" lon="2.14441">
        <ele>114.5</ele>
        <time>2022-01-12T13:38:25Z</time>
      </trkpt>
      <trkpt lat="49.87394" lon="2.14439">
        <ele>114.6</ele>
        <time>2022-01-12T13:38:26Z</time>
      </trkpt>
      <trkpt lat="49.87394" lon="2.14437">
        <ele>114.6</ele>
        <time>2022-01-12T13:38:27Z</time>
      </trkpt>
      <trkpt lat="49.87395" lon="2.14436">
        <ele>114.6</ele>
        <time>2022-01-12T13:38:28Z</time>
      </trkpt>
      <trkpt lat="49.87395" lon="2.14433">
        <ele>114.6</ele>
        <time>2022-01-12T13:38:30Z</time>
      </trkpt>
      <trkpt lat="49.87395" lon="2.14431">
        <ele>114.6</ele>
        <time>2022-01-12T13:38:31Z</time>
      </trkpt>
      <trkpt lat="49.87395" lon="2.14429">
        <ele>114.6</ele>
        <time>2022-01-12T13:38:32Z</time>
      </trkpt>
      <trkpt lat="49.87396" lon="2.14426">
        <ele>114.7</ele>
        <time>2022-01-12T13:38:34Z</time>
      </trkpt>
      <trkpt lat="49.87396" lon="2.14424">
        <ele>114.7</ele>
        <time>2022-01-12T13:38:35Z</time>
      </trkpt>
      <trkpt lat="49.87396" lon="2.14422">
        <ele>114.7</ele>
        <time>2022-01-12T13:38:36Z</time>
      </trkpt>
      <trkpt lat="49.87396" lon="2.14421">
        <ele>114.7</ele>
        <time>2022-01-12T13:38:37Z</time>
      </trkpt>
      <trkpt lat="49.87396" lon="2.14419">
        <ele>114.7</ele>
        <time>2022-01-12T13:38:39Z</time>
      </trkpt>
      <trkpt lat="49.87397" lon="2.14417">
        <ele>114.7</ele>
        <time>2022-01-12T13:38:40Z</time>
      </trkpt>
      <trkpt lat="49.87397" lon="2.14415">
        <ele>114.7</ele>
        <time>2022-01-12T13:38:41Z</time>
      </trkpt>
      <trkpt lat="49.87397" lon="2.14414">
        <ele>114.8</ele>
        <time>2022-01-12T13:38:42Z</time>
      </trkpt>
      <trkpt lat="49.87397" lon="2.14412">
        <ele>114.8</ele>
        <time>2022-01-12T13:38:43Z</time>
      </trkpt>
      <trkpt lat="49.87398" lon="2.1441">
        <ele>114.8</ele>
        <time>2022-01-12T13:38:44Z</time>
      </trkpt>
      <trkpt lat="49.87398" lon="2.14407">
        <ele>114.9</ele>
        <time>2022-01-12T13:38:45Z</time>
      </trkpt>
      <trkpt lat="49.87399" lon="2.14406">
        <ele>114.9</ele>
        <time>2022-01-12T13:38:47Z</time>
      </trkpt>
      <trkpt lat="49.87399" lon="2.14405">
        <ele>114.9</ele>
        <time>2022-01-12T13:38:48Z</time>
      </trkpt>
      <trkpt lat="49.874" lon="2.14402">
        <ele>114.9</ele>
        <time>2022-01-12T13:38:49Z</time>
      </trkpt>
      <trkpt lat="49.874" lon="2.14401">
        <ele>114.9</ele>
        <time>2022-01-12T13:38:50Z</time>
      </trkpt>
      <trkpt lat="49.874" lon="2.14398">
        <ele>115</ele>
        <time>2022-01-12T13:38:51Z</time>
      </trkpt>
      <trkpt lat="49.87401" lon="2.14396">
        <ele>115</ele>
        <time>2022-01-12T13:38:52Z</time>
      </trkpt>
      <trkpt lat="49.87401" lon="2.14395">
        <ele>115</ele>
        <time>2022-01-12T13:38:53Z</time>
      </trkpt>
      <trkpt lat="49.87402" lon="2.14393">
        <ele>115</ele>
        <time>2022-01-12T13:38:54Z</time>
      </trkpt>
      <trkpt lat="49.87402" lon="2.14391">
        <ele>115</ele>
        <time>2022-01-12T13:38:56Z</time>
      </trkpt>
      <trkpt lat="49.87402" lon="2.14388">
        <ele>115.1</ele>
        <time>2022-01-12T13:38:57Z</time>
      </trkpt>
      <trkpt lat="49.87403" lon="2.14386">
        <ele>115.1</ele>
        <time>2022-01-12T13:38:58Z</time>
      </trkpt>
      <trkpt lat="49.87403" lon="2.14384">
        <ele>115.1</ele>
        <time>2022-01-12T13:38:59Z</time>
      </trkpt>
      <trkpt lat="49.87403" lon="2.14382">
        <ele>115.1</ele>
        <time>2022-01-12T13:39:00Z</time>
      </trkpt>
      <trkpt lat="49.87404" lon="2.1438">
        <ele>115.1</ele>
        <time>2022-01-12T13:39:01Z</time>
      </trkpt>
      <trkpt lat="49.87404" lon="2.14378">
        <ele>115.1</ele>
        <time>2022-01-12T13:39:02Z</time>
      </trkpt>
      <trkpt lat="49.87404" lon="2.14377">
        <ele>115.1</ele>
        <time>2022-01-12T13:39:03Z</time>
      </trkpt>
      <trkpt lat="49.87404" lon="2.14375">
        <ele>115.1</ele>
        <time>2022-01-12T13:39:05Z</time>
      </trkpt>
      <trkpt lat="49.87404" lon="2.14374">
        <ele>115.1</ele>
        <time>2022-01-12T13:39:06Z</time>
      </trkpt>
      <trkpt lat="49.87404" lon="2.14372">
        <ele>115.1</ele>
        <time>2022-01-12T13:39:07Z</time>
      </trkpt>
      <trkpt lat="49.87404" lon="2.1437">
        <ele>115.1</ele>
        <time>2022-01-12T13:39:08Z</time>
      </trkpt>
      <trkpt lat="49.87405" lon="2.14368">
        <ele>115.2</ele>
        <time>2022-01-12T13:39:09Z</time>
      </trkpt>
      <trkpt lat="49.87405" lon="2.14367">
        <ele>115.2</ele>
        <time>2022-01-12T13:39:10Z</time>
      </trkpt>
      <trkpt lat="49.87405" lon="2.14365">
        <ele>115.2</ele>
        <time>2022-01-12T13:39:11Z</time>
      </trkpt>
      <trkpt lat="49.87405" lon="2.14363">
        <ele>115.2</ele>
        <time>2022-01-12T13:39:12Z</time>
      </trkpt>
      <trkpt lat="49.87406" lon="2.14361">
        <ele>115.2</ele>
        <time>2022-01-12T13:39:13Z</time>
      </trkpt>
      <trkpt lat="49.87406" lon="2.14358">
        <ele>115.2</ele>
        <time>2022-01-12T13:39:14Z</time>
      </trkpt>
      <trkpt lat="49.87406" lon="2.14357">
        <ele>115.2</ele>
        <time>2022-01-12T13:39:16Z</time>
      </trkpt>
      <trkpt lat="49.87406" lon="2.14355">
        <ele>115.2</ele>
        <time>2022-01-12T13:39:17Z</time>
      </trkpt>
      <trkpt lat="49.87407" lon="2.14353">
        <ele>115.2</ele>
        <time>2022-01-12T13:39:18Z</time>
      </trkpt>
      <trkpt lat="49.87407" lon="2.14351">
        <ele>115.2</ele>
        <time>2022-01-12T13:39:19Z</time>
      </trkpt>
      <trkpt lat="49.87407" lon="2.14348">
        <ele>115.3</ele>
        <time>2022-01-12T13:39:20Z</time>
      </trkpt>
      <trkpt lat="49.87407" lon="2.14346">
        <ele>115.3</ele>
        <time>2022-01-12T13:39:21Z</time>
      </trkpt>
      <trkpt lat="49.87407" lon="2.14345">
        <ele>115.3</ele>
        <time>2022-01-12T13:39:22Z</time>
      </trkpt>
      <trkpt lat="49.87407" lon="2.14342">
        <ele>115.3</ele>
        <time>2022-01-12T13:39:24Z</time>
      </trkpt>
      <trkpt lat="49.87408" lon="2.1434">
        <ele>115.3</ele>
        <time>2022-01-12T13:39:25Z</time>
      </trkpt>
      <trkpt lat="49.87408" lon="2.14338">
        <ele>115.4</ele>
        <time>2022-01-12T13:39:26Z</time>
      </trkpt>
      <trkpt lat="49.87408" lon="2.14336">
        <ele>115.4</ele>
        <time>2022-01-12T13:39:27Z</time>
      </trkpt>
      <trkpt lat="49.87409" lon="2.14334">
        <ele>115.4</ele>
        <time>2022-01-12T13:39:28Z</time>
      </trkpt>
      <trkpt lat="49.87409" lon="2.14332">
        <ele>115.4</ele>
        <time>2022-01-12T13:39:29Z</time>
      </trkpt>
      <trkpt lat="49.8741" lon="2.14329">
        <ele>115.4</ele>
        <time>2022-01-12T13:39:31Z</time>
      </trkpt>
      <trkpt lat="49.8741" lon="2.14326">
        <ele>115.4</ele>
        <time>2022-01-12T13:39:32Z</time>
      </trkpt>
      <trkpt lat="49.8741" lon="2.14325">
        <ele>115.4</ele>
        <time>2022-01-12T13:39:33Z</time>
      </trkpt>
      <trkpt lat="49.8741" lon="2.14322">
        <ele>115.4</ele>
        <time>2022-01-12T13:39:35Z</time>
      </trkpt>
      <trkpt lat="49.87411" lon="2.1432">
        <ele>115.4</ele>
        <time>2022-01-12T13:39:36Z</time>
      </trkpt>
      <trkpt lat="49.87411" lon="2.14317">
        <ele>115.4</ele>
        <time>2022-01-12T13:39:37Z</time>
      </trkpt>
      <trkpt lat="49.87411" lon="2.14315">
        <ele>115.4</ele>
        <time>2022-01-12T13:39:38Z</time>
      </trkpt>
      <trkpt lat="49.87412" lon="2.14313">
        <ele>115.4</ele>
        <time>2022-01-12T13:39:39Z</time>
      </trkpt>
      <trkpt lat="49.87412" lon="2.14311">
        <ele>115.5</ele>
        <time>2022-01-12T13:39:40Z</time>
      </trkpt>
      <trkpt lat="49.87412" lon="2.14309">
        <ele>115.5</ele>
        <time>2022-01-12T13:39:41Z</time>
      </trkpt>
      <trkpt lat="49.87412" lon="2.14308">
        <ele>115.5</ele>
        <time>2022-01-12T13:39:42Z</time>
      </trkpt>
      <trkpt lat="49.87413" lon="2.14306">
        <ele>115.5</ele>
        <time>2022-01-12T13:39:43Z</time>
      </trkpt>
      <trkpt lat="49.87413" lon="2.14303">
        <ele>115.5</ele>
        <time>2022-01-12T13:39:45Z</time>
      </trkpt>
      <trkpt lat="49.87413" lon="2.14301">
        <ele>115.5</ele>
        <time>2022-01-12T13:39:46Z</time>
      </trkpt>
      <trkpt lat="49.87414" lon="2.14299">
        <ele>115.5</ele>
        <time>2022-01-12T13:39:47Z</time>
      </trkpt>
      <trkpt lat="49.87414" lon="2.14297">
        <ele>115.5</ele>
        <time>2022-01-12T13:39:48Z</time>
      </trkpt>
      <trkpt lat="49.87415" lon="2.14293">
        <ele>115.5</ele>
        <time>2022-01-12T13:39:50Z</time>
      </trkpt>
      <trkpt lat="49.87416" lon="2.14291">
        <ele>115.5</ele>
        <time>2022-01-12T13:39:51Z</time>
      </trkpt>
      <trkpt lat="49.87416" lon="2.14289">
        <ele>115.6</ele>
        <time>2022-01-12T13:39:52Z</time>
      </trkpt>
      <trkpt lat="49.87417" lon="2.14286">
        <ele>115.6</ele>
        <time>2022-01-12T13:39:53Z</time>
      </trkpt>
      <trkpt lat="49.87417" lon="2.14285">
        <ele>115.6</ele>
        <time>2022-01-12T13:39:54Z</time>
      </trkpt>
      <trkpt lat="49.87417" lon="2.14284">
        <ele>115.6</ele>
        <time>2022-01-12T13:39:56Z</time>
      </trkpt>
      <trkpt lat="49.87418" lon="2.14282">
        <ele>115.6</ele>
        <time>2022-01-12T13:39:57Z</time>
      </trkpt>
      <trkpt lat="49.87418" lon="2.14281">
        <ele>115.6</ele>
        <time>2022-01-12T13:39:58Z</time>
      </trkpt>
      <trkpt lat="49.87418" lon="2.14279">
        <ele>115.6</ele>
        <time>2022-01-12T13:39:59Z</time>
      </trkpt>
      <trkpt lat="49.87419" lon="2.14278">
        <ele>115.6</ele>
        <time>2022-01-12T13:40:00Z</time>
      </trkpt>
      <trkpt lat="49.87419" lon="2.14276">
        <ele>115.6</ele>
        <time>2022-01-12T13:40:01Z</time>
      </trkpt>
      <trkpt lat="49.87419" lon="2.14275">
        <ele>115.6</ele>
        <time>2022-01-12T13:40:02Z</time>
      </trkpt>
      <trkpt lat="49.8742" lon="2.14272">
        <ele>115.6</ele>
        <time>2022-01-12T13:40:04Z</time>
      </trkpt>
      <trkpt lat="49.87421" lon="2.14271">
        <ele>115.6</ele>
        <time>2022-01-12T13:40:05Z</time>
      </trkpt>
      <trkpt lat="49.87421" lon="2.14269">
        <ele>115.6</ele>
        <time>2022-01-12T13:40:06Z</time>
      </trkpt>
      <trkpt lat="49.87422" lon="2.14267">
        <ele>115.6</ele>
        <time>2022-01-12T13:40:07Z</time>
      </trkpt>
      <trkpt lat="49.87423" lon="2.14266">
        <ele>115.6</ele>
        <time>2022-01-12T13:40:08Z</time>
      </trkpt>
      <trkpt lat="49.87423" lon="2.14264">
        <ele>115.6</ele>
        <time>2022-01-12T13:40:09Z</time>
      </trkpt>
      <trkpt lat="49.87424" lon="2.14262">
        <ele>115.6</ele>
        <time>2022-01-12T13:40:11Z</time>
      </trkpt>
      <trkpt lat="49.87425" lon="2.14261">
        <ele>115.6</ele>
        <time>2022-01-12T13:40:13Z</time>
      </trkpt>
      <trkpt lat="49.87426" lon="2.14259">
        <ele>115.6</ele>
        <time>2022-01-12T13:40:14Z</time>
      </trkpt>
      <trkpt lat="49.87427" lon="2.14258">
        <ele>115.6</ele>
        <time>2022-01-12T13:40:15Z</time>
      </trkpt>
      <trkpt lat="49.87427" lon="2.14256">
        <ele>115.6</ele>
        <time>2022-01-12T13:40:16Z</time>
      </trkpt>
      <trkpt lat="49.87428" lon="2.14254">
        <ele>115.6</ele>
        <time>2022-01-12T13:40:18Z</time>
      </trkpt>
      <trkpt lat="49.87429" lon="2.14253">
        <ele>115.6</ele>
        <time>2022-01-12T13:40:19Z</time>
      </trkpt>
      <trkpt lat="49.87429" lon="2.14252">
        <ele>115.6</ele>
        <time>2022-01-12T13:40:20Z</time>
      </trkpt>
      <trkpt lat="49.8743" lon="2.1425">
        <ele>115.6</ele>
        <time>2022-01-12T13:40:22Z</time>
      </trkpt>
      <trkpt lat="49.87431" lon="2.14249">
        <ele>115.6</ele>
        <time>2022-01-12T13:40:23Z</time>
      </trkpt>
      <trkpt lat="49.87431" lon="2.14248">
        <ele>115.6</ele>
        <time>2022-01-12T13:40:24Z</time>
      </trkpt>
      <trkpt lat="49.87432" lon="2.14246">
        <ele>115.6</ele>
        <time>2022-01-12T13:40:25Z</time>
      </trkpt>
      <trkpt lat="49.87432" lon="2.14245">
        <ele>115.6</ele>
        <time>2022-01-12T13:40:26Z</time>
      </trkpt>
      <trkpt lat="49.87433" lon="2.14243">
        <ele>115.6</ele>
        <time>2022-01-12T13:40:28Z</time>
      </trkpt>
      <trkpt lat="49.87434" lon="2.14242">
        <ele>115.6</ele>
        <time>2022-01-12T13:40:29Z</time>
      </trkpt>
      <trkpt lat="49.87434" lon="2.1424">
        <ele>115.6</ele>
        <time>2022-01-12T13:40:30Z</time>
      </trkpt>
      <trkpt lat="49.87434" lon="2.14239">
        <ele>115.6</ele>
        <time>2022-01-12T13:40:31Z</time>
      </trkpt>
      <trkpt lat="49.87435" lon="2.14238">
        <ele>115.6</ele>
        <time>2022-01-12T13:40:33Z</time>
      </trkpt>
      <trkpt lat="49.87435" lon="2.14236">
        <ele>115.6</ele>
        <time>2022-01-12T13:40:34Z</time>
      </trkpt>
      <trkpt lat="49.87436" lon="2.14234">
        <ele>115.6</ele>
        <time>2022-01-12T13:40:35Z</time>
      </trkpt>
      <trkpt lat="49.87437" lon="2.14233">
        <ele>115.5</ele>
        <time>2022-01-12T13:40:36Z</time>
      </trkpt>
      <trkpt lat="49.87437" lon="2.14232">
        <ele>115.5</ele>
        <time>2022-01-12T13:40:37Z</time>
      </trkpt>
      <trkpt lat="49.87437" lon="2.14232">
        <ele>115.5</ele>
        <time>2022-01-12T13:40:38Z</time>
      </trkpt>
      <trkpt lat="49.87438" lon="2.1423">
        <ele>115.5</ele>
        <time>2022-01-12T13:40:39Z</time>
      </trkpt>
      <trkpt lat="49.87438" lon="2.14229">
        <ele>115.5</ele>
        <time>2022-01-12T13:40:40Z</time>
      </trkpt>
      <trkpt lat="49.87439" lon="2.14227">
        <ele>115.5</ele>
        <time>2022-01-12T13:40:41Z</time>
      </trkpt>
      <trkpt lat="49.87439" lon="2.14226">
        <ele>115.5</ele>
        <time>2022-01-12T13:40:43Z</time>
      </trkpt>
      <trkpt lat="49.8744" lon="2.14225">
        <ele>115.5</ele>
        <time>2022-01-12T13:40:44Z</time>
      </trkpt>
      <trkpt lat="49.8744" lon="2.14224">
        <ele>115.5</ele>
        <time>2022-01-12T13:40:45Z</time>
      </trkpt>
      <trkpt lat="49.87441" lon="2.14222">
        <ele>115.5</ele>
        <time>2022-01-12T13:40:46Z</time>
      </trkpt>
      <trkpt lat="49.87441" lon="2.14221">
        <ele>115.6</ele>
        <time>2022-01-12T13:40:48Z</time>
      </trkpt>
      <trkpt lat="49.87442" lon="2.14219">
        <ele>115.6</ele>
        <time>2022-01-12T13:40:49Z</time>
      </trkpt>
      <trkpt lat="49.87443" lon="2.14218">
        <ele>115.6</ele>
        <time>2022-01-12T13:40:50Z</time>
      </trkpt>
      <trkpt lat="49.87443" lon="2.14217">
        <ele>115.6</ele>
        <time>2022-01-12T13:40:51Z</time>
      </trkpt>
      <trkpt lat="49.87444" lon="2.14216">
        <ele>115.6</ele>
        <time>2022-01-12T13:40:52Z</time>
      </trkpt>
      <trkpt lat="49.87444" lon="2.14215">
        <ele>115.6</ele>
        <time>2022-01-12T13:40:53Z</time>
      </trkpt>
      <trkpt lat="49.87445" lon="2.14214">
        <ele>115.6</ele>
        <time>2022-01-12T13:40:54Z</time>
      </trkpt>
      <trkpt lat="49.87445" lon="2.14213">
        <ele>115.6</ele>
        <time>2022-01-12T13:40:56Z</time>
      </trkpt>
      <trkpt lat="49.87446" lon="2.14211">
        <ele>115.6</ele>
        <time>2022-01-12T13:40:57Z</time>
      </trkpt>
      <trkpt lat="49.87446" lon="2.1421">
        <ele>115.7</ele>
        <time>2022-01-12T13:40:58Z</time>
      </trkpt>
      <trkpt lat="49.87447" lon="2.14208">
        <ele>115.7</ele>
        <time>2022-01-12T13:40:59Z</time>
      </trkpt>
      <trkpt lat="49.87447" lon="2.14207">
        <ele>115.7</ele>
        <time>2022-01-12T13:41:00Z</time>
      </trkpt>
      <trkpt lat="49.87448" lon="2.14205">
        <ele>115.7</ele>
        <time>2022-01-12T13:41:01Z</time>
      </trkpt>
      <trkpt lat="49.87449" lon="2.14204">
        <ele>115.7</ele>
        <time>2022-01-12T13:41:02Z</time>
      </trkpt>
      <trkpt lat="49.8745" lon="2.14202">
        <ele>115.8</ele>
        <time>2022-01-12T13:41:04Z</time>
      </trkpt>
      <trkpt lat="49.87451" lon="2.14199">
        <ele>115.8</ele>
        <time>2022-01-12T13:41:05Z</time>
      </trkpt>
      <trkpt lat="49.87452" lon="2.14198">
        <ele>115.8</ele>
        <time>2022-01-12T13:41:06Z</time>
      </trkpt>
      <trkpt lat="49.87452" lon="2.14197">
        <ele>115.8</ele>
        <time>2022-01-12T13:41:07Z</time>
      </trkpt>
      <trkpt lat="49.87453" lon="2.14195">
        <ele>115.8</ele>
        <time>2022-01-12T13:41:08Z</time>
      </trkpt>
      <trkpt lat="49.87454" lon="2.14193">
        <ele>115.9</ele>
        <time>2022-01-12T13:41:10Z</time>
      </trkpt>
      <trkpt lat="49.87454" lon="2.14192">
        <ele>115.9</ele>
        <time>2022-01-12T13:41:11Z</time>
      </trkpt>
      <trkpt lat="49.87455" lon="2.1419">
        <ele>115.9</ele>
        <time>2022-01-12T13:41:12Z</time>
      </trkpt>
      <trkpt lat="49.87455" lon="2.14189">
        <ele>115.9</ele>
        <time>2022-01-12T13:41:13Z</time>
      </trkpt>
      <trkpt lat="49.87456" lon="2.14186">
        <ele>116</ele>
        <time>2022-01-12T13:41:15Z</time>
      </trkpt>
      <trkpt lat="49.87457" lon="2.14184">
        <ele>116</ele>
        <time>2022-01-12T13:41:16Z</time>
      </trkpt>
      <trkpt lat="49.87457" lon="2.14182">
        <ele>116</ele>
        <time>2022-01-12T13:41:17Z</time>
      </trkpt>
      <trkpt lat="49.87458" lon="2.1418">
        <ele>116</ele>
        <time>2022-01-12T13:41:18Z</time>
      </trkpt>
      <trkpt lat="49.87459" lon="2.14178">
        <ele>116</ele>
        <time>2022-01-12T13:41:19Z</time>
      </trkpt>
      <trkpt lat="49.87459" lon="2.14176">
        <ele>116.1</ele>
        <time>2022-01-12T13:41:21Z</time>
      </trkpt>
      <trkpt lat="49.8746" lon="2.14174">
        <ele>116.1</ele>
        <time>2022-01-12T13:41:22Z</time>
      </trkpt>
      <trkpt lat="49.8746" lon="2.14172">
        <ele>116.1</ele>
        <time>2022-01-12T13:41:23Z</time>
      </trkpt>
      <trkpt lat="49.87461" lon="2.1417">
        <ele>116.1</ele>
        <time>2022-01-12T13:41:24Z</time>
      </trkpt>
      <trkpt lat="49.87462" lon="2.14168">
        <ele>116.2</ele>
        <time>2022-01-12T13:41:25Z</time>
      </trkpt>
      <trkpt lat="49.87462" lon="2.14165">
        <ele>116.2</ele>
        <time>2022-01-12T13:41:26Z</time>
      </trkpt>
      <trkpt lat="49.87463" lon="2.14163">
        <ele>116.2</ele>
        <time>2022-01-12T13:41:27Z</time>
      </trkpt>
      <trkpt lat="49.87463" lon="2.14161">
        <ele>116.2</ele>
        <time>2022-01-12T13:41:29Z</time>
      </trkpt>
      <trkpt lat="49.87464" lon="2.14159">
        <ele>116.3</ele>
        <time>2022-01-12T13:41:30Z</time>
      </trkpt>
      <trkpt lat="49.87465" lon="2.14156">
        <ele>116.3</ele>
        <time>2022-01-12T13:41:31Z</time>
      </trkpt>
      <trkpt lat="49.87465" lon="2.14155">
        <ele>116.3</ele>
        <time>2022-01-12T13:41:32Z</time>
      </trkpt>
      <trkpt lat="49.87466" lon="2.14154">
        <ele>116.3</ele>
        <time>2022-01-12T13:41:33Z</time>
      </trkpt>
      <trkpt lat="49.87467" lon="2.14151">
        <ele>116.4</ele>
        <time>2022-01-12T13:41:35Z</time>
      </trkpt>
      <trkpt lat="49.87468" lon="2.1415">
        <ele>116.4</ele>
        <time>2022-01-12T13:41:36Z</time>
      </trkpt>
      <trkpt lat="49.87468" lon="2.14148">
        <ele>116.4</ele>
        <time>2022-01-12T13:41:37Z</time>
      </trkpt>
      <trkpt lat="49.87469" lon="2.14146">
        <ele>116.4</ele>
        <time>2022-01-12T13:41:38Z</time>
      </trkpt>
      <trkpt lat="49.8747" lon="2.14145">
        <ele>116.4</ele>
        <time>2022-01-12T13:41:39Z</time>
      </trkpt>
      <trkpt lat="49.8747" lon="2.14144">
        <ele>116.4</ele>
        <time>2022-01-12T13:41:40Z</time>
      </trkpt>
      <trkpt lat="49.87471" lon="2.14143">
        <ele>116.4</ele>
        <time>2022-01-12T13:41:42Z</time>
      </trkpt>
      <trkpt lat="49.87472" lon="2.14141">
        <ele>116.5</ele>
        <time>2022-01-12T13:41:43Z</time>
      </trkpt>
      <trkpt lat="49.87473" lon="2.14138">
        <ele>116.5</ele>
        <time>2022-01-12T13:41:44Z</time>
      </trkpt>
      <trkpt lat="49.87473" lon="2.14137">
        <ele>116.5</ele>
        <time>2022-01-12T13:41:45Z</time>
      </trkpt>
      <trkpt lat="49.87474" lon="2.14136">
        <ele>116.5</ele>
        <time>2022-01-12T13:41:46Z</time>
      </trkpt>
      <trkpt lat="49.87475" lon="2.14134">
        <ele>116.5</ele>
        <time>2022-01-12T13:41:47Z</time>
      </trkpt>
      <trkpt lat="49.87475" lon="2.14133">
        <ele>116.5</ele>
        <time>2022-01-12T13:41:48Z</time>
      </trkpt>
      <trkpt lat="49.87476" lon="2.14132">
        <ele>116.5</ele>
        <time>2022-01-12T13:41:49Z</time>
      </trkpt>
      <trkpt lat="49.87477" lon="2.14131">
        <ele>116.5</ele>
        <time>2022-01-12T13:41:51Z</time>
      </trkpt>
      <trkpt lat="49.87478" lon="2.1413">
        <ele>116.5</ele>
        <time>2022-01-12T13:41:52Z</time>
      </trkpt>
      <trkpt lat="49.87478" lon="2.14128">
        <ele>116.5</ele>
        <time>2022-01-12T13:41:53Z</time>
      </trkpt>
      <trkpt lat="49.87479" lon="2.14127">
        <ele>116.5</ele>
        <time>2022-01-12T13:41:54Z</time>
      </trkpt>
      <trkpt lat="49.8748" lon="2.14126">
        <ele>116.5</ele>
        <time>2022-01-12T13:41:55Z</time>
      </trkpt>
      <trkpt lat="49.8748" lon="2.14124">
        <ele>116.6</ele>
        <time>2022-01-12T13:41:56Z</time>
      </trkpt>
      <trkpt lat="49.87481" lon="2.14122">
        <ele>116.6</ele>
        <time>2022-01-12T13:41:57Z</time>
      </trkpt>
      <trkpt lat="49.87481" lon="2.1412">
        <ele>116.6</ele>
        <time>2022-01-12T13:41:58Z</time>
      </trkpt>
      <trkpt lat="49.87482" lon="2.14119">
        <ele>116.6</ele>
        <time>2022-01-12T13:42:00Z</time>
      </trkpt>
      <trkpt lat="49.87482" lon="2.14117">
        <ele>116.6</ele>
        <time>2022-01-12T13:42:01Z</time>
      </trkpt>
      <trkpt lat="49.87483" lon="2.14116">
        <ele>116.6</ele>
        <time>2022-01-12T13:42:02Z</time>
      </trkpt>
      <trkpt lat="49.87483" lon="2.14114">
        <ele>116.6</ele>
        <time>2022-01-12T13:42:03Z</time>
      </trkpt>
      <trkpt lat="49.87484" lon="2.14113">
        <ele>116.6</ele>
        <time>2022-01-12T13:42:04Z</time>
      </trkpt>
      <trkpt lat="49.87484" lon="2.14111">
        <ele>116.7</ele>
        <time>2022-01-12T13:42:05Z</time>
      </trkpt>
      <trkpt lat="49.87484" lon="2.1411">
        <ele>116.7</ele>
        <time>2022-01-12T13:42:06Z</time>
      </trkpt>
      <trkpt lat="49.87485" lon="2.14108">
        <ele>116.7</ele>
        <time>2022-01-12T13:42:08Z</time>
      </trkpt>
      <trkpt lat="49.87486" lon="2.14106">
        <ele>116.7</ele>
        <time>2022-01-12T13:42:09Z</time>
      </trkpt>
      <trkpt lat="49.87486" lon="2.14105">
        <ele>116.7</ele>
        <time>2022-01-12T13:42:10Z</time>
      </trkpt>
      <trkpt lat="49.87488" lon="2.14102">
        <ele>116.7</ele>
        <time>2022-01-12T13:42:11Z</time>
      </trkpt>
      <trkpt lat="49.87488" lon="2.14101">
        <ele>116.7</ele>
        <time>2022-01-12T13:42:12Z</time>
      </trkpt>
      <trkpt lat="49.87488" lon="2.141">
        <ele>116.7</ele>
        <time>2022-01-12T13:42:13Z</time>
      </trkpt>
      <trkpt lat="49.87489" lon="2.14099">
        <ele>116.7</ele>
        <time>2022-01-12T13:42:14Z</time>
      </trkpt>
      <trkpt lat="49.8749" lon="2.14097">
        <ele>116.7</ele>
        <time>2022-01-12T13:42:16Z</time>
      </trkpt>
      <trkpt lat="49.8749" lon="2.14096">
        <ele>116.8</ele>
        <time>2022-01-12T13:42:17Z</time>
      </trkpt>
      <trkpt lat="49.87491" lon="2.14093">
        <ele>116.8</ele>
        <time>2022-01-12T13:42:18Z</time>
      </trkpt>
      <trkpt lat="49.87492" lon="2.14092">
        <ele>116.8</ele>
        <time>2022-01-12T13:42:19Z</time>
      </trkpt>
      <trkpt lat="49.87492" lon="2.1409">
        <ele>116.8</ele>
        <time>2022-01-12T13:42:20Z</time>
      </trkpt>
      <trkpt lat="49.87493" lon="2.14087">
        <ele>116.8</ele>
        <time>2022-01-12T13:42:21Z</time>
      </trkpt>
      <trkpt lat="49.87494" lon="2.14086">
        <ele>116.8</ele>
        <time>2022-01-12T13:42:22Z</time>
      </trkpt>
      <trkpt lat="49.87494" lon="2.14085">
        <ele>116.8</ele>
        <time>2022-01-12T13:42:24Z</time>
      </trkpt>
      <trkpt lat="49.87495" lon="2.14083">
        <ele>116.8</ele>
        <time>2022-01-12T13:42:25Z</time>
      </trkpt>
      <trkpt lat="49.87495" lon="2.14082">
        <ele>116.8</ele>
        <time>2022-01-12T13:42:26Z</time>
      </trkpt>
      <trkpt lat="49.87496" lon="2.14081">
        <ele>116.8</ele>
        <time>2022-01-12T13:42:27Z</time>
      </trkpt>
      <trkpt lat="49.87497" lon="2.14079">
        <ele>116.8</ele>
        <time>2022-01-12T13:42:28Z</time>
      </trkpt>
      <trkpt lat="49.87497" lon="2.14078">
        <ele>116.8</ele>
        <time>2022-01-12T13:42:29Z</time>
      </trkpt>
      <trkpt lat="49.87497" lon="2.14076">
        <ele>116.8</ele>
        <time>2022-01-12T13:42:30Z</time>
      </trkpt>
      <trkpt lat="49.87498" lon="2.14073">
        <ele>116.9</ele>
        <time>2022-01-12T13:42:31Z</time>
      </trkpt>
      <trkpt lat="49.87499" lon="2.14072">
        <ele>116.9</ele>
        <time>2022-01-12T13:42:33Z</time>
      </trkpt>
      <trkpt lat="49.87499" lon="2.14071">
        <ele>116.9</ele>
        <time>2022-01-12T13:42:34Z</time>
      </trkpt>
      <trkpt lat="49.875" lon="2.14068">
        <ele>116.9</ele>
        <time>2022-01-12T13:42:35Z</time>
      </trkpt>
      <trkpt lat="49.87501" lon="2.14067">
        <ele>116.9</ele>
        <time>2022-01-12T13:42:36Z</time>
      </trkpt>
      <trkpt lat="49.87501" lon="2.14065">
        <ele>116.9</ele>
        <time>2022-01-12T13:42:37Z</time>
      </trkpt>
      <trkpt lat="49.87501" lon="2.14064">
        <ele>116.9</ele>
        <time>2022-01-12T13:42:38Z</time>
      </trkpt>
      <trkpt lat="49.87502" lon="2.14062">
        <ele>116.9</ele>
        <time>2022-01-12T13:42:39Z</time>
      </trkpt>
      <trkpt lat="49.87502" lon="2.1406">
        <ele>116.9</ele>
        <time>2022-01-12T13:42:41Z</time>
      </trkpt>
      <trkpt lat="49.87503" lon="2.14059">
        <ele>116.9</ele>
        <time>2022-01-12T13:42:42Z</time>
      </trkpt>
      <trkpt lat="49.87504" lon="2.14058">
        <ele>116.9</ele>
        <time>2022-01-12T13:42:43Z</time>
      </trkpt>
      <trkpt lat="49.87505" lon="2.14056">
        <ele>116.9</ele>
        <time>2022-01-12T13:42:44Z</time>
      </trkpt>
      <trkpt lat="49.87505" lon="2.14055">
        <ele>116.9</ele>
        <time>2022-01-12T13:42:45Z</time>
      </trkpt>
      <trkpt lat="49.87506" lon="2.14054">
        <ele>117</ele>
        <time>2022-01-12T13:42:47Z</time>
      </trkpt>
      <trkpt lat="49.87506" lon="2.14052">
        <ele>117</ele>
        <time>2022-01-12T13:42:48Z</time>
      </trkpt>
      <trkpt lat="49.87507" lon="2.14051">
        <ele>117</ele>
        <time>2022-01-12T13:42:49Z</time>
      </trkpt>
      <trkpt lat="49.87508" lon="2.1405">
        <ele>117</ele>
        <time>2022-01-12T13:42:50Z</time>
      </trkpt>
      <trkpt lat="49.87508" lon="2.14049">
        <ele>117</ele>
        <time>2022-01-12T13:42:51Z</time>
      </trkpt>
      <trkpt lat="49.87509" lon="2.14048">
        <ele>117</ele>
        <time>2022-01-12T13:42:53Z</time>
      </trkpt>
      <trkpt lat="49.87509" lon="2.14047">
        <ele>117</ele>
        <time>2022-01-12T13:42:54Z</time>
      </trkpt>
      <trkpt lat="49.8751" lon="2.14045">
        <ele>117.1</ele>
        <time>2022-01-12T13:42:55Z</time>
      </trkpt>
      <trkpt lat="49.8751" lon="2.14044">
        <ele>117.1</ele>
        <time>2022-01-12T13:42:56Z</time>
      </trkpt>
      <trkpt lat="49.87511" lon="2.14043">
        <ele>117.1</ele>
        <time>2022-01-12T13:42:57Z</time>
      </trkpt>
      <trkpt lat="49.87511" lon="2.14043">
        <ele>117.1</ele>
        <time>2022-01-12T13:42:59Z</time>
      </trkpt>
      <trkpt lat="49.87511" lon="2.14043">
        <ele>117.1</ele>
        <time>2022-01-12T13:43:01Z</time>
      </trkpt>
      <trkpt lat="49.87511" lon="2.14044">
        <ele>117.1</ele>
        <time>2022-01-12T13:43:02Z</time>
      </trkpt>
      <trkpt lat="49.87511" lon="2.14044">
        <ele>117.1</ele>
        <time>2022-01-12T13:43:04Z</time>
      </trkpt>
      <trkpt lat="49.87512" lon="2.14043">
        <ele>117.1</ele>
        <time>2022-01-12T13:43:05Z</time>
      </trkpt>
      <trkpt lat="49.87512" lon="2.14043">
        <ele>117.1</ele>
        <time>2022-01-12T13:43:06Z</time>
      </trkpt>
      <trkpt lat="49.87513" lon="2.14042">
        <ele>117.2</ele>
        <time>2022-01-12T13:43:08Z</time>
      </trkpt>
      <trkpt lat="49.87513" lon="2.14042">
        <ele>117.2</ele>
        <time>2022-01-12T13:43:09Z</time>
      </trkpt>
      <trkpt lat="49.87513" lon="2.14041">
        <ele>117.2</ele>
        <time>2022-01-12T13:43:10Z</time>
      </trkpt>
      <trkpt lat="49.87513" lon="2.14041">
        <ele>117.2</ele>
        <time>2022-01-12T13:43:11Z</time>
      </trkpt>
      <trkpt lat="49.87513" lon="2.1404">
        <ele>117.2</ele>
        <time>2022-01-12T13:43:13Z</time>
      </trkpt>
      <trkpt lat="49.87514" lon="2.14039">
        <ele>117.2</ele>
        <time>2022-01-12T13:43:15Z</time>
      </trkpt>
      <trkpt lat="49.87514" lon="2.14038">
        <ele>117.2</ele>
        <time>2022-01-12T13:43:17Z</time>
      </trkpt>
      <trkpt lat="49.87514" lon="2.14038">
        <ele>117.2</ele>
        <time>2022-01-12T13:43:18Z</time>
      </trkpt>
      <trkpt lat="49.87514" lon="2.14038">
        <ele>117.2</ele>
        <time>2022-01-12T13:43:20Z</time>
      </trkpt>
      <trkpt lat="49.87514" lon="2.14038">
        <ele>117.2</ele>
        <time>2022-01-12T13:43:21Z</time>
      </trkpt>
      <trkpt lat="49.87514" lon="2.14037">
        <ele>117.2</ele>
        <time>2022-01-12T13:43:22Z</time>
      </trkpt>
      <trkpt lat="49.87514" lon="2.14037">
        <ele>117.2</ele>
        <time>2022-01-12T13:43:24Z</time>
      </trkpt>
      <trkpt lat="49.87514" lon="2.14037">
        <ele>117.2</ele>
        <time>2022-01-12T13:43:25Z</time>
      </trkpt>
      <trkpt lat="49.87514" lon="2.14036">
        <ele>117.3</ele>
        <time>2022-01-12T13:43:26Z</time>
      </trkpt>
      <trkpt lat="49.87515" lon="2.14033">
        <ele>117.3</ele>
        <time>2022-01-12T13:43:28Z</time>
      </trkpt>
      <trkpt lat="49.87515" lon="2.14032">
        <ele>117.3</ele>
        <time>2022-01-12T13:43:29Z</time>
      </trkpt>
      <trkpt lat="49.87515" lon="2.14032">
        <ele>117.3</ele>
        <time>2022-01-12T13:43:30Z</time>
      </trkpt>
      <trkpt lat="49.87515" lon="2.14031">
        <ele>117.3</ele>
        <time>2022-01-12T13:43:32Z</time>
      </trkpt>
      <trkpt lat="49.87515" lon="2.1403">
        <ele>117.3</ele>
        <time>2022-01-12T13:43:33Z</time>
      </trkpt>
      <trkpt lat="49.87516" lon="2.14029">
        <ele>117.4</ele>
        <time>2022-01-12T13:43:35Z</time>
      </trkpt>
      <trkpt lat="49.87516" lon="2.14029">
        <ele>117.4</ele>
        <time>2022-01-12T13:43:36Z</time>
      </trkpt>
      <trkpt lat="49.87517" lon="2.14029">
        <ele>117.4</ele>
        <time>2022-01-12T13:43:38Z</time>
      </trkpt>
      <trkpt lat="49.87519" lon="2.14029">
        <ele>117.4</ele>
        <time>2022-01-12T13:43:40Z</time>
      </trkpt>
      <trkpt lat="49.8752" lon="2.14029">
        <ele>117.4</ele>
        <time>2022-01-12T13:43:41Z</time>
      </trkpt>
      <trkpt lat="49.87521" lon="2.14029">
        <ele>117.4</ele>
        <time>2022-01-12T13:43:42Z</time>
      </trkpt>
      <trkpt lat="49.87521" lon="2.14029">
        <ele>117.4</ele>
        <time>2022-01-12T13:43:43Z</time>
      </trkpt>
      <trkpt lat="49.87522" lon="2.14029">
        <ele>117.4</ele>
        <time>2022-01-12T13:43:45Z</time>
      </trkpt>
      <trkpt lat="49.87522" lon="2.14029">
        <ele>117.4</ele>
        <time>2022-01-12T13:43:46Z</time>
      </trkpt>
      <trkpt lat="49.87522" lon="2.1403">
        <ele>117.4</ele>
        <time>2022-01-12T13:43:48Z</time>
      </trkpt>
      <trkpt lat="49.87521" lon="2.1403">
        <ele>117.4</ele>
        <time>2022-01-12T13:43:50Z</time>
      </trkpt>
      <trkpt lat="49.87521" lon="2.1403">
        <ele>117.4</ele>
        <time>2022-01-12T13:43:51Z</time>
      </trkpt>
      <trkpt lat="49.87521" lon="2.14031">
        <ele>117.4</ele>
        <time>2022-01-12T13:43:52Z</time>
      </trkpt>
      <trkpt lat="49.87521" lon="2.14031">
        <ele>117.4</ele>
        <time>2022-01-12T13:43:53Z</time>
      </trkpt>
      <trkpt lat="49.87521" lon="2.14031">
        <ele>117.4</ele>
        <time>2022-01-12T13:43:55Z</time>
      </trkpt>
      <trkpt lat="49.87521" lon="2.14032">
        <ele>117.4</ele>
        <time>2022-01-12T13:43:56Z</time>
      </trkpt>
      <trkpt lat="49.8752" lon="2.14032">
        <ele>117.4</ele>
        <time>2022-01-12T13:43:57Z</time>
      </trkpt>
      <trkpt lat="49.87519" lon="2.14033">
        <ele>117.5</ele>
        <time>2022-01-12T13:43:59Z</time>
      </trkpt>
      <trkpt lat="49.87519" lon="2.14033">
        <ele>117.5</ele>
        <time>2022-01-12T13:44:00Z</time>
      </trkpt>
      <trkpt lat="49.87519" lon="2.14033">
        <ele>117.5</ele>
        <time>2022-01-12T13:44:02Z</time>
      </trkpt>
      <trkpt lat="49.87518" lon="2.14033">
        <ele>117.5</ele>
        <time>2022-01-12T13:44:03Z</time>
      </trkpt>
      <trkpt lat="49.87518" lon="2.14034">
        <ele>117.5</ele>
        <time>2022-01-12T13:44:05Z</time>
      </trkpt>
      <trkpt lat="49.87518" lon="2.14034">
        <ele>117.5</ele>
        <time>2022-01-12T13:44:06Z</time>
      </trkpt>
      <trkpt lat="49.87518" lon="2.14034">
        <ele>117.5</ele>
        <time>2022-01-12T13:44:07Z</time>
      </trkpt>
      <trkpt lat="49.87517" lon="2.14034">
        <ele>117.5</ele>
        <time>2022-01-12T13:44:09Z</time>
      </trkpt>
      <trkpt lat="49.87517" lon="2.14035">
        <ele>117.5</ele>
        <time>2022-01-12T13:44:10Z</time>
      </trkpt>
      <trkpt lat="49.87517" lon="2.14035">
        <ele>117.5</ele>
        <time>2022-01-12T13:44:12Z</time>
      </trkpt>
      <trkpt lat="49.87517" lon="2.14035">
        <ele>117.5</ele>
        <time>2022-01-12T13:44:13Z</time>
      </trkpt>
      <trkpt lat="49.87518" lon="2.14035">
        <ele>117.5</ele>
        <time>2022-01-12T13:44:15Z</time>
      </trkpt>
      <trkpt lat="49.87519" lon="2.14035">
        <ele>117.5</ele>
        <time>2022-01-12T13:44:16Z</time>
      </trkpt>
      <trkpt lat="49.87519" lon="2.14035">
        <ele>117.5</ele>
        <time>2022-01-12T13:44:18Z</time>
      </trkpt>
      <trkpt lat="49.8752" lon="2.14035">
        <ele>117.5</ele>
        <time>2022-01-12T13:44:19Z</time>
      </trkpt>
      <trkpt lat="49.87521" lon="2.14036">
        <ele>117.5</ele>
        <time>2022-01-12T13:44:20Z</time>
      </trkpt>
      <trkpt lat="49.87522" lon="2.14036">
        <ele>117.5</ele>
        <time>2022-01-12T13:44:22Z</time>
      </trkpt>
      <trkpt lat="49.87524" lon="2.14036">
        <ele>117.5</ele>
        <time>2022-01-12T13:44:23Z</time>
      </trkpt>
      <trkpt lat="49.87526" lon="2.14036">
        <ele>117.5</ele>
        <time>2022-01-12T13:44:24Z</time>
      </trkpt>
      <trkpt lat="49.87526" lon="2.14037">
        <ele>117.5</ele>
        <time>2022-01-12T13:44:26Z</time>
      </trkpt>
      <trkpt lat="49.87527" lon="2.14037">
        <ele>117.5</ele>
        <time>2022-01-12T13:44:27Z</time>
      </trkpt>
      <trkpt lat="49.8753" lon="2.14038">
        <ele>117.5</ele>
        <time>2022-01-12T13:44:28Z</time>
      </trkpt>
      <trkpt lat="49.87531" lon="2.14038">
        <ele>117.5</ele>
        <time>2022-01-12T13:44:30Z</time>
      </trkpt>
      <trkpt lat="49.87532" lon="2.14039">
        <ele>117.5</ele>
        <time>2022-01-12T13:44:31Z</time>
      </trkpt>
      <trkpt lat="49.87533" lon="2.14039">
        <ele>117.5</ele>
        <time>2022-01-12T13:44:32Z</time>
      </trkpt>
      <trkpt lat="49.87534" lon="2.14039">
        <ele>117.5</ele>
        <time>2022-01-12T13:44:33Z</time>
      </trkpt>
      <trkpt lat="49.87536" lon="2.1404">
        <ele>117.5</ele>
        <time>2022-01-12T13:44:35Z</time>
      </trkpt>
      <trkpt lat="49.87537" lon="2.1404">
        <ele>117.5</ele>
        <time>2022-01-12T13:44:36Z</time>
      </trkpt>
      <trkpt lat="49.87539" lon="2.14041">
        <ele>117.6</ele>
        <time>2022-01-12T13:44:38Z</time>
      </trkpt>
      <trkpt lat="49.87541" lon="2.14041">
        <ele>117.6</ele>
        <time>2022-01-12T13:44:39Z</time>
      </trkpt>
      <trkpt lat="49.87543" lon="2.14041">
        <ele>117.6</ele>
        <time>2022-01-12T13:44:40Z</time>
      </trkpt>
      <trkpt lat="49.87544" lon="2.14042">
        <ele>117.6</ele>
        <time>2022-01-12T13:44:42Z</time>
      </trkpt>
      <trkpt lat="49.87544" lon="2.14042">
        <ele>117.6</ele>
        <time>2022-01-12T13:44:43Z</time>
      </trkpt>
      <trkpt lat="49.87547" lon="2.14042">
        <ele>117.6</ele>
        <time>2022-01-12T13:44:44Z</time>
      </trkpt>
      <trkpt lat="49.87547" lon="2.14042">
        <ele>117.6</ele>
        <time>2022-01-12T13:44:45Z</time>
      </trkpt>
      <trkpt lat="49.87548" lon="2.14042">
        <ele>117.6</ele>
        <time>2022-01-12T13:44:46Z</time>
      </trkpt>
      <trkpt lat="49.87549" lon="2.14042">
        <ele>117.6</ele>
        <time>2022-01-12T13:44:47Z</time>
      </trkpt>
      <trkpt lat="49.8755" lon="2.14043">
        <ele>117.6</ele>
        <time>2022-01-12T13:44:48Z</time>
      </trkpt>
      <trkpt lat="49.87551" lon="2.14043">
        <ele>117.6</ele>
        <time>2022-01-12T13:44:50Z</time>
      </trkpt>
      <trkpt lat="49.87553" lon="2.14044">
        <ele>117.6</ele>
        <time>2022-01-12T13:44:51Z</time>
      </trkpt>
      <trkpt lat="49.87554" lon="2.14044">
        <ele>117.6</ele>
        <time>2022-01-12T13:44:52Z</time>
      </trkpt>
      <trkpt lat="49.87556" lon="2.14045">
        <ele>117.6</ele>
        <time>2022-01-12T13:44:53Z</time>
      </trkpt>
      <trkpt lat="49.87557" lon="2.14045">
        <ele>117.6</ele>
        <time>2022-01-12T13:44:55Z</time>
      </trkpt>
      <trkpt lat="49.87558" lon="2.14046">
        <ele>117.6</ele>
        <time>2022-01-12T13:44:56Z</time>
      </trkpt>
      <trkpt lat="49.87559" lon="2.14046">
        <ele>117.6</ele>
        <time>2022-01-12T13:44:57Z</time>
      </trkpt>
      <trkpt lat="49.8756" lon="2.14047">
        <ele>117.6</ele>
        <time>2022-01-12T13:44:58Z</time>
      </trkpt>
      <trkpt lat="49.87561" lon="2.14047">
        <ele>117.7</ele>
        <time>2022-01-12T13:44:59Z</time>
      </trkpt>
      <trkpt lat="49.87562" lon="2.14047">
        <ele>117.7</ele>
        <time>2022-01-12T13:45:00Z</time>
      </trkpt>
      <trkpt lat="49.87563" lon="2.14048">
        <ele>117.7</ele>
        <time>2022-01-12T13:45:02Z</time>
      </trkpt>
      <trkpt lat="49.87565" lon="2.14048">
        <ele>117.7</ele>
        <time>2022-01-12T13:45:03Z</time>
      </trkpt>
      <trkpt lat="49.87566" lon="2.14049">
        <ele>117.7</ele>
        <time>2022-01-12T13:45:04Z</time>
      </trkpt>
      <trkpt lat="49.87567" lon="2.14049">
        <ele>117.7</ele>
        <time>2022-01-12T13:45:05Z</time>
      </trkpt>
      <trkpt lat="49.87569" lon="2.1405">
        <ele>117.7</ele>
        <time>2022-01-12T13:45:06Z</time>
      </trkpt>
      <trkpt lat="49.8757" lon="2.1405">
        <ele>117.7</ele>
        <time>2022-01-12T13:45:07Z</time>
      </trkpt>
      <trkpt lat="49.8757" lon="2.14051">
        <ele>117.7</ele>
        <time>2022-01-12T13:45:08Z</time>
      </trkpt>
      <trkpt lat="49.87572" lon="2.14051">
        <ele>117.7</ele>
        <time>2022-01-12T13:45:09Z</time>
      </trkpt>
      <trkpt lat="49.87573" lon="2.14051">
        <ele>117.7</ele>
        <time>2022-01-12T13:45:10Z</time>
      </trkpt>
      <trkpt lat="49.87575" lon="2.14052">
        <ele>117.7</ele>
        <time>2022-01-12T13:45:12Z</time>
      </trkpt>
      <trkpt lat="49.87576" lon="2.14052">
        <ele>117.7</ele>
        <time>2022-01-12T13:45:13Z</time>
      </trkpt>
      <trkpt lat="49.87577" lon="2.14052">
        <ele>117.7</ele>
        <time>2022-01-12T13:45:14Z</time>
      </trkpt>
      <trkpt lat="49.87579" lon="2.14052">
        <ele>117.7</ele>
        <time>2022-01-12T13:45:15Z</time>
      </trkpt>
      <trkpt lat="49.8758" lon="2.14053">
        <ele>117.7</ele>
        <time>2022-01-12T13:45:16Z</time>
      </trkpt>
      <trkpt lat="49.87581" lon="2.14053">
        <ele>117.7</ele>
        <time>2022-01-12T13:45:18Z</time>
      </trkpt>
      <trkpt lat="49.87582" lon="2.14053">
        <ele>117.7</ele>
        <time>2022-01-12T13:45:19Z</time>
      </trkpt>
      <trkpt lat="49.87584" lon="2.14053">
        <ele>117.8</ele>
        <time>2022-01-12T13:45:20Z</time>
      </trkpt>
      <trkpt lat="49.87586" lon="2.14054">
        <ele>117.8</ele>
        <time>2022-01-12T13:45:21Z</time>
      </trkpt>
      <trkpt lat="49.87587" lon="2.14054">
        <ele>117.8</ele>
        <time>2022-01-12T13:45:22Z</time>
      </trkpt>
      <trkpt lat="49.87588" lon="2.14054">
        <ele>117.8</ele>
        <time>2022-01-12T13:45:23Z</time>
      </trkpt>
      <trkpt lat="49.87588" lon="2.14054">
        <ele>117.8</ele>
        <time>2022-01-12T13:45:24Z</time>
      </trkpt>
      <trkpt lat="49.8759" lon="2.14055">
        <ele>117.8</ele>
        <time>2022-01-12T13:45:25Z</time>
      </trkpt>
      <trkpt lat="49.87591" lon="2.14055">
        <ele>117.8</ele>
        <time>2022-01-12T13:45:27Z</time>
      </trkpt>
      <trkpt lat="49.87592" lon="2.14056">
        <ele>117.8</ele>
        <time>2022-01-12T13:45:28Z</time>
      </trkpt>
      <trkpt lat="49.87594" lon="2.14056">
        <ele>117.8</ele>
        <time>2022-01-12T13:45:29Z</time>
      </trkpt>
      <trkpt lat="49.87595" lon="2.14057">
        <ele>117.8</ele>
        <time>2022-01-12T13:45:30Z</time>
      </trkpt>
      <trkpt lat="49.87597" lon="2.14057">
        <ele>117.8</ele>
        <time>2022-01-12T13:45:31Z</time>
      </trkpt>
      <trkpt lat="49.87598" lon="2.14057">
        <ele>117.9</ele>
        <time>2022-01-12T13:45:32Z</time>
      </trkpt>
      <trkpt lat="49.87599" lon="2.14058">
        <ele>117.9</ele>
        <time>2022-01-12T13:45:33Z</time>
      </trkpt>
      <trkpt lat="49.876" lon="2.14058">
        <ele>117.9</ele>
        <time>2022-01-12T13:45:34Z</time>
      </trkpt>
      <trkpt lat="49.87601" lon="2.14059">
        <ele>117.9</ele>
        <time>2022-01-12T13:45:36Z</time>
      </trkpt>
      <trkpt lat="49.87603" lon="2.14059">
        <ele>117.9</ele>
        <time>2022-01-12T13:45:37Z</time>
      </trkpt>
      <trkpt lat="49.87604" lon="2.14059">
        <ele>117.9</ele>
        <time>2022-01-12T13:45:38Z</time>
      </trkpt>
      <trkpt lat="49.87605" lon="2.1406">
        <ele>117.9</ele>
        <time>2022-01-12T13:45:39Z</time>
      </trkpt>
      <trkpt lat="49.87607" lon="2.1406">
        <ele>117.9</ele>
        <time>2022-01-12T13:45:40Z</time>
      </trkpt>
      <trkpt lat="49.87608" lon="2.1406">
        <ele>117.9</ele>
        <time>2022-01-12T13:45:41Z</time>
      </trkpt>
      <trkpt lat="49.87609" lon="2.14061">
        <ele>118</ele>
        <time>2022-01-12T13:45:42Z</time>
      </trkpt>
      <trkpt lat="49.87611" lon="2.14061">
        <ele>118</ele>
        <time>2022-01-12T13:45:43Z</time>
      </trkpt>
      <trkpt lat="49.87612" lon="2.14061">
        <ele>118</ele>
        <time>2022-01-12T13:45:45Z</time>
      </trkpt>
      <trkpt lat="49.87613" lon="2.14062">
        <ele>118</ele>
        <time>2022-01-12T13:45:46Z</time>
      </trkpt>
      <trkpt lat="49.87615" lon="2.14062">
        <ele>118</ele>
        <time>2022-01-12T13:45:47Z</time>
      </trkpt>
      <trkpt lat="49.87616" lon="2.14062">
        <ele>118</ele>
        <time>2022-01-12T13:45:48Z</time>
      </trkpt>
      <trkpt lat="49.87617" lon="2.14062">
        <ele>118</ele>
        <time>2022-01-12T13:45:49Z</time>
      </trkpt>
      <trkpt lat="49.87618" lon="2.14062">
        <ele>118</ele>
        <time>2022-01-12T13:45:50Z</time>
      </trkpt>
      <trkpt lat="49.87619" lon="2.14063">
        <ele>118</ele>
        <time>2022-01-12T13:45:51Z</time>
      </trkpt>
      <trkpt lat="49.8762" lon="2.14063">
        <ele>118</ele>
        <time>2022-01-12T13:45:52Z</time>
      </trkpt>
      <trkpt lat="49.87622" lon="2.14064">
        <ele>118.1</ele>
        <time>2022-01-12T13:45:54Z</time>
      </trkpt>
      <trkpt lat="49.87623" lon="2.14064">
        <ele>118.1</ele>
        <time>2022-01-12T13:45:55Z</time>
      </trkpt>
      <trkpt lat="49.87624" lon="2.14065">
        <ele>118.1</ele>
        <time>2022-01-12T13:45:56Z</time>
      </trkpt>
      <trkpt lat="49.87625" lon="2.14065">
        <ele>118.1</ele>
        <time>2022-01-12T13:45:57Z</time>
      </trkpt>
      <trkpt lat="49.87626" lon="2.14066">
        <ele>118.1</ele>
        <time>2022-01-12T13:45:58Z</time>
      </trkpt>
      <trkpt lat="49.87628" lon="2.14066">
        <ele>118.1</ele>
        <time>2022-01-12T13:46:00Z</time>
      </trkpt>
      <trkpt lat="49.87629" lon="2.14066">
        <ele>118.1</ele>
        <time>2022-01-12T13:46:01Z</time>
      </trkpt>
      <trkpt lat="49.8763" lon="2.14067">
        <ele>118.1</ele>
        <time>2022-01-12T13:46:02Z</time>
      </trkpt>
      <trkpt lat="49.87631" lon="2.14067">
        <ele>118.2</ele>
        <time>2022-01-12T13:46:03Z</time>
      </trkpt>
      <trkpt lat="49.87632" lon="2.14067">
        <ele>118.2</ele>
        <time>2022-01-12T13:46:04Z</time>
      </trkpt>
      <trkpt lat="49.87633" lon="2.14067">
        <ele>118.2</ele>
        <time>2022-01-12T13:46:05Z</time>
      </trkpt>
      <trkpt lat="49.87635" lon="2.14067">
        <ele>118.2</ele>
        <time>2022-01-12T13:46:07Z</time>
      </trkpt>
      <trkpt lat="49.87636" lon="2.14067">
        <ele>118.2</ele>
        <time>2022-01-12T13:46:08Z</time>
      </trkpt>
      <trkpt lat="49.87637" lon="2.14066">
        <ele>118.2</ele>
        <time>2022-01-12T13:46:09Z</time>
      </trkpt>
      <trkpt lat="49.87637" lon="2.14066">
        <ele>118.2</ele>
        <time>2022-01-12T13:46:10Z</time>
      </trkpt>
      <trkpt lat="49.87639" lon="2.14066">
        <ele>118.2</ele>
        <time>2022-01-12T13:46:12Z</time>
      </trkpt>
      <trkpt lat="49.8764" lon="2.14066">
        <ele>118.3</ele>
        <time>2022-01-12T13:46:13Z</time>
      </trkpt>
      <trkpt lat="49.87641" lon="2.14066">
        <ele>118.3</ele>
        <time>2022-01-12T13:46:14Z</time>
      </trkpt>
      <trkpt lat="49.87642" lon="2.14066">
        <ele>118.3</ele>
        <time>2022-01-12T13:46:15Z</time>
      </trkpt>
      <trkpt lat="49.87644" lon="2.14066">
        <ele>118.3</ele>
        <time>2022-01-12T13:46:16Z</time>
      </trkpt>
      <trkpt lat="49.87645" lon="2.14066">
        <ele>118.3</ele>
        <time>2022-01-12T13:46:18Z</time>
      </trkpt>
      <trkpt lat="49.87646" lon="2.14066">
        <ele>118.3</ele>
        <time>2022-01-12T13:46:19Z</time>
      </trkpt>
      <trkpt lat="49.87648" lon="2.14066">
        <ele>118.3</ele>
        <time>2022-01-12T13:46:20Z</time>
      </trkpt>
      <trkpt lat="49.87649" lon="2.14066">
        <ele>118.3</ele>
        <time>2022-01-12T13:46:21Z</time>
      </trkpt>
      <trkpt lat="49.87651" lon="2.14066">
        <ele>118.4</ele>
        <time>2022-01-12T13:46:22Z</time>
      </trkpt>
      <trkpt lat="49.87652" lon="2.14066">
        <ele>118.4</ele>
        <time>2022-01-12T13:46:23Z</time>
      </trkpt>
      <trkpt lat="49.87653" lon="2.14066">
        <ele>118.4</ele>
        <time>2022-01-12T13:46:24Z</time>
      </trkpt>
      <trkpt lat="49.87654" lon="2.14066">
        <ele>118.4</ele>
        <time>2022-01-12T13:46:25Z</time>
      </trkpt>
      <trkpt lat="49.87655" lon="2.14067">
        <ele>118.4</ele>
        <time>2022-01-12T13:46:26Z</time>
      </trkpt>
      <trkpt lat="49.87657" lon="2.14067">
        <ele>118.4</ele>
        <time>2022-01-12T13:46:27Z</time>
      </trkpt>
      <trkpt lat="49.87658" lon="2.14067">
        <ele>118.4</ele>
        <time>2022-01-12T13:46:29Z</time>
      </trkpt>
      <trkpt lat="49.87659" lon="2.14067">
        <ele>118.4</ele>
        <time>2022-01-12T13:46:30Z</time>
      </trkpt>
      <trkpt lat="49.8766" lon="2.14067">
        <ele>118.4</ele>
        <time>2022-01-12T13:46:31Z</time>
      </trkpt>
      <trkpt lat="49.87661" lon="2.14067">
        <ele>118.4</ele>
        <time>2022-01-12T13:46:32Z</time>
      </trkpt>
      <trkpt lat="49.87662" lon="2.14067">
        <ele>118.5</ele>
        <time>2022-01-12T13:46:33Z</time>
      </trkpt>
      <trkpt lat="49.87663" lon="2.14067">
        <ele>118.5</ele>
        <time>2022-01-12T13:46:34Z</time>
      </trkpt>
      <trkpt lat="49.87664" lon="2.14067">
        <ele>118.5</ele>
        <time>2022-01-12T13:46:35Z</time>
      </trkpt>
      <trkpt lat="49.87665" lon="2.14067">
        <ele>118.5</ele>
        <time>2022-01-12T13:46:36Z</time>
      </trkpt>
      <trkpt lat="49.87667" lon="2.14069">
        <ele>118.5</ele>
        <time>2022-01-12T13:46:38Z</time>
      </trkpt>
      <trkpt lat="49.87668" lon="2.14069">
        <ele>118.5</ele>
        <time>2022-01-12T13:46:39Z</time>
      </trkpt>
      <trkpt lat="49.87668" lon="2.1407">
        <ele>118.5</ele>
        <time>2022-01-12T13:46:40Z</time>
      </trkpt>
      <trkpt lat="49.87669" lon="2.1407">
        <ele>118.5</ele>
        <time>2022-01-12T13:46:41Z</time>
      </trkpt>
      <trkpt lat="49.8767" lon="2.1407">
        <ele>118.5</ele>
        <time>2022-01-12T13:46:42Z</time>
      </trkpt>
      <trkpt lat="49.87672" lon="2.14071">
        <ele>118.5</ele>
        <time>2022-01-12T13:46:43Z</time>
      </trkpt>
      <trkpt lat="49.87673" lon="2.14071">
        <ele>118.6</ele>
        <time>2022-01-12T13:46:44Z</time>
      </trkpt>
      <trkpt lat="49.87675" lon="2.14072">
        <ele>118.6</ele>
        <time>2022-01-12T13:46:45Z</time>
      </trkpt>
      <trkpt lat="49.87676" lon="2.14073">
        <ele>118.6</ele>
        <time>2022-01-12T13:46:46Z</time>
      </trkpt>
      <trkpt lat="49.87677" lon="2.14074">
        <ele>118.6</ele>
        <time>2022-01-12T13:46:47Z</time>
      </trkpt>
      <trkpt lat="49.87679" lon="2.14074">
        <ele>118.6</ele>
        <time>2022-01-12T13:46:48Z</time>
      </trkpt>
      <trkpt lat="49.8768" lon="2.14074">
        <ele>118.6</ele>
        <time>2022-01-12T13:46:49Z</time>
      </trkpt>
      <trkpt lat="49.87681" lon="2.14074">
        <ele>118.6</ele>
        <time>2022-01-12T13:46:51Z</time>
      </trkpt>
      <trkpt lat="49.87683" lon="2.14074">
        <ele>118.6</ele>
        <time>2022-01-12T13:46:52Z</time>
      </trkpt>
      <trkpt lat="49.87684" lon="2.14074">
        <ele>118.6</ele>
        <time>2022-01-12T13:46:53Z</time>
      </trkpt>
      <trkpt lat="49.87685" lon="2.14074">
        <ele>118.6</ele>
        <time>2022-01-12T13:46:54Z</time>
      </trkpt>
      <trkpt lat="49.87686" lon="2.14074">
        <ele>118.6</ele>
        <time>2022-01-12T13:46:55Z</time>
      </trkpt>
      <trkpt lat="49.87688" lon="2.14074">
        <ele>118.7</ele>
        <time>2022-01-12T13:46:56Z</time>
      </trkpt>
      <trkpt lat="49.8769" lon="2.14075">
        <ele>118.7</ele>
        <time>2022-01-12T13:46:57Z</time>
      </trkpt>
      <trkpt lat="49.87691" lon="2.14075">
        <ele>118.7</ele>
        <time>2022-01-12T13:46:58Z</time>
      </trkpt>
      <trkpt lat="49.87692" lon="2.14075">
        <ele>118.7</ele>
        <time>2022-01-12T13:46:59Z</time>
      </trkpt>
      <trkpt lat="49.87694" lon="2.14075">
        <ele>118.7</ele>
        <time>2022-01-12T13:47:01Z</time>
      </trkpt>
      <trkpt lat="49.87695" lon="2.14075">
        <ele>118.7</ele>
        <time>2022-01-12T13:47:02Z</time>
      </trkpt>
      <trkpt lat="49.87697" lon="2.14075">
        <ele>118.7</ele>
        <time>2022-01-12T13:47:03Z</time>
      </trkpt>
      <trkpt lat="49.87698" lon="2.14075">
        <ele>118.8</ele>
        <time>2022-01-12T13:47:04Z</time>
      </trkpt>
      <trkpt lat="49.87699" lon="2.14075">
        <ele>118.8</ele>
        <time>2022-01-12T13:47:05Z</time>
      </trkpt>
      <trkpt lat="49.87701" lon="2.14075">
        <ele>118.8</ele>
        <time>2022-01-12T13:47:07Z</time>
      </trkpt>
      <trkpt lat="49.87702" lon="2.14075">
        <ele>118.8</ele>
        <time>2022-01-12T13:47:08Z</time>
      </trkpt>
      <trkpt lat="49.87703" lon="2.14074">
        <ele>118.8</ele>
        <time>2022-01-12T13:47:09Z</time>
      </trkpt>
      <trkpt lat="49.87705" lon="2.14075">
        <ele>118.8</ele>
        <time>2022-01-12T13:47:10Z</time>
      </trkpt>
      <trkpt lat="49.87705" lon="2.14075">
        <ele>118.8</ele>
        <time>2022-01-12T13:47:11Z</time>
      </trkpt>
      <trkpt lat="49.87706" lon="2.14075">
        <ele>118.8</ele>
        <time>2022-01-12T13:47:12Z</time>
      </trkpt>
      <trkpt lat="49.87708" lon="2.14075">
        <ele>118.8</ele>
        <time>2022-01-12T13:47:14Z</time>
      </trkpt>
      <trkpt lat="49.8771" lon="2.14075">
        <ele>118.9</ele>
        <time>2022-01-12T13:47:16Z</time>
      </trkpt>
      <trkpt lat="49.87712" lon="2.14076">
        <ele>118.9</ele>
        <time>2022-01-12T13:47:17Z</time>
      </trkpt>
      <trkpt lat="49.87713" lon="2.14076">
        <ele>118.9</ele>
        <time>2022-01-12T13:47:18Z</time>
      </trkpt>
      <trkpt lat="49.87714" lon="2.14076">
        <ele>118.9</ele>
        <time>2022-01-12T13:47:19Z</time>
      </trkpt>
      <trkpt lat="49.87715" lon="2.14077">
        <ele>118.9</ele>
        <time>2022-01-12T13:47:20Z</time>
      </trkpt>
      <trkpt lat="49.87716" lon="2.14077">
        <ele>118.9</ele>
        <time>2022-01-12T13:47:21Z</time>
      </trkpt>
      <trkpt lat="49.87718" lon="2.14078">
        <ele>118.9</ele>
        <time>2022-01-12T13:47:23Z</time>
      </trkpt>
      <trkpt lat="49.87719" lon="2.14079">
        <ele>118.9</ele>
        <time>2022-01-12T13:47:24Z</time>
      </trkpt>
      <trkpt lat="49.87721" lon="2.1408">
        <ele>118.9</ele>
        <time>2022-01-12T13:47:25Z</time>
      </trkpt>
      <trkpt lat="49.87722" lon="2.1408">
        <ele>119</ele>
        <time>2022-01-12T13:47:26Z</time>
      </trkpt>
      <trkpt lat="49.87722" lon="2.14081">
        <ele>119</ele>
        <time>2022-01-12T13:47:27Z</time>
      </trkpt>
      <trkpt lat="49.87724" lon="2.14082">
        <ele>119</ele>
        <time>2022-01-12T13:47:28Z</time>
      </trkpt>
      <trkpt lat="49.87725" lon="2.14082">
        <ele>119</ele>
        <time>2022-01-12T13:47:29Z</time>
      </trkpt>
      <trkpt lat="49.87726" lon="2.14082">
        <ele>119</ele>
        <time>2022-01-12T13:47:30Z</time>
      </trkpt>
      <trkpt lat="49.87728" lon="2.14082">
        <ele>119</ele>
        <time>2022-01-12T13:47:31Z</time>
      </trkpt>
      <trkpt lat="49.87729" lon="2.14083">
        <ele>119</ele>
        <time>2022-01-12T13:47:32Z</time>
      </trkpt>
      <trkpt lat="49.87731" lon="2.14084">
        <ele>119.1</ele>
        <time>2022-01-12T13:47:33Z</time>
      </trkpt>
      <trkpt lat="49.87732" lon="2.14084">
        <ele>119.1</ele>
        <time>2022-01-12T13:47:35Z</time>
      </trkpt>
      <trkpt lat="49.87734" lon="2.14085">
        <ele>119.1</ele>
        <time>2022-01-12T13:47:36Z</time>
      </trkpt>
      <trkpt lat="49.87735" lon="2.14085">
        <ele>119.1</ele>
        <time>2022-01-12T13:47:37Z</time>
      </trkpt>
      <trkpt lat="49.87736" lon="2.14086">
        <ele>119.1</ele>
        <time>2022-01-12T13:47:38Z</time>
      </trkpt>
      <trkpt lat="49.87737" lon="2.14087">
        <ele>119.1</ele>
        <time>2022-01-12T13:47:39Z</time>
      </trkpt>
      <trkpt lat="49.8774" lon="2.14088">
        <ele>119.2</ele>
        <time>2022-01-12T13:47:41Z</time>
      </trkpt>
      <trkpt lat="49.87741" lon="2.14089">
        <ele>119.2</ele>
        <time>2022-01-12T13:47:42Z</time>
      </trkpt>
      <trkpt lat="49.87742" lon="2.14089">
        <ele>119.2</ele>
        <time>2022-01-12T13:47:43Z</time>
      </trkpt>
      <trkpt lat="49.87744" lon="2.1409">
        <ele>119.2</ele>
        <time>2022-01-12T13:47:44Z</time>
      </trkpt>
      <trkpt lat="49.87745" lon="2.14091">
        <ele>119.2</ele>
        <time>2022-01-12T13:47:45Z</time>
      </trkpt>
      <trkpt lat="49.87747" lon="2.14091">
        <ele>119.2</ele>
        <time>2022-01-12T13:47:47Z</time>
      </trkpt>
      <trkpt lat="49.87748" lon="2.14091">
        <ele>119.3</ele>
        <time>2022-01-12T13:47:48Z</time>
      </trkpt>
      <trkpt lat="49.8775" lon="2.14092">
        <ele>119.3</ele>
        <time>2022-01-12T13:47:49Z</time>
      </trkpt>
      <trkpt lat="49.87751" lon="2.14092">
        <ele>119.3</ele>
        <time>2022-01-12T13:47:50Z</time>
      </trkpt>
      <trkpt lat="49.87752" lon="2.14092">
        <ele>119.3</ele>
        <time>2022-01-12T13:47:51Z</time>
      </trkpt>
      <trkpt lat="49.87753" lon="2.14092">
        <ele>119.3</ele>
        <time>2022-01-12T13:47:52Z</time>
      </trkpt>
      <trkpt lat="49.87754" lon="2.14093">
        <ele>119.3</ele>
        <time>2022-01-12T13:47:53Z</time>
      </trkpt>
      <trkpt lat="49.87757" lon="2.14093">
        <ele>119.4</ele>
        <time>2022-01-12T13:47:54Z</time>
      </trkpt>
      <trkpt lat="49.87758" lon="2.14093">
        <ele>119.4</ele>
        <time>2022-01-12T13:47:55Z</time>
      </trkpt>
      <trkpt lat="49.87758" lon="2.14093">
        <ele>119.4</ele>
        <time>2022-01-12T13:47:56Z</time>
      </trkpt>
      <trkpt lat="49.8776" lon="2.14094">
        <ele>119.4</ele>
        <time>2022-01-12T13:47:57Z</time>
      </trkpt>
      <trkpt lat="49.87761" lon="2.14094">
        <ele>119.4</ele>
        <time>2022-01-12T13:47:58Z</time>
      </trkpt>
      <trkpt lat="49.87763" lon="2.14095">
        <ele>119.4</ele>
        <time>2022-01-12T13:48:00Z</time>
      </trkpt>
      <trkpt lat="49.87764" lon="2.14096">
        <ele>119.4</ele>
        <time>2022-01-12T13:48:01Z</time>
      </trkpt>
      <trkpt lat="49.87765" lon="2.14096">
        <ele>119.4</ele>
        <time>2022-01-12T13:48:02Z</time>
      </trkpt>
      <trkpt lat="49.87766" lon="2.14096">
        <ele>119.5</ele>
        <time>2022-01-12T13:48:03Z</time>
      </trkpt>
      <trkpt lat="49.87767" lon="2.14097">
        <ele>119.5</ele>
        <time>2022-01-12T13:48:04Z</time>
      </trkpt>
      <trkpt lat="49.87768" lon="2.14098">
        <ele>119.5</ele>
        <time>2022-01-12T13:48:05Z</time>
      </trkpt>
      <trkpt lat="49.8777" lon="2.14098">
        <ele>119.5</ele>
        <time>2022-01-12T13:48:06Z</time>
      </trkpt>
      <trkpt lat="49.87771" lon="2.14099">
        <ele>119.5</ele>
        <time>2022-01-12T13:48:07Z</time>
      </trkpt>
      <trkpt lat="49.87772" lon="2.14099">
        <ele>119.5</ele>
        <time>2022-01-12T13:48:08Z</time>
      </trkpt>
      <trkpt lat="49.87773" lon="2.141">
        <ele>119.5</ele>
        <time>2022-01-12T13:48:09Z</time>
      </trkpt>
      <trkpt lat="49.87775" lon="2.14101">
        <ele>119.6</ele>
        <time>2022-01-12T13:48:10Z</time>
      </trkpt>
      <trkpt lat="49.87776" lon="2.14102">
        <ele>119.6</ele>
        <time>2022-01-12T13:48:11Z</time>
      </trkpt>
      <trkpt lat="49.87777" lon="2.14102">
        <ele>119.6</ele>
        <time>2022-01-12T13:48:12Z</time>
      </trkpt>
      <trkpt lat="49.87779" lon="2.14103">
        <ele>119.6</ele>
        <time>2022-01-12T13:48:14Z</time>
      </trkpt>
      <trkpt lat="49.8778" lon="2.14104">
        <ele>119.6</ele>
        <time>2022-01-12T13:48:15Z</time>
      </trkpt>
      <trkpt lat="49.87782" lon="2.14105">
        <ele>119.6</ele>
        <time>2022-01-12T13:48:16Z</time>
      </trkpt>
      <trkpt lat="49.87783" lon="2.14105">
        <ele>119.6</ele>
        <time>2022-01-12T13:48:17Z</time>
      </trkpt>
      <trkpt lat="49.87784" lon="2.14105">
        <ele>119.6</ele>
        <time>2022-01-12T13:48:18Z</time>
      </trkpt>
      <trkpt lat="49.87786" lon="2.14106">
        <ele>119.6</ele>
        <time>2022-01-12T13:48:20Z</time>
      </trkpt>
      <trkpt lat="49.87787" lon="2.14106">
        <ele>119.6</ele>
        <time>2022-01-12T13:48:21Z</time>
      </trkpt>
      <trkpt lat="49.87788" lon="2.14107">
        <ele>119.7</ele>
        <time>2022-01-12T13:48:22Z</time>
      </trkpt>
      <trkpt lat="49.87791" lon="2.14107">
        <ele>119.7</ele>
        <time>2022-01-12T13:48:24Z</time>
      </trkpt>
      <trkpt lat="49.87792" lon="2.14108">
        <ele>119.7</ele>
        <time>2022-01-12T13:48:25Z</time>
      </trkpt>
      <trkpt lat="49.87794" lon="2.14108">
        <ele>119.7</ele>
        <time>2022-01-12T13:48:26Z</time>
      </trkpt>
      <trkpt lat="49.87795" lon="2.14109">
        <ele>119.7</ele>
        <time>2022-01-12T13:48:27Z</time>
      </trkpt>
      <trkpt lat="49.87797" lon="2.14109">
        <ele>119.7</ele>
        <time>2022-01-12T13:48:28Z</time>
      </trkpt>
      <trkpt lat="49.87799" lon="2.1411">
        <ele>119.7</ele>
        <time>2022-01-12T13:48:30Z</time>
      </trkpt>
      <trkpt lat="49.878" lon="2.1411">
        <ele>119.7</ele>
        <time>2022-01-12T13:48:31Z</time>
      </trkpt>
      <trkpt lat="49.87801" lon="2.14111">
        <ele>119.7</ele>
        <time>2022-01-12T13:48:32Z</time>
      </trkpt>
      <trkpt lat="49.87803" lon="2.14112">
        <ele>119.7</ele>
        <time>2022-01-12T13:48:33Z</time>
      </trkpt>
      <trkpt lat="49.87804" lon="2.14112">
        <ele>119.7</ele>
        <time>2022-01-12T13:48:35Z</time>
      </trkpt>
      <trkpt lat="49.87806" lon="2.14113">
        <ele>119.7</ele>
        <time>2022-01-12T13:48:36Z</time>
      </trkpt>
      <trkpt lat="49.87807" lon="2.14113">
        <ele>119.7</ele>
        <time>2022-01-12T13:48:37Z</time>
      </trkpt>
      <trkpt lat="49.87809" lon="2.14114">
        <ele>119.7</ele>
        <time>2022-01-12T13:48:38Z</time>
      </trkpt>
      <trkpt lat="49.8781" lon="2.14114">
        <ele>119.7</ele>
        <time>2022-01-12T13:48:39Z</time>
      </trkpt>
      <trkpt lat="49.87812" lon="2.14115">
        <ele>119.7</ele>
        <time>2022-01-12T13:48:41Z</time>
      </trkpt>
      <trkpt lat="49.87813" lon="2.14116">
        <ele>119.7</ele>
        <time>2022-01-12T13:48:42Z</time>
      </trkpt>
      <trkpt lat="49.87815" lon="2.14117">
        <ele>119.7</ele>
        <time>2022-01-12T13:48:43Z</time>
      </trkpt>
      <trkpt lat="49.87815" lon="2.14117">
        <ele>119.7</ele>
        <time>2022-01-12T13:48:44Z</time>
      </trkpt>
      <trkpt lat="49.87817" lon="2.14118">
        <ele>119.7</ele>
        <time>2022-01-12T13:48:45Z</time>
      </trkpt>
      <trkpt lat="49.87817" lon="2.14118">
        <ele>119.7</ele>
        <time>2022-01-12T13:48:46Z</time>
      </trkpt>
      <trkpt lat="49.87819" lon="2.14119">
        <ele>119.7</ele>
        <time>2022-01-12T13:48:48Z</time>
      </trkpt>
      <trkpt lat="49.8782" lon="2.14119">
        <ele>119.8</ele>
        <time>2022-01-12T13:48:49Z</time>
      </trkpt>
      <trkpt lat="49.87821" lon="2.1412">
        <ele>119.8</ele>
        <time>2022-01-12T13:48:50Z</time>
      </trkpt>
      <trkpt lat="49.87823" lon="2.1412">
        <ele>119.8</ele>
        <time>2022-01-12T13:48:52Z</time>
      </trkpt>
      <trkpt lat="49.87826" lon="2.14121">
        <ele>119.8</ele>
        <time>2022-01-12T13:48:53Z</time>
      </trkpt>
      <trkpt lat="49.87826" lon="2.14121">
        <ele>119.8</ele>
        <time>2022-01-12T13:48:54Z</time>
      </trkpt>
      <trkpt lat="49.87827" lon="2.14121">
        <ele>119.8</ele>
        <time>2022-01-12T13:48:55Z</time>
      </trkpt>
      <trkpt lat="49.87828" lon="2.14121">
        <ele>119.8</ele>
        <time>2022-01-12T13:48:56Z</time>
      </trkpt>
      <trkpt lat="49.87829" lon="2.14122">
        <ele>119.8</ele>
        <time>2022-01-12T13:48:57Z</time>
      </trkpt>
      <trkpt lat="49.8783" lon="2.14122">
        <ele>119.8</ele>
        <time>2022-01-12T13:48:58Z</time>
      </trkpt>
      <trkpt lat="49.87831" lon="2.14122">
        <ele>119.8</ele>
        <time>2022-01-12T13:48:59Z</time>
      </trkpt>
      <trkpt lat="49.87833" lon="2.14123">
        <ele>119.8</ele>
        <time>2022-01-12T13:49:01Z</time>
      </trkpt>
      <trkpt lat="49.87834" lon="2.14123">
        <ele>119.8</ele>
        <time>2022-01-12T13:49:02Z</time>
      </trkpt>
      <trkpt lat="49.87835" lon="2.14124">
        <ele>119.8</ele>
        <time>2022-01-12T13:49:03Z</time>
      </trkpt>
      <trkpt lat="49.87837" lon="2.14125">
        <ele>119.8</ele>
        <time>2022-01-12T13:49:05Z</time>
      </trkpt>
      <trkpt lat="49.87838" lon="2.14126">
        <ele>119.8</ele>
        <time>2022-01-12T13:49:06Z</time>
      </trkpt>
      <trkpt lat="49.87839" lon="2.14126">
        <ele>119.8</ele>
        <time>2022-01-12T13:49:07Z</time>
      </trkpt>
      <trkpt lat="49.8784" lon="2.14127">
        <ele>119.8</ele>
        <time>2022-01-12T13:49:08Z</time>
      </trkpt>
      <trkpt lat="49.87841" lon="2.14128">
        <ele>119.8</ele>
        <time>2022-01-12T13:49:09Z</time>
      </trkpt>
      <trkpt lat="49.87842" lon="2.14128">
        <ele>119.8</ele>
        <time>2022-01-12T13:49:10Z</time>
      </trkpt>
      <trkpt lat="49.87844" lon="2.14129">
        <ele>119.8</ele>
        <time>2022-01-12T13:49:12Z</time>
      </trkpt>
      <trkpt lat="49.87845" lon="2.14129">
        <ele>119.8</ele>
        <time>2022-01-12T13:49:13Z</time>
      </trkpt>
      <trkpt lat="49.87846" lon="2.14129">
        <ele>119.8</ele>
        <time>2022-01-12T13:49:14Z</time>
      </trkpt>
      <trkpt lat="49.87848" lon="2.1413">
        <ele>119.9</ele>
        <time>2022-01-12T13:49:15Z</time>
      </trkpt>
      <trkpt lat="49.87849" lon="2.1413">
        <ele>119.9</ele>
        <time>2022-01-12T13:49:16Z</time>
      </trkpt>
      <trkpt lat="49.87849" lon="2.1413">
        <ele>119.9</ele>
        <time>2022-01-12T13:49:17Z</time>
      </trkpt>
      <trkpt lat="49.87852" lon="2.14132">
        <ele>119.9</ele>
        <time>2022-01-12T13:49:19Z</time>
      </trkpt>
      <trkpt lat="49.87852" lon="2.14132">
        <ele>119.9</ele>
        <time>2022-01-12T13:49:20Z</time>
      </trkpt>
      <trkpt lat="49.87853" lon="2.14133">
        <ele>119.9</ele>
        <time>2022-01-12T13:49:21Z</time>
      </trkpt>
      <trkpt lat="49.87855" lon="2.14134">
        <ele>119.9</ele>
        <time>2022-01-12T13:49:22Z</time>
      </trkpt>
      <trkpt lat="49.87856" lon="2.14134">
        <ele>119.9</ele>
        <time>2022-01-12T13:49:23Z</time>
      </trkpt>
      <trkpt lat="49.87857" lon="2.14135">
        <ele>119.9</ele>
        <time>2022-01-12T13:49:24Z</time>
      </trkpt>
      <trkpt lat="49.87859" lon="2.14135">
        <ele>119.9</ele>
        <time>2022-01-12T13:49:25Z</time>
      </trkpt>
      <trkpt lat="49.8786" lon="2.14136">
        <ele>119.9</ele>
        <time>2022-01-12T13:49:27Z</time>
      </trkpt>
      <trkpt lat="49.87861" lon="2.14136">
        <ele>119.9</ele>
        <time>2022-01-12T13:49:28Z</time>
      </trkpt>
      <trkpt lat="49.87863" lon="2.14137">
        <ele>119.9</ele>
        <time>2022-01-12T13:49:29Z</time>
      </trkpt>
      <trkpt lat="49.87864" lon="2.14138">
        <ele>119.9</ele>
        <time>2022-01-12T13:49:30Z</time>
      </trkpt>
      <trkpt lat="49.87865" lon="2.14138">
        <ele>119.9</ele>
        <time>2022-01-12T13:49:31Z</time>
      </trkpt>
      <trkpt lat="49.87867" lon="2.14139">
        <ele>119.9</ele>
        <time>2022-01-12T13:49:32Z</time>
      </trkpt>
      <trkpt lat="49.87868" lon="2.14139">
        <ele>119.9</ele>
        <time>2022-01-12T13:49:33Z</time>
      </trkpt>
      <trkpt lat="49.87869" lon="2.1414">
        <ele>119.9</ele>
        <time>2022-01-12T13:49:34Z</time>
      </trkpt>
      <trkpt lat="49.87871" lon="2.14141">
        <ele>119.9</ele>
        <time>2022-01-12T13:49:35Z</time>
      </trkpt>
      <trkpt lat="49.87872" lon="2.14142">
        <ele>119.9</ele>
        <time>2022-01-12T13:49:37Z</time>
      </trkpt>
      <trkpt lat="49.87873" lon="2.14142">
        <ele>119.9</ele>
        <time>2022-01-12T13:49:38Z</time>
      </trkpt>
      <trkpt lat="49.87874" lon="2.14143">
        <ele>119.9</ele>
        <time>2022-01-12T13:49:39Z</time>
      </trkpt>
      <trkpt lat="49.87875" lon="2.14143">
        <ele>119.9</ele>
        <time>2022-01-12T13:49:40Z</time>
      </trkpt>
      <trkpt lat="49.87876" lon="2.14144">
        <ele>119.9</ele>
        <time>2022-01-12T13:49:41Z</time>
      </trkpt>
      <trkpt lat="49.87878" lon="2.14145">
        <ele>119.9</ele>
        <time>2022-01-12T13:49:42Z</time>
      </trkpt>
      <trkpt lat="49.87879" lon="2.14146">
        <ele>119.9</ele>
        <time>2022-01-12T13:49:44Z</time>
      </trkpt>
      <trkpt lat="49.87881" lon="2.14146">
        <ele>120</ele>
        <time>2022-01-12T13:49:45Z</time>
      </trkpt>
      <trkpt lat="49.87882" lon="2.14147">
        <ele>120</ele>
        <time>2022-01-12T13:49:46Z</time>
      </trkpt>
      <trkpt lat="49.87884" lon="2.14147">
        <ele>120</ele>
        <time>2022-01-12T13:49:47Z</time>
      </trkpt>
      <trkpt lat="49.87885" lon="2.14148">
        <ele>120</ele>
        <time>2022-01-12T13:49:48Z</time>
      </trkpt>
      <trkpt lat="49.87886" lon="2.14148">
        <ele>120</ele>
        <time>2022-01-12T13:49:49Z</time>
      </trkpt>
      <trkpt lat="49.87887" lon="2.14149">
        <ele>120</ele>
        <time>2022-01-12T13:49:51Z</time>
      </trkpt>
      <trkpt lat="49.87889" lon="2.1415">
        <ele>120</ele>
        <time>2022-01-12T13:49:52Z</time>
      </trkpt>
      <trkpt lat="49.8789" lon="2.14151">
        <ele>120</ele>
        <time>2022-01-12T13:49:53Z</time>
      </trkpt>
      <trkpt lat="49.87891" lon="2.14152">
        <ele>120</ele>
        <time>2022-01-12T13:49:54Z</time>
      </trkpt>
      <trkpt lat="49.87892" lon="2.14152">
        <ele>120.1</ele>
        <time>2022-01-12T13:49:55Z</time>
      </trkpt>
      <trkpt lat="49.87894" lon="2.14153">
        <ele>120.1</ele>
        <time>2022-01-12T13:49:57Z</time>
      </trkpt>
      <trkpt lat="49.87896" lon="2.14154">
        <ele>120.1</ele>
        <time>2022-01-12T13:49:58Z</time>
      </trkpt>
      <trkpt lat="49.87897" lon="2.14155">
        <ele>120.1</ele>
        <time>2022-01-12T13:49:59Z</time>
      </trkpt>
      <trkpt lat="49.87898" lon="2.14155">
        <ele>120.1</ele>
        <time>2022-01-12T13:50:00Z</time>
      </trkpt>
      <trkpt lat="49.879" lon="2.14156">
        <ele>120.1</ele>
        <time>2022-01-12T13:50:02Z</time>
      </trkpt>
      <trkpt lat="49.87901" lon="2.14157">
        <ele>120.1</ele>
        <time>2022-01-12T13:50:03Z</time>
      </trkpt>
      <trkpt lat="49.87902" lon="2.14157">
        <ele>120.1</ele>
        <time>2022-01-12T13:50:04Z</time>
      </trkpt>
      <trkpt lat="49.87903" lon="2.14158">
        <ele>120.1</ele>
        <time>2022-01-12T13:50:05Z</time>
      </trkpt>
      <trkpt lat="49.87904" lon="2.14158">
        <ele>120.1</ele>
        <time>2022-01-12T13:50:06Z</time>
      </trkpt>
      <trkpt lat="49.87906" lon="2.14159">
        <ele>120.1</ele>
        <time>2022-01-12T13:50:07Z</time>
      </trkpt>
      <trkpt lat="49.87906" lon="2.1416">
        <ele>120.1</ele>
        <time>2022-01-12T13:50:08Z</time>
      </trkpt>
      <trkpt lat="49.87907" lon="2.14161">
        <ele>120.1</ele>
        <time>2022-01-12T13:50:09Z</time>
      </trkpt>
      <trkpt lat="49.87909" lon="2.14162">
        <ele>120.1</ele>
        <time>2022-01-12T13:50:11Z</time>
      </trkpt>
      <trkpt lat="49.87911" lon="2.14163">
        <ele>120.1</ele>
        <time>2022-01-12T13:50:12Z</time>
      </trkpt>
      <trkpt lat="49.87912" lon="2.14163">
        <ele>120.1</ele>
        <time>2022-01-12T13:50:13Z</time>
      </trkpt>
      <trkpt lat="49.87913" lon="2.14163">
        <ele>120.1</ele>
        <time>2022-01-12T13:50:14Z</time>
      </trkpt>
      <trkpt lat="49.87915" lon="2.14164">
        <ele>120.1</ele>
        <time>2022-01-12T13:50:15Z</time>
      </trkpt>
      <trkpt lat="49.87916" lon="2.14164">
        <ele>120.1</ele>
        <time>2022-01-12T13:50:16Z</time>
      </trkpt>
      <trkpt lat="49.87917" lon="2.14164">
        <ele>120.1</ele>
        <time>2022-01-12T13:50:17Z</time>
      </trkpt>
      <trkpt lat="49.87919" lon="2.14165">
        <ele>120.1</ele>
        <time>2022-01-12T13:50:19Z</time>
      </trkpt>
      <trkpt lat="49.8792" lon="2.14166">
        <ele>120.1</ele>
        <time>2022-01-12T13:50:20Z</time>
      </trkpt>
      <trkpt lat="49.8792" lon="2.14166">
        <ele>120.1</ele>
        <time>2022-01-12T13:50:21Z</time>
      </trkpt>
      <trkpt lat="49.87922" lon="2.14167">
        <ele>120.1</ele>
        <time>2022-01-12T13:50:22Z</time>
      </trkpt>
      <trkpt lat="49.87923" lon="2.14168">
        <ele>120.1</ele>
        <time>2022-01-12T13:50:24Z</time>
      </trkpt>
      <trkpt lat="49.87925" lon="2.14169">
        <ele>120.1</ele>
        <time>2022-01-12T13:50:25Z</time>
      </trkpt>
      <trkpt lat="49.87926" lon="2.14169">
        <ele>120.1</ele>
        <time>2022-01-12T13:50:26Z</time>
      </trkpt>
      <trkpt lat="49.87928" lon="2.1417">
        <ele>120.1</ele>
        <time>2022-01-12T13:50:27Z</time>
      </trkpt>
      <trkpt lat="49.87929" lon="2.14171">
        <ele>120.1</ele>
        <time>2022-01-12T13:50:28Z</time>
      </trkpt>
      <trkpt lat="49.8793" lon="2.14171">
        <ele>120.1</ele>
        <time>2022-01-12T13:50:29Z</time>
      </trkpt>
      <trkpt lat="49.87931" lon="2.14171">
        <ele>120.1</ele>
        <time>2022-01-12T13:50:30Z</time>
      </trkpt>
      <trkpt lat="49.87932" lon="2.14172">
        <ele>120.1</ele>
        <time>2022-01-12T13:50:31Z</time>
      </trkpt>
      <trkpt lat="49.87934" lon="2.14172">
        <ele>120.1</ele>
        <time>2022-01-12T13:50:33Z</time>
      </trkpt>
      <trkpt lat="49.87935" lon="2.14172">
        <ele>120.1</ele>
        <time>2022-01-12T13:50:34Z</time>
      </trkpt>
      <trkpt lat="49.87936" lon="2.14173">
        <ele>120.1</ele>
        <time>2022-01-12T13:50:35Z</time>
      </trkpt>
      <trkpt lat="49.87937" lon="2.14173">
        <ele>120.1</ele>
        <time>2022-01-12T13:50:36Z</time>
      </trkpt>
      <trkpt lat="49.87939" lon="2.14174">
        <ele>120.1</ele>
        <time>2022-01-12T13:50:38Z</time>
      </trkpt>
      <trkpt lat="49.87941" lon="2.14174">
        <ele>120.1</ele>
        <time>2022-01-12T13:50:39Z</time>
      </trkpt>
      <trkpt lat="49.87942" lon="2.14175">
        <ele>120.1</ele>
        <time>2022-01-12T13:50:40Z</time>
      </trkpt>
      <trkpt lat="49.87943" lon="2.14175">
        <ele>120.1</ele>
        <time>2022-01-12T13:50:41Z</time>
      </trkpt>
      <trkpt lat="49.87945" lon="2.14175">
        <ele>120.1</ele>
        <time>2022-01-12T13:50:42Z</time>
      </trkpt>
      <trkpt lat="49.87946" lon="2.14175">
        <ele>120.1</ele>
        <time>2022-01-12T13:50:43Z</time>
      </trkpt>
      <trkpt lat="49.87948" lon="2.14175">
        <ele>120.1</ele>
        <time>2022-01-12T13:50:44Z</time>
      </trkpt>
      <trkpt lat="49.8795" lon="2.14175">
        <ele>120.1</ele>
        <time>2022-01-12T13:50:45Z</time>
      </trkpt>
      <trkpt lat="49.87951" lon="2.14175">
        <ele>120.1</ele>
        <time>2022-01-12T13:50:47Z</time>
      </trkpt>
      <trkpt lat="49.87952" lon="2.14175">
        <ele>120.1</ele>
        <time>2022-01-12T13:50:48Z</time>
      </trkpt>
      <trkpt lat="49.87954" lon="2.14176">
        <ele>120.1</ele>
        <time>2022-01-12T13:50:49Z</time>
      </trkpt>
      <trkpt lat="49.87955" lon="2.14176">
        <ele>120</ele>
        <time>2022-01-12T13:50:50Z</time>
      </trkpt>
      <trkpt lat="49.87956" lon="2.14176">
        <ele>120</ele>
        <time>2022-01-12T13:50:51Z</time>
      </trkpt>
      <trkpt lat="49.87957" lon="2.14176">
        <ele>120</ele>
        <time>2022-01-12T13:50:52Z</time>
      </trkpt>
      <trkpt lat="49.87959" lon="2.14177">
        <ele>120</ele>
        <time>2022-01-12T13:50:54Z</time>
      </trkpt>
      <trkpt lat="49.8796" lon="2.14177">
        <ele>120</ele>
        <time>2022-01-12T13:50:55Z</time>
      </trkpt>
      <trkpt lat="49.87961" lon="2.14177">
        <ele>120</ele>
        <time>2022-01-12T13:50:56Z</time>
      </trkpt>
      <trkpt lat="49.87963" lon="2.14177">
        <ele>120</ele>
        <time>2022-01-12T13:50:57Z</time>
      </trkpt>
      <trkpt lat="49.87964" lon="2.14177">
        <ele>120</ele>
        <time>2022-01-12T13:50:58Z</time>
      </trkpt>
      <trkpt lat="49.87965" lon="2.14177">
        <ele>120</ele>
        <time>2022-01-12T13:50:59Z</time>
      </trkpt>
      <trkpt lat="49.87967" lon="2.14178">
        <ele>120</ele>
        <time>2022-01-12T13:51:00Z</time>
      </trkpt>
      <trkpt lat="49.87968" lon="2.14178">
        <ele>120</ele>
        <time>2022-01-12T13:51:02Z</time>
      </trkpt>
      <trkpt lat="49.8797" lon="2.14178">
        <ele>120</ele>
        <time>2022-01-12T13:51:03Z</time>
      </trkpt>
      <trkpt lat="49.87971" lon="2.14178">
        <ele>120</ele>
        <time>2022-01-12T13:51:04Z</time>
      </trkpt>
      <trkpt lat="49.87972" lon="2.14179">
        <ele>120</ele>
        <time>2022-01-12T13:51:05Z</time>
      </trkpt>
      <trkpt lat="49.87974" lon="2.14179">
        <ele>120</ele>
        <time>2022-01-12T13:51:06Z</time>
      </trkpt>
      <trkpt lat="49.87975" lon="2.14179">
        <ele>120</ele>
        <time>2022-01-12T13:51:07Z</time>
      </trkpt>
      <trkpt lat="49.87977" lon="2.1418">
        <ele>120</ele>
        <time>2022-01-12T13:51:08Z</time>
      </trkpt>
      <trkpt lat="49.87978" lon="2.1418">
        <ele>120</ele>
        <time>2022-01-12T13:51:10Z</time>
      </trkpt>
      <trkpt lat="49.87978" lon="2.1418">
        <ele>120</ele>
        <time>2022-01-12T13:51:11Z</time>
      </trkpt>
      <trkpt lat="49.87981" lon="2.1418">
        <ele>120</ele>
        <time>2022-01-12T13:51:12Z</time>
      </trkpt>
      <trkpt lat="49.87982" lon="2.1418">
        <ele>120</ele>
        <time>2022-01-12T13:51:13Z</time>
      </trkpt>
      <trkpt lat="49.87983" lon="2.1418">
        <ele>120</ele>
        <time>2022-01-12T13:51:14Z</time>
      </trkpt>
      <trkpt lat="49.87985" lon="2.1418">
        <ele>120</ele>
        <time>2022-01-12T13:51:15Z</time>
      </trkpt>
      <trkpt lat="49.87985" lon="2.1418">
        <ele>120</ele>
        <time>2022-01-12T13:51:16Z</time>
      </trkpt>
      <trkpt lat="49.87986" lon="2.1418">
        <ele>120</ele>
        <time>2022-01-12T13:51:17Z</time>
      </trkpt>
      <trkpt lat="49.87988" lon="2.14181">
        <ele>120</ele>
        <time>2022-01-12T13:51:19Z</time>
      </trkpt>
      <trkpt lat="49.87989" lon="2.14181">
        <ele>120</ele>
        <time>2022-01-12T13:51:20Z</time>
      </trkpt>
      <trkpt lat="49.87991" lon="2.14182">
        <ele>120</ele>
        <time>2022-01-12T13:51:21Z</time>
      </trkpt>
      <trkpt lat="49.87992" lon="2.14182">
        <ele>120</ele>
        <time>2022-01-12T13:51:22Z</time>
      </trkpt>
      <trkpt lat="49.87993" lon="2.14182">
        <ele>120</ele>
        <time>2022-01-12T13:51:23Z</time>
      </trkpt>
      <trkpt lat="49.87995" lon="2.14181">
        <ele>120</ele>
        <time>2022-01-12T13:51:24Z</time>
      </trkpt>
      <trkpt lat="49.87996" lon="2.14181">
        <ele>120</ele>
        <time>2022-01-12T13:51:25Z</time>
      </trkpt>
      <trkpt lat="49.87997" lon="2.14181">
        <ele>120</ele>
        <time>2022-01-12T13:51:26Z</time>
      </trkpt>
      <trkpt lat="49.88" lon="2.14181">
        <ele>120</ele>
        <time>2022-01-12T13:51:28Z</time>
      </trkpt>
      <trkpt lat="49.88" lon="2.14181">
        <ele>120</ele>
        <time>2022-01-12T13:51:29Z</time>
      </trkpt>
      <trkpt lat="49.88002" lon="2.14181">
        <ele>120</ele>
        <time>2022-01-12T13:51:30Z</time>
      </trkpt>
      <trkpt lat="49.88004" lon="2.14182">
        <ele>120</ele>
        <time>2022-01-12T13:51:31Z</time>
      </trkpt>
      <trkpt lat="49.88005" lon="2.14182">
        <ele>120</ele>
        <time>2022-01-12T13:51:33Z</time>
      </trkpt>
      <trkpt lat="49.88007" lon="2.14182">
        <ele>120</ele>
        <time>2022-01-12T13:51:34Z</time>
      </trkpt>
      <trkpt lat="49.88008" lon="2.14182">
        <ele>120</ele>
        <time>2022-01-12T13:51:35Z</time>
      </trkpt>
      <trkpt lat="49.88009" lon="2.14182">
        <ele>120</ele>
        <time>2022-01-12T13:51:36Z</time>
      </trkpt>
      <trkpt lat="49.88011" lon="2.14181">
        <ele>120</ele>
        <time>2022-01-12T13:51:38Z</time>
      </trkpt>
      <trkpt lat="49.88012" lon="2.14181">
        <ele>120</ele>
        <time>2022-01-12T13:51:39Z</time>
      </trkpt>
      <trkpt lat="49.88014" lon="2.14181">
        <ele>120</ele>
        <time>2022-01-12T13:51:40Z</time>
      </trkpt>
      <trkpt lat="49.88015" lon="2.14181">
        <ele>120</ele>
        <time>2022-01-12T13:51:41Z</time>
      </trkpt>
      <trkpt lat="49.88016" lon="2.1418">
        <ele>120</ele>
        <time>2022-01-12T13:51:42Z</time>
      </trkpt>
      <trkpt lat="49.88018" lon="2.1418">
        <ele>120</ele>
        <time>2022-01-12T13:51:43Z</time>
      </trkpt>
      <trkpt lat="49.88019" lon="2.1418">
        <ele>120</ele>
        <time>2022-01-12T13:51:44Z</time>
      </trkpt>
      <trkpt lat="49.8802" lon="2.1418">
        <ele>120</ele>
        <time>2022-01-12T13:51:45Z</time>
      </trkpt>
      <trkpt lat="49.88022" lon="2.1418">
        <ele>120</ele>
        <time>2022-01-12T13:51:47Z</time>
      </trkpt>
      <trkpt lat="49.88023" lon="2.1418">
        <ele>120</ele>
        <time>2022-01-12T13:51:48Z</time>
      </trkpt>
      <trkpt lat="49.88024" lon="2.14179">
        <ele>120</ele>
        <time>2022-01-12T13:51:49Z</time>
      </trkpt>
      <trkpt lat="49.88025" lon="2.14179">
        <ele>120</ele>
        <time>2022-01-12T13:51:50Z</time>
      </trkpt>
      <trkpt lat="49.88026" lon="2.14179">
        <ele>120</ele>
        <time>2022-01-12T13:51:51Z</time>
      </trkpt>
      <trkpt lat="49.88027" lon="2.14179">
        <ele>120</ele>
        <time>2022-01-12T13:51:52Z</time>
      </trkpt>
      <trkpt lat="49.88029" lon="2.14179">
        <ele>120</ele>
        <time>2022-01-12T13:51:53Z</time>
      </trkpt>
      <trkpt lat="49.8803" lon="2.14179">
        <ele>120</ele>
        <time>2022-01-12T13:51:54Z</time>
      </trkpt>
      <trkpt lat="49.88031" lon="2.14179">
        <ele>120</ele>
        <time>2022-01-12T13:51:55Z</time>
      </trkpt>
      <trkpt lat="49.88033" lon="2.1418">
        <ele>120</ele>
        <time>2022-01-12T13:51:56Z</time>
      </trkpt>
      <trkpt lat="49.88034" lon="2.1418">
        <ele>120</ele>
        <time>2022-01-12T13:51:57Z</time>
      </trkpt>
      <trkpt lat="49.88034" lon="2.1418">
        <ele>120</ele>
        <time>2022-01-12T13:51:58Z</time>
      </trkpt>
      <trkpt lat="49.88037" lon="2.14181">
        <ele>120</ele>
        <time>2022-01-12T13:51:59Z</time>
      </trkpt>
      <trkpt lat="49.88038" lon="2.14181">
        <ele>120</ele>
        <time>2022-01-12T13:52:01Z</time>
      </trkpt>
      <trkpt lat="49.88039" lon="2.14181">
        <ele>120</ele>
        <time>2022-01-12T13:52:02Z</time>
      </trkpt>
      <trkpt lat="49.8804" lon="2.14181">
        <ele>120</ele>
        <time>2022-01-12T13:52:03Z</time>
      </trkpt>
      <trkpt lat="49.88041" lon="2.14181">
        <ele>120</ele>
        <time>2022-01-12T13:52:04Z</time>
      </trkpt>
      <trkpt lat="49.88042" lon="2.14181">
        <ele>120</ele>
        <time>2022-01-12T13:52:05Z</time>
      </trkpt>
      <trkpt lat="49.88043" lon="2.14181">
        <ele>120</ele>
        <time>2022-01-12T13:52:06Z</time>
      </trkpt>
      <trkpt lat="49.88046" lon="2.14182">
        <ele>120</ele>
        <time>2022-01-12T13:52:08Z</time>
      </trkpt>
      <trkpt lat="49.88048" lon="2.14182">
        <ele>119.9</ele>
        <time>2022-01-12T13:52:10Z</time>
      </trkpt>
      <trkpt lat="49.88049" lon="2.14182">
        <ele>119.9</ele>
        <time>2022-01-12T13:52:11Z</time>
      </trkpt>
      <trkpt lat="49.88051" lon="2.14182">
        <ele>119.9</ele>
        <time>2022-01-12T13:52:12Z</time>
      </trkpt>
      <trkpt lat="49.88053" lon="2.14182">
        <ele>119.9</ele>
        <time>2022-01-12T13:52:13Z</time>
      </trkpt>
      <trkpt lat="49.88056" lon="2.14182">
        <ele>119.9</ele>
        <time>2022-01-12T13:52:15Z</time>
      </trkpt>
      <trkpt lat="49.88057" lon="2.14182">
        <ele>119.9</ele>
        <time>2022-01-12T13:52:16Z</time>
      </trkpt>
      <trkpt lat="49.88059" lon="2.14183">
        <ele>119.9</ele>
        <time>2022-01-12T13:52:17Z</time>
      </trkpt>
      <trkpt lat="49.88059" lon="2.14183">
        <ele>119.9</ele>
        <time>2022-01-12T13:52:18Z</time>
      </trkpt>
      <trkpt lat="49.8806" lon="2.14183">
        <ele>119.9</ele>
        <time>2022-01-12T13:52:19Z</time>
      </trkpt>
      <trkpt lat="49.88061" lon="2.14183">
        <ele>119.9</ele>
        <time>2022-01-12T13:52:20Z</time>
      </trkpt>
      <trkpt lat="49.88063" lon="2.14183">
        <ele>119.9</ele>
        <time>2022-01-12T13:52:21Z</time>
      </trkpt>
      <trkpt lat="49.88065" lon="2.14183">
        <ele>119.9</ele>
        <time>2022-01-12T13:52:23Z</time>
      </trkpt>
      <trkpt lat="49.88066" lon="2.14183">
        <ele>119.9</ele>
        <time>2022-01-12T13:52:24Z</time>
      </trkpt>
      <trkpt lat="49.88068" lon="2.14183">
        <ele>119.9</ele>
        <time>2022-01-12T13:52:25Z</time>
      </trkpt>
      <trkpt lat="49.88069" lon="2.14183">
        <ele>119.9</ele>
        <time>2022-01-12T13:52:26Z</time>
      </trkpt>
      <trkpt lat="49.8807" lon="2.14183">
        <ele>119.9</ele>
        <time>2022-01-12T13:52:27Z</time>
      </trkpt>
      <trkpt lat="49.88073" lon="2.14182">
        <ele>119.9</ele>
        <time>2022-01-12T13:52:29Z</time>
      </trkpt>
      <trkpt lat="49.88075" lon="2.14182">
        <ele>119.9</ele>
        <time>2022-01-12T13:52:30Z</time>
      </trkpt>
      <trkpt lat="49.88076" lon="2.14183">
        <ele>119.9</ele>
        <time>2022-01-12T13:52:31Z</time>
      </trkpt>
      <trkpt lat="49.88076" lon="2.14183">
        <ele>119.9</ele>
        <time>2022-01-12T13:52:32Z</time>
      </trkpt>
      <trkpt lat="49.88078" lon="2.14183">
        <ele>119.9</ele>
        <time>2022-01-12T13:52:34Z</time>
      </trkpt>
      <trkpt lat="49.88079" lon="2.14183">
        <ele>119.9</ele>
        <time>2022-01-12T13:52:35Z</time>
      </trkpt>
      <trkpt lat="49.88081" lon="2.14183">
        <ele>119.9</ele>
        <time>2022-01-12T13:52:36Z</time>
      </trkpt>
      <trkpt lat="49.88082" lon="2.14184">
        <ele>119.9</ele>
        <time>2022-01-12T13:52:37Z</time>
      </trkpt>
      <trkpt lat="49.88084" lon="2.14184">
        <ele>119.9</ele>
        <time>2022-01-12T13:52:38Z</time>
      </trkpt>
      <trkpt lat="49.88085" lon="2.14183">
        <ele>119.9</ele>
        <time>2022-01-12T13:52:39Z</time>
      </trkpt>
      <trkpt lat="49.88086" lon="2.14183">
        <ele>119.9</ele>
        <time>2022-01-12T13:52:40Z</time>
      </trkpt>
      <trkpt lat="49.88088" lon="2.14183">
        <ele>119.9</ele>
        <time>2022-01-12T13:52:42Z</time>
      </trkpt>
      <trkpt lat="49.8809" lon="2.14183">
        <ele>119.9</ele>
        <time>2022-01-12T13:52:43Z</time>
      </trkpt>
      <trkpt lat="49.88091" lon="2.14183">
        <ele>119.9</ele>
        <time>2022-01-12T13:52:44Z</time>
      </trkpt>
      <trkpt lat="49.88092" lon="2.14183">
        <ele>119.9</ele>
        <time>2022-01-12T13:52:45Z</time>
      </trkpt>
      <trkpt lat="49.88094" lon="2.14183">
        <ele>119.9</ele>
        <time>2022-01-12T13:52:46Z</time>
      </trkpt>
      <trkpt lat="49.88096" lon="2.14183">
        <ele>119.9</ele>
        <time>2022-01-12T13:52:48Z</time>
      </trkpt>
      <trkpt lat="49.88097" lon="2.14183">
        <ele>119.9</ele>
        <time>2022-01-12T13:52:49Z</time>
      </trkpt>
      <trkpt lat="49.88098" lon="2.14183">
        <ele>119.9</ele>
        <time>2022-01-12T13:52:50Z</time>
      </trkpt>
      <trkpt lat="49.881" lon="2.14183">
        <ele>119.9</ele>
        <time>2022-01-12T13:52:51Z</time>
      </trkpt>
      <trkpt lat="49.881" lon="2.14183">
        <ele>119.9</ele>
        <time>2022-01-12T13:52:52Z</time>
      </trkpt>
      <trkpt lat="49.88101" lon="2.14183">
        <ele>119.8</ele>
        <time>2022-01-12T13:52:53Z</time>
      </trkpt>
      <trkpt lat="49.88102" lon="2.14183">
        <ele>119.8</ele>
        <time>2022-01-12T13:52:54Z</time>
      </trkpt>
      <trkpt lat="49.88103" lon="2.14183">
        <ele>119.8</ele>
        <time>2022-01-12T13:52:55Z</time>
      </trkpt>
      <trkpt lat="49.88104" lon="2.14182">
        <ele>119.8</ele>
        <time>2022-01-12T13:52:56Z</time>
      </trkpt>
      <trkpt lat="49.88107" lon="2.14182">
        <ele>119.8</ele>
        <time>2022-01-12T13:52:57Z</time>
      </trkpt>
      <trkpt lat="49.88108" lon="2.14182">
        <ele>119.8</ele>
        <time>2022-01-12T13:52:59Z</time>
      </trkpt>
      <trkpt lat="49.88109" lon="2.14182">
        <ele>119.8</ele>
        <time>2022-01-12T13:53:00Z</time>
      </trkpt>
      <trkpt lat="49.8811" lon="2.14182">
        <ele>119.8</ele>
        <time>2022-01-12T13:53:01Z</time>
      </trkpt>
      <trkpt lat="49.88111" lon="2.14182">
        <ele>119.8</ele>
        <time>2022-01-12T13:53:03Z</time>
      </trkpt>
      <trkpt lat="49.88113" lon="2.14182">
        <ele>119.8</ele>
        <time>2022-01-12T13:53:04Z</time>
      </trkpt>
      <trkpt lat="49.88114" lon="2.14182">
        <ele>119.8</ele>
        <time>2022-01-12T13:53:05Z</time>
      </trkpt>
      <trkpt lat="49.88115" lon="2.14182">
        <ele>119.8</ele>
        <time>2022-01-12T13:53:06Z</time>
      </trkpt>
      <trkpt lat="49.88116" lon="2.14183">
        <ele>119.8</ele>
        <time>2022-01-12T13:53:07Z</time>
      </trkpt>
      <trkpt lat="49.88118" lon="2.14183">
        <ele>119.8</ele>
        <time>2022-01-12T13:53:08Z</time>
      </trkpt>
      <trkpt lat="49.8812" lon="2.14184">
        <ele>119.8</ele>
        <time>2022-01-12T13:53:09Z</time>
      </trkpt>
      <trkpt lat="49.8812" lon="2.14184">
        <ele>119.8</ele>
        <time>2022-01-12T13:53:11Z</time>
      </trkpt>
      <trkpt lat="49.88121" lon="2.14184">
        <ele>119.8</ele>
        <time>2022-01-12T13:53:12Z</time>
      </trkpt>
      <trkpt lat="49.88122" lon="2.14185">
        <ele>119.8</ele>
        <time>2022-01-12T13:53:13Z</time>
      </trkpt>
      <trkpt lat="49.88123" lon="2.14185">
        <ele>119.8</ele>
        <time>2022-01-12T13:53:14Z</time>
      </trkpt>
      <trkpt lat="49.88124" lon="2.14186">
        <ele>119.8</ele>
        <time>2022-01-12T13:53:15Z</time>
      </trkpt>
      <trkpt lat="49.88125" lon="2.14187">
        <ele>119.7</ele>
        <time>2022-01-12T13:53:17Z</time>
      </trkpt>
      <trkpt lat="49.88126" lon="2.14188">
        <ele>119.7</ele>
        <time>2022-01-12T13:53:18Z</time>
      </trkpt>
      <trkpt lat="49.88126" lon="2.14189">
        <ele>119.7</ele>
        <time>2022-01-12T13:53:20Z</time>
      </trkpt>
      <trkpt lat="49.88127" lon="2.1419">
        <ele>119.7</ele>
        <time>2022-01-12T13:53:21Z</time>
      </trkpt>
      <trkpt lat="49.88128" lon="2.1419">
        <ele>119.7</ele>
        <time>2022-01-12T13:53:22Z</time>
      </trkpt>
      <trkpt lat="49.88128" lon="2.1419">
        <ele>119.7</ele>
        <time>2022-01-12T13:53:23Z</time>
      </trkpt>
      <trkpt lat="49.88128" lon="2.1419">
        <ele>119.7</ele>
        <time>2022-01-12T13:53:25Z</time>
      </trkpt>
      <trkpt lat="49.88128" lon="2.1419">
        <ele>119.7</ele>
        <time>2022-01-12T13:53:26Z</time>
      </trkpt>
      <trkpt lat="49.88128" lon="2.1419">
        <ele>119.7</ele>
        <time>2022-01-12T13:53:28Z</time>
      </trkpt>
      <trkpt lat="49.88128" lon="2.1419">
        <ele>119.7</ele>
        <time>2022-01-12T13:53:30Z</time>
      </trkpt>
      <trkpt lat="49.88128" lon="2.1419">
        <ele>119.7</ele>
        <time>2022-01-12T13:53:32Z</time>
      </trkpt>
      <trkpt lat="49.88128" lon="2.1419">
        <ele>119.7</ele>
        <time>2022-01-12T13:53:33Z</time>
      </trkpt>
      <trkpt lat="49.88128" lon="2.14191">
        <ele>119.7</ele>
        <time>2022-01-12T13:53:35Z</time>
      </trkpt>
      <trkpt lat="49.88128" lon="2.14191">
        <ele>119.7</ele>
        <time>2022-01-12T13:53:37Z</time>
      </trkpt>
      <trkpt lat="49.88128" lon="2.14191">
        <ele>119.7</ele>
        <time>2022-01-12T13:53:38Z</time>
      </trkpt>
      <trkpt lat="49.88128" lon="2.14191">
        <ele>119.7</ele>
        <time>2022-01-12T13:53:39Z</time>
      </trkpt>
      <trkpt lat="49.88128" lon="2.14191">
        <ele>119.7</ele>
        <time>2022-01-12T13:53:41Z</time>
      </trkpt>
      <trkpt lat="49.88128" lon="2.14191">
        <ele>119.7</ele>
        <time>2022-01-12T13:53:42Z</time>
      </trkpt>
      <trkpt lat="49.88128" lon="2.14191">
        <ele>119.7</ele>
        <time>2022-01-12T13:53:43Z</time>
      </trkpt>
      <trkpt lat="49.88128" lon="2.14191">
        <ele>119.7</ele>
        <time>2022-01-12T13:53:45Z</time>
      </trkpt>
      <trkpt lat="49.88128" lon="2.14191">
        <ele>119.7</ele>
        <time>2022-01-12T13:53:47Z</time>
      </trkpt>
      <trkpt lat="49.88128" lon="2.14191">
        <ele>119.7</ele>
        <time>2022-01-12T13:53:48Z</time>
      </trkpt>
      <trkpt lat="49.88128" lon="2.14191">
        <ele>119.7</ele>
        <time>2022-01-12T13:53:49Z</time>
      </trkpt>
      <trkpt lat="49.88128" lon="2.14191">
        <ele>119.7</ele>
        <time>2022-01-12T13:53:50Z</time>
      </trkpt>
      <trkpt lat="49.88128" lon="2.14191">
        <ele>119.7</ele>
        <time>2022-01-12T13:53:51Z</time>
      </trkpt>
      <trkpt lat="49.88128" lon="2.14192">
        <ele>119.7</ele>
        <time>2022-01-12T13:53:53Z</time>
      </trkpt>
      <trkpt lat="49.88128" lon="2.14192">
        <ele>119.7</ele>
        <time>2022-01-12T13:53:55Z</time>
      </trkpt>
      <trkpt lat="49.88128" lon="2.14192">
        <ele>119.7</ele>
        <time>2022-01-12T13:53:56Z</time>
      </trkpt>
      <trkpt lat="49.88128" lon="2.14192">
        <ele>119.7</ele>
        <time>2022-01-12T13:53:57Z</time>
      </trkpt>
      <trkpt lat="49.88128" lon="2.14192">
        <ele>119.7</ele>
        <time>2022-01-12T13:53:58Z</time>
      </trkpt>
      <trkpt lat="49.88128" lon="2.14192">
        <ele>119.7</ele>
        <time>2022-01-12T13:54:00Z</time>
      </trkpt>
      <trkpt lat="49.88128" lon="2.14192">
        <ele>119.7</ele>
        <time>2022-01-12T13:54:01Z</time>
      </trkpt>
      <trkpt lat="49.88128" lon="2.14192">
        <ele>119.7</ele>
        <time>2022-01-12T13:54:03Z</time>
      </trkpt>
      <trkpt lat="49.88128" lon="2.14192">
        <ele>119.7</ele>
        <time>2022-01-12T13:54:04Z</time>
      </trkpt>
      <trkpt lat="49.88128" lon="2.14192">
        <ele>119.7</ele>
        <time>2022-01-12T13:54:06Z</time>
      </trkpt>
      <trkpt lat="49.88128" lon="2.14192">
        <ele>119.7</ele>
        <time>2022-01-12T13:54:07Z</time>
      </trkpt>
      <trkpt lat="49.88128" lon="2.14192">
        <ele>119.7</ele>
        <time>2022-01-12T13:54:09Z</time>
      </trkpt>
      <trkpt lat="49.88128" lon="2.14192">
        <ele>119.7</ele>
        <time>2022-01-12T13:54:11Z</time>
      </trkpt>
      <trkpt lat="49.88128" lon="2.14193">
        <ele>119.7</ele>
        <time>2022-01-12T13:54:12Z</time>
      </trkpt>
      <trkpt lat="49.88128" lon="2.14193">
        <ele>119.7</ele>
        <time>2022-01-12T13:54:13Z</time>
      </trkpt>
      <trkpt lat="49.88128" lon="2.14193">
        <ele>119.7</ele>
        <time>2022-01-12T13:54:15Z</time>
      </trkpt>
      <trkpt lat="49.88128" lon="2.14193">
        <ele>119.7</ele>
        <time>2022-01-12T13:54:17Z</time>
      </trkpt>
      <trkpt lat="49.88128" lon="2.14193">
        <ele>119.7</ele>
        <time>2022-01-12T13:54:19Z</time>
      </trkpt>
      <trkpt lat="49.88128" lon="2.14193">
        <ele>119.7</ele>
        <time>2022-01-12T13:54:20Z</time>
      </trkpt>
      <trkpt lat="49.88128" lon="2.14193">
        <ele>119.7</ele>
        <time>2022-01-12T13:54:21Z</time>
      </trkpt>
      <trkpt lat="49.88128" lon="2.14193">
        <ele>119.7</ele>
        <time>2022-01-12T13:54:23Z</time>
      </trkpt>
      <trkpt lat="49.88128" lon="2.14193">
        <ele>119.7</ele>
        <time>2022-01-12T13:54:24Z</time>
      </trkpt>
      <trkpt lat="49.88128" lon="2.14193">
        <ele>119.7</ele>
        <time>2022-01-12T13:54:26Z</time>
      </trkpt>
      <trkpt lat="49.88128" lon="2.14193">
        <ele>119.7</ele>
        <time>2022-01-12T13:54:27Z</time>
      </trkpt>
      <trkpt lat="49.88128" lon="2.14193">
        <ele>119.7</ele>
        <time>2022-01-12T13:54:29Z</time>
      </trkpt>
      <trkpt lat="49.88128" lon="2.14193">
        <ele>119.7</ele>
        <time>2022-01-12T13:54:31Z</time>
      </trkpt>
      <trkpt lat="49.88128" lon="2.14194">
        <ele>119.7</ele>
        <time>2022-01-12T13:54:33Z</time>
      </trkpt>
      <trkpt lat="49.88128" lon="2.14194">
        <ele>119.7</ele>
        <time>2022-01-12T13:54:35Z</time>
      </trkpt>
      <trkpt lat="49.88128" lon="2.14194">
        <ele>119.7</ele>
        <time>2022-01-12T13:54:36Z</time>
      </trkpt>
      <trkpt lat="49.88128" lon="2.14194">
        <ele>119.7</ele>
        <time>2022-01-12T13:54:37Z</time>
      </trkpt>
      <trkpt lat="49.88128" lon="2.14194">
        <ele>119.7</ele>
        <time>2022-01-12T13:54:39Z</time>
      </trkpt>
      <trkpt lat="49.88128" lon="2.14194">
        <ele>119.7</ele>
        <time>2022-01-12T13:54:40Z</time>
      </trkpt>
      <trkpt lat="49.88128" lon="2.14194">
        <ele>119.7</ele>
        <time>2022-01-12T13:54:41Z</time>
      </trkpt>
      <trkpt lat="49.88128" lon="2.14199">
        <ele>119.7</ele>
        <time>2022-01-12T13:54:42Z</time>
      </trkpt>
      <trkpt lat="49.88128" lon="2.142">
        <ele>119.7</ele>
        <time>2022-01-12T13:54:43Z</time>
      </trkpt>
      <trkpt lat="49.88128" lon="2.14205">
        <ele>119.7</ele>
        <time>2022-01-12T13:54:44Z</time>
      </trkpt>
      <trkpt lat="49.88128" lon="2.14206">
        <ele>119.7</ele>
        <time>2022-01-12T13:54:45Z</time>
      </trkpt>
      <trkpt lat="49.88127" lon="2.14208">
        <ele>119.7</ele>
        <time>2022-01-12T13:54:46Z</time>
      </trkpt>
      <trkpt lat="49.88127" lon="2.14211">
        <ele>119.7</ele>
        <time>2022-01-12T13:54:47Z</time>
      </trkpt>
      <trkpt lat="49.88126" lon="2.14214">
        <ele>119.6</ele>
        <time>2022-01-12T13:54:49Z</time>
      </trkpt>
      <trkpt lat="49.88126" lon="2.14216">
        <ele>119.6</ele>
        <time>2022-01-12T13:54:50Z</time>
      </trkpt>
      <trkpt lat="49.88126" lon="2.14219">
        <ele>119.6</ele>
        <time>2022-01-12T13:54:51Z</time>
      </trkpt>
      <trkpt lat="49.88126" lon="2.14221">
        <ele>119.6</ele>
        <time>2022-01-12T13:54:52Z</time>
      </trkpt>
      <trkpt lat="49.88125" lon="2.14226">
        <ele>119.6</ele>
        <time>2022-01-12T13:54:54Z</time>
      </trkpt>
      <trkpt lat="49.88124" lon="2.14227">
        <ele>119.6</ele>
        <time>2022-01-12T13:54:55Z</time>
      </trkpt>
      <trkpt lat="49.88124" lon="2.14229">
        <ele>119.6</ele>
        <time>2022-01-12T13:54:56Z</time>
      </trkpt>
      <trkpt lat="49.88124" lon="2.14231">
        <ele>119.6</ele>
        <time>2022-01-12T13:54:57Z</time>
      </trkpt>
      <trkpt lat="49.88123" lon="2.14233">
        <ele>119.6</ele>
        <time>2022-01-12T13:54:58Z</time>
      </trkpt>
      <trkpt lat="49.88123" lon="2.14235">
        <ele>119.6</ele>
        <time>2022-01-12T13:54:59Z</time>
      </trkpt>
      <trkpt lat="49.88123" lon="2.14237">
        <ele>119.6</ele>
        <time>2022-01-12T13:55:00Z</time>
      </trkpt>
      <trkpt lat="49.88122" lon="2.14239">
        <ele>119.6</ele>
        <time>2022-01-12T13:55:01Z</time>
      </trkpt>
      <trkpt lat="49.88122" lon="2.14242">
        <ele>119.6</ele>
        <time>2022-01-12T13:55:03Z</time>
      </trkpt>
      <trkpt lat="49.88121" lon="2.14245">
        <ele>119.5</ele>
        <time>2022-01-12T13:55:04Z</time>
      </trkpt>
      <trkpt lat="49.88121" lon="2.14246">
        <ele>119.5</ele>
        <time>2022-01-12T13:55:05Z</time>
      </trkpt>
      <trkpt lat="49.88121" lon="2.14248">
        <ele>119.5</ele>
        <time>2022-01-12T13:55:06Z</time>
      </trkpt>
      <trkpt lat="49.8812" lon="2.1425">
        <ele>119.5</ele>
        <time>2022-01-12T13:55:07Z</time>
      </trkpt>
      <trkpt lat="49.8812" lon="2.14252">
        <ele>119.5</ele>
        <time>2022-01-12T13:55:08Z</time>
      </trkpt>
      <trkpt lat="49.88119" lon="2.14253">
        <ele>119.5</ele>
        <time>2022-01-12T13:55:09Z</time>
      </trkpt>
      <trkpt lat="49.88119" lon="2.14256">
        <ele>119.5</ele>
        <time>2022-01-12T13:55:11Z</time>
      </trkpt>
      <trkpt lat="49.88119" lon="2.14257">
        <ele>119.5</ele>
        <time>2022-01-12T13:55:12Z</time>
      </trkpt>
      <trkpt lat="49.88118" lon="2.14259">
        <ele>119.5</ele>
        <time>2022-01-12T13:55:13Z</time>
      </trkpt>
      <trkpt lat="49.88118" lon="2.14261">
        <ele>119.5</ele>
        <time>2022-01-12T13:55:14Z</time>
      </trkpt>
      <trkpt lat="49.88118" lon="2.14264">
        <ele>119.5</ele>
        <time>2022-01-12T13:55:15Z</time>
      </trkpt>
      <trkpt lat="49.88118" lon="2.14265">
        <ele>119.5</ele>
        <time>2022-01-12T13:55:16Z</time>
      </trkpt>
      <trkpt lat="49.88118" lon="2.14266">
        <ele>119.5</ele>
        <time>2022-01-12T13:55:17Z</time>
      </trkpt>
      <trkpt lat="49.88117" lon="2.14269">
        <ele>119.4</ele>
        <time>2022-01-12T13:55:18Z</time>
      </trkpt>
      <trkpt lat="49.88117" lon="2.14271">
        <ele>119.4</ele>
        <time>2022-01-12T13:55:19Z</time>
      </trkpt>
      <trkpt lat="49.88116" lon="2.14272">
        <ele>119.4</ele>
        <time>2022-01-12T13:55:21Z</time>
      </trkpt>
      <trkpt lat="49.88116" lon="2.14274">
        <ele>119.4</ele>
        <time>2022-01-12T13:55:22Z</time>
      </trkpt>
      <trkpt lat="49.88115" lon="2.14275">
        <ele>119.4</ele>
        <time>2022-01-12T13:55:23Z</time>
      </trkpt>
      <trkpt lat="49.88115" lon="2.14277">
        <ele>119.4</ele>
        <time>2022-01-12T13:55:24Z</time>
      </trkpt>
      <trkpt lat="49.88115" lon="2.14278">
        <ele>119.4</ele>
        <time>2022-01-12T13:55:25Z</time>
      </trkpt>
      <trkpt lat="49.88115" lon="2.1428">
        <ele>119.4</ele>
        <time>2022-01-12T13:55:26Z</time>
      </trkpt>
      <trkpt lat="49.88114" lon="2.14281">
        <ele>119.4</ele>
        <time>2022-01-12T13:55:27Z</time>
      </trkpt>
      <trkpt lat="49.88113" lon="2.14284">
        <ele>119.4</ele>
        <time>2022-01-12T13:55:28Z</time>
      </trkpt>
      <trkpt lat="49.88113" lon="2.14285">
        <ele>119.4</ele>
        <time>2022-01-12T13:55:29Z</time>
      </trkpt>
      <trkpt lat="49.88112" lon="2.14286">
        <ele>119.4</ele>
        <time>2022-01-12T13:55:30Z</time>
      </trkpt>
      <trkpt lat="49.88112" lon="2.14288">
        <ele>119.4</ele>
        <time>2022-01-12T13:55:31Z</time>
      </trkpt>
      <trkpt lat="49.88111" lon="2.1429">
        <ele>119.4</ele>
        <time>2022-01-12T13:55:32Z</time>
      </trkpt>
      <trkpt lat="49.8811" lon="2.14291">
        <ele>119.4</ele>
        <time>2022-01-12T13:55:34Z</time>
      </trkpt>
      <trkpt lat="49.88109" lon="2.14294">
        <ele>119.4</ele>
        <time>2022-01-12T13:55:35Z</time>
      </trkpt>
      <trkpt lat="49.88108" lon="2.14295">
        <ele>119.3</ele>
        <time>2022-01-12T13:55:36Z</time>
      </trkpt>
      <trkpt lat="49.88108" lon="2.14296">
        <ele>119.3</ele>
        <time>2022-01-12T13:55:37Z</time>
      </trkpt>
      <trkpt lat="49.88106" lon="2.14298">
        <ele>119.3</ele>
        <time>2022-01-12T13:55:38Z</time>
      </trkpt>
      <trkpt lat="49.88106" lon="2.14299">
        <ele>119.3</ele>
        <time>2022-01-12T13:55:39Z</time>
      </trkpt>
      <trkpt lat="49.88105" lon="2.143">
        <ele>119.3</ele>
        <time>2022-01-12T13:55:40Z</time>
      </trkpt>
      <trkpt lat="49.88104" lon="2.14302">
        <ele>119.3</ele>
        <time>2022-01-12T13:55:41Z</time>
      </trkpt>
      <trkpt lat="49.88103" lon="2.14303">
        <ele>119.3</ele>
        <time>2022-01-12T13:55:42Z</time>
      </trkpt>
      <trkpt lat="49.88103" lon="2.14304">
        <ele>119.3</ele>
        <time>2022-01-12T13:55:43Z</time>
      </trkpt>
      <trkpt lat="49.88102" lon="2.14306">
        <ele>119.3</ele>
        <time>2022-01-12T13:55:45Z</time>
      </trkpt>
      <trkpt lat="49.88101" lon="2.14308">
        <ele>119.3</ele>
        <time>2022-01-12T13:55:46Z</time>
      </trkpt>
      <trkpt lat="49.881" lon="2.14309">
        <ele>119.3</ele>
        <time>2022-01-12T13:55:47Z</time>
      </trkpt>
      <trkpt lat="49.88099" lon="2.14311">
        <ele>119.3</ele>
        <time>2022-01-12T13:55:48Z</time>
      </trkpt>
      <trkpt lat="49.88098" lon="2.14313">
        <ele>119.3</ele>
        <time>2022-01-12T13:55:50Z</time>
      </trkpt>
      <trkpt lat="49.88097" lon="2.14315">
        <ele>119.3</ele>
        <time>2022-01-12T13:55:51Z</time>
      </trkpt>
      <trkpt lat="49.88096" lon="2.14316">
        <ele>119.3</ele>
        <time>2022-01-12T13:55:52Z</time>
      </trkpt>
      <trkpt lat="49.88095" lon="2.14318">
        <ele>119.3</ele>
        <time>2022-01-12T13:55:53Z</time>
      </trkpt>
      <trkpt lat="49.88094" lon="2.1432">
        <ele>119.3</ele>
        <time>2022-01-12T13:55:54Z</time>
      </trkpt>
      <trkpt lat="49.88093" lon="2.14322">
        <ele>119.3</ele>
        <time>2022-01-12T13:55:55Z</time>
      </trkpt>
      <trkpt lat="49.88092" lon="2.14324">
        <ele>119.3</ele>
        <time>2022-01-12T13:55:56Z</time>
      </trkpt>
      <trkpt lat="49.88091" lon="2.14326">
        <ele>119.3</ele>
        <time>2022-01-12T13:55:58Z</time>
      </trkpt>
      <trkpt lat="49.8809" lon="2.14328">
        <ele>119.3</ele>
        <time>2022-01-12T13:55:59Z</time>
      </trkpt>
      <trkpt lat="49.88089" lon="2.1433">
        <ele>119.3</ele>
        <time>2022-01-12T13:56:00Z</time>
      </trkpt>
      <trkpt lat="49.88088" lon="2.14332">
        <ele>119.3</ele>
        <time>2022-01-12T13:56:01Z</time>
      </trkpt>
      <trkpt lat="49.88087" lon="2.14336">
        <ele>119.3</ele>
        <time>2022-01-12T13:56:03Z</time>
      </trkpt>
      <trkpt lat="49.88086" lon="2.14337">
        <ele>119.3</ele>
        <time>2022-01-12T13:56:04Z</time>
      </trkpt>
      <trkpt lat="49.88086" lon="2.14339">
        <ele>119.3</ele>
        <time>2022-01-12T13:56:05Z</time>
      </trkpt>
      <trkpt lat="49.88085" lon="2.14341">
        <ele>119.3</ele>
        <time>2022-01-12T13:56:06Z</time>
      </trkpt>
      <trkpt lat="49.88084" lon="2.14344">
        <ele>119.3</ele>
        <time>2022-01-12T13:56:07Z</time>
      </trkpt>
      <trkpt lat="49.88083" lon="2.14346">
        <ele>119.3</ele>
        <time>2022-01-12T13:56:08Z</time>
      </trkpt>
      <trkpt lat="49.88083" lon="2.14348">
        <ele>119.3</ele>
        <time>2022-01-12T13:56:09Z</time>
      </trkpt>
      <trkpt lat="49.88082" lon="2.1435">
        <ele>119.3</ele>
        <time>2022-01-12T13:56:10Z</time>
      </trkpt>
      <trkpt lat="49.88081" lon="2.14353">
        <ele>119.3</ele>
        <time>2022-01-12T13:56:12Z</time>
      </trkpt>
      <trkpt lat="49.8808" lon="2.14355">
        <ele>119.3</ele>
        <time>2022-01-12T13:56:13Z</time>
      </trkpt>
      <trkpt lat="49.8808" lon="2.14358">
        <ele>119.3</ele>
        <time>2022-01-12T13:56:14Z</time>
      </trkpt>
      <trkpt lat="49.8808" lon="2.14359">
        <ele>119.3</ele>
        <time>2022-01-12T13:56:15Z</time>
      </trkpt>
      <trkpt lat="49.88079" lon="2.14361">
        <ele>119.3</ele>
        <time>2022-01-12T13:56:16Z</time>
      </trkpt>
      <trkpt lat="49.88079" lon="2.14362">
        <ele>119.3</ele>
        <time>2022-01-12T13:56:17Z</time>
      </trkpt>
      <trkpt lat="49.88079" lon="2.14364">
        <ele>119.3</ele>
        <time>2022-01-12T13:56:18Z</time>
      </trkpt>
      <trkpt lat="49.88079" lon="2.14365">
        <ele>119.3</ele>
        <time>2022-01-12T13:56:19Z</time>
      </trkpt>
      <trkpt lat="49.88079" lon="2.14367">
        <ele>119.3</ele>
        <time>2022-01-12T13:56:21Z</time>
      </trkpt>
      <trkpt lat="49.88079" lon="2.14369">
        <ele>119.3</ele>
        <time>2022-01-12T13:56:22Z</time>
      </trkpt>
      <trkpt lat="49.88079" lon="2.14371">
        <ele>119.3</ele>
        <time>2022-01-12T13:56:23Z</time>
      </trkpt>
      <trkpt lat="49.88079" lon="2.14373">
        <ele>119.3</ele>
        <time>2022-01-12T13:56:24Z</time>
      </trkpt>
      <trkpt lat="49.88079" lon="2.14375">
        <ele>119.3</ele>
        <time>2022-01-12T13:56:25Z</time>
      </trkpt>
      <trkpt lat="49.8808" lon="2.1438">
        <ele>119.3</ele>
        <time>2022-01-12T13:56:27Z</time>
      </trkpt>
      <trkpt lat="49.8808" lon="2.14381">
        <ele>119.3</ele>
        <time>2022-01-12T13:56:28Z</time>
      </trkpt>
      <trkpt lat="49.88081" lon="2.14383">
        <ele>119.3</ele>
        <time>2022-01-12T13:56:29Z</time>
      </trkpt>
      <trkpt lat="49.88081" lon="2.14385">
        <ele>119.3</ele>
        <time>2022-01-12T13:56:30Z</time>
      </trkpt>
      <trkpt lat="49.88082" lon="2.14388">
        <ele>119.3</ele>
        <time>2022-01-12T13:56:32Z</time>
      </trkpt>
      <trkpt lat="49.88083" lon="2.14389">
        <ele>119.3</ele>
        <time>2022-01-12T13:56:33Z</time>
      </trkpt>
      <trkpt lat="49.88083" lon="2.14391">
        <ele>119.3</ele>
        <time>2022-01-12T13:56:34Z</time>
      </trkpt>
      <trkpt lat="49.88084" lon="2.14394">
        <ele>119.3</ele>
        <time>2022-01-12T13:56:35Z</time>
      </trkpt>
      <trkpt lat="49.88084" lon="2.14395">
        <ele>119.3</ele>
        <time>2022-01-12T13:56:36Z</time>
      </trkpt>
      <trkpt lat="49.88084" lon="2.14397">
        <ele>119.3</ele>
        <time>2022-01-12T13:56:37Z</time>
      </trkpt>
      <trkpt lat="49.88085" lon="2.144">
        <ele>119.3</ele>
        <time>2022-01-12T13:56:38Z</time>
      </trkpt>
      <trkpt lat="49.88085" lon="2.14401">
        <ele>119.3</ele>
        <time>2022-01-12T13:56:39Z</time>
      </trkpt>
      <trkpt lat="49.88085" lon="2.14403">
        <ele>119.3</ele>
        <time>2022-01-12T13:56:40Z</time>
      </trkpt>
      <trkpt lat="49.88086" lon="2.14405">
        <ele>119.3</ele>
        <time>2022-01-12T13:56:42Z</time>
      </trkpt>
      <trkpt lat="49.88086" lon="2.14407">
        <ele>119.3</ele>
        <time>2022-01-12T13:56:43Z</time>
      </trkpt>
      <trkpt lat="49.88086" lon="2.14409">
        <ele>119.3</ele>
        <time>2022-01-12T13:56:44Z</time>
      </trkpt>
      <trkpt lat="49.88087" lon="2.14412">
        <ele>119.3</ele>
        <time>2022-01-12T13:56:45Z</time>
      </trkpt>
      <trkpt lat="49.88087" lon="2.14415">
        <ele>119.4</ele>
        <time>2022-01-12T13:56:47Z</time>
      </trkpt>
      <trkpt lat="49.88088" lon="2.14416">
        <ele>119.4</ele>
        <time>2022-01-12T13:56:48Z</time>
      </trkpt>
      <trkpt lat="49.88088" lon="2.14418">
        <ele>119.4</ele>
        <time>2022-01-12T13:56:49Z</time>
      </trkpt>
      <trkpt lat="49.88088" lon="2.1442">
        <ele>119.4</ele>
        <time>2022-01-12T13:56:50Z</time>
      </trkpt>
      <trkpt lat="49.88088" lon="2.14422">
        <ele>119.4</ele>
        <time>2022-01-12T13:56:51Z</time>
      </trkpt>
      <trkpt lat="49.88088" lon="2.14425">
        <ele>119.4</ele>
        <time>2022-01-12T13:56:52Z</time>
      </trkpt>
      <trkpt lat="49.88088" lon="2.14426">
        <ele>119.4</ele>
        <time>2022-01-12T13:56:53Z</time>
      </trkpt>
      <trkpt lat="49.88088" lon="2.14427">
        <ele>119.4</ele>
        <time>2022-01-12T13:56:54Z</time>
      </trkpt>
      <trkpt lat="49.88089" lon="2.14431">
        <ele>119.4</ele>
        <time>2022-01-12T13:56:55Z</time>
      </trkpt>
      <trkpt lat="49.88089" lon="2.14433">
        <ele>119.4</ele>
        <time>2022-01-12T13:56:57Z</time>
      </trkpt>
      <trkpt lat="49.88089" lon="2.14434">
        <ele>119.4</ele>
        <time>2022-01-12T13:56:58Z</time>
      </trkpt>
      <trkpt lat="49.88089" lon="2.14436">
        <ele>119.4</ele>
        <time>2022-01-12T13:56:59Z</time>
      </trkpt>
      <trkpt lat="49.88089" lon="2.14438">
        <ele>119.4</ele>
        <time>2022-01-12T13:57:00Z</time>
      </trkpt>
      <trkpt lat="49.8809" lon="2.1444">
        <ele>119.4</ele>
        <time>2022-01-12T13:57:01Z</time>
      </trkpt>
      <trkpt lat="49.8809" lon="2.14442">
        <ele>119.4</ele>
        <time>2022-01-12T13:57:02Z</time>
      </trkpt>
      <trkpt lat="49.8809" lon="2.14445">
        <ele>119.4</ele>
        <time>2022-01-12T13:57:04Z</time>
      </trkpt>
      <trkpt lat="49.8809" lon="2.14448">
        <ele>119.4</ele>
        <time>2022-01-12T13:57:06Z</time>
      </trkpt>
      <trkpt lat="49.8809" lon="2.14452">
        <ele>119.3</ele>
        <time>2022-01-12T13:57:07Z</time>
      </trkpt>
      <trkpt lat="49.88089" lon="2.14453">
        <ele>119.3</ele>
        <time>2022-01-12T13:57:08Z</time>
      </trkpt>
      <trkpt lat="49.88089" lon="2.14454">
        <ele>119.3</ele>
        <time>2022-01-12T13:57:09Z</time>
      </trkpt>
      <trkpt lat="49.88089" lon="2.14456">
        <ele>119.3</ele>
        <time>2022-01-12T13:57:10Z</time>
      </trkpt>
      <trkpt lat="49.88088" lon="2.14458">
        <ele>119.3</ele>
        <time>2022-01-12T13:57:11Z</time>
      </trkpt>
      <trkpt lat="49.88087" lon="2.14461">
        <ele>119.3</ele>
        <time>2022-01-12T13:57:12Z</time>
      </trkpt>
      <trkpt lat="49.88086" lon="2.14463">
        <ele>119.3</ele>
        <time>2022-01-12T13:57:14Z</time>
      </trkpt>
      <trkpt lat="49.88086" lon="2.14465">
        <ele>119.3</ele>
        <time>2022-01-12T13:57:15Z</time>
      </trkpt>
      <trkpt lat="49.88085" lon="2.14466">
        <ele>119.3</ele>
        <time>2022-01-12T13:57:16Z</time>
      </trkpt>
      <trkpt lat="49.88084" lon="2.14468">
        <ele>119.3</ele>
        <time>2022-01-12T13:57:17Z</time>
      </trkpt>
      <trkpt lat="49.88084" lon="2.1447">
        <ele>119.3</ele>
        <time>2022-01-12T13:57:18Z</time>
      </trkpt>
      <trkpt lat="49.88083" lon="2.14473">
        <ele>119.3</ele>
        <time>2022-01-12T13:57:20Z</time>
      </trkpt>
      <trkpt lat="49.88082" lon="2.14474">
        <ele>119.3</ele>
        <time>2022-01-12T13:57:21Z</time>
      </trkpt>
      <trkpt lat="49.88082" lon="2.14476">
        <ele>119.3</ele>
        <time>2022-01-12T13:57:22Z</time>
      </trkpt>
      <trkpt lat="49.88081" lon="2.1448">
        <ele>119.3</ele>
        <time>2022-01-12T13:57:23Z</time>
      </trkpt>
      <trkpt lat="49.8808" lon="2.14481">
        <ele>119.3</ele>
        <time>2022-01-12T13:57:24Z</time>
      </trkpt>
      <trkpt lat="49.8808" lon="2.14482">
        <ele>119.3</ele>
        <time>2022-01-12T13:57:25Z</time>
      </trkpt>
      <trkpt lat="49.8808" lon="2.14484">
        <ele>119.3</ele>
        <time>2022-01-12T13:57:26Z</time>
      </trkpt>
      <trkpt lat="49.88079" lon="2.14486">
        <ele>119.3</ele>
        <time>2022-01-12T13:57:27Z</time>
      </trkpt>
      <trkpt lat="49.88078" lon="2.14489">
        <ele>119.3</ele>
        <time>2022-01-12T13:57:29Z</time>
      </trkpt>
      <trkpt lat="49.88078" lon="2.14491">
        <ele>119.3</ele>
        <time>2022-01-12T13:57:30Z</time>
      </trkpt>
      <trkpt lat="49.88077" lon="2.14493">
        <ele>119.3</ele>
        <time>2022-01-12T13:57:31Z</time>
      </trkpt>
      <trkpt lat="49.88076" lon="2.14496">
        <ele>119.2</ele>
        <time>2022-01-12T13:57:32Z</time>
      </trkpt>
      <trkpt lat="49.88076" lon="2.14497">
        <ele>119.2</ele>
        <time>2022-01-12T13:57:33Z</time>
      </trkpt>
      <trkpt lat="49.88074" lon="2.14501">
        <ele>119.2</ele>
        <time>2022-01-12T13:57:34Z</time>
      </trkpt>
      <trkpt lat="49.88074" lon="2.14502">
        <ele>119.2</ele>
        <time>2022-01-12T13:57:36Z</time>
      </trkpt>
      <trkpt lat="49.88073" lon="2.14503">
        <ele>119.2</ele>
        <time>2022-01-12T13:57:37Z</time>
      </trkpt>
      <trkpt lat="49.88072" lon="2.14505">
        <ele>119.2</ele>
        <time>2022-01-12T13:57:38Z</time>
      </trkpt>
      <trkpt lat="49.88071" lon="2.14506">
        <ele>119.2</ele>
        <time>2022-01-12T13:57:39Z</time>
      </trkpt>
      <trkpt lat="49.8807" lon="2.14508">
        <ele>119.2</ele>
        <time>2022-01-12T13:57:40Z</time>
      </trkpt>
      <trkpt lat="49.88069" lon="2.14509">
        <ele>119.2</ele>
        <time>2022-01-12T13:57:41Z</time>
      </trkpt>
      <trkpt lat="49.88069" lon="2.1451">
        <ele>119.2</ele>
        <time>2022-01-12T13:57:42Z</time>
      </trkpt>
      <trkpt lat="49.88068" lon="2.14512">
        <ele>119.2</ele>
        <time>2022-01-12T13:57:43Z</time>
      </trkpt>
      <trkpt lat="49.88066" lon="2.14514">
        <ele>119.2</ele>
        <time>2022-01-12T13:57:45Z</time>
      </trkpt>
      <trkpt lat="49.88066" lon="2.14515">
        <ele>119.2</ele>
        <time>2022-01-12T13:57:46Z</time>
      </trkpt>
      <trkpt lat="49.88066" lon="2.14518">
        <ele>119.2</ele>
        <time>2022-01-12T13:57:47Z</time>
      </trkpt>
      <trkpt lat="49.88066" lon="2.14522">
        <ele>119.2</ele>
        <time>2022-01-12T13:57:49Z</time>
      </trkpt>
      <trkpt lat="49.88065" lon="2.14524">
        <ele>119.2</ele>
        <time>2022-01-12T13:57:50Z</time>
      </trkpt>
      <trkpt lat="49.88065" lon="2.14526">
        <ele>119.2</ele>
        <time>2022-01-12T13:57:51Z</time>
      </trkpt>
      <trkpt lat="49.88066" lon="2.1453">
        <ele>119.2</ele>
        <time>2022-01-12T13:57:53Z</time>
      </trkpt>
      <trkpt lat="49.88066" lon="2.14532">
        <ele>119.2</ele>
        <time>2022-01-12T13:57:54Z</time>
      </trkpt>
      <trkpt lat="49.88066" lon="2.14534">
        <ele>119.2</ele>
        <time>2022-01-12T13:57:55Z</time>
      </trkpt>
      <trkpt lat="49.88066" lon="2.14536">
        <ele>119.2</ele>
        <time>2022-01-12T13:57:56Z</time>
      </trkpt>
      <trkpt lat="49.88066" lon="2.14538">
        <ele>119.2</ele>
        <time>2022-01-12T13:57:57Z</time>
      </trkpt>
      <trkpt lat="49.88066" lon="2.1454">
        <ele>119.2</ele>
        <time>2022-01-12T13:57:58Z</time>
      </trkpt>
      <trkpt lat="49.88066" lon="2.14542">
        <ele>119.3</ele>
        <time>2022-01-12T13:58:00Z</time>
      </trkpt>
      <trkpt lat="49.88067" lon="2.14544">
        <ele>119.3</ele>
        <time>2022-01-12T13:58:01Z</time>
      </trkpt>
      <trkpt lat="49.88067" lon="2.14547">
        <ele>119.3</ele>
        <time>2022-01-12T13:58:02Z</time>
      </trkpt>
      <trkpt lat="49.88067" lon="2.14548">
        <ele>119.3</ele>
        <time>2022-01-12T13:58:03Z</time>
      </trkpt>
      <trkpt lat="49.88068" lon="2.1455">
        <ele>119.3</ele>
        <time>2022-01-12T13:58:04Z</time>
      </trkpt>
      <trkpt lat="49.88068" lon="2.14552">
        <ele>119.3</ele>
        <time>2022-01-12T13:58:05Z</time>
      </trkpt>
      <trkpt lat="49.88068" lon="2.14553">
        <ele>119.3</ele>
        <time>2022-01-12T13:58:06Z</time>
      </trkpt>
      <trkpt lat="49.88068" lon="2.14555">
        <ele>119.3</ele>
        <time>2022-01-12T13:58:07Z</time>
      </trkpt>
      <trkpt lat="49.88068" lon="2.14558">
        <ele>119.3</ele>
        <time>2022-01-12T13:58:09Z</time>
      </trkpt>
      <trkpt lat="49.88069" lon="2.1456">
        <ele>119.3</ele>
        <time>2022-01-12T13:58:10Z</time>
      </trkpt>
      <trkpt lat="49.88069" lon="2.14562">
        <ele>119.3</ele>
        <time>2022-01-12T13:58:11Z</time>
      </trkpt>
      <trkpt lat="49.88069" lon="2.14564">
        <ele>119.3</ele>
        <time>2022-01-12T13:58:12Z</time>
      </trkpt>
      <trkpt lat="49.88069" lon="2.14565">
        <ele>119.3</ele>
        <time>2022-01-12T13:58:13Z</time>
      </trkpt>
      <trkpt lat="49.88069" lon="2.14567">
        <ele>119.3</ele>
        <time>2022-01-12T13:58:14Z</time>
      </trkpt>
      <trkpt lat="49.88069" lon="2.14569">
        <ele>119.3</ele>
        <time>2022-01-12T13:58:16Z</time>
      </trkpt>
      <trkpt lat="49.88069" lon="2.14571">
        <ele>119.3</ele>
        <time>2022-01-12T13:58:17Z</time>
      </trkpt>
      <trkpt lat="49.88069" lon="2.14573">
        <ele>119.3</ele>
        <time>2022-01-12T13:58:18Z</time>
      </trkpt>
      <trkpt lat="49.8807" lon="2.14575">
        <ele>119.3</ele>
        <time>2022-01-12T13:58:19Z</time>
      </trkpt>
      <trkpt lat="49.8807" lon="2.14577">
        <ele>119.3</ele>
        <time>2022-01-12T13:58:21Z</time>
      </trkpt>
      <trkpt lat="49.8807" lon="2.14579">
        <ele>119.3</ele>
        <time>2022-01-12T13:58:22Z</time>
      </trkpt>
      <trkpt lat="49.8807" lon="2.14583">
        <ele>119.3</ele>
        <time>2022-01-12T13:58:23Z</time>
      </trkpt>
      <trkpt lat="49.8807" lon="2.14585">
        <ele>119.3</ele>
        <time>2022-01-12T13:58:24Z</time>
      </trkpt>
      <trkpt lat="49.8807" lon="2.14586">
        <ele>119.3</ele>
        <time>2022-01-12T13:58:25Z</time>
      </trkpt>
      <trkpt lat="49.8807" lon="2.14588">
        <ele>119.3</ele>
        <time>2022-01-12T13:58:26Z</time>
      </trkpt>
      <trkpt lat="49.88071" lon="2.1459">
        <ele>119.3</ele>
        <time>2022-01-12T13:58:27Z</time>
      </trkpt>
      <trkpt lat="49.88071" lon="2.14592">
        <ele>119.3</ele>
        <time>2022-01-12T13:58:28Z</time>
      </trkpt>
      <trkpt lat="49.88071" lon="2.14595">
        <ele>119.3</ele>
        <time>2022-01-12T13:58:30Z</time>
      </trkpt>
      <trkpt lat="49.88071" lon="2.14598">
        <ele>119.3</ele>
        <time>2022-01-12T13:58:31Z</time>
      </trkpt>
      <trkpt lat="49.88071" lon="2.146">
        <ele>119.3</ele>
        <time>2022-01-12T13:58:32Z</time>
      </trkpt>
      <trkpt lat="49.8807" lon="2.14603">
        <ele>119.3</ele>
        <time>2022-01-12T13:58:33Z</time>
      </trkpt>
      <trkpt lat="49.8807" lon="2.14604">
        <ele>119.3</ele>
        <time>2022-01-12T13:58:34Z</time>
      </trkpt>
      <trkpt lat="49.8807" lon="2.14605">
        <ele>119.4</ele>
        <time>2022-01-12T13:58:35Z</time>
      </trkpt>
      <trkpt lat="49.8807" lon="2.14608">
        <ele>119.4</ele>
        <time>2022-01-12T13:58:37Z</time>
      </trkpt>
      <trkpt lat="49.8807" lon="2.1461">
        <ele>119.4</ele>
        <time>2022-01-12T13:58:38Z</time>
      </trkpt>
      <trkpt lat="49.8807" lon="2.14612">
        <ele>119.4</ele>
        <time>2022-01-12T13:58:39Z</time>
      </trkpt>
      <trkpt lat="49.8807" lon="2.14613">
        <ele>119.4</ele>
        <time>2022-01-12T13:58:40Z</time>
      </trkpt>
      <trkpt lat="49.8807" lon="2.14616">
        <ele>119.4</ele>
        <time>2022-01-12T13:58:42Z</time>
      </trkpt>
      <trkpt lat="49.88071" lon="2.1462">
        <ele>119.4</ele>
        <time>2022-01-12T13:58:43Z</time>
      </trkpt>
      <trkpt lat="49.88071" lon="2.14622">
        <ele>119.4</ele>
        <time>2022-01-12T13:58:44Z</time>
      </trkpt>
      <trkpt lat="49.88071" lon="2.14625">
        <ele>119.4</ele>
        <time>2022-01-12T13:58:46Z</time>
      </trkpt>
      <trkpt lat="49.88071" lon="2.14627">
        <ele>119.4</ele>
        <time>2022-01-12T13:58:47Z</time>
      </trkpt>
      <trkpt lat="49.88072" lon="2.14629">
        <ele>119.4</ele>
        <time>2022-01-12T13:58:48Z</time>
      </trkpt>
      <trkpt lat="49.88072" lon="2.14631">
        <ele>119.4</ele>
        <time>2022-01-12T13:58:49Z</time>
      </trkpt>
      <trkpt lat="49.88072" lon="2.14632">
        <ele>119.4</ele>
        <time>2022-01-12T13:58:50Z</time>
      </trkpt>
      <trkpt lat="49.88071" lon="2.14635">
        <ele>119.4</ele>
        <time>2022-01-12T13:58:52Z</time>
      </trkpt>
      <trkpt lat="49.88071" lon="2.14637">
        <ele>119.4</ele>
        <time>2022-01-12T13:58:53Z</time>
      </trkpt>
      <trkpt lat="49.88071" lon="2.14638">
        <ele>119.4</ele>
        <time>2022-01-12T13:58:54Z</time>
      </trkpt>
      <trkpt lat="49.88071" lon="2.14641">
        <ele>119.4</ele>
        <time>2022-01-12T13:58:55Z</time>
      </trkpt>
      <trkpt lat="49.88071" lon="2.14643">
        <ele>119.4</ele>
        <time>2022-01-12T13:58:56Z</time>
      </trkpt>
      <trkpt lat="49.88071" lon="2.14644">
        <ele>119.4</ele>
        <time>2022-01-12T13:58:57Z</time>
      </trkpt>
      <trkpt lat="49.88072" lon="2.14646">
        <ele>119.4</ele>
        <time>2022-01-12T13:58:58Z</time>
      </trkpt>
      <trkpt lat="49.88072" lon="2.14649">
        <ele>119.5</ele>
        <time>2022-01-12T13:59:00Z</time>
      </trkpt>
      <trkpt lat="49.88072" lon="2.1465">
        <ele>119.5</ele>
        <time>2022-01-12T13:59:01Z</time>
      </trkpt>
      <trkpt lat="49.88072" lon="2.14652">
        <ele>119.5</ele>
        <time>2022-01-12T13:59:02Z</time>
      </trkpt>
      <trkpt lat="49.88072" lon="2.14654">
        <ele>119.5</ele>
        <time>2022-01-12T13:59:03Z</time>
      </trkpt>
      <trkpt lat="49.88072" lon="2.14656">
        <ele>119.5</ele>
        <time>2022-01-12T13:59:04Z</time>
      </trkpt>
      <trkpt lat="49.88073" lon="2.14657">
        <ele>119.5</ele>
        <time>2022-01-12T13:59:05Z</time>
      </trkpt>
      <trkpt lat="49.88073" lon="2.14659">
        <ele>119.5</ele>
        <time>2022-01-12T13:59:07Z</time>
      </trkpt>
      <trkpt lat="49.88073" lon="2.14663">
        <ele>119.5</ele>
        <time>2022-01-12T13:59:08Z</time>
      </trkpt>
      <trkpt lat="49.88074" lon="2.14664">
        <ele>119.5</ele>
        <time>2022-01-12T13:59:09Z</time>
      </trkpt>
      <trkpt lat="49.88074" lon="2.14666">
        <ele>119.5</ele>
        <time>2022-01-12T13:59:10Z</time>
      </trkpt>
      <trkpt lat="49.88075" lon="2.14668">
        <ele>119.5</ele>
        <time>2022-01-12T13:59:11Z</time>
      </trkpt>
      <trkpt lat="49.88075" lon="2.1467">
        <ele>119.5</ele>
        <time>2022-01-12T13:59:12Z</time>
      </trkpt>
      <trkpt lat="49.88076" lon="2.14674">
        <ele>119.5</ele>
        <time>2022-01-12T13:59:13Z</time>
      </trkpt>
      <trkpt lat="49.88076" lon="2.14675">
        <ele>119.5</ele>
        <time>2022-01-12T13:59:15Z</time>
      </trkpt>
      <trkpt lat="49.88076" lon="2.14677">
        <ele>119.5</ele>
        <time>2022-01-12T13:59:16Z</time>
      </trkpt>
      <trkpt lat="49.88076" lon="2.14679">
        <ele>119.5</ele>
        <time>2022-01-12T13:59:17Z</time>
      </trkpt>
      <trkpt lat="49.88077" lon="2.1468">
        <ele>119.5</ele>
        <time>2022-01-12T13:59:18Z</time>
      </trkpt>
      <trkpt lat="49.88077" lon="2.14684">
        <ele>119.5</ele>
        <time>2022-01-12T13:59:19Z</time>
      </trkpt>
      <trkpt lat="49.88077" lon="2.14685">
        <ele>119.4</ele>
        <time>2022-01-12T13:59:20Z</time>
      </trkpt>
      <trkpt lat="49.88077" lon="2.14686">
        <ele>119.4</ele>
        <time>2022-01-12T13:59:21Z</time>
      </trkpt>
      <trkpt lat="49.88077" lon="2.14689">
        <ele>119.4</ele>
        <time>2022-01-12T13:59:23Z</time>
      </trkpt>
      <trkpt lat="49.88077" lon="2.14691">
        <ele>119.4</ele>
        <time>2022-01-12T13:59:24Z</time>
      </trkpt>
      <trkpt lat="49.88077" lon="2.14693">
        <ele>119.4</ele>
        <time>2022-01-12T13:59:25Z</time>
      </trkpt>
      <trkpt lat="49.88077" lon="2.14695">
        <ele>119.4</ele>
        <time>2022-01-12T13:59:26Z</time>
      </trkpt>
      <trkpt lat="49.88077" lon="2.147">
        <ele>119.4</ele>
        <time>2022-01-12T13:59:28Z</time>
      </trkpt>
      <trkpt lat="49.88077" lon="2.14701">
        <ele>119.4</ele>
        <time>2022-01-12T13:59:29Z</time>
      </trkpt>
      <trkpt lat="49.88078" lon="2.14704">
        <ele>119.4</ele>
        <time>2022-01-12T13:59:31Z</time>
      </trkpt>
      <trkpt lat="49.88078" lon="2.14706">
        <ele>119.4</ele>
        <time>2022-01-12T13:59:32Z</time>
      </trkpt>
      <trkpt lat="49.88078" lon="2.14708">
        <ele>119.4</ele>
        <time>2022-01-12T13:59:33Z</time>
      </trkpt>
      <trkpt lat="49.88078" lon="2.1471">
        <ele>119.3</ele>
        <time>2022-01-12T13:59:34Z</time>
      </trkpt>
      <trkpt lat="49.88079" lon="2.14712">
        <ele>119.3</ele>
        <time>2022-01-12T13:59:35Z</time>
      </trkpt>
      <trkpt lat="49.88079" lon="2.14715">
        <ele>119.3</ele>
        <time>2022-01-12T13:59:36Z</time>
      </trkpt>
      <trkpt lat="49.88079" lon="2.14716">
        <ele>119.3</ele>
        <time>2022-01-12T13:59:38Z</time>
      </trkpt>
      <trkpt lat="49.88079" lon="2.14717">
        <ele>119.3</ele>
        <time>2022-01-12T13:59:39Z</time>
      </trkpt>
      <trkpt lat="49.8808" lon="2.1472">
        <ele>119.3</ele>
        <time>2022-01-12T13:59:40Z</time>
      </trkpt>
      <trkpt lat="49.8808" lon="2.14722">
        <ele>119.3</ele>
        <time>2022-01-12T13:59:42Z</time>
      </trkpt>
      <trkpt lat="49.88081" lon="2.14724">
        <ele>119.3</ele>
        <time>2022-01-12T13:59:43Z</time>
      </trkpt>
      <trkpt lat="49.88081" lon="2.14726">
        <ele>119.3</ele>
        <time>2022-01-12T13:59:44Z</time>
      </trkpt>
      <trkpt lat="49.88082" lon="2.14728">
        <ele>119.3</ele>
        <time>2022-01-12T13:59:45Z</time>
      </trkpt>
      <trkpt lat="49.88082" lon="2.1473">
        <ele>119.3</ele>
        <time>2022-01-12T13:59:46Z</time>
      </trkpt>
      <trkpt lat="49.88083" lon="2.14731">
        <ele>119.3</ele>
        <time>2022-01-12T13:59:47Z</time>
      </trkpt>
      <trkpt lat="49.88083" lon="2.14734">
        <ele>119.3</ele>
        <time>2022-01-12T13:59:49Z</time>
      </trkpt>
      <trkpt lat="49.88083" lon="2.14736">
        <ele>119.3</ele>
        <time>2022-01-12T13:59:50Z</time>
      </trkpt>
      <trkpt lat="49.88084" lon="2.14738">
        <ele>119.3</ele>
        <time>2022-01-12T13:59:51Z</time>
      </trkpt>
      <trkpt lat="49.88084" lon="2.1474">
        <ele>119.3</ele>
        <time>2022-01-12T13:59:52Z</time>
      </trkpt>
      <trkpt lat="49.88085" lon="2.14743">
        <ele>119.3</ele>
        <time>2022-01-12T13:59:53Z</time>
      </trkpt>
      <trkpt lat="49.88085" lon="2.14745">
        <ele>119.3</ele>
        <time>2022-01-12T13:59:54Z</time>
      </trkpt>
      <trkpt lat="49.88085" lon="2.14747">
        <ele>119.3</ele>
        <time>2022-01-12T13:59:55Z</time>
      </trkpt>
      <trkpt lat="49.88086" lon="2.14749">
        <ele>119.3</ele>
        <time>2022-01-12T13:59:56Z</time>
      </trkpt>
      <trkpt lat="49.88086" lon="2.14753">
        <ele>119.3</ele>
        <time>2022-01-12T13:59:57Z</time>
      </trkpt>
      <trkpt lat="49.88086" lon="2.14754">
        <ele>119.3</ele>
        <time>2022-01-12T13:59:58Z</time>
      </trkpt>
      <trkpt lat="49.88086" lon="2.14755">
        <ele>119.3</ele>
        <time>2022-01-12T13:59:59Z</time>
      </trkpt>
      <trkpt lat="49.88086" lon="2.14758">
        <ele>119.3</ele>
        <time>2022-01-12T14:00:01Z</time>
      </trkpt>
      <trkpt lat="49.88086" lon="2.1476">
        <ele>119.3</ele>
        <time>2022-01-12T14:00:02Z</time>
      </trkpt>
      <trkpt lat="49.88086" lon="2.14762">
        <ele>119.3</ele>
        <time>2022-01-12T14:00:03Z</time>
      </trkpt>
      <trkpt lat="49.88086" lon="2.14764">
        <ele>119.3</ele>
        <time>2022-01-12T14:00:04Z</time>
      </trkpt>
      <trkpt lat="49.88086" lon="2.14767">
        <ele>119.3</ele>
        <time>2022-01-12T14:00:06Z</time>
      </trkpt>
      <trkpt lat="49.88086" lon="2.1477">
        <ele>119.3</ele>
        <time>2022-01-12T14:00:07Z</time>
      </trkpt>
      <trkpt lat="49.88086" lon="2.14771">
        <ele>119.3</ele>
        <time>2022-01-12T14:00:08Z</time>
      </trkpt>
      <trkpt lat="49.88086" lon="2.14773">
        <ele>119.3</ele>
        <time>2022-01-12T14:00:09Z</time>
      </trkpt>
      <trkpt lat="49.88086" lon="2.14775">
        <ele>119.3</ele>
        <time>2022-01-12T14:00:10Z</time>
      </trkpt>
      <trkpt lat="49.88086" lon="2.14777">
        <ele>119.3</ele>
        <time>2022-01-12T14:00:11Z</time>
      </trkpt>
      <trkpt lat="49.88086" lon="2.1478">
        <ele>119.3</ele>
        <time>2022-01-12T14:00:13Z</time>
      </trkpt>
      <trkpt lat="49.88086" lon="2.14782">
        <ele>119.4</ele>
        <time>2022-01-12T14:00:14Z</time>
      </trkpt>
      <trkpt lat="49.88086" lon="2.14784">
        <ele>119.4</ele>
        <time>2022-01-12T14:00:15Z</time>
      </trkpt>
      <trkpt lat="49.88087" lon="2.14785">
        <ele>119.4</ele>
        <time>2022-01-12T14:00:16Z</time>
      </trkpt>
      <trkpt lat="49.88087" lon="2.14787">
        <ele>119.4</ele>
        <time>2022-01-12T14:00:17Z</time>
      </trkpt>
      <trkpt lat="49.88087" lon="2.14788">
        <ele>119.4</ele>
        <time>2022-01-12T14:00:18Z</time>
      </trkpt>
      <trkpt lat="49.88087" lon="2.1479">
        <ele>119.4</ele>
        <time>2022-01-12T14:00:19Z</time>
      </trkpt>
      <trkpt lat="49.88088" lon="2.14791">
        <ele>119.4</ele>
        <time>2022-01-12T14:00:20Z</time>
      </trkpt>
      <trkpt lat="49.88088" lon="2.14793">
        <ele>119.4</ele>
        <time>2022-01-12T14:00:22Z</time>
      </trkpt>
      <trkpt lat="49.88088" lon="2.14795">
        <ele>119.4</ele>
        <time>2022-01-12T14:00:23Z</time>
      </trkpt>
      <trkpt lat="49.88089" lon="2.14798">
        <ele>119.4</ele>
        <time>2022-01-12T14:00:24Z</time>
      </trkpt>
      <trkpt lat="49.88089" lon="2.14799">
        <ele>119.4</ele>
        <time>2022-01-12T14:00:25Z</time>
      </trkpt>
      <trkpt lat="49.88089" lon="2.14801">
        <ele>119.4</ele>
        <time>2022-01-12T14:00:26Z</time>
      </trkpt>
      <trkpt lat="49.8809" lon="2.14803">
        <ele>119.4</ele>
        <time>2022-01-12T14:00:28Z</time>
      </trkpt>
      <trkpt lat="49.8809" lon="2.14806">
        <ele>119.4</ele>
        <time>2022-01-12T14:00:29Z</time>
      </trkpt>
      <trkpt lat="49.88091" lon="2.14809">
        <ele>119.5</ele>
        <time>2022-01-12T14:00:31Z</time>
      </trkpt>
      <trkpt lat="49.88091" lon="2.14811">
        <ele>119.5</ele>
        <time>2022-01-12T14:00:32Z</time>
      </trkpt>
      <trkpt lat="49.88091" lon="2.14813">
        <ele>119.5</ele>
        <time>2022-01-12T14:00:33Z</time>
      </trkpt>
      <trkpt lat="49.88092" lon="2.14815">
        <ele>119.5</ele>
        <time>2022-01-12T14:00:34Z</time>
      </trkpt>
      <trkpt lat="49.88092" lon="2.14817">
        <ele>119.5</ele>
        <time>2022-01-12T14:00:36Z</time>
      </trkpt>
      <trkpt lat="49.88093" lon="2.1482">
        <ele>119.5</ele>
        <time>2022-01-12T14:00:37Z</time>
      </trkpt>
      <trkpt lat="49.88093" lon="2.14821">
        <ele>119.5</ele>
        <time>2022-01-12T14:00:38Z</time>
      </trkpt>
      <trkpt lat="49.88094" lon="2.14822">
        <ele>119.5</ele>
        <time>2022-01-12T14:00:39Z</time>
      </trkpt>
      <trkpt lat="49.88094" lon="2.14824">
        <ele>119.5</ele>
        <time>2022-01-12T14:00:40Z</time>
      </trkpt>
      <trkpt lat="49.88095" lon="2.14825">
        <ele>119.5</ele>
        <time>2022-01-12T14:00:41Z</time>
      </trkpt>
      <trkpt lat="49.88096" lon="2.14828">
        <ele>119.5</ele>
        <time>2022-01-12T14:00:43Z</time>
      </trkpt>
      <trkpt lat="49.88097" lon="2.14831">
        <ele>119.5</ele>
        <time>2022-01-12T14:00:44Z</time>
      </trkpt>
      <trkpt lat="49.88097" lon="2.14832">
        <ele>119.5</ele>
        <time>2022-01-12T14:00:45Z</time>
      </trkpt>
      <trkpt lat="49.88097" lon="2.14833">
        <ele>119.4</ele>
        <time>2022-01-12T14:00:46Z</time>
      </trkpt>
      <trkpt lat="49.88098" lon="2.14837">
        <ele>119.4</ele>
        <time>2022-01-12T14:00:48Z</time>
      </trkpt>
      <trkpt lat="49.88099" lon="2.14838">
        <ele>119.4</ele>
        <time>2022-01-12T14:00:49Z</time>
      </trkpt>
      <trkpt lat="49.88099" lon="2.14839">
        <ele>119.4</ele>
        <time>2022-01-12T14:00:50Z</time>
      </trkpt>
      <trkpt lat="49.881" lon="2.14842">
        <ele>119.4</ele>
        <time>2022-01-12T14:00:51Z</time>
      </trkpt>
      <trkpt lat="49.88101" lon="2.14843">
        <ele>119.4</ele>
        <time>2022-01-12T14:00:52Z</time>
      </trkpt>
      <trkpt lat="49.88101" lon="2.14844">
        <ele>119.4</ele>
        <time>2022-01-12T14:00:53Z</time>
      </trkpt>
      <trkpt lat="49.88102" lon="2.14847">
        <ele>119.4</ele>
        <time>2022-01-12T14:00:54Z</time>
      </trkpt>
      <trkpt lat="49.88103" lon="2.14848">
        <ele>119.4</ele>
        <time>2022-01-12T14:00:55Z</time>
      </trkpt>
      <trkpt lat="49.88104" lon="2.14849">
        <ele>119.4</ele>
        <time>2022-01-12T14:00:56Z</time>
      </trkpt>
      <trkpt lat="49.88104" lon="2.14851">
        <ele>119.4</ele>
        <time>2022-01-12T14:00:57Z</time>
      </trkpt>
      <trkpt lat="49.88105" lon="2.14852">
        <ele>119.4</ele>
        <time>2022-01-12T14:00:58Z</time>
      </trkpt>
      <trkpt lat="49.88106" lon="2.14854">
        <ele>119.4</ele>
        <time>2022-01-12T14:01:00Z</time>
      </trkpt>
      <trkpt lat="49.88108" lon="2.14857">
        <ele>119.4</ele>
        <time>2022-01-12T14:01:01Z</time>
      </trkpt>
      <trkpt lat="49.88108" lon="2.14858">
        <ele>119.4</ele>
        <time>2022-01-12T14:01:02Z</time>
      </trkpt>
      <trkpt lat="49.88109" lon="2.14859">
        <ele>119.4</ele>
        <time>2022-01-12T14:01:03Z</time>
      </trkpt>
      <trkpt lat="49.8811" lon="2.1486">
        <ele>119.4</ele>
        <time>2022-01-12T14:01:04Z</time>
      </trkpt>
      <trkpt lat="49.8811" lon="2.14861">
        <ele>119.4</ele>
        <time>2022-01-12T14:01:05Z</time>
      </trkpt>
      <trkpt lat="49.88111" lon="2.14863">
        <ele>119.4</ele>
        <time>2022-01-12T14:01:07Z</time>
      </trkpt>
      <trkpt lat="49.88112" lon="2.14865">
        <ele>119.4</ele>
        <time>2022-01-12T14:01:08Z</time>
      </trkpt>
      <trkpt lat="49.88113" lon="2.14866">
        <ele>119.4</ele>
        <time>2022-01-12T14:01:09Z</time>
      </trkpt>
      <trkpt lat="49.88115" lon="2.14869">
        <ele>119.3</ele>
        <time>2022-01-12T14:01:10Z</time>
      </trkpt>
      <trkpt lat="49.88115" lon="2.1487">
        <ele>119.3</ele>
        <time>2022-01-12T14:01:11Z</time>
      </trkpt>
      <trkpt lat="49.88116" lon="2.14871">
        <ele>119.3</ele>
        <time>2022-01-12T14:01:12Z</time>
      </trkpt>
      <trkpt lat="49.88116" lon="2.14873">
        <ele>119.3</ele>
        <time>2022-01-12T14:01:13Z</time>
      </trkpt>
      <trkpt lat="49.88118" lon="2.14875">
        <ele>119.3</ele>
        <time>2022-01-12T14:01:14Z</time>
      </trkpt>
      <trkpt lat="49.88119" lon="2.14877">
        <ele>119.3</ele>
        <time>2022-01-12T14:01:16Z</time>
      </trkpt>
      <trkpt lat="49.8812" lon="2.14878">
        <ele>119.3</ele>
        <time>2022-01-12T14:01:17Z</time>
      </trkpt>
      <trkpt lat="49.88121" lon="2.1488">
        <ele>119.3</ele>
        <time>2022-01-12T14:01:18Z</time>
      </trkpt>
      <trkpt lat="49.88121" lon="2.14882">
        <ele>119.3</ele>
        <time>2022-01-12T14:01:19Z</time>
      </trkpt>
      <trkpt lat="49.88123" lon="2.14885">
        <ele>119.3</ele>
        <time>2022-01-12T14:01:21Z</time>
      </trkpt>
      <trkpt lat="49.88123" lon="2.14887">
        <ele>119.3</ele>
        <time>2022-01-12T14:01:22Z</time>
      </trkpt>
      <trkpt lat="49.88124" lon="2.14888">
        <ele>119.3</ele>
        <time>2022-01-12T14:01:23Z</time>
      </trkpt>
      <trkpt lat="49.88125" lon="2.1489">
        <ele>119.3</ele>
        <time>2022-01-12T14:01:25Z</time>
      </trkpt>
      <trkpt lat="49.88126" lon="2.14892">
        <ele>119.3</ele>
        <time>2022-01-12T14:01:26Z</time>
      </trkpt>
      <trkpt lat="49.88126" lon="2.14893">
        <ele>119.3</ele>
        <time>2022-01-12T14:01:27Z</time>
      </trkpt>
      <trkpt lat="49.88127" lon="2.14895">
        <ele>119.3</ele>
        <time>2022-01-12T14:01:28Z</time>
      </trkpt>
      <trkpt lat="49.88127" lon="2.14897">
        <ele>119.2</ele>
        <time>2022-01-12T14:01:29Z</time>
      </trkpt>
      <trkpt lat="49.88127" lon="2.14899">
        <ele>119.2</ele>
        <time>2022-01-12T14:01:30Z</time>
      </trkpt>
      <trkpt lat="49.88127" lon="2.14901">
        <ele>119.2</ele>
        <time>2022-01-12T14:01:31Z</time>
      </trkpt>
      <trkpt lat="49.88128" lon="2.14903">
        <ele>119.2</ele>
        <time>2022-01-12T14:01:32Z</time>
      </trkpt>
      <trkpt lat="49.88128" lon="2.14904">
        <ele>119.2</ele>
        <time>2022-01-12T14:01:33Z</time>
      </trkpt>
      <trkpt lat="49.88129" lon="2.14906">
        <ele>119.2</ele>
        <time>2022-01-12T14:01:34Z</time>
      </trkpt>
      <trkpt lat="49.8813" lon="2.14908">
        <ele>119.2</ele>
        <time>2022-01-12T14:01:35Z</time>
      </trkpt>
      <trkpt lat="49.88131" lon="2.14911">
        <ele>119.2</ele>
        <time>2022-01-12T14:01:36Z</time>
      </trkpt>
      <trkpt lat="49.88131" lon="2.14913">
        <ele>119.2</ele>
        <time>2022-01-12T14:01:38Z</time>
      </trkpt>
      <trkpt lat="49.88132" lon="2.14915">
        <ele>119.2</ele>
        <time>2022-01-12T14:01:39Z</time>
      </trkpt>
      <trkpt lat="49.88132" lon="2.14916">
        <ele>119.2</ele>
        <time>2022-01-12T14:01:40Z</time>
      </trkpt>
      <trkpt lat="49.88133" lon="2.14918">
        <ele>119.1</ele>
        <time>2022-01-12T14:01:41Z</time>
      </trkpt>
      <trkpt lat="49.88134" lon="2.1492">
        <ele>119.1</ele>
        <time>2022-01-12T14:01:42Z</time>
      </trkpt>
      <trkpt lat="49.88135" lon="2.14921">
        <ele>119.1</ele>
        <time>2022-01-12T14:01:43Z</time>
      </trkpt>
      <trkpt lat="49.88135" lon="2.14922">
        <ele>119.1</ele>
        <time>2022-01-12T14:01:44Z</time>
      </trkpt>
      <trkpt lat="49.88136" lon="2.14924">
        <ele>119.1</ele>
        <time>2022-01-12T14:01:45Z</time>
      </trkpt>
      <trkpt lat="49.88137" lon="2.14925">
        <ele>119.1</ele>
        <time>2022-01-12T14:01:46Z</time>
      </trkpt>
      <trkpt lat="49.88138" lon="2.14927">
        <ele>119.1</ele>
        <time>2022-01-12T14:01:48Z</time>
      </trkpt>
      <trkpt lat="49.88138" lon="2.14929">
        <ele>119.1</ele>
        <time>2022-01-12T14:01:49Z</time>
      </trkpt>
      <trkpt lat="49.88139" lon="2.14931">
        <ele>119.1</ele>
        <time>2022-01-12T14:01:50Z</time>
      </trkpt>
      <trkpt lat="49.8814" lon="2.14933">
        <ele>119.1</ele>
        <time>2022-01-12T14:01:51Z</time>
      </trkpt>
      <trkpt lat="49.88141" lon="2.14935">
        <ele>119</ele>
        <time>2022-01-12T14:01:52Z</time>
      </trkpt>
      <trkpt lat="49.88141" lon="2.14938">
        <ele>119</ele>
        <time>2022-01-12T14:01:53Z</time>
      </trkpt>
      <trkpt lat="49.88141" lon="2.14939">
        <ele>119</ele>
        <time>2022-01-12T14:01:54Z</time>
      </trkpt>
      <trkpt lat="49.88141" lon="2.14941">
        <ele>119</ele>
        <time>2022-01-12T14:01:55Z</time>
      </trkpt>
      <trkpt lat="49.88142" lon="2.14942">
        <ele>119</ele>
        <time>2022-01-12T14:01:56Z</time>
      </trkpt>
      <trkpt lat="49.88143" lon="2.14945">
        <ele>119</ele>
        <time>2022-01-12T14:01:58Z</time>
      </trkpt>
      <trkpt lat="49.88144" lon="2.14947">
        <ele>119</ele>
        <time>2022-01-12T14:01:59Z</time>
      </trkpt>
      <trkpt lat="49.88145" lon="2.14948">
        <ele>119</ele>
        <time>2022-01-12T14:02:00Z</time>
      </trkpt>
      <trkpt lat="49.88146" lon="2.1495">
        <ele>119</ele>
        <time>2022-01-12T14:02:01Z</time>
      </trkpt>
      <trkpt lat="49.88147" lon="2.14951">
        <ele>118.9</ele>
        <time>2022-01-12T14:02:02Z</time>
      </trkpt>
      <trkpt lat="49.88148" lon="2.14953">
        <ele>118.9</ele>
        <time>2022-01-12T14:02:04Z</time>
      </trkpt>
      <trkpt lat="49.88149" lon="2.14955">
        <ele>118.9</ele>
        <time>2022-01-12T14:02:05Z</time>
      </trkpt>
      <trkpt lat="49.8815" lon="2.14956">
        <ele>118.9</ele>
        <time>2022-01-12T14:02:06Z</time>
      </trkpt>
      <trkpt lat="49.88151" lon="2.14958">
        <ele>118.9</ele>
        <time>2022-01-12T14:02:07Z</time>
      </trkpt>
      <trkpt lat="49.88152" lon="2.1496">
        <ele>118.9</ele>
        <time>2022-01-12T14:02:08Z</time>
      </trkpt>
      <trkpt lat="49.88153" lon="2.14961">
        <ele>118.9</ele>
        <time>2022-01-12T14:02:09Z</time>
      </trkpt>
      <trkpt lat="49.88153" lon="2.14962">
        <ele>118.9</ele>
        <time>2022-01-12T14:02:10Z</time>
      </trkpt>
      <trkpt lat="49.88154" lon="2.14964">
        <ele>118.9</ele>
        <time>2022-01-12T14:02:11Z</time>
      </trkpt>
      <trkpt lat="49.88155" lon="2.14966">
        <ele>118.9</ele>
        <time>2022-01-12T14:02:12Z</time>
      </trkpt>
      <trkpt lat="49.88155" lon="2.14967">
        <ele>118.9</ele>
        <time>2022-01-12T14:02:13Z</time>
      </trkpt>
      <trkpt lat="49.88156" lon="2.14968">
        <ele>118.9</ele>
        <time>2022-01-12T14:02:14Z</time>
      </trkpt>
      <trkpt lat="49.88156" lon="2.14972">
        <ele>118.8</ele>
        <time>2022-01-12T14:02:16Z</time>
      </trkpt>
      <trkpt lat="49.88156" lon="2.14974">
        <ele>118.8</ele>
        <time>2022-01-12T14:02:17Z</time>
      </trkpt>
      <trkpt lat="49.88156" lon="2.14976">
        <ele>118.8</ele>
        <time>2022-01-12T14:02:18Z</time>
      </trkpt>
      <trkpt lat="49.88156" lon="2.14979">
        <ele>118.8</ele>
        <time>2022-01-12T14:02:20Z</time>
      </trkpt>
      <trkpt lat="49.88157" lon="2.14981">
        <ele>118.8</ele>
        <time>2022-01-12T14:02:21Z</time>
      </trkpt>
      <trkpt lat="49.88157" lon="2.14983">
        <ele>118.8</ele>
        <time>2022-01-12T14:02:22Z</time>
      </trkpt>
      <trkpt lat="49.88158" lon="2.14984">
        <ele>118.8</ele>
        <time>2022-01-12T14:02:23Z</time>
      </trkpt>
      <trkpt lat="49.88158" lon="2.14986">
        <ele>118.8</ele>
        <time>2022-01-12T14:02:24Z</time>
      </trkpt>
      <trkpt lat="49.88158" lon="2.14987">
        <ele>118.8</ele>
        <time>2022-01-12T14:02:25Z</time>
      </trkpt>
      <trkpt lat="49.88158" lon="2.14989">
        <ele>118.8</ele>
        <time>2022-01-12T14:02:26Z</time>
      </trkpt>
      <trkpt lat="49.88157" lon="2.1499">
        <ele>118.8</ele>
        <time>2022-01-12T14:02:27Z</time>
      </trkpt>
      <trkpt lat="49.88155" lon="2.14989">
        <ele>118.8</ele>
        <time>2022-01-12T14:02:29Z</time>
      </trkpt>
      <trkpt lat="49.88154" lon="2.14988">
        <ele>118.8</ele>
        <time>2022-01-12T14:02:30Z</time>
      </trkpt>
      <trkpt lat="49.88153" lon="2.14987">
        <ele>118.8</ele>
        <time>2022-01-12T14:02:32Z</time>
      </trkpt>
      <trkpt lat="49.88153" lon="2.14986">
        <ele>118.8</ele>
        <time>2022-01-12T14:02:34Z</time>
      </trkpt>
      <trkpt lat="49.88152" lon="2.14985">
        <ele>118.8</ele>
        <time>2022-01-12T14:02:35Z</time>
      </trkpt>
      <trkpt lat="49.88152" lon="2.14985">
        <ele>118.8</ele>
        <time>2022-01-12T14:02:37Z</time>
      </trkpt>
      <trkpt lat="49.88151" lon="2.14984">
        <ele>118.8</ele>
        <time>2022-01-12T14:02:39Z</time>
      </trkpt>
      <trkpt lat="49.88151" lon="2.14984">
        <ele>118.8</ele>
        <time>2022-01-12T14:02:40Z</time>
      </trkpt>
      <trkpt lat="49.88151" lon="2.14984">
        <ele>118.8</ele>
        <time>2022-01-12T14:02:42Z</time>
      </trkpt>
      <trkpt lat="49.88151" lon="2.14984">
        <ele>118.8</ele>
        <time>2022-01-12T14:02:44Z</time>
      </trkpt>
      <trkpt lat="49.88151" lon="2.14985">
        <ele>118.8</ele>
        <time>2022-01-12T14:02:45Z</time>
      </trkpt>
      <trkpt lat="49.88152" lon="2.14986">
        <ele>118.8</ele>
        <time>2022-01-12T14:02:46Z</time>
      </trkpt>
      <trkpt lat="49.88153" lon="2.14988">
        <ele>118.8</ele>
        <time>2022-01-12T14:02:48Z</time>
      </trkpt>
      <trkpt lat="49.88154" lon="2.14989">
        <ele>118.8</ele>
        <time>2022-01-12T14:02:49Z</time>
      </trkpt>
      <trkpt lat="49.88155" lon="2.14991">
        <ele>118.8</ele>
        <time>2022-01-12T14:02:50Z</time>
      </trkpt>
      <trkpt lat="49.88156" lon="2.14992">
        <ele>118.7</ele>
        <time>2022-01-12T14:02:51Z</time>
      </trkpt>
      <trkpt lat="49.88158" lon="2.14994">
        <ele>118.7</ele>
        <time>2022-01-12T14:02:52Z</time>
      </trkpt>
      <trkpt lat="49.88158" lon="2.14996">
        <ele>118.7</ele>
        <time>2022-01-12T14:02:53Z</time>
      </trkpt>
      <trkpt lat="49.88159" lon="2.14998">
        <ele>118.7</ele>
        <time>2022-01-12T14:02:54Z</time>
      </trkpt>
      <trkpt lat="49.8816" lon="2.15">
        <ele>118.7</ele>
        <time>2022-01-12T14:02:55Z</time>
      </trkpt>
      <trkpt lat="49.88162" lon="2.15003">
        <ele>118.7</ele>
        <time>2022-01-12T14:02:57Z</time>
      </trkpt>
      <trkpt lat="49.88163" lon="2.15003">
        <ele>118.7</ele>
        <time>2022-01-12T14:02:58Z</time>
      </trkpt>
      <trkpt lat="49.88164" lon="2.15005">
        <ele>118.7</ele>
        <time>2022-01-12T14:02:59Z</time>
      </trkpt>
      <trkpt lat="49.88165" lon="2.15006">
        <ele>118.7</ele>
        <time>2022-01-12T14:03:00Z</time>
      </trkpt>
      <trkpt lat="49.88166" lon="2.15008">
        <ele>118.7</ele>
        <time>2022-01-12T14:03:01Z</time>
      </trkpt>
      <trkpt lat="49.88167" lon="2.1501">
        <ele>118.7</ele>
        <time>2022-01-12T14:03:02Z</time>
      </trkpt>
      <trkpt lat="49.88168" lon="2.15011">
        <ele>118.7</ele>
        <time>2022-01-12T14:03:03Z</time>
      </trkpt>
      <trkpt lat="49.88168" lon="2.15014">
        <ele>118.7</ele>
        <time>2022-01-12T14:03:04Z</time>
      </trkpt>
      <trkpt lat="49.8817" lon="2.15017">
        <ele>118.7</ele>
        <time>2022-01-12T14:03:05Z</time>
      </trkpt>
      <trkpt lat="49.8817" lon="2.15019">
        <ele>118.7</ele>
        <time>2022-01-12T14:03:07Z</time>
      </trkpt>
      <trkpt lat="49.88171" lon="2.1502">
        <ele>118.7</ele>
        <time>2022-01-12T14:03:08Z</time>
      </trkpt>
      <trkpt lat="49.88172" lon="2.15022">
        <ele>118.7</ele>
        <time>2022-01-12T14:03:09Z</time>
      </trkpt>
      <trkpt lat="49.88172" lon="2.15023">
        <ele>118.7</ele>
        <time>2022-01-12T14:03:10Z</time>
      </trkpt>
      <trkpt lat="49.88172" lon="2.15026">
        <ele>118.7</ele>
        <time>2022-01-12T14:03:11Z</time>
      </trkpt>
      <trkpt lat="49.88172" lon="2.15028">
        <ele>118.7</ele>
        <time>2022-01-12T14:03:12Z</time>
      </trkpt>
      <trkpt lat="49.88172" lon="2.15029">
        <ele>118.7</ele>
        <time>2022-01-12T14:03:13Z</time>
      </trkpt>
      <trkpt lat="49.88171" lon="2.15031">
        <ele>118.7</ele>
        <time>2022-01-12T14:03:15Z</time>
      </trkpt>
      <trkpt lat="49.88171" lon="2.15033">
        <ele>118.7</ele>
        <time>2022-01-12T14:03:16Z</time>
      </trkpt>
      <trkpt lat="49.8817" lon="2.15035">
        <ele>118.7</ele>
        <time>2022-01-12T14:03:17Z</time>
      </trkpt>
      <trkpt lat="49.8817" lon="2.15037">
        <ele>118.7</ele>
        <time>2022-01-12T14:03:18Z</time>
      </trkpt>
      <trkpt lat="49.8817" lon="2.15038">
        <ele>118.7</ele>
        <time>2022-01-12T14:03:19Z</time>
      </trkpt>
      <trkpt lat="49.8817" lon="2.1504">
        <ele>118.7</ele>
        <time>2022-01-12T14:03:21Z</time>
      </trkpt>
      <trkpt lat="49.88169" lon="2.15041">
        <ele>118.7</ele>
        <time>2022-01-12T14:03:22Z</time>
      </trkpt>
      <trkpt lat="49.88169" lon="2.15042">
        <ele>118.7</ele>
        <time>2022-01-12T14:03:23Z</time>
      </trkpt>
      <trkpt lat="49.88168" lon="2.15044">
        <ele>118.7</ele>
        <time>2022-01-12T14:03:25Z</time>
      </trkpt>
      <trkpt lat="49.88169" lon="2.15045">
        <ele>118.7</ele>
        <time>2022-01-12T14:03:27Z</time>
      </trkpt>
      <trkpt lat="49.88169" lon="2.15044">
        <ele>118.7</ele>
        <time>2022-01-12T14:03:29Z</time>
      </trkpt>
      <trkpt lat="49.8817" lon="2.15042">
        <ele>118.7</ele>
        <time>2022-01-12T14:03:31Z</time>
      </trkpt>
      <trkpt lat="49.8817" lon="2.15041">
        <ele>118.7</ele>
        <time>2022-01-12T14:03:32Z</time>
      </trkpt>
      <trkpt lat="49.8817" lon="2.15041">
        <ele>118.7</ele>
        <time>2022-01-12T14:03:33Z</time>
      </trkpt>
      <trkpt lat="49.8817" lon="2.1504">
        <ele>118.7</ele>
        <time>2022-01-12T14:03:35Z</time>
      </trkpt>
      <trkpt lat="49.8817" lon="2.1504">
        <ele>118.7</ele>
        <time>2022-01-12T14:03:37Z</time>
      </trkpt>
      <trkpt lat="49.8817" lon="2.1504">
        <ele>118.7</ele>
        <time>2022-01-12T14:03:39Z</time>
      </trkpt>
      <trkpt lat="49.8817" lon="2.15039">
        <ele>118.7</ele>
        <time>2022-01-12T14:03:41Z</time>
      </trkpt>
      <trkpt lat="49.8817" lon="2.15039">
        <ele>118.7</ele>
        <time>2022-01-12T14:03:42Z</time>
      </trkpt>
      <trkpt lat="49.8817" lon="2.15039">
        <ele>118.7</ele>
        <time>2022-01-12T14:03:43Z</time>
      </trkpt>
      <trkpt lat="49.8817" lon="2.15039">
        <ele>118.7</ele>
        <time>2022-01-12T14:03:45Z</time>
      </trkpt>
      <trkpt lat="49.8817" lon="2.15039">
        <ele>118.7</ele>
        <time>2022-01-12T14:03:46Z</time>
      </trkpt>
      <trkpt lat="49.8817" lon="2.15039">
        <ele>118.7</ele>
        <time>2022-01-12T14:03:48Z</time>
      </trkpt>
      <trkpt lat="49.8817" lon="2.15039">
        <ele>118.7</ele>
        <time>2022-01-12T14:03:50Z</time>
      </trkpt>
      <trkpt lat="49.8817" lon="2.15039">
        <ele>118.7</ele>
        <time>2022-01-12T14:03:52Z</time>
      </trkpt>
      <trkpt lat="49.88169" lon="2.15038">
        <ele>118.7</ele>
        <time>2022-01-12T14:03:53Z</time>
      </trkpt>
      <trkpt lat="49.88169" lon="2.15038">
        <ele>118.7</ele>
        <time>2022-01-12T14:03:55Z</time>
      </trkpt>
      <trkpt lat="49.8817" lon="2.1504">
        <ele>118.7</ele>
        <time>2022-01-12T14:03:56Z</time>
      </trkpt>
      <trkpt lat="49.88169" lon="2.1504">
        <ele>118.7</ele>
        <time>2022-01-12T14:03:57Z</time>
      </trkpt>
      <trkpt lat="49.88169" lon="2.15041">
        <ele>118.7</ele>
        <time>2022-01-12T14:03:58Z</time>
      </trkpt>
      <trkpt lat="49.88168" lon="2.15042">
        <ele>118.7</ele>
        <time>2022-01-12T14:04:00Z</time>
      </trkpt>
      <trkpt lat="49.88167" lon="2.15043">
        <ele>118.7</ele>
        <time>2022-01-12T14:04:01Z</time>
      </trkpt>
      <trkpt lat="49.88167" lon="2.15045">
        <ele>118.7</ele>
        <time>2022-01-12T14:04:02Z</time>
      </trkpt>
      <trkpt lat="49.88166" lon="2.15047">
        <ele>118.7</ele>
        <time>2022-01-12T14:04:03Z</time>
      </trkpt>
      <trkpt lat="49.88166" lon="2.15048">
        <ele>118.7</ele>
        <time>2022-01-12T14:04:04Z</time>
      </trkpt>
      <trkpt lat="49.88166" lon="2.1505">
        <ele>118.7</ele>
        <time>2022-01-12T14:04:05Z</time>
      </trkpt>
      <trkpt lat="49.88166" lon="2.15053">
        <ele>118.7</ele>
        <time>2022-01-12T14:04:07Z</time>
      </trkpt>
      <trkpt lat="49.88166" lon="2.15055">
        <ele>118.7</ele>
        <time>2022-01-12T14:04:08Z</time>
      </trkpt>
      <trkpt lat="49.88166" lon="2.15058">
        <ele>118.7</ele>
        <time>2022-01-12T14:04:09Z</time>
      </trkpt>
      <trkpt lat="49.88166" lon="2.15062">
        <ele>118.7</ele>
        <time>2022-01-12T14:04:10Z</time>
      </trkpt>
      <trkpt lat="49.88166" lon="2.15063">
        <ele>118.7</ele>
        <time>2022-01-12T14:04:11Z</time>
      </trkpt>
      <trkpt lat="49.88166" lon="2.15066">
        <ele>118.7</ele>
        <time>2022-01-12T14:04:12Z</time>
      </trkpt>
      <trkpt lat="49.88166" lon="2.15069">
        <ele>118.7</ele>
        <time>2022-01-12T14:04:13Z</time>
      </trkpt>
      <trkpt lat="49.88166" lon="2.15072">
        <ele>118.7</ele>
        <time>2022-01-12T14:04:15Z</time>
      </trkpt>
      <trkpt lat="49.88166" lon="2.15074">
        <ele>118.7</ele>
        <time>2022-01-12T14:04:16Z</time>
      </trkpt>
      <trkpt lat="49.88166" lon="2.15077">
        <ele>118.6</ele>
        <time>2022-01-12T14:04:17Z</time>
      </trkpt>
      <trkpt lat="49.88165" lon="2.15079">
        <ele>118.6</ele>
        <time>2022-01-12T14:04:18Z</time>
      </trkpt>
      <trkpt lat="49.88165" lon="2.15082">
        <ele>118.6</ele>
        <time>2022-01-12T14:04:19Z</time>
      </trkpt>
      <trkpt lat="49.88165" lon="2.15084">
        <ele>118.6</ele>
        <time>2022-01-12T14:04:20Z</time>
      </trkpt>
      <trkpt lat="49.88165" lon="2.15087">
        <ele>118.6</ele>
        <time>2022-01-12T14:04:21Z</time>
      </trkpt>
      <trkpt lat="49.88164" lon="2.15089">
        <ele>118.5</ele>
        <time>2022-01-12T14:04:22Z</time>
      </trkpt>
      <trkpt lat="49.88164" lon="2.15094">
        <ele>118.5</ele>
        <time>2022-01-12T14:04:24Z</time>
      </trkpt>
      <trkpt lat="49.88164" lon="2.15095">
        <ele>118.5</ele>
        <time>2022-01-12T14:04:25Z</time>
      </trkpt>
      <trkpt lat="49.88164" lon="2.15097">
        <ele>118.5</ele>
        <time>2022-01-12T14:04:26Z</time>
      </trkpt>
      <trkpt lat="49.88164" lon="2.15099">
        <ele>118.5</ele>
        <time>2022-01-12T14:04:27Z</time>
      </trkpt>
      <trkpt lat="49.88164" lon="2.15102">
        <ele>118.4</ele>
        <time>2022-01-12T14:04:28Z</time>
      </trkpt>
      <trkpt lat="49.88163" lon="2.15105">
        <ele>118.4</ele>
        <time>2022-01-12T14:04:30Z</time>
      </trkpt>
      <trkpt lat="49.88163" lon="2.15108">
        <ele>118.4</ele>
        <time>2022-01-12T14:04:31Z</time>
      </trkpt>
      <trkpt lat="49.88163" lon="2.1511">
        <ele>118.4</ele>
        <time>2022-01-12T14:04:32Z</time>
      </trkpt>
      <trkpt lat="49.88163" lon="2.15112">
        <ele>118.4</ele>
        <time>2022-01-12T14:04:33Z</time>
      </trkpt>
      <trkpt lat="49.88163" lon="2.15114">
        <ele>118.4</ele>
        <time>2022-01-12T14:04:34Z</time>
      </trkpt>
      <trkpt lat="49.88163" lon="2.15116">
        <ele>118.4</ele>
        <time>2022-01-12T14:04:35Z</time>
      </trkpt>
      <trkpt lat="49.88163" lon="2.15117">
        <ele>118.3</ele>
        <time>2022-01-12T14:04:36Z</time>
      </trkpt>
      <trkpt lat="49.88163" lon="2.1512">
        <ele>118.3</ele>
        <time>2022-01-12T14:04:38Z</time>
      </trkpt>
      <trkpt lat="49.88164" lon="2.15123">
        <ele>118.3</ele>
        <time>2022-01-12T14:04:39Z</time>
      </trkpt>
      <trkpt lat="49.88164" lon="2.15124">
        <ele>118.3</ele>
        <time>2022-01-12T14:04:40Z</time>
      </trkpt>
      <trkpt lat="49.88165" lon="2.15125">
        <ele>118.3</ele>
        <time>2022-01-12T14:04:41Z</time>
      </trkpt>
      <trkpt lat="49.88165" lon="2.15127">
        <ele>118.3</ele>
        <time>2022-01-12T14:04:42Z</time>
      </trkpt>
      <trkpt lat="49.88166" lon="2.1513">
        <ele>118.3</ele>
        <time>2022-01-12T14:04:43Z</time>
      </trkpt>
      <trkpt lat="49.88166" lon="2.15131">
        <ele>118.3</ele>
        <time>2022-01-12T14:04:44Z</time>
      </trkpt>
      <trkpt lat="49.88167" lon="2.15132">
        <ele>118.3</ele>
        <time>2022-01-12T14:04:45Z</time>
      </trkpt>
      <trkpt lat="49.88167" lon="2.15136">
        <ele>118.3</ele>
        <time>2022-01-12T14:04:47Z</time>
      </trkpt>
      <trkpt lat="49.88168" lon="2.15138">
        <ele>118.3</ele>
        <time>2022-01-12T14:04:48Z</time>
      </trkpt>
      <trkpt lat="49.88168" lon="2.1514">
        <ele>118.3</ele>
        <time>2022-01-12T14:04:49Z</time>
      </trkpt>
      <trkpt lat="49.88168" lon="2.15141">
        <ele>118.3</ele>
        <time>2022-01-12T14:04:50Z</time>
      </trkpt>
      <trkpt lat="49.88169" lon="2.15142">
        <ele>118.3</ele>
        <time>2022-01-12T14:04:51Z</time>
      </trkpt>
      <trkpt lat="49.88169" lon="2.15144">
        <ele>118.3</ele>
        <time>2022-01-12T14:04:52Z</time>
      </trkpt>
      <trkpt lat="49.8817" lon="2.15145">
        <ele>118.2</ele>
        <time>2022-01-12T14:04:53Z</time>
      </trkpt>
      <trkpt lat="49.88171" lon="2.15148">
        <ele>118.2</ele>
        <time>2022-01-12T14:04:54Z</time>
      </trkpt>
      <trkpt lat="49.88171" lon="2.15149">
        <ele>118.2</ele>
        <time>2022-01-12T14:04:56Z</time>
      </trkpt>
      <trkpt lat="49.88171" lon="2.15151">
        <ele>118.2</ele>
        <time>2022-01-12T14:04:57Z</time>
      </trkpt>
      <trkpt lat="49.88172" lon="2.15154">
        <ele>118.2</ele>
        <time>2022-01-12T14:04:58Z</time>
      </trkpt>
      <trkpt lat="49.88172" lon="2.15155">
        <ele>118.2</ele>
        <time>2022-01-12T14:04:59Z</time>
      </trkpt>
      <trkpt lat="49.88173" lon="2.15156">
        <ele>118.2</ele>
        <time>2022-01-12T14:05:00Z</time>
      </trkpt>
      <trkpt lat="49.88173" lon="2.15158">
        <ele>118.2</ele>
        <time>2022-01-12T14:05:01Z</time>
      </trkpt>
      <trkpt lat="49.88173" lon="2.15159">
        <ele>118.2</ele>
        <time>2022-01-12T14:05:02Z</time>
      </trkpt>
      <trkpt lat="49.88173" lon="2.15161">
        <ele>118.2</ele>
        <time>2022-01-12T14:05:03Z</time>
      </trkpt>
      <trkpt lat="49.88174" lon="2.15163">
        <ele>118.2</ele>
        <time>2022-01-12T14:05:04Z</time>
      </trkpt>
      <trkpt lat="49.88174" lon="2.15164">
        <ele>118.2</ele>
        <time>2022-01-12T14:05:06Z</time>
      </trkpt>
      <trkpt lat="49.88174" lon="2.15166">
        <ele>118.2</ele>
        <time>2022-01-12T14:05:07Z</time>
      </trkpt>
      <trkpt lat="49.88174" lon="2.15169">
        <ele>118.2</ele>
        <time>2022-01-12T14:05:08Z</time>
      </trkpt>
      <trkpt lat="49.88175" lon="2.15171">
        <ele>118.2</ele>
        <time>2022-01-12T14:05:09Z</time>
      </trkpt>
      <trkpt lat="49.88175" lon="2.15174">
        <ele>118.2</ele>
        <time>2022-01-12T14:05:10Z</time>
      </trkpt>
      <trkpt lat="49.88176" lon="2.15175">
        <ele>118.2</ele>
        <time>2022-01-12T14:05:11Z</time>
      </trkpt>
      <trkpt lat="49.88176" lon="2.15176">
        <ele>118.2</ele>
        <time>2022-01-12T14:05:12Z</time>
      </trkpt>
      <trkpt lat="49.88177" lon="2.15178">
        <ele>118.2</ele>
        <time>2022-01-12T14:05:13Z</time>
      </trkpt>
      <trkpt lat="49.88178" lon="2.1518">
        <ele>118.1</ele>
        <time>2022-01-12T14:05:14Z</time>
      </trkpt>
      <trkpt lat="49.88179" lon="2.15181">
        <ele>118.1</ele>
        <time>2022-01-12T14:05:15Z</time>
      </trkpt>
      <trkpt lat="49.8818" lon="2.15183">
        <ele>118.1</ele>
        <time>2022-01-12T14:05:16Z</time>
      </trkpt>
      <trkpt lat="49.8818" lon="2.15184">
        <ele>118.1</ele>
        <time>2022-01-12T14:05:17Z</time>
      </trkpt>
      <trkpt lat="49.88181" lon="2.15186">
        <ele>118.1</ele>
        <time>2022-01-12T14:05:18Z</time>
      </trkpt>
      <trkpt lat="49.88181" lon="2.15188">
        <ele>118.1</ele>
        <time>2022-01-12T14:05:20Z</time>
      </trkpt>
      <trkpt lat="49.88182" lon="2.15191">
        <ele>118.1</ele>
        <time>2022-01-12T14:05:21Z</time>
      </trkpt>
      <trkpt lat="49.88182" lon="2.15192">
        <ele>118.1</ele>
        <time>2022-01-12T14:05:22Z</time>
      </trkpt>
      <trkpt lat="49.88182" lon="2.15194">
        <ele>118.1</ele>
        <time>2022-01-12T14:05:23Z</time>
      </trkpt>
      <trkpt lat="49.88183" lon="2.15196">
        <ele>118.1</ele>
        <time>2022-01-12T14:05:24Z</time>
      </trkpt>
      <trkpt lat="49.88184" lon="2.15197">
        <ele>118.1</ele>
        <time>2022-01-12T14:05:25Z</time>
      </trkpt>
      <trkpt lat="49.88185" lon="2.152">
        <ele>118</ele>
        <time>2022-01-12T14:05:27Z</time>
      </trkpt>
      <trkpt lat="49.88186" lon="2.15203">
        <ele>118</ele>
        <time>2022-01-12T14:05:28Z</time>
      </trkpt>
      <trkpt lat="49.88186" lon="2.15204">
        <ele>118</ele>
        <time>2022-01-12T14:05:29Z</time>
      </trkpt>
      <trkpt lat="49.88186" lon="2.15205">
        <ele>118</ele>
        <time>2022-01-12T14:05:30Z</time>
      </trkpt>
      <trkpt lat="49.88187" lon="2.15208">
        <ele>118</ele>
        <time>2022-01-12T14:05:31Z</time>
      </trkpt>
      <trkpt lat="49.88188" lon="2.1521">
        <ele>118</ele>
        <time>2022-01-12T14:05:32Z</time>
      </trkpt>
      <trkpt lat="49.88188" lon="2.15212">
        <ele>118</ele>
        <time>2022-01-12T14:05:33Z</time>
      </trkpt>
      <trkpt lat="49.88189" lon="2.15214">
        <ele>118</ele>
        <time>2022-01-12T14:05:35Z</time>
      </trkpt>
      <trkpt lat="49.88189" lon="2.15216">
        <ele>118</ele>
        <time>2022-01-12T14:05:36Z</time>
      </trkpt>
      <trkpt lat="49.8819" lon="2.15218">
        <ele>117.9</ele>
        <time>2022-01-12T14:05:37Z</time>
      </trkpt>
      <trkpt lat="49.88191" lon="2.15221">
        <ele>117.9</ele>
        <time>2022-01-12T14:05:38Z</time>
      </trkpt>
      <trkpt lat="49.88191" lon="2.15223">
        <ele>117.9</ele>
        <time>2022-01-12T14:05:39Z</time>
      </trkpt>
      <trkpt lat="49.88191" lon="2.15224">
        <ele>117.9</ele>
        <time>2022-01-12T14:05:40Z</time>
      </trkpt>
      <trkpt lat="49.88192" lon="2.15227">
        <ele>117.9</ele>
        <time>2022-01-12T14:05:42Z</time>
      </trkpt>
      <trkpt lat="49.88192" lon="2.15228">
        <ele>117.9</ele>
        <time>2022-01-12T14:05:43Z</time>
      </trkpt>
      <trkpt lat="49.88193" lon="2.15231">
        <ele>117.9</ele>
        <time>2022-01-12T14:05:44Z</time>
      </trkpt>
      <trkpt lat="49.88193" lon="2.15233">
        <ele>117.9</ele>
        <time>2022-01-12T14:05:45Z</time>
      </trkpt>
      <trkpt lat="49.88193" lon="2.15234">
        <ele>117.9</ele>
        <time>2022-01-12T14:05:46Z</time>
      </trkpt>
      <trkpt lat="49.88194" lon="2.15238">
        <ele>117.9</ele>
        <time>2022-01-12T14:05:47Z</time>
      </trkpt>
      <trkpt lat="49.88195" lon="2.15239">
        <ele>117.9</ele>
        <time>2022-01-12T14:05:49Z</time>
      </trkpt>
      <trkpt lat="49.88195" lon="2.15241">
        <ele>117.9</ele>
        <time>2022-01-12T14:05:50Z</time>
      </trkpt>
      <trkpt lat="49.88196" lon="2.15242">
        <ele>117.9</ele>
        <time>2022-01-12T14:05:51Z</time>
      </trkpt>
      <trkpt lat="49.88196" lon="2.15244">
        <ele>117.9</ele>
        <time>2022-01-12T14:05:52Z</time>
      </trkpt>
      <trkpt lat="49.88197" lon="2.15246">
        <ele>117.9</ele>
        <time>2022-01-12T14:05:53Z</time>
      </trkpt>
      <trkpt lat="49.88197" lon="2.15247">
        <ele>117.9</ele>
        <time>2022-01-12T14:05:54Z</time>
      </trkpt>
      <trkpt lat="49.88198" lon="2.15249">
        <ele>117.9</ele>
        <time>2022-01-12T14:05:56Z</time>
      </trkpt>
      <trkpt lat="49.88199" lon="2.15251">
        <ele>117.9</ele>
        <time>2022-01-12T14:05:57Z</time>
      </trkpt>
      <trkpt lat="49.88199" lon="2.15252">
        <ele>117.9</ele>
        <time>2022-01-12T14:05:58Z</time>
      </trkpt>
      <trkpt lat="49.882" lon="2.15253">
        <ele>117.9</ele>
        <time>2022-01-12T14:05:59Z</time>
      </trkpt>
      <trkpt lat="49.882" lon="2.15255">
        <ele>117.9</ele>
        <time>2022-01-12T14:06:00Z</time>
      </trkpt>
      <trkpt lat="49.88201" lon="2.15258">
        <ele>117.9</ele>
        <time>2022-01-12T14:06:01Z</time>
      </trkpt>
      <trkpt lat="49.88201" lon="2.1526">
        <ele>117.9</ele>
        <time>2022-01-12T14:06:02Z</time>
      </trkpt>
      <trkpt lat="49.88201" lon="2.15262">
        <ele>117.9</ele>
        <time>2022-01-12T14:06:03Z</time>
      </trkpt>
      <trkpt lat="49.88201" lon="2.15264">
        <ele>117.9</ele>
        <time>2022-01-12T14:06:05Z</time>
      </trkpt>
      <trkpt lat="49.88202" lon="2.15267">
        <ele>117.9</ele>
        <time>2022-01-12T14:06:06Z</time>
      </trkpt>
      <trkpt lat="49.88202" lon="2.15269">
        <ele>117.9</ele>
        <time>2022-01-12T14:06:07Z</time>
      </trkpt>
      <trkpt lat="49.88202" lon="2.15271">
        <ele>117.9</ele>
        <time>2022-01-12T14:06:08Z</time>
      </trkpt>
      <trkpt lat="49.88203" lon="2.15274">
        <ele>117.9</ele>
        <time>2022-01-12T14:06:09Z</time>
      </trkpt>
      <trkpt lat="49.88204" lon="2.15275">
        <ele>117.9</ele>
        <time>2022-01-12T14:06:11Z</time>
      </trkpt>
      <trkpt lat="49.88204" lon="2.15277">
        <ele>117.9</ele>
        <time>2022-01-12T14:06:12Z</time>
      </trkpt>
      <trkpt lat="49.88205" lon="2.15279">
        <ele>117.9</ele>
        <time>2022-01-12T14:06:13Z</time>
      </trkpt>
      <trkpt lat="49.88206" lon="2.15282">
        <ele>117.9</ele>
        <time>2022-01-12T14:06:14Z</time>
      </trkpt>
      <trkpt lat="49.88207" lon="2.15285">
        <ele>117.9</ele>
        <time>2022-01-12T14:06:15Z</time>
      </trkpt>
      <trkpt lat="49.88207" lon="2.15286">
        <ele>117.9</ele>
        <time>2022-01-12T14:06:17Z</time>
      </trkpt>
      <trkpt lat="49.88208" lon="2.15288">
        <ele>117.8</ele>
        <time>2022-01-12T14:06:18Z</time>
      </trkpt>
      <trkpt lat="49.88208" lon="2.1529">
        <ele>117.8</ele>
        <time>2022-01-12T14:06:19Z</time>
      </trkpt>
      <trkpt lat="49.88208" lon="2.15291">
        <ele>117.8</ele>
        <time>2022-01-12T14:06:20Z</time>
      </trkpt>
      <trkpt lat="49.8821" lon="2.15294">
        <ele>117.8</ele>
        <time>2022-01-12T14:06:21Z</time>
      </trkpt>
      <trkpt lat="49.8821" lon="2.15295">
        <ele>117.8</ele>
        <time>2022-01-12T14:06:23Z</time>
      </trkpt>
      <trkpt lat="49.88211" lon="2.15297">
        <ele>117.8</ele>
        <time>2022-01-12T14:06:24Z</time>
      </trkpt>
      <trkpt lat="49.88211" lon="2.15298">
        <ele>117.8</ele>
        <time>2022-01-12T14:06:25Z</time>
      </trkpt>
      <trkpt lat="49.88212" lon="2.153">
        <ele>117.8</ele>
        <time>2022-01-12T14:06:26Z</time>
      </trkpt>
      <trkpt lat="49.88213" lon="2.15303">
        <ele>117.8</ele>
        <time>2022-01-12T14:06:28Z</time>
      </trkpt>
      <trkpt lat="49.88214" lon="2.15304">
        <ele>117.8</ele>
        <time>2022-01-12T14:06:29Z</time>
      </trkpt>
      <trkpt lat="49.88214" lon="2.15307">
        <ele>117.7</ele>
        <time>2022-01-12T14:06:30Z</time>
      </trkpt>
      <trkpt lat="49.88214" lon="2.15308">
        <ele>117.7</ele>
        <time>2022-01-12T14:06:31Z</time>
      </trkpt>
      <trkpt lat="49.88215" lon="2.1531">
        <ele>117.7</ele>
        <time>2022-01-12T14:06:32Z</time>
      </trkpt>
      <trkpt lat="49.88215" lon="2.15312">
        <ele>117.7</ele>
        <time>2022-01-12T14:06:34Z</time>
      </trkpt>
      <trkpt lat="49.88216" lon="2.15315">
        <ele>117.7</ele>
        <time>2022-01-12T14:06:35Z</time>
      </trkpt>
      <trkpt lat="49.88216" lon="2.15316">
        <ele>117.7</ele>
        <time>2022-01-12T14:06:36Z</time>
      </trkpt>
      <trkpt lat="49.88217" lon="2.15319">
        <ele>117.7</ele>
        <time>2022-01-12T14:06:37Z</time>
      </trkpt>
      <trkpt lat="49.88217" lon="2.1532">
        <ele>117.7</ele>
        <time>2022-01-12T14:06:38Z</time>
      </trkpt>
      <trkpt lat="49.88218" lon="2.15322">
        <ele>117.7</ele>
        <time>2022-01-12T14:06:39Z</time>
      </trkpt>
      <trkpt lat="49.88218" lon="2.15325">
        <ele>117.7</ele>
        <time>2022-01-12T14:06:41Z</time>
      </trkpt>
      <trkpt lat="49.88219" lon="2.15327">
        <ele>117.7</ele>
        <time>2022-01-12T14:06:42Z</time>
      </trkpt>
      <trkpt lat="49.88219" lon="2.15329">
        <ele>117.7</ele>
        <time>2022-01-12T14:06:43Z</time>
      </trkpt>
      <trkpt lat="49.88219" lon="2.15331">
        <ele>117.7</ele>
        <time>2022-01-12T14:06:44Z</time>
      </trkpt>
      <trkpt lat="49.8822" lon="2.15333">
        <ele>117.7</ele>
        <time>2022-01-12T14:06:45Z</time>
      </trkpt>
      <trkpt lat="49.88221" lon="2.15337">
        <ele>117.7</ele>
        <time>2022-01-12T14:06:46Z</time>
      </trkpt>
      <trkpt lat="49.88221" lon="2.15339">
        <ele>117.7</ele>
        <time>2022-01-12T14:06:48Z</time>
      </trkpt>
      <trkpt lat="49.88222" lon="2.1534">
        <ele>117.6</ele>
        <time>2022-01-12T14:06:49Z</time>
      </trkpt>
      <trkpt lat="49.88222" lon="2.15342">
        <ele>117.6</ele>
        <time>2022-01-12T14:06:50Z</time>
      </trkpt>
      <trkpt lat="49.88223" lon="2.15343">
        <ele>117.6</ele>
        <time>2022-01-12T14:06:51Z</time>
      </trkpt>
      <trkpt lat="49.88224" lon="2.15346">
        <ele>117.6</ele>
        <time>2022-01-12T14:06:53Z</time>
      </trkpt>
      <trkpt lat="49.88224" lon="2.15348">
        <ele>117.6</ele>
        <time>2022-01-12T14:06:54Z</time>
      </trkpt>
      <trkpt lat="49.88225" lon="2.1535">
        <ele>117.6</ele>
        <time>2022-01-12T14:06:55Z</time>
      </trkpt>
      <trkpt lat="49.88225" lon="2.15352">
        <ele>117.6</ele>
        <time>2022-01-12T14:06:56Z</time>
      </trkpt>
      <trkpt lat="49.88226" lon="2.15353">
        <ele>117.6</ele>
        <time>2022-01-12T14:06:57Z</time>
      </trkpt>
      <trkpt lat="49.88226" lon="2.15356">
        <ele>117.6</ele>
        <time>2022-01-12T14:06:59Z</time>
      </trkpt>
      <trkpt lat="49.88227" lon="2.15357">
        <ele>117.6</ele>
        <time>2022-01-12T14:07:00Z</time>
      </trkpt>
      <trkpt lat="49.88228" lon="2.15361">
        <ele>117.6</ele>
        <time>2022-01-12T14:07:01Z</time>
      </trkpt>
      <trkpt lat="49.88228" lon="2.15362">
        <ele>117.6</ele>
        <time>2022-01-12T14:07:02Z</time>
      </trkpt>
      <trkpt lat="49.88229" lon="2.15363">
        <ele>117.6</ele>
        <time>2022-01-12T14:07:03Z</time>
      </trkpt>
      <trkpt lat="49.88229" lon="2.15365">
        <ele>117.6</ele>
        <time>2022-01-12T14:07:04Z</time>
      </trkpt>
      <trkpt lat="49.8823" lon="2.15367">
        <ele>117.6</ele>
        <time>2022-01-12T14:07:05Z</time>
      </trkpt>
      <trkpt lat="49.88231" lon="2.15369">
        <ele>117.6</ele>
        <time>2022-01-12T14:07:07Z</time>
      </trkpt>
      <trkpt lat="49.88231" lon="2.15371">
        <ele>117.6</ele>
        <time>2022-01-12T14:07:08Z</time>
      </trkpt>
      <trkpt lat="49.88232" lon="2.15373">
        <ele>117.6</ele>
        <time>2022-01-12T14:07:09Z</time>
      </trkpt>
      <trkpt lat="49.88232" lon="2.15375">
        <ele>117.6</ele>
        <time>2022-01-12T14:07:10Z</time>
      </trkpt>
      <trkpt lat="49.88233" lon="2.15377">
        <ele>117.6</ele>
        <time>2022-01-12T14:07:11Z</time>
      </trkpt>
      <trkpt lat="49.88233" lon="2.15379">
        <ele>117.6</ele>
        <time>2022-01-12T14:07:12Z</time>
      </trkpt>
      <trkpt lat="49.88233" lon="2.15381">
        <ele>117.6</ele>
        <time>2022-01-12T14:07:14Z</time>
      </trkpt>
      <trkpt lat="49.88232" lon="2.15382">
        <ele>117.6</ele>
        <time>2022-01-12T14:07:15Z</time>
      </trkpt>
      <trkpt lat="49.88231" lon="2.15381">
        <ele>117.6</ele>
        <time>2022-01-12T14:07:16Z</time>
      </trkpt>
      <trkpt lat="49.88231" lon="2.15381">
        <ele>117.6</ele>
        <time>2022-01-12T14:07:17Z</time>
      </trkpt>
      <trkpt lat="49.8823" lon="2.1538">
        <ele>117.6</ele>
        <time>2022-01-12T14:07:19Z</time>
      </trkpt>
      <trkpt lat="49.8823" lon="2.15379">
        <ele>117.6</ele>
        <time>2022-01-12T14:07:21Z</time>
      </trkpt>
      <trkpt lat="49.88231" lon="2.15379">
        <ele>117.6</ele>
        <time>2022-01-12T14:07:23Z</time>
      </trkpt>
      <trkpt lat="49.88231" lon="2.15379">
        <ele>117.6</ele>
        <time>2022-01-12T14:07:24Z</time>
      </trkpt>
      <trkpt lat="49.88231" lon="2.15379">
        <ele>117.6</ele>
        <time>2022-01-12T14:07:25Z</time>
      </trkpt>
      <trkpt lat="49.88231" lon="2.15379">
        <ele>117.6</ele>
        <time>2022-01-12T14:07:27Z</time>
      </trkpt>
      <trkpt lat="49.88231" lon="2.15379">
        <ele>117.6</ele>
        <time>2022-01-12T14:07:29Z</time>
      </trkpt>
      <trkpt lat="49.88231" lon="2.15378">
        <ele>117.6</ele>
        <time>2022-01-12T14:07:31Z</time>
      </trkpt>
      <trkpt lat="49.88231" lon="2.15378">
        <ele>117.6</ele>
        <time>2022-01-12T14:07:32Z</time>
      </trkpt>
      <trkpt lat="49.88231" lon="2.15378">
        <ele>117.6</ele>
        <time>2022-01-12T14:07:33Z</time>
      </trkpt>
      <trkpt lat="49.88231" lon="2.15379">
        <ele>117.6</ele>
        <time>2022-01-12T14:07:35Z</time>
      </trkpt>
      <trkpt lat="49.88231" lon="2.15379">
        <ele>117.6</ele>
        <time>2022-01-12T14:07:37Z</time>
      </trkpt>
      <trkpt lat="49.88231" lon="2.15379">
        <ele>117.6</ele>
        <time>2022-01-12T14:07:38Z</time>
      </trkpt>
      <trkpt lat="49.88231" lon="2.15379">
        <ele>117.6</ele>
        <time>2022-01-12T14:07:39Z</time>
      </trkpt>
      <trkpt lat="49.88231" lon="2.15379">
        <ele>117.6</ele>
        <time>2022-01-12T14:07:41Z</time>
      </trkpt>
      <trkpt lat="49.88231" lon="2.15379">
        <ele>117.6</ele>
        <time>2022-01-12T14:07:42Z</time>
      </trkpt>
      <trkpt lat="49.88231" lon="2.15379">
        <ele>117.6</ele>
        <time>2022-01-12T14:07:44Z</time>
      </trkpt>
      <trkpt lat="49.88231" lon="2.15379">
        <ele>117.6</ele>
        <time>2022-01-12T14:07:45Z</time>
      </trkpt>
      <trkpt lat="49.88231" lon="2.15379">
        <ele>117.6</ele>
        <time>2022-01-12T14:07:47Z</time>
      </trkpt>
      <trkpt lat="49.88231" lon="2.15379">
        <ele>117.6</ele>
        <time>2022-01-12T14:07:48Z</time>
      </trkpt>
      <trkpt lat="49.88231" lon="2.15379">
        <ele>117.6</ele>
        <time>2022-01-12T14:07:49Z</time>
      </trkpt>
      <trkpt lat="49.88231" lon="2.15379">
        <ele>117.6</ele>
        <time>2022-01-12T14:07:51Z</time>
      </trkpt>
      <trkpt lat="49.88231" lon="2.15379">
        <ele>117.6</ele>
        <time>2022-01-12T14:07:52Z</time>
      </trkpt>
      <trkpt lat="49.88231" lon="2.15379">
        <ele>117.6</ele>
        <time>2022-01-12T14:07:53Z</time>
      </trkpt>
      <trkpt lat="49.88231" lon="2.15379">
        <ele>117.6</ele>
        <time>2022-01-12T14:07:55Z</time>
      </trkpt>
      <trkpt lat="49.88231" lon="2.15379">
        <ele>117.6</ele>
        <time>2022-01-12T14:07:57Z</time>
      </trkpt>
      <trkpt lat="49.88231" lon="2.15379">
        <ele>117.6</ele>
        <time>2022-01-12T14:07:59Z</time>
      </trkpt>
      <trkpt lat="49.88231" lon="2.15379">
        <ele>117.6</ele>
        <time>2022-01-12T14:08:00Z</time>
      </trkpt>
      <trkpt lat="49.88231" lon="2.15379">
        <ele>117.6</ele>
        <time>2022-01-12T14:08:01Z</time>
      </trkpt>
      <trkpt lat="49.88231" lon="2.15379">
        <ele>117.6</ele>
        <time>2022-01-12T14:08:02Z</time>
      </trkpt>
      <trkpt lat="49.88231" lon="2.15379">
        <ele>117.6</ele>
        <time>2022-01-12T14:08:04Z</time>
      </trkpt>
      <trkpt lat="49.88231" lon="2.15379">
        <ele>117.6</ele>
        <time>2022-01-12T14:08:05Z</time>
      </trkpt>
      <trkpt lat="49.88231" lon="2.15379">
        <ele>117.6</ele>
        <time>2022-01-12T14:08:07Z</time>
      </trkpt>
      <trkpt lat="49.88231" lon="2.15379">
        <ele>117.6</ele>
        <time>2022-01-12T14:08:08Z</time>
      </trkpt>
      <trkpt lat="49.88231" lon="2.15379">
        <ele>117.6</ele>
        <time>2022-01-12T14:08:09Z</time>
      </trkpt>
      <trkpt lat="49.88231" lon="2.15379">
        <ele>117.6</ele>
        <time>2022-01-12T14:08:11Z</time>
      </trkpt>
      <trkpt lat="49.88231" lon="2.15379">
        <ele>117.6</ele>
        <time>2022-01-12T14:08:12Z</time>
      </trkpt>
      <trkpt lat="49.88232" lon="2.15378">
        <ele>117.6</ele>
        <time>2022-01-12T14:08:14Z</time>
      </trkpt>
      <trkpt lat="49.88234" lon="2.15378">
        <ele>117.6</ele>
        <time>2022-01-12T14:08:16Z</time>
      </trkpt>
      <trkpt lat="49.88235" lon="2.1538">
        <ele>117.5</ele>
        <time>2022-01-12T14:08:18Z</time>
      </trkpt>
      <trkpt lat="49.88235" lon="2.15381">
        <ele>117.5</ele>
        <time>2022-01-12T14:08:19Z</time>
      </trkpt>
      <trkpt lat="49.88236" lon="2.15383">
        <ele>117.5</ele>
        <time>2022-01-12T14:08:20Z</time>
      </trkpt>
      <trkpt lat="49.88236" lon="2.15385">
        <ele>117.5</ele>
        <time>2022-01-12T14:08:22Z</time>
      </trkpt>
      <trkpt lat="49.88236" lon="2.15386">
        <ele>117.5</ele>
        <time>2022-01-12T14:08:23Z</time>
      </trkpt>
      <trkpt lat="49.88237" lon="2.15388">
        <ele>117.5</ele>
        <time>2022-01-12T14:08:25Z</time>
      </trkpt>
      <trkpt lat="49.88238" lon="2.15391">
        <ele>117.5</ele>
        <time>2022-01-12T14:08:27Z</time>
      </trkpt>
      <trkpt lat="49.88238" lon="2.15392">
        <ele>117.5</ele>
        <time>2022-01-12T14:08:28Z</time>
      </trkpt>
      <trkpt lat="49.88238" lon="2.15395">
        <ele>117.5</ele>
        <time>2022-01-12T14:08:30Z</time>
      </trkpt>
      <trkpt lat="49.88238" lon="2.15396">
        <ele>117.5</ele>
        <time>2022-01-12T14:08:31Z</time>
      </trkpt>
      <trkpt lat="49.88239" lon="2.15399">
        <ele>117.5</ele>
        <time>2022-01-12T14:08:33Z</time>
      </trkpt>
      <trkpt lat="49.88239" lon="2.154">
        <ele>117.5</ele>
        <time>2022-01-12T14:08:34Z</time>
      </trkpt>
      <trkpt lat="49.8824" lon="2.15403">
        <ele>117.5</ele>
        <time>2022-01-12T14:08:36Z</time>
      </trkpt>
      <trkpt lat="49.8824" lon="2.15406">
        <ele>117.4</ele>
        <time>2022-01-12T14:08:38Z</time>
      </trkpt>
      <trkpt lat="49.88241" lon="2.15409">
        <ele>117.4</ele>
        <time>2022-01-12T14:08:40Z</time>
      </trkpt>
      <trkpt lat="49.8824" lon="2.15413">
        <ele>117.4</ele>
        <time>2022-01-12T14:08:41Z</time>
      </trkpt>
      <trkpt lat="49.8824" lon="2.15414">
        <ele>117.4</ele>
        <time>2022-01-12T14:08:43Z</time>
      </trkpt>
      <trkpt lat="49.8824" lon="2.15415">
        <ele>117.4</ele>
        <time>2022-01-12T14:08:44Z</time>
      </trkpt>
      <trkpt lat="49.88241" lon="2.15417">
        <ele>117.4</ele>
        <time>2022-01-12T14:08:45Z</time>
      </trkpt>
      <trkpt lat="49.88241" lon="2.15418">
        <ele>117.4</ele>
        <time>2022-01-12T14:08:46Z</time>
      </trkpt>
      <trkpt lat="49.88241" lon="2.15419">
        <ele>117.4</ele>
        <time>2022-01-12T14:08:47Z</time>
      </trkpt>
      <trkpt lat="49.88242" lon="2.15421">
        <ele>117.4</ele>
        <time>2022-01-12T14:08:49Z</time>
      </trkpt>
      <trkpt lat="49.88243" lon="2.15423">
        <ele>117.3</ele>
        <time>2022-01-12T14:08:51Z</time>
      </trkpt>
      <trkpt lat="49.88243" lon="2.15423">
        <ele>117.3</ele>
        <time>2022-01-12T14:08:52Z</time>
      </trkpt>
      <trkpt lat="49.88244" lon="2.15424">
        <ele>117.3</ele>
        <time>2022-01-12T14:08:53Z</time>
      </trkpt>
      <trkpt lat="49.88245" lon="2.15425">
        <ele>117.3</ele>
        <time>2022-01-12T14:08:55Z</time>
      </trkpt>
      <trkpt lat="49.88245" lon="2.15426">
        <ele>117.3</ele>
        <time>2022-01-12T14:08:56Z</time>
      </trkpt>
      <trkpt lat="49.88246" lon="2.15427">
        <ele>117.3</ele>
        <time>2022-01-12T14:08:58Z</time>
      </trkpt>
      <trkpt lat="49.88246" lon="2.15428">
        <ele>117.3</ele>
        <time>2022-01-12T14:08:59Z</time>
      </trkpt>
      <trkpt lat="49.88247" lon="2.15429">
        <ele>117.3</ele>
        <time>2022-01-12T14:09:00Z</time>
      </trkpt>
      <trkpt lat="49.88247" lon="2.1543">
        <ele>117.3</ele>
        <time>2022-01-12T14:09:01Z</time>
      </trkpt>
      <trkpt lat="49.88248" lon="2.1543">
        <ele>117.3</ele>
        <time>2022-01-12T14:09:02Z</time>
      </trkpt>
      <trkpt lat="49.88248" lon="2.15429">
        <ele>117.3</ele>
        <time>2022-01-12T14:09:03Z</time>
      </trkpt>
      <trkpt lat="49.88249" lon="2.15429">
        <ele>117.3</ele>
        <time>2022-01-12T14:09:04Z</time>
      </trkpt>
      <trkpt lat="49.88249" lon="2.15428">
        <ele>117.3</ele>
        <time>2022-01-12T14:09:06Z</time>
      </trkpt>
      <trkpt lat="49.88249" lon="2.15428">
        <ele>117.3</ele>
        <time>2022-01-12T14:09:08Z</time>
      </trkpt>
      <trkpt lat="49.88249" lon="2.15428">
        <ele>117.3</ele>
        <time>2022-01-12T14:09:09Z</time>
      </trkpt>
      <trkpt lat="49.88249" lon="2.15429">
        <ele>117.3</ele>
        <time>2022-01-12T14:09:10Z</time>
      </trkpt>
      <trkpt lat="49.88249" lon="2.1543">
        <ele>117.3</ele>
        <time>2022-01-12T14:09:11Z</time>
      </trkpt>
      <trkpt lat="49.8825" lon="2.15431">
        <ele>117.3</ele>
        <time>2022-01-12T14:09:12Z</time>
      </trkpt>
      <trkpt lat="49.8825" lon="2.15434">
        <ele>117.3</ele>
        <time>2022-01-12T14:09:14Z</time>
      </trkpt>
      <trkpt lat="49.8825" lon="2.15436">
        <ele>117.3</ele>
        <time>2022-01-12T14:09:15Z</time>
      </trkpt>
      <trkpt lat="49.88251" lon="2.15438">
        <ele>117.3</ele>
        <time>2022-01-12T14:09:16Z</time>
      </trkpt>
      <trkpt lat="49.88251" lon="2.1544">
        <ele>117.3</ele>
        <time>2022-01-12T14:09:17Z</time>
      </trkpt>
      <trkpt lat="49.88252" lon="2.15442">
        <ele>117.3</ele>
        <time>2022-01-12T14:09:18Z</time>
      </trkpt>
      <trkpt lat="49.88252" lon="2.15445">
        <ele>117.2</ele>
        <time>2022-01-12T14:09:19Z</time>
      </trkpt>
      <trkpt lat="49.88252" lon="2.15447">
        <ele>117.2</ele>
        <time>2022-01-12T14:09:20Z</time>
      </trkpt>
      <trkpt lat="49.88253" lon="2.15449">
        <ele>117.2</ele>
        <time>2022-01-12T14:09:21Z</time>
      </trkpt>
      <trkpt lat="49.88253" lon="2.15452">
        <ele>117.2</ele>
        <time>2022-01-12T14:09:23Z</time>
      </trkpt>
      <trkpt lat="49.88254" lon="2.15454">
        <ele>117.2</ele>
        <time>2022-01-12T14:09:24Z</time>
      </trkpt>
      <trkpt lat="49.88254" lon="2.15456">
        <ele>117.2</ele>
        <time>2022-01-12T14:09:25Z</time>
      </trkpt>
      <trkpt lat="49.88255" lon="2.15459">
        <ele>117.2</ele>
        <time>2022-01-12T14:09:27Z</time>
      </trkpt>
      <trkpt lat="49.88255" lon="2.15461">
        <ele>117.2</ele>
        <time>2022-01-12T14:09:28Z</time>
      </trkpt>
      <trkpt lat="49.88255" lon="2.15463">
        <ele>117.2</ele>
        <time>2022-01-12T14:09:29Z</time>
      </trkpt>
      <trkpt lat="49.88256" lon="2.15465">
        <ele>117.2</ele>
        <time>2022-01-12T14:09:30Z</time>
      </trkpt>
      <trkpt lat="49.88256" lon="2.15467">
        <ele>117.2</ele>
        <time>2022-01-12T14:09:31Z</time>
      </trkpt>
      <trkpt lat="49.88257" lon="2.1547">
        <ele>117.2</ele>
        <time>2022-01-12T14:09:33Z</time>
      </trkpt>
      <trkpt lat="49.88257" lon="2.15473">
        <ele>117.1</ele>
        <time>2022-01-12T14:09:34Z</time>
      </trkpt>
      <trkpt lat="49.88257" lon="2.15474">
        <ele>117.1</ele>
        <time>2022-01-12T14:09:35Z</time>
      </trkpt>
      <trkpt lat="49.88258" lon="2.15475">
        <ele>117.1</ele>
        <time>2022-01-12T14:09:36Z</time>
      </trkpt>
      <trkpt lat="49.88258" lon="2.15478">
        <ele>117.1</ele>
        <time>2022-01-12T14:09:37Z</time>
      </trkpt>
      <trkpt lat="49.88258" lon="2.15479">
        <ele>117.1</ele>
        <time>2022-01-12T14:09:38Z</time>
      </trkpt>
      <trkpt lat="49.88259" lon="2.1548">
        <ele>117.1</ele>
        <time>2022-01-12T14:09:39Z</time>
      </trkpt>
      <trkpt lat="49.88259" lon="2.15482">
        <ele>117.1</ele>
        <time>2022-01-12T14:09:40Z</time>
      </trkpt>
      <trkpt lat="49.8826" lon="2.15484">
        <ele>117.1</ele>
        <time>2022-01-12T14:09:41Z</time>
      </trkpt>
      <trkpt lat="49.88262" lon="2.15488">
        <ele>117.1</ele>
        <time>2022-01-12T14:09:43Z</time>
      </trkpt>
      <trkpt lat="49.88262" lon="2.15489">
        <ele>117.1</ele>
        <time>2022-01-12T14:09:44Z</time>
      </trkpt>
      <trkpt lat="49.88263" lon="2.15491">
        <ele>117.1</ele>
        <time>2022-01-12T14:09:45Z</time>
      </trkpt>
      <trkpt lat="49.88264" lon="2.15493">
        <ele>117.1</ele>
        <time>2022-01-12T14:09:47Z</time>
      </trkpt>
      <trkpt lat="49.88264" lon="2.15495">
        <ele>117.1</ele>
        <time>2022-01-12T14:09:48Z</time>
      </trkpt>
      <trkpt lat="49.88265" lon="2.15497">
        <ele>117.1</ele>
        <time>2022-01-12T14:09:49Z</time>
      </trkpt>
      <trkpt lat="49.88265" lon="2.15498">
        <ele>117.1</ele>
        <time>2022-01-12T14:09:50Z</time>
      </trkpt>
      <trkpt lat="49.88266" lon="2.15501">
        <ele>117</ele>
        <time>2022-01-12T14:09:51Z</time>
      </trkpt>
      <trkpt lat="49.88266" lon="2.15503">
        <ele>117</ele>
        <time>2022-01-12T14:09:52Z</time>
      </trkpt>
      <trkpt lat="49.88266" lon="2.15504">
        <ele>117</ele>
        <time>2022-01-12T14:09:53Z</time>
      </trkpt>
      <trkpt lat="49.88267" lon="2.15507">
        <ele>117</ele>
        <time>2022-01-12T14:09:54Z</time>
      </trkpt>
      <trkpt lat="49.88267" lon="2.15508">
        <ele>117</ele>
        <time>2022-01-12T14:09:55Z</time>
      </trkpt>
      <trkpt lat="49.88268" lon="2.15509">
        <ele>117</ele>
        <time>2022-01-12T14:09:56Z</time>
      </trkpt>
      <trkpt lat="49.88269" lon="2.15512">
        <ele>117</ele>
        <time>2022-01-12T14:09:58Z</time>
      </trkpt>
      <trkpt lat="49.88269" lon="2.15513">
        <ele>117</ele>
        <time>2022-01-12T14:09:59Z</time>
      </trkpt>
      <trkpt lat="49.88269" lon="2.15514">
        <ele>117</ele>
        <time>2022-01-12T14:10:00Z</time>
      </trkpt>
      <trkpt lat="49.8827" lon="2.15516">
        <ele>117</ele>
        <time>2022-01-12T14:10:01Z</time>
      </trkpt>
      <trkpt lat="49.8827" lon="2.15517">
        <ele>117</ele>
        <time>2022-01-12T14:10:02Z</time>
      </trkpt>
      <trkpt lat="49.88271" lon="2.15518">
        <ele>117</ele>
        <time>2022-01-12T14:10:03Z</time>
      </trkpt>
      <trkpt lat="49.88271" lon="2.15521">
        <ele>117</ele>
        <time>2022-01-12T14:10:04Z</time>
      </trkpt>
      <trkpt lat="49.88272" lon="2.15522">
        <ele>117</ele>
        <time>2022-01-12T14:10:05Z</time>
      </trkpt>
      <trkpt lat="49.88272" lon="2.15525">
        <ele>117</ele>
        <time>2022-01-12T14:10:06Z</time>
      </trkpt>
      <trkpt lat="49.88273" lon="2.15527">
        <ele>117</ele>
        <time>2022-01-12T14:10:07Z</time>
      </trkpt>
      <trkpt lat="49.88273" lon="2.15528">
        <ele>117</ele>
        <time>2022-01-12T14:10:08Z</time>
      </trkpt>
      <trkpt lat="49.88274" lon="2.15531">
        <ele>117</ele>
        <time>2022-01-12T14:10:10Z</time>
      </trkpt>
      <trkpt lat="49.88275" lon="2.15534">
        <ele>117</ele>
        <time>2022-01-12T14:10:11Z</time>
      </trkpt>
      <trkpt lat="49.88275" lon="2.15536">
        <ele>116.9</ele>
        <time>2022-01-12T14:10:12Z</time>
      </trkpt>
      <trkpt lat="49.88276" lon="2.15538">
        <ele>116.9</ele>
        <time>2022-01-12T14:10:13Z</time>
      </trkpt>
      <trkpt lat="49.88276" lon="2.1554">
        <ele>116.9</ele>
        <time>2022-01-12T14:10:15Z</time>
      </trkpt>
      <trkpt lat="49.88277" lon="2.15542">
        <ele>116.9</ele>
        <time>2022-01-12T14:10:16Z</time>
      </trkpt>
      <trkpt lat="49.88277" lon="2.15543">
        <ele>116.9</ele>
        <time>2022-01-12T14:10:17Z</time>
      </trkpt>
      <trkpt lat="49.88277" lon="2.15545">
        <ele>116.9</ele>
        <time>2022-01-12T14:10:18Z</time>
      </trkpt>
      <trkpt lat="49.88278" lon="2.15548">
        <ele>116.9</ele>
        <time>2022-01-12T14:10:19Z</time>
      </trkpt>
      <trkpt lat="49.88278" lon="2.15549">
        <ele>116.9</ele>
        <time>2022-01-12T14:10:20Z</time>
      </trkpt>
      <trkpt lat="49.88278" lon="2.15551">
        <ele>116.9</ele>
        <time>2022-01-12T14:10:21Z</time>
      </trkpt>
      <trkpt lat="49.88279" lon="2.15552">
        <ele>116.9</ele>
        <time>2022-01-12T14:10:22Z</time>
      </trkpt>
      <trkpt lat="49.88279" lon="2.15554">
        <ele>116.9</ele>
        <time>2022-01-12T14:10:23Z</time>
      </trkpt>
      <trkpt lat="49.8828" lon="2.15557">
        <ele>116.9</ele>
        <time>2022-01-12T14:10:25Z</time>
      </trkpt>
      <trkpt lat="49.88281" lon="2.15559">
        <ele>116.9</ele>
        <time>2022-01-12T14:10:26Z</time>
      </trkpt>
      <trkpt lat="49.88281" lon="2.15561">
        <ele>116.9</ele>
        <time>2022-01-12T14:10:27Z</time>
      </trkpt>
      <trkpt lat="49.88281" lon="2.15562">
        <ele>116.8</ele>
        <time>2022-01-12T14:10:28Z</time>
      </trkpt>
      <trkpt lat="49.88282" lon="2.15564">
        <ele>116.8</ele>
        <time>2022-01-12T14:10:30Z</time>
      </trkpt>
      <trkpt lat="49.88283" lon="2.15566">
        <ele>116.8</ele>
        <time>2022-01-12T14:10:31Z</time>
      </trkpt>
      <trkpt lat="49.88283" lon="2.15567">
        <ele>116.8</ele>
        <time>2022-01-12T14:10:32Z</time>
      </trkpt>
      <trkpt lat="49.88283" lon="2.15568">
        <ele>116.8</ele>
        <time>2022-01-12T14:10:33Z</time>
      </trkpt>
      <trkpt lat="49.88284" lon="2.1557">
        <ele>116.8</ele>
        <time>2022-01-12T14:10:34Z</time>
      </trkpt>
      <trkpt lat="49.88284" lon="2.15572">
        <ele>116.8</ele>
        <time>2022-01-12T14:10:35Z</time>
      </trkpt>
      <trkpt lat="49.88285" lon="2.15574">
        <ele>116.8</ele>
        <time>2022-01-12T14:10:36Z</time>
      </trkpt>
      <trkpt lat="49.88286" lon="2.15576">
        <ele>116.8</ele>
        <time>2022-01-12T14:10:38Z</time>
      </trkpt>
      <trkpt lat="49.88286" lon="2.1558">
        <ele>116.8</ele>
        <time>2022-01-12T14:10:39Z</time>
      </trkpt>
      <trkpt lat="49.88287" lon="2.15581">
        <ele>116.8</ele>
        <time>2022-01-12T14:10:40Z</time>
      </trkpt>
      <trkpt lat="49.88287" lon="2.15582">
        <ele>116.8</ele>
        <time>2022-01-12T14:10:41Z</time>
      </trkpt>
      <trkpt lat="49.88288" lon="2.15584">
        <ele>116.8</ele>
        <time>2022-01-12T14:10:42Z</time>
      </trkpt>
      <trkpt lat="49.88289" lon="2.15585">
        <ele>116.8</ele>
        <time>2022-01-12T14:10:43Z</time>
      </trkpt>
      <trkpt lat="49.88289" lon="2.15587">
        <ele>116.8</ele>
        <time>2022-01-12T14:10:44Z</time>
      </trkpt>
      <trkpt lat="49.8829" lon="2.15589">
        <ele>116.8</ele>
        <time>2022-01-12T14:10:45Z</time>
      </trkpt>
      <trkpt lat="49.88291" lon="2.1559">
        <ele>116.8</ele>
        <time>2022-01-12T14:10:46Z</time>
      </trkpt>
      <trkpt lat="49.88291" lon="2.15592">
        <ele>116.8</ele>
        <time>2022-01-12T14:10:47Z</time>
      </trkpt>
      <trkpt lat="49.88292" lon="2.15594">
        <ele>116.8</ele>
        <time>2022-01-12T14:10:49Z</time>
      </trkpt>
      <trkpt lat="49.88292" lon="2.15596">
        <ele>116.8</ele>
        <time>2022-01-12T14:10:50Z</time>
      </trkpt>
      <trkpt lat="49.88293" lon="2.15598">
        <ele>116.8</ele>
        <time>2022-01-12T14:10:51Z</time>
      </trkpt>
      <trkpt lat="49.88294" lon="2.156">
        <ele>116.8</ele>
        <time>2022-01-12T14:10:52Z</time>
      </trkpt>
      <trkpt lat="49.88295" lon="2.15602">
        <ele>116.8</ele>
        <time>2022-01-12T14:10:53Z</time>
      </trkpt>
      <trkpt lat="49.88295" lon="2.15604">
        <ele>116.8</ele>
        <time>2022-01-12T14:10:54Z</time>
      </trkpt>
      <trkpt lat="49.88296" lon="2.15607">
        <ele>116.8</ele>
        <time>2022-01-12T14:10:56Z</time>
      </trkpt>
      <trkpt lat="49.88297" lon="2.15609">
        <ele>116.8</ele>
        <time>2022-01-12T14:10:57Z</time>
      </trkpt>
      <trkpt lat="49.88297" lon="2.1561">
        <ele>116.8</ele>
        <time>2022-01-12T14:10:58Z</time>
      </trkpt>
      <trkpt lat="49.88298" lon="2.15612">
        <ele>116.8</ele>
        <time>2022-01-12T14:10:59Z</time>
      </trkpt>
      <trkpt lat="49.88298" lon="2.15613">
        <ele>116.8</ele>
        <time>2022-01-12T14:11:00Z</time>
      </trkpt>
      <trkpt lat="49.88299" lon="2.15616">
        <ele>116.7</ele>
        <time>2022-01-12T14:11:02Z</time>
      </trkpt>
      <trkpt lat="49.883" lon="2.15618">
        <ele>116.7</ele>
        <time>2022-01-12T14:11:03Z</time>
      </trkpt>
      <trkpt lat="49.88301" lon="2.15619">
        <ele>116.7</ele>
        <time>2022-01-12T14:11:04Z</time>
      </trkpt>
      <trkpt lat="49.88301" lon="2.15621">
        <ele>116.7</ele>
        <time>2022-01-12T14:11:05Z</time>
      </trkpt>
      <trkpt lat="49.88302" lon="2.15623">
        <ele>116.7</ele>
        <time>2022-01-12T14:11:06Z</time>
      </trkpt>
      <trkpt lat="49.88303" lon="2.15625">
        <ele>116.7</ele>
        <time>2022-01-12T14:11:07Z</time>
      </trkpt>
      <trkpt lat="49.88304" lon="2.15628">
        <ele>116.7</ele>
        <time>2022-01-12T14:11:08Z</time>
      </trkpt>
      <trkpt lat="49.88305" lon="2.1563">
        <ele>116.7</ele>
        <time>2022-01-12T14:11:10Z</time>
      </trkpt>
      <trkpt lat="49.88305" lon="2.15631">
        <ele>116.7</ele>
        <time>2022-01-12T14:11:11Z</time>
      </trkpt>
      <trkpt lat="49.88305" lon="2.15632">
        <ele>116.7</ele>
        <time>2022-01-12T14:11:12Z</time>
      </trkpt>
      <trkpt lat="49.88306" lon="2.15634">
        <ele>116.7</ele>
        <time>2022-01-12T14:11:13Z</time>
      </trkpt>
      <trkpt lat="49.88306" lon="2.15636">
        <ele>116.7</ele>
        <time>2022-01-12T14:11:14Z</time>
      </trkpt>
      <trkpt lat="49.88307" lon="2.15637">
        <ele>116.7</ele>
        <time>2022-01-12T14:11:15Z</time>
      </trkpt>
      <trkpt lat="49.88307" lon="2.1564">
        <ele>116.6</ele>
        <time>2022-01-12T14:11:17Z</time>
      </trkpt>
      <trkpt lat="49.88308" lon="2.15642">
        <ele>116.6</ele>
        <time>2022-01-12T14:11:18Z</time>
      </trkpt>
      <trkpt lat="49.88308" lon="2.15644">
        <ele>116.6</ele>
        <time>2022-01-12T14:11:19Z</time>
      </trkpt>
      <trkpt lat="49.88309" lon="2.15646">
        <ele>116.6</ele>
        <time>2022-01-12T14:11:20Z</time>
      </trkpt>
      <trkpt lat="49.8831" lon="2.15648">
        <ele>116.6</ele>
        <time>2022-01-12T14:11:22Z</time>
      </trkpt>
      <trkpt lat="49.88311" lon="2.1565">
        <ele>116.6</ele>
        <time>2022-01-12T14:11:23Z</time>
      </trkpt>
      <trkpt lat="49.88312" lon="2.15652">
        <ele>116.6</ele>
        <time>2022-01-12T14:11:24Z</time>
      </trkpt>
      <trkpt lat="49.88313" lon="2.15655">
        <ele>116.6</ele>
        <time>2022-01-12T14:11:26Z</time>
      </trkpt>
      <trkpt lat="49.88313" lon="2.15656">
        <ele>116.6</ele>
        <time>2022-01-12T14:11:27Z</time>
      </trkpt>
      <trkpt lat="49.88313" lon="2.15658">
        <ele>116.6</ele>
        <time>2022-01-12T14:11:28Z</time>
      </trkpt>
      <trkpt lat="49.88314" lon="2.1566">
        <ele>116.6</ele>
        <time>2022-01-12T14:11:29Z</time>
      </trkpt>
      <trkpt lat="49.88314" lon="2.15661">
        <ele>116.6</ele>
        <time>2022-01-12T14:11:30Z</time>
      </trkpt>
      <trkpt lat="49.88315" lon="2.15664">
        <ele>116.6</ele>
        <time>2022-01-12T14:11:32Z</time>
      </trkpt>
      <trkpt lat="49.88316" lon="2.15665">
        <ele>116.6</ele>
        <time>2022-01-12T14:11:33Z</time>
      </trkpt>
      <trkpt lat="49.88316" lon="2.15667">
        <ele>116.6</ele>
        <time>2022-01-12T14:11:34Z</time>
      </trkpt>
      <trkpt lat="49.88317" lon="2.15668">
        <ele>116.6</ele>
        <time>2022-01-12T14:11:35Z</time>
      </trkpt>
      <trkpt lat="49.88317" lon="2.15671">
        <ele>116.6</ele>
        <time>2022-01-12T14:11:37Z</time>
      </trkpt>
      <trkpt lat="49.88318" lon="2.15673">
        <ele>116.6</ele>
        <time>2022-01-12T14:11:38Z</time>
      </trkpt>
      <trkpt lat="49.88318" lon="2.15675">
        <ele>116.5</ele>
        <time>2022-01-12T14:11:39Z</time>
      </trkpt>
      <trkpt lat="49.88318" lon="2.15679">
        <ele>116.5</ele>
        <time>2022-01-12T14:11:40Z</time>
      </trkpt>
      <trkpt lat="49.88319" lon="2.1568">
        <ele>116.5</ele>
        <time>2022-01-12T14:11:41Z</time>
      </trkpt>
      <trkpt lat="49.88319" lon="2.15681">
        <ele>116.5</ele>
        <time>2022-01-12T14:11:42Z</time>
      </trkpt>
      <trkpt lat="49.88319" lon="2.15684">
        <ele>116.5</ele>
        <time>2022-01-12T14:11:43Z</time>
      </trkpt>
      <trkpt lat="49.88319" lon="2.15686">
        <ele>116.5</ele>
        <time>2022-01-12T14:11:45Z</time>
      </trkpt>
      <trkpt lat="49.8832" lon="2.15687">
        <ele>116.5</ele>
        <time>2022-01-12T14:11:46Z</time>
      </trkpt>
      <trkpt lat="49.8832" lon="2.15689">
        <ele>116.5</ele>
        <time>2022-01-12T14:11:47Z</time>
      </trkpt>
      <trkpt lat="49.8832" lon="2.15691">
        <ele>116.4</ele>
        <time>2022-01-12T14:11:48Z</time>
      </trkpt>
      <trkpt lat="49.8832" lon="2.15694">
        <ele>116.4</ele>
        <time>2022-01-12T14:11:49Z</time>
      </trkpt>
      <trkpt lat="49.88321" lon="2.15696">
        <ele>116.4</ele>
        <time>2022-01-12T14:11:50Z</time>
      </trkpt>
      <trkpt lat="49.88322" lon="2.15699">
        <ele>116.3</ele>
        <time>2022-01-12T14:11:52Z</time>
      </trkpt>
      <trkpt lat="49.88322" lon="2.15701">
        <ele>116.3</ele>
        <time>2022-01-12T14:11:53Z</time>
      </trkpt>
      <trkpt lat="49.88322" lon="2.15703">
        <ele>116.3</ele>
        <time>2022-01-12T14:11:54Z</time>
      </trkpt>
      <trkpt lat="49.88323" lon="2.15705">
        <ele>116.3</ele>
        <time>2022-01-12T14:11:55Z</time>
      </trkpt>
      <trkpt lat="49.88323" lon="2.15707">
        <ele>116.2</ele>
        <time>2022-01-12T14:11:56Z</time>
      </trkpt>
      <trkpt lat="49.88324" lon="2.1571">
        <ele>116.2</ele>
        <time>2022-01-12T14:11:58Z</time>
      </trkpt>
      <trkpt lat="49.88325" lon="2.15712">
        <ele>116.2</ele>
        <time>2022-01-12T14:11:59Z</time>
      </trkpt>
      <trkpt lat="49.88325" lon="2.15714">
        <ele>116.2</ele>
        <time>2022-01-12T14:12:00Z</time>
      </trkpt>
      <trkpt lat="49.88326" lon="2.15716">
        <ele>116.1</ele>
        <time>2022-01-12T14:12:01Z</time>
      </trkpt>
      <trkpt lat="49.88326" lon="2.15718">
        <ele>116.1</ele>
        <time>2022-01-12T14:12:02Z</time>
      </trkpt>
      <trkpt lat="49.88327" lon="2.15721">
        <ele>116.1</ele>
        <time>2022-01-12T14:12:03Z</time>
      </trkpt>
      <trkpt lat="49.88328" lon="2.15723">
        <ele>116</ele>
        <time>2022-01-12T14:12:05Z</time>
      </trkpt>
      <trkpt lat="49.88328" lon="2.15725">
        <ele>116</ele>
        <time>2022-01-12T14:12:06Z</time>
      </trkpt>
      <trkpt lat="49.88329" lon="2.15726">
        <ele>116</ele>
        <time>2022-01-12T14:12:07Z</time>
      </trkpt>
      <trkpt lat="49.88329" lon="2.15728">
        <ele>116</ele>
        <time>2022-01-12T14:12:08Z</time>
      </trkpt>
      <trkpt lat="49.8833" lon="2.15731">
        <ele>115.9</ele>
        <time>2022-01-12T14:12:09Z</time>
      </trkpt>
      <trkpt lat="49.8833" lon="2.15732">
        <ele>115.9</ele>
        <time>2022-01-12T14:12:10Z</time>
      </trkpt>
      <trkpt lat="49.88331" lon="2.15733">
        <ele>115.9</ele>
        <time>2022-01-12T14:12:11Z</time>
      </trkpt>
      <trkpt lat="49.88331" lon="2.15736">
        <ele>115.9</ele>
        <time>2022-01-12T14:12:13Z</time>
      </trkpt>
      <trkpt lat="49.88332" lon="2.15738">
        <ele>115.9</ele>
        <time>2022-01-12T14:12:14Z</time>
      </trkpt>
      <trkpt lat="49.88332" lon="2.15739">
        <ele>115.8</ele>
        <time>2022-01-12T14:12:15Z</time>
      </trkpt>
      <trkpt lat="49.88333" lon="2.15742">
        <ele>115.8</ele>
        <time>2022-01-12T14:12:17Z</time>
      </trkpt>
      <trkpt lat="49.88334" lon="2.15744">
        <ele>115.8</ele>
        <time>2022-01-12T14:12:18Z</time>
      </trkpt>
      <trkpt lat="49.88335" lon="2.15746">
        <ele>115.7</ele>
        <time>2022-01-12T14:12:19Z</time>
      </trkpt>
      <trkpt lat="49.88336" lon="2.15749">
        <ele>115.7</ele>
        <time>2022-01-12T14:12:20Z</time>
      </trkpt>
      <trkpt lat="49.88336" lon="2.1575">
        <ele>115.7</ele>
        <time>2022-01-12T14:12:21Z</time>
      </trkpt>
      <trkpt lat="49.88336" lon="2.15751">
        <ele>115.7</ele>
        <time>2022-01-12T14:12:22Z</time>
      </trkpt>
      <trkpt lat="49.88337" lon="2.15755">
        <ele>115.6</ele>
        <time>2022-01-12T14:12:24Z</time>
      </trkpt>
      <trkpt lat="49.88338" lon="2.15756">
        <ele>115.6</ele>
        <time>2022-01-12T14:12:25Z</time>
      </trkpt>
      <trkpt lat="49.88338" lon="2.15758">
        <ele>115.6</ele>
        <time>2022-01-12T14:12:26Z</time>
      </trkpt>
      <trkpt lat="49.88339" lon="2.1576">
        <ele>115.5</ele>
        <time>2022-01-12T14:12:27Z</time>
      </trkpt>
      <trkpt lat="49.88339" lon="2.15761">
        <ele>115.5</ele>
        <time>2022-01-12T14:12:28Z</time>
      </trkpt>
      <trkpt lat="49.8834" lon="2.15763">
        <ele>115.5</ele>
        <time>2022-01-12T14:12:30Z</time>
      </trkpt>
      <trkpt lat="49.88341" lon="2.15765">
        <ele>115.4</ele>
        <time>2022-01-12T14:12:31Z</time>
      </trkpt>
      <trkpt lat="49.88341" lon="2.15767">
        <ele>115.4</ele>
        <time>2022-01-12T14:12:32Z</time>
      </trkpt>
      <trkpt lat="49.88342" lon="2.15769">
        <ele>115.4</ele>
        <time>2022-01-12T14:12:33Z</time>
      </trkpt>
      <trkpt lat="49.88343" lon="2.15772">
        <ele>115.4</ele>
        <time>2022-01-12T14:12:35Z</time>
      </trkpt>
      <trkpt lat="49.88343" lon="2.15774">
        <ele>115.3</ele>
        <time>2022-01-12T14:12:36Z</time>
      </trkpt>
      <trkpt lat="49.88344" lon="2.15776">
        <ele>115.3</ele>
        <time>2022-01-12T14:12:37Z</time>
      </trkpt>
      <trkpt lat="49.88344" lon="2.15778">
        <ele>115.3</ele>
        <time>2022-01-12T14:12:38Z</time>
      </trkpt>
      <trkpt lat="49.88345" lon="2.15781">
        <ele>115.3</ele>
        <time>2022-01-12T14:12:40Z</time>
      </trkpt>
      <trkpt lat="49.88345" lon="2.15782">
        <ele>115.3</ele>
        <time>2022-01-12T14:12:41Z</time>
      </trkpt>
      <trkpt lat="49.88346" lon="2.15785">
        <ele>115.2</ele>
        <time>2022-01-12T14:12:42Z</time>
      </trkpt>
      <trkpt lat="49.88347" lon="2.15786">
        <ele>115.2</ele>
        <time>2022-01-12T14:12:44Z</time>
      </trkpt>
      <trkpt lat="49.88348" lon="2.15789">
        <ele>115.2</ele>
        <time>2022-01-12T14:12:45Z</time>
      </trkpt>
      <trkpt lat="49.88348" lon="2.15791">
        <ele>115.2</ele>
        <time>2022-01-12T14:12:46Z</time>
      </trkpt>
      <trkpt lat="49.88349" lon="2.15793">
        <ele>115.1</ele>
        <time>2022-01-12T14:12:47Z</time>
      </trkpt>
      <trkpt lat="49.88349" lon="2.15795">
        <ele>115.1</ele>
        <time>2022-01-12T14:12:49Z</time>
      </trkpt>
      <trkpt lat="49.8835" lon="2.15798">
        <ele>115.1</ele>
        <time>2022-01-12T14:12:50Z</time>
      </trkpt>
      <trkpt lat="49.8835" lon="2.158">
        <ele>115.1</ele>
        <time>2022-01-12T14:12:51Z</time>
      </trkpt>
      <trkpt lat="49.8835" lon="2.15802">
        <ele>115</ele>
        <time>2022-01-12T14:12:52Z</time>
      </trkpt>
      <trkpt lat="49.88351" lon="2.15803">
        <ele>115</ele>
        <time>2022-01-12T14:12:53Z</time>
      </trkpt>
      <trkpt lat="49.88352" lon="2.15805">
        <ele>115</ele>
        <time>2022-01-12T14:12:54Z</time>
      </trkpt>
      <trkpt lat="49.88352" lon="2.15806">
        <ele>115</ele>
        <time>2022-01-12T14:12:55Z</time>
      </trkpt>
      <trkpt lat="49.88352" lon="2.15807">
        <ele>115</ele>
        <time>2022-01-12T14:12:56Z</time>
      </trkpt>
      <trkpt lat="49.88353" lon="2.15809">
        <ele>114.9</ele>
        <time>2022-01-12T14:12:57Z</time>
      </trkpt>
      <trkpt lat="49.88354" lon="2.15811">
        <ele>114.9</ele>
        <time>2022-01-12T14:12:58Z</time>
      </trkpt>
      <trkpt lat="49.88354" lon="2.15813">
        <ele>114.9</ele>
        <time>2022-01-12T14:13:00Z</time>
      </trkpt>
      <trkpt lat="49.88355" lon="2.15816">
        <ele>114.9</ele>
        <time>2022-01-12T14:13:01Z</time>
      </trkpt>
      <trkpt lat="49.88355" lon="2.15818">
        <ele>114.8</ele>
        <time>2022-01-12T14:13:02Z</time>
      </trkpt>
      <trkpt lat="49.88356" lon="2.15819">
        <ele>114.8</ele>
        <time>2022-01-12T14:13:03Z</time>
      </trkpt>
      <trkpt lat="49.88357" lon="2.15821">
        <ele>114.8</ele>
        <time>2022-01-12T14:13:04Z</time>
      </trkpt>
      <trkpt lat="49.88358" lon="2.15824">
        <ele>114.8</ele>
        <time>2022-01-12T14:13:06Z</time>
      </trkpt>
      <trkpt lat="49.88358" lon="2.15826">
        <ele>114.7</ele>
        <time>2022-01-12T14:13:07Z</time>
      </trkpt>
      <trkpt lat="49.88358" lon="2.15828">
        <ele>114.7</ele>
        <time>2022-01-12T14:13:08Z</time>
      </trkpt>
      <trkpt lat="49.88359" lon="2.15832">
        <ele>114.7</ele>
        <time>2022-01-12T14:13:09Z</time>
      </trkpt>
      <trkpt lat="49.88359" lon="2.15833">
        <ele>114.7</ele>
        <time>2022-01-12T14:13:10Z</time>
      </trkpt>
      <trkpt lat="49.88359" lon="2.15834">
        <ele>114.6</ele>
        <time>2022-01-12T14:13:11Z</time>
      </trkpt>
      <trkpt lat="49.88359" lon="2.15836">
        <ele>114.6</ele>
        <time>2022-01-12T14:13:12Z</time>
      </trkpt>
      <trkpt lat="49.8836" lon="2.15837">
        <ele>114.6</ele>
        <time>2022-01-12T14:13:13Z</time>
      </trkpt>
      <trkpt lat="49.88361" lon="2.1584">
        <ele>114.6</ele>
        <time>2022-01-12T14:13:15Z</time>
      </trkpt>
      <trkpt lat="49.88362" lon="2.15844">
        <ele>114.5</ele>
        <time>2022-01-12T14:13:17Z</time>
      </trkpt>
      <trkpt lat="49.88362" lon="2.15845">
        <ele>114.5</ele>
        <time>2022-01-12T14:13:18Z</time>
      </trkpt>
      <trkpt lat="49.88363" lon="2.15848">
        <ele>114.5</ele>
        <time>2022-01-12T14:13:19Z</time>
      </trkpt>
      <trkpt lat="49.88363" lon="2.1585">
        <ele>114.4</ele>
        <time>2022-01-12T14:13:20Z</time>
      </trkpt>
      <trkpt lat="49.88365" lon="2.15854">
        <ele>114.4</ele>
        <time>2022-01-12T14:13:22Z</time>
      </trkpt>
      <trkpt lat="49.88365" lon="2.15855">
        <ele>114.4</ele>
        <time>2022-01-12T14:13:23Z</time>
      </trkpt>
      <trkpt lat="49.88366" lon="2.15857">
        <ele>114.3</ele>
        <time>2022-01-12T14:13:24Z</time>
      </trkpt>
      <trkpt lat="49.88366" lon="2.1586">
        <ele>114.3</ele>
        <time>2022-01-12T14:13:25Z</time>
      </trkpt>
      <trkpt lat="49.88366" lon="2.15861">
        <ele>114.3</ele>
        <time>2022-01-12T14:13:26Z</time>
      </trkpt>
      <trkpt lat="49.88367" lon="2.15864">
        <ele>114.3</ele>
        <time>2022-01-12T14:13:28Z</time>
      </trkpt>
      <trkpt lat="49.88367" lon="2.15866">
        <ele>114.3</ele>
        <time>2022-01-12T14:13:29Z</time>
      </trkpt>
      <trkpt lat="49.88368" lon="2.15868">
        <ele>114.2</ele>
        <time>2022-01-12T14:13:30Z</time>
      </trkpt>
      <trkpt lat="49.88368" lon="2.15869">
        <ele>114.2</ele>
        <time>2022-01-12T14:13:31Z</time>
      </trkpt>
      <trkpt lat="49.88369" lon="2.15871">
        <ele>114.2</ele>
        <time>2022-01-12T14:13:32Z</time>
      </trkpt>
      <trkpt lat="49.8837" lon="2.15873">
        <ele>114.2</ele>
        <time>2022-01-12T14:13:33Z</time>
      </trkpt>
      <trkpt lat="49.8837" lon="2.15875">
        <ele>114.2</ele>
        <time>2022-01-12T14:13:34Z</time>
      </trkpt>
      <trkpt lat="49.88371" lon="2.15878">
        <ele>114.1</ele>
        <time>2022-01-12T14:13:36Z</time>
      </trkpt>
      <trkpt lat="49.88372" lon="2.1588">
        <ele>114.1</ele>
        <time>2022-01-12T14:13:37Z</time>
      </trkpt>
      <trkpt lat="49.88372" lon="2.15882">
        <ele>114.1</ele>
        <time>2022-01-12T14:13:38Z</time>
      </trkpt>
      <trkpt lat="49.88373" lon="2.15884">
        <ele>114.1</ele>
        <time>2022-01-12T14:13:39Z</time>
      </trkpt>
      <trkpt lat="49.88373" lon="2.15886">
        <ele>114</ele>
        <time>2022-01-12T14:13:40Z</time>
      </trkpt>
      <trkpt lat="49.88374" lon="2.15887">
        <ele>114</ele>
        <time>2022-01-12T14:13:41Z</time>
      </trkpt>
      <trkpt lat="49.88374" lon="2.15889">
        <ele>114</ele>
        <time>2022-01-12T14:13:43Z</time>
      </trkpt>
      <trkpt lat="49.88375" lon="2.15891">
        <ele>114</ele>
        <time>2022-01-12T14:13:44Z</time>
      </trkpt>
      <trkpt lat="49.88376" lon="2.15894">
        <ele>114</ele>
        <time>2022-01-12T14:13:45Z</time>
      </trkpt>
      <trkpt lat="49.88376" lon="2.15895">
        <ele>113.9</ele>
        <time>2022-01-12T14:13:46Z</time>
      </trkpt>
      <trkpt lat="49.88377" lon="2.15896">
        <ele>113.9</ele>
        <time>2022-01-12T14:13:47Z</time>
      </trkpt>
      <trkpt lat="49.88377" lon="2.15899">
        <ele>113.9</ele>
        <time>2022-01-12T14:13:48Z</time>
      </trkpt>
      <trkpt lat="49.88378" lon="2.15902">
        <ele>113.9</ele>
        <time>2022-01-12T14:13:50Z</time>
      </trkpt>
      <trkpt lat="49.88378" lon="2.15905">
        <ele>113.9</ele>
        <time>2022-01-12T14:13:51Z</time>
      </trkpt>
      <trkpt lat="49.88379" lon="2.15906">
        <ele>113.8</ele>
        <time>2022-01-12T14:13:52Z</time>
      </trkpt>
      <trkpt lat="49.88379" lon="2.15908">
        <ele>113.8</ele>
        <time>2022-01-12T14:13:53Z</time>
      </trkpt>
      <trkpt lat="49.88379" lon="2.1591">
        <ele>113.8</ele>
        <time>2022-01-12T14:13:54Z</time>
      </trkpt>
      <trkpt lat="49.8838" lon="2.15911">
        <ele>113.8</ele>
        <time>2022-01-12T14:13:55Z</time>
      </trkpt>
      <trkpt lat="49.8838" lon="2.15914">
        <ele>113.8</ele>
        <time>2022-01-12T14:13:57Z</time>
      </trkpt>
      <trkpt lat="49.88381" lon="2.15917">
        <ele>113.7</ele>
        <time>2022-01-12T14:13:58Z</time>
      </trkpt>
      <trkpt lat="49.88382" lon="2.15918">
        <ele>113.7</ele>
        <time>2022-01-12T14:13:59Z</time>
      </trkpt>
      <trkpt lat="49.88383" lon="2.15919">
        <ele>113.7</ele>
        <time>2022-01-12T14:14:00Z</time>
      </trkpt>
      <trkpt lat="49.88383" lon="2.15921">
        <ele>113.7</ele>
        <time>2022-01-12T14:14:01Z</time>
      </trkpt>
      <trkpt lat="49.88384" lon="2.15923">
        <ele>113.7</ele>
        <time>2022-01-12T14:14:02Z</time>
      </trkpt>
      <trkpt lat="49.88384" lon="2.15925">
        <ele>113.6</ele>
        <time>2022-01-12T14:14:03Z</time>
      </trkpt>
      <trkpt lat="49.88385" lon="2.15928">
        <ele>113.6</ele>
        <time>2022-01-12T14:14:05Z</time>
      </trkpt>
      <trkpt lat="49.88386" lon="2.1593">
        <ele>113.6</ele>
        <time>2022-01-12T14:14:06Z</time>
      </trkpt>
      <trkpt lat="49.88386" lon="2.15932">
        <ele>113.6</ele>
        <time>2022-01-12T14:14:07Z</time>
      </trkpt>
      <trkpt lat="49.88387" lon="2.15935">
        <ele>113.5</ele>
        <time>2022-01-12T14:14:08Z</time>
      </trkpt>
      <trkpt lat="49.88388" lon="2.15936">
        <ele>113.5</ele>
        <time>2022-01-12T14:14:10Z</time>
      </trkpt>
      <trkpt lat="49.88389" lon="2.15938">
        <ele>113.5</ele>
        <time>2022-01-12T14:14:11Z</time>
      </trkpt>
      <trkpt lat="49.88389" lon="2.15939">
        <ele>113.5</ele>
        <time>2022-01-12T14:14:12Z</time>
      </trkpt>
      <trkpt lat="49.8839" lon="2.15941">
        <ele>113.5</ele>
        <time>2022-01-12T14:14:13Z</time>
      </trkpt>
      <trkpt lat="49.88391" lon="2.15944">
        <ele>113.4</ele>
        <time>2022-01-12T14:14:14Z</time>
      </trkpt>
      <trkpt lat="49.88391" lon="2.15945">
        <ele>113.4</ele>
        <time>2022-01-12T14:14:15Z</time>
      </trkpt>
      <trkpt lat="49.88391" lon="2.15946">
        <ele>113.4</ele>
        <time>2022-01-12T14:14:16Z</time>
      </trkpt>
      <trkpt lat="49.88392" lon="2.15949">
        <ele>113.4</ele>
        <time>2022-01-12T14:14:17Z</time>
      </trkpt>
      <trkpt lat="49.88392" lon="2.1595">
        <ele>113.3</ele>
        <time>2022-01-12T14:14:18Z</time>
      </trkpt>
      <trkpt lat="49.88393" lon="2.15951">
        <ele>113.3</ele>
        <time>2022-01-12T14:14:19Z</time>
      </trkpt>
      <trkpt lat="49.88393" lon="2.15953">
        <ele>113.3</ele>
        <time>2022-01-12T14:14:21Z</time>
      </trkpt>
      <trkpt lat="49.88394" lon="2.15955">
        <ele>113.3</ele>
        <time>2022-01-12T14:14:22Z</time>
      </trkpt>
      <trkpt lat="49.88394" lon="2.15957">
        <ele>113.3</ele>
        <time>2022-01-12T14:14:23Z</time>
      </trkpt>
      <trkpt lat="49.88395" lon="2.15959">
        <ele>113.3</ele>
        <time>2022-01-12T14:14:24Z</time>
      </trkpt>
      <trkpt lat="49.88395" lon="2.1596">
        <ele>113.2</ele>
        <time>2022-01-12T14:14:25Z</time>
      </trkpt>
      <trkpt lat="49.88396" lon="2.15963">
        <ele>113.2</ele>
        <time>2022-01-12T14:14:26Z</time>
      </trkpt>
      <trkpt lat="49.88396" lon="2.15964">
        <ele>113.2</ele>
        <time>2022-01-12T14:14:27Z</time>
      </trkpt>
      <trkpt lat="49.88396" lon="2.15965">
        <ele>113.2</ele>
        <time>2022-01-12T14:14:28Z</time>
      </trkpt>
      <trkpt lat="49.88397" lon="2.15967">
        <ele>113.2</ele>
        <time>2022-01-12T14:14:29Z</time>
      </trkpt>
      <trkpt lat="49.88397" lon="2.15969">
        <ele>113.1</ele>
        <time>2022-01-12T14:14:30Z</time>
      </trkpt>
      <trkpt lat="49.88398" lon="2.15972">
        <ele>113.1</ele>
        <time>2022-01-12T14:14:31Z</time>
      </trkpt>
      <trkpt lat="49.88399" lon="2.15973">
        <ele>113.1</ele>
        <time>2022-01-12T14:14:32Z</time>
      </trkpt>
      <trkpt lat="49.88399" lon="2.15975">
        <ele>113.1</ele>
        <time>2022-01-12T14:14:33Z</time>
      </trkpt>
      <trkpt lat="49.884" lon="2.15977">
        <ele>113.1</ele>
        <time>2022-01-12T14:14:34Z</time>
      </trkpt>
      <trkpt lat="49.88401" lon="2.1598">
        <ele>113</ele>
        <time>2022-01-12T14:14:36Z</time>
      </trkpt>
      <trkpt lat="49.88401" lon="2.15982">
        <ele>113</ele>
        <time>2022-01-12T14:14:37Z</time>
      </trkpt>
      <trkpt lat="49.88402" lon="2.15983">
        <ele>113</ele>
        <time>2022-01-12T14:14:38Z</time>
      </trkpt>
      <trkpt lat="49.88402" lon="2.15985">
        <ele>113</ele>
        <time>2022-01-12T14:14:39Z</time>
      </trkpt>
      <trkpt lat="49.88404" lon="2.15987">
        <ele>112.9</ele>
        <time>2022-01-12T14:14:41Z</time>
      </trkpt>
      <trkpt lat="49.88404" lon="2.15989">
        <ele>112.9</ele>
        <time>2022-01-12T14:14:42Z</time>
      </trkpt>
      <trkpt lat="49.88405" lon="2.15991">
        <ele>112.9</ele>
        <time>2022-01-12T14:14:43Z</time>
      </trkpt>
      <trkpt lat="49.88406" lon="2.15993">
        <ele>112.8</ele>
        <time>2022-01-12T14:14:44Z</time>
      </trkpt>
      <trkpt lat="49.88407" lon="2.15995">
        <ele>112.8</ele>
        <time>2022-01-12T14:14:45Z</time>
      </trkpt>
      <trkpt lat="49.88407" lon="2.15997">
        <ele>112.8</ele>
        <time>2022-01-12T14:14:47Z</time>
      </trkpt>
      <trkpt lat="49.88408" lon="2.15999">
        <ele>112.8</ele>
        <time>2022-01-12T14:14:48Z</time>
      </trkpt>
      <trkpt lat="49.88408" lon="2.16001">
        <ele>112.7</ele>
        <time>2022-01-12T14:14:49Z</time>
      </trkpt>
      <trkpt lat="49.88409" lon="2.16003">
        <ele>112.7</ele>
        <time>2022-01-12T14:14:50Z</time>
      </trkpt>
      <trkpt lat="49.8841" lon="2.16005">
        <ele>112.7</ele>
        <time>2022-01-12T14:14:51Z</time>
      </trkpt>
      <trkpt lat="49.8841" lon="2.16006">
        <ele>112.7</ele>
        <time>2022-01-12T14:14:53Z</time>
      </trkpt>
      <trkpt lat="49.88412" lon="2.16009">
        <ele>112.6</ele>
        <time>2022-01-12T14:14:54Z</time>
      </trkpt>
      <trkpt lat="49.88412" lon="2.1601">
        <ele>112.6</ele>
        <time>2022-01-12T14:14:55Z</time>
      </trkpt>
      <trkpt lat="49.88413" lon="2.16011">
        <ele>112.6</ele>
        <time>2022-01-12T14:14:56Z</time>
      </trkpt>
      <trkpt lat="49.88414" lon="2.16014">
        <ele>112.5</ele>
        <time>2022-01-12T14:14:57Z</time>
      </trkpt>
      <trkpt lat="49.88414" lon="2.16015">
        <ele>112.5</ele>
        <time>2022-01-12T14:14:58Z</time>
      </trkpt>
      <trkpt lat="49.88415" lon="2.16016">
        <ele>112.5</ele>
        <time>2022-01-12T14:14:59Z</time>
      </trkpt>
      <trkpt lat="49.88416" lon="2.16017">
        <ele>112.5</ele>
        <time>2022-01-12T14:15:00Z</time>
      </trkpt>
      <trkpt lat="49.88416" lon="2.16019">
        <ele>112.5</ele>
        <time>2022-01-12T14:15:01Z</time>
      </trkpt>
      <trkpt lat="49.88417" lon="2.1602">
        <ele>112.4</ele>
        <time>2022-01-12T14:15:02Z</time>
      </trkpt>
      <trkpt lat="49.88418" lon="2.16023">
        <ele>112.4</ele>
        <time>2022-01-12T14:15:04Z</time>
      </trkpt>
      <trkpt lat="49.88419" lon="2.16024">
        <ele>112.4</ele>
        <time>2022-01-12T14:15:05Z</time>
      </trkpt>
      <trkpt lat="49.8842" lon="2.16026">
        <ele>112.4</ele>
        <time>2022-01-12T14:15:06Z</time>
      </trkpt>
      <trkpt lat="49.8842" lon="2.16027">
        <ele>112.3</ele>
        <time>2022-01-12T14:15:07Z</time>
      </trkpt>
      <trkpt lat="49.88421" lon="2.16028">
        <ele>112.3</ele>
        <time>2022-01-12T14:15:08Z</time>
      </trkpt>
      <trkpt lat="49.88422" lon="2.16031">
        <ele>112.3</ele>
        <time>2022-01-12T14:15:10Z</time>
      </trkpt>
      <trkpt lat="49.88423" lon="2.16032">
        <ele>112.3</ele>
        <time>2022-01-12T14:15:11Z</time>
      </trkpt>
      <trkpt lat="49.88424" lon="2.16034">
        <ele>112.2</ele>
        <time>2022-01-12T14:15:12Z</time>
      </trkpt>
      <trkpt lat="49.88425" lon="2.16035">
        <ele>112.2</ele>
        <time>2022-01-12T14:15:13Z</time>
      </trkpt>
      <trkpt lat="49.88426" lon="2.16036">
        <ele>112.2</ele>
        <time>2022-01-12T14:15:14Z</time>
      </trkpt>
      <trkpt lat="49.88426" lon="2.16038">
        <ele>112.2</ele>
        <time>2022-01-12T14:15:15Z</time>
      </trkpt>
      <trkpt lat="49.88427" lon="2.1604">
        <ele>112.1</ele>
        <time>2022-01-12T14:15:16Z</time>
      </trkpt>
      <trkpt lat="49.88428" lon="2.16043">
        <ele>112.1</ele>
        <time>2022-01-12T14:15:17Z</time>
      </trkpt>
      <trkpt lat="49.88428" lon="2.16045">
        <ele>112.1</ele>
        <time>2022-01-12T14:15:19Z</time>
      </trkpt>
      <trkpt lat="49.88429" lon="2.16046">
        <ele>112</ele>
        <time>2022-01-12T14:15:20Z</time>
      </trkpt>
      <trkpt lat="49.8843" lon="2.16049">
        <ele>112</ele>
        <time>2022-01-12T14:15:21Z</time>
      </trkpt>
      <trkpt lat="49.8843" lon="2.16052">
        <ele>112</ele>
        <time>2022-01-12T14:15:22Z</time>
      </trkpt>
      <trkpt lat="49.88431" lon="2.16054">
        <ele>111.9</ele>
        <time>2022-01-12T14:15:24Z</time>
      </trkpt>
      <trkpt lat="49.88431" lon="2.16055">
        <ele>111.9</ele>
        <time>2022-01-12T14:15:25Z</time>
      </trkpt>
      <trkpt lat="49.88431" lon="2.16057">
        <ele>111.9</ele>
        <time>2022-01-12T14:15:26Z</time>
      </trkpt>
      <trkpt lat="49.88432" lon="2.16059">
        <ele>111.9</ele>
        <time>2022-01-12T14:15:27Z</time>
      </trkpt>
      <trkpt lat="49.88432" lon="2.16062">
        <ele>111.9</ele>
        <time>2022-01-12T14:15:28Z</time>
      </trkpt>
      <trkpt lat="49.88433" lon="2.16063">
        <ele>111.9</ele>
        <time>2022-01-12T14:15:29Z</time>
      </trkpt>
      <trkpt lat="49.88433" lon="2.16065">
        <ele>111.8</ele>
        <time>2022-01-12T14:15:30Z</time>
      </trkpt>
      <trkpt lat="49.88434" lon="2.16067">
        <ele>111.8</ele>
        <time>2022-01-12T14:15:32Z</time>
      </trkpt>
      <trkpt lat="49.88434" lon="2.16069">
        <ele>111.8</ele>
        <time>2022-01-12T14:15:33Z</time>
      </trkpt>
      <trkpt lat="49.88434" lon="2.1607">
        <ele>111.8</ele>
        <time>2022-01-12T14:15:34Z</time>
      </trkpt>
      <trkpt lat="49.88435" lon="2.16071">
        <ele>111.8</ele>
        <time>2022-01-12T14:15:35Z</time>
      </trkpt>
      <trkpt lat="49.88435" lon="2.16072">
        <ele>111.8</ele>
        <time>2022-01-12T14:15:36Z</time>
      </trkpt>
      <trkpt lat="49.88436" lon="2.16074">
        <ele>111.8</ele>
        <time>2022-01-12T14:15:37Z</time>
      </trkpt>
      <trkpt lat="49.88436" lon="2.16076">
        <ele>111.8</ele>
        <time>2022-01-12T14:15:38Z</time>
      </trkpt>
      <trkpt lat="49.88435" lon="2.16077">
        <ele>111.7</ele>
        <time>2022-01-12T14:15:39Z</time>
      </trkpt>
      <trkpt lat="49.88435" lon="2.16079">
        <ele>111.7</ele>
        <time>2022-01-12T14:15:40Z</time>
      </trkpt>
      <trkpt lat="49.88435" lon="2.16081">
        <ele>111.7</ele>
        <time>2022-01-12T14:15:41Z</time>
      </trkpt>
      <trkpt lat="49.88435" lon="2.16084">
        <ele>111.7</ele>
        <time>2022-01-12T14:15:43Z</time>
      </trkpt>
      <trkpt lat="49.88435" lon="2.16086">
        <ele>111.7</ele>
        <time>2022-01-12T14:15:44Z</time>
      </trkpt>
      <trkpt lat="49.88436" lon="2.16087">
        <ele>111.7</ele>
        <time>2022-01-12T14:15:45Z</time>
      </trkpt>
      <trkpt lat="49.88437" lon="2.16089">
        <ele>111.6</ele>
        <time>2022-01-12T14:15:46Z</time>
      </trkpt>
      <trkpt lat="49.88438" lon="2.16091">
        <ele>111.6</ele>
        <time>2022-01-12T14:15:48Z</time>
      </trkpt>
      <trkpt lat="49.88438" lon="2.16092">
        <ele>111.6</ele>
        <time>2022-01-12T14:15:49Z</time>
      </trkpt>
      <trkpt lat="49.88439" lon="2.16094">
        <ele>111.6</ele>
        <time>2022-01-12T14:15:50Z</time>
      </trkpt>
      <trkpt lat="49.88439" lon="2.16095">
        <ele>111.5</ele>
        <time>2022-01-12T14:15:51Z</time>
      </trkpt>
      <trkpt lat="49.8844" lon="2.16097">
        <ele>111.5</ele>
        <time>2022-01-12T14:15:52Z</time>
      </trkpt>
      <trkpt lat="49.8844" lon="2.16099">
        <ele>111.5</ele>
        <time>2022-01-12T14:15:53Z</time>
      </trkpt>
      <trkpt lat="49.8844" lon="2.161">
        <ele>111.5</ele>
        <time>2022-01-12T14:15:54Z</time>
      </trkpt>
      <trkpt lat="49.88441" lon="2.16101">
        <ele>111.4</ele>
        <time>2022-01-12T14:15:56Z</time>
      </trkpt>
      <trkpt lat="49.88441" lon="2.16103">
        <ele>111.4</ele>
        <time>2022-01-12T14:15:57Z</time>
      </trkpt>
      <trkpt lat="49.88441" lon="2.16104">
        <ele>111.4</ele>
        <time>2022-01-12T14:15:58Z</time>
      </trkpt>
      <trkpt lat="49.88441" lon="2.16106">
        <ele>111.4</ele>
        <time>2022-01-12T14:15:59Z</time>
      </trkpt>
      <trkpt lat="49.88442" lon="2.16107">
        <ele>111.4</ele>
        <time>2022-01-12T14:16:00Z</time>
      </trkpt>
      <trkpt lat="49.88442" lon="2.16109">
        <ele>111.3</ele>
        <time>2022-01-12T14:16:01Z</time>
      </trkpt>
      <trkpt lat="49.88443" lon="2.1611">
        <ele>111.3</ele>
        <time>2022-01-12T14:16:03Z</time>
      </trkpt>
      <trkpt lat="49.88443" lon="2.16112">
        <ele>111.3</ele>
        <time>2022-01-12T14:16:04Z</time>
      </trkpt>
      <trkpt lat="49.88444" lon="2.16114">
        <ele>111.3</ele>
        <time>2022-01-12T14:16:05Z</time>
      </trkpt>
      <trkpt lat="49.88444" lon="2.16115">
        <ele>111.2</ele>
        <time>2022-01-12T14:16:06Z</time>
      </trkpt>
      <trkpt lat="49.88445" lon="2.16116">
        <ele>111.2</ele>
        <time>2022-01-12T14:16:07Z</time>
      </trkpt>
      <trkpt lat="49.88445" lon="2.16116">
        <ele>111.2</ele>
        <time>2022-01-12T14:16:08Z</time>
      </trkpt>
      <trkpt lat="49.88446" lon="2.16118">
        <ele>111.2</ele>
        <time>2022-01-12T14:16:10Z</time>
      </trkpt>
      <trkpt lat="49.88446" lon="2.16119">
        <ele>111.2</ele>
        <time>2022-01-12T14:16:11Z</time>
      </trkpt>
      <trkpt lat="49.88446" lon="2.1612">
        <ele>111.2</ele>
        <time>2022-01-12T14:16:13Z</time>
      </trkpt>
      <trkpt lat="49.88446" lon="2.16121">
        <ele>111.1</ele>
        <time>2022-01-12T14:16:15Z</time>
      </trkpt>
      <trkpt lat="49.88446" lon="2.16121">
        <ele>111.1</ele>
        <time>2022-01-12T14:16:17Z</time>
      </trkpt>
      <trkpt lat="49.88446" lon="2.16121">
        <ele>111.1</ele>
        <time>2022-01-12T14:16:18Z</time>
      </trkpt>
      <trkpt lat="49.88446" lon="2.1612">
        <ele>111.1</ele>
        <time>2022-01-12T14:16:20Z</time>
      </trkpt>
      <trkpt lat="49.88446" lon="2.16119">
        <ele>111.1</ele>
        <time>2022-01-12T14:16:22Z</time>
      </trkpt>
      <trkpt lat="49.88446" lon="2.16119">
        <ele>111.1</ele>
        <time>2022-01-12T14:16:24Z</time>
      </trkpt>
      <trkpt lat="49.88446" lon="2.16119">
        <ele>111.1</ele>
        <time>2022-01-12T14:16:25Z</time>
      </trkpt>
      <trkpt lat="49.88446" lon="2.16118">
        <ele>111.1</ele>
        <time>2022-01-12T14:16:27Z</time>
      </trkpt>
      <trkpt lat="49.88446" lon="2.16118">
        <ele>111.1</ele>
        <time>2022-01-12T14:16:28Z</time>
      </trkpt>
      <trkpt lat="49.88445" lon="2.16119">
        <ele>111.1</ele>
        <time>2022-01-12T14:16:30Z</time>
      </trkpt>
      <trkpt lat="49.88445" lon="2.16119">
        <ele>111.1</ele>
        <time>2022-01-12T14:16:32Z</time>
      </trkpt>
      <trkpt lat="49.88445" lon="2.16119">
        <ele>111.1</ele>
        <time>2022-01-12T14:16:33Z</time>
      </trkpt>
      <trkpt lat="49.88445" lon="2.16119">
        <ele>111.1</ele>
        <time>2022-01-12T14:16:34Z</time>
      </trkpt>
      <trkpt lat="49.88445" lon="2.16119">
        <ele>111.1</ele>
        <time>2022-01-12T14:16:35Z</time>
      </trkpt>
      <trkpt lat="49.88445" lon="2.16119">
        <ele>111.1</ele>
        <time>2022-01-12T14:16:37Z</time>
      </trkpt>
      <trkpt lat="49.88445" lon="2.16119">
        <ele>111.1</ele>
        <time>2022-01-12T14:16:38Z</time>
      </trkpt>
      <trkpt lat="49.88445" lon="2.16119">
        <ele>111.1</ele>
        <time>2022-01-12T14:16:40Z</time>
      </trkpt>
      <trkpt lat="49.88445" lon="2.16119">
        <ele>111.1</ele>
        <time>2022-01-12T14:16:42Z</time>
      </trkpt>
      <trkpt lat="49.88445" lon="2.16119">
        <ele>111.1</ele>
        <time>2022-01-12T14:16:43Z</time>
      </trkpt>
      <trkpt lat="49.88445" lon="2.16119">
        <ele>111.1</ele>
        <time>2022-01-12T14:16:44Z</time>
      </trkpt>
      <trkpt lat="49.88445" lon="2.16119">
        <ele>111.1</ele>
        <time>2022-01-12T14:16:46Z</time>
      </trkpt>
      <trkpt lat="49.88445" lon="2.16119">
        <ele>111.1</ele>
        <time>2022-01-12T14:16:48Z</time>
      </trkpt>
      <trkpt lat="49.88445" lon="2.16119">
        <ele>111.1</ele>
        <time>2022-01-12T14:16:49Z</time>
      </trkpt>
      <trkpt lat="49.88445" lon="2.16119">
        <ele>111.1</ele>
        <time>2022-01-12T14:16:51Z</time>
      </trkpt>
      <trkpt lat="49.88445" lon="2.16119">
        <ele>111.1</ele>
        <time>2022-01-12T14:16:52Z</time>
      </trkpt>
      <trkpt lat="49.88445" lon="2.16119">
        <ele>111.1</ele>
        <time>2022-01-12T14:16:54Z</time>
      </trkpt>
      <trkpt lat="49.88445" lon="2.16119">
        <ele>111.1</ele>
        <time>2022-01-12T14:16:55Z</time>
      </trkpt>
      <trkpt lat="49.88445" lon="2.16119">
        <ele>111.1</ele>
        <time>2022-01-12T14:16:57Z</time>
      </trkpt>
      <trkpt lat="49.88445" lon="2.16119">
        <ele>111.1</ele>
        <time>2022-01-12T14:16:59Z</time>
      </trkpt>
      <trkpt lat="49.88445" lon="2.16119">
        <ele>111.1</ele>
        <time>2022-01-12T14:17:00Z</time>
      </trkpt>
      <trkpt lat="49.88445" lon="2.16119">
        <ele>111.1</ele>
        <time>2022-01-12T14:17:02Z</time>
      </trkpt>
      <trkpt lat="49.88445" lon="2.16119">
        <ele>111.1</ele>
        <time>2022-01-12T14:17:03Z</time>
      </trkpt>
      <trkpt lat="49.88445" lon="2.16119">
        <ele>111.1</ele>
        <time>2022-01-12T14:17:04Z</time>
      </trkpt>
      <trkpt lat="49.88445" lon="2.16119">
        <ele>111.1</ele>
        <time>2022-01-12T14:17:06Z</time>
      </trkpt>
      <trkpt lat="49.88445" lon="2.16119">
        <ele>111.1</ele>
        <time>2022-01-12T14:17:07Z</time>
      </trkpt>
      <trkpt lat="49.88445" lon="2.16119">
        <ele>111.1</ele>
        <time>2022-01-12T14:17:08Z</time>
      </trkpt>
      <trkpt lat="49.88445" lon="2.16119">
        <ele>111.1</ele>
        <time>2022-01-12T14:17:10Z</time>
      </trkpt>
      <trkpt lat="49.88445" lon="2.16119">
        <ele>111.1</ele>
        <time>2022-01-12T14:17:12Z</time>
      </trkpt>
      <trkpt lat="49.88445" lon="2.16119">
        <ele>111.1</ele>
        <time>2022-01-12T14:17:13Z</time>
      </trkpt>
      <trkpt lat="49.88445" lon="2.16119">
        <ele>111.1</ele>
        <time>2022-01-12T14:17:15Z</time>
      </trkpt>
      <trkpt lat="49.88445" lon="2.16119">
        <ele>111.1</ele>
        <time>2022-01-12T14:17:16Z</time>
      </trkpt>
      <trkpt lat="49.88445" lon="2.16119">
        <ele>111.1</ele>
        <time>2022-01-12T14:17:17Z</time>
      </trkpt>
      <trkpt lat="49.88445" lon="2.16119">
        <ele>111.1</ele>
        <time>2022-01-12T14:17:19Z</time>
      </trkpt>
      <trkpt lat="49.88445" lon="2.16119">
        <ele>111.1</ele>
        <time>2022-01-12T14:17:20Z</time>
      </trkpt>
      <trkpt lat="49.88445" lon="2.16119">
        <ele>111.1</ele>
        <time>2022-01-12T14:17:21Z</time>
      </trkpt>
      <trkpt lat="49.88445" lon="2.16119">
        <ele>111.1</ele>
        <time>2022-01-12T14:17:23Z</time>
      </trkpt>
      <trkpt lat="49.88445" lon="2.16119">
        <ele>111.1</ele>
        <time>2022-01-12T14:17:24Z</time>
      </trkpt>
      <trkpt lat="49.88445" lon="2.16119">
        <ele>111.1</ele>
        <time>2022-01-12T14:17:25Z</time>
      </trkpt>
      <trkpt lat="49.88445" lon="2.16119">
        <ele>111.1</ele>
        <time>2022-01-12T14:17:27Z</time>
      </trkpt>
      <trkpt lat="49.88445" lon="2.16119">
        <ele>111.1</ele>
        <time>2022-01-12T14:17:29Z</time>
      </trkpt>
      <trkpt lat="49.88445" lon="2.16117">
        <ele>111.1</ele>
        <time>2022-01-12T14:17:30Z</time>
      </trkpt>
      <trkpt lat="49.88445" lon="2.16116">
        <ele>111</ele>
        <time>2022-01-12T14:17:31Z</time>
      </trkpt>
      <trkpt lat="49.88445" lon="2.16117">
        <ele>111</ele>
        <time>2022-01-12T14:17:32Z</time>
      </trkpt>
      <trkpt lat="49.88445" lon="2.16119">
        <ele>111</ele>
        <time>2022-01-12T14:17:33Z</time>
      </trkpt>
      <trkpt lat="49.88446" lon="2.16119">
        <ele>111</ele>
        <time>2022-01-12T14:17:35Z</time>
      </trkpt>
      <trkpt lat="49.88446" lon="2.16121">
        <ele>111</ele>
        <time>2022-01-12T14:17:36Z</time>
      </trkpt>
      <trkpt lat="49.88447" lon="2.16122">
        <ele>110.9</ele>
        <time>2022-01-12T14:17:37Z</time>
      </trkpt>
      <trkpt lat="49.88447" lon="2.16125">
        <ele>110.9</ele>
        <time>2022-01-12T14:17:38Z</time>
      </trkpt>
      <trkpt lat="49.88448" lon="2.16129">
        <ele>110.8</ele>
        <time>2022-01-12T14:17:40Z</time>
      </trkpt>
      <trkpt lat="49.88449" lon="2.16131">
        <ele>110.8</ele>
        <time>2022-01-12T14:17:41Z</time>
      </trkpt>
      <trkpt lat="49.88449" lon="2.16134">
        <ele>110.7</ele>
        <time>2022-01-12T14:17:42Z</time>
      </trkpt>
      <trkpt lat="49.88449" lon="2.16136">
        <ele>110.7</ele>
        <time>2022-01-12T14:17:43Z</time>
      </trkpt>
      <trkpt lat="49.8845" lon="2.16138">
        <ele>110.7</ele>
        <time>2022-01-12T14:17:44Z</time>
      </trkpt>
      <trkpt lat="49.8845" lon="2.1614">
        <ele>110.7</ele>
        <time>2022-01-12T14:17:46Z</time>
      </trkpt>
      <trkpt lat="49.88451" lon="2.16143">
        <ele>110.6</ele>
        <time>2022-01-12T14:17:47Z</time>
      </trkpt>
      <trkpt lat="49.88451" lon="2.16144">
        <ele>110.6</ele>
        <time>2022-01-12T14:17:48Z</time>
      </trkpt>
      <trkpt lat="49.88453" lon="2.16147">
        <ele>110.5</ele>
        <time>2022-01-12T14:17:50Z</time>
      </trkpt>
      <trkpt lat="49.88454" lon="2.16147">
        <ele>110.5</ele>
        <time>2022-01-12T14:17:51Z</time>
      </trkpt>
      <trkpt lat="49.88454" lon="2.16148">
        <ele>110.5</ele>
        <time>2022-01-12T14:17:52Z</time>
      </trkpt>
      <trkpt lat="49.88455" lon="2.16151">
        <ele>110.5</ele>
        <time>2022-01-12T14:17:53Z</time>
      </trkpt>
      <trkpt lat="49.88456" lon="2.16152">
        <ele>110.5</ele>
        <time>2022-01-12T14:17:54Z</time>
      </trkpt>
      <trkpt lat="49.88456" lon="2.16154">
        <ele>110.5</ele>
        <time>2022-01-12T14:17:56Z</time>
      </trkpt>
      <trkpt lat="49.88456" lon="2.16155">
        <ele>110.4</ele>
        <time>2022-01-12T14:17:57Z</time>
      </trkpt>
      <trkpt lat="49.88457" lon="2.16157">
        <ele>110.4</ele>
        <time>2022-01-12T14:17:58Z</time>
      </trkpt>
      <trkpt lat="49.88457" lon="2.16159">
        <ele>110.4</ele>
        <time>2022-01-12T14:17:59Z</time>
      </trkpt>
      <trkpt lat="49.88457" lon="2.16161">
        <ele>110.4</ele>
        <time>2022-01-12T14:18:01Z</time>
      </trkpt>
      <trkpt lat="49.88457" lon="2.16163">
        <ele>110.4</ele>
        <time>2022-01-12T14:18:02Z</time>
      </trkpt>
      <trkpt lat="49.88457" lon="2.16165">
        <ele>110.4</ele>
        <time>2022-01-12T14:18:03Z</time>
      </trkpt>
      <trkpt lat="49.88458" lon="2.16167">
        <ele>110.3</ele>
        <time>2022-01-12T14:18:04Z</time>
      </trkpt>
      <trkpt lat="49.88458" lon="2.16168">
        <ele>110.3</ele>
        <time>2022-01-12T14:18:05Z</time>
      </trkpt>
      <trkpt lat="49.88458" lon="2.16171">
        <ele>110.3</ele>
        <time>2022-01-12T14:18:07Z</time>
      </trkpt>
      <trkpt lat="49.88458" lon="2.16173">
        <ele>110.3</ele>
        <time>2022-01-12T14:18:08Z</time>
      </trkpt>
      <trkpt lat="49.88459" lon="2.16174">
        <ele>110.3</ele>
        <time>2022-01-12T14:18:09Z</time>
      </trkpt>
      <trkpt lat="49.88459" lon="2.16176">
        <ele>110.3</ele>
        <time>2022-01-12T14:18:10Z</time>
      </trkpt>
      <trkpt lat="49.8846" lon="2.16178">
        <ele>110.3</ele>
        <time>2022-01-12T14:18:11Z</time>
      </trkpt>
      <trkpt lat="49.8846" lon="2.1618">
        <ele>110.3</ele>
        <time>2022-01-12T14:18:13Z</time>
      </trkpt>
      <trkpt lat="49.8846" lon="2.16182">
        <ele>110.2</ele>
        <time>2022-01-12T14:18:14Z</time>
      </trkpt>
      <trkpt lat="49.88461" lon="2.16183">
        <ele>110.2</ele>
        <time>2022-01-12T14:18:15Z</time>
      </trkpt>
      <trkpt lat="49.88461" lon="2.16185">
        <ele>110.2</ele>
        <time>2022-01-12T14:18:16Z</time>
      </trkpt>
      <trkpt lat="49.88462" lon="2.16188">
        <ele>110.2</ele>
        <time>2022-01-12T14:18:17Z</time>
      </trkpt>
      <trkpt lat="49.88462" lon="2.16189">
        <ele>110.2</ele>
        <time>2022-01-12T14:18:18Z</time>
      </trkpt>
      <trkpt lat="49.88462" lon="2.16191">
        <ele>110.2</ele>
        <time>2022-01-12T14:18:19Z</time>
      </trkpt>
      <trkpt lat="49.88462" lon="2.16193">
        <ele>110.2</ele>
        <time>2022-01-12T14:18:21Z</time>
      </trkpt>
      <trkpt lat="49.88462" lon="2.16195">
        <ele>110.1</ele>
        <time>2022-01-12T14:18:22Z</time>
      </trkpt>
      <trkpt lat="49.88462" lon="2.16197">
        <ele>110.1</ele>
        <time>2022-01-12T14:18:23Z</time>
      </trkpt>
      <trkpt lat="49.88462" lon="2.162">
        <ele>110.1</ele>
        <time>2022-01-12T14:18:25Z</time>
      </trkpt>
      <trkpt lat="49.88463" lon="2.16202">
        <ele>110.1</ele>
        <time>2022-01-12T14:18:26Z</time>
      </trkpt>
      <trkpt lat="49.88463" lon="2.16204">
        <ele>110</ele>
        <time>2022-01-12T14:18:27Z</time>
      </trkpt>
      <trkpt lat="49.88465" lon="2.16207">
        <ele>110</ele>
        <time>2022-01-12T14:18:28Z</time>
      </trkpt>
      <trkpt lat="49.88465" lon="2.16208">
        <ele>110</ele>
        <time>2022-01-12T14:18:29Z</time>
      </trkpt>
      <trkpt lat="49.88466" lon="2.16209">
        <ele>110</ele>
        <time>2022-01-12T14:18:30Z</time>
      </trkpt>
      <trkpt lat="49.88466" lon="2.16211">
        <ele>109.9</ele>
        <time>2022-01-12T14:18:31Z</time>
      </trkpt>
      <trkpt lat="49.88467" lon="2.16213">
        <ele>109.9</ele>
        <time>2022-01-12T14:18:32Z</time>
      </trkpt>
      <trkpt lat="49.88467" lon="2.16216">
        <ele>109.9</ele>
        <time>2022-01-12T14:18:34Z</time>
      </trkpt>
      <trkpt lat="49.88468" lon="2.16217">
        <ele>109.8</ele>
        <time>2022-01-12T14:18:35Z</time>
      </trkpt>
      <trkpt lat="49.88468" lon="2.16219">
        <ele>109.8</ele>
        <time>2022-01-12T14:18:36Z</time>
      </trkpt>
      <trkpt lat="49.88468" lon="2.16221">
        <ele>109.8</ele>
        <time>2022-01-12T14:18:37Z</time>
      </trkpt>
      <trkpt lat="49.88469" lon="2.16224">
        <ele>109.8</ele>
        <time>2022-01-12T14:18:38Z</time>
      </trkpt>
      <trkpt lat="49.88469" lon="2.16225">
        <ele>109.7</ele>
        <time>2022-01-12T14:18:40Z</time>
      </trkpt>
      <trkpt lat="49.88469" lon="2.16226">
        <ele>109.7</ele>
        <time>2022-01-12T14:18:41Z</time>
      </trkpt>
      <trkpt lat="49.8847" lon="2.16229">
        <ele>109.7</ele>
        <time>2022-01-12T14:18:42Z</time>
      </trkpt>
      <trkpt lat="49.8847" lon="2.1623">
        <ele>109.6</ele>
        <time>2022-01-12T14:18:43Z</time>
      </trkpt>
      <trkpt lat="49.8847" lon="2.16232">
        <ele>109.6</ele>
        <time>2022-01-12T14:18:44Z</time>
      </trkpt>
      <trkpt lat="49.8847" lon="2.16233">
        <ele>109.6</ele>
        <time>2022-01-12T14:18:45Z</time>
      </trkpt>
      <trkpt lat="49.88471" lon="2.16235">
        <ele>109.6</ele>
        <time>2022-01-12T14:18:46Z</time>
      </trkpt>
      <trkpt lat="49.88471" lon="2.16236">
        <ele>109.5</ele>
        <time>2022-01-12T14:18:47Z</time>
      </trkpt>
      <trkpt lat="49.88472" lon="2.16238">
        <ele>109.5</ele>
        <time>2022-01-12T14:18:49Z</time>
      </trkpt>
      <trkpt lat="49.88472" lon="2.1624">
        <ele>109.5</ele>
        <time>2022-01-12T14:18:50Z</time>
      </trkpt>
      <trkpt lat="49.88473" lon="2.16241">
        <ele>109.5</ele>
        <time>2022-01-12T14:18:51Z</time>
      </trkpt>
      <trkpt lat="49.88474" lon="2.16243">
        <ele>109.4</ele>
        <time>2022-01-12T14:18:52Z</time>
      </trkpt>
      <trkpt lat="49.88474" lon="2.16244">
        <ele>109.4</ele>
        <time>2022-01-12T14:18:53Z</time>
      </trkpt>
      <trkpt lat="49.88475" lon="2.16245">
        <ele>109.4</ele>
        <time>2022-01-12T14:18:55Z</time>
      </trkpt>
      <trkpt lat="49.88476" lon="2.16246">
        <ele>109.3</ele>
        <time>2022-01-12T14:18:56Z</time>
      </trkpt>
      <trkpt lat="49.88477" lon="2.16247">
        <ele>109.3</ele>
        <time>2022-01-12T14:18:57Z</time>
      </trkpt>
      <trkpt lat="49.88478" lon="2.16249">
        <ele>109.3</ele>
        <time>2022-01-12T14:18:58Z</time>
      </trkpt>
      <trkpt lat="49.88479" lon="2.16251">
        <ele>109.2</ele>
        <time>2022-01-12T14:18:59Z</time>
      </trkpt>
      <trkpt lat="49.8848" lon="2.16252">
        <ele>109.2</ele>
        <time>2022-01-12T14:19:00Z</time>
      </trkpt>
      <trkpt lat="49.8848" lon="2.16253">
        <ele>109.2</ele>
        <time>2022-01-12T14:19:01Z</time>
      </trkpt>
      <trkpt lat="49.88481" lon="2.16257">
        <ele>109.1</ele>
        <time>2022-01-12T14:19:03Z</time>
      </trkpt>
      <trkpt lat="49.88481" lon="2.16258">
        <ele>109.1</ele>
        <time>2022-01-12T14:19:04Z</time>
      </trkpt>
      <trkpt lat="49.88481" lon="2.16259">
        <ele>109.1</ele>
        <time>2022-01-12T14:19:05Z</time>
      </trkpt>
      <trkpt lat="49.88481" lon="2.16261">
        <ele>109.1</ele>
        <time>2022-01-12T14:19:06Z</time>
      </trkpt>
      <trkpt lat="49.88481" lon="2.16262">
        <ele>109.1</ele>
        <time>2022-01-12T14:19:07Z</time>
      </trkpt>
      <trkpt lat="49.88482" lon="2.16264">
        <ele>109</ele>
        <time>2022-01-12T14:19:08Z</time>
      </trkpt>
      <trkpt lat="49.88482" lon="2.16267">
        <ele>109</ele>
        <time>2022-01-12T14:19:10Z</time>
      </trkpt>
      <trkpt lat="49.88483" lon="2.16269">
        <ele>108.9</ele>
        <time>2022-01-12T14:19:11Z</time>
      </trkpt>
      <trkpt lat="49.88483" lon="2.16271">
        <ele>108.9</ele>
        <time>2022-01-12T14:19:12Z</time>
      </trkpt>
      <trkpt lat="49.88484" lon="2.16272">
        <ele>108.9</ele>
        <time>2022-01-12T14:19:13Z</time>
      </trkpt>
      <trkpt lat="49.88484" lon="2.16274">
        <ele>108.9</ele>
        <time>2022-01-12T14:19:14Z</time>
      </trkpt>
      <trkpt lat="49.88484" lon="2.16277">
        <ele>108.8</ele>
        <time>2022-01-12T14:19:16Z</time>
      </trkpt>
      <trkpt lat="49.88485" lon="2.16278">
        <ele>108.8</ele>
        <time>2022-01-12T14:19:17Z</time>
      </trkpt>
      <trkpt lat="49.88485" lon="2.16279">
        <ele>108.8</ele>
        <time>2022-01-12T14:19:18Z</time>
      </trkpt>
      <trkpt lat="49.88486" lon="2.16282">
        <ele>108.7</ele>
        <time>2022-01-12T14:19:19Z</time>
      </trkpt>
      <trkpt lat="49.88486" lon="2.16283">
        <ele>108.7</ele>
        <time>2022-01-12T14:19:20Z</time>
      </trkpt>
      <trkpt lat="49.88486" lon="2.16285">
        <ele>108.7</ele>
        <time>2022-01-12T14:19:21Z</time>
      </trkpt>
      <trkpt lat="49.88487" lon="2.16286">
        <ele>108.6</ele>
        <time>2022-01-12T14:19:22Z</time>
      </trkpt>
      <trkpt lat="49.88487" lon="2.16288">
        <ele>108.6</ele>
        <time>2022-01-12T14:19:23Z</time>
      </trkpt>
      <trkpt lat="49.88487" lon="2.1629">
        <ele>108.6</ele>
        <time>2022-01-12T14:19:25Z</time>
      </trkpt>
      <trkpt lat="49.88488" lon="2.16293">
        <ele>108.5</ele>
        <time>2022-01-12T14:19:26Z</time>
      </trkpt>
      <trkpt lat="49.88489" lon="2.16294">
        <ele>108.5</ele>
        <time>2022-01-12T14:19:27Z</time>
      </trkpt>
      <trkpt lat="49.88489" lon="2.16296">
        <ele>108.4</ele>
        <time>2022-01-12T14:19:28Z</time>
      </trkpt>
      <trkpt lat="49.88489" lon="2.16299">
        <ele>108.4</ele>
        <time>2022-01-12T14:19:30Z</time>
      </trkpt>
      <trkpt lat="49.8849" lon="2.16301">
        <ele>108.3</ele>
        <time>2022-01-12T14:19:31Z</time>
      </trkpt>
      <trkpt lat="49.8849" lon="2.16303">
        <ele>108.3</ele>
        <time>2022-01-12T14:19:33Z</time>
      </trkpt>
      <trkpt lat="49.8849" lon="2.16305">
        <ele>108.2</ele>
        <time>2022-01-12T14:19:34Z</time>
      </trkpt>
      <trkpt lat="49.8849" lon="2.16307">
        <ele>108.2</ele>
        <time>2022-01-12T14:19:35Z</time>
      </trkpt>
      <trkpt lat="49.8849" lon="2.16309">
        <ele>108.2</ele>
        <time>2022-01-12T14:19:36Z</time>
      </trkpt>
      <trkpt lat="49.88491" lon="2.16311">
        <ele>108.1</ele>
        <time>2022-01-12T14:19:38Z</time>
      </trkpt>
      <trkpt lat="49.88492" lon="2.16313">
        <ele>108.1</ele>
        <time>2022-01-12T14:19:39Z</time>
      </trkpt>
      <trkpt lat="49.88492" lon="2.16314">
        <ele>108</ele>
        <time>2022-01-12T14:19:40Z</time>
      </trkpt>
      <trkpt lat="49.88493" lon="2.16316">
        <ele>108</ele>
        <time>2022-01-12T14:19:41Z</time>
      </trkpt>
      <trkpt lat="49.88493" lon="2.16318">
        <ele>107.9</ele>
        <time>2022-01-12T14:19:42Z</time>
      </trkpt>
      <trkpt lat="49.88494" lon="2.1632">
        <ele>107.9</ele>
        <time>2022-01-12T14:19:44Z</time>
      </trkpt>
      <trkpt lat="49.88494" lon="2.16321">
        <ele>107.8</ele>
        <time>2022-01-12T14:19:45Z</time>
      </trkpt>
      <trkpt lat="49.88494" lon="2.16324">
        <ele>107.8</ele>
        <time>2022-01-12T14:19:46Z</time>
      </trkpt>
      <trkpt lat="49.88495" lon="2.16326">
        <ele>107.7</ele>
        <time>2022-01-12T14:19:48Z</time>
      </trkpt>
      <trkpt lat="49.88495" lon="2.16327">
        <ele>107.7</ele>
        <time>2022-01-12T14:19:49Z</time>
      </trkpt>
      <trkpt lat="49.88495" lon="2.16329">
        <ele>107.7</ele>
        <time>2022-01-12T14:19:50Z</time>
      </trkpt>
      <trkpt lat="49.88495" lon="2.16331">
        <ele>107.6</ele>
        <time>2022-01-12T14:19:51Z</time>
      </trkpt>
      <trkpt lat="49.88495" lon="2.16333">
        <ele>107.6</ele>
        <time>2022-01-12T14:19:52Z</time>
      </trkpt>
      <trkpt lat="49.88495" lon="2.16335">
        <ele>107.5</ele>
        <time>2022-01-12T14:19:53Z</time>
      </trkpt>
      <trkpt lat="49.88495" lon="2.16337">
        <ele>107.5</ele>
        <time>2022-01-12T14:19:54Z</time>
      </trkpt>
      <trkpt lat="49.88495" lon="2.1634">
        <ele>107.4</ele>
        <time>2022-01-12T14:19:56Z</time>
      </trkpt>
      <trkpt lat="49.88496" lon="2.16343">
        <ele>107.3</ele>
        <time>2022-01-12T14:19:57Z</time>
      </trkpt>
      <trkpt lat="49.88496" lon="2.16344">
        <ele>107.3</ele>
        <time>2022-01-12T14:19:58Z</time>
      </trkpt>
      <trkpt lat="49.88496" lon="2.16345">
        <ele>107.3</ele>
        <time>2022-01-12T14:19:59Z</time>
      </trkpt>
      <trkpt lat="49.88495" lon="2.16349">
        <ele>107.2</ele>
        <time>2022-01-12T14:20:00Z</time>
      </trkpt>
      <trkpt lat="49.88495" lon="2.1635">
        <ele>107.2</ele>
        <time>2022-01-12T14:20:02Z</time>
      </trkpt>
      <trkpt lat="49.88495" lon="2.16352">
        <ele>107.2</ele>
        <time>2022-01-12T14:20:03Z</time>
      </trkpt>
      <trkpt lat="49.88495" lon="2.16354">
        <ele>107.1</ele>
        <time>2022-01-12T14:20:04Z</time>
      </trkpt>
      <trkpt lat="49.88495" lon="2.16355">
        <ele>107.1</ele>
        <time>2022-01-12T14:20:05Z</time>
      </trkpt>
      <trkpt lat="49.88495" lon="2.16357">
        <ele>107.1</ele>
        <time>2022-01-12T14:20:06Z</time>
      </trkpt>
      <trkpt lat="49.88495" lon="2.1636">
        <ele>107</ele>
        <time>2022-01-12T14:20:08Z</time>
      </trkpt>
      <trkpt lat="49.88494" lon="2.16362">
        <ele>107</ele>
        <time>2022-01-12T14:20:09Z</time>
      </trkpt>
      <trkpt lat="49.88494" lon="2.16365">
        <ele>106.9</ele>
        <time>2022-01-12T14:20:10Z</time>
      </trkpt>
      <trkpt lat="49.88494" lon="2.16367">
        <ele>106.9</ele>
        <time>2022-01-12T14:20:11Z</time>
      </trkpt>
      <trkpt lat="49.88494" lon="2.16369">
        <ele>106.9</ele>
        <time>2022-01-12T14:20:12Z</time>
      </trkpt>
      <trkpt lat="49.88494" lon="2.16372">
        <ele>106.8</ele>
        <time>2022-01-12T14:20:13Z</time>
      </trkpt>
      <trkpt lat="49.88494" lon="2.16374">
        <ele>106.8</ele>
        <time>2022-01-12T14:20:14Z</time>
      </trkpt>
      <trkpt lat="49.88494" lon="2.16376">
        <ele>106.7</ele>
        <time>2022-01-12T14:20:16Z</time>
      </trkpt>
      <trkpt lat="49.88494" lon="2.16378">
        <ele>106.7</ele>
        <time>2022-01-12T14:20:17Z</time>
      </trkpt>
      <trkpt lat="49.88494" lon="2.16382">
        <ele>106.6</ele>
        <time>2022-01-12T14:20:18Z</time>
      </trkpt>
      <trkpt lat="49.88494" lon="2.16383">
        <ele>106.6</ele>
        <time>2022-01-12T14:20:19Z</time>
      </trkpt>
      <trkpt lat="49.88494" lon="2.16384">
        <ele>106.6</ele>
        <time>2022-01-12T14:20:20Z</time>
      </trkpt>
      <trkpt lat="49.88494" lon="2.16388">
        <ele>106.5</ele>
        <time>2022-01-12T14:20:21Z</time>
      </trkpt>
      <trkpt lat="49.88494" lon="2.16389">
        <ele>106.5</ele>
        <time>2022-01-12T14:20:22Z</time>
      </trkpt>
      <trkpt lat="49.88493" lon="2.1639">
        <ele>106.5</ele>
        <time>2022-01-12T14:20:23Z</time>
      </trkpt>
      <trkpt lat="49.88493" lon="2.16392">
        <ele>106.4</ele>
        <time>2022-01-12T14:20:24Z</time>
      </trkpt>
      <trkpt lat="49.88493" lon="2.16394">
        <ele>106.3</ele>
        <time>2022-01-12T14:20:25Z</time>
      </trkpt>
      <trkpt lat="49.88492" lon="2.16397">
        <ele>106.3</ele>
        <time>2022-01-12T14:20:26Z</time>
      </trkpt>
      <trkpt lat="49.88492" lon="2.16399">
        <ele>106.3</ele>
        <time>2022-01-12T14:20:27Z</time>
      </trkpt>
      <trkpt lat="49.88492" lon="2.16401">
        <ele>106.2</ele>
        <time>2022-01-12T14:20:28Z</time>
      </trkpt>
      <trkpt lat="49.88491" lon="2.16403">
        <ele>106.1</ele>
        <time>2022-01-12T14:20:30Z</time>
      </trkpt>
      <trkpt lat="49.88491" lon="2.16405">
        <ele>106.1</ele>
        <time>2022-01-12T14:20:31Z</time>
      </trkpt>
      <trkpt lat="49.8849" lon="2.16407">
        <ele>106</ele>
        <time>2022-01-12T14:20:32Z</time>
      </trkpt>
      <trkpt lat="49.8849" lon="2.16408">
        <ele>106</ele>
        <time>2022-01-12T14:20:33Z</time>
      </trkpt>
      <trkpt lat="49.88489" lon="2.1641">
        <ele>106</ele>
        <time>2022-01-12T14:20:34Z</time>
      </trkpt>
      <trkpt lat="49.88489" lon="2.16411">
        <ele>105.9</ele>
        <time>2022-01-12T14:20:35Z</time>
      </trkpt>
      <trkpt lat="49.88489" lon="2.16413">
        <ele>105.9</ele>
        <time>2022-01-12T14:20:37Z</time>
      </trkpt>
      <trkpt lat="49.88488" lon="2.16415">
        <ele>105.8</ele>
        <time>2022-01-12T14:20:38Z</time>
      </trkpt>
      <trkpt lat="49.88488" lon="2.16416">
        <ele>105.8</ele>
        <time>2022-01-12T14:20:39Z</time>
      </trkpt>
      <trkpt lat="49.88488" lon="2.16418">
        <ele>105.7</ele>
        <time>2022-01-12T14:20:40Z</time>
      </trkpt>
      <trkpt lat="49.88487" lon="2.1642">
        <ele>105.7</ele>
        <time>2022-01-12T14:20:41Z</time>
      </trkpt>
      <trkpt lat="49.88487" lon="2.16421">
        <ele>105.6</ele>
        <time>2022-01-12T14:20:42Z</time>
      </trkpt>
      <trkpt lat="49.88487" lon="2.16423">
        <ele>105.5</ele>
        <time>2022-01-12T14:20:43Z</time>
      </trkpt>
      <trkpt lat="49.88487" lon="2.16425">
        <ele>105.5</ele>
        <time>2022-01-12T14:20:44Z</time>
      </trkpt>
      <trkpt lat="49.88487" lon="2.16426">
        <ele>105.4</ele>
        <time>2022-01-12T14:20:46Z</time>
      </trkpt>
      <trkpt lat="49.88486" lon="2.16428">
        <ele>105.4</ele>
        <time>2022-01-12T14:20:47Z</time>
      </trkpt>
      <trkpt lat="49.88486" lon="2.1643">
        <ele>105.3</ele>
        <time>2022-01-12T14:20:48Z</time>
      </trkpt>
      <trkpt lat="49.88486" lon="2.16431">
        <ele>105.3</ele>
        <time>2022-01-12T14:20:49Z</time>
      </trkpt>
      <trkpt lat="49.88486" lon="2.16432">
        <ele>105.2</ele>
        <time>2022-01-12T14:20:50Z</time>
      </trkpt>
      <trkpt lat="49.88486" lon="2.16434">
        <ele>105.2</ele>
        <time>2022-01-12T14:20:51Z</time>
      </trkpt>
      <trkpt lat="49.88485" lon="2.16436">
        <ele>105.1</ele>
        <time>2022-01-12T14:20:52Z</time>
      </trkpt>
      <trkpt lat="49.88485" lon="2.16437">
        <ele>105</ele>
        <time>2022-01-12T14:20:53Z</time>
      </trkpt>
      <trkpt lat="49.88484" lon="2.1644">
        <ele>104.9</ele>
        <time>2022-01-12T14:20:54Z</time>
      </trkpt>
      <trkpt lat="49.88484" lon="2.16442">
        <ele>104.9</ele>
        <time>2022-01-12T14:20:56Z</time>
      </trkpt>
      <trkpt lat="49.88483" lon="2.16443">
        <ele>104.8</ele>
        <time>2022-01-12T14:20:57Z</time>
      </trkpt>
      <trkpt lat="49.88483" lon="2.16445">
        <ele>104.7</ele>
        <time>2022-01-12T14:20:58Z</time>
      </trkpt>
      <trkpt lat="49.88483" lon="2.16446">
        <ele>104.7</ele>
        <time>2022-01-12T14:20:59Z</time>
      </trkpt>
      <trkpt lat="49.88482" lon="2.16448">
        <ele>104.6</ele>
        <time>2022-01-12T14:21:00Z</time>
      </trkpt>
      <trkpt lat="49.88482" lon="2.16449">
        <ele>104.5</ele>
        <time>2022-01-12T14:21:01Z</time>
      </trkpt>
      <trkpt lat="49.88481" lon="2.16451">
        <ele>104.4</ele>
        <time>2022-01-12T14:21:03Z</time>
      </trkpt>
      <trkpt lat="49.8848" lon="2.16453">
        <ele>104.3</ele>
        <time>2022-01-12T14:21:04Z</time>
      </trkpt>
      <trkpt lat="49.8848" lon="2.16454">
        <ele>104.3</ele>
        <time>2022-01-12T14:21:05Z</time>
      </trkpt>
      <trkpt lat="49.8848" lon="2.16456">
        <ele>104.2</ele>
        <time>2022-01-12T14:21:06Z</time>
      </trkpt>
      <trkpt lat="49.8848" lon="2.16457">
        <ele>104.1</ele>
        <time>2022-01-12T14:21:07Z</time>
      </trkpt>
      <trkpt lat="49.8848" lon="2.16459">
        <ele>104</ele>
        <time>2022-01-12T14:21:08Z</time>
      </trkpt>
      <trkpt lat="49.88479" lon="2.1646">
        <ele>104</ele>
        <time>2022-01-12T14:21:09Z</time>
      </trkpt>
      <trkpt lat="49.88479" lon="2.16463">
        <ele>103.8</ele>
        <time>2022-01-12T14:21:11Z</time>
      </trkpt>
      <trkpt lat="49.88478" lon="2.16464">
        <ele>103.7</ele>
        <time>2022-01-12T14:21:13Z</time>
      </trkpt>
      <trkpt lat="49.88478" lon="2.16465">
        <ele>103.6</ele>
        <time>2022-01-12T14:21:14Z</time>
      </trkpt>
      <trkpt lat="49.88477" lon="2.16467">
        <ele>103.6</ele>
        <time>2022-01-12T14:21:15Z</time>
      </trkpt>
      <trkpt lat="49.88477" lon="2.16468">
        <ele>103.5</ele>
        <time>2022-01-12T14:21:16Z</time>
      </trkpt>
      <trkpt lat="49.88477" lon="2.1647">
        <ele>103.4</ele>
        <time>2022-01-12T14:21:18Z</time>
      </trkpt>
      <trkpt lat="49.88476" lon="2.16471">
        <ele>103.3</ele>
        <time>2022-01-12T14:21:19Z</time>
      </trkpt>
      <trkpt lat="49.88476" lon="2.16472">
        <ele>103.3</ele>
        <time>2022-01-12T14:21:20Z</time>
      </trkpt>
      <trkpt lat="49.88476" lon="2.16472">
        <ele>103.2</ele>
        <time>2022-01-12T14:21:21Z</time>
      </trkpt>
      <trkpt lat="49.88476" lon="2.16473">
        <ele>103.1</ele>
        <time>2022-01-12T14:21:23Z</time>
      </trkpt>
      <trkpt lat="49.88476" lon="2.16475">
        <ele>103.1</ele>
        <time>2022-01-12T14:21:24Z</time>
      </trkpt>
      <trkpt lat="49.88475" lon="2.16476">
        <ele>103</ele>
        <time>2022-01-12T14:21:25Z</time>
      </trkpt>
      <trkpt lat="49.88475" lon="2.16478">
        <ele>102.8</ele>
        <time>2022-01-12T14:21:27Z</time>
      </trkpt>
      <trkpt lat="49.88474" lon="2.16481">
        <ele>102.7</ele>
        <time>2022-01-12T14:21:28Z</time>
      </trkpt>
      <trkpt lat="49.88474" lon="2.16484">
        <ele>102.5</ele>
        <time>2022-01-12T14:21:29Z</time>
      </trkpt>
      <trkpt lat="49.88473" lon="2.16485">
        <ele>102.4</ele>
        <time>2022-01-12T14:21:30Z</time>
      </trkpt>
      <trkpt lat="49.88473" lon="2.16487">
        <ele>102.3</ele>
        <time>2022-01-12T14:21:32Z</time>
      </trkpt>
      <trkpt lat="49.88472" lon="2.16488">
        <ele>102.2</ele>
        <time>2022-01-12T14:21:33Z</time>
      </trkpt>
      <trkpt lat="49.88472" lon="2.1649">
        <ele>102.1</ele>
        <time>2022-01-12T14:21:34Z</time>
      </trkpt>
      <trkpt lat="49.88471" lon="2.16491">
        <ele>102</ele>
        <time>2022-01-12T14:21:35Z</time>
      </trkpt>
      <trkpt lat="49.88471" lon="2.16493">
        <ele>101.8</ele>
        <time>2022-01-12T14:21:36Z</time>
      </trkpt>
      <trkpt lat="49.8847" lon="2.16495">
        <ele>101.7</ele>
        <time>2022-01-12T14:21:38Z</time>
      </trkpt>
      <trkpt lat="49.88469" lon="2.16497">
        <ele>101.6</ele>
        <time>2022-01-12T14:21:39Z</time>
      </trkpt>
      <trkpt lat="49.88469" lon="2.16499">
        <ele>101.5</ele>
        <time>2022-01-12T14:21:40Z</time>
      </trkpt>
      <trkpt lat="49.88468" lon="2.165">
        <ele>101.4</ele>
        <time>2022-01-12T14:21:41Z</time>
      </trkpt>
      <trkpt lat="49.88468" lon="2.16502">
        <ele>101.3</ele>
        <time>2022-01-12T14:21:42Z</time>
      </trkpt>
      <trkpt lat="49.88468" lon="2.16502">
        <ele>101.2</ele>
        <time>2022-01-12T14:21:44Z</time>
      </trkpt>
      <trkpt lat="49.88467" lon="2.16504">
        <ele>101.1</ele>
        <time>2022-01-12T14:21:45Z</time>
      </trkpt>
      <trkpt lat="49.88467" lon="2.16505">
        <ele>101.1</ele>
        <time>2022-01-12T14:21:46Z</time>
      </trkpt>
      <trkpt lat="49.88467" lon="2.16506">
        <ele>101</ele>
        <time>2022-01-12T14:21:47Z</time>
      </trkpt>
      <trkpt lat="49.88467" lon="2.16507">
        <ele>101</ele>
        <time>2022-01-12T14:21:48Z</time>
      </trkpt>
      <trkpt lat="49.88467" lon="2.16508">
        <ele>100.9</ele>
        <time>2022-01-12T14:21:50Z</time>
      </trkpt>
      <trkpt lat="49.88467" lon="2.1651">
        <ele>100.8</ele>
        <time>2022-01-12T14:21:51Z</time>
      </trkpt>
      <trkpt lat="49.88466" lon="2.16511">
        <ele>100.7</ele>
        <time>2022-01-12T14:21:52Z</time>
      </trkpt>
      <trkpt lat="49.88466" lon="2.16513">
        <ele>100.6</ele>
        <time>2022-01-12T14:21:53Z</time>
      </trkpt>
      <trkpt lat="49.88465" lon="2.16516">
        <ele>100.4</ele>
        <time>2022-01-12T14:21:54Z</time>
      </trkpt>
      <trkpt lat="49.88465" lon="2.16517">
        <ele>100.3</ele>
        <time>2022-01-12T14:21:55Z</time>
      </trkpt>
      <trkpt lat="49.88464" lon="2.16518">
        <ele>100.3</ele>
        <time>2022-01-12T14:21:56Z</time>
      </trkpt>
      <trkpt lat="49.88464" lon="2.1652">
        <ele>100.1</ele>
        <time>2022-01-12T14:21:58Z</time>
      </trkpt>
      <trkpt lat="49.88463" lon="2.16522">
        <ele>100.1</ele>
        <time>2022-01-12T14:21:59Z</time>
      </trkpt>
      <trkpt lat="49.88463" lon="2.16523">
        <ele>100</ele>
        <time>2022-01-12T14:22:00Z</time>
      </trkpt>
      <trkpt lat="49.88463" lon="2.16524">
        <ele>99.9</ele>
        <time>2022-01-12T14:22:01Z</time>
      </trkpt>
      <trkpt lat="49.88463" lon="2.16525">
        <ele>99.8</ele>
        <time>2022-01-12T14:22:02Z</time>
      </trkpt>
      <trkpt lat="49.88462" lon="2.16527">
        <ele>99.7</ele>
        <time>2022-01-12T14:22:03Z</time>
      </trkpt>
      <trkpt lat="49.88462" lon="2.16529">
        <ele>99.6</ele>
        <time>2022-01-12T14:22:04Z</time>
      </trkpt>
      <trkpt lat="49.88462" lon="2.1653">
        <ele>99.6</ele>
        <time>2022-01-12T14:22:05Z</time>
      </trkpt>
      <trkpt lat="49.88461" lon="2.16532">
        <ele>99.5</ele>
        <time>2022-01-12T14:22:07Z</time>
      </trkpt>
      <trkpt lat="49.88461" lon="2.16534">
        <ele>99.3</ele>
        <time>2022-01-12T14:22:08Z</time>
      </trkpt>
      <trkpt lat="49.88461" lon="2.16536">
        <ele>99.2</ele>
        <time>2022-01-12T14:22:09Z</time>
      </trkpt>
      <trkpt lat="49.88461" lon="2.16538">
        <ele>99.1</ele>
        <time>2022-01-12T14:22:11Z</time>
      </trkpt>
      <trkpt lat="49.88461" lon="2.16539">
        <ele>99.1</ele>
        <time>2022-01-12T14:22:12Z</time>
      </trkpt>
      <trkpt lat="49.88461" lon="2.16541">
        <ele>99</ele>
        <time>2022-01-12T14:22:13Z</time>
      </trkpt>
      <trkpt lat="49.88461" lon="2.16542">
        <ele>98.9</ele>
        <time>2022-01-12T14:22:14Z</time>
      </trkpt>
      <trkpt lat="49.88461" lon="2.16544">
        <ele>98.9</ele>
        <time>2022-01-12T14:22:15Z</time>
      </trkpt>
      <trkpt lat="49.88461" lon="2.16545">
        <ele>98.8</ele>
        <time>2022-01-12T14:22:16Z</time>
      </trkpt>
      <trkpt lat="49.88461" lon="2.16546">
        <ele>98.7</ele>
        <time>2022-01-12T14:22:17Z</time>
      </trkpt>
      <trkpt lat="49.88461" lon="2.16548">
        <ele>98.7</ele>
        <time>2022-01-12T14:22:18Z</time>
      </trkpt>
      <trkpt lat="49.88461" lon="2.16549">
        <ele>98.6</ele>
        <time>2022-01-12T14:22:19Z</time>
      </trkpt>
      <trkpt lat="49.88461" lon="2.1655">
        <ele>98.5</ele>
        <time>2022-01-12T14:22:20Z</time>
      </trkpt>
      <trkpt lat="49.88461" lon="2.16552">
        <ele>98.5</ele>
        <time>2022-01-12T14:22:21Z</time>
      </trkpt>
      <trkpt lat="49.88461" lon="2.16553">
        <ele>98.4</ele>
        <time>2022-01-12T14:22:22Z</time>
      </trkpt>
      <trkpt lat="49.88461" lon="2.16556">
        <ele>98.3</ele>
        <time>2022-01-12T14:22:24Z</time>
      </trkpt>
      <trkpt lat="49.88461" lon="2.16557">
        <ele>98.2</ele>
        <time>2022-01-12T14:22:25Z</time>
      </trkpt>
      <trkpt lat="49.88461" lon="2.16558">
        <ele>98.2</ele>
        <time>2022-01-12T14:22:26Z</time>
      </trkpt>
      <trkpt lat="49.88461" lon="2.16559">
        <ele>98.1</ele>
        <time>2022-01-12T14:22:28Z</time>
      </trkpt>
      <trkpt lat="49.88461" lon="2.16561">
        <ele>98</ele>
        <time>2022-01-12T14:22:29Z</time>
      </trkpt>
      <trkpt lat="49.8846" lon="2.16563">
        <ele>98</ele>
        <time>2022-01-12T14:22:30Z</time>
      </trkpt>
      <trkpt lat="49.8846" lon="2.16564">
        <ele>97.9</ele>
        <time>2022-01-12T14:22:31Z</time>
      </trkpt>
      <trkpt lat="49.88461" lon="2.16565">
        <ele>97.8</ele>
        <time>2022-01-12T14:22:32Z</time>
      </trkpt>
      <trkpt lat="49.88461" lon="2.16567">
        <ele>97.7</ele>
        <time>2022-01-12T14:22:34Z</time>
      </trkpt>
      <trkpt lat="49.88462" lon="2.16569">
        <ele>97.7</ele>
        <time>2022-01-12T14:22:35Z</time>
      </trkpt>
      <trkpt lat="49.88462" lon="2.1657">
        <ele>97.6</ele>
        <time>2022-01-12T14:22:36Z</time>
      </trkpt>
      <trkpt lat="49.88463" lon="2.16571">
        <ele>97.5</ele>
        <time>2022-01-12T14:22:37Z</time>
      </trkpt>
      <trkpt lat="49.88463" lon="2.16572">
        <ele>97.5</ele>
        <time>2022-01-12T14:22:38Z</time>
      </trkpt>
      <trkpt lat="49.88464" lon="2.16573">
        <ele>97.4</ele>
        <time>2022-01-12T14:22:39Z</time>
      </trkpt>
      <trkpt lat="49.88464" lon="2.16574">
        <ele>97.4</ele>
        <time>2022-01-12T14:22:40Z</time>
      </trkpt>
      <trkpt lat="49.88465" lon="2.16575">
        <ele>97.3</ele>
        <time>2022-01-12T14:22:41Z</time>
      </trkpt>
      <trkpt lat="49.88466" lon="2.16576">
        <ele>97.3</ele>
        <time>2022-01-12T14:22:42Z</time>
      </trkpt>
      <trkpt lat="49.88466" lon="2.16577">
        <ele>97.2</ele>
        <time>2022-01-12T14:22:43Z</time>
      </trkpt>
      <trkpt lat="49.88467" lon="2.16578">
        <ele>97.1</ele>
        <time>2022-01-12T14:22:44Z</time>
      </trkpt>
      <trkpt lat="49.88468" lon="2.16579">
        <ele>97.1</ele>
        <time>2022-01-12T14:22:46Z</time>
      </trkpt>
      <trkpt lat="49.88468" lon="2.16581">
        <ele>97</ele>
        <time>2022-01-12T14:22:47Z</time>
      </trkpt>
      <trkpt lat="49.88469" lon="2.16582">
        <ele>96.9</ele>
        <time>2022-01-12T14:22:48Z</time>
      </trkpt>
      <trkpt lat="49.88469" lon="2.16584">
        <ele>96.9</ele>
        <time>2022-01-12T14:22:49Z</time>
      </trkpt>
      <trkpt lat="49.88469" lon="2.16585">
        <ele>96.8</ele>
        <time>2022-01-12T14:22:50Z</time>
      </trkpt>
      <trkpt lat="49.8847" lon="2.16586">
        <ele>96.8</ele>
        <time>2022-01-12T14:22:51Z</time>
      </trkpt>
      <trkpt lat="49.8847" lon="2.16588">
        <ele>96.7</ele>
        <time>2022-01-12T14:22:52Z</time>
      </trkpt>
      <trkpt lat="49.88471" lon="2.16589">
        <ele>96.6</ele>
        <time>2022-01-12T14:22:53Z</time>
      </trkpt>
      <trkpt lat="49.88471" lon="2.16591">
        <ele>96.6</ele>
        <time>2022-01-12T14:22:54Z</time>
      </trkpt>
      <trkpt lat="49.88472" lon="2.16592">
        <ele>96.5</ele>
        <time>2022-01-12T14:22:55Z</time>
      </trkpt>
      <trkpt lat="49.88472" lon="2.16594">
        <ele>96.4</ele>
        <time>2022-01-12T14:22:57Z</time>
      </trkpt>
      <trkpt lat="49.88473" lon="2.16595">
        <ele>96.4</ele>
        <time>2022-01-12T14:22:58Z</time>
      </trkpt>
      <trkpt lat="49.88473" lon="2.16596">
        <ele>96.3</ele>
        <time>2022-01-12T14:22:59Z</time>
      </trkpt>
      <trkpt lat="49.88474" lon="2.16598">
        <ele>96.3</ele>
        <time>2022-01-12T14:23:00Z</time>
      </trkpt>
      <trkpt lat="49.88474" lon="2.16599">
        <ele>96.2</ele>
        <time>2022-01-12T14:23:01Z</time>
      </trkpt>
      <trkpt lat="49.88474" lon="2.166">
        <ele>96.2</ele>
        <time>2022-01-12T14:23:02Z</time>
      </trkpt>
      <trkpt lat="49.88475" lon="2.16602">
        <ele>96.1</ele>
        <time>2022-01-12T14:23:03Z</time>
      </trkpt>
      <trkpt lat="49.88475" lon="2.16603">
        <ele>96</ele>
        <time>2022-01-12T14:23:04Z</time>
      </trkpt>
      <trkpt lat="49.88476" lon="2.16605">
        <ele>96</ele>
        <time>2022-01-12T14:23:05Z</time>
      </trkpt>
      <trkpt lat="49.88476" lon="2.16606">
        <ele>95.9</ele>
        <time>2022-01-12T14:23:06Z</time>
      </trkpt>
      <trkpt lat="49.88477" lon="2.16608">
        <ele>95.9</ele>
        <time>2022-01-12T14:23:07Z</time>
      </trkpt>
      <trkpt lat="49.88478" lon="2.1661">
        <ele>95.7</ele>
        <time>2022-01-12T14:23:09Z</time>
      </trkpt>
      <trkpt lat="49.88479" lon="2.16611">
        <ele>95.7</ele>
        <time>2022-01-12T14:23:10Z</time>
      </trkpt>
      <trkpt lat="49.88479" lon="2.16612">
        <ele>95.7</ele>
        <time>2022-01-12T14:23:11Z</time>
      </trkpt>
      <trkpt lat="49.8848" lon="2.16614">
        <ele>95.6</ele>
        <time>2022-01-12T14:23:12Z</time>
      </trkpt>
      <trkpt lat="49.88481" lon="2.16615">
        <ele>95.5</ele>
        <time>2022-01-12T14:23:13Z</time>
      </trkpt>
      <trkpt lat="49.88482" lon="2.16616">
        <ele>95.5</ele>
        <time>2022-01-12T14:23:14Z</time>
      </trkpt>
      <trkpt lat="49.88482" lon="2.16618">
        <ele>95.4</ele>
        <time>2022-01-12T14:23:15Z</time>
      </trkpt>
      <trkpt lat="49.88483" lon="2.1662">
        <ele>95.3</ele>
        <time>2022-01-12T14:23:16Z</time>
      </trkpt>
      <trkpt lat="49.88484" lon="2.16622">
        <ele>95.3</ele>
        <time>2022-01-12T14:23:17Z</time>
      </trkpt>
      <trkpt lat="49.88485" lon="2.16623">
        <ele>95.2</ele>
        <time>2022-01-12T14:23:18Z</time>
      </trkpt>
      <trkpt lat="49.88486" lon="2.16625">
        <ele>95.1</ele>
        <time>2022-01-12T14:23:19Z</time>
      </trkpt>
      <trkpt lat="49.88487" lon="2.16627">
        <ele>95</ele>
        <time>2022-01-12T14:23:20Z</time>
      </trkpt>
      <trkpt lat="49.88488" lon="2.16628">
        <ele>95</ele>
        <time>2022-01-12T14:23:22Z</time>
      </trkpt>
      <trkpt lat="49.88489" lon="2.1663">
        <ele>94.9</ele>
        <time>2022-01-12T14:23:23Z</time>
      </trkpt>
      <trkpt lat="49.8849" lon="2.16633">
        <ele>94.8</ele>
        <time>2022-01-12T14:23:24Z</time>
      </trkpt>
      <trkpt lat="49.8849" lon="2.16634">
        <ele>94.7</ele>
        <time>2022-01-12T14:23:25Z</time>
      </trkpt>
      <trkpt lat="49.88491" lon="2.16635">
        <ele>94.7</ele>
        <time>2022-01-12T14:23:26Z</time>
      </trkpt>
      <trkpt lat="49.88492" lon="2.16638">
        <ele>94.6</ele>
        <time>2022-01-12T14:23:27Z</time>
      </trkpt>
      <trkpt lat="49.88493" lon="2.16639">
        <ele>94.5</ele>
        <time>2022-01-12T14:23:28Z</time>
      </trkpt>
      <trkpt lat="49.88493" lon="2.1664">
        <ele>94.5</ele>
        <time>2022-01-12T14:23:29Z</time>
      </trkpt>
      <trkpt lat="49.88494" lon="2.16642">
        <ele>94.4</ele>
        <time>2022-01-12T14:23:30Z</time>
      </trkpt>
      <trkpt lat="49.88495" lon="2.16643">
        <ele>94.3</ele>
        <time>2022-01-12T14:23:31Z</time>
      </trkpt>
      <trkpt lat="49.88496" lon="2.16644">
        <ele>94.3</ele>
        <time>2022-01-12T14:23:32Z</time>
      </trkpt>
      <trkpt lat="49.88497" lon="2.16645">
        <ele>94.2</ele>
        <time>2022-01-12T14:23:34Z</time>
      </trkpt>
      <trkpt lat="49.88498" lon="2.16647">
        <ele>94.2</ele>
        <time>2022-01-12T14:23:35Z</time>
      </trkpt>
      <trkpt lat="49.88499" lon="2.16648">
        <ele>94.1</ele>
        <time>2022-01-12T14:23:36Z</time>
      </trkpt>
      <trkpt lat="49.88499" lon="2.16649">
        <ele>94</ele>
        <time>2022-01-12T14:23:37Z</time>
      </trkpt>
      <trkpt lat="49.885" lon="2.1665">
        <ele>94</ele>
        <time>2022-01-12T14:23:38Z</time>
      </trkpt>
      <trkpt lat="49.88502" lon="2.16653">
        <ele>93.9</ele>
        <time>2022-01-12T14:23:39Z</time>
      </trkpt>
      <trkpt lat="49.88502" lon="2.16654">
        <ele>93.8</ele>
        <time>2022-01-12T14:23:41Z</time>
      </trkpt>
      <trkpt lat="49.88503" lon="2.16656">
        <ele>93.7</ele>
        <time>2022-01-12T14:23:42Z</time>
      </trkpt>
      <trkpt lat="49.88504" lon="2.16657">
        <ele>93.7</ele>
        <time>2022-01-12T14:23:43Z</time>
      </trkpt>
      <trkpt lat="49.88504" lon="2.16659">
        <ele>93.6</ele>
        <time>2022-01-12T14:23:44Z</time>
      </trkpt>
      <trkpt lat="49.88505" lon="2.1666">
        <ele>93.6</ele>
        <time>2022-01-12T14:23:45Z</time>
      </trkpt>
      <trkpt lat="49.88505" lon="2.16662">
        <ele>93.5</ele>
        <time>2022-01-12T14:23:46Z</time>
      </trkpt>
      <trkpt lat="49.88506" lon="2.16663">
        <ele>93.5</ele>
        <time>2022-01-12T14:23:47Z</time>
      </trkpt>
      <trkpt lat="49.88506" lon="2.16665">
        <ele>93.4</ele>
        <time>2022-01-12T14:23:49Z</time>
      </trkpt>
      <trkpt lat="49.88506" lon="2.16666">
        <ele>93.4</ele>
        <time>2022-01-12T14:23:50Z</time>
      </trkpt>
      <trkpt lat="49.88507" lon="2.16667">
        <ele>93.3</ele>
        <time>2022-01-12T14:23:51Z</time>
      </trkpt>
      <trkpt lat="49.88507" lon="2.16669">
        <ele>93.3</ele>
        <time>2022-01-12T14:23:52Z</time>
      </trkpt>
      <trkpt lat="49.88507" lon="2.16669">
        <ele>93.2</ele>
        <time>2022-01-12T14:23:53Z</time>
      </trkpt>
      <trkpt lat="49.88507" lon="2.16671">
        <ele>93.2</ele>
        <time>2022-01-12T14:23:54Z</time>
      </trkpt>
      <trkpt lat="49.88507" lon="2.16673">
        <ele>93.1</ele>
        <time>2022-01-12T14:23:55Z</time>
      </trkpt>
      <trkpt lat="49.88508" lon="2.16676">
        <ele>93</ele>
        <time>2022-01-12T14:23:56Z</time>
      </trkpt>
      <trkpt lat="49.88508" lon="2.16677">
        <ele>93</ele>
        <time>2022-01-12T14:23:57Z</time>
      </trkpt>
      <trkpt lat="49.88508" lon="2.16678">
        <ele>92.9</ele>
        <time>2022-01-12T14:23:58Z</time>
      </trkpt>
      <trkpt lat="49.88509" lon="2.1668">
        <ele>92.9</ele>
        <time>2022-01-12T14:23:59Z</time>
      </trkpt>
      <trkpt lat="49.88509" lon="2.16682">
        <ele>92.8</ele>
        <time>2022-01-12T14:24:00Z</time>
      </trkpt>
      <trkpt lat="49.8851" lon="2.16683">
        <ele>92.7</ele>
        <time>2022-01-12T14:24:02Z</time>
      </trkpt>
      <trkpt lat="49.8851" lon="2.16685">
        <ele>92.7</ele>
        <time>2022-01-12T14:24:03Z</time>
      </trkpt>
      <trkpt lat="49.88511" lon="2.16687">
        <ele>92.6</ele>
        <time>2022-01-12T14:24:04Z</time>
      </trkpt>
      <trkpt lat="49.88511" lon="2.16689">
        <ele>92.5</ele>
        <time>2022-01-12T14:24:05Z</time>
      </trkpt>
      <trkpt lat="49.88512" lon="2.16691">
        <ele>92.5</ele>
        <time>2022-01-12T14:24:06Z</time>
      </trkpt>
      <trkpt lat="49.88512" lon="2.16693">
        <ele>92.4</ele>
        <time>2022-01-12T14:24:08Z</time>
      </trkpt>
      <trkpt lat="49.88513" lon="2.16695">
        <ele>92.3</ele>
        <time>2022-01-12T14:24:09Z</time>
      </trkpt>
      <trkpt lat="49.88513" lon="2.16697">
        <ele>92.3</ele>
        <time>2022-01-12T14:24:10Z</time>
      </trkpt>
      <trkpt lat="49.88514" lon="2.167">
        <ele>92.2</ele>
        <time>2022-01-12T14:24:11Z</time>
      </trkpt>
      <trkpt lat="49.88515" lon="2.16701">
        <ele>92.1</ele>
        <time>2022-01-12T14:24:12Z</time>
      </trkpt>
      <trkpt lat="49.88515" lon="2.16702">
        <ele>92.1</ele>
        <time>2022-01-12T14:24:13Z</time>
      </trkpt>
      <trkpt lat="49.88516" lon="2.16705">
        <ele>92</ele>
        <time>2022-01-12T14:24:15Z</time>
      </trkpt>
      <trkpt lat="49.88516" lon="2.16707">
        <ele>91.9</ele>
        <time>2022-01-12T14:24:16Z</time>
      </trkpt>
      <trkpt lat="49.88517" lon="2.1671">
        <ele>91.8</ele>
        <time>2022-01-12T14:24:17Z</time>
      </trkpt>
      <trkpt lat="49.88517" lon="2.16711">
        <ele>91.8</ele>
        <time>2022-01-12T14:24:18Z</time>
      </trkpt>
      <trkpt lat="49.88517" lon="2.16712">
        <ele>91.7</ele>
        <time>2022-01-12T14:24:19Z</time>
      </trkpt>
      <trkpt lat="49.88518" lon="2.16716">
        <ele>91.6</ele>
        <time>2022-01-12T14:24:21Z</time>
      </trkpt>
      <trkpt lat="49.88518" lon="2.16717">
        <ele>91.6</ele>
        <time>2022-01-12T14:24:22Z</time>
      </trkpt>
      <trkpt lat="49.88519" lon="2.16718">
        <ele>91.5</ele>
        <time>2022-01-12T14:24:23Z</time>
      </trkpt>
      <trkpt lat="49.8852" lon="2.16721">
        <ele>91.4</ele>
        <time>2022-01-12T14:24:24Z</time>
      </trkpt>
      <trkpt lat="49.8852" lon="2.16723">
        <ele>91.4</ele>
        <time>2022-01-12T14:24:25Z</time>
      </trkpt>
      <trkpt lat="49.8852" lon="2.16724">
        <ele>91.4</ele>
        <time>2022-01-12T14:24:26Z</time>
      </trkpt>
      <trkpt lat="49.88521" lon="2.16726">
        <ele>91.3</ele>
        <time>2022-01-12T14:24:27Z</time>
      </trkpt>
      <trkpt lat="49.88521" lon="2.16728">
        <ele>91.2</ele>
        <time>2022-01-12T14:24:28Z</time>
      </trkpt>
      <trkpt lat="49.88522" lon="2.16729">
        <ele>91.2</ele>
        <time>2022-01-12T14:24:29Z</time>
      </trkpt>
      <trkpt lat="49.88522" lon="2.16732">
        <ele>91.1</ele>
        <time>2022-01-12T14:24:31Z</time>
      </trkpt>
      <trkpt lat="49.88523" lon="2.16734">
        <ele>91.1</ele>
        <time>2022-01-12T14:24:32Z</time>
      </trkpt>
      <trkpt lat="49.88523" lon="2.16736">
        <ele>91</ele>
        <time>2022-01-12T14:24:33Z</time>
      </trkpt>
      <trkpt lat="49.88524" lon="2.16738">
        <ele>91</ele>
        <time>2022-01-12T14:24:34Z</time>
      </trkpt>
      <trkpt lat="49.88524" lon="2.1674">
        <ele>90.9</ele>
        <time>2022-01-12T14:24:35Z</time>
      </trkpt>
      <trkpt lat="49.88525" lon="2.16743">
        <ele>90.8</ele>
        <time>2022-01-12T14:24:36Z</time>
      </trkpt>
      <trkpt lat="49.88525" lon="2.16745">
        <ele>90.8</ele>
        <time>2022-01-12T14:24:38Z</time>
      </trkpt>
      <trkpt lat="49.88525" lon="2.16746">
        <ele>90.7</ele>
        <time>2022-01-12T14:24:39Z</time>
      </trkpt>
      <trkpt lat="49.88526" lon="2.16749">
        <ele>90.7</ele>
        <time>2022-01-12T14:24:40Z</time>
      </trkpt>
      <trkpt lat="49.88526" lon="2.1675">
        <ele>90.6</ele>
        <time>2022-01-12T14:24:41Z</time>
      </trkpt>
      <trkpt lat="49.88527" lon="2.16751">
        <ele>90.6</ele>
        <time>2022-01-12T14:24:42Z</time>
      </trkpt>
      <trkpt lat="49.88527" lon="2.16753">
        <ele>90.6</ele>
        <time>2022-01-12T14:24:43Z</time>
      </trkpt>
      <trkpt lat="49.88527" lon="2.16754">
        <ele>90.5</ele>
        <time>2022-01-12T14:24:44Z</time>
      </trkpt>
      <trkpt lat="49.88528" lon="2.16756">
        <ele>90.4</ele>
        <time>2022-01-12T14:24:45Z</time>
      </trkpt>
      <trkpt lat="49.88529" lon="2.16758">
        <ele>90.4</ele>
        <time>2022-01-12T14:24:46Z</time>
      </trkpt>
      <trkpt lat="49.88529" lon="2.1676">
        <ele>90.3</ele>
        <time>2022-01-12T14:24:47Z</time>
      </trkpt>
      <trkpt lat="49.8853" lon="2.16764">
        <ele>90.2</ele>
        <time>2022-01-12T14:24:48Z</time>
      </trkpt>
      <trkpt lat="49.8853" lon="2.16765">
        <ele>90.2</ele>
        <time>2022-01-12T14:24:50Z</time>
      </trkpt>
      <trkpt lat="49.88531" lon="2.16767">
        <ele>90.2</ele>
        <time>2022-01-12T14:24:51Z</time>
      </trkpt>
      <trkpt lat="49.88531" lon="2.16768">
        <ele>90.1</ele>
        <time>2022-01-12T14:24:52Z</time>
      </trkpt>
      <trkpt lat="49.88531" lon="2.1677">
        <ele>90.1</ele>
        <time>2022-01-12T14:24:53Z</time>
      </trkpt>
      <trkpt lat="49.88532" lon="2.16771">
        <ele>90</ele>
        <time>2022-01-12T14:24:54Z</time>
      </trkpt>
      <trkpt lat="49.88532" lon="2.16772">
        <ele>90</ele>
        <time>2022-01-12T14:24:55Z</time>
      </trkpt>
      <trkpt lat="49.88533" lon="2.16774">
        <ele>90</ele>
        <time>2022-01-12T14:24:56Z</time>
      </trkpt>
      <trkpt lat="49.88533" lon="2.16776">
        <ele>89.9</ele>
        <time>2022-01-12T14:24:57Z</time>
      </trkpt>
      <trkpt lat="49.88534" lon="2.16777">
        <ele>89.9</ele>
        <time>2022-01-12T14:24:58Z</time>
      </trkpt>
      <trkpt lat="49.88534" lon="2.16779">
        <ele>89.8</ele>
        <time>2022-01-12T14:24:59Z</time>
      </trkpt>
      <trkpt lat="49.88535" lon="2.1678">
        <ele>89.8</ele>
        <time>2022-01-12T14:25:00Z</time>
      </trkpt>
      <trkpt lat="49.88535" lon="2.16782">
        <ele>89.7</ele>
        <time>2022-01-12T14:25:02Z</time>
      </trkpt>
      <trkpt lat="49.88536" lon="2.16784">
        <ele>89.7</ele>
        <time>2022-01-12T14:25:03Z</time>
      </trkpt>
      <trkpt lat="49.88536" lon="2.16785">
        <ele>89.6</ele>
        <time>2022-01-12T14:25:04Z</time>
      </trkpt>
      <trkpt lat="49.88537" lon="2.16787">
        <ele>89.6</ele>
        <time>2022-01-12T14:25:05Z</time>
      </trkpt>
      <trkpt lat="49.88537" lon="2.16788">
        <ele>89.5</ele>
        <time>2022-01-12T14:25:06Z</time>
      </trkpt>
      <trkpt lat="49.88537" lon="2.1679">
        <ele>89.5</ele>
        <time>2022-01-12T14:25:07Z</time>
      </trkpt>
      <trkpt lat="49.88538" lon="2.16792">
        <ele>89.4</ele>
        <time>2022-01-12T14:25:08Z</time>
      </trkpt>
      <trkpt lat="49.88538" lon="2.16793">
        <ele>89.4</ele>
        <time>2022-01-12T14:25:09Z</time>
      </trkpt>
      <trkpt lat="49.88539" lon="2.16796">
        <ele>89.3</ele>
        <time>2022-01-12T14:25:10Z</time>
      </trkpt>
      <trkpt lat="49.8854" lon="2.16797">
        <ele>89.2</ele>
        <time>2022-01-12T14:25:11Z</time>
      </trkpt>
      <trkpt lat="49.8854" lon="2.16798">
        <ele>89.2</ele>
        <time>2022-01-12T14:25:12Z</time>
      </trkpt>
      <trkpt lat="49.88541" lon="2.168">
        <ele>89.1</ele>
        <time>2022-01-12T14:25:13Z</time>
      </trkpt>
      <trkpt lat="49.88541" lon="2.16801">
        <ele>89.1</ele>
        <time>2022-01-12T14:25:15Z</time>
      </trkpt>
      <trkpt lat="49.88541" lon="2.16803">
        <ele>89</ele>
        <time>2022-01-12T14:25:16Z</time>
      </trkpt>
      <trkpt lat="49.88542" lon="2.16804">
        <ele>89</ele>
        <time>2022-01-12T14:25:17Z</time>
      </trkpt>
      <trkpt lat="49.88542" lon="2.16806">
        <ele>88.9</ele>
        <time>2022-01-12T14:25:18Z</time>
      </trkpt>
      <trkpt lat="49.88542" lon="2.16807">
        <ele>88.9</ele>
        <time>2022-01-12T14:25:19Z</time>
      </trkpt>
      <trkpt lat="49.88543" lon="2.16808">
        <ele>88.8</ele>
        <time>2022-01-12T14:25:20Z</time>
      </trkpt>
      <trkpt lat="49.88543" lon="2.1681">
        <ele>88.8</ele>
        <time>2022-01-12T14:25:21Z</time>
      </trkpt>
      <trkpt lat="49.88544" lon="2.16811">
        <ele>88.7</ele>
        <time>2022-01-12T14:25:22Z</time>
      </trkpt>
      <trkpt lat="49.88544" lon="2.16812">
        <ele>88.7</ele>
        <time>2022-01-12T14:25:23Z</time>
      </trkpt>
      <trkpt lat="49.88545" lon="2.16814">
        <ele>88.6</ele>
        <time>2022-01-12T14:25:25Z</time>
      </trkpt>
      <trkpt lat="49.88545" lon="2.16816">
        <ele>88.6</ele>
        <time>2022-01-12T14:25:26Z</time>
      </trkpt>
      <trkpt lat="49.88546" lon="2.16819">
        <ele>88.5</ele>
        <time>2022-01-12T14:25:27Z</time>
      </trkpt>
      <trkpt lat="49.88546" lon="2.1682">
        <ele>88.4</ele>
        <time>2022-01-12T14:25:28Z</time>
      </trkpt>
      <trkpt lat="49.88547" lon="2.16822">
        <ele>88.4</ele>
        <time>2022-01-12T14:25:29Z</time>
      </trkpt>
      <trkpt lat="49.88547" lon="2.16823">
        <ele>88.3</ele>
        <time>2022-01-12T14:25:30Z</time>
      </trkpt>
      <trkpt lat="49.88548" lon="2.16825">
        <ele>88.2</ele>
        <time>2022-01-12T14:25:31Z</time>
      </trkpt>
      <trkpt lat="49.88549" lon="2.16826">
        <ele>88.2</ele>
        <time>2022-01-12T14:25:33Z</time>
      </trkpt>
      <trkpt lat="49.8855" lon="2.1683">
        <ele>88</ele>
        <time>2022-01-12T14:25:34Z</time>
      </trkpt>
      <trkpt lat="49.8855" lon="2.16831">
        <ele>88</ele>
        <time>2022-01-12T14:25:35Z</time>
      </trkpt>
      <trkpt lat="49.88551" lon="2.16832">
        <ele>87.9</ele>
        <time>2022-01-12T14:25:36Z</time>
      </trkpt>
      <trkpt lat="49.88552" lon="2.16834">
        <ele>87.9</ele>
        <time>2022-01-12T14:25:37Z</time>
      </trkpt>
      <trkpt lat="49.88552" lon="2.16835">
        <ele>87.8</ele>
        <time>2022-01-12T14:25:38Z</time>
      </trkpt>
      <trkpt lat="49.88553" lon="2.16837">
        <ele>87.7</ele>
        <time>2022-01-12T14:25:39Z</time>
      </trkpt>
      <trkpt lat="49.88554" lon="2.16839">
        <ele>87.7</ele>
        <time>2022-01-12T14:25:40Z</time>
      </trkpt>
      <trkpt lat="49.88555" lon="2.1684">
        <ele>87.6</ele>
        <time>2022-01-12T14:25:41Z</time>
      </trkpt>
      <trkpt lat="49.88556" lon="2.16842">
        <ele>87.6</ele>
        <time>2022-01-12T14:25:42Z</time>
      </trkpt>
      <trkpt lat="49.88557" lon="2.16844">
        <ele>87.5</ele>
        <time>2022-01-12T14:25:44Z</time>
      </trkpt>
      <trkpt lat="49.88557" lon="2.16845">
        <ele>87.4</ele>
        <time>2022-01-12T14:25:45Z</time>
      </trkpt>
      <trkpt lat="49.88558" lon="2.16846">
        <ele>87.4</ele>
        <time>2022-01-12T14:25:46Z</time>
      </trkpt>
      <trkpt lat="49.88559" lon="2.16848">
        <ele>87.3</ele>
        <time>2022-01-12T14:25:47Z</time>
      </trkpt>
      <trkpt lat="49.8856" lon="2.1685">
        <ele>87.2</ele>
        <time>2022-01-12T14:25:49Z</time>
      </trkpt>
      <trkpt lat="49.88561" lon="2.16851">
        <ele>87.2</ele>
        <time>2022-01-12T14:25:50Z</time>
      </trkpt>
      <trkpt lat="49.88561" lon="2.16853">
        <ele>87.1</ele>
        <time>2022-01-12T14:25:51Z</time>
      </trkpt>
      <trkpt lat="49.88562" lon="2.16855">
        <ele>87</ele>
        <time>2022-01-12T14:25:53Z</time>
      </trkpt>
      <trkpt lat="49.88563" lon="2.16857">
        <ele>87</ele>
        <time>2022-01-12T14:25:54Z</time>
      </trkpt>
      <trkpt lat="49.88564" lon="2.16858">
        <ele>86.9</ele>
        <time>2022-01-12T14:25:55Z</time>
      </trkpt>
      <trkpt lat="49.88564" lon="2.1686">
        <ele>86.9</ele>
        <time>2022-01-12T14:25:56Z</time>
      </trkpt>
      <trkpt lat="49.88565" lon="2.16863">
        <ele>86.8</ele>
        <time>2022-01-12T14:25:57Z</time>
      </trkpt>
      <trkpt lat="49.88566" lon="2.16865">
        <ele>86.7</ele>
        <time>2022-01-12T14:25:59Z</time>
      </trkpt>
      <trkpt lat="49.88566" lon="2.16867">
        <ele>86.6</ele>
        <time>2022-01-12T14:26:00Z</time>
      </trkpt>
      <trkpt lat="49.88566" lon="2.16869">
        <ele>86.6</ele>
        <time>2022-01-12T14:26:01Z</time>
      </trkpt>
      <trkpt lat="49.88567" lon="2.16871">
        <ele>86.5</ele>
        <time>2022-01-12T14:26:02Z</time>
      </trkpt>
      <trkpt lat="49.88567" lon="2.16873">
        <ele>86.5</ele>
        <time>2022-01-12T14:26:03Z</time>
      </trkpt>
      <trkpt lat="49.88567" lon="2.16874">
        <ele>86.4</ele>
        <time>2022-01-12T14:26:04Z</time>
      </trkpt>
      <trkpt lat="49.88568" lon="2.16877">
        <ele>86.3</ele>
        <time>2022-01-12T14:26:06Z</time>
      </trkpt>
      <trkpt lat="49.88568" lon="2.16879">
        <ele>86.3</ele>
        <time>2022-01-12T14:26:07Z</time>
      </trkpt>
      <trkpt lat="49.88569" lon="2.16881">
        <ele>86.2</ele>
        <time>2022-01-12T14:26:08Z</time>
      </trkpt>
      <trkpt lat="49.88569" lon="2.16884">
        <ele>86.2</ele>
        <time>2022-01-12T14:26:10Z</time>
      </trkpt>
      <trkpt lat="49.8857" lon="2.16887">
        <ele>86.1</ele>
        <time>2022-01-12T14:26:11Z</time>
      </trkpt>
      <trkpt lat="49.8857" lon="2.16888">
        <ele>86</ele>
        <time>2022-01-12T14:26:12Z</time>
      </trkpt>
      <trkpt lat="49.8857" lon="2.16889">
        <ele>86</ele>
        <time>2022-01-12T14:26:13Z</time>
      </trkpt>
      <trkpt lat="49.88571" lon="2.16891">
        <ele>85.9</ele>
        <time>2022-01-12T14:26:14Z</time>
      </trkpt>
      <trkpt lat="49.88571" lon="2.16893">
        <ele>85.9</ele>
        <time>2022-01-12T14:26:15Z</time>
      </trkpt>
      <trkpt lat="49.88571" lon="2.16894">
        <ele>85.8</ele>
        <time>2022-01-12T14:26:17Z</time>
      </trkpt>
      <trkpt lat="49.88572" lon="2.16896">
        <ele>85.8</ele>
        <time>2022-01-12T14:26:18Z</time>
      </trkpt>
      <trkpt lat="49.88573" lon="2.16899">
        <ele>85.7</ele>
        <time>2022-01-12T14:26:19Z</time>
      </trkpt>
      <trkpt lat="49.88573" lon="2.169">
        <ele>85.7</ele>
        <time>2022-01-12T14:26:20Z</time>
      </trkpt>
      <trkpt lat="49.88573" lon="2.16901">
        <ele>85.6</ele>
        <time>2022-01-12T14:26:21Z</time>
      </trkpt>
      <trkpt lat="49.88574" lon="2.16904">
        <ele>85.6</ele>
        <time>2022-01-12T14:26:23Z</time>
      </trkpt>
      <trkpt lat="49.88574" lon="2.16906">
        <ele>85.5</ele>
        <time>2022-01-12T14:26:24Z</time>
      </trkpt>
      <trkpt lat="49.88575" lon="2.16908">
        <ele>85.5</ele>
        <time>2022-01-12T14:26:25Z</time>
      </trkpt>
      <trkpt lat="49.88575" lon="2.16909">
        <ele>85.4</ele>
        <time>2022-01-12T14:26:26Z</time>
      </trkpt>
      <trkpt lat="49.88576" lon="2.16912">
        <ele>85.3</ele>
        <time>2022-01-12T14:26:27Z</time>
      </trkpt>
      <trkpt lat="49.88577" lon="2.16914">
        <ele>85.3</ele>
        <time>2022-01-12T14:26:28Z</time>
      </trkpt>
      <trkpt lat="49.88577" lon="2.16915">
        <ele>85.2</ele>
        <time>2022-01-12T14:26:30Z</time>
      </trkpt>
      <trkpt lat="49.88578" lon="2.16917">
        <ele>85.2</ele>
        <time>2022-01-12T14:26:31Z</time>
      </trkpt>
      <trkpt lat="49.88578" lon="2.16918">
        <ele>85.1</ele>
        <time>2022-01-12T14:26:32Z</time>
      </trkpt>
      <trkpt lat="49.88579" lon="2.16919">
        <ele>85.1</ele>
        <time>2022-01-12T14:26:33Z</time>
      </trkpt>
      <trkpt lat="49.8858" lon="2.16923">
        <ele>85</ele>
        <time>2022-01-12T14:26:34Z</time>
      </trkpt>
      <trkpt lat="49.88581" lon="2.16924">
        <ele>85</ele>
        <time>2022-01-12T14:26:36Z</time>
      </trkpt>
      <trkpt lat="49.88581" lon="2.16926">
        <ele>84.9</ele>
        <time>2022-01-12T14:26:37Z</time>
      </trkpt>
      <trkpt lat="49.88581" lon="2.16927">
        <ele>84.9</ele>
        <time>2022-01-12T14:26:38Z</time>
      </trkpt>
      <trkpt lat="49.88582" lon="2.16929">
        <ele>84.9</ele>
        <time>2022-01-12T14:26:39Z</time>
      </trkpt>
      <trkpt lat="49.88582" lon="2.1693">
        <ele>84.8</ele>
        <time>2022-01-12T14:26:40Z</time>
      </trkpt>
      <trkpt lat="49.88583" lon="2.16931">
        <ele>84.8</ele>
        <time>2022-01-12T14:26:41Z</time>
      </trkpt>
      <trkpt lat="49.88583" lon="2.16933">
        <ele>84.8</ele>
        <time>2022-01-12T14:26:42Z</time>
      </trkpt>
      <trkpt lat="49.88584" lon="2.16937">
        <ele>84.7</ele>
        <time>2022-01-12T14:26:43Z</time>
      </trkpt>
      <trkpt lat="49.88584" lon="2.16939">
        <ele>84.6</ele>
        <time>2022-01-12T14:26:45Z</time>
      </trkpt>
      <trkpt lat="49.88585" lon="2.16941">
        <ele>84.6</ele>
        <time>2022-01-12T14:26:46Z</time>
      </trkpt>
      <trkpt lat="49.88585" lon="2.16942">
        <ele>84.6</ele>
        <time>2022-01-12T14:26:47Z</time>
      </trkpt>
      <trkpt lat="49.88586" lon="2.16944">
        <ele>84.5</ele>
        <time>2022-01-12T14:26:48Z</time>
      </trkpt>
      <trkpt lat="49.88586" lon="2.16945">
        <ele>84.5</ele>
        <time>2022-01-12T14:26:49Z</time>
      </trkpt>
      <trkpt lat="49.88587" lon="2.16947">
        <ele>84.5</ele>
        <time>2022-01-12T14:26:50Z</time>
      </trkpt>
      <trkpt lat="49.88588" lon="2.1695">
        <ele>84.4</ele>
        <time>2022-01-12T14:26:52Z</time>
      </trkpt>
      <trkpt lat="49.88588" lon="2.16951">
        <ele>84.4</ele>
        <time>2022-01-12T14:26:53Z</time>
      </trkpt>
      <trkpt lat="49.88589" lon="2.16953">
        <ele>84.3</ele>
        <time>2022-01-12T14:26:54Z</time>
      </trkpt>
      <trkpt lat="49.88589" lon="2.16955">
        <ele>84.3</ele>
        <time>2022-01-12T14:26:55Z</time>
      </trkpt>
      <trkpt lat="49.8859" lon="2.16956">
        <ele>84.3</ele>
        <time>2022-01-12T14:26:56Z</time>
      </trkpt>
      <trkpt lat="49.8859" lon="2.16958">
        <ele>84.2</ele>
        <time>2022-01-12T14:26:57Z</time>
      </trkpt>
      <trkpt lat="49.88591" lon="2.1696">
        <ele>84.2</ele>
        <time>2022-01-12T14:26:59Z</time>
      </trkpt>
      <trkpt lat="49.88591" lon="2.16963">
        <ele>84.2</ele>
        <time>2022-01-12T14:27:00Z</time>
      </trkpt>
      <trkpt lat="49.88592" lon="2.16964">
        <ele>84.1</ele>
        <time>2022-01-12T14:27:01Z</time>
      </trkpt>
      <trkpt lat="49.88592" lon="2.16965">
        <ele>84.1</ele>
        <time>2022-01-12T14:27:02Z</time>
      </trkpt>
      <trkpt lat="49.88592" lon="2.16967">
        <ele>84.1</ele>
        <time>2022-01-12T14:27:03Z</time>
      </trkpt>
      <trkpt lat="49.88593" lon="2.16969">
        <ele>84</ele>
        <time>2022-01-12T14:27:04Z</time>
      </trkpt>
      <trkpt lat="49.88593" lon="2.1697">
        <ele>84</ele>
        <time>2022-01-12T14:27:05Z</time>
      </trkpt>
      <trkpt lat="49.88594" lon="2.16972">
        <ele>84</ele>
        <time>2022-01-12T14:27:06Z</time>
      </trkpt>
      <trkpt lat="49.88594" lon="2.16974">
        <ele>83.9</ele>
        <time>2022-01-12T14:27:07Z</time>
      </trkpt>
      <trkpt lat="49.88595" lon="2.16977">
        <ele>83.9</ele>
        <time>2022-01-12T14:27:09Z</time>
      </trkpt>
      <trkpt lat="49.88596" lon="2.16979">
        <ele>83.8</ele>
        <time>2022-01-12T14:27:10Z</time>
      </trkpt>
      <trkpt lat="49.88597" lon="2.1698">
        <ele>83.8</ele>
        <time>2022-01-12T14:27:11Z</time>
      </trkpt>
      <trkpt lat="49.88597" lon="2.16981">
        <ele>83.8</ele>
        <time>2022-01-12T14:27:12Z</time>
      </trkpt>
      <trkpt lat="49.88598" lon="2.16983">
        <ele>83.8</ele>
        <time>2022-01-12T14:27:13Z</time>
      </trkpt>
      <trkpt lat="49.88598" lon="2.16984">
        <ele>83.7</ele>
        <time>2022-01-12T14:27:14Z</time>
      </trkpt>
      <trkpt lat="49.88599" lon="2.16986">
        <ele>83.7</ele>
        <time>2022-01-12T14:27:16Z</time>
      </trkpt>
      <trkpt lat="49.886" lon="2.16987">
        <ele>83.7</ele>
        <time>2022-01-12T14:27:17Z</time>
      </trkpt>
      <trkpt lat="49.886" lon="2.16989">
        <ele>83.6</ele>
        <time>2022-01-12T14:27:18Z</time>
      </trkpt>
      <trkpt lat="49.88601" lon="2.16992">
        <ele>83.6</ele>
        <time>2022-01-12T14:27:19Z</time>
      </trkpt>
      <trkpt lat="49.88602" lon="2.16993">
        <ele>83.5</ele>
        <time>2022-01-12T14:27:20Z</time>
      </trkpt>
      <trkpt lat="49.88602" lon="2.16995">
        <ele>83.5</ele>
        <time>2022-01-12T14:27:21Z</time>
      </trkpt>
      <trkpt lat="49.88603" lon="2.16996">
        <ele>83.5</ele>
        <time>2022-01-12T14:27:22Z</time>
      </trkpt>
      <trkpt lat="49.88604" lon="2.16998">
        <ele>83.5</ele>
        <time>2022-01-12T14:27:23Z</time>
      </trkpt>
      <trkpt lat="49.88604" lon="2.16999">
        <ele>83.4</ele>
        <time>2022-01-12T14:27:24Z</time>
      </trkpt>
      <trkpt lat="49.88605" lon="2.17002">
        <ele>83.4</ele>
        <time>2022-01-12T14:27:25Z</time>
      </trkpt>
      <trkpt lat="49.88606" lon="2.17003">
        <ele>83.4</ele>
        <time>2022-01-12T14:27:27Z</time>
      </trkpt>
      <trkpt lat="49.88607" lon="2.17004">
        <ele>83.3</ele>
        <time>2022-01-12T14:27:28Z</time>
      </trkpt>
      <trkpt lat="49.88607" lon="2.17006">
        <ele>83.3</ele>
        <time>2022-01-12T14:27:29Z</time>
      </trkpt>
      <trkpt lat="49.88608" lon="2.17008">
        <ele>83.3</ele>
        <time>2022-01-12T14:27:30Z</time>
      </trkpt>
      <trkpt lat="49.88609" lon="2.17009">
        <ele>83.2</ele>
        <time>2022-01-12T14:27:32Z</time>
      </trkpt>
      <trkpt lat="49.8861" lon="2.1701">
        <ele>83.2</ele>
        <time>2022-01-12T14:27:33Z</time>
      </trkpt>
      <trkpt lat="49.88611" lon="2.17011">
        <ele>83.2</ele>
        <time>2022-01-12T14:27:34Z</time>
      </trkpt>
      <trkpt lat="49.88612" lon="2.17011">
        <ele>83.2</ele>
        <time>2022-01-12T14:27:35Z</time>
      </trkpt>
      <trkpt lat="49.88614" lon="2.17012">
        <ele>83.2</ele>
        <time>2022-01-12T14:27:36Z</time>
      </trkpt>
      <trkpt lat="49.88614" lon="2.17013">
        <ele>83.1</ele>
        <time>2022-01-12T14:27:37Z</time>
      </trkpt>
      <trkpt lat="49.88615" lon="2.17014">
        <ele>83.1</ele>
        <time>2022-01-12T14:27:38Z</time>
      </trkpt>
      <trkpt lat="49.88616" lon="2.17018">
        <ele>83.1</ele>
        <time>2022-01-12T14:27:39Z</time>
      </trkpt>
      <trkpt lat="49.88616" lon="2.17019">
        <ele>83.1</ele>
        <time>2022-01-12T14:27:41Z</time>
      </trkpt>
      <trkpt lat="49.88617" lon="2.17021">
        <ele>83</ele>
        <time>2022-01-12T14:27:42Z</time>
      </trkpt>
      <trkpt lat="49.88617" lon="2.17022">
        <ele>83</ele>
        <time>2022-01-12T14:27:43Z</time>
      </trkpt>
      <trkpt lat="49.88617" lon="2.17024">
        <ele>83</ele>
        <time>2022-01-12T14:27:44Z</time>
      </trkpt>
      <trkpt lat="49.88617" lon="2.17025">
        <ele>83</ele>
        <time>2022-01-12T14:27:45Z</time>
      </trkpt>
      <trkpt lat="49.88617" lon="2.17027">
        <ele>83</ele>
        <time>2022-01-12T14:27:46Z</time>
      </trkpt>
      <trkpt lat="49.88617" lon="2.17029">
        <ele>82.9</ele>
        <time>2022-01-12T14:27:47Z</time>
      </trkpt>
      <trkpt lat="49.88617" lon="2.17031">
        <ele>82.9</ele>
        <time>2022-01-12T14:27:48Z</time>
      </trkpt>
      <trkpt lat="49.88616" lon="2.17032">
        <ele>82.9</ele>
        <time>2022-01-12T14:27:49Z</time>
      </trkpt>
      <trkpt lat="49.88615" lon="2.17033">
        <ele>82.9</ele>
        <time>2022-01-12T14:27:50Z</time>
      </trkpt>
      <trkpt lat="49.88614" lon="2.17035">
        <ele>82.8</ele>
        <time>2022-01-12T14:27:52Z</time>
      </trkpt>
      <trkpt lat="49.88614" lon="2.17036">
        <ele>82.8</ele>
        <time>2022-01-12T14:27:53Z</time>
      </trkpt>
      <trkpt lat="49.88615" lon="2.17038">
        <ele>82.8</ele>
        <time>2022-01-12T14:27:54Z</time>
      </trkpt>
      <trkpt lat="49.88615" lon="2.17039">
        <ele>82.8</ele>
        <time>2022-01-12T14:27:55Z</time>
      </trkpt>
      <trkpt lat="49.88616" lon="2.17041">
        <ele>82.8</ele>
        <time>2022-01-12T14:27:56Z</time>
      </trkpt>
      <trkpt lat="49.88617" lon="2.17043">
        <ele>82.7</ele>
        <time>2022-01-12T14:27:58Z</time>
      </trkpt>
      <trkpt lat="49.88617" lon="2.17044">
        <ele>82.7</ele>
        <time>2022-01-12T14:27:59Z</time>
      </trkpt>
      <trkpt lat="49.88618" lon="2.17045">
        <ele>82.7</ele>
        <time>2022-01-12T14:28:00Z</time>
      </trkpt>
      <trkpt lat="49.88618" lon="2.17047">
        <ele>82.7</ele>
        <time>2022-01-12T14:28:01Z</time>
      </trkpt>
      <trkpt lat="49.88619" lon="2.17048">
        <ele>82.7</ele>
        <time>2022-01-12T14:28:02Z</time>
      </trkpt>
      <trkpt lat="49.88619" lon="2.1705">
        <ele>82.6</ele>
        <time>2022-01-12T14:28:03Z</time>
      </trkpt>
      <trkpt lat="49.8862" lon="2.17051">
        <ele>82.6</ele>
        <time>2022-01-12T14:28:04Z</time>
      </trkpt>
      <trkpt lat="49.8862" lon="2.17052">
        <ele>82.6</ele>
        <time>2022-01-12T14:28:05Z</time>
      </trkpt>
      <trkpt lat="49.88621" lon="2.17053">
        <ele>82.6</ele>
        <time>2022-01-12T14:28:07Z</time>
      </trkpt>
      <trkpt lat="49.88622" lon="2.17054">
        <ele>82.6</ele>
        <time>2022-01-12T14:28:08Z</time>
      </trkpt>
      <trkpt lat="49.88622" lon="2.17055">
        <ele>82.5</ele>
        <time>2022-01-12T14:28:09Z</time>
      </trkpt>
      <trkpt lat="49.88623" lon="2.17056">
        <ele>82.5</ele>
        <time>2022-01-12T14:28:10Z</time>
      </trkpt>
      <trkpt lat="49.88624" lon="2.17057">
        <ele>82.5</ele>
        <time>2022-01-12T14:28:11Z</time>
      </trkpt>
      <trkpt lat="49.88624" lon="2.17059">
        <ele>82.5</ele>
        <time>2022-01-12T14:28:13Z</time>
      </trkpt>
      <trkpt lat="49.88625" lon="2.1706">
        <ele>82.5</ele>
        <time>2022-01-12T14:28:14Z</time>
      </trkpt>
      <trkpt lat="49.88626" lon="2.17061">
        <ele>82.4</ele>
        <time>2022-01-12T14:28:15Z</time>
      </trkpt>
      <trkpt lat="49.88626" lon="2.17062">
        <ele>82.4</ele>
        <time>2022-01-12T14:28:16Z</time>
      </trkpt>
      <trkpt lat="49.88627" lon="2.17064">
        <ele>82.4</ele>
        <time>2022-01-12T14:28:17Z</time>
      </trkpt>
      <trkpt lat="49.88628" lon="2.17065">
        <ele>82.4</ele>
        <time>2022-01-12T14:28:18Z</time>
      </trkpt>
      <trkpt lat="49.88629" lon="2.17066">
        <ele>82.3</ele>
        <time>2022-01-12T14:28:20Z</time>
      </trkpt>
      <trkpt lat="49.8863" lon="2.17067">
        <ele>82.3</ele>
        <time>2022-01-12T14:28:21Z</time>
      </trkpt>
      <trkpt lat="49.88631" lon="2.17068">
        <ele>82.3</ele>
        <time>2022-01-12T14:28:22Z</time>
      </trkpt>
      <trkpt lat="49.88631" lon="2.17069">
        <ele>82.3</ele>
        <time>2022-01-12T14:28:23Z</time>
      </trkpt>
      <trkpt lat="49.88632" lon="2.1707">
        <ele>82.2</ele>
        <time>2022-01-12T14:28:24Z</time>
      </trkpt>
      <trkpt lat="49.88633" lon="2.17072">
        <ele>82.2</ele>
        <time>2022-01-12T14:28:25Z</time>
      </trkpt>
      <trkpt lat="49.88633" lon="2.17073">
        <ele>82.2</ele>
        <time>2022-01-12T14:28:27Z</time>
      </trkpt>
      <trkpt lat="49.88634" lon="2.17074">
        <ele>82.2</ele>
        <time>2022-01-12T14:28:28Z</time>
      </trkpt>
      <trkpt lat="49.88635" lon="2.17075">
        <ele>82.2</ele>
        <time>2022-01-12T14:28:29Z</time>
      </trkpt>
      <trkpt lat="49.88636" lon="2.17075">
        <ele>82.1</ele>
        <time>2022-01-12T14:28:30Z</time>
      </trkpt>
      <trkpt lat="49.88636" lon="2.17075">
        <ele>82.1</ele>
        <time>2022-01-12T14:28:31Z</time>
      </trkpt>
      <trkpt lat="49.88637" lon="2.17077">
        <ele>82.1</ele>
        <time>2022-01-12T14:28:33Z</time>
      </trkpt>
      <trkpt lat="49.88637" lon="2.17078">
        <ele>82.1</ele>
        <time>2022-01-12T14:28:34Z</time>
      </trkpt>
      <trkpt lat="49.88638" lon="2.17079">
        <ele>82.1</ele>
        <time>2022-01-12T14:28:35Z</time>
      </trkpt>
      <trkpt lat="49.88638" lon="2.17081">
        <ele>82</ele>
        <time>2022-01-12T14:28:36Z</time>
      </trkpt>
      <trkpt lat="49.88638" lon="2.17083">
        <ele>82</ele>
        <time>2022-01-12T14:28:37Z</time>
      </trkpt>
      <trkpt lat="49.88639" lon="2.17085">
        <ele>82</ele>
        <time>2022-01-12T14:28:38Z</time>
      </trkpt>
      <trkpt lat="49.88639" lon="2.17086">
        <ele>82</ele>
        <time>2022-01-12T14:28:40Z</time>
      </trkpt>
      <trkpt lat="49.88639" lon="2.17088">
        <ele>82</ele>
        <time>2022-01-12T14:28:41Z</time>
      </trkpt>
      <trkpt lat="49.8864" lon="2.17089">
        <ele>81.9</ele>
        <time>2022-01-12T14:28:42Z</time>
      </trkpt>
      <trkpt lat="49.8864" lon="2.1709">
        <ele>81.9</ele>
        <time>2022-01-12T14:28:43Z</time>
      </trkpt>
      <trkpt lat="49.8864" lon="2.17091">
        <ele>81.9</ele>
        <time>2022-01-12T14:28:44Z</time>
      </trkpt>
      <trkpt lat="49.88641" lon="2.17092">
        <ele>81.9</ele>
        <time>2022-01-12T14:28:45Z</time>
      </trkpt>
      <trkpt lat="49.88641" lon="2.17093">
        <ele>81.9</ele>
        <time>2022-01-12T14:28:47Z</time>
      </trkpt>
      <trkpt lat="49.88642" lon="2.17095">
        <ele>81.9</ele>
        <time>2022-01-12T14:28:48Z</time>
      </trkpt>
      <trkpt lat="49.88642" lon="2.17096">
        <ele>81.8</ele>
        <time>2022-01-12T14:28:49Z</time>
      </trkpt>
      <trkpt lat="49.88643" lon="2.17096">
        <ele>81.8</ele>
        <time>2022-01-12T14:28:50Z</time>
      </trkpt>
      <trkpt lat="49.88643" lon="2.17098">
        <ele>81.8</ele>
        <time>2022-01-12T14:28:51Z</time>
      </trkpt>
      <trkpt lat="49.88644" lon="2.17099">
        <ele>81.8</ele>
        <time>2022-01-12T14:28:52Z</time>
      </trkpt>
      <trkpt lat="49.88644" lon="2.171">
        <ele>81.8</ele>
        <time>2022-01-12T14:28:54Z</time>
      </trkpt>
      <trkpt lat="49.88645" lon="2.17101">
        <ele>81.8</ele>
        <time>2022-01-12T14:28:55Z</time>
      </trkpt>
      <trkpt lat="49.88645" lon="2.17102">
        <ele>81.7</ele>
        <time>2022-01-12T14:28:56Z</time>
      </trkpt>
      <trkpt lat="49.88646" lon="2.17103">
        <ele>81.7</ele>
        <time>2022-01-12T14:28:57Z</time>
      </trkpt>
      <trkpt lat="49.88647" lon="2.17104">
        <ele>81.7</ele>
        <time>2022-01-12T14:28:58Z</time>
      </trkpt>
      <trkpt lat="49.88647" lon="2.17105">
        <ele>81.7</ele>
        <time>2022-01-12T14:29:00Z</time>
      </trkpt>
      <trkpt lat="49.88648" lon="2.17107">
        <ele>81.7</ele>
        <time>2022-01-12T14:29:01Z</time>
      </trkpt>
      <trkpt lat="49.88647" lon="2.17108">
        <ele>81.7</ele>
        <time>2022-01-12T14:29:03Z</time>
      </trkpt>
      <trkpt lat="49.88648" lon="2.17109">
        <ele>81.6</ele>
        <time>2022-01-12T14:29:04Z</time>
      </trkpt>
      <trkpt lat="49.88648" lon="2.17111">
        <ele>81.6</ele>
        <time>2022-01-12T14:29:06Z</time>
      </trkpt>
      <trkpt lat="49.88648" lon="2.17111">
        <ele>81.6</ele>
        <time>2022-01-12T14:29:07Z</time>
      </trkpt>
      <trkpt lat="49.88649" lon="2.17111">
        <ele>81.6</ele>
        <time>2022-01-12T14:29:09Z</time>
      </trkpt>
      <trkpt lat="49.8865" lon="2.1711">
        <ele>81.6</ele>
        <time>2022-01-12T14:29:10Z</time>
      </trkpt>
      <trkpt lat="49.8865" lon="2.17111">
        <ele>81.6</ele>
        <time>2022-01-12T14:29:12Z</time>
      </trkpt>
      <trkpt lat="49.8865" lon="2.17112">
        <ele>81.6</ele>
        <time>2022-01-12T14:29:13Z</time>
      </trkpt>
      <trkpt lat="49.88651" lon="2.17113">
        <ele>81.6</ele>
        <time>2022-01-12T14:29:14Z</time>
      </trkpt>
      <trkpt lat="49.88652" lon="2.17113">
        <ele>81.5</ele>
        <time>2022-01-12T14:29:15Z</time>
      </trkpt>
      <trkpt lat="49.88652" lon="2.17114">
        <ele>81.5</ele>
        <time>2022-01-12T14:29:16Z</time>
      </trkpt>
      <trkpt lat="49.88653" lon="2.17115">
        <ele>81.5</ele>
        <time>2022-01-12T14:29:18Z</time>
      </trkpt>
      <trkpt lat="49.88653" lon="2.17117">
        <ele>81.5</ele>
        <time>2022-01-12T14:29:20Z</time>
      </trkpt>
      <trkpt lat="49.88654" lon="2.17118">
        <ele>81.5</ele>
        <time>2022-01-12T14:29:21Z</time>
      </trkpt>
      <trkpt lat="49.88654" lon="2.17119">
        <ele>81.5</ele>
        <time>2022-01-12T14:29:22Z</time>
      </trkpt>
      <trkpt lat="49.88654" lon="2.17121">
        <ele>81.4</ele>
        <time>2022-01-12T14:29:23Z</time>
      </trkpt>
      <trkpt lat="49.88654" lon="2.17123">
        <ele>81.4</ele>
        <time>2022-01-12T14:29:25Z</time>
      </trkpt>
      <trkpt lat="49.88654" lon="2.17124">
        <ele>81.4</ele>
        <time>2022-01-12T14:29:26Z</time>
      </trkpt>
      <trkpt lat="49.88656" lon="2.17125">
        <ele>81.4</ele>
        <time>2022-01-12T14:29:28Z</time>
      </trkpt>
      <trkpt lat="49.88657" lon="2.17126">
        <ele>81.4</ele>
        <time>2022-01-12T14:29:30Z</time>
      </trkpt>
      <trkpt lat="49.88658" lon="2.17127">
        <ele>81.3</ele>
        <time>2022-01-12T14:29:31Z</time>
      </trkpt>
      <trkpt lat="49.88658" lon="2.17128">
        <ele>81.3</ele>
        <time>2022-01-12T14:29:32Z</time>
      </trkpt>
      <trkpt lat="49.88659" lon="2.17129">
        <ele>81.3</ele>
        <time>2022-01-12T14:29:33Z</time>
      </trkpt>
      <trkpt lat="49.8866" lon="2.17129">
        <ele>81.3</ele>
        <time>2022-01-12T14:29:34Z</time>
      </trkpt>
      <trkpt lat="49.8866" lon="2.1713">
        <ele>81.2</ele>
        <time>2022-01-12T14:29:35Z</time>
      </trkpt>
      <trkpt lat="49.88661" lon="2.17131">
        <ele>81.2</ele>
        <time>2022-01-12T14:29:36Z</time>
      </trkpt>
      <trkpt lat="49.88661" lon="2.17132">
        <ele>81.2</ele>
        <time>2022-01-12T14:29:38Z</time>
      </trkpt>
      <trkpt lat="49.88662" lon="2.17133">
        <ele>81.2</ele>
        <time>2022-01-12T14:29:39Z</time>
      </trkpt>
      <trkpt lat="49.88662" lon="2.17134">
        <ele>81.2</ele>
        <time>2022-01-12T14:29:40Z</time>
      </trkpt>
      <trkpt lat="49.88663" lon="2.17135">
        <ele>81.1</ele>
        <time>2022-01-12T14:29:41Z</time>
      </trkpt>
      <trkpt lat="49.88664" lon="2.17136">
        <ele>81.1</ele>
        <time>2022-01-12T14:29:42Z</time>
      </trkpt>
      <trkpt lat="49.88665" lon="2.17138">
        <ele>81.1</ele>
        <time>2022-01-12T14:29:43Z</time>
      </trkpt>
      <trkpt lat="49.88666" lon="2.17138">
        <ele>81</ele>
        <time>2022-01-12T14:29:45Z</time>
      </trkpt>
      <trkpt lat="49.88667" lon="2.17139">
        <ele>81</ele>
        <time>2022-01-12T14:29:46Z</time>
      </trkpt>
      <trkpt lat="49.88667" lon="2.17139">
        <ele>81</ele>
        <time>2022-01-12T14:29:47Z</time>
      </trkpt>
      <trkpt lat="49.88668" lon="2.1714">
        <ele>81</ele>
        <time>2022-01-12T14:29:48Z</time>
      </trkpt>
      <trkpt lat="49.88669" lon="2.17141">
        <ele>81</ele>
        <time>2022-01-12T14:29:49Z</time>
      </trkpt>
      <trkpt lat="49.88669" lon="2.17142">
        <ele>80.9</ele>
        <time>2022-01-12T14:29:50Z</time>
      </trkpt>
      <trkpt lat="49.8867" lon="2.17143">
        <ele>80.9</ele>
        <time>2022-01-12T14:29:52Z</time>
      </trkpt>
      <trkpt lat="49.88671" lon="2.17144">
        <ele>80.9</ele>
        <time>2022-01-12T14:29:53Z</time>
      </trkpt>
      <trkpt lat="49.88672" lon="2.17145">
        <ele>80.9</ele>
        <time>2022-01-12T14:29:54Z</time>
      </trkpt>
      <trkpt lat="49.88673" lon="2.17146">
        <ele>80.8</ele>
        <time>2022-01-12T14:29:55Z</time>
      </trkpt>
      <trkpt lat="49.88674" lon="2.17147">
        <ele>80.8</ele>
        <time>2022-01-12T14:29:56Z</time>
      </trkpt>
      <trkpt lat="49.88675" lon="2.17148">
        <ele>80.8</ele>
        <time>2022-01-12T14:29:57Z</time>
      </trkpt>
      <trkpt lat="49.88675" lon="2.17149">
        <ele>80.8</ele>
        <time>2022-01-12T14:29:59Z</time>
      </trkpt>
      <trkpt lat="49.88676" lon="2.1715">
        <ele>80.7</ele>
        <time>2022-01-12T14:30:00Z</time>
      </trkpt>
      <trkpt lat="49.88677" lon="2.17149">
        <ele>80.7</ele>
        <time>2022-01-12T14:30:01Z</time>
      </trkpt>
      <trkpt lat="49.88679" lon="2.17149">
        <ele>80.7</ele>
        <time>2022-01-12T14:30:03Z</time>
      </trkpt>
      <trkpt lat="49.8868" lon="2.17149">
        <ele>80.7</ele>
        <time>2022-01-12T14:30:04Z</time>
      </trkpt>
      <trkpt lat="49.8868" lon="2.17149">
        <ele>80.7</ele>
        <time>2022-01-12T14:30:05Z</time>
      </trkpt>
      <trkpt lat="49.88681" lon="2.1715">
        <ele>80.6</ele>
        <time>2022-01-12T14:30:06Z</time>
      </trkpt>
      <trkpt lat="49.88682" lon="2.17152">
        <ele>80.6</ele>
        <time>2022-01-12T14:30:08Z</time>
      </trkpt>
      <trkpt lat="49.88682" lon="2.17153">
        <ele>80.6</ele>
        <time>2022-01-12T14:30:09Z</time>
      </trkpt>
      <trkpt lat="49.88681" lon="2.17154">
        <ele>80.6</ele>
        <time>2022-01-12T14:30:11Z</time>
      </trkpt>
      <trkpt lat="49.8868" lon="2.17155">
        <ele>80.6</ele>
        <time>2022-01-12T14:30:13Z</time>
      </trkpt>
      <trkpt lat="49.88679" lon="2.17156">
        <ele>80.5</ele>
        <time>2022-01-12T14:30:15Z</time>
      </trkpt>
      <trkpt lat="49.88679" lon="2.17156">
        <ele>80.5</ele>
        <time>2022-01-12T14:30:16Z</time>
      </trkpt>
      <trkpt lat="49.88679" lon="2.17156">
        <ele>80.5</ele>
        <time>2022-01-12T14:30:17Z</time>
      </trkpt>
      <trkpt lat="49.88678" lon="2.17156">
        <ele>80.5</ele>
        <time>2022-01-12T14:30:19Z</time>
      </trkpt>
      <trkpt lat="49.88678" lon="2.17157">
        <ele>80.5</ele>
        <time>2022-01-12T14:30:20Z</time>
      </trkpt>
      <trkpt lat="49.88678" lon="2.17158">
        <ele>80.5</ele>
        <time>2022-01-12T14:30:21Z</time>
      </trkpt>
      <trkpt lat="49.88678" lon="2.17158">
        <ele>80.5</ele>
        <time>2022-01-12T14:30:22Z</time>
      </trkpt>
      <trkpt lat="49.88679" lon="2.1716">
        <ele>80.5</ele>
        <time>2022-01-12T14:30:24Z</time>
      </trkpt>
      <trkpt lat="49.8868" lon="2.17161">
        <ele>80.5</ele>
        <time>2022-01-12T14:30:25Z</time>
      </trkpt>
      <trkpt lat="49.88681" lon="2.17162">
        <ele>80.4</ele>
        <time>2022-01-12T14:30:27Z</time>
      </trkpt>
      <trkpt lat="49.88682" lon="2.17163">
        <ele>80.4</ele>
        <time>2022-01-12T14:30:28Z</time>
      </trkpt>
      <trkpt lat="49.88682" lon="2.17164">
        <ele>80.4</ele>
        <time>2022-01-12T14:30:29Z</time>
      </trkpt>
      <trkpt lat="49.88683" lon="2.17164">
        <ele>80.4</ele>
        <time>2022-01-12T14:30:31Z</time>
      </trkpt>
      <trkpt lat="49.88684" lon="2.17165">
        <ele>80.4</ele>
        <time>2022-01-12T14:30:32Z</time>
      </trkpt>
      <trkpt lat="49.88685" lon="2.17166">
        <ele>80.4</ele>
        <time>2022-01-12T14:30:33Z</time>
      </trkpt>
      <trkpt lat="49.88686" lon="2.17166">
        <ele>80.4</ele>
        <time>2022-01-12T14:30:35Z</time>
      </trkpt>
      <trkpt lat="49.88687" lon="2.17167">
        <ele>80.3</ele>
        <time>2022-01-12T14:30:36Z</time>
      </trkpt>
      <trkpt lat="49.88688" lon="2.17169">
        <ele>80.3</ele>
        <time>2022-01-12T14:30:38Z</time>
      </trkpt>
      <trkpt lat="49.88688" lon="2.17169">
        <ele>80.3</ele>
        <time>2022-01-12T14:30:39Z</time>
      </trkpt>
      <trkpt lat="49.88689" lon="2.1717">
        <ele>80.3</ele>
        <time>2022-01-12T14:30:40Z</time>
      </trkpt>
      <trkpt lat="49.8869" lon="2.17171">
        <ele>80.3</ele>
        <time>2022-01-12T14:30:42Z</time>
      </trkpt>
      <trkpt lat="49.88691" lon="2.17172">
        <ele>80.3</ele>
        <time>2022-01-12T14:30:43Z</time>
      </trkpt>
      <trkpt lat="49.88691" lon="2.17174">
        <ele>80.3</ele>
        <time>2022-01-12T14:30:45Z</time>
      </trkpt>
      <trkpt lat="49.88691" lon="2.17174">
        <ele>80.3</ele>
        <time>2022-01-12T14:30:46Z</time>
      </trkpt>
      <trkpt lat="49.88691" lon="2.17174">
        <ele>80.3</ele>
        <time>2022-01-12T14:30:47Z</time>
      </trkpt>
      <trkpt lat="49.88691" lon="2.17175">
        <ele>80.3</ele>
        <time>2022-01-12T14:30:48Z</time>
      </trkpt>
      <trkpt lat="49.88691" lon="2.17174">
        <ele>80.2</ele>
        <time>2022-01-12T14:30:50Z</time>
      </trkpt>
      <trkpt lat="49.8869" lon="2.17174">
        <ele>80.2</ele>
        <time>2022-01-12T14:30:51Z</time>
      </trkpt>
      <trkpt lat="49.8869" lon="2.17174">
        <ele>80.2</ele>
        <time>2022-01-12T14:30:53Z</time>
      </trkpt>
      <trkpt lat="49.8869" lon="2.17174">
        <ele>80.2</ele>
        <time>2022-01-12T14:30:55Z</time>
      </trkpt>
      <trkpt lat="49.8869" lon="2.17174">
        <ele>80.2</ele>
        <time>2022-01-12T14:30:57Z</time>
      </trkpt>
      <trkpt lat="49.8869" lon="2.17174">
        <ele>80.2</ele>
        <time>2022-01-12T14:30:58Z</time>
      </trkpt>
      <trkpt lat="49.8869" lon="2.17174">
        <ele>80.2</ele>
        <time>2022-01-12T14:31:00Z</time>
      </trkpt>
      <trkpt lat="49.8869" lon="2.17173">
        <ele>80.2</ele>
        <time>2022-01-12T14:31:01Z</time>
      </trkpt>
      <trkpt lat="49.88688" lon="2.17173">
        <ele>80.2</ele>
        <time>2022-01-12T14:31:03Z</time>
      </trkpt>
      <trkpt lat="49.88688" lon="2.17174">
        <ele>80.2</ele>
        <time>2022-01-12T14:31:04Z</time>
      </trkpt>
      <trkpt lat="49.88689" lon="2.17174">
        <ele>80.2</ele>
        <time>2022-01-12T14:31:06Z</time>
      </trkpt>
      <trkpt lat="49.8869" lon="2.17174">
        <ele>80.2</ele>
        <time>2022-01-12T14:31:07Z</time>
      </trkpt>
      <trkpt lat="49.8869" lon="2.17173">
        <ele>80.2</ele>
        <time>2022-01-12T14:31:09Z</time>
      </trkpt>
      <trkpt lat="49.8869" lon="2.17173">
        <ele>80.2</ele>
        <time>2022-01-12T14:31:11Z</time>
      </trkpt>
      <trkpt lat="49.8869" lon="2.17173">
        <ele>80.2</ele>
        <time>2022-01-12T14:31:13Z</time>
      </trkpt>
      <trkpt lat="49.8869" lon="2.17173">
        <ele>80.2</ele>
        <time>2022-01-12T14:31:15Z</time>
      </trkpt>
      <trkpt lat="49.8869" lon="2.17173">
        <ele>80.2</ele>
        <time>2022-01-12T14:31:17Z</time>
      </trkpt>
      <trkpt lat="49.8869" lon="2.17173">
        <ele>80.2</ele>
        <time>2022-01-12T14:31:19Z</time>
      </trkpt>
      <trkpt lat="49.8869" lon="2.17173">
        <ele>80.2</ele>
        <time>2022-01-12T14:31:21Z</time>
      </trkpt>
      <trkpt lat="49.8869" lon="2.17173">
        <ele>80.2</ele>
        <time>2022-01-12T14:31:23Z</time>
      </trkpt>
      <trkpt lat="49.8869" lon="2.17173">
        <ele>80.2</ele>
        <time>2022-01-12T14:31:25Z</time>
      </trkpt>
      <trkpt lat="49.8869" lon="2.17173">
        <ele>80.2</ele>
        <time>2022-01-12T14:31:26Z</time>
      </trkpt>
      <trkpt lat="49.8869" lon="2.17173">
        <ele>80.2</ele>
        <time>2022-01-12T14:31:28Z</time>
      </trkpt>
      <trkpt lat="49.8869" lon="2.17173">
        <ele>80.2</ele>
        <time>2022-01-12T14:31:29Z</time>
      </trkpt>
      <trkpt lat="49.8869" lon="2.17173">
        <ele>80.2</ele>
        <time>2022-01-12T14:31:30Z</time>
      </trkpt>
      <trkpt lat="49.8869" lon="2.17173">
        <ele>80.2</ele>
        <time>2022-01-12T14:31:32Z</time>
      </trkpt>
      <trkpt lat="49.8869" lon="2.17173">
        <ele>80.2</ele>
        <time>2022-01-12T14:31:33Z</time>
      </trkpt>
      <trkpt lat="49.8869" lon="2.17173">
        <ele>80.2</ele>
        <time>2022-01-12T14:31:35Z</time>
      </trkpt>
      <trkpt lat="49.8869" lon="2.17173">
        <ele>80.2</ele>
        <time>2022-01-12T14:31:37Z</time>
      </trkpt>
      <trkpt lat="49.8869" lon="2.17173">
        <ele>80.2</ele>
        <time>2022-01-12T14:31:39Z</time>
      </trkpt>
      <trkpt lat="49.8869" lon="2.17173">
        <ele>80.2</ele>
        <time>2022-01-12T14:31:40Z</time>
      </trkpt>
      <trkpt lat="49.8869" lon="2.17173">
        <ele>80.2</ele>
        <time>2022-01-12T14:31:41Z</time>
      </trkpt>
      <trkpt lat="49.8869" lon="2.17173">
        <ele>80.2</ele>
        <time>2022-01-12T14:31:43Z</time>
      </trkpt>
      <trkpt lat="49.8869" lon="2.17173">
        <ele>80.2</ele>
        <time>2022-01-12T14:31:44Z</time>
      </trkpt>
      <trkpt lat="49.8869" lon="2.17173">
        <ele>80.2</ele>
        <time>2022-01-12T14:31:46Z</time>
      </trkpt>
      <trkpt lat="49.8869" lon="2.17173">
        <ele>80.2</ele>
        <time>2022-01-12T14:31:48Z</time>
      </trkpt>
      <trkpt lat="49.8869" lon="2.17173">
        <ele>80.2</ele>
        <time>2022-01-12T14:31:49Z</time>
      </trkpt>
      <trkpt lat="49.8869" lon="2.17173">
        <ele>80.2</ele>
        <time>2022-01-12T14:31:50Z</time>
      </trkpt>
      <trkpt lat="49.8869" lon="2.17173">
        <ele>80.2</ele>
        <time>2022-01-12T14:31:52Z</time>
      </trkpt>
      <trkpt lat="49.8869" lon="2.17173">
        <ele>80.2</ele>
        <time>2022-01-12T14:31:53Z</time>
      </trkpt>
      <trkpt lat="49.8869" lon="2.17173">
        <ele>80.2</ele>
        <time>2022-01-12T14:31:55Z</time>
      </trkpt>
      <trkpt lat="49.8869" lon="2.17173">
        <ele>80.2</ele>
        <time>2022-01-12T14:31:57Z</time>
      </trkpt>
      <trkpt lat="49.8869" lon="2.17173">
        <ele>80.2</ele>
        <time>2022-01-12T14:31:59Z</time>
      </trkpt>
      <trkpt lat="49.8869" lon="2.17173">
        <ele>80.2</ele>
        <time>2022-01-12T14:32:01Z</time>
      </trkpt>
      <trkpt lat="49.8869" lon="2.17173">
        <ele>80.2</ele>
        <time>2022-01-12T14:32:03Z</time>
      </trkpt>
      <trkpt lat="49.8869" lon="2.17173">
        <ele>80.2</ele>
        <time>2022-01-12T14:32:04Z</time>
      </trkpt>
      <trkpt lat="49.8869" lon="2.17173">
        <ele>80.2</ele>
        <time>2022-01-12T14:32:06Z</time>
      </trkpt>
      <trkpt lat="49.88689" lon="2.17174">
        <ele>80.2</ele>
        <time>2022-01-12T14:32:07Z</time>
      </trkpt>
      <trkpt lat="49.88689" lon="2.17175">
        <ele>80.2</ele>
        <time>2022-01-12T14:32:08Z</time>
      </trkpt>
      <trkpt lat="49.88688" lon="2.17176">
        <ele>80.1</ele>
        <time>2022-01-12T14:32:09Z</time>
      </trkpt>
      <trkpt lat="49.88688" lon="2.17176">
        <ele>80.1</ele>
        <time>2022-01-12T14:32:10Z</time>
      </trkpt>
      <trkpt lat="49.88688" lon="2.17177">
        <ele>80.1</ele>
        <time>2022-01-12T14:32:12Z</time>
      </trkpt>
      <trkpt lat="49.88688" lon="2.17177">
        <ele>80.1</ele>
        <time>2022-01-12T14:32:13Z</time>
      </trkpt>
      <trkpt lat="49.88688" lon="2.17176">
        <ele>80.1</ele>
        <time>2022-01-12T14:32:15Z</time>
      </trkpt>
      <trkpt lat="49.88688" lon="2.17176">
        <ele>80.1</ele>
        <time>2022-01-12T14:32:16Z</time>
      </trkpt>
      <trkpt lat="49.88688" lon="2.17176">
        <ele>80.1</ele>
        <time>2022-01-12T14:32:18Z</time>
      </trkpt>
      <trkpt lat="49.88688" lon="2.17176">
        <ele>80.1</ele>
        <time>2022-01-12T14:32:19Z</time>
      </trkpt>
      <trkpt lat="49.88688" lon="2.17176">
        <ele>80.1</ele>
        <time>2022-01-12T14:32:21Z</time>
      </trkpt>
      <trkpt lat="49.88688" lon="2.17176">
        <ele>80.1</ele>
        <time>2022-01-12T14:32:22Z</time>
      </trkpt>
      <trkpt lat="49.88688" lon="2.17176">
        <ele>80.1</ele>
        <time>2022-01-12T14:32:23Z</time>
      </trkpt>
      <trkpt lat="49.88688" lon="2.17176">
        <ele>80.1</ele>
        <time>2022-01-12T14:32:24Z</time>
      </trkpt>
      <trkpt lat="49.88688" lon="2.17176">
        <ele>80.1</ele>
        <time>2022-01-12T14:32:26Z</time>
      </trkpt>
      <trkpt lat="49.88688" lon="2.17176">
        <ele>80.1</ele>
        <time>2022-01-12T14:32:28Z</time>
      </trkpt>
      <trkpt lat="49.88688" lon="2.17176">
        <ele>80.1</ele>
        <time>2022-01-12T14:32:29Z</time>
      </trkpt>
      <trkpt lat="49.88688" lon="2.17176">
        <ele>80.1</ele>
        <time>2022-01-12T14:32:31Z</time>
      </trkpt>
      <trkpt lat="49.88688" lon="2.17176">
        <ele>80.1</ele>
        <time>2022-01-12T14:32:32Z</time>
      </trkpt>
      <trkpt lat="49.88688" lon="2.17176">
        <ele>80.1</ele>
        <time>2022-01-12T14:32:34Z</time>
      </trkpt>
      <trkpt lat="49.88688" lon="2.17176">
        <ele>80.1</ele>
        <time>2022-01-12T14:32:35Z</time>
      </trkpt>
      <trkpt lat="49.88688" lon="2.17176">
        <ele>80.1</ele>
        <time>2022-01-12T14:32:36Z</time>
      </trkpt>
      <trkpt lat="49.88688" lon="2.17176">
        <ele>80.1</ele>
        <time>2022-01-12T14:32:38Z</time>
      </trkpt>
      <trkpt lat="49.88688" lon="2.17176">
        <ele>80.1</ele>
        <time>2022-01-12T14:32:39Z</time>
      </trkpt>
      <trkpt lat="49.88688" lon="2.17176">
        <ele>80.1</ele>
        <time>2022-01-12T14:32:41Z</time>
      </trkpt>
      <trkpt lat="49.88688" lon="2.17176">
        <ele>80.1</ele>
        <time>2022-01-12T14:32:42Z</time>
      </trkpt>
      <trkpt lat="49.88688" lon="2.17176">
        <ele>80.1</ele>
        <time>2022-01-12T14:32:43Z</time>
      </trkpt>
      <trkpt lat="49.88688" lon="2.17176">
        <ele>80.1</ele>
        <time>2022-01-12T14:32:44Z</time>
      </trkpt>
      <trkpt lat="49.88688" lon="2.17176">
        <ele>80.1</ele>
        <time>2022-01-12T14:32:46Z</time>
      </trkpt>
      <trkpt lat="49.88688" lon="2.17176">
        <ele>80.1</ele>
        <time>2022-01-12T14:32:48Z</time>
      </trkpt>
      <trkpt lat="49.88688" lon="2.17176">
        <ele>80.1</ele>
        <time>2022-01-12T14:32:50Z</time>
      </trkpt>
      <trkpt lat="49.88688" lon="2.17176">
        <ele>80.1</ele>
        <time>2022-01-12T14:32:52Z</time>
      </trkpt>
      <trkpt lat="49.88688" lon="2.17176">
        <ele>80.1</ele>
        <time>2022-01-12T14:32:53Z</time>
      </trkpt>
      <trkpt lat="49.88688" lon="2.17176">
        <ele>80.1</ele>
        <time>2022-01-12T14:32:55Z</time>
      </trkpt>
      <trkpt lat="49.88688" lon="2.17176">
        <ele>80.1</ele>
        <time>2022-01-12T14:32:57Z</time>
      </trkpt>
      <trkpt lat="49.88688" lon="2.17176">
        <ele>80.1</ele>
        <time>2022-01-12T14:32:58Z</time>
      </trkpt>
      <trkpt lat="49.88688" lon="2.17176">
        <ele>80.1</ele>
        <time>2022-01-12T14:33:00Z</time>
      </trkpt>
      <trkpt lat="49.88688" lon="2.17176">
        <ele>80.1</ele>
        <time>2022-01-12T14:33:02Z</time>
      </trkpt>
      <trkpt lat="49.88688" lon="2.17176">
        <ele>80.1</ele>
        <time>2022-01-12T14:33:03Z</time>
      </trkpt>
      <trkpt lat="49.88688" lon="2.17176">
        <ele>80.1</ele>
        <time>2022-01-12T14:33:04Z</time>
      </trkpt>
      <trkpt lat="49.88688" lon="2.17176">
        <ele>80.1</ele>
        <time>2022-01-12T14:33:06Z</time>
      </trkpt>
      <trkpt lat="49.88688" lon="2.17176">
        <ele>80.1</ele>
        <time>2022-01-12T14:33:07Z</time>
      </trkpt>
      <trkpt lat="49.88688" lon="2.17176">
        <ele>80.1</ele>
        <time>2022-01-12T14:33:09Z</time>
      </trkpt>
      <trkpt lat="49.88688" lon="2.17176">
        <ele>80.1</ele>
        <time>2022-01-12T14:33:10Z</time>
      </trkpt>
      <trkpt lat="49.88688" lon="2.17177">
        <ele>80.1</ele>
        <time>2022-01-12T14:33:11Z</time>
      </trkpt>
      <trkpt lat="49.88687" lon="2.1718">
        <ele>80.1</ele>
        <time>2022-01-12T14:33:13Z</time>
      </trkpt>
      <trkpt lat="49.88687" lon="2.17182">
        <ele>80.1</ele>
        <time>2022-01-12T14:33:14Z</time>
      </trkpt>
      <trkpt lat="49.88686" lon="2.17183">
        <ele>80.1</ele>
        <time>2022-01-12T14:33:15Z</time>
      </trkpt>
      <trkpt lat="49.88684" lon="2.17183">
        <ele>80.1</ele>
        <time>2022-01-12T14:33:17Z</time>
      </trkpt>
      <trkpt lat="49.88683" lon="2.17184">
        <ele>80.1</ele>
        <time>2022-01-12T14:33:19Z</time>
      </trkpt>
      <trkpt lat="49.88681" lon="2.17184">
        <ele>80.1</ele>
        <time>2022-01-12T14:33:21Z</time>
      </trkpt>
      <trkpt lat="49.88679" lon="2.17183">
        <ele>80.2</ele>
        <time>2022-01-12T14:33:23Z</time>
      </trkpt>
      <trkpt lat="49.88676" lon="2.17182">
        <ele>80.2</ele>
        <time>2022-01-12T14:33:25Z</time>
      </trkpt>
      <trkpt lat="49.88675" lon="2.17181">
        <ele>80.2</ele>
        <time>2022-01-12T14:33:26Z</time>
      </trkpt>
      <trkpt lat="49.88673" lon="2.1718">
        <ele>80.2</ele>
        <time>2022-01-12T14:33:28Z</time>
      </trkpt>
      <trkpt lat="49.88672" lon="2.1718">
        <ele>80.2</ele>
        <time>2022-01-12T14:33:29Z</time>
      </trkpt>
      <trkpt lat="49.88671" lon="2.1718">
        <ele>80.3</ele>
        <time>2022-01-12T14:33:30Z</time>
      </trkpt>
      <trkpt lat="49.88669" lon="2.1718">
        <ele>80.3</ele>
        <time>2022-01-12T14:33:32Z</time>
      </trkpt>
      <trkpt lat="49.88668" lon="2.17179">
        <ele>80.3</ele>
        <time>2022-01-12T14:33:33Z</time>
      </trkpt>
      <trkpt lat="49.88667" lon="2.17179">
        <ele>80.3</ele>
        <time>2022-01-12T14:33:34Z</time>
      </trkpt>
      <trkpt lat="49.88665" lon="2.17178">
        <ele>80.4</ele>
        <time>2022-01-12T14:33:36Z</time>
      </trkpt>
      <trkpt lat="49.88664" lon="2.17177">
        <ele>80.4</ele>
        <time>2022-01-12T14:33:37Z</time>
      </trkpt>
      <trkpt lat="49.88663" lon="2.17176">
        <ele>80.4</ele>
        <time>2022-01-12T14:33:38Z</time>
      </trkpt>
      <trkpt lat="49.88661" lon="2.17176">
        <ele>80.5</ele>
        <time>2022-01-12T14:33:40Z</time>
      </trkpt>
      <trkpt lat="49.88659" lon="2.17175">
        <ele>80.5</ele>
        <time>2022-01-12T14:33:41Z</time>
      </trkpt>
      <trkpt lat="49.88658" lon="2.17175">
        <ele>80.5</ele>
        <time>2022-01-12T14:33:42Z</time>
      </trkpt>
      <trkpt lat="49.88656" lon="2.17174">
        <ele>80.6</ele>
        <time>2022-01-12T14:33:43Z</time>
      </trkpt>
      <trkpt lat="49.88655" lon="2.17173">
        <ele>80.6</ele>
        <time>2022-01-12T14:33:44Z</time>
      </trkpt>
      <trkpt lat="49.88654" lon="2.17173">
        <ele>80.6</ele>
        <time>2022-01-12T14:33:45Z</time>
      </trkpt>
      <trkpt lat="49.88653" lon="2.17172">
        <ele>80.7</ele>
        <time>2022-01-12T14:33:47Z</time>
      </trkpt>
      <trkpt lat="49.88651" lon="2.17171">
        <ele>80.7</ele>
        <time>2022-01-12T14:33:48Z</time>
      </trkpt>
      <trkpt lat="49.88649" lon="2.17171">
        <ele>80.7</ele>
        <time>2022-01-12T14:33:49Z</time>
      </trkpt>
      <trkpt lat="49.88649" lon="2.1717">
        <ele>80.8</ele>
        <time>2022-01-12T14:33:50Z</time>
      </trkpt>
      <trkpt lat="49.88648" lon="2.1717">
        <ele>80.8</ele>
        <time>2022-01-12T14:33:51Z</time>
      </trkpt>
      <trkpt lat="49.88646" lon="2.1717">
        <ele>80.9</ele>
        <time>2022-01-12T14:33:52Z</time>
      </trkpt>
      <trkpt lat="49.88645" lon="2.17169">
        <ele>80.9</ele>
        <time>2022-01-12T14:33:53Z</time>
      </trkpt>
      <trkpt lat="49.88644" lon="2.17169">
        <ele>80.9</ele>
        <time>2022-01-12T14:33:54Z</time>
      </trkpt>
      <trkpt lat="49.88643" lon="2.17169">
        <ele>81</ele>
        <time>2022-01-12T14:33:55Z</time>
      </trkpt>
      <trkpt lat="49.88641" lon="2.17168">
        <ele>81</ele>
        <time>2022-01-12T14:33:57Z</time>
      </trkpt>
      <trkpt lat="49.8864" lon="2.17168">
        <ele>81.1</ele>
        <time>2022-01-12T14:33:58Z</time>
      </trkpt>
      <trkpt lat="49.88639" lon="2.17168">
        <ele>81.1</ele>
        <time>2022-01-12T14:33:59Z</time>
      </trkpt>
      <trkpt lat="49.88638" lon="2.17169">
        <ele>81.2</ele>
        <time>2022-01-12T14:34:00Z</time>
      </trkpt>
      <trkpt lat="49.88637" lon="2.17169">
        <ele>81.2</ele>
        <time>2022-01-12T14:34:01Z</time>
      </trkpt>
      <trkpt lat="49.88635" lon="2.17169">
        <ele>81.3</ele>
        <time>2022-01-12T14:34:02Z</time>
      </trkpt>
      <trkpt lat="49.88634" lon="2.17169">
        <ele>81.3</ele>
        <time>2022-01-12T14:34:03Z</time>
      </trkpt>
      <trkpt lat="49.88633" lon="2.17169">
        <ele>81.3</ele>
        <time>2022-01-12T14:34:04Z</time>
      </trkpt>
      <trkpt lat="49.88632" lon="2.17169">
        <ele>81.4</ele>
        <time>2022-01-12T14:34:06Z</time>
      </trkpt>
      <trkpt lat="49.88631" lon="2.17169">
        <ele>81.5</ele>
        <time>2022-01-12T14:34:07Z</time>
      </trkpt>
      <trkpt lat="49.8863" lon="2.17168">
        <ele>81.5</ele>
        <time>2022-01-12T14:34:08Z</time>
      </trkpt>
      <trkpt lat="49.88629" lon="2.17167">
        <ele>81.6</ele>
        <time>2022-01-12T14:34:09Z</time>
      </trkpt>
      <trkpt lat="49.88628" lon="2.17166">
        <ele>81.6</ele>
        <time>2022-01-12T14:34:10Z</time>
      </trkpt>
      <trkpt lat="49.88627" lon="2.17165">
        <ele>81.7</ele>
        <time>2022-01-12T14:34:11Z</time>
      </trkpt>
      <trkpt lat="49.88626" lon="2.17164">
        <ele>81.7</ele>
        <time>2022-01-12T14:34:12Z</time>
      </trkpt>
      <trkpt lat="49.88625" lon="2.17164">
        <ele>81.8</ele>
        <time>2022-01-12T14:34:14Z</time>
      </trkpt>
      <trkpt lat="49.88624" lon="2.17163">
        <ele>81.9</ele>
        <time>2022-01-12T14:34:15Z</time>
      </trkpt>
      <trkpt lat="49.88623" lon="2.17162">
        <ele>81.9</ele>
        <time>2022-01-12T14:34:16Z</time>
      </trkpt>
      <trkpt lat="49.88622" lon="2.17161">
        <ele>82</ele>
        <time>2022-01-12T14:34:17Z</time>
      </trkpt>
      <trkpt lat="49.88621" lon="2.1716">
        <ele>82.1</ele>
        <time>2022-01-12T14:34:18Z</time>
      </trkpt>
      <trkpt lat="49.8862" lon="2.1716">
        <ele>82.1</ele>
        <time>2022-01-12T14:34:19Z</time>
      </trkpt>
      <trkpt lat="49.88619" lon="2.17159">
        <ele>82.2</ele>
        <time>2022-01-12T14:34:21Z</time>
      </trkpt>
      <trkpt lat="49.88618" lon="2.17159">
        <ele>82.3</ele>
        <time>2022-01-12T14:34:22Z</time>
      </trkpt>
      <trkpt lat="49.88617" lon="2.17158">
        <ele>82.4</ele>
        <time>2022-01-12T14:34:23Z</time>
      </trkpt>
      <trkpt lat="49.88616" lon="2.17158">
        <ele>82.4</ele>
        <time>2022-01-12T14:34:24Z</time>
      </trkpt>
      <trkpt lat="49.88615" lon="2.17157">
        <ele>82.5</ele>
        <time>2022-01-12T14:34:25Z</time>
      </trkpt>
      <trkpt lat="49.88614" lon="2.17156">
        <ele>82.6</ele>
        <time>2022-01-12T14:34:26Z</time>
      </trkpt>
      <trkpt lat="49.88613" lon="2.17156">
        <ele>82.7</ele>
        <time>2022-01-12T14:34:28Z</time>
      </trkpt>
      <trkpt lat="49.8861" lon="2.17155">
        <ele>82.8</ele>
        <time>2022-01-12T14:34:29Z</time>
      </trkpt>
      <trkpt lat="49.8861" lon="2.17155">
        <ele>82.9</ele>
        <time>2022-01-12T14:34:30Z</time>
      </trkpt>
      <trkpt lat="49.88609" lon="2.17155">
        <ele>82.9</ele>
        <time>2022-01-12T14:34:31Z</time>
      </trkpt>
      <trkpt lat="49.88608" lon="2.17154">
        <ele>83</ele>
        <time>2022-01-12T14:34:32Z</time>
      </trkpt>
      <trkpt lat="49.88607" lon="2.17154">
        <ele>83.1</ele>
        <time>2022-01-12T14:34:33Z</time>
      </trkpt>
      <trkpt lat="49.88606" lon="2.17153">
        <ele>83.2</ele>
        <time>2022-01-12T14:34:34Z</time>
      </trkpt>
      <trkpt lat="49.88604" lon="2.17152">
        <ele>83.4</ele>
        <time>2022-01-12T14:34:36Z</time>
      </trkpt>
      <trkpt lat="49.88603" lon="2.17152">
        <ele>83.4</ele>
        <time>2022-01-12T14:34:37Z</time>
      </trkpt>
      <trkpt lat="49.88602" lon="2.17151">
        <ele>83.5</ele>
        <time>2022-01-12T14:34:38Z</time>
      </trkpt>
      <trkpt lat="49.886" lon="2.17149">
        <ele>83.7</ele>
        <time>2022-01-12T14:34:39Z</time>
      </trkpt>
      <trkpt lat="49.88599" lon="2.17148">
        <ele>83.8</ele>
        <time>2022-01-12T14:34:41Z</time>
      </trkpt>
      <trkpt lat="49.88599" lon="2.17147">
        <ele>83.9</ele>
        <time>2022-01-12T14:34:42Z</time>
      </trkpt>
      <trkpt lat="49.88598" lon="2.17146">
        <ele>84</ele>
        <time>2022-01-12T14:34:43Z</time>
      </trkpt>
      <trkpt lat="49.88597" lon="2.17145">
        <ele>84.1</ele>
        <time>2022-01-12T14:34:44Z</time>
      </trkpt>
      <trkpt lat="49.88596" lon="2.17143">
        <ele>84.2</ele>
        <time>2022-01-12T14:34:45Z</time>
      </trkpt>
      <trkpt lat="49.88595" lon="2.17142">
        <ele>84.2</ele>
        <time>2022-01-12T14:34:46Z</time>
      </trkpt>
      <trkpt lat="49.88594" lon="2.17141">
        <ele>84.4</ele>
        <time>2022-01-12T14:34:48Z</time>
      </trkpt>
      <trkpt lat="49.88593" lon="2.1714">
        <ele>84.5</ele>
        <time>2022-01-12T14:34:49Z</time>
      </trkpt>
      <trkpt lat="49.88592" lon="2.17139">
        <ele>84.6</ele>
        <time>2022-01-12T14:34:50Z</time>
      </trkpt>
      <trkpt lat="49.88591" lon="2.17138">
        <ele>84.7</ele>
        <time>2022-01-12T14:34:51Z</time>
      </trkpt>
      <trkpt lat="49.8859" lon="2.17137">
        <ele>84.8</ele>
        <time>2022-01-12T14:34:52Z</time>
      </trkpt>
      <trkpt lat="49.88589" lon="2.17137">
        <ele>84.9</ele>
        <time>2022-01-12T14:34:54Z</time>
      </trkpt>
      <trkpt lat="49.88588" lon="2.17137">
        <ele>85</ele>
        <time>2022-01-12T14:34:55Z</time>
      </trkpt>
      <trkpt lat="49.88587" lon="2.17136">
        <ele>85.1</ele>
        <time>2022-01-12T14:34:56Z</time>
      </trkpt>
      <trkpt lat="49.88587" lon="2.17136">
        <ele>85.2</ele>
        <time>2022-01-12T14:34:57Z</time>
      </trkpt>
      <trkpt lat="49.88586" lon="2.17136">
        <ele>85.3</ele>
        <time>2022-01-12T14:34:58Z</time>
      </trkpt>
      <trkpt lat="49.88584" lon="2.17135">
        <ele>85.4</ele>
        <time>2022-01-12T14:35:00Z</time>
      </trkpt>
      <trkpt lat="49.88584" lon="2.17135">
        <ele>85.5</ele>
        <time>2022-01-12T14:35:01Z</time>
      </trkpt>
      <trkpt lat="49.88582" lon="2.17134">
        <ele>85.7</ele>
        <time>2022-01-12T14:35:03Z</time>
      </trkpt>
      <trkpt lat="49.88582" lon="2.17133">
        <ele>85.7</ele>
        <time>2022-01-12T14:35:04Z</time>
      </trkpt>
      <trkpt lat="49.8858" lon="2.17132">
        <ele>85.9</ele>
        <time>2022-01-12T14:35:06Z</time>
      </trkpt>
      <trkpt lat="49.88579" lon="2.17132">
        <ele>86</ele>
        <time>2022-01-12T14:35:07Z</time>
      </trkpt>
      <trkpt lat="49.88578" lon="2.17131">
        <ele>86.2</ele>
        <time>2022-01-12T14:35:08Z</time>
      </trkpt>
      <trkpt lat="49.88577" lon="2.17131">
        <ele>86.3</ele>
        <time>2022-01-12T14:35:10Z</time>
      </trkpt>
      <trkpt lat="49.88576" lon="2.1713">
        <ele>86.4</ele>
        <time>2022-01-12T14:35:11Z</time>
      </trkpt>
      <trkpt lat="49.88575" lon="2.1713">
        <ele>86.5</ele>
        <time>2022-01-12T14:35:12Z</time>
      </trkpt>
      <trkpt lat="49.88574" lon="2.1713">
        <ele>86.5</ele>
        <time>2022-01-12T14:35:13Z</time>
      </trkpt>
      <trkpt lat="49.88573" lon="2.17129">
        <ele>86.7</ele>
        <time>2022-01-12T14:35:15Z</time>
      </trkpt>
      <trkpt lat="49.88572" lon="2.17129">
        <ele>86.8</ele>
        <time>2022-01-12T14:35:16Z</time>
      </trkpt>
      <trkpt lat="49.88571" lon="2.17129">
        <ele>86.9</ele>
        <time>2022-01-12T14:35:17Z</time>
      </trkpt>
      <trkpt lat="49.8857" lon="2.17128">
        <ele>87</ele>
        <time>2022-01-12T14:35:18Z</time>
      </trkpt>
      <trkpt lat="49.88568" lon="2.17127">
        <ele>87.2</ele>
        <time>2022-01-12T14:35:19Z</time>
      </trkpt>
      <trkpt lat="49.88567" lon="2.17127">
        <ele>87.3</ele>
        <time>2022-01-12T14:35:21Z</time>
      </trkpt>
      <trkpt lat="49.88566" lon="2.17127">
        <ele>87.4</ele>
        <time>2022-01-12T14:35:22Z</time>
      </trkpt>
      <trkpt lat="49.88565" lon="2.17126">
        <ele>87.6</ele>
        <time>2022-01-12T14:35:23Z</time>
      </trkpt>
      <trkpt lat="49.88564" lon="2.17126">
        <ele>87.7</ele>
        <time>2022-01-12T14:35:24Z</time>
      </trkpt>
      <trkpt lat="49.88563" lon="2.17126">
        <ele>87.8</ele>
        <time>2022-01-12T14:35:26Z</time>
      </trkpt>
      <trkpt lat="49.88562" lon="2.17126">
        <ele>87.9</ele>
        <time>2022-01-12T14:35:27Z</time>
      </trkpt>
      <trkpt lat="49.88561" lon="2.17125">
        <ele>88.1</ele>
        <time>2022-01-12T14:35:29Z</time>
      </trkpt>
      <trkpt lat="49.8856" lon="2.17125">
        <ele>88.2</ele>
        <time>2022-01-12T14:35:30Z</time>
      </trkpt>
      <trkpt lat="49.88558" lon="2.17124">
        <ele>88.3</ele>
        <time>2022-01-12T14:35:32Z</time>
      </trkpt>
      <trkpt lat="49.88558" lon="2.17123">
        <ele>88.5</ele>
        <time>2022-01-12T14:35:33Z</time>
      </trkpt>
      <trkpt lat="49.88557" lon="2.17122">
        <ele>88.6</ele>
        <time>2022-01-12T14:35:35Z</time>
      </trkpt>
      <trkpt lat="49.88556" lon="2.17122">
        <ele>88.7</ele>
        <time>2022-01-12T14:35:36Z</time>
      </trkpt>
      <trkpt lat="49.88555" lon="2.17121">
        <ele>88.8</ele>
        <time>2022-01-12T14:35:37Z</time>
      </trkpt>
      <trkpt lat="49.88554" lon="2.1712">
        <ele>88.9</ele>
        <time>2022-01-12T14:35:38Z</time>
      </trkpt>
      <trkpt lat="49.88553" lon="2.17119">
        <ele>89</ele>
        <time>2022-01-12T14:35:39Z</time>
      </trkpt>
      <trkpt lat="49.88552" lon="2.17119">
        <ele>89.2</ele>
        <time>2022-01-12T14:35:41Z</time>
      </trkpt>
      <trkpt lat="49.88551" lon="2.17118">
        <ele>89.3</ele>
        <time>2022-01-12T14:35:42Z</time>
      </trkpt>
      <trkpt lat="49.8855" lon="2.17117">
        <ele>89.4</ele>
        <time>2022-01-12T14:35:43Z</time>
      </trkpt>
      <trkpt lat="49.88549" lon="2.17117">
        <ele>89.5</ele>
        <time>2022-01-12T14:35:44Z</time>
      </trkpt>
      <trkpt lat="49.88548" lon="2.17116">
        <ele>89.6</ele>
        <time>2022-01-12T14:35:45Z</time>
      </trkpt>
      <trkpt lat="49.88547" lon="2.17116">
        <ele>89.7</ele>
        <time>2022-01-12T14:35:46Z</time>
      </trkpt>
      <trkpt lat="49.88546" lon="2.17116">
        <ele>89.8</ele>
        <time>2022-01-12T14:35:48Z</time>
      </trkpt>
      <trkpt lat="49.88545" lon="2.17115">
        <ele>89.9</ele>
        <time>2022-01-12T14:35:49Z</time>
      </trkpt>
      <trkpt lat="49.88543" lon="2.17114">
        <ele>90.2</ele>
        <time>2022-01-12T14:35:50Z</time>
      </trkpt>
      <trkpt lat="49.88542" lon="2.17113">
        <ele>90.3</ele>
        <time>2022-01-12T14:35:51Z</time>
      </trkpt>
      <trkpt lat="49.88541" lon="2.17113">
        <ele>90.4</ele>
        <time>2022-01-12T14:35:53Z</time>
      </trkpt>
      <trkpt lat="49.8854" lon="2.17112">
        <ele>90.5</ele>
        <time>2022-01-12T14:35:54Z</time>
      </trkpt>
      <trkpt lat="49.88539" lon="2.17111">
        <ele>90.6</ele>
        <time>2022-01-12T14:35:56Z</time>
      </trkpt>
      <trkpt lat="49.88538" lon="2.17111">
        <ele>90.7</ele>
        <time>2022-01-12T14:35:57Z</time>
      </trkpt>
      <trkpt lat="49.88537" lon="2.1711">
        <ele>90.9</ele>
        <time>2022-01-12T14:35:59Z</time>
      </trkpt>
      <trkpt lat="49.88536" lon="2.1711">
        <ele>91</ele>
        <time>2022-01-12T14:36:00Z</time>
      </trkpt>
      <trkpt lat="49.88534" lon="2.1711">
        <ele>91.2</ele>
        <time>2022-01-12T14:36:02Z</time>
      </trkpt>
      <trkpt lat="49.88533" lon="2.1711">
        <ele>91.3</ele>
        <time>2022-01-12T14:36:03Z</time>
      </trkpt>
      <trkpt lat="49.88531" lon="2.17109">
        <ele>91.5</ele>
        <time>2022-01-12T14:36:05Z</time>
      </trkpt>
      <trkpt lat="49.8853" lon="2.17108">
        <ele>91.6</ele>
        <time>2022-01-12T14:36:06Z</time>
      </trkpt>
      <trkpt lat="49.88529" lon="2.17108">
        <ele>91.7</ele>
        <time>2022-01-12T14:36:07Z</time>
      </trkpt>
      <trkpt lat="49.88528" lon="2.17108">
        <ele>91.8</ele>
        <time>2022-01-12T14:36:08Z</time>
      </trkpt>
      <trkpt lat="49.88526" lon="2.17107">
        <ele>92</ele>
        <time>2022-01-12T14:36:10Z</time>
      </trkpt>
      <trkpt lat="49.88525" lon="2.17107">
        <ele>92.1</ele>
        <time>2022-01-12T14:36:11Z</time>
      </trkpt>
      <trkpt lat="49.88524" lon="2.17107">
        <ele>92.2</ele>
        <time>2022-01-12T14:36:12Z</time>
      </trkpt>
      <trkpt lat="49.88523" lon="2.17105">
        <ele>92.3</ele>
        <time>2022-01-12T14:36:13Z</time>
      </trkpt>
      <trkpt lat="49.88522" lon="2.17105">
        <ele>92.4</ele>
        <time>2022-01-12T14:36:15Z</time>
      </trkpt>
      <trkpt lat="49.88521" lon="2.17104">
        <ele>92.5</ele>
        <time>2022-01-12T14:36:16Z</time>
      </trkpt>
      <trkpt lat="49.8852" lon="2.17104">
        <ele>92.6</ele>
        <time>2022-01-12T14:36:18Z</time>
      </trkpt>
      <trkpt lat="49.88519" lon="2.17103">
        <ele>92.7</ele>
        <time>2022-01-12T14:36:19Z</time>
      </trkpt>
      <trkpt lat="49.88518" lon="2.17103">
        <ele>92.8</ele>
        <time>2022-01-12T14:36:20Z</time>
      </trkpt>
      <trkpt lat="49.88517" lon="2.17102">
        <ele>92.9</ele>
        <time>2022-01-12T14:36:21Z</time>
      </trkpt>
      <trkpt lat="49.88516" lon="2.17102">
        <ele>93</ele>
        <time>2022-01-12T14:36:22Z</time>
      </trkpt>
      <trkpt lat="49.88515" lon="2.17102">
        <ele>93.1</ele>
        <time>2022-01-12T14:36:23Z</time>
      </trkpt>
      <trkpt lat="49.88514" lon="2.17102">
        <ele>93.2</ele>
        <time>2022-01-12T14:36:24Z</time>
      </trkpt>
      <trkpt lat="49.88513" lon="2.17101">
        <ele>93.3</ele>
        <time>2022-01-12T14:36:26Z</time>
      </trkpt>
      <trkpt lat="49.88512" lon="2.17101">
        <ele>93.4</ele>
        <time>2022-01-12T14:36:27Z</time>
      </trkpt>
      <trkpt lat="49.88511" lon="2.17101">
        <ele>93.5</ele>
        <time>2022-01-12T14:36:28Z</time>
      </trkpt>
      <trkpt lat="49.8851" lon="2.17101">
        <ele>93.5</ele>
        <time>2022-01-12T14:36:29Z</time>
      </trkpt>
      <trkpt lat="49.88508" lon="2.171">
        <ele>93.6</ele>
        <time>2022-01-12T14:36:30Z</time>
      </trkpt>
      <trkpt lat="49.88508" lon="2.171">
        <ele>93.7</ele>
        <time>2022-01-12T14:36:32Z</time>
      </trkpt>
      <trkpt lat="49.88507" lon="2.17099">
        <ele>93.8</ele>
        <time>2022-01-12T14:36:33Z</time>
      </trkpt>
      <trkpt lat="49.88506" lon="2.17098">
        <ele>93.9</ele>
        <time>2022-01-12T14:36:34Z</time>
      </trkpt>
      <trkpt lat="49.88505" lon="2.17098">
        <ele>94</ele>
        <time>2022-01-12T14:36:35Z</time>
      </trkpt>
      <trkpt lat="49.88503" lon="2.17097">
        <ele>94.1</ele>
        <time>2022-01-12T14:36:37Z</time>
      </trkpt>
      <trkpt lat="49.88503" lon="2.17096">
        <ele>94.2</ele>
        <time>2022-01-12T14:36:38Z</time>
      </trkpt>
      <trkpt lat="49.88501" lon="2.17095">
        <ele>94.3</ele>
        <time>2022-01-12T14:36:40Z</time>
      </trkpt>
      <trkpt lat="49.885" lon="2.17094">
        <ele>94.4</ele>
        <time>2022-01-12T14:36:41Z</time>
      </trkpt>
      <trkpt lat="49.88499" lon="2.17094">
        <ele>94.5</ele>
        <time>2022-01-12T14:36:42Z</time>
      </trkpt>
      <trkpt lat="49.88498" lon="2.17093">
        <ele>94.6</ele>
        <time>2022-01-12T14:36:43Z</time>
      </trkpt>
      <trkpt lat="49.88498" lon="2.17093">
        <ele>94.7</ele>
        <time>2022-01-12T14:36:44Z</time>
      </trkpt>
      <trkpt lat="49.88496" lon="2.17092">
        <ele>94.8</ele>
        <time>2022-01-12T14:36:46Z</time>
      </trkpt>
      <trkpt lat="49.88495" lon="2.17092">
        <ele>94.9</ele>
        <time>2022-01-12T14:36:47Z</time>
      </trkpt>
      <trkpt lat="49.88494" lon="2.17091">
        <ele>95</ele>
        <time>2022-01-12T14:36:48Z</time>
      </trkpt>
      <trkpt lat="49.88493" lon="2.17091">
        <ele>95</ele>
        <time>2022-01-12T14:36:49Z</time>
      </trkpt>
      <trkpt lat="49.88493" lon="2.1709">
        <ele>95.1</ele>
        <time>2022-01-12T14:36:51Z</time>
      </trkpt>
      <trkpt lat="49.88492" lon="2.1709">
        <ele>95.2</ele>
        <time>2022-01-12T14:36:52Z</time>
      </trkpt>
      <trkpt lat="49.8849" lon="2.17089">
        <ele>95.3</ele>
        <time>2022-01-12T14:36:53Z</time>
      </trkpt>
      <trkpt lat="49.8849" lon="2.17089">
        <ele>95.4</ele>
        <time>2022-01-12T14:36:54Z</time>
      </trkpt>
      <trkpt lat="49.88489" lon="2.17089">
        <ele>95.4</ele>
        <time>2022-01-12T14:36:55Z</time>
      </trkpt>
      <trkpt lat="49.88487" lon="2.17088">
        <ele>95.6</ele>
        <time>2022-01-12T14:36:57Z</time>
      </trkpt>
      <trkpt lat="49.88486" lon="2.17088">
        <ele>95.7</ele>
        <time>2022-01-12T14:36:58Z</time>
      </trkpt>
      <trkpt lat="49.88484" lon="2.17088">
        <ele>95.8</ele>
        <time>2022-01-12T14:37:00Z</time>
      </trkpt>
      <trkpt lat="49.88483" lon="2.17087">
        <ele>95.9</ele>
        <time>2022-01-12T14:37:01Z</time>
      </trkpt>
      <trkpt lat="49.88482" lon="2.17087">
        <ele>96</ele>
        <time>2022-01-12T14:37:02Z</time>
      </trkpt>
      <trkpt lat="49.88482" lon="2.17087">
        <ele>96.1</ele>
        <time>2022-01-12T14:37:03Z</time>
      </trkpt>
      <trkpt lat="49.8848" lon="2.17086">
        <ele>96.2</ele>
        <time>2022-01-12T14:37:04Z</time>
      </trkpt>
      <trkpt lat="49.88479" lon="2.17086">
        <ele>96.2</ele>
        <time>2022-01-12T14:37:06Z</time>
      </trkpt>
      <trkpt lat="49.88478" lon="2.17086">
        <ele>96.3</ele>
        <time>2022-01-12T14:37:07Z</time>
      </trkpt>
      <trkpt lat="49.88477" lon="2.17086">
        <ele>96.4</ele>
        <time>2022-01-12T14:37:08Z</time>
      </trkpt>
      <trkpt lat="49.88476" lon="2.17086">
        <ele>96.5</ele>
        <time>2022-01-12T14:37:09Z</time>
      </trkpt>
      <trkpt lat="49.88475" lon="2.17085">
        <ele>96.6</ele>
        <time>2022-01-12T14:37:10Z</time>
      </trkpt>
      <trkpt lat="49.88473" lon="2.17084">
        <ele>96.8</ele>
        <time>2022-01-12T14:37:12Z</time>
      </trkpt>
      <trkpt lat="49.88472" lon="2.17084">
        <ele>96.8</ele>
        <time>2022-01-12T14:37:13Z</time>
      </trkpt>
      <trkpt lat="49.8847" lon="2.17083">
        <ele>97</ele>
        <time>2022-01-12T14:37:15Z</time>
      </trkpt>
      <trkpt lat="49.88469" lon="2.17083">
        <ele>97</ele>
        <time>2022-01-12T14:37:16Z</time>
      </trkpt>
      <trkpt lat="49.88468" lon="2.17082">
        <ele>97.1</ele>
        <time>2022-01-12T14:37:17Z</time>
      </trkpt>
      <trkpt lat="49.88466" lon="2.17082">
        <ele>97.2</ele>
        <time>2022-01-12T14:37:19Z</time>
      </trkpt>
      <trkpt lat="49.88465" lon="2.17081">
        <ele>97.3</ele>
        <time>2022-01-12T14:37:20Z</time>
      </trkpt>
      <trkpt lat="49.88464" lon="2.17081">
        <ele>97.4</ele>
        <time>2022-01-12T14:37:21Z</time>
      </trkpt>
      <trkpt lat="49.88463" lon="2.17081">
        <ele>97.5</ele>
        <time>2022-01-12T14:37:22Z</time>
      </trkpt>
      <trkpt lat="49.88461" lon="2.1708">
        <ele>97.6</ele>
        <time>2022-01-12T14:37:24Z</time>
      </trkpt>
      <trkpt lat="49.8846" lon="2.1708">
        <ele>97.7</ele>
        <time>2022-01-12T14:37:25Z</time>
      </trkpt>
      <trkpt lat="49.88459" lon="2.17079">
        <ele>97.8</ele>
        <time>2022-01-12T14:37:27Z</time>
      </trkpt>
      <trkpt lat="49.88458" lon="2.17079">
        <ele>97.9</ele>
        <time>2022-01-12T14:37:28Z</time>
      </trkpt>
      <trkpt lat="49.88456" lon="2.17079">
        <ele>97.9</ele>
        <time>2022-01-12T14:37:29Z</time>
      </trkpt>
      <trkpt lat="49.88455" lon="2.17079">
        <ele>98</ele>
        <time>2022-01-12T14:37:30Z</time>
      </trkpt>
      <trkpt lat="49.88454" lon="2.17079">
        <ele>98.1</ele>
        <time>2022-01-12T14:37:31Z</time>
      </trkpt>
      <trkpt lat="49.88453" lon="2.17078">
        <ele>98.1</ele>
        <time>2022-01-12T14:37:32Z</time>
      </trkpt>
      <trkpt lat="49.88452" lon="2.17078">
        <ele>98.2</ele>
        <time>2022-01-12T14:37:34Z</time>
      </trkpt>
      <trkpt lat="49.88451" lon="2.17077">
        <ele>98.3</ele>
        <time>2022-01-12T14:37:35Z</time>
      </trkpt>
      <trkpt lat="49.8845" lon="2.17077">
        <ele>98.4</ele>
        <time>2022-01-12T14:37:36Z</time>
      </trkpt>
      <trkpt lat="49.88449" lon="2.17076">
        <ele>98.4</ele>
        <time>2022-01-12T14:37:37Z</time>
      </trkpt>
      <trkpt lat="49.88448" lon="2.17076">
        <ele>98.5</ele>
        <time>2022-01-12T14:37:38Z</time>
      </trkpt>
      <trkpt lat="49.88447" lon="2.17076">
        <ele>98.6</ele>
        <time>2022-01-12T14:37:39Z</time>
      </trkpt>
      <trkpt lat="49.88446" lon="2.17076">
        <ele>98.6</ele>
        <time>2022-01-12T14:37:41Z</time>
      </trkpt>
      <trkpt lat="49.88445" lon="2.17075">
        <ele>98.7</ele>
        <time>2022-01-12T14:37:42Z</time>
      </trkpt>
      <trkpt lat="49.88444" lon="2.17075">
        <ele>98.8</ele>
        <time>2022-01-12T14:37:43Z</time>
      </trkpt>
      <trkpt lat="49.88443" lon="2.17074">
        <ele>98.8</ele>
        <time>2022-01-12T14:37:44Z</time>
      </trkpt>
      <trkpt lat="49.88442" lon="2.17074">
        <ele>98.9</ele>
        <time>2022-01-12T14:37:45Z</time>
      </trkpt>
      <trkpt lat="49.88441" lon="2.17073">
        <ele>99</ele>
        <time>2022-01-12T14:37:47Z</time>
      </trkpt>
      <trkpt lat="49.8844" lon="2.17073">
        <ele>99</ele>
        <time>2022-01-12T14:37:48Z</time>
      </trkpt>
      <trkpt lat="49.88439" lon="2.17073">
        <ele>99.1</ele>
        <time>2022-01-12T14:37:49Z</time>
      </trkpt>
      <trkpt lat="49.88437" lon="2.17072">
        <ele>99.2</ele>
        <time>2022-01-12T14:37:50Z</time>
      </trkpt>
      <trkpt lat="49.88435" lon="2.17072">
        <ele>99.3</ele>
        <time>2022-01-12T14:37:51Z</time>
      </trkpt>
      <trkpt lat="49.88434" lon="2.17072">
        <ele>99.3</ele>
        <time>2022-01-12T14:37:52Z</time>
      </trkpt>
      <trkpt lat="49.88433" lon="2.17071">
        <ele>99.4</ele>
        <time>2022-01-12T14:37:54Z</time>
      </trkpt>
      <trkpt lat="49.88432" lon="2.17071">
        <ele>99.5</ele>
        <time>2022-01-12T14:37:55Z</time>
      </trkpt>
      <trkpt lat="49.88431" lon="2.17071">
        <ele>99.5</ele>
        <time>2022-01-12T14:37:56Z</time>
      </trkpt>
      <trkpt lat="49.8843" lon="2.1707">
        <ele>99.6</ele>
        <time>2022-01-12T14:37:57Z</time>
      </trkpt>
      <trkpt lat="49.88429" lon="2.1707">
        <ele>99.7</ele>
        <time>2022-01-12T14:37:59Z</time>
      </trkpt>
      <trkpt lat="49.88428" lon="2.1707">
        <ele>99.7</ele>
        <time>2022-01-12T14:38:00Z</time>
      </trkpt>
      <trkpt lat="49.88427" lon="2.17069">
        <ele>99.8</ele>
        <time>2022-01-12T14:38:01Z</time>
      </trkpt>
      <trkpt lat="49.88426" lon="2.17069">
        <ele>99.8</ele>
        <time>2022-01-12T14:38:02Z</time>
      </trkpt>
      <trkpt lat="49.88425" lon="2.17069">
        <ele>99.9</ele>
        <time>2022-01-12T14:38:03Z</time>
      </trkpt>
      <trkpt lat="49.88423" lon="2.17068">
        <ele>100</ele>
        <time>2022-01-12T14:38:05Z</time>
      </trkpt>
      <trkpt lat="49.88422" lon="2.17068">
        <ele>100.1</ele>
        <time>2022-01-12T14:38:06Z</time>
      </trkpt>
      <trkpt lat="49.88421" lon="2.17067">
        <ele>100.1</ele>
        <time>2022-01-12T14:38:07Z</time>
      </trkpt>
      <trkpt lat="49.8842" lon="2.17067">
        <ele>100.2</ele>
        <time>2022-01-12T14:38:09Z</time>
      </trkpt>
      <trkpt lat="49.88418" lon="2.17067">
        <ele>100.3</ele>
        <time>2022-01-12T14:38:10Z</time>
      </trkpt>
      <trkpt lat="49.88417" lon="2.17066">
        <ele>100.3</ele>
        <time>2022-01-12T14:38:11Z</time>
      </trkpt>
      <trkpt lat="49.88416" lon="2.17066">
        <ele>100.4</ele>
        <time>2022-01-12T14:38:12Z</time>
      </trkpt>
      <trkpt lat="49.88415" lon="2.17066">
        <ele>100.4</ele>
        <time>2022-01-12T14:38:13Z</time>
      </trkpt>
      <trkpt lat="49.88414" lon="2.17065">
        <ele>100.5</ele>
        <time>2022-01-12T14:38:14Z</time>
      </trkpt>
      <trkpt lat="49.88413" lon="2.17065">
        <ele>100.5</ele>
        <time>2022-01-12T14:38:16Z</time>
      </trkpt>
      <trkpt lat="49.88412" lon="2.17065">
        <ele>100.6</ele>
        <time>2022-01-12T14:38:17Z</time>
      </trkpt>
      <trkpt lat="49.88411" lon="2.17065">
        <ele>100.6</ele>
        <time>2022-01-12T14:38:18Z</time>
      </trkpt>
      <trkpt lat="49.8841" lon="2.17064">
        <ele>100.6</ele>
        <time>2022-01-12T14:38:19Z</time>
      </trkpt>
      <trkpt lat="49.88409" lon="2.17064">
        <ele>100.7</ele>
        <time>2022-01-12T14:38:20Z</time>
      </trkpt>
      <trkpt lat="49.88408" lon="2.17064">
        <ele>100.7</ele>
        <time>2022-01-12T14:38:21Z</time>
      </trkpt>
      <trkpt lat="49.88406" lon="2.17064">
        <ele>100.8</ele>
        <time>2022-01-12T14:38:23Z</time>
      </trkpt>
      <trkpt lat="49.88405" lon="2.17064">
        <ele>100.8</ele>
        <time>2022-01-12T14:38:24Z</time>
      </trkpt>
      <trkpt lat="49.88404" lon="2.17064">
        <ele>100.9</ele>
        <time>2022-01-12T14:38:25Z</time>
      </trkpt>
      <trkpt lat="49.88403" lon="2.17065">
        <ele>100.9</ele>
        <time>2022-01-12T14:38:26Z</time>
      </trkpt>
      <trkpt lat="49.88402" lon="2.17065">
        <ele>101</ele>
        <time>2022-01-12T14:38:27Z</time>
      </trkpt>
      <trkpt lat="49.88401" lon="2.17064">
        <ele>101.1</ele>
        <time>2022-01-12T14:38:28Z</time>
      </trkpt>
      <trkpt lat="49.88399" lon="2.17064">
        <ele>101.1</ele>
        <time>2022-01-12T14:38:30Z</time>
      </trkpt>
      <trkpt lat="49.88398" lon="2.17063">
        <ele>101.2</ele>
        <time>2022-01-12T14:38:31Z</time>
      </trkpt>
      <trkpt lat="49.88397" lon="2.17063">
        <ele>101.2</ele>
        <time>2022-01-12T14:38:32Z</time>
      </trkpt>
      <trkpt lat="49.88396" lon="2.17063">
        <ele>101.3</ele>
        <time>2022-01-12T14:38:33Z</time>
      </trkpt>
      <trkpt lat="49.88394" lon="2.17062">
        <ele>101.3</ele>
        <time>2022-01-12T14:38:34Z</time>
      </trkpt>
      <trkpt lat="49.88393" lon="2.17062">
        <ele>101.4</ele>
        <time>2022-01-12T14:38:36Z</time>
      </trkpt>
      <trkpt lat="49.88392" lon="2.17062">
        <ele>101.4</ele>
        <time>2022-01-12T14:38:37Z</time>
      </trkpt>
      <trkpt lat="49.8839" lon="2.17061">
        <ele>101.5</ele>
        <time>2022-01-12T14:38:38Z</time>
      </trkpt>
      <trkpt lat="49.88389" lon="2.17061">
        <ele>101.6</ele>
        <time>2022-01-12T14:38:40Z</time>
      </trkpt>
      <trkpt lat="49.88387" lon="2.17061">
        <ele>101.6</ele>
        <time>2022-01-12T14:38:41Z</time>
      </trkpt>
      <trkpt lat="49.88386" lon="2.1706">
        <ele>101.7</ele>
        <time>2022-01-12T14:38:43Z</time>
      </trkpt>
      <trkpt lat="49.88385" lon="2.1706">
        <ele>101.7</ele>
        <time>2022-01-12T14:38:44Z</time>
      </trkpt>
      <trkpt lat="49.88384" lon="2.1706">
        <ele>101.8</ele>
        <time>2022-01-12T14:38:45Z</time>
      </trkpt>
      <trkpt lat="49.88383" lon="2.1706">
        <ele>101.8</ele>
        <time>2022-01-12T14:38:46Z</time>
      </trkpt>
      <trkpt lat="49.88382" lon="2.17059">
        <ele>101.9</ele>
        <time>2022-01-12T14:38:47Z</time>
      </trkpt>
      <trkpt lat="49.8838" lon="2.17058">
        <ele>102</ele>
        <time>2022-01-12T14:38:49Z</time>
      </trkpt>
      <trkpt lat="49.88379" lon="2.17057">
        <ele>102</ele>
        <time>2022-01-12T14:38:50Z</time>
      </trkpt>
      <trkpt lat="49.88378" lon="2.17057">
        <ele>102</ele>
        <time>2022-01-12T14:38:51Z</time>
      </trkpt>
      <trkpt lat="49.88377" lon="2.17056">
        <ele>102.1</ele>
        <time>2022-01-12T14:38:52Z</time>
      </trkpt>
      <trkpt lat="49.88376" lon="2.17056">
        <ele>102.1</ele>
        <time>2022-01-12T14:38:53Z</time>
      </trkpt>
      <trkpt lat="49.88374" lon="2.17055">
        <ele>102.2</ele>
        <time>2022-01-12T14:38:55Z</time>
      </trkpt>
      <trkpt lat="49.88372" lon="2.17054">
        <ele>102.3</ele>
        <time>2022-01-12T14:38:56Z</time>
      </trkpt>
      <trkpt lat="49.88371" lon="2.17054">
        <ele>102.4</ele>
        <time>2022-01-12T14:38:58Z</time>
      </trkpt>
      <trkpt lat="49.8837" lon="2.17054">
        <ele>102.4</ele>
        <time>2022-01-12T14:38:59Z</time>
      </trkpt>
      <trkpt lat="49.88368" lon="2.17053">
        <ele>102.5</ele>
        <time>2022-01-12T14:39:01Z</time>
      </trkpt>
      <trkpt lat="49.88367" lon="2.17053">
        <ele>102.5</ele>
        <time>2022-01-12T14:39:02Z</time>
      </trkpt>
      <trkpt lat="49.88366" lon="2.17053">
        <ele>102.6</ele>
        <time>2022-01-12T14:39:04Z</time>
      </trkpt>
      <trkpt lat="49.88365" lon="2.17052">
        <ele>102.6</ele>
        <time>2022-01-12T14:39:05Z</time>
      </trkpt>
      <trkpt lat="49.88363" lon="2.17052">
        <ele>102.7</ele>
        <time>2022-01-12T14:39:07Z</time>
      </trkpt>
      <trkpt lat="49.88362" lon="2.17052">
        <ele>102.7</ele>
        <time>2022-01-12T14:39:08Z</time>
      </trkpt>
      <trkpt lat="49.88361" lon="2.17051">
        <ele>102.8</ele>
        <time>2022-01-12T14:39:09Z</time>
      </trkpt>
      <trkpt lat="49.8836" lon="2.17051">
        <ele>102.8</ele>
        <time>2022-01-12T14:39:10Z</time>
      </trkpt>
      <trkpt lat="49.88359" lon="2.1705">
        <ele>102.9</ele>
        <time>2022-01-12T14:39:11Z</time>
      </trkpt>
      <trkpt lat="49.88359" lon="2.1705">
        <ele>102.9</ele>
        <time>2022-01-12T14:39:12Z</time>
      </trkpt>
      <trkpt lat="49.88358" lon="2.17049">
        <ele>102.9</ele>
        <time>2022-01-12T14:39:14Z</time>
      </trkpt>
      <trkpt lat="49.88357" lon="2.17048">
        <ele>103</ele>
        <time>2022-01-12T14:39:15Z</time>
      </trkpt>
      <trkpt lat="49.88356" lon="2.17047">
        <ele>103</ele>
        <time>2022-01-12T14:39:16Z</time>
      </trkpt>
      <trkpt lat="49.88355" lon="2.17047">
        <ele>103.1</ele>
        <time>2022-01-12T14:39:17Z</time>
      </trkpt>
      <trkpt lat="49.88354" lon="2.17046">
        <ele>103.1</ele>
        <time>2022-01-12T14:39:19Z</time>
      </trkpt>
      <trkpt lat="49.88353" lon="2.17046">
        <ele>103.2</ele>
        <time>2022-01-12T14:39:20Z</time>
      </trkpt>
      <trkpt lat="49.88352" lon="2.17046">
        <ele>103.2</ele>
        <time>2022-01-12T14:39:21Z</time>
      </trkpt>
      <trkpt lat="49.88351" lon="2.17046">
        <ele>103.3</ele>
        <time>2022-01-12T14:39:22Z</time>
      </trkpt>
      <trkpt lat="49.8835" lon="2.17046">
        <ele>103.3</ele>
        <time>2022-01-12T14:39:24Z</time>
      </trkpt>
      <trkpt lat="49.88348" lon="2.17047">
        <ele>103.4</ele>
        <time>2022-01-12T14:39:25Z</time>
      </trkpt>
      <trkpt lat="49.88347" lon="2.17047">
        <ele>103.4</ele>
        <time>2022-01-12T14:39:26Z</time>
      </trkpt>
      <trkpt lat="49.88346" lon="2.17048">
        <ele>103.5</ele>
        <time>2022-01-12T14:39:27Z</time>
      </trkpt>
      <trkpt lat="49.88345" lon="2.17048">
        <ele>103.5</ele>
        <time>2022-01-12T14:39:28Z</time>
      </trkpt>
      <trkpt lat="49.88344" lon="2.17049">
        <ele>103.5</ele>
        <time>2022-01-12T14:39:29Z</time>
      </trkpt>
      <trkpt lat="49.88343" lon="2.17049">
        <ele>103.6</ele>
        <time>2022-01-12T14:39:30Z</time>
      </trkpt>
      <trkpt lat="49.88341" lon="2.17051">
        <ele>103.7</ele>
        <time>2022-01-12T14:39:32Z</time>
      </trkpt>
      <trkpt lat="49.88341" lon="2.17051">
        <ele>103.7</ele>
        <time>2022-01-12T14:39:33Z</time>
      </trkpt>
      <trkpt lat="49.8834" lon="2.17052">
        <ele>103.7</ele>
        <time>2022-01-12T14:39:34Z</time>
      </trkpt>
      <trkpt lat="49.88339" lon="2.17052">
        <ele>103.8</ele>
        <time>2022-01-12T14:39:35Z</time>
      </trkpt>
      <trkpt lat="49.88338" lon="2.17052">
        <ele>103.8</ele>
        <time>2022-01-12T14:39:36Z</time>
      </trkpt>
      <trkpt lat="49.88337" lon="2.17051">
        <ele>103.9</ele>
        <time>2022-01-12T14:39:38Z</time>
      </trkpt>
      <trkpt lat="49.88336" lon="2.17049">
        <ele>103.9</ele>
        <time>2022-01-12T14:39:39Z</time>
      </trkpt>
      <trkpt lat="49.88336" lon="2.17048">
        <ele>104</ele>
        <time>2022-01-12T14:39:40Z</time>
      </trkpt>
      <trkpt lat="49.88335" lon="2.17047">
        <ele>104</ele>
        <time>2022-01-12T14:39:41Z</time>
      </trkpt>
      <trkpt lat="49.88334" lon="2.17046">
        <ele>104</ele>
        <time>2022-01-12T14:39:42Z</time>
      </trkpt>
      <trkpt lat="49.88334" lon="2.17046">
        <ele>104</ele>
        <time>2022-01-12T14:39:43Z</time>
      </trkpt>
      <trkpt lat="49.88333" lon="2.17047">
        <ele>104.1</ele>
        <time>2022-01-12T14:39:45Z</time>
      </trkpt>
      <trkpt lat="49.88332" lon="2.17047">
        <ele>104.1</ele>
        <time>2022-01-12T14:39:46Z</time>
      </trkpt>
      <trkpt lat="49.88331" lon="2.17047">
        <ele>104.2</ele>
        <time>2022-01-12T14:39:47Z</time>
      </trkpt>
      <trkpt lat="49.8833" lon="2.17047">
        <ele>104.2</ele>
        <time>2022-01-12T14:39:48Z</time>
      </trkpt>
      <trkpt lat="49.88329" lon="2.17047">
        <ele>104.2</ele>
        <time>2022-01-12T14:39:50Z</time>
      </trkpt>
      <trkpt lat="49.88329" lon="2.17047">
        <ele>104.2</ele>
        <time>2022-01-12T14:39:52Z</time>
      </trkpt>
      <trkpt lat="49.88328" lon="2.17048">
        <ele>104.3</ele>
        <time>2022-01-12T14:39:53Z</time>
      </trkpt>
      <trkpt lat="49.88327" lon="2.17048">
        <ele>104.3</ele>
        <time>2022-01-12T14:39:54Z</time>
      </trkpt>
      <trkpt lat="49.88327" lon="2.17048">
        <ele>104.3</ele>
        <time>2022-01-12T14:39:55Z</time>
      </trkpt>
      <trkpt lat="49.88326" lon="2.17048">
        <ele>104.4</ele>
        <time>2022-01-12T14:39:56Z</time>
      </trkpt>
      <trkpt lat="49.88325" lon="2.17048">
        <ele>104.4</ele>
        <time>2022-01-12T14:39:57Z</time>
      </trkpt>
      <trkpt lat="49.88324" lon="2.17048">
        <ele>104.4</ele>
        <time>2022-01-12T14:39:59Z</time>
      </trkpt>
      <trkpt lat="49.88323" lon="2.17049">
        <ele>104.5</ele>
        <time>2022-01-12T14:40:00Z</time>
      </trkpt>
      <trkpt lat="49.88322" lon="2.17049">
        <ele>104.5</ele>
        <time>2022-01-12T14:40:01Z</time>
      </trkpt>
      <trkpt lat="49.88322" lon="2.17049">
        <ele>104.5</ele>
        <time>2022-01-12T14:40:02Z</time>
      </trkpt>
      <trkpt lat="49.88321" lon="2.17048">
        <ele>104.5</ele>
        <time>2022-01-12T14:40:04Z</time>
      </trkpt>
      <trkpt lat="49.8832" lon="2.17047">
        <ele>104.6</ele>
        <time>2022-01-12T14:40:05Z</time>
      </trkpt>
      <trkpt lat="49.8832" lon="2.17046">
        <ele>104.6</ele>
        <time>2022-01-12T14:40:06Z</time>
      </trkpt>
      <trkpt lat="49.88319" lon="2.17046">
        <ele>104.6</ele>
        <time>2022-01-12T14:40:07Z</time>
      </trkpt>
      <trkpt lat="49.88319" lon="2.17046">
        <ele>104.6</ele>
        <time>2022-01-12T14:40:09Z</time>
      </trkpt>
      <trkpt lat="49.88318" lon="2.17047">
        <ele>104.7</ele>
        <time>2022-01-12T14:40:10Z</time>
      </trkpt>
      <trkpt lat="49.88317" lon="2.17047">
        <ele>104.7</ele>
        <time>2022-01-12T14:40:12Z</time>
      </trkpt>
      <trkpt lat="49.88317" lon="2.17047">
        <ele>104.7</ele>
        <time>2022-01-12T14:40:13Z</time>
      </trkpt>
      <trkpt lat="49.88316" lon="2.17047">
        <ele>104.7</ele>
        <time>2022-01-12T14:40:15Z</time>
      </trkpt>
      <trkpt lat="49.88316" lon="2.17047">
        <ele>104.7</ele>
        <time>2022-01-12T14:40:16Z</time>
      </trkpt>
      <trkpt lat="49.88315" lon="2.17048">
        <ele>104.8</ele>
        <time>2022-01-12T14:40:18Z</time>
      </trkpt>
      <trkpt lat="49.88314" lon="2.17048">
        <ele>104.8</ele>
        <time>2022-01-12T14:40:19Z</time>
      </trkpt>
      <trkpt lat="49.88314" lon="2.17048">
        <ele>104.8</ele>
        <time>2022-01-12T14:40:20Z</time>
      </trkpt>
      <trkpt lat="49.88313" lon="2.17048">
        <ele>104.8</ele>
        <time>2022-01-12T14:40:22Z</time>
      </trkpt>
      <trkpt lat="49.88313" lon="2.17048">
        <ele>104.8</ele>
        <time>2022-01-12T14:40:23Z</time>
      </trkpt>
      <trkpt lat="49.88312" lon="2.17048">
        <ele>104.8</ele>
        <time>2022-01-12T14:40:25Z</time>
      </trkpt>
      <trkpt lat="49.88311" lon="2.17049">
        <ele>104.9</ele>
        <time>2022-01-12T14:40:26Z</time>
      </trkpt>
      <trkpt lat="49.88311" lon="2.17049">
        <ele>104.9</ele>
        <time>2022-01-12T14:40:27Z</time>
      </trkpt>
      <trkpt lat="49.8831" lon="2.17049">
        <ele>104.9</ele>
        <time>2022-01-12T14:40:28Z</time>
      </trkpt>
      <trkpt lat="49.88309" lon="2.1705">
        <ele>104.9</ele>
        <time>2022-01-12T14:40:29Z</time>
      </trkpt>
      <trkpt lat="49.88308" lon="2.17051">
        <ele>105</ele>
        <time>2022-01-12T14:40:30Z</time>
      </trkpt>
      <trkpt lat="49.88307" lon="2.17052">
        <ele>105</ele>
        <time>2022-01-12T14:40:31Z</time>
      </trkpt>
      <trkpt lat="49.88306" lon="2.17052">
        <ele>105</ele>
        <time>2022-01-12T14:40:32Z</time>
      </trkpt>
      <trkpt lat="49.88304" lon="2.17052">
        <ele>105.1</ele>
        <time>2022-01-12T14:40:34Z</time>
      </trkpt>
      <trkpt lat="49.88303" lon="2.17052">
        <ele>105.1</ele>
        <time>2022-01-12T14:40:35Z</time>
      </trkpt>
      <trkpt lat="49.88302" lon="2.17052">
        <ele>105.1</ele>
        <time>2022-01-12T14:40:36Z</time>
      </trkpt>
      <trkpt lat="49.88301" lon="2.17052">
        <ele>105.1</ele>
        <time>2022-01-12T14:40:38Z</time>
      </trkpt>
      <trkpt lat="49.883" lon="2.17052">
        <ele>105.1</ele>
        <time>2022-01-12T14:40:39Z</time>
      </trkpt>
      <trkpt lat="49.88299" lon="2.17052">
        <ele>105.2</ele>
        <time>2022-01-12T14:40:40Z</time>
      </trkpt>
      <trkpt lat="49.88298" lon="2.17052">
        <ele>105.2</ele>
        <time>2022-01-12T14:40:42Z</time>
      </trkpt>
      <trkpt lat="49.88297" lon="2.17052">
        <ele>105.2</ele>
        <time>2022-01-12T14:40:44Z</time>
      </trkpt>
      <trkpt lat="49.88296" lon="2.17052">
        <ele>105.2</ele>
        <time>2022-01-12T14:40:45Z</time>
      </trkpt>
      <trkpt lat="49.88295" lon="2.17052">
        <ele>105.2</ele>
        <time>2022-01-12T14:40:46Z</time>
      </trkpt>
      <trkpt lat="49.88294" lon="2.17053">
        <ele>105.3</ele>
        <time>2022-01-12T14:40:48Z</time>
      </trkpt>
      <trkpt lat="49.88293" lon="2.17054">
        <ele>105.3</ele>
        <time>2022-01-12T14:40:49Z</time>
      </trkpt>
      <trkpt lat="49.88292" lon="2.17054">
        <ele>105.3</ele>
        <time>2022-01-12T14:40:50Z</time>
      </trkpt>
      <trkpt lat="49.88291" lon="2.17054">
        <ele>105.3</ele>
        <time>2022-01-12T14:40:51Z</time>
      </trkpt>
      <trkpt lat="49.88289" lon="2.17054">
        <ele>105.4</ele>
        <time>2022-01-12T14:40:53Z</time>
      </trkpt>
      <trkpt lat="49.88288" lon="2.17054">
        <ele>105.4</ele>
        <time>2022-01-12T14:40:54Z</time>
      </trkpt>
      <trkpt lat="49.88287" lon="2.17055">
        <ele>105.4</ele>
        <time>2022-01-12T14:40:55Z</time>
      </trkpt>
      <trkpt lat="49.88286" lon="2.17055">
        <ele>105.4</ele>
        <time>2022-01-12T14:40:56Z</time>
      </trkpt>
      <trkpt lat="49.88285" lon="2.17055">
        <ele>105.5</ele>
        <time>2022-01-12T14:40:57Z</time>
      </trkpt>
      <trkpt lat="49.88282" lon="2.17056">
        <ele>105.5</ele>
        <time>2022-01-12T14:40:59Z</time>
      </trkpt>
      <trkpt lat="49.88282" lon="2.17056">
        <ele>105.5</ele>
        <time>2022-01-12T14:41:00Z</time>
      </trkpt>
      <trkpt lat="49.88281" lon="2.17056">
        <ele>105.5</ele>
        <time>2022-01-12T14:41:01Z</time>
      </trkpt>
      <trkpt lat="49.8828" lon="2.17056">
        <ele>105.5</ele>
        <time>2022-01-12T14:41:02Z</time>
      </trkpt>
      <trkpt lat="49.88279" lon="2.17056">
        <ele>105.5</ele>
        <time>2022-01-12T14:41:04Z</time>
      </trkpt>
      <trkpt lat="49.88278" lon="2.17056">
        <ele>105.6</ele>
        <time>2022-01-12T14:41:05Z</time>
      </trkpt>
      <trkpt lat="49.88277" lon="2.17057">
        <ele>105.6</ele>
        <time>2022-01-12T14:41:06Z</time>
      </trkpt>
      <trkpt lat="49.88276" lon="2.17057">
        <ele>105.6</ele>
        <time>2022-01-12T14:41:08Z</time>
      </trkpt>
      <trkpt lat="49.88275" lon="2.17057">
        <ele>105.6</ele>
        <time>2022-01-12T14:41:09Z</time>
      </trkpt>
      <trkpt lat="49.88273" lon="2.17058">
        <ele>105.6</ele>
        <time>2022-01-12T14:41:10Z</time>
      </trkpt>
      <trkpt lat="49.88272" lon="2.17058">
        <ele>105.7</ele>
        <time>2022-01-12T14:41:11Z</time>
      </trkpt>
      <trkpt lat="49.88271" lon="2.17058">
        <ele>105.7</ele>
        <time>2022-01-12T14:41:12Z</time>
      </trkpt>
      <trkpt lat="49.8827" lon="2.17058">
        <ele>105.7</ele>
        <time>2022-01-12T14:41:13Z</time>
      </trkpt>
      <trkpt lat="49.88269" lon="2.17058">
        <ele>105.7</ele>
        <time>2022-01-12T14:41:14Z</time>
      </trkpt>
      <trkpt lat="49.88268" lon="2.17057">
        <ele>105.7</ele>
        <time>2022-01-12T14:41:15Z</time>
      </trkpt>
      <trkpt lat="49.88267" lon="2.17057">
        <ele>105.7</ele>
        <time>2022-01-12T14:41:16Z</time>
      </trkpt>
      <trkpt lat="49.88266" lon="2.17057">
        <ele>105.8</ele>
        <time>2022-01-12T14:41:18Z</time>
      </trkpt>
      <trkpt lat="49.88265" lon="2.17057">
        <ele>105.8</ele>
        <time>2022-01-12T14:41:19Z</time>
      </trkpt>
      <trkpt lat="49.88263" lon="2.17057">
        <ele>105.8</ele>
        <time>2022-01-12T14:41:20Z</time>
      </trkpt>
      <trkpt lat="49.88262" lon="2.17057">
        <ele>105.8</ele>
        <time>2022-01-12T14:41:21Z</time>
      </trkpt>
      <trkpt lat="49.88261" lon="2.17057">
        <ele>105.9</ele>
        <time>2022-01-12T14:41:22Z</time>
      </trkpt>
      <trkpt lat="49.8826" lon="2.17057">
        <ele>105.9</ele>
        <time>2022-01-12T14:41:23Z</time>
      </trkpt>
      <trkpt lat="49.88258" lon="2.17057">
        <ele>105.9</ele>
        <time>2022-01-12T14:41:24Z</time>
      </trkpt>
      <trkpt lat="49.88257" lon="2.17056">
        <ele>105.9</ele>
        <time>2022-01-12T14:41:25Z</time>
      </trkpt>
      <trkpt lat="49.88256" lon="2.17056">
        <ele>105.9</ele>
        <time>2022-01-12T14:41:26Z</time>
      </trkpt>
      <trkpt lat="49.88255" lon="2.17055">
        <ele>106</ele>
        <time>2022-01-12T14:41:28Z</time>
      </trkpt>
      <trkpt lat="49.88253" lon="2.17054">
        <ele>106</ele>
        <time>2022-01-12T14:41:29Z</time>
      </trkpt>
      <trkpt lat="49.88252" lon="2.17054">
        <ele>106</ele>
        <time>2022-01-12T14:41:30Z</time>
      </trkpt>
      <trkpt lat="49.88251" lon="2.17054">
        <ele>106</ele>
        <time>2022-01-12T14:41:31Z</time>
      </trkpt>
      <trkpt lat="49.88249" lon="2.17053">
        <ele>106.1</ele>
        <time>2022-01-12T14:41:32Z</time>
      </trkpt>
      <trkpt lat="49.88248" lon="2.17053">
        <ele>106.1</ele>
        <time>2022-01-12T14:41:33Z</time>
      </trkpt>
      <trkpt lat="49.88247" lon="2.17052">
        <ele>106.1</ele>
        <time>2022-01-12T14:41:34Z</time>
      </trkpt>
      <trkpt lat="49.88246" lon="2.17052">
        <ele>106.1</ele>
        <time>2022-01-12T14:41:35Z</time>
      </trkpt>
      <trkpt lat="49.88245" lon="2.17052">
        <ele>106.1</ele>
        <time>2022-01-12T14:41:37Z</time>
      </trkpt>
      <trkpt lat="49.88244" lon="2.17051">
        <ele>106.1</ele>
        <time>2022-01-12T14:41:38Z</time>
      </trkpt>
      <trkpt lat="49.88242" lon="2.17051">
        <ele>106.2</ele>
        <time>2022-01-12T14:41:39Z</time>
      </trkpt>
      <trkpt lat="49.88241" lon="2.17051">
        <ele>106.2</ele>
        <time>2022-01-12T14:41:40Z</time>
      </trkpt>
      <trkpt lat="49.8824" lon="2.1705">
        <ele>106.2</ele>
        <time>2022-01-12T14:41:41Z</time>
      </trkpt>
      <trkpt lat="49.88239" lon="2.1705">
        <ele>106.2</ele>
        <time>2022-01-12T14:41:42Z</time>
      </trkpt>
      <trkpt lat="49.88238" lon="2.17049">
        <ele>106.2</ele>
        <time>2022-01-12T14:41:43Z</time>
      </trkpt>
      <trkpt lat="49.88237" lon="2.17049">
        <ele>106.2</ele>
        <time>2022-01-12T14:41:44Z</time>
      </trkpt>
      <trkpt lat="49.88235" lon="2.17048">
        <ele>106.3</ele>
        <time>2022-01-12T14:41:46Z</time>
      </trkpt>
      <trkpt lat="49.88234" lon="2.17048">
        <ele>106.3</ele>
        <time>2022-01-12T14:41:47Z</time>
      </trkpt>
      <trkpt lat="49.88234" lon="2.17048">
        <ele>106.3</ele>
        <time>2022-01-12T14:41:48Z</time>
      </trkpt>
      <trkpt lat="49.88233" lon="2.17047">
        <ele>106.3</ele>
        <time>2022-01-12T14:41:49Z</time>
      </trkpt>
      <trkpt lat="49.88231" lon="2.17047">
        <ele>106.3</ele>
        <time>2022-01-12T14:41:50Z</time>
      </trkpt>
      <trkpt lat="49.88231" lon="2.17047">
        <ele>106.3</ele>
        <time>2022-01-12T14:41:51Z</time>
      </trkpt>
      <trkpt lat="49.88229" lon="2.17046">
        <ele>106.3</ele>
        <time>2022-01-12T14:41:52Z</time>
      </trkpt>
      <trkpt lat="49.88229" lon="2.17046">
        <ele>106.3</ele>
        <time>2022-01-12T14:41:53Z</time>
      </trkpt>
      <trkpt lat="49.88227" lon="2.17045">
        <ele>106.4</ele>
        <time>2022-01-12T14:41:55Z</time>
      </trkpt>
      <trkpt lat="49.88225" lon="2.17044">
        <ele>106.4</ele>
        <time>2022-01-12T14:41:56Z</time>
      </trkpt>
      <trkpt lat="49.88224" lon="2.17044">
        <ele>106.4</ele>
        <time>2022-01-12T14:41:57Z</time>
      </trkpt>
      <trkpt lat="49.88223" lon="2.17044">
        <ele>106.4</ele>
        <time>2022-01-12T14:41:58Z</time>
      </trkpt>
      <trkpt lat="49.88222" lon="2.17043">
        <ele>106.4</ele>
        <time>2022-01-12T14:41:59Z</time>
      </trkpt>
      <trkpt lat="49.88221" lon="2.17042">
        <ele>106.4</ele>
        <time>2022-01-12T14:42:00Z</time>
      </trkpt>
      <trkpt lat="49.88219" lon="2.17041">
        <ele>106.5</ele>
        <time>2022-01-12T14:42:01Z</time>
      </trkpt>
      <trkpt lat="49.88218" lon="2.1704">
        <ele>106.5</ele>
        <time>2022-01-12T14:42:03Z</time>
      </trkpt>
      <trkpt lat="49.88217" lon="2.17039">
        <ele>106.5</ele>
        <time>2022-01-12T14:42:04Z</time>
      </trkpt>
      <trkpt lat="49.88216" lon="2.17038">
        <ele>106.5</ele>
        <time>2022-01-12T14:42:05Z</time>
      </trkpt>
      <trkpt lat="49.88215" lon="2.17038">
        <ele>106.5</ele>
        <time>2022-01-12T14:42:06Z</time>
      </trkpt>
      <trkpt lat="49.88213" lon="2.17037">
        <ele>106.5</ele>
        <time>2022-01-12T14:42:07Z</time>
      </trkpt>
      <trkpt lat="49.88212" lon="2.17036">
        <ele>106.6</ele>
        <time>2022-01-12T14:42:08Z</time>
      </trkpt>
      <trkpt lat="49.88211" lon="2.17036">
        <ele>106.6</ele>
        <time>2022-01-12T14:42:09Z</time>
      </trkpt>
      <trkpt lat="49.8821" lon="2.17034">
        <ele>106.6</ele>
        <time>2022-01-12T14:42:10Z</time>
      </trkpt>
      <trkpt lat="49.88209" lon="2.17033">
        <ele>106.6</ele>
        <time>2022-01-12T14:42:12Z</time>
      </trkpt>
      <trkpt lat="49.88208" lon="2.17032">
        <ele>106.6</ele>
        <time>2022-01-12T14:42:13Z</time>
      </trkpt>
      <trkpt lat="49.88208" lon="2.17031">
        <ele>106.6</ele>
        <time>2022-01-12T14:42:14Z</time>
      </trkpt>
      <trkpt lat="49.88207" lon="2.1703">
        <ele>106.7</ele>
        <time>2022-01-12T14:42:15Z</time>
      </trkpt>
      <trkpt lat="49.88206" lon="2.17029">
        <ele>106.7</ele>
        <time>2022-01-12T14:42:16Z</time>
      </trkpt>
      <trkpt lat="49.88205" lon="2.17029">
        <ele>106.7</ele>
        <time>2022-01-12T14:42:17Z</time>
      </trkpt>
      <trkpt lat="49.88204" lon="2.17029">
        <ele>106.7</ele>
        <time>2022-01-12T14:42:18Z</time>
      </trkpt>
      <trkpt lat="49.88203" lon="2.17029">
        <ele>106.7</ele>
        <time>2022-01-12T14:42:20Z</time>
      </trkpt>
      <trkpt lat="49.88202" lon="2.17029">
        <ele>106.7</ele>
        <time>2022-01-12T14:42:21Z</time>
      </trkpt>
      <trkpt lat="49.88201" lon="2.17029">
        <ele>106.7</ele>
        <time>2022-01-12T14:42:22Z</time>
      </trkpt>
      <trkpt lat="49.88199" lon="2.17029">
        <ele>106.8</ele>
        <time>2022-01-12T14:42:23Z</time>
      </trkpt>
      <trkpt lat="49.88198" lon="2.17028">
        <ele>106.8</ele>
        <time>2022-01-12T14:42:24Z</time>
      </trkpt>
      <trkpt lat="49.88197" lon="2.17028">
        <ele>106.8</ele>
        <time>2022-01-12T14:42:25Z</time>
      </trkpt>
      <trkpt lat="49.88196" lon="2.17027">
        <ele>106.8</ele>
        <time>2022-01-12T14:42:26Z</time>
      </trkpt>
      <trkpt lat="49.88195" lon="2.17026">
        <ele>106.8</ele>
        <time>2022-01-12T14:42:27Z</time>
      </trkpt>
      <trkpt lat="49.88194" lon="2.17025">
        <ele>106.8</ele>
        <time>2022-01-12T14:42:28Z</time>
      </trkpt>
      <trkpt lat="49.88193" lon="2.17024">
        <ele>106.9</ele>
        <time>2022-01-12T14:42:30Z</time>
      </trkpt>
      <trkpt lat="49.88192" lon="2.17023">
        <ele>106.9</ele>
        <time>2022-01-12T14:42:31Z</time>
      </trkpt>
      <trkpt lat="49.88191" lon="2.17022">
        <ele>106.9</ele>
        <time>2022-01-12T14:42:32Z</time>
      </trkpt>
      <trkpt lat="49.8819" lon="2.17021">
        <ele>106.9</ele>
        <time>2022-01-12T14:42:33Z</time>
      </trkpt>
      <trkpt lat="49.88189" lon="2.1702">
        <ele>106.9</ele>
        <time>2022-01-12T14:42:34Z</time>
      </trkpt>
      <trkpt lat="49.88188" lon="2.1702">
        <ele>107</ele>
        <time>2022-01-12T14:42:35Z</time>
      </trkpt>
      <trkpt lat="49.88187" lon="2.1702">
        <ele>107</ele>
        <time>2022-01-12T14:42:36Z</time>
      </trkpt>
      <trkpt lat="49.88185" lon="2.1702">
        <ele>107</ele>
        <time>2022-01-12T14:42:38Z</time>
      </trkpt>
      <trkpt lat="49.88184" lon="2.17021">
        <ele>106.9</ele>
        <time>2022-01-12T14:42:39Z</time>
      </trkpt>
      <trkpt lat="49.88183" lon="2.17022">
        <ele>106.9</ele>
        <time>2022-01-12T14:42:40Z</time>
      </trkpt>
      <trkpt lat="49.88183" lon="2.17025">
        <ele>106.8</ele>
        <time>2022-01-12T14:42:41Z</time>
      </trkpt>
      <trkpt lat="49.88182" lon="2.17026">
        <ele>106.8</ele>
        <time>2022-01-12T14:42:42Z</time>
      </trkpt>
      <trkpt lat="49.88182" lon="2.17028">
        <ele>106.8</ele>
        <time>2022-01-12T14:42:43Z</time>
      </trkpt>
      <trkpt lat="49.88182" lon="2.1703">
        <ele>106.8</ele>
        <time>2022-01-12T14:42:44Z</time>
      </trkpt>
      <trkpt lat="49.88181" lon="2.17032">
        <ele>106.7</ele>
        <time>2022-01-12T14:42:46Z</time>
      </trkpt>
      <trkpt lat="49.88181" lon="2.17034">
        <ele>106.7</ele>
        <time>2022-01-12T14:42:47Z</time>
      </trkpt>
      <trkpt lat="49.88181" lon="2.17037">
        <ele>106.6</ele>
        <time>2022-01-12T14:42:48Z</time>
      </trkpt>
      <trkpt lat="49.88181" lon="2.1704">
        <ele>106.6</ele>
        <time>2022-01-12T14:42:49Z</time>
      </trkpt>
      <trkpt lat="49.88181" lon="2.17041">
        <ele>106.6</ele>
        <time>2022-01-12T14:42:50Z</time>
      </trkpt>
      <trkpt lat="49.88181" lon="2.17043">
        <ele>106.5</ele>
        <time>2022-01-12T14:42:51Z</time>
      </trkpt>
      <trkpt lat="49.88181" lon="2.17045">
        <ele>106.5</ele>
        <time>2022-01-12T14:42:52Z</time>
      </trkpt>
      <trkpt lat="49.88181" lon="2.17047">
        <ele>106.5</ele>
        <time>2022-01-12T14:42:53Z</time>
      </trkpt>
      <trkpt lat="49.88181" lon="2.17049">
        <ele>106.4</ele>
        <time>2022-01-12T14:42:55Z</time>
      </trkpt>
      <trkpt lat="49.88182" lon="2.17052">
        <ele>106.4</ele>
        <time>2022-01-12T14:42:56Z</time>
      </trkpt>
      <trkpt lat="49.88182" lon="2.17054">
        <ele>106.4</ele>
        <time>2022-01-12T14:42:57Z</time>
      </trkpt>
      <trkpt lat="49.88182" lon="2.17057">
        <ele>106.3</ele>
        <time>2022-01-12T14:42:58Z</time>
      </trkpt>
      <trkpt lat="49.88182" lon="2.17058">
        <ele>106.3</ele>
        <time>2022-01-12T14:42:59Z</time>
      </trkpt>
      <trkpt lat="49.88182" lon="2.1706">
        <ele>106.3</ele>
        <time>2022-01-12T14:43:00Z</time>
      </trkpt>
      <trkpt lat="49.88181" lon="2.17062">
        <ele>106.2</ele>
        <time>2022-01-12T14:43:01Z</time>
      </trkpt>
      <trkpt lat="49.88181" lon="2.17064">
        <ele>106.2</ele>
        <time>2022-01-12T14:43:02Z</time>
      </trkpt>
      <trkpt lat="49.88181" lon="2.17068">
        <ele>106.1</ele>
        <time>2022-01-12T14:43:03Z</time>
      </trkpt>
      <trkpt lat="49.88181" lon="2.1707">
        <ele>106.1</ele>
        <time>2022-01-12T14:43:05Z</time>
      </trkpt>
      <trkpt lat="49.88181" lon="2.17071">
        <ele>106.1</ele>
        <time>2022-01-12T14:43:06Z</time>
      </trkpt>
      <trkpt lat="49.88181" lon="2.17073">
        <ele>106.1</ele>
        <time>2022-01-12T14:43:07Z</time>
      </trkpt>
      <trkpt lat="49.88181" lon="2.17074">
        <ele>106</ele>
        <time>2022-01-12T14:43:08Z</time>
      </trkpt>
      <trkpt lat="49.88181" lon="2.17078">
        <ele>106</ele>
        <time>2022-01-12T14:43:09Z</time>
      </trkpt>
      <trkpt lat="49.88181" lon="2.17079">
        <ele>106</ele>
        <time>2022-01-12T14:43:10Z</time>
      </trkpt>
      <trkpt lat="49.88181" lon="2.1708">
        <ele>105.9</ele>
        <time>2022-01-12T14:43:11Z</time>
      </trkpt>
      <trkpt lat="49.88181" lon="2.17082">
        <ele>105.9</ele>
        <time>2022-01-12T14:43:12Z</time>
      </trkpt>
      <trkpt lat="49.8818" lon="2.17085">
        <ele>105.9</ele>
        <time>2022-01-12T14:43:14Z</time>
      </trkpt>
      <trkpt lat="49.8818" lon="2.17087">
        <ele>105.8</ele>
        <time>2022-01-12T14:43:15Z</time>
      </trkpt>
      <trkpt lat="49.8818" lon="2.1709">
        <ele>105.8</ele>
        <time>2022-01-12T14:43:16Z</time>
      </trkpt>
      <trkpt lat="49.8818" lon="2.17091">
        <ele>105.8</ele>
        <time>2022-01-12T14:43:17Z</time>
      </trkpt>
      <trkpt lat="49.8818" lon="2.17093">
        <ele>105.8</ele>
        <time>2022-01-12T14:43:18Z</time>
      </trkpt>
      <trkpt lat="49.8818" lon="2.17095">
        <ele>105.7</ele>
        <time>2022-01-12T14:43:19Z</time>
      </trkpt>
      <trkpt lat="49.8818" lon="2.17098">
        <ele>105.7</ele>
        <time>2022-01-12T14:43:21Z</time>
      </trkpt>
      <trkpt lat="49.8818" lon="2.17099">
        <ele>105.7</ele>
        <time>2022-01-12T14:43:22Z</time>
      </trkpt>
      <trkpt lat="49.8818" lon="2.17101">
        <ele>105.6</ele>
        <time>2022-01-12T14:43:23Z</time>
      </trkpt>
      <trkpt lat="49.8818" lon="2.17103">
        <ele>105.6</ele>
        <time>2022-01-12T14:43:24Z</time>
      </trkpt>
      <trkpt lat="49.8818" lon="2.17106">
        <ele>105.6</ele>
        <time>2022-01-12T14:43:26Z</time>
      </trkpt>
      <trkpt lat="49.8818" lon="2.17107">
        <ele>105.6</ele>
        <time>2022-01-12T14:43:27Z</time>
      </trkpt>
      <trkpt lat="49.8818" lon="2.17109">
        <ele>105.5</ele>
        <time>2022-01-12T14:43:28Z</time>
      </trkpt>
      <trkpt lat="49.8818" lon="2.1711">
        <ele>105.5</ele>
        <time>2022-01-12T14:43:29Z</time>
      </trkpt>
      <trkpt lat="49.8818" lon="2.17112">
        <ele>105.5</ele>
        <time>2022-01-12T14:43:30Z</time>
      </trkpt>
      <trkpt lat="49.8818" lon="2.17114">
        <ele>105.5</ele>
        <time>2022-01-12T14:43:31Z</time>
      </trkpt>
      <trkpt lat="49.8818" lon="2.17116">
        <ele>105.5</ele>
        <time>2022-01-12T14:43:33Z</time>
      </trkpt>
      <trkpt lat="49.8818" lon="2.17119">
        <ele>105.4</ele>
        <time>2022-01-12T14:43:34Z</time>
      </trkpt>
      <trkpt lat="49.8818" lon="2.17121">
        <ele>105.4</ele>
        <time>2022-01-12T14:43:35Z</time>
      </trkpt>
      <trkpt lat="49.8818" lon="2.17122">
        <ele>105.4</ele>
        <time>2022-01-12T14:43:36Z</time>
      </trkpt>
      <trkpt lat="49.8818" lon="2.17125">
        <ele>105.3</ele>
        <time>2022-01-12T14:43:37Z</time>
      </trkpt>
      <trkpt lat="49.8818" lon="2.17127">
        <ele>105.3</ele>
        <time>2022-01-12T14:43:38Z</time>
      </trkpt>
      <trkpt lat="49.88179" lon="2.17128">
        <ele>105.3</ele>
        <time>2022-01-12T14:43:39Z</time>
      </trkpt>
      <trkpt lat="49.88179" lon="2.1713">
        <ele>105.3</ele>
        <time>2022-01-12T14:43:40Z</time>
      </trkpt>
      <trkpt lat="49.88179" lon="2.17132">
        <ele>105.2</ele>
        <time>2022-01-12T14:43:41Z</time>
      </trkpt>
      <trkpt lat="49.88179" lon="2.17136">
        <ele>105.2</ele>
        <time>2022-01-12T14:43:42Z</time>
      </trkpt>
      <trkpt lat="49.88179" lon="2.17137">
        <ele>105.2</ele>
        <time>2022-01-12T14:43:43Z</time>
      </trkpt>
      <trkpt lat="49.88178" lon="2.17138">
        <ele>105.2</ele>
        <time>2022-01-12T14:43:44Z</time>
      </trkpt>
      <trkpt lat="49.88178" lon="2.17141">
        <ele>105.1</ele>
        <time>2022-01-12T14:43:45Z</time>
      </trkpt>
      <trkpt lat="49.88178" lon="2.17143">
        <ele>105.1</ele>
        <time>2022-01-12T14:43:47Z</time>
      </trkpt>
      <trkpt lat="49.88178" lon="2.17144">
        <ele>105.1</ele>
        <time>2022-01-12T14:43:48Z</time>
      </trkpt>
      <trkpt lat="49.88178" lon="2.17147">
        <ele>105</ele>
        <time>2022-01-12T14:43:49Z</time>
      </trkpt>
      <trkpt lat="49.88178" lon="2.17149">
        <ele>105</ele>
        <time>2022-01-12T14:43:50Z</time>
      </trkpt>
      <trkpt lat="49.88178" lon="2.1715">
        <ele>105</ele>
        <time>2022-01-12T14:43:51Z</time>
      </trkpt>
      <trkpt lat="49.88177" lon="2.17153">
        <ele>104.9</ele>
        <time>2022-01-12T14:43:52Z</time>
      </trkpt>
      <trkpt lat="49.88177" lon="2.17154">
        <ele>104.9</ele>
        <time>2022-01-12T14:43:53Z</time>
      </trkpt>
      <trkpt lat="49.88177" lon="2.17156">
        <ele>104.9</ele>
        <time>2022-01-12T14:43:54Z</time>
      </trkpt>
      <trkpt lat="49.88177" lon="2.17158">
        <ele>104.9</ele>
        <time>2022-01-12T14:43:55Z</time>
      </trkpt>
      <trkpt lat="49.88176" lon="2.17159">
        <ele>104.9</ele>
        <time>2022-01-12T14:43:56Z</time>
      </trkpt>
      <trkpt lat="49.88176" lon="2.17161">
        <ele>104.8</ele>
        <time>2022-01-12T14:43:57Z</time>
      </trkpt>
      <trkpt lat="49.88176" lon="2.17163">
        <ele>104.8</ele>
        <time>2022-01-12T14:43:59Z</time>
      </trkpt>
      <trkpt lat="49.88175" lon="2.17165">
        <ele>104.8</ele>
        <time>2022-01-12T14:44:00Z</time>
      </trkpt>
      <trkpt lat="49.88175" lon="2.17166">
        <ele>104.7</ele>
        <time>2022-01-12T14:44:01Z</time>
      </trkpt>
      <trkpt lat="49.88175" lon="2.17168">
        <ele>104.7</ele>
        <time>2022-01-12T14:44:02Z</time>
      </trkpt>
      <trkpt lat="49.88175" lon="2.17172">
        <ele>104.7</ele>
        <time>2022-01-12T14:44:04Z</time>
      </trkpt>
      <trkpt lat="49.88174" lon="2.17175">
        <ele>104.6</ele>
        <time>2022-01-12T14:44:05Z</time>
      </trkpt>
      <trkpt lat="49.88174" lon="2.17176">
        <ele>104.6</ele>
        <time>2022-01-12T14:44:06Z</time>
      </trkpt>
      <trkpt lat="49.88174" lon="2.17177">
        <ele>104.6</ele>
        <time>2022-01-12T14:44:07Z</time>
      </trkpt>
      <trkpt lat="49.88174" lon="2.17179">
        <ele>104.6</ele>
        <time>2022-01-12T14:44:08Z</time>
      </trkpt>
      <trkpt lat="49.88174" lon="2.1718">
        <ele>104.5</ele>
        <time>2022-01-12T14:44:10Z</time>
      </trkpt>
      <trkpt lat="49.88174" lon="2.17182">
        <ele>104.5</ele>
        <time>2022-01-12T14:44:11Z</time>
      </trkpt>
      <trkpt lat="49.88174" lon="2.17186">
        <ele>104.5</ele>
        <time>2022-01-12T14:44:12Z</time>
      </trkpt>
      <trkpt lat="49.88173" lon="2.17187">
        <ele>104.5</ele>
        <time>2022-01-12T14:44:13Z</time>
      </trkpt>
      <trkpt lat="49.88173" lon="2.17188">
        <ele>104.4</ele>
        <time>2022-01-12T14:44:14Z</time>
      </trkpt>
      <trkpt lat="49.88173" lon="2.1719">
        <ele>104.4</ele>
        <time>2022-01-12T14:44:15Z</time>
      </trkpt>
      <trkpt lat="49.88173" lon="2.17192">
        <ele>104.4</ele>
        <time>2022-01-12T14:44:16Z</time>
      </trkpt>
      <trkpt lat="49.88173" lon="2.17194">
        <ele>104.4</ele>
        <time>2022-01-12T14:44:18Z</time>
      </trkpt>
      <trkpt lat="49.88173" lon="2.17196">
        <ele>104.3</ele>
        <time>2022-01-12T14:44:19Z</time>
      </trkpt>
      <trkpt lat="49.88173" lon="2.17199">
        <ele>104.3</ele>
        <time>2022-01-12T14:44:20Z</time>
      </trkpt>
      <trkpt lat="49.88173" lon="2.17201">
        <ele>104.3</ele>
        <time>2022-01-12T14:44:21Z</time>
      </trkpt>
      <trkpt lat="49.88173" lon="2.17203">
        <ele>104.2</ele>
        <time>2022-01-12T14:44:22Z</time>
      </trkpt>
      <trkpt lat="49.88172" lon="2.17205">
        <ele>104.2</ele>
        <time>2022-01-12T14:44:23Z</time>
      </trkpt>
      <trkpt lat="49.88172" lon="2.17207">
        <ele>104.2</ele>
        <time>2022-01-12T14:44:24Z</time>
      </trkpt>
      <trkpt lat="49.88172" lon="2.1721">
        <ele>104.1</ele>
        <time>2022-01-12T14:44:26Z</time>
      </trkpt>
      <trkpt lat="49.88171" lon="2.17212">
        <ele>104.1</ele>
        <time>2022-01-12T14:44:27Z</time>
      </trkpt>
      <trkpt lat="49.88171" lon="2.17214">
        <ele>104.1</ele>
        <time>2022-01-12T14:44:28Z</time>
      </trkpt>
      <trkpt lat="49.88171" lon="2.17217">
        <ele>104</ele>
        <time>2022-01-12T14:44:29Z</time>
      </trkpt>
      <trkpt lat="49.88171" lon="2.17219">
        <ele>104</ele>
        <time>2022-01-12T14:44:30Z</time>
      </trkpt>
      <trkpt lat="49.88171" lon="2.1722">
        <ele>104</ele>
        <time>2022-01-12T14:44:31Z</time>
      </trkpt>
      <trkpt lat="49.88171" lon="2.17222">
        <ele>103.9</ele>
        <time>2022-01-12T14:44:32Z</time>
      </trkpt>
      <trkpt lat="49.88171" lon="2.17224">
        <ele>103.9</ele>
        <time>2022-01-12T14:44:33Z</time>
      </trkpt>
      <trkpt lat="49.88171" lon="2.17227">
        <ele>103.8</ele>
        <time>2022-01-12T14:44:34Z</time>
      </trkpt>
      <trkpt lat="49.88171" lon="2.17228">
        <ele>103.8</ele>
        <time>2022-01-12T14:44:36Z</time>
      </trkpt>
      <trkpt lat="49.88171" lon="2.1723">
        <ele>103.8</ele>
        <time>2022-01-12T14:44:37Z</time>
      </trkpt>
      <trkpt lat="49.88171" lon="2.17233">
        <ele>103.7</ele>
        <time>2022-01-12T14:44:38Z</time>
      </trkpt>
      <trkpt lat="49.88171" lon="2.17234">
        <ele>103.7</ele>
        <time>2022-01-12T14:44:39Z</time>
      </trkpt>
      <trkpt lat="49.88171" lon="2.17235">
        <ele>103.7</ele>
        <time>2022-01-12T14:44:40Z</time>
      </trkpt>
      <trkpt lat="49.88171" lon="2.17239">
        <ele>103.6</ele>
        <time>2022-01-12T14:44:41Z</time>
      </trkpt>
      <trkpt lat="49.88171" lon="2.1724">
        <ele>103.6</ele>
        <time>2022-01-12T14:44:42Z</time>
      </trkpt>
      <trkpt lat="49.8817" lon="2.17241">
        <ele>103.6</ele>
        <time>2022-01-12T14:44:43Z</time>
      </trkpt>
      <trkpt lat="49.8817" lon="2.17242">
        <ele>103.5</ele>
        <time>2022-01-12T14:44:44Z</time>
      </trkpt>
      <trkpt lat="49.8817" lon="2.17244">
        <ele>103.5</ele>
        <time>2022-01-12T14:44:45Z</time>
      </trkpt>
      <trkpt lat="49.8817" lon="2.17247">
        <ele>103.4</ele>
        <time>2022-01-12T14:44:47Z</time>
      </trkpt>
      <trkpt lat="49.8817" lon="2.17249">
        <ele>103.4</ele>
        <time>2022-01-12T14:44:48Z</time>
      </trkpt>
      <trkpt lat="49.8817" lon="2.17251">
        <ele>103.3</ele>
        <time>2022-01-12T14:44:49Z</time>
      </trkpt>
      <trkpt lat="49.8817" lon="2.17254">
        <ele>103.3</ele>
        <time>2022-01-12T14:44:51Z</time>
      </trkpt>
      <trkpt lat="49.8817" lon="2.17257">
        <ele>103.2</ele>
        <time>2022-01-12T14:44:52Z</time>
      </trkpt>
      <trkpt lat="49.8817" lon="2.17258">
        <ele>103.2</ele>
        <time>2022-01-12T14:44:53Z</time>
      </trkpt>
      <trkpt lat="49.8817" lon="2.17259">
        <ele>103.2</ele>
        <time>2022-01-12T14:44:54Z</time>
      </trkpt>
      <trkpt lat="49.8817" lon="2.17262">
        <ele>103.1</ele>
        <time>2022-01-12T14:44:55Z</time>
      </trkpt>
      <trkpt lat="49.8817" lon="2.17264">
        <ele>103.1</ele>
        <time>2022-01-12T14:44:56Z</time>
      </trkpt>
      <trkpt lat="49.8817" lon="2.17266">
        <ele>103</ele>
        <time>2022-01-12T14:44:57Z</time>
      </trkpt>
      <trkpt lat="49.8817" lon="2.17267">
        <ele>103</ele>
        <time>2022-01-12T14:44:58Z</time>
      </trkpt>
      <trkpt lat="49.8817" lon="2.17269">
        <ele>103</ele>
        <time>2022-01-12T14:44:59Z</time>
      </trkpt>
      <trkpt lat="49.8817" lon="2.17271">
        <ele>102.9</ele>
        <time>2022-01-12T14:45:01Z</time>
      </trkpt>
      <trkpt lat="49.88169" lon="2.17274">
        <ele>102.9</ele>
        <time>2022-01-12T14:45:02Z</time>
      </trkpt>
      <trkpt lat="49.88169" lon="2.17276">
        <ele>102.8</ele>
        <time>2022-01-12T14:45:03Z</time>
      </trkpt>
      <trkpt lat="49.88169" lon="2.17278">
        <ele>102.8</ele>
        <time>2022-01-12T14:45:04Z</time>
      </trkpt>
      <trkpt lat="49.88169" lon="2.17282">
        <ele>102.7</ele>
        <time>2022-01-12T14:45:05Z</time>
      </trkpt>
      <trkpt lat="49.88169" lon="2.17284">
        <ele>102.7</ele>
        <time>2022-01-12T14:45:07Z</time>
      </trkpt>
      <trkpt lat="49.88169" lon="2.17285">
        <ele>102.6</ele>
        <time>2022-01-12T14:45:08Z</time>
      </trkpt>
      <trkpt lat="49.88169" lon="2.17287">
        <ele>102.6</ele>
        <time>2022-01-12T14:45:09Z</time>
      </trkpt>
      <trkpt lat="49.88169" lon="2.17289">
        <ele>102.5</ele>
        <time>2022-01-12T14:45:10Z</time>
      </trkpt>
      <trkpt lat="49.88169" lon="2.17291">
        <ele>102.5</ele>
        <time>2022-01-12T14:45:11Z</time>
      </trkpt>
      <trkpt lat="49.88169" lon="2.17293">
        <ele>102.4</ele>
        <time>2022-01-12T14:45:12Z</time>
      </trkpt>
      <trkpt lat="49.88169" lon="2.17296">
        <ele>102.4</ele>
        <time>2022-01-12T14:45:14Z</time>
      </trkpt>
      <trkpt lat="49.88169" lon="2.17298">
        <ele>102.3</ele>
        <time>2022-01-12T14:45:15Z</time>
      </trkpt>
      <trkpt lat="49.88169" lon="2.17301">
        <ele>102.3</ele>
        <time>2022-01-12T14:45:17Z</time>
      </trkpt>
      <trkpt lat="49.88168" lon="2.17303">
        <ele>102.2</ele>
        <time>2022-01-12T14:45:18Z</time>
      </trkpt>
      <trkpt lat="49.88168" lon="2.17305">
        <ele>102.2</ele>
        <time>2022-01-12T14:45:19Z</time>
      </trkpt>
      <trkpt lat="49.88168" lon="2.17307">
        <ele>102.1</ele>
        <time>2022-01-12T14:45:20Z</time>
      </trkpt>
      <trkpt lat="49.88168" lon="2.1731">
        <ele>102</ele>
        <time>2022-01-12T14:45:21Z</time>
      </trkpt>
      <trkpt lat="49.88168" lon="2.17313">
        <ele>102</ele>
        <time>2022-01-12T14:45:22Z</time>
      </trkpt>
      <trkpt lat="49.88168" lon="2.17314">
        <ele>101.9</ele>
        <time>2022-01-12T14:45:23Z</time>
      </trkpt>
      <trkpt lat="49.88168" lon="2.17316">
        <ele>101.9</ele>
        <time>2022-01-12T14:45:24Z</time>
      </trkpt>
      <trkpt lat="49.88168" lon="2.17318">
        <ele>101.8</ele>
        <time>2022-01-12T14:45:25Z</time>
      </trkpt>
      <trkpt lat="49.88168" lon="2.17319">
        <ele>101.8</ele>
        <time>2022-01-12T14:45:26Z</time>
      </trkpt>
      <trkpt lat="49.88168" lon="2.17321">
        <ele>101.7</ele>
        <time>2022-01-12T14:45:27Z</time>
      </trkpt>
      <trkpt lat="49.88168" lon="2.17325">
        <ele>101.6</ele>
        <time>2022-01-12T14:45:29Z</time>
      </trkpt>
      <trkpt lat="49.88168" lon="2.17326">
        <ele>101.6</ele>
        <time>2022-01-12T14:45:30Z</time>
      </trkpt>
      <trkpt lat="49.88168" lon="2.17327">
        <ele>101.6</ele>
        <time>2022-01-12T14:45:31Z</time>
      </trkpt>
      <trkpt lat="49.88167" lon="2.17331">
        <ele>101.4</ele>
        <time>2022-01-12T14:45:32Z</time>
      </trkpt>
      <trkpt lat="49.88167" lon="2.17333">
        <ele>101.4</ele>
        <time>2022-01-12T14:45:34Z</time>
      </trkpt>
      <trkpt lat="49.88167" lon="2.17335">
        <ele>101.3</ele>
        <time>2022-01-12T14:45:35Z</time>
      </trkpt>
      <trkpt lat="49.88166" lon="2.17337">
        <ele>101.3</ele>
        <time>2022-01-12T14:45:36Z</time>
      </trkpt>
      <trkpt lat="49.88166" lon="2.17338">
        <ele>101.2</ele>
        <time>2022-01-12T14:45:37Z</time>
      </trkpt>
      <trkpt lat="49.88166" lon="2.17339">
        <ele>101.2</ele>
        <time>2022-01-12T14:45:38Z</time>
      </trkpt>
      <trkpt lat="49.88166" lon="2.17341">
        <ele>101.1</ele>
        <time>2022-01-12T14:45:40Z</time>
      </trkpt>
      <trkpt lat="49.88165" lon="2.17343">
        <ele>101</ele>
        <time>2022-01-12T14:45:41Z</time>
      </trkpt>
      <trkpt lat="49.88165" lon="2.17347">
        <ele>100.9</ele>
        <time>2022-01-12T14:45:42Z</time>
      </trkpt>
      <trkpt lat="49.88165" lon="2.17349">
        <ele>100.9</ele>
        <time>2022-01-12T14:45:44Z</time>
      </trkpt>
      <trkpt lat="49.88165" lon="2.17351">
        <ele>100.8</ele>
        <time>2022-01-12T14:45:45Z</time>
      </trkpt>
      <trkpt lat="49.88165" lon="2.17353">
        <ele>100.7</ele>
        <time>2022-01-12T14:45:46Z</time>
      </trkpt>
      <trkpt lat="49.88165" lon="2.17354">
        <ele>100.7</ele>
        <time>2022-01-12T14:45:47Z</time>
      </trkpt>
      <trkpt lat="49.88165" lon="2.17357">
        <ele>100.6</ele>
        <time>2022-01-12T14:45:48Z</time>
      </trkpt>
      <trkpt lat="49.88165" lon="2.17359">
        <ele>100.5</ele>
        <time>2022-01-12T14:45:49Z</time>
      </trkpt>
      <trkpt lat="49.88164" lon="2.1736">
        <ele>100.5</ele>
        <time>2022-01-12T14:45:50Z</time>
      </trkpt>
      <trkpt lat="49.88164" lon="2.17363">
        <ele>100.4</ele>
        <time>2022-01-12T14:45:51Z</time>
      </trkpt>
      <trkpt lat="49.88164" lon="2.17365">
        <ele>100.4</ele>
        <time>2022-01-12T14:45:52Z</time>
      </trkpt>
      <trkpt lat="49.88163" lon="2.17366">
        <ele>100.3</ele>
        <time>2022-01-12T14:45:53Z</time>
      </trkpt>
      <trkpt lat="49.88163" lon="2.17368">
        <ele>100.3</ele>
        <time>2022-01-12T14:45:54Z</time>
      </trkpt>
      <trkpt lat="49.88163" lon="2.1737">
        <ele>100.2</ele>
        <time>2022-01-12T14:45:56Z</time>
      </trkpt>
      <trkpt lat="49.88163" lon="2.17372">
        <ele>100.1</ele>
        <time>2022-01-12T14:45:57Z</time>
      </trkpt>
      <trkpt lat="49.88162" lon="2.17374">
        <ele>100.1</ele>
        <time>2022-01-12T14:45:58Z</time>
      </trkpt>
      <trkpt lat="49.88162" lon="2.17378">
        <ele>100</ele>
        <time>2022-01-12T14:45:59Z</time>
      </trkpt>
      <trkpt lat="49.88162" lon="2.1738">
        <ele>99.9</ele>
        <time>2022-01-12T14:46:01Z</time>
      </trkpt>
      <trkpt lat="49.88162" lon="2.17382">
        <ele>99.9</ele>
        <time>2022-01-12T14:46:02Z</time>
      </trkpt>
      <trkpt lat="49.88162" lon="2.17383">
        <ele>99.8</ele>
        <time>2022-01-12T14:46:03Z</time>
      </trkpt>
      <trkpt lat="49.88161" lon="2.17385">
        <ele>99.8</ele>
        <time>2022-01-12T14:46:04Z</time>
      </trkpt>
      <trkpt lat="49.88162" lon="2.17388">
        <ele>99.7</ele>
        <time>2022-01-12T14:46:05Z</time>
      </trkpt>
      <trkpt lat="49.88162" lon="2.1739">
        <ele>99.6</ele>
        <time>2022-01-12T14:46:06Z</time>
      </trkpt>
      <trkpt lat="49.88162" lon="2.17391">
        <ele>99.6</ele>
        <time>2022-01-12T14:46:08Z</time>
      </trkpt>
      <trkpt lat="49.88162" lon="2.17393">
        <ele>99.5</ele>
        <time>2022-01-12T14:46:09Z</time>
      </trkpt>
      <trkpt lat="49.88162" lon="2.17394">
        <ele>99.5</ele>
        <time>2022-01-12T14:46:10Z</time>
      </trkpt>
      <trkpt lat="49.88162" lon="2.17396">
        <ele>99.4</ele>
        <time>2022-01-12T14:46:11Z</time>
      </trkpt>
      <trkpt lat="49.88162" lon="2.17397">
        <ele>99.4</ele>
        <time>2022-01-12T14:46:12Z</time>
      </trkpt>
      <trkpt lat="49.88162" lon="2.17399">
        <ele>99.3</ele>
        <time>2022-01-12T14:46:13Z</time>
      </trkpt>
      <trkpt lat="49.88162" lon="2.17401">
        <ele>99.3</ele>
        <time>2022-01-12T14:46:15Z</time>
      </trkpt>
      <trkpt lat="49.88162" lon="2.17402">
        <ele>99.2</ele>
        <time>2022-01-12T14:46:16Z</time>
      </trkpt>
      <trkpt lat="49.88162" lon="2.17404">
        <ele>99.2</ele>
        <time>2022-01-12T14:46:17Z</time>
      </trkpt>
      <trkpt lat="49.88162" lon="2.17406">
        <ele>99.1</ele>
        <time>2022-01-12T14:46:18Z</time>
      </trkpt>
      <trkpt lat="49.88162" lon="2.17408">
        <ele>99</ele>
        <time>2022-01-12T14:46:19Z</time>
      </trkpt>
      <trkpt lat="49.88162" lon="2.17409">
        <ele>99</ele>
        <time>2022-01-12T14:46:20Z</time>
      </trkpt>
      <trkpt lat="49.88162" lon="2.1741">
        <ele>99</ele>
        <time>2022-01-12T14:46:22Z</time>
      </trkpt>
      <trkpt lat="49.88162" lon="2.17411">
        <ele>98.9</ele>
        <time>2022-01-12T14:46:23Z</time>
      </trkpt>
      <trkpt lat="49.88162" lon="2.17412">
        <ele>98.9</ele>
        <time>2022-01-12T14:46:24Z</time>
      </trkpt>
      <trkpt lat="49.88162" lon="2.17414">
        <ele>98.9</ele>
        <time>2022-01-12T14:46:25Z</time>
      </trkpt>
      <trkpt lat="49.88162" lon="2.17415">
        <ele>98.8</ele>
        <time>2022-01-12T14:46:27Z</time>
      </trkpt>
      <trkpt lat="49.88161" lon="2.17416">
        <ele>98.8</ele>
        <time>2022-01-12T14:46:28Z</time>
      </trkpt>
      <trkpt lat="49.8816" lon="2.17414">
        <ele>98.7</ele>
        <time>2022-01-12T14:46:30Z</time>
      </trkpt>
      <trkpt lat="49.8816" lon="2.17412">
        <ele>98.7</ele>
        <time>2022-01-12T14:46:32Z</time>
      </trkpt>
      <trkpt lat="49.8816" lon="2.17412">
        <ele>98.6</ele>
        <time>2022-01-12T14:46:34Z</time>
      </trkpt>
      <trkpt lat="49.8816" lon="2.17411">
        <ele>98.6</ele>
        <time>2022-01-12T14:46:35Z</time>
      </trkpt>
      <trkpt lat="49.8816" lon="2.17411">
        <ele>98.6</ele>
        <time>2022-01-12T14:46:37Z</time>
      </trkpt>
      <trkpt lat="49.8816" lon="2.1741">
        <ele>98.6</ele>
        <time>2022-01-12T14:46:39Z</time>
      </trkpt>
      <trkpt lat="49.8816" lon="2.1741">
        <ele>98.6</ele>
        <time>2022-01-12T14:46:41Z</time>
      </trkpt>
      <trkpt lat="49.88159" lon="2.1741">
        <ele>98.6</ele>
        <time>2022-01-12T14:46:42Z</time>
      </trkpt>
      <trkpt lat="49.88159" lon="2.1741">
        <ele>98.6</ele>
        <time>2022-01-12T14:46:44Z</time>
      </trkpt>
      <trkpt lat="49.8816" lon="2.1741">
        <ele>98.6</ele>
        <time>2022-01-12T14:46:45Z</time>
      </trkpt>
      <trkpt lat="49.8816" lon="2.1741">
        <ele>98.5</ele>
        <time>2022-01-12T14:46:47Z</time>
      </trkpt>
      <trkpt lat="49.8816" lon="2.1741">
        <ele>98.5</ele>
        <time>2022-01-12T14:46:49Z</time>
      </trkpt>
      <trkpt lat="49.8816" lon="2.1741">
        <ele>98.5</ele>
        <time>2022-01-12T14:46:50Z</time>
      </trkpt>
      <trkpt lat="49.8816" lon="2.1741">
        <ele>98.5</ele>
        <time>2022-01-12T14:46:52Z</time>
      </trkpt>
      <trkpt lat="49.8816" lon="2.1741">
        <ele>98.5</ele>
        <time>2022-01-12T14:46:53Z</time>
      </trkpt>
      <trkpt lat="49.8816" lon="2.1741">
        <ele>98.5</ele>
        <time>2022-01-12T14:46:54Z</time>
      </trkpt>
      <trkpt lat="49.8816" lon="2.1741">
        <ele>98.5</ele>
        <time>2022-01-12T14:46:55Z</time>
      </trkpt>
      <trkpt lat="49.8816" lon="2.1741">
        <ele>98.5</ele>
        <time>2022-01-12T14:46:56Z</time>
      </trkpt>
      <trkpt lat="49.8816" lon="2.1741">
        <ele>98.5</ele>
        <time>2022-01-12T14:46:58Z</time>
      </trkpt>
      <trkpt lat="49.8816" lon="2.1741">
        <ele>98.5</ele>
        <time>2022-01-12T14:46:59Z</time>
      </trkpt>
      <trkpt lat="49.8816" lon="2.1741">
        <ele>98.5</ele>
        <time>2022-01-12T14:47:01Z</time>
      </trkpt>
      <trkpt lat="49.8816" lon="2.1741">
        <ele>98.5</ele>
        <time>2022-01-12T14:47:03Z</time>
      </trkpt>
      <trkpt lat="49.8816" lon="2.1741">
        <ele>98.5</ele>
        <time>2022-01-12T14:47:04Z</time>
      </trkpt>
      <trkpt lat="49.8816" lon="2.1741">
        <ele>98.5</ele>
        <time>2022-01-12T14:47:06Z</time>
      </trkpt>
      <trkpt lat="49.8816" lon="2.1741">
        <ele>98.5</ele>
        <time>2022-01-12T14:47:08Z</time>
      </trkpt>
      <trkpt lat="49.8816" lon="2.1741">
        <ele>98.5</ele>
        <time>2022-01-12T14:47:10Z</time>
      </trkpt>
      <trkpt lat="49.8816" lon="2.1741">
        <ele>98.5</ele>
        <time>2022-01-12T14:47:11Z</time>
      </trkpt>
      <trkpt lat="49.8816" lon="2.1741">
        <ele>98.5</ele>
        <time>2022-01-12T14:47:13Z</time>
      </trkpt>
      <trkpt lat="49.8816" lon="2.1741">
        <ele>98.5</ele>
        <time>2022-01-12T14:47:15Z</time>
      </trkpt>
      <trkpt lat="49.8816" lon="2.1741">
        <ele>98.5</ele>
        <time>2022-01-12T14:47:16Z</time>
      </trkpt>
      <trkpt lat="49.8816" lon="2.1741">
        <ele>98.5</ele>
        <time>2022-01-12T14:47:18Z</time>
      </trkpt>
      <trkpt lat="49.8816" lon="2.1741">
        <ele>98.5</ele>
        <time>2022-01-12T14:47:19Z</time>
      </trkpt>
      <trkpt lat="49.8816" lon="2.1741">
        <ele>98.5</ele>
        <time>2022-01-12T14:47:21Z</time>
      </trkpt>
      <trkpt lat="49.8816" lon="2.1741">
        <ele>98.5</ele>
        <time>2022-01-12T14:47:23Z</time>
      </trkpt>
      <trkpt lat="49.8816" lon="2.1741">
        <ele>98.5</ele>
        <time>2022-01-12T14:47:25Z</time>
      </trkpt>
      <trkpt lat="49.8816" lon="2.1741">
        <ele>98.5</ele>
        <time>2022-01-12T14:47:26Z</time>
      </trkpt>
      <trkpt lat="49.8816" lon="2.1741">
        <ele>98.5</ele>
        <time>2022-01-12T14:47:27Z</time>
      </trkpt>
      <trkpt lat="49.8816" lon="2.1741">
        <ele>98.5</ele>
        <time>2022-01-12T14:47:28Z</time>
      </trkpt>
      <trkpt lat="49.8816" lon="2.1741">
        <ele>98.5</ele>
        <time>2022-01-12T14:47:30Z</time>
      </trkpt>
      <trkpt lat="49.8816" lon="2.1741">
        <ele>98.5</ele>
        <time>2022-01-12T14:47:32Z</time>
      </trkpt>
      <trkpt lat="49.8816" lon="2.1741">
        <ele>98.5</ele>
        <time>2022-01-12T14:47:34Z</time>
      </trkpt>
      <trkpt lat="49.8816" lon="2.1741">
        <ele>98.5</ele>
        <time>2022-01-12T14:47:36Z</time>
      </trkpt>
      <trkpt lat="49.8816" lon="2.1741">
        <ele>98.5</ele>
        <time>2022-01-12T14:47:38Z</time>
      </trkpt>
      <trkpt lat="49.8816" lon="2.1741">
        <ele>98.5</ele>
        <time>2022-01-12T14:47:40Z</time>
      </trkpt>
      <trkpt lat="49.8816" lon="2.1741">
        <ele>98.5</ele>
        <time>2022-01-12T14:47:42Z</time>
      </trkpt>
      <trkpt lat="49.8816" lon="2.1741">
        <ele>98.5</ele>
        <time>2022-01-12T14:47:44Z</time>
      </trkpt>
      <trkpt lat="49.8816" lon="2.1741">
        <ele>98.5</ele>
        <time>2022-01-12T14:47:46Z</time>
      </trkpt>
      <trkpt lat="49.8816" lon="2.1741">
        <ele>98.5</ele>
        <time>2022-01-12T14:47:48Z</time>
      </trkpt>
      <trkpt lat="49.8816" lon="2.1741">
        <ele>98.5</ele>
        <time>2022-01-12T14:47:49Z</time>
      </trkpt>
      <trkpt lat="49.8816" lon="2.1741">
        <ele>98.5</ele>
        <time>2022-01-12T14:47:50Z</time>
      </trkpt>
      <trkpt lat="49.88161" lon="2.1741">
        <ele>98.5</ele>
        <time>2022-01-12T14:47:52Z</time>
      </trkpt>
      <trkpt lat="49.88162" lon="2.1741">
        <ele>98.4</ele>
        <time>2022-01-12T14:47:53Z</time>
      </trkpt>
      <trkpt lat="49.88162" lon="2.1741">
        <ele>98.4</ele>
        <time>2022-01-12T14:47:54Z</time>
      </trkpt>
      <trkpt lat="49.88162" lon="2.17412">
        <ele>98.4</ele>
        <time>2022-01-12T14:47:55Z</time>
      </trkpt>
      <trkpt lat="49.88162" lon="2.17413">
        <ele>98.3</ele>
        <time>2022-01-12T14:47:57Z</time>
      </trkpt>
      <trkpt lat="49.88162" lon="2.17413">
        <ele>98.3</ele>
        <time>2022-01-12T14:47:58Z</time>
      </trkpt>
      <trkpt lat="49.88161" lon="2.17413">
        <ele>98.3</ele>
        <time>2022-01-12T14:47:59Z</time>
      </trkpt>
      <trkpt lat="49.8816" lon="2.17415">
        <ele>98.2</ele>
        <time>2022-01-12T14:48:00Z</time>
      </trkpt>
      <trkpt lat="49.88159" lon="2.17418">
        <ele>98</ele>
        <time>2022-01-12T14:48:02Z</time>
      </trkpt>
      <trkpt lat="49.88158" lon="2.1742">
        <ele>98</ele>
        <time>2022-01-12T14:48:03Z</time>
      </trkpt>
      <trkpt lat="49.88157" lon="2.17422">
        <ele>98</ele>
        <time>2022-01-12T14:48:04Z</time>
      </trkpt>
      <trkpt lat="49.88156" lon="2.17423">
        <ele>98</ele>
        <time>2022-01-12T14:48:05Z</time>
      </trkpt>
      <trkpt lat="49.88154" lon="2.17423">
        <ele>98</ele>
        <time>2022-01-12T14:48:06Z</time>
      </trkpt>
      <trkpt lat="49.88152" lon="2.17423">
        <ele>98</ele>
        <time>2022-01-12T14:48:07Z</time>
      </trkpt>
      <trkpt lat="49.88151" lon="2.17423">
        <ele>98</ele>
        <time>2022-01-12T14:48:09Z</time>
      </trkpt>
      <trkpt lat="49.8815" lon="2.17424">
        <ele>98</ele>
        <time>2022-01-12T14:48:10Z</time>
      </trkpt>
      <trkpt lat="49.88149" lon="2.17424">
        <ele>98</ele>
        <time>2022-01-12T14:48:11Z</time>
      </trkpt>
      <trkpt lat="49.88148" lon="2.17424">
        <ele>98</ele>
        <time>2022-01-12T14:48:12Z</time>
      </trkpt>
      <trkpt lat="49.88146" lon="2.17425">
        <ele>98</ele>
        <time>2022-01-12T14:48:13Z</time>
      </trkpt>
      <trkpt lat="49.88145" lon="2.17425">
        <ele>97.9</ele>
        <time>2022-01-12T14:48:14Z</time>
      </trkpt>
      <trkpt lat="49.88144" lon="2.17425">
        <ele>97.9</ele>
        <time>2022-01-12T14:48:16Z</time>
      </trkpt>
      <trkpt lat="49.88142" lon="2.17426">
        <ele>97.9</ele>
        <time>2022-01-12T14:48:17Z</time>
      </trkpt>
      <trkpt lat="49.88141" lon="2.17426">
        <ele>97.9</ele>
        <time>2022-01-12T14:48:18Z</time>
      </trkpt>
      <trkpt lat="49.8814" lon="2.17427">
        <ele>97.8</ele>
        <time>2022-01-12T14:48:19Z</time>
      </trkpt>
      <trkpt lat="49.88138" lon="2.17427">
        <ele>97.8</ele>
        <time>2022-01-12T14:48:20Z</time>
      </trkpt>
      <trkpt lat="49.88137" lon="2.17427">
        <ele>97.8</ele>
        <time>2022-01-12T14:48:21Z</time>
      </trkpt>
      <trkpt lat="49.88137" lon="2.17427">
        <ele>97.8</ele>
        <time>2022-01-12T14:48:22Z</time>
      </trkpt>
      <trkpt lat="49.88136" lon="2.17427">
        <ele>97.7</ele>
        <time>2022-01-12T14:48:24Z</time>
      </trkpt>
      <trkpt lat="49.88134" lon="2.17428">
        <ele>97.7</ele>
        <time>2022-01-12T14:48:25Z</time>
      </trkpt>
      <trkpt lat="49.88133" lon="2.17428">
        <ele>97.7</ele>
        <time>2022-01-12T14:48:26Z</time>
      </trkpt>
      <trkpt lat="49.88132" lon="2.17428">
        <ele>97.6</ele>
        <time>2022-01-12T14:48:27Z</time>
      </trkpt>
      <trkpt lat="49.88131" lon="2.17428">
        <ele>97.6</ele>
        <time>2022-01-12T14:48:28Z</time>
      </trkpt>
      <trkpt lat="49.8813" lon="2.17428">
        <ele>97.6</ele>
        <time>2022-01-12T14:48:29Z</time>
      </trkpt>
      <trkpt lat="49.88129" lon="2.17428">
        <ele>97.5</ele>
        <time>2022-01-12T14:48:30Z</time>
      </trkpt>
      <trkpt lat="49.88128" lon="2.17428">
        <ele>97.5</ele>
        <time>2022-01-12T14:48:32Z</time>
      </trkpt>
      <trkpt lat="49.88126" lon="2.17428">
        <ele>97.5</ele>
        <time>2022-01-12T14:48:33Z</time>
      </trkpt>
      <trkpt lat="49.88125" lon="2.17428">
        <ele>97.4</ele>
        <time>2022-01-12T14:48:34Z</time>
      </trkpt>
      <trkpt lat="49.88124" lon="2.17428">
        <ele>97.4</ele>
        <time>2022-01-12T14:48:35Z</time>
      </trkpt>
      <trkpt lat="49.88123" lon="2.17428">
        <ele>97.4</ele>
        <time>2022-01-12T14:48:36Z</time>
      </trkpt>
      <trkpt lat="49.88121" lon="2.17427">
        <ele>97.3</ele>
        <time>2022-01-12T14:48:37Z</time>
      </trkpt>
      <trkpt lat="49.8812" lon="2.17427">
        <ele>97.3</ele>
        <time>2022-01-12T14:48:39Z</time>
      </trkpt>
      <trkpt lat="49.8812" lon="2.17427">
        <ele>97.3</ele>
        <time>2022-01-12T14:48:40Z</time>
      </trkpt>
      <trkpt lat="49.88118" lon="2.17427">
        <ele>97.2</ele>
        <time>2022-01-12T14:48:41Z</time>
      </trkpt>
      <trkpt lat="49.88117" lon="2.17427">
        <ele>97.2</ele>
        <time>2022-01-12T14:48:42Z</time>
      </trkpt>
      <trkpt lat="49.88116" lon="2.17427">
        <ele>97.2</ele>
        <time>2022-01-12T14:48:43Z</time>
      </trkpt>
      <trkpt lat="49.88114" lon="2.17428">
        <ele>97.1</ele>
        <time>2022-01-12T14:48:45Z</time>
      </trkpt>
      <trkpt lat="49.88113" lon="2.17428">
        <ele>97.1</ele>
        <time>2022-01-12T14:48:46Z</time>
      </trkpt>
      <trkpt lat="49.88112" lon="2.17428">
        <ele>97</ele>
        <time>2022-01-12T14:48:47Z</time>
      </trkpt>
      <trkpt lat="49.88111" lon="2.17429">
        <ele>97</ele>
        <time>2022-01-12T14:48:48Z</time>
      </trkpt>
      <trkpt lat="49.8811" lon="2.17429">
        <ele>97</ele>
        <time>2022-01-12T14:48:49Z</time>
      </trkpt>
      <trkpt lat="49.88108" lon="2.1743">
        <ele>96.9</ele>
        <time>2022-01-12T14:48:51Z</time>
      </trkpt>
      <trkpt lat="49.88107" lon="2.1743">
        <ele>96.9</ele>
        <time>2022-01-12T14:48:52Z</time>
      </trkpt>
      <trkpt lat="49.88106" lon="2.1743">
        <ele>96.9</ele>
        <time>2022-01-12T14:48:53Z</time>
      </trkpt>
      <trkpt lat="49.88105" lon="2.17431">
        <ele>96.8</ele>
        <time>2022-01-12T14:48:54Z</time>
      </trkpt>
      <trkpt lat="49.88104" lon="2.17431">
        <ele>96.8</ele>
        <time>2022-01-12T14:48:55Z</time>
      </trkpt>
      <trkpt lat="49.88103" lon="2.17431">
        <ele>96.8</ele>
        <time>2022-01-12T14:48:56Z</time>
      </trkpt>
      <trkpt lat="49.88102" lon="2.17432">
        <ele>96.8</ele>
        <time>2022-01-12T14:48:57Z</time>
      </trkpt>
      <trkpt lat="49.88101" lon="2.17432">
        <ele>96.7</ele>
        <time>2022-01-12T14:48:59Z</time>
      </trkpt>
      <trkpt lat="49.881" lon="2.17433">
        <ele>96.7</ele>
        <time>2022-01-12T14:49:00Z</time>
      </trkpt>
      <trkpt lat="49.88098" lon="2.17433">
        <ele>96.6</ele>
        <time>2022-01-12T14:49:01Z</time>
      </trkpt>
      <trkpt lat="49.88097" lon="2.17433">
        <ele>96.6</ele>
        <time>2022-01-12T14:49:02Z</time>
      </trkpt>
      <trkpt lat="49.88096" lon="2.17433">
        <ele>96.6</ele>
        <time>2022-01-12T14:49:03Z</time>
      </trkpt>
      <trkpt lat="49.88095" lon="2.17434">
        <ele>96.5</ele>
        <time>2022-01-12T14:49:04Z</time>
      </trkpt>
      <trkpt lat="49.88093" lon="2.17435">
        <ele>96.5</ele>
        <time>2022-01-12T14:49:05Z</time>
      </trkpt>
      <trkpt lat="49.88093" lon="2.17435">
        <ele>96.5</ele>
        <time>2022-01-12T14:49:06Z</time>
      </trkpt>
      <trkpt lat="49.88092" lon="2.17436">
        <ele>96.4</ele>
        <time>2022-01-12T14:49:07Z</time>
      </trkpt>
      <trkpt lat="49.8809" lon="2.17436">
        <ele>96.4</ele>
        <time>2022-01-12T14:49:09Z</time>
      </trkpt>
      <trkpt lat="49.88089" lon="2.17437">
        <ele>96.3</ele>
        <time>2022-01-12T14:49:10Z</time>
      </trkpt>
      <trkpt lat="49.88087" lon="2.17437">
        <ele>96.3</ele>
        <time>2022-01-12T14:49:11Z</time>
      </trkpt>
      <trkpt lat="49.88086" lon="2.17437">
        <ele>96.2</ele>
        <time>2022-01-12T14:49:12Z</time>
      </trkpt>
      <trkpt lat="49.88085" lon="2.17437">
        <ele>96.2</ele>
        <time>2022-01-12T14:49:13Z</time>
      </trkpt>
      <trkpt lat="49.88084" lon="2.17438">
        <ele>96.2</ele>
        <time>2022-01-12T14:49:14Z</time>
      </trkpt>
      <trkpt lat="49.88083" lon="2.17438">
        <ele>96.1</ele>
        <time>2022-01-12T14:49:16Z</time>
      </trkpt>
      <trkpt lat="49.88082" lon="2.17438">
        <ele>96.1</ele>
        <time>2022-01-12T14:49:17Z</time>
      </trkpt>
      <trkpt lat="49.8808" lon="2.17438">
        <ele>96</ele>
        <time>2022-01-12T14:49:18Z</time>
      </trkpt>
      <trkpt lat="49.88079" lon="2.17439">
        <ele>96</ele>
        <time>2022-01-12T14:49:19Z</time>
      </trkpt>
      <trkpt lat="49.88078" lon="2.17439">
        <ele>96</ele>
        <time>2022-01-12T14:49:20Z</time>
      </trkpt>
      <trkpt lat="49.88076" lon="2.17439">
        <ele>95.9</ele>
        <time>2022-01-12T14:49:21Z</time>
      </trkpt>
      <trkpt lat="49.88075" lon="2.1744">
        <ele>95.9</ele>
        <time>2022-01-12T14:49:22Z</time>
      </trkpt>
      <trkpt lat="49.88074" lon="2.1744">
        <ele>95.8</ele>
        <time>2022-01-12T14:49:23Z</time>
      </trkpt>
      <trkpt lat="49.88072" lon="2.1744">
        <ele>95.8</ele>
        <time>2022-01-12T14:49:24Z</time>
      </trkpt>
      <trkpt lat="49.88071" lon="2.17441">
        <ele>95.7</ele>
        <time>2022-01-12T14:49:25Z</time>
      </trkpt>
      <trkpt lat="49.8807" lon="2.17441">
        <ele>95.7</ele>
        <time>2022-01-12T14:49:27Z</time>
      </trkpt>
      <trkpt lat="49.88069" lon="2.17441">
        <ele>95.7</ele>
        <time>2022-01-12T14:49:28Z</time>
      </trkpt>
      <trkpt lat="49.88068" lon="2.17442">
        <ele>95.6</ele>
        <time>2022-01-12T14:49:29Z</time>
      </trkpt>
      <trkpt lat="49.88067" lon="2.17442">
        <ele>95.6</ele>
        <time>2022-01-12T14:49:30Z</time>
      </trkpt>
      <trkpt lat="49.88067" lon="2.17442">
        <ele>95.6</ele>
        <time>2022-01-12T14:49:31Z</time>
      </trkpt>
      <trkpt lat="49.88065" lon="2.17443">
        <ele>95.5</ele>
        <time>2022-01-12T14:49:32Z</time>
      </trkpt>
      <trkpt lat="49.88064" lon="2.17443">
        <ele>95.5</ele>
        <time>2022-01-12T14:49:33Z</time>
      </trkpt>
      <trkpt lat="49.88063" lon="2.17443">
        <ele>95.4</ele>
        <time>2022-01-12T14:49:34Z</time>
      </trkpt>
      <trkpt lat="49.88062" lon="2.17443">
        <ele>95.4</ele>
        <time>2022-01-12T14:49:35Z</time>
      </trkpt>
      <trkpt lat="49.88061" lon="2.17444">
        <ele>95.3</ele>
        <time>2022-01-12T14:49:36Z</time>
      </trkpt>
      <trkpt lat="49.88058" lon="2.17444">
        <ele>95.3</ele>
        <time>2022-01-12T14:49:38Z</time>
      </trkpt>
      <trkpt lat="49.88058" lon="2.17444">
        <ele>95.2</ele>
        <time>2022-01-12T14:49:39Z</time>
      </trkpt>
      <trkpt lat="49.88057" lon="2.17444">
        <ele>95.2</ele>
        <time>2022-01-12T14:49:40Z</time>
      </trkpt>
      <trkpt lat="49.88055" lon="2.17444">
        <ele>95.1</ele>
        <time>2022-01-12T14:49:41Z</time>
      </trkpt>
      <trkpt lat="49.88054" lon="2.17444">
        <ele>95.1</ele>
        <time>2022-01-12T14:49:42Z</time>
      </trkpt>
      <trkpt lat="49.88053" lon="2.17444">
        <ele>95</ele>
        <time>2022-01-12T14:49:43Z</time>
      </trkpt>
      <trkpt lat="49.88052" lon="2.17444">
        <ele>95</ele>
        <time>2022-01-12T14:49:44Z</time>
      </trkpt>
      <trkpt lat="49.8805" lon="2.17444">
        <ele>95</ele>
        <time>2022-01-12T14:49:45Z</time>
      </trkpt>
      <trkpt lat="49.88049" lon="2.17444">
        <ele>94.9</ele>
        <time>2022-01-12T14:49:46Z</time>
      </trkpt>
      <trkpt lat="49.88048" lon="2.17444">
        <ele>94.9</ele>
        <time>2022-01-12T14:49:47Z</time>
      </trkpt>
      <trkpt lat="49.88047" lon="2.17444">
        <ele>94.8</ele>
        <time>2022-01-12T14:49:48Z</time>
      </trkpt>
      <trkpt lat="49.88046" lon="2.17444">
        <ele>94.8</ele>
        <time>2022-01-12T14:49:49Z</time>
      </trkpt>
      <trkpt lat="49.88044" lon="2.17445">
        <ele>94.7</ele>
        <time>2022-01-12T14:49:51Z</time>
      </trkpt>
      <trkpt lat="49.88043" lon="2.17445">
        <ele>94.7</ele>
        <time>2022-01-12T14:49:52Z</time>
      </trkpt>
      <trkpt lat="49.88042" lon="2.17445">
        <ele>94.6</ele>
        <time>2022-01-12T14:49:53Z</time>
      </trkpt>
      <trkpt lat="49.8804" lon="2.17445">
        <ele>94.6</ele>
        <time>2022-01-12T14:49:55Z</time>
      </trkpt>
      <trkpt lat="49.88039" lon="2.17445">
        <ele>94.5</ele>
        <time>2022-01-12T14:49:56Z</time>
      </trkpt>
      <trkpt lat="49.88038" lon="2.17446">
        <ele>94.4</ele>
        <time>2022-01-12T14:49:57Z</time>
      </trkpt>
      <trkpt lat="49.88037" lon="2.17446">
        <ele>94.4</ele>
        <time>2022-01-12T14:49:58Z</time>
      </trkpt>
      <trkpt lat="49.88036" lon="2.17446">
        <ele>94.4</ele>
        <time>2022-01-12T14:49:59Z</time>
      </trkpt>
      <trkpt lat="49.88034" lon="2.17447">
        <ele>94.3</ele>
        <time>2022-01-12T14:50:00Z</time>
      </trkpt>
      <trkpt lat="49.88033" lon="2.17447">
        <ele>94.3</ele>
        <time>2022-01-12T14:50:01Z</time>
      </trkpt>
      <trkpt lat="49.88032" lon="2.17448">
        <ele>94.2</ele>
        <time>2022-01-12T14:50:02Z</time>
      </trkpt>
      <trkpt lat="49.88031" lon="2.17448">
        <ele>94.2</ele>
        <time>2022-01-12T14:50:04Z</time>
      </trkpt>
      <trkpt lat="49.88029" lon="2.17448">
        <ele>94.1</ele>
        <time>2022-01-12T14:50:05Z</time>
      </trkpt>
      <trkpt lat="49.88028" lon="2.17448">
        <ele>94.1</ele>
        <time>2022-01-12T14:50:06Z</time>
      </trkpt>
      <trkpt lat="49.88027" lon="2.17448">
        <ele>94</ele>
        <time>2022-01-12T14:50:07Z</time>
      </trkpt>
      <trkpt lat="49.88026" lon="2.17449">
        <ele>94</ele>
        <time>2022-01-12T14:50:08Z</time>
      </trkpt>
      <trkpt lat="49.88025" lon="2.17449">
        <ele>94</ele>
        <time>2022-01-12T14:50:09Z</time>
      </trkpt>
      <trkpt lat="49.88024" lon="2.17449">
        <ele>93.9</ele>
        <time>2022-01-12T14:50:10Z</time>
      </trkpt>
      <trkpt lat="49.88022" lon="2.17449">
        <ele>93.9</ele>
        <time>2022-01-12T14:50:11Z</time>
      </trkpt>
      <trkpt lat="49.88021" lon="2.1745">
        <ele>93.8</ele>
        <time>2022-01-12T14:50:12Z</time>
      </trkpt>
      <trkpt lat="49.8802" lon="2.1745">
        <ele>93.8</ele>
        <time>2022-01-12T14:50:14Z</time>
      </trkpt>
      <trkpt lat="49.88019" lon="2.17451">
        <ele>93.8</ele>
        <time>2022-01-12T14:50:15Z</time>
      </trkpt>
      <trkpt lat="49.88017" lon="2.17451">
        <ele>93.7</ele>
        <time>2022-01-12T14:50:16Z</time>
      </trkpt>
      <trkpt lat="49.88016" lon="2.17452">
        <ele>93.7</ele>
        <time>2022-01-12T14:50:17Z</time>
      </trkpt>
      <trkpt lat="49.88015" lon="2.17452">
        <ele>93.7</ele>
        <time>2022-01-12T14:50:18Z</time>
      </trkpt>
      <trkpt lat="49.88014" lon="2.17453">
        <ele>93.6</ele>
        <time>2022-01-12T14:50:19Z</time>
      </trkpt>
      <trkpt lat="49.88013" lon="2.17453">
        <ele>93.6</ele>
        <time>2022-01-12T14:50:20Z</time>
      </trkpt>
      <trkpt lat="49.88012" lon="2.17453">
        <ele>93.5</ele>
        <time>2022-01-12T14:50:21Z</time>
      </trkpt>
      <trkpt lat="49.8801" lon="2.17454">
        <ele>93.5</ele>
        <time>2022-01-12T14:50:23Z</time>
      </trkpt>
      <trkpt lat="49.88009" lon="2.17454">
        <ele>93.4</ele>
        <time>2022-01-12T14:50:24Z</time>
      </trkpt>
      <trkpt lat="49.88008" lon="2.17454">
        <ele>93.4</ele>
        <time>2022-01-12T14:50:25Z</time>
      </trkpt>
      <trkpt lat="49.88007" lon="2.17454">
        <ele>93.4</ele>
        <time>2022-01-12T14:50:26Z</time>
      </trkpt>
      <trkpt lat="49.88005" lon="2.17454">
        <ele>93.3</ele>
        <time>2022-01-12T14:50:27Z</time>
      </trkpt>
      <trkpt lat="49.88004" lon="2.17454">
        <ele>93.3</ele>
        <time>2022-01-12T14:50:28Z</time>
      </trkpt>
      <trkpt lat="49.88003" lon="2.17454">
        <ele>93.2</ele>
        <time>2022-01-12T14:50:29Z</time>
      </trkpt>
      <trkpt lat="49.88001" lon="2.17455">
        <ele>93.2</ele>
        <time>2022-01-12T14:50:31Z</time>
      </trkpt>
      <trkpt lat="49.88" lon="2.17455">
        <ele>93.1</ele>
        <time>2022-01-12T14:50:32Z</time>
      </trkpt>
      <trkpt lat="49.87999" lon="2.17455">
        <ele>93.1</ele>
        <time>2022-01-12T14:50:33Z</time>
      </trkpt>
      <trkpt lat="49.87998" lon="2.17455">
        <ele>93.1</ele>
        <time>2022-01-12T14:50:34Z</time>
      </trkpt>
      <trkpt lat="49.87997" lon="2.17456">
        <ele>93</ele>
        <time>2022-01-12T14:50:35Z</time>
      </trkpt>
      <trkpt lat="49.87996" lon="2.17456">
        <ele>93</ele>
        <time>2022-01-12T14:50:36Z</time>
      </trkpt>
      <trkpt lat="49.87994" lon="2.17456">
        <ele>93</ele>
        <time>2022-01-12T14:50:38Z</time>
      </trkpt>
      <trkpt lat="49.87993" lon="2.17457">
        <ele>92.9</ele>
        <time>2022-01-12T14:50:39Z</time>
      </trkpt>
      <trkpt lat="49.87991" lon="2.17457">
        <ele>92.9</ele>
        <time>2022-01-12T14:50:40Z</time>
      </trkpt>
      <trkpt lat="49.8799" lon="2.17456">
        <ele>92.8</ele>
        <time>2022-01-12T14:50:41Z</time>
      </trkpt>
      <trkpt lat="49.87989" lon="2.17456">
        <ele>92.8</ele>
        <time>2022-01-12T14:50:42Z</time>
      </trkpt>
      <trkpt lat="49.87988" lon="2.17456">
        <ele>92.8</ele>
        <time>2022-01-12T14:50:43Z</time>
      </trkpt>
      <trkpt lat="49.87986" lon="2.17457">
        <ele>92.7</ele>
        <time>2022-01-12T14:50:44Z</time>
      </trkpt>
      <trkpt lat="49.87984" lon="2.17457">
        <ele>92.7</ele>
        <time>2022-01-12T14:50:45Z</time>
      </trkpt>
      <trkpt lat="49.87983" lon="2.17457">
        <ele>92.7</ele>
        <time>2022-01-12T14:50:46Z</time>
      </trkpt>
      <trkpt lat="49.87982" lon="2.17457">
        <ele>92.7</ele>
        <time>2022-01-12T14:50:48Z</time>
      </trkpt>
      <trkpt lat="49.87981" lon="2.17457">
        <ele>92.6</ele>
        <time>2022-01-12T14:50:49Z</time>
      </trkpt>
      <trkpt lat="49.8798" lon="2.17457">
        <ele>92.6</ele>
        <time>2022-01-12T14:50:50Z</time>
      </trkpt>
      <trkpt lat="49.87979" lon="2.17457">
        <ele>92.6</ele>
        <time>2022-01-12T14:50:51Z</time>
      </trkpt>
      <trkpt lat="49.87977" lon="2.17457">
        <ele>92.6</ele>
        <time>2022-01-12T14:50:52Z</time>
      </trkpt>
      <trkpt lat="49.87976" lon="2.17457">
        <ele>92.5</ele>
        <time>2022-01-12T14:50:53Z</time>
      </trkpt>
      <trkpt lat="49.87975" lon="2.17457">
        <ele>92.5</ele>
        <time>2022-01-12T14:50:54Z</time>
      </trkpt>
      <trkpt lat="49.87974" lon="2.17457">
        <ele>92.5</ele>
        <time>2022-01-12T14:50:55Z</time>
      </trkpt>
      <trkpt lat="49.87973" lon="2.17457">
        <ele>92.5</ele>
        <time>2022-01-12T14:50:56Z</time>
      </trkpt>
      <trkpt lat="49.87972" lon="2.17457">
        <ele>92.5</ele>
        <time>2022-01-12T14:50:57Z</time>
      </trkpt>
      <trkpt lat="49.87971" lon="2.17458">
        <ele>92.5</ele>
        <time>2022-01-12T14:50:59Z</time>
      </trkpt>
      <trkpt lat="49.87969" lon="2.17458">
        <ele>92.4</ele>
        <time>2022-01-12T14:51:00Z</time>
      </trkpt>
      <trkpt lat="49.87968" lon="2.17458">
        <ele>92.4</ele>
        <time>2022-01-12T14:51:01Z</time>
      </trkpt>
      <trkpt lat="49.87966" lon="2.17458">
        <ele>92.4</ele>
        <time>2022-01-12T14:51:02Z</time>
      </trkpt>
      <trkpt lat="49.87965" lon="2.17459">
        <ele>92.4</ele>
        <time>2022-01-12T14:51:03Z</time>
      </trkpt>
      <trkpt lat="49.87964" lon="2.17459">
        <ele>92.4</ele>
        <time>2022-01-12T14:51:04Z</time>
      </trkpt>
      <trkpt lat="49.87962" lon="2.1746">
        <ele>92.3</ele>
        <time>2022-01-12T14:51:05Z</time>
      </trkpt>
      <trkpt lat="49.87961" lon="2.1746">
        <ele>92.3</ele>
        <time>2022-01-12T14:51:07Z</time>
      </trkpt>
      <trkpt lat="49.8796" lon="2.1746">
        <ele>92.3</ele>
        <time>2022-01-12T14:51:08Z</time>
      </trkpt>
      <trkpt lat="49.87958" lon="2.17461">
        <ele>92.3</ele>
        <time>2022-01-12T14:51:09Z</time>
      </trkpt>
      <trkpt lat="49.87957" lon="2.17462">
        <ele>92.3</ele>
        <time>2022-01-12T14:51:10Z</time>
      </trkpt>
      <trkpt lat="49.87957" lon="2.17462">
        <ele>92.3</ele>
        <time>2022-01-12T14:51:11Z</time>
      </trkpt>
      <trkpt lat="49.87954" lon="2.17463">
        <ele>92.3</ele>
        <time>2022-01-12T14:51:12Z</time>
      </trkpt>
      <trkpt lat="49.87954" lon="2.17463">
        <ele>92.2</ele>
        <time>2022-01-12T14:51:13Z</time>
      </trkpt>
      <trkpt lat="49.87953" lon="2.17463">
        <ele>92.2</ele>
        <time>2022-01-12T14:51:14Z</time>
      </trkpt>
      <trkpt lat="49.87952" lon="2.17464">
        <ele>92.2</ele>
        <time>2022-01-12T14:51:16Z</time>
      </trkpt>
      <trkpt lat="49.87951" lon="2.17464">
        <ele>92.2</ele>
        <time>2022-01-12T14:51:17Z</time>
      </trkpt>
      <trkpt lat="49.8795" lon="2.17464">
        <ele>92.2</ele>
        <time>2022-01-12T14:51:18Z</time>
      </trkpt>
      <trkpt lat="49.87949" lon="2.17464">
        <ele>92.2</ele>
        <time>2022-01-12T14:51:19Z</time>
      </trkpt>
      <trkpt lat="49.87948" lon="2.17464">
        <ele>92.2</ele>
        <time>2022-01-12T14:51:20Z</time>
      </trkpt>
      <trkpt lat="49.87947" lon="2.17464">
        <ele>92.2</ele>
        <time>2022-01-12T14:51:21Z</time>
      </trkpt>
      <trkpt lat="49.87945" lon="2.17465">
        <ele>92.2</ele>
        <time>2022-01-12T14:51:23Z</time>
      </trkpt>
      <trkpt lat="49.87943" lon="2.17465">
        <ele>92.2</ele>
        <time>2022-01-12T14:51:24Z</time>
      </trkpt>
      <trkpt lat="49.87941" lon="2.17466">
        <ele>92.1</ele>
        <time>2022-01-12T14:51:25Z</time>
      </trkpt>
      <trkpt lat="49.8794" lon="2.17466">
        <ele>92.1</ele>
        <time>2022-01-12T14:51:26Z</time>
      </trkpt>
      <trkpt lat="49.8794" lon="2.17466">
        <ele>92.1</ele>
        <time>2022-01-12T14:51:27Z</time>
      </trkpt>
      <trkpt lat="49.87938" lon="2.17467">
        <ele>92.1</ele>
        <time>2022-01-12T14:51:28Z</time>
      </trkpt>
      <trkpt lat="49.87936" lon="2.17467">
        <ele>92.1</ele>
        <time>2022-01-12T14:51:30Z</time>
      </trkpt>
      <trkpt lat="49.87935" lon="2.17467">
        <ele>92.1</ele>
        <time>2022-01-12T14:51:31Z</time>
      </trkpt>
      <trkpt lat="49.87934" lon="2.17467">
        <ele>92.1</ele>
        <time>2022-01-12T14:51:32Z</time>
      </trkpt>
      <trkpt lat="49.87932" lon="2.17467">
        <ele>92.1</ele>
        <time>2022-01-12T14:51:33Z</time>
      </trkpt>
      <trkpt lat="49.87931" lon="2.17467">
        <ele>92.1</ele>
        <time>2022-01-12T14:51:35Z</time>
      </trkpt>
      <trkpt lat="49.87929" lon="2.17467">
        <ele>92</ele>
        <time>2022-01-12T14:51:36Z</time>
      </trkpt>
      <trkpt lat="49.87928" lon="2.17467">
        <ele>92</ele>
        <time>2022-01-12T14:51:37Z</time>
      </trkpt>
      <trkpt lat="49.87927" lon="2.17467">
        <ele>92</ele>
        <time>2022-01-12T14:51:38Z</time>
      </trkpt>
      <trkpt lat="49.87926" lon="2.17468">
        <ele>92</ele>
        <time>2022-01-12T14:51:39Z</time>
      </trkpt>
      <trkpt lat="49.87924" lon="2.17468">
        <ele>92</ele>
        <time>2022-01-12T14:51:41Z</time>
      </trkpt>
      <trkpt lat="49.87922" lon="2.17468">
        <ele>91.9</ele>
        <time>2022-01-12T14:51:42Z</time>
      </trkpt>
      <trkpt lat="49.87921" lon="2.17468">
        <ele>91.9</ele>
        <time>2022-01-12T14:51:43Z</time>
      </trkpt>
      <trkpt lat="49.8792" lon="2.17468">
        <ele>91.9</ele>
        <time>2022-01-12T14:51:44Z</time>
      </trkpt>
      <trkpt lat="49.87917" lon="2.17469">
        <ele>91.9</ele>
        <time>2022-01-12T14:51:45Z</time>
      </trkpt>
      <trkpt lat="49.87916" lon="2.17469">
        <ele>91.9</ele>
        <time>2022-01-12T14:51:47Z</time>
      </trkpt>
      <trkpt lat="49.87915" lon="2.17469">
        <ele>91.8</ele>
        <time>2022-01-12T14:51:48Z</time>
      </trkpt>
      <trkpt lat="49.87914" lon="2.1747">
        <ele>91.8</ele>
        <time>2022-01-12T14:51:49Z</time>
      </trkpt>
      <trkpt lat="49.87913" lon="2.1747">
        <ele>91.8</ele>
        <time>2022-01-12T14:51:50Z</time>
      </trkpt>
      <trkpt lat="49.87911" lon="2.1747">
        <ele>91.8</ele>
        <time>2022-01-12T14:51:51Z</time>
      </trkpt>
      <trkpt lat="49.8791" lon="2.17471">
        <ele>91.7</ele>
        <time>2022-01-12T14:51:53Z</time>
      </trkpt>
      <trkpt lat="49.87909" lon="2.17471">
        <ele>91.7</ele>
        <time>2022-01-12T14:51:54Z</time>
      </trkpt>
      <trkpt lat="49.87908" lon="2.17471">
        <ele>91.7</ele>
        <time>2022-01-12T14:51:55Z</time>
      </trkpt>
      <trkpt lat="49.87907" lon="2.17471">
        <ele>91.6</ele>
        <time>2022-01-12T14:51:56Z</time>
      </trkpt>
      <trkpt lat="49.87906" lon="2.17472">
        <ele>91.6</ele>
        <time>2022-01-12T14:51:57Z</time>
      </trkpt>
      <trkpt lat="49.87904" lon="2.17472">
        <ele>91.6</ele>
        <time>2022-01-12T14:51:58Z</time>
      </trkpt>
      <trkpt lat="49.87903" lon="2.17473">
        <ele>91.5</ele>
        <time>2022-01-12T14:51:59Z</time>
      </trkpt>
      <trkpt lat="49.87902" lon="2.17473">
        <ele>91.5</ele>
        <time>2022-01-12T14:52:00Z</time>
      </trkpt>
      <trkpt lat="49.87901" lon="2.17474">
        <ele>91.4</ele>
        <time>2022-01-12T14:52:01Z</time>
      </trkpt>
      <trkpt lat="49.879" lon="2.17474">
        <ele>91.4</ele>
        <time>2022-01-12T14:52:02Z</time>
      </trkpt>
      <trkpt lat="49.87898" lon="2.17475">
        <ele>91.3</ele>
        <time>2022-01-12T14:52:03Z</time>
      </trkpt>
      <trkpt lat="49.87897" lon="2.17475">
        <ele>91.3</ele>
        <time>2022-01-12T14:52:05Z</time>
      </trkpt>
      <trkpt lat="49.87896" lon="2.17475">
        <ele>91.2</ele>
        <time>2022-01-12T14:52:06Z</time>
      </trkpt>
      <trkpt lat="49.87894" lon="2.17476">
        <ele>91.1</ele>
        <time>2022-01-12T14:52:07Z</time>
      </trkpt>
      <trkpt lat="49.87893" lon="2.17476">
        <ele>91.1</ele>
        <time>2022-01-12T14:52:08Z</time>
      </trkpt>
      <trkpt lat="49.87892" lon="2.17476">
        <ele>91</ele>
        <time>2022-01-12T14:52:09Z</time>
      </trkpt>
      <trkpt lat="49.87891" lon="2.17477">
        <ele>91</ele>
        <time>2022-01-12T14:52:10Z</time>
      </trkpt>
      <trkpt lat="49.87889" lon="2.17477">
        <ele>90.9</ele>
        <time>2022-01-12T14:52:11Z</time>
      </trkpt>
      <trkpt lat="49.87888" lon="2.17477">
        <ele>90.9</ele>
        <time>2022-01-12T14:52:12Z</time>
      </trkpt>
      <trkpt lat="49.87888" lon="2.17477">
        <ele>90.9</ele>
        <time>2022-01-12T14:52:13Z</time>
      </trkpt>
      <trkpt lat="49.87886" lon="2.17478">
        <ele>90.8</ele>
        <time>2022-01-12T14:52:15Z</time>
      </trkpt>
      <trkpt lat="49.87885" lon="2.17478">
        <ele>90.7</ele>
        <time>2022-01-12T14:52:16Z</time>
      </trkpt>
      <trkpt lat="49.87883" lon="2.17479">
        <ele>90.6</ele>
        <time>2022-01-12T14:52:18Z</time>
      </trkpt>
      <trkpt lat="49.87882" lon="2.1748">
        <ele>90.6</ele>
        <time>2022-01-12T14:52:19Z</time>
      </trkpt>
      <trkpt lat="49.87881" lon="2.1748">
        <ele>90.5</ele>
        <time>2022-01-12T14:52:20Z</time>
      </trkpt>
      <trkpt lat="49.8788" lon="2.1748">
        <ele>90.5</ele>
        <time>2022-01-12T14:52:21Z</time>
      </trkpt>
      <trkpt lat="49.87879" lon="2.1748">
        <ele>90.4</ele>
        <time>2022-01-12T14:52:22Z</time>
      </trkpt>
      <trkpt lat="49.87878" lon="2.17481">
        <ele>90.4</ele>
        <time>2022-01-12T14:52:23Z</time>
      </trkpt>
      <trkpt lat="49.87877" lon="2.17481">
        <ele>90.3</ele>
        <time>2022-01-12T14:52:25Z</time>
      </trkpt>
      <trkpt lat="49.87876" lon="2.17481">
        <ele>90.3</ele>
        <time>2022-01-12T14:52:26Z</time>
      </trkpt>
      <trkpt lat="49.87875" lon="2.17481">
        <ele>90.2</ele>
        <time>2022-01-12T14:52:27Z</time>
      </trkpt>
      <trkpt lat="49.87874" lon="2.17481">
        <ele>90.2</ele>
        <time>2022-01-12T14:52:28Z</time>
      </trkpt>
      <trkpt lat="49.87873" lon="2.17482">
        <ele>90.1</ele>
        <time>2022-01-12T14:52:29Z</time>
      </trkpt>
      <trkpt lat="49.87872" lon="2.17482">
        <ele>90.1</ele>
        <time>2022-01-12T14:52:30Z</time>
      </trkpt>
      <trkpt lat="49.8787" lon="2.17482">
        <ele>90</ele>
        <time>2022-01-12T14:52:32Z</time>
      </trkpt>
      <trkpt lat="49.87869" lon="2.17482">
        <ele>89.9</ele>
        <time>2022-01-12T14:52:33Z</time>
      </trkpt>
      <trkpt lat="49.87867" lon="2.17482">
        <ele>89.9</ele>
        <time>2022-01-12T14:52:34Z</time>
      </trkpt>
      <trkpt lat="49.87866" lon="2.17482">
        <ele>89.8</ele>
        <time>2022-01-12T14:52:35Z</time>
      </trkpt>
      <trkpt lat="49.87865" lon="2.17482">
        <ele>89.7</ele>
        <time>2022-01-12T14:52:36Z</time>
      </trkpt>
      <trkpt lat="49.87864" lon="2.17482">
        <ele>89.7</ele>
        <time>2022-01-12T14:52:37Z</time>
      </trkpt>
      <trkpt lat="49.87862" lon="2.17482">
        <ele>89.6</ele>
        <time>2022-01-12T14:52:38Z</time>
      </trkpt>
      <trkpt lat="49.87861" lon="2.17482">
        <ele>89.5</ele>
        <time>2022-01-12T14:52:39Z</time>
      </trkpt>
      <trkpt lat="49.8786" lon="2.17482">
        <ele>89.5</ele>
        <time>2022-01-12T14:52:40Z</time>
      </trkpt>
      <trkpt lat="49.87858" lon="2.17483">
        <ele>89.4</ele>
        <time>2022-01-12T14:52:41Z</time>
      </trkpt>
      <trkpt lat="49.87857" lon="2.17483">
        <ele>89.3</ele>
        <time>2022-01-12T14:52:43Z</time>
      </trkpt>
      <trkpt lat="49.87856" lon="2.17483">
        <ele>89.3</ele>
        <time>2022-01-12T14:52:44Z</time>
      </trkpt>
      <trkpt lat="49.87855" lon="2.17483">
        <ele>89.2</ele>
        <time>2022-01-12T14:52:45Z</time>
      </trkpt>
      <trkpt lat="49.87853" lon="2.17484">
        <ele>89.2</ele>
        <time>2022-01-12T14:52:46Z</time>
      </trkpt>
      <trkpt lat="49.87852" lon="2.17484">
        <ele>89.1</ele>
        <time>2022-01-12T14:52:47Z</time>
      </trkpt>
      <trkpt lat="49.8785" lon="2.17484">
        <ele>89</ele>
        <time>2022-01-12T14:52:49Z</time>
      </trkpt>
      <trkpt lat="49.87848" lon="2.17484">
        <ele>89</ele>
        <time>2022-01-12T14:52:50Z</time>
      </trkpt>
      <trkpt lat="49.87847" lon="2.17484">
        <ele>88.9</ele>
        <time>2022-01-12T14:52:51Z</time>
      </trkpt>
      <trkpt lat="49.87846" lon="2.17485">
        <ele>88.9</ele>
        <time>2022-01-12T14:52:52Z</time>
      </trkpt>
      <trkpt lat="49.87845" lon="2.17485">
        <ele>88.8</ele>
        <time>2022-01-12T14:52:53Z</time>
      </trkpt>
      <trkpt lat="49.87844" lon="2.17485">
        <ele>88.8</ele>
        <time>2022-01-12T14:52:54Z</time>
      </trkpt>
      <trkpt lat="49.87842" lon="2.17485">
        <ele>88.7</ele>
        <time>2022-01-12T14:52:55Z</time>
      </trkpt>
      <trkpt lat="49.87841" lon="2.17485">
        <ele>88.6</ele>
        <time>2022-01-12T14:52:57Z</time>
      </trkpt>
      <trkpt lat="49.8784" lon="2.17485">
        <ele>88.6</ele>
        <time>2022-01-12T14:52:58Z</time>
      </trkpt>
      <trkpt lat="49.87838" lon="2.17486">
        <ele>88.5</ele>
        <time>2022-01-12T14:52:59Z</time>
      </trkpt>
      <trkpt lat="49.87837" lon="2.17486">
        <ele>88.5</ele>
        <time>2022-01-12T14:53:00Z</time>
      </trkpt>
      <trkpt lat="49.87836" lon="2.17486">
        <ele>88.4</ele>
        <time>2022-01-12T14:53:01Z</time>
      </trkpt>
      <trkpt lat="49.87835" lon="2.17486">
        <ele>88.4</ele>
        <time>2022-01-12T14:53:02Z</time>
      </trkpt>
      <trkpt lat="49.87834" lon="2.17486">
        <ele>88.3</ele>
        <time>2022-01-12T14:53:03Z</time>
      </trkpt>
      <trkpt lat="49.87833" lon="2.17487">
        <ele>88.3</ele>
        <time>2022-01-12T14:53:04Z</time>
      </trkpt>
      <trkpt lat="49.87831" lon="2.17488">
        <ele>88.2</ele>
        <time>2022-01-12T14:53:05Z</time>
      </trkpt>
      <trkpt lat="49.8783" lon="2.17488">
        <ele>88.2</ele>
        <time>2022-01-12T14:53:07Z</time>
      </trkpt>
      <trkpt lat="49.87829" lon="2.17488">
        <ele>88.2</ele>
        <time>2022-01-12T14:53:08Z</time>
      </trkpt>
      <trkpt lat="49.87827" lon="2.17489">
        <ele>88.1</ele>
        <time>2022-01-12T14:53:09Z</time>
      </trkpt>
      <trkpt lat="49.87826" lon="2.17489">
        <ele>88</ele>
        <time>2022-01-12T14:53:10Z</time>
      </trkpt>
      <trkpt lat="49.87825" lon="2.1749">
        <ele>88</ele>
        <time>2022-01-12T14:53:11Z</time>
      </trkpt>
      <trkpt lat="49.87824" lon="2.1749">
        <ele>87.9</ele>
        <time>2022-01-12T14:53:12Z</time>
      </trkpt>
      <trkpt lat="49.87823" lon="2.17491">
        <ele>87.9</ele>
        <time>2022-01-12T14:53:13Z</time>
      </trkpt>
      <trkpt lat="49.87822" lon="2.17491">
        <ele>87.8</ele>
        <time>2022-01-12T14:53:14Z</time>
      </trkpt>
      <trkpt lat="49.8782" lon="2.17491">
        <ele>87.7</ele>
        <time>2022-01-12T14:53:15Z</time>
      </trkpt>
      <trkpt lat="49.87819" lon="2.17492">
        <ele>87.7</ele>
        <time>2022-01-12T14:53:17Z</time>
      </trkpt>
      <trkpt lat="49.87819" lon="2.17492">
        <ele>87.7</ele>
        <time>2022-01-12T14:53:18Z</time>
      </trkpt>
      <trkpt lat="49.87817" lon="2.17493">
        <ele>87.6</ele>
        <time>2022-01-12T14:53:19Z</time>
      </trkpt>
      <trkpt lat="49.87816" lon="2.17493">
        <ele>87.5</ele>
        <time>2022-01-12T14:53:20Z</time>
      </trkpt>
      <trkpt lat="49.87815" lon="2.17493">
        <ele>87.5</ele>
        <time>2022-01-12T14:53:21Z</time>
      </trkpt>
      <trkpt lat="49.87814" lon="2.17493">
        <ele>87.4</ele>
        <time>2022-01-12T14:53:22Z</time>
      </trkpt>
      <trkpt lat="49.87813" lon="2.17494">
        <ele>87.3</ele>
        <time>2022-01-12T14:53:23Z</time>
      </trkpt>
      <trkpt lat="49.87812" lon="2.17494">
        <ele>87.3</ele>
        <time>2022-01-12T14:53:24Z</time>
      </trkpt>
      <trkpt lat="49.87809" lon="2.17494">
        <ele>87.2</ele>
        <time>2022-01-12T14:53:25Z</time>
      </trkpt>
      <trkpt lat="49.87808" lon="2.17494">
        <ele>87.1</ele>
        <time>2022-01-12T14:53:27Z</time>
      </trkpt>
      <trkpt lat="49.87807" lon="2.17494">
        <ele>87</ele>
        <time>2022-01-12T14:53:28Z</time>
      </trkpt>
      <trkpt lat="49.87806" lon="2.17494">
        <ele>87</ele>
        <time>2022-01-12T14:53:29Z</time>
      </trkpt>
      <trkpt lat="49.87805" lon="2.17495">
        <ele>86.9</ele>
        <time>2022-01-12T14:53:30Z</time>
      </trkpt>
      <trkpt lat="49.87803" lon="2.17495">
        <ele>86.8</ele>
        <time>2022-01-12T14:53:32Z</time>
      </trkpt>
      <trkpt lat="49.87802" lon="2.17496">
        <ele>86.7</ele>
        <time>2022-01-12T14:53:33Z</time>
      </trkpt>
      <trkpt lat="49.87801" lon="2.17496">
        <ele>86.7</ele>
        <time>2022-01-12T14:53:34Z</time>
      </trkpt>
      <trkpt lat="49.878" lon="2.17496">
        <ele>86.6</ele>
        <time>2022-01-12T14:53:36Z</time>
      </trkpt>
      <trkpt lat="49.87798" lon="2.17496">
        <ele>86.5</ele>
        <time>2022-01-12T14:53:37Z</time>
      </trkpt>
      <trkpt lat="49.87797" lon="2.17496">
        <ele>86.5</ele>
        <time>2022-01-12T14:53:38Z</time>
      </trkpt>
      <trkpt lat="49.87796" lon="2.17496">
        <ele>86.4</ele>
        <time>2022-01-12T14:53:39Z</time>
      </trkpt>
      <trkpt lat="49.87795" lon="2.17497">
        <ele>86.3</ele>
        <time>2022-01-12T14:53:41Z</time>
      </trkpt>
      <trkpt lat="49.87794" lon="2.17497">
        <ele>86.3</ele>
        <time>2022-01-12T14:53:42Z</time>
      </trkpt>
      <trkpt lat="49.87793" lon="2.17497">
        <ele>86.2</ele>
        <time>2022-01-12T14:53:43Z</time>
      </trkpt>
      <trkpt lat="49.87792" lon="2.17497">
        <ele>86.1</ele>
        <time>2022-01-12T14:53:44Z</time>
      </trkpt>
      <trkpt lat="49.8779" lon="2.17498">
        <ele>86.1</ele>
        <time>2022-01-12T14:53:46Z</time>
      </trkpt>
      <trkpt lat="49.87789" lon="2.17499">
        <ele>86</ele>
        <time>2022-01-12T14:53:47Z</time>
      </trkpt>
      <trkpt lat="49.87788" lon="2.17499">
        <ele>85.9</ele>
        <time>2022-01-12T14:53:48Z</time>
      </trkpt>
      <trkpt lat="49.87787" lon="2.17501">
        <ele>85.8</ele>
        <time>2022-01-12T14:53:49Z</time>
      </trkpt>
      <trkpt lat="49.87786" lon="2.17501">
        <ele>85.8</ele>
        <time>2022-01-12T14:53:50Z</time>
      </trkpt>
      <trkpt lat="49.87786" lon="2.17502">
        <ele>85.8</ele>
        <time>2022-01-12T14:53:52Z</time>
      </trkpt>
      <trkpt lat="49.87785" lon="2.17502">
        <ele>85.7</ele>
        <time>2022-01-12T14:53:53Z</time>
      </trkpt>
      <trkpt lat="49.87784" lon="2.17501">
        <ele>85.6</ele>
        <time>2022-01-12T14:53:55Z</time>
      </trkpt>
      <trkpt lat="49.87783" lon="2.17501">
        <ele>85.6</ele>
        <time>2022-01-12T14:53:56Z</time>
      </trkpt>
      <trkpt lat="49.87782" lon="2.175">
        <ele>85.6</ele>
        <time>2022-01-12T14:53:57Z</time>
      </trkpt>
      <trkpt lat="49.87782" lon="2.17499">
        <ele>85.5</ele>
        <time>2022-01-12T14:53:58Z</time>
      </trkpt>
      <trkpt lat="49.87781" lon="2.17498">
        <ele>85.4</ele>
        <time>2022-01-12T14:54:00Z</time>
      </trkpt>
      <trkpt lat="49.87781" lon="2.17497">
        <ele>85.4</ele>
        <time>2022-01-12T14:54:01Z</time>
      </trkpt>
      <trkpt lat="49.87781" lon="2.17496">
        <ele>85.4</ele>
        <time>2022-01-12T14:54:02Z</time>
      </trkpt>
      <trkpt lat="49.87781" lon="2.17494">
        <ele>85.3</ele>
        <time>2022-01-12T14:54:03Z</time>
      </trkpt>
      <trkpt lat="49.87781" lon="2.17493">
        <ele>85.3</ele>
        <time>2022-01-12T14:54:05Z</time>
      </trkpt>
      <trkpt lat="49.87781" lon="2.17491">
        <ele>85.2</ele>
        <time>2022-01-12T14:54:06Z</time>
      </trkpt>
      <trkpt lat="49.87782" lon="2.17488">
        <ele>85.1</ele>
        <time>2022-01-12T14:54:07Z</time>
      </trkpt>
      <trkpt lat="49.87783" lon="2.17487">
        <ele>85.1</ele>
        <time>2022-01-12T14:54:08Z</time>
      </trkpt>
      <trkpt lat="49.87783" lon="2.17486">
        <ele>85.1</ele>
        <time>2022-01-12T14:54:10Z</time>
      </trkpt>
      <trkpt lat="49.87784" lon="2.17484">
        <ele>85</ele>
        <time>2022-01-12T14:54:11Z</time>
      </trkpt>
      <trkpt lat="49.87784" lon="2.17483">
        <ele>85</ele>
        <time>2022-01-12T14:54:12Z</time>
      </trkpt>
      <trkpt lat="49.87785" lon="2.17482">
        <ele>85</ele>
        <time>2022-01-12T14:54:13Z</time>
      </trkpt>
      <trkpt lat="49.87786" lon="2.17481">
        <ele>84.9</ele>
        <time>2022-01-12T14:54:14Z</time>
      </trkpt>
      <trkpt lat="49.87787" lon="2.1748">
        <ele>84.9</ele>
        <time>2022-01-12T14:54:16Z</time>
      </trkpt>
      <trkpt lat="49.87787" lon="2.17479">
        <ele>84.9</ele>
        <time>2022-01-12T14:54:17Z</time>
      </trkpt>
      <trkpt lat="49.87788" lon="2.17478">
        <ele>84.8</ele>
        <time>2022-01-12T14:54:18Z</time>
      </trkpt>
      <trkpt lat="49.87789" lon="2.17477">
        <ele>84.8</ele>
        <time>2022-01-12T14:54:19Z</time>
      </trkpt>
      <trkpt lat="49.87789" lon="2.17476">
        <ele>84.8</ele>
        <time>2022-01-12T14:54:20Z</time>
      </trkpt>
      <trkpt lat="49.8779" lon="2.17475">
        <ele>84.8</ele>
        <time>2022-01-12T14:54:21Z</time>
      </trkpt>
      <trkpt lat="49.8779" lon="2.17474">
        <ele>84.8</ele>
        <time>2022-01-12T14:54:22Z</time>
      </trkpt>
      <trkpt lat="49.87791" lon="2.17472">
        <ele>84.8</ele>
        <time>2022-01-12T14:54:24Z</time>
      </trkpt>
      <trkpt lat="49.87791" lon="2.1747">
        <ele>84.7</ele>
        <time>2022-01-12T14:54:25Z</time>
      </trkpt>
      <trkpt lat="49.87791" lon="2.17467">
        <ele>84.7</ele>
        <time>2022-01-12T14:54:26Z</time>
      </trkpt>
      <trkpt lat="49.87791" lon="2.17466">
        <ele>84.7</ele>
        <time>2022-01-12T14:54:27Z</time>
      </trkpt>
      <trkpt lat="49.8779" lon="2.17465">
        <ele>84.7</ele>
        <time>2022-01-12T14:54:28Z</time>
      </trkpt>
      <trkpt lat="49.8779" lon="2.17463">
        <ele>84.7</ele>
        <time>2022-01-12T14:54:29Z</time>
      </trkpt>
      <trkpt lat="49.8779" lon="2.17461">
        <ele>84.7</ele>
        <time>2022-01-12T14:54:30Z</time>
      </trkpt>
      <trkpt lat="49.8779" lon="2.17459">
        <ele>84.7</ele>
        <time>2022-01-12T14:54:31Z</time>
      </trkpt>
      <trkpt lat="49.87789" lon="2.17456">
        <ele>84.7</ele>
        <time>2022-01-12T14:54:33Z</time>
      </trkpt>
      <trkpt lat="49.87789" lon="2.17455">
        <ele>84.7</ele>
        <time>2022-01-12T14:54:34Z</time>
      </trkpt>
      <trkpt lat="49.87789" lon="2.17454">
        <ele>84.7</ele>
        <time>2022-01-12T14:54:35Z</time>
      </trkpt>
      <trkpt lat="49.87788" lon="2.17451">
        <ele>84.6</ele>
        <time>2022-01-12T14:54:36Z</time>
      </trkpt>
      <trkpt lat="49.87788" lon="2.17449">
        <ele>84.6</ele>
        <time>2022-01-12T14:54:37Z</time>
      </trkpt>
      <trkpt lat="49.87788" lon="2.17448">
        <ele>84.6</ele>
        <time>2022-01-12T14:54:38Z</time>
      </trkpt>
      <trkpt lat="49.87788" lon="2.17445">
        <ele>84.6</ele>
        <time>2022-01-12T14:54:40Z</time>
      </trkpt>
      <trkpt lat="49.87788" lon="2.17444">
        <ele>84.6</ele>
        <time>2022-01-12T14:54:41Z</time>
      </trkpt>
      <trkpt lat="49.87787" lon="2.17443">
        <ele>84.6</ele>
        <time>2022-01-12T14:54:42Z</time>
      </trkpt>
      <trkpt lat="49.87787" lon="2.17441">
        <ele>84.6</ele>
        <time>2022-01-12T14:54:43Z</time>
      </trkpt>
      <trkpt lat="49.87787" lon="2.17439">
        <ele>84.6</ele>
        <time>2022-01-12T14:54:44Z</time>
      </trkpt>
      <trkpt lat="49.87786" lon="2.17438">
        <ele>84.6</ele>
        <time>2022-01-12T14:54:45Z</time>
      </trkpt>
      <trkpt lat="49.87786" lon="2.17437">
        <ele>84.6</ele>
        <time>2022-01-12T14:54:46Z</time>
      </trkpt>
      <trkpt lat="49.87786" lon="2.17436">
        <ele>84.6</ele>
        <time>2022-01-12T14:54:48Z</time>
      </trkpt>
      <trkpt lat="49.87786" lon="2.17434">
        <ele>84.6</ele>
        <time>2022-01-12T14:54:49Z</time>
      </trkpt>
      <trkpt lat="49.87786" lon="2.17432">
        <ele>84.6</ele>
        <time>2022-01-12T14:54:50Z</time>
      </trkpt>
      <trkpt lat="49.87786" lon="2.1743">
        <ele>84.6</ele>
        <time>2022-01-12T14:54:51Z</time>
      </trkpt>
      <trkpt lat="49.87786" lon="2.17429">
        <ele>84.6</ele>
        <time>2022-01-12T14:54:52Z</time>
      </trkpt>
      <trkpt lat="49.87786" lon="2.17428">
        <ele>84.6</ele>
        <time>2022-01-12T14:54:53Z</time>
      </trkpt>
      <trkpt lat="49.87786" lon="2.17427">
        <ele>84.6</ele>
        <time>2022-01-12T14:54:54Z</time>
      </trkpt>
      <trkpt lat="49.87787" lon="2.17424">
        <ele>84.7</ele>
        <time>2022-01-12T14:54:56Z</time>
      </trkpt>
      <trkpt lat="49.87787" lon="2.17422">
        <ele>84.7</ele>
        <time>2022-01-12T14:54:57Z</time>
      </trkpt>
      <trkpt lat="49.87787" lon="2.17421">
        <ele>84.7</ele>
        <time>2022-01-12T14:54:58Z</time>
      </trkpt>
      <trkpt lat="49.87786" lon="2.17418">
        <ele>84.7</ele>
        <time>2022-01-12T14:54:59Z</time>
      </trkpt>
      <trkpt lat="49.87786" lon="2.17416">
        <ele>84.7</ele>
        <time>2022-01-12T14:55:00Z</time>
      </trkpt>
      <trkpt lat="49.87786" lon="2.17415">
        <ele>84.7</ele>
        <time>2022-01-12T14:55:01Z</time>
      </trkpt>
      <trkpt lat="49.87786" lon="2.17412">
        <ele>84.7</ele>
        <time>2022-01-12T14:55:02Z</time>
      </trkpt>
      <trkpt lat="49.87786" lon="2.17411">
        <ele>84.7</ele>
        <time>2022-01-12T14:55:04Z</time>
      </trkpt>
      <trkpt lat="49.87785" lon="2.17409">
        <ele>84.7</ele>
        <time>2022-01-12T14:55:05Z</time>
      </trkpt>
      <trkpt lat="49.87785" lon="2.17406">
        <ele>84.7</ele>
        <time>2022-01-12T14:55:06Z</time>
      </trkpt>
      <trkpt lat="49.87785" lon="2.17405">
        <ele>84.7</ele>
        <time>2022-01-12T14:55:07Z</time>
      </trkpt>
      <trkpt lat="49.87786" lon="2.17404">
        <ele>84.7</ele>
        <time>2022-01-12T14:55:08Z</time>
      </trkpt>
      <trkpt lat="49.87786" lon="2.17402">
        <ele>84.7</ele>
        <time>2022-01-12T14:55:09Z</time>
      </trkpt>
      <trkpt lat="49.87786" lon="2.174">
        <ele>84.7</ele>
        <time>2022-01-12T14:55:10Z</time>
      </trkpt>
      <trkpt lat="49.87786" lon="2.17398">
        <ele>84.8</ele>
        <time>2022-01-12T14:55:12Z</time>
      </trkpt>
      <trkpt lat="49.87786" lon="2.17396">
        <ele>84.8</ele>
        <time>2022-01-12T14:55:13Z</time>
      </trkpt>
      <trkpt lat="49.87786" lon="2.17394">
        <ele>84.8</ele>
        <time>2022-01-12T14:55:14Z</time>
      </trkpt>
      <trkpt lat="49.87786" lon="2.17393">
        <ele>84.8</ele>
        <time>2022-01-12T14:55:15Z</time>
      </trkpt>
      <trkpt lat="49.87786" lon="2.17389">
        <ele>84.8</ele>
        <time>2022-01-12T14:55:17Z</time>
      </trkpt>
      <trkpt lat="49.87786" lon="2.17388">
        <ele>84.8</ele>
        <time>2022-01-12T14:55:18Z</time>
      </trkpt>
      <trkpt lat="49.87786" lon="2.17387">
        <ele>84.8</ele>
        <time>2022-01-12T14:55:19Z</time>
      </trkpt>
      <trkpt lat="49.87786" lon="2.17385">
        <ele>84.8</ele>
        <time>2022-01-12T14:55:20Z</time>
      </trkpt>
      <trkpt lat="49.87786" lon="2.17384">
        <ele>84.8</ele>
        <time>2022-01-12T14:55:21Z</time>
      </trkpt>
      <trkpt lat="49.87786" lon="2.17382">
        <ele>84.8</ele>
        <time>2022-01-12T14:55:22Z</time>
      </trkpt>
      <trkpt lat="49.87786" lon="2.17381">
        <ele>84.9</ele>
        <time>2022-01-12T14:55:23Z</time>
      </trkpt>
      <trkpt lat="49.87786" lon="2.1738">
        <ele>84.9</ele>
        <time>2022-01-12T14:55:25Z</time>
      </trkpt>
      <trkpt lat="49.87786" lon="2.17377">
        <ele>84.9</ele>
        <time>2022-01-12T14:55:26Z</time>
      </trkpt>
      <trkpt lat="49.87786" lon="2.17375">
        <ele>84.9</ele>
        <time>2022-01-12T14:55:27Z</time>
      </trkpt>
      <trkpt lat="49.87786" lon="2.17374">
        <ele>84.9</ele>
        <time>2022-01-12T14:55:28Z</time>
      </trkpt>
      <trkpt lat="49.87786" lon="2.17373">
        <ele>84.9</ele>
        <time>2022-01-12T14:55:30Z</time>
      </trkpt>
      <trkpt lat="49.87786" lon="2.17371">
        <ele>84.9</ele>
        <time>2022-01-12T14:55:31Z</time>
      </trkpt>
      <trkpt lat="49.87786" lon="2.17369">
        <ele>84.9</ele>
        <time>2022-01-12T14:55:32Z</time>
      </trkpt>
      <trkpt lat="49.87786" lon="2.17368">
        <ele>84.9</ele>
        <time>2022-01-12T14:55:33Z</time>
      </trkpt>
      <trkpt lat="49.87787" lon="2.17365">
        <ele>85</ele>
        <time>2022-01-12T14:55:34Z</time>
      </trkpt>
      <trkpt lat="49.87787" lon="2.17363">
        <ele>85</ele>
        <time>2022-01-12T14:55:35Z</time>
      </trkpt>
      <trkpt lat="49.87787" lon="2.17362">
        <ele>85</ele>
        <time>2022-01-12T14:55:37Z</time>
      </trkpt>
      <trkpt lat="49.87787" lon="2.1736">
        <ele>85</ele>
        <time>2022-01-12T14:55:38Z</time>
      </trkpt>
      <trkpt lat="49.87787" lon="2.17359">
        <ele>85</ele>
        <time>2022-01-12T14:55:39Z</time>
      </trkpt>
      <trkpt lat="49.87787" lon="2.17357">
        <ele>85</ele>
        <time>2022-01-12T14:55:40Z</time>
      </trkpt>
      <trkpt lat="49.87787" lon="2.17354">
        <ele>85</ele>
        <time>2022-01-12T14:55:41Z</time>
      </trkpt>
      <trkpt lat="49.87787" lon="2.17352">
        <ele>85</ele>
        <time>2022-01-12T14:55:42Z</time>
      </trkpt>
      <trkpt lat="49.87787" lon="2.17351">
        <ele>85</ele>
        <time>2022-01-12T14:55:43Z</time>
      </trkpt>
      <trkpt lat="49.87787" lon="2.17349">
        <ele>85.1</ele>
        <time>2022-01-12T14:55:45Z</time>
      </trkpt>
      <trkpt lat="49.87786" lon="2.17346">
        <ele>85.1</ele>
        <time>2022-01-12T14:55:46Z</time>
      </trkpt>
      <trkpt lat="49.87786" lon="2.17344">
        <ele>85.1</ele>
        <time>2022-01-12T14:55:47Z</time>
      </trkpt>
      <trkpt lat="49.87786" lon="2.1734">
        <ele>85.1</ele>
        <time>2022-01-12T14:55:49Z</time>
      </trkpt>
      <trkpt lat="49.87786" lon="2.17338">
        <ele>85.1</ele>
        <time>2022-01-12T14:55:50Z</time>
      </trkpt>
      <trkpt lat="49.87786" lon="2.17335">
        <ele>85.1</ele>
        <time>2022-01-12T14:55:52Z</time>
      </trkpt>
      <trkpt lat="49.87785" lon="2.17331">
        <ele>85.1</ele>
        <time>2022-01-12T14:55:53Z</time>
      </trkpt>
      <trkpt lat="49.87785" lon="2.1733">
        <ele>85.1</ele>
        <time>2022-01-12T14:55:54Z</time>
      </trkpt>
      <trkpt lat="49.87785" lon="2.17329">
        <ele>85.1</ele>
        <time>2022-01-12T14:55:55Z</time>
      </trkpt>
      <trkpt lat="49.87784" lon="2.17326">
        <ele>85.2</ele>
        <time>2022-01-12T14:55:57Z</time>
      </trkpt>
      <trkpt lat="49.87784" lon="2.17325">
        <ele>85.2</ele>
        <time>2022-01-12T14:55:58Z</time>
      </trkpt>
      <trkpt lat="49.87783" lon="2.17323">
        <ele>85.2</ele>
        <time>2022-01-12T14:55:59Z</time>
      </trkpt>
      <trkpt lat="49.87783" lon="2.17322">
        <ele>85.2</ele>
        <time>2022-01-12T14:56:00Z</time>
      </trkpt>
      <trkpt lat="49.87782" lon="2.17319">
        <ele>85.2</ele>
        <time>2022-01-12T14:56:02Z</time>
      </trkpt>
      <trkpt lat="49.87781" lon="2.17318">
        <ele>85.2</ele>
        <time>2022-01-12T14:56:03Z</time>
      </trkpt>
      <trkpt lat="49.87781" lon="2.17316">
        <ele>85.2</ele>
        <time>2022-01-12T14:56:04Z</time>
      </trkpt>
      <trkpt lat="49.8778" lon="2.17314">
        <ele>85.2</ele>
        <time>2022-01-12T14:56:06Z</time>
      </trkpt>
      <trkpt lat="49.8778" lon="2.17312">
        <ele>85.2</ele>
        <time>2022-01-12T14:56:07Z</time>
      </trkpt>
      <trkpt lat="49.8778" lon="2.17311">
        <ele>85.2</ele>
        <time>2022-01-12T14:56:08Z</time>
      </trkpt>
      <trkpt lat="49.8778" lon="2.17309">
        <ele>85.2</ele>
        <time>2022-01-12T14:56:09Z</time>
      </trkpt>
      <trkpt lat="49.87779" lon="2.17308">
        <ele>85.2</ele>
        <time>2022-01-12T14:56:10Z</time>
      </trkpt>
      <trkpt lat="49.87779" lon="2.17307">
        <ele>85.2</ele>
        <time>2022-01-12T14:56:11Z</time>
      </trkpt>
      <trkpt lat="49.87778" lon="2.17306">
        <ele>85.3</ele>
        <time>2022-01-12T14:56:13Z</time>
      </trkpt>
      <trkpt lat="49.87777" lon="2.17305">
        <ele>85.3</ele>
        <time>2022-01-12T14:56:14Z</time>
      </trkpt>
      <trkpt lat="49.87776" lon="2.17305">
        <ele>85.1</ele>
        <time>2022-01-12T14:56:15Z</time>
      </trkpt>
      <trkpt lat="49.87776" lon="2.17305">
        <ele>85.1</ele>
        <time>2022-01-12T14:56:16Z</time>
      </trkpt>
      <trkpt lat="49.87775" lon="2.17305">
        <ele>85</ele>
        <time>2022-01-12T14:56:17Z</time>
      </trkpt>
      <trkpt lat="49.87773" lon="2.17306">
        <ele>85</ele>
        <time>2022-01-12T14:56:19Z</time>
      </trkpt>
      <trkpt lat="49.87772" lon="2.17306">
        <ele>84.9</ele>
        <time>2022-01-12T14:56:20Z</time>
      </trkpt>
      <trkpt lat="49.87771" lon="2.17305">
        <ele>84.9</ele>
        <time>2022-01-12T14:56:22Z</time>
      </trkpt>
      <trkpt lat="49.87771" lon="2.17306">
        <ele>84.9</ele>
        <time>2022-01-12T14:56:23Z</time>
      </trkpt>
      <trkpt lat="49.87771" lon="2.17306">
        <ele>84.8</ele>
        <time>2022-01-12T14:56:25Z</time>
      </trkpt>
      <trkpt lat="49.87771" lon="2.17306">
        <ele>84.8</ele>
        <time>2022-01-12T14:56:26Z</time>
      </trkpt>
      <trkpt lat="49.87771" lon="2.17306">
        <ele>84.8</ele>
        <time>2022-01-12T14:56:28Z</time>
      </trkpt>
      <trkpt lat="49.87772" lon="2.17306">
        <ele>84.8</ele>
        <time>2022-01-12T14:56:29Z</time>
      </trkpt>
      <trkpt lat="49.87772" lon="2.17307">
        <ele>84.8</ele>
        <time>2022-01-12T14:56:30Z</time>
      </trkpt>
      <trkpt lat="49.87772" lon="2.17307">
        <ele>84.8</ele>
        <time>2022-01-12T14:56:31Z</time>
      </trkpt>
      <trkpt lat="49.87773" lon="2.17307">
        <ele>84.7</ele>
        <time>2022-01-12T14:56:33Z</time>
      </trkpt>
      <trkpt lat="49.87773" lon="2.17307">
        <ele>84.7</ele>
        <time>2022-01-12T14:56:34Z</time>
      </trkpt>
      <trkpt lat="49.87773" lon="2.17308">
        <ele>84.7</ele>
        <time>2022-01-12T14:56:35Z</time>
      </trkpt>
      <trkpt lat="49.87773" lon="2.17308">
        <ele>84.7</ele>
        <time>2022-01-12T14:56:36Z</time>
      </trkpt>
      <trkpt lat="49.87774" lon="2.17308">
        <ele>84.7</ele>
        <time>2022-01-12T14:56:38Z</time>
      </trkpt>
      <trkpt lat="49.87774" lon="2.17308">
        <ele>84.7</ele>
        <time>2022-01-12T14:56:40Z</time>
      </trkpt>
      <trkpt lat="49.87774" lon="2.17308">
        <ele>84.6</ele>
        <time>2022-01-12T14:56:42Z</time>
      </trkpt>
      <trkpt lat="49.87775" lon="2.17309">
        <ele>84.6</ele>
        <time>2022-01-12T14:56:44Z</time>
      </trkpt>
      <trkpt lat="49.87775" lon="2.17309">
        <ele>84.6</ele>
        <time>2022-01-12T14:56:45Z</time>
      </trkpt>
      <trkpt lat="49.87775" lon="2.17309">
        <ele>84.6</ele>
        <time>2022-01-12T14:56:47Z</time>
      </trkpt>
      <trkpt lat="49.87775" lon="2.17309">
        <ele>84.6</ele>
        <time>2022-01-12T14:56:49Z</time>
      </trkpt>
      <trkpt lat="49.87776" lon="2.17309">
        <ele>84.6</ele>
        <time>2022-01-12T14:56:50Z</time>
      </trkpt>
      <trkpt lat="49.87776" lon="2.1731">
        <ele>84.5</ele>
        <time>2022-01-12T14:56:52Z</time>
      </trkpt>
      <trkpt lat="49.87776" lon="2.1731">
        <ele>84.5</ele>
        <time>2022-01-12T14:56:54Z</time>
      </trkpt>
      <trkpt lat="49.87776" lon="2.1731">
        <ele>84.5</ele>
        <time>2022-01-12T14:56:55Z</time>
      </trkpt>
      <trkpt lat="49.87777" lon="2.1731">
        <ele>84.5</ele>
        <time>2022-01-12T14:56:56Z</time>
      </trkpt>
      <trkpt lat="49.87777" lon="2.17312">
        <ele>84.4</ele>
        <time>2022-01-12T14:56:58Z</time>
      </trkpt>
      <trkpt lat="49.87776" lon="2.17312">
        <ele>84.4</ele>
        <time>2022-01-12T14:57:00Z</time>
      </trkpt>
      <trkpt lat="49.87775" lon="2.17313">
        <ele>84.3</ele>
        <time>2022-01-12T14:57:02Z</time>
      </trkpt>
      <trkpt lat="49.87774" lon="2.17314">
        <ele>84.3</ele>
        <time>2022-01-12T14:57:03Z</time>
      </trkpt>
      <trkpt lat="49.87772" lon="2.17316">
        <ele>84.1</ele>
        <time>2022-01-12T14:57:04Z</time>
      </trkpt>
      <trkpt lat="49.87772" lon="2.17316">
        <ele>84.1</ele>
        <time>2022-01-12T14:57:05Z</time>
      </trkpt>
      <trkpt lat="49.87771" lon="2.17317">
        <ele>84</ele>
        <time>2022-01-12T14:57:06Z</time>
      </trkpt>
      <trkpt lat="49.87768" lon="2.17319">
        <ele>83.9</ele>
        <time>2022-01-12T14:57:08Z</time>
      </trkpt>
      <trkpt lat="49.87767" lon="2.17319">
        <ele>83.8</ele>
        <time>2022-01-12T14:57:09Z</time>
      </trkpt>
      <trkpt lat="49.87764" lon="2.1732">
        <ele>83.6</ele>
        <time>2022-01-12T14:57:10Z</time>
      </trkpt>
      <trkpt lat="49.87763" lon="2.1732">
        <ele>83.6</ele>
        <time>2022-01-12T14:57:11Z</time>
      </trkpt>
      <trkpt lat="49.87762" lon="2.17321">
        <ele>83.5</ele>
        <time>2022-01-12T14:57:12Z</time>
      </trkpt>
      <trkpt lat="49.8776" lon="2.17322">
        <ele>83.4</ele>
        <time>2022-01-12T14:57:13Z</time>
      </trkpt>
      <trkpt lat="49.87759" lon="2.17323">
        <ele>83.3</ele>
        <time>2022-01-12T14:57:14Z</time>
      </trkpt>
      <trkpt lat="49.87757" lon="2.17324">
        <ele>83.2</ele>
        <time>2022-01-12T14:57:16Z</time>
      </trkpt>
      <trkpt lat="49.87756" lon="2.17325">
        <ele>83.1</ele>
        <time>2022-01-12T14:57:17Z</time>
      </trkpt>
      <trkpt lat="49.87754" lon="2.17325">
        <ele>83.1</ele>
        <time>2022-01-12T14:57:18Z</time>
      </trkpt>
      <trkpt lat="49.87753" lon="2.17326">
        <ele>83</ele>
        <time>2022-01-12T14:57:19Z</time>
      </trkpt>
      <trkpt lat="49.87752" lon="2.17327">
        <ele>82.9</ele>
        <time>2022-01-12T14:57:20Z</time>
      </trkpt>
      <trkpt lat="49.87751" lon="2.17328">
        <ele>82.8</ele>
        <time>2022-01-12T14:57:21Z</time>
      </trkpt>
      <trkpt lat="49.87749" lon="2.17329">
        <ele>82.7</ele>
        <time>2022-01-12T14:57:22Z</time>
      </trkpt>
      <trkpt lat="49.87748" lon="2.1733">
        <ele>82.7</ele>
        <time>2022-01-12T14:57:23Z</time>
      </trkpt>
      <trkpt lat="49.87747" lon="2.17331">
        <ele>82.6</ele>
        <time>2022-01-12T14:57:24Z</time>
      </trkpt>
      <trkpt lat="49.87745" lon="2.17332">
        <ele>82.5</ele>
        <time>2022-01-12T14:57:26Z</time>
      </trkpt>
      <trkpt lat="49.87744" lon="2.17334">
        <ele>82.4</ele>
        <time>2022-01-12T14:57:27Z</time>
      </trkpt>
      <trkpt lat="49.87742" lon="2.17335">
        <ele>82.3</ele>
        <time>2022-01-12T14:57:28Z</time>
      </trkpt>
      <trkpt lat="49.87742" lon="2.17336">
        <ele>82.2</ele>
        <time>2022-01-12T14:57:29Z</time>
      </trkpt>
      <trkpt lat="49.87741" lon="2.17337">
        <ele>82.2</ele>
        <time>2022-01-12T14:57:30Z</time>
      </trkpt>
      <trkpt lat="49.87739" lon="2.17338">
        <ele>82.1</ele>
        <time>2022-01-12T14:57:31Z</time>
      </trkpt>
      <trkpt lat="49.87738" lon="2.17339">
        <ele>82</ele>
        <time>2022-01-12T14:57:33Z</time>
      </trkpt>
      <trkpt lat="49.87737" lon="2.1734">
        <ele>81.9</ele>
        <time>2022-01-12T14:57:34Z</time>
      </trkpt>
      <trkpt lat="49.87736" lon="2.1734">
        <ele>81.9</ele>
        <time>2022-01-12T14:57:35Z</time>
      </trkpt>
      <trkpt lat="49.87735" lon="2.17341">
        <ele>81.8</ele>
        <time>2022-01-12T14:57:36Z</time>
      </trkpt>
      <trkpt lat="49.87733" lon="2.17341">
        <ele>81.7</ele>
        <time>2022-01-12T14:57:37Z</time>
      </trkpt>
      <trkpt lat="49.87732" lon="2.17342">
        <ele>81.7</ele>
        <time>2022-01-12T14:57:38Z</time>
      </trkpt>
      <trkpt lat="49.87731" lon="2.17342">
        <ele>81.6</ele>
        <time>2022-01-12T14:57:40Z</time>
      </trkpt>
      <trkpt lat="49.8773" lon="2.17343">
        <ele>81.5</ele>
        <time>2022-01-12T14:57:41Z</time>
      </trkpt>
      <trkpt lat="49.87729" lon="2.17344">
        <ele>81.5</ele>
        <time>2022-01-12T14:57:42Z</time>
      </trkpt>
      <trkpt lat="49.87728" lon="2.17344">
        <ele>81.4</ele>
        <time>2022-01-12T14:57:43Z</time>
      </trkpt>
      <trkpt lat="49.87727" lon="2.17346">
        <ele>81.3</ele>
        <time>2022-01-12T14:57:44Z</time>
      </trkpt>
      <trkpt lat="49.87726" lon="2.17346">
        <ele>81.3</ele>
        <time>2022-01-12T14:57:45Z</time>
      </trkpt>
      <trkpt lat="49.87725" lon="2.17347">
        <ele>81.2</ele>
        <time>2022-01-12T14:57:46Z</time>
      </trkpt>
      <trkpt lat="49.87724" lon="2.17348">
        <ele>81.2</ele>
        <time>2022-01-12T14:57:47Z</time>
      </trkpt>
      <trkpt lat="49.87724" lon="2.17349">
        <ele>81.1</ele>
        <time>2022-01-12T14:57:48Z</time>
      </trkpt>
      <trkpt lat="49.87722" lon="2.1735">
        <ele>81</ele>
        <time>2022-01-12T14:57:50Z</time>
      </trkpt>
      <trkpt lat="49.87721" lon="2.17351">
        <ele>81</ele>
        <time>2022-01-12T14:57:51Z</time>
      </trkpt>
      <trkpt lat="49.8772" lon="2.17352">
        <ele>80.9</ele>
        <time>2022-01-12T14:57:52Z</time>
      </trkpt>
      <trkpt lat="49.87719" lon="2.17354">
        <ele>80.8</ele>
        <time>2022-01-12T14:57:54Z</time>
      </trkpt>
      <trkpt lat="49.87717" lon="2.17356">
        <ele>80.6</ele>
        <time>2022-01-12T14:57:55Z</time>
      </trkpt>
      <trkpt lat="49.87716" lon="2.17357">
        <ele>80.6</ele>
        <time>2022-01-12T14:57:56Z</time>
      </trkpt>
      <trkpt lat="49.87716" lon="2.17358">
        <ele>80.6</ele>
        <time>2022-01-12T14:57:57Z</time>
      </trkpt>
      <trkpt lat="49.87715" lon="2.17359">
        <ele>80.5</ele>
        <time>2022-01-12T14:57:58Z</time>
      </trkpt>
      <trkpt lat="49.87714" lon="2.1736">
        <ele>80.4</ele>
        <time>2022-01-12T14:58:00Z</time>
      </trkpt>
      <trkpt lat="49.87713" lon="2.17361">
        <ele>80.4</ele>
        <time>2022-01-12T14:58:01Z</time>
      </trkpt>
      <trkpt lat="49.87712" lon="2.17361">
        <ele>80.3</ele>
        <time>2022-01-12T14:58:02Z</time>
      </trkpt>
      <trkpt lat="49.87711" lon="2.17363">
        <ele>80.2</ele>
        <time>2022-01-12T14:58:03Z</time>
      </trkpt>
      <trkpt lat="49.87709" lon="2.17364">
        <ele>80.1</ele>
        <time>2022-01-12T14:58:04Z</time>
      </trkpt>
      <trkpt lat="49.87708" lon="2.17365">
        <ele>80</ele>
        <time>2022-01-12T14:58:05Z</time>
      </trkpt>
      <trkpt lat="49.87708" lon="2.17366">
        <ele>80</ele>
        <time>2022-01-12T14:58:06Z</time>
      </trkpt>
      <trkpt lat="49.87707" lon="2.17367">
        <ele>79.9</ele>
        <time>2022-01-12T14:58:07Z</time>
      </trkpt>
      <trkpt lat="49.87706" lon="2.17368">
        <ele>79.9</ele>
        <time>2022-01-12T14:58:08Z</time>
      </trkpt>
      <trkpt lat="49.87705" lon="2.17369">
        <ele>79.8</ele>
        <time>2022-01-12T14:58:09Z</time>
      </trkpt>
      <trkpt lat="49.87703" lon="2.17371">
        <ele>79.7</ele>
        <time>2022-01-12T14:58:11Z</time>
      </trkpt>
      <trkpt lat="49.87702" lon="2.17371">
        <ele>79.6</ele>
        <time>2022-01-12T14:58:12Z</time>
      </trkpt>
      <trkpt lat="49.87702" lon="2.17372">
        <ele>79.6</ele>
        <time>2022-01-12T14:58:13Z</time>
      </trkpt>
      <trkpt lat="49.87701" lon="2.17373">
        <ele>79.5</ele>
        <time>2022-01-12T14:58:14Z</time>
      </trkpt>
      <trkpt lat="49.877" lon="2.17374">
        <ele>79.4</ele>
        <time>2022-01-12T14:58:15Z</time>
      </trkpt>
      <trkpt lat="49.87699" lon="2.17375">
        <ele>79.4</ele>
        <time>2022-01-12T14:58:16Z</time>
      </trkpt>
      <trkpt lat="49.87697" lon="2.17376">
        <ele>79.3</ele>
        <time>2022-01-12T14:58:17Z</time>
      </trkpt>
      <trkpt lat="49.87696" lon="2.17377">
        <ele>79.2</ele>
        <time>2022-01-12T14:58:18Z</time>
      </trkpt>
      <trkpt lat="49.87695" lon="2.17377">
        <ele>79.2</ele>
        <time>2022-01-12T14:58:19Z</time>
      </trkpt>
      <trkpt lat="49.87695" lon="2.17378">
        <ele>79.1</ele>
        <time>2022-01-12T14:58:21Z</time>
      </trkpt>
      <trkpt lat="49.87694" lon="2.17379">
        <ele>79</ele>
        <time>2022-01-12T14:58:22Z</time>
      </trkpt>
      <trkpt lat="49.87692" lon="2.1738">
        <ele>78.9</ele>
        <time>2022-01-12T14:58:23Z</time>
      </trkpt>
      <trkpt lat="49.87691" lon="2.1738">
        <ele>78.9</ele>
        <time>2022-01-12T14:58:24Z</time>
      </trkpt>
      <trkpt lat="49.8769" lon="2.17381">
        <ele>78.8</ele>
        <time>2022-01-12T14:58:25Z</time>
      </trkpt>
      <trkpt lat="49.87689" lon="2.17382">
        <ele>78.7</ele>
        <time>2022-01-12T14:58:26Z</time>
      </trkpt>
      <trkpt lat="49.87688" lon="2.17383">
        <ele>78.7</ele>
        <time>2022-01-12T14:58:27Z</time>
      </trkpt>
      <trkpt lat="49.87688" lon="2.17384">
        <ele>78.6</ele>
        <time>2022-01-12T14:58:28Z</time>
      </trkpt>
      <trkpt lat="49.87687" lon="2.17385">
        <ele>78.6</ele>
        <time>2022-01-12T14:58:29Z</time>
      </trkpt>
      <trkpt lat="49.87686" lon="2.17386">
        <ele>78.5</ele>
        <time>2022-01-12T14:58:31Z</time>
      </trkpt>
      <trkpt lat="49.87685" lon="2.17387">
        <ele>78.4</ele>
        <time>2022-01-12T14:58:32Z</time>
      </trkpt>
      <trkpt lat="49.87684" lon="2.17387">
        <ele>78.4</ele>
        <time>2022-01-12T14:58:33Z</time>
      </trkpt>
      <trkpt lat="49.87683" lon="2.17389">
        <ele>78.2</ele>
        <time>2022-01-12T14:58:34Z</time>
      </trkpt>
      <trkpt lat="49.87682" lon="2.1739">
        <ele>78.2</ele>
        <time>2022-01-12T14:58:35Z</time>
      </trkpt>
      <trkpt lat="49.87681" lon="2.17391">
        <ele>78.1</ele>
        <time>2022-01-12T14:58:36Z</time>
      </trkpt>
      <trkpt lat="49.8768" lon="2.17392">
        <ele>78.1</ele>
        <time>2022-01-12T14:58:37Z</time>
      </trkpt>
      <trkpt lat="49.87679" lon="2.17393">
        <ele>78</ele>
        <time>2022-01-12T14:58:38Z</time>
      </trkpt>
      <trkpt lat="49.87678" lon="2.17394">
        <ele>77.9</ele>
        <time>2022-01-12T14:58:39Z</time>
      </trkpt>
      <trkpt lat="49.87677" lon="2.17395">
        <ele>77.9</ele>
        <time>2022-01-12T14:58:41Z</time>
      </trkpt>
      <trkpt lat="49.87676" lon="2.17396">
        <ele>77.8</ele>
        <time>2022-01-12T14:58:42Z</time>
      </trkpt>
      <trkpt lat="49.87675" lon="2.17397">
        <ele>77.7</ele>
        <time>2022-01-12T14:58:43Z</time>
      </trkpt>
      <trkpt lat="49.87674" lon="2.17399">
        <ele>77.6</ele>
        <time>2022-01-12T14:58:44Z</time>
      </trkpt>
      <trkpt lat="49.87673" lon="2.174">
        <ele>77.6</ele>
        <time>2022-01-12T14:58:45Z</time>
      </trkpt>
      <trkpt lat="49.87671" lon="2.17401">
        <ele>77.5</ele>
        <time>2022-01-12T14:58:46Z</time>
      </trkpt>
      <trkpt lat="49.8767" lon="2.17402">
        <ele>77.4</ele>
        <time>2022-01-12T14:58:47Z</time>
      </trkpt>
      <trkpt lat="49.87669" lon="2.17403">
        <ele>77.4</ele>
        <time>2022-01-12T14:58:48Z</time>
      </trkpt>
      <trkpt lat="49.87668" lon="2.17404">
        <ele>77.3</ele>
        <time>2022-01-12T14:58:50Z</time>
      </trkpt>
      <trkpt lat="49.87666" lon="2.17406">
        <ele>77.2</ele>
        <time>2022-01-12T14:58:51Z</time>
      </trkpt>
      <trkpt lat="49.87665" lon="2.17406">
        <ele>77.1</ele>
        <time>2022-01-12T14:58:52Z</time>
      </trkpt>
      <trkpt lat="49.87665" lon="2.17407">
        <ele>77.1</ele>
        <time>2022-01-12T14:58:53Z</time>
      </trkpt>
      <trkpt lat="49.87663" lon="2.17408">
        <ele>77</ele>
        <time>2022-01-12T14:58:54Z</time>
      </trkpt>
      <trkpt lat="49.87662" lon="2.17408">
        <ele>77</ele>
        <time>2022-01-12T14:58:55Z</time>
      </trkpt>
      <trkpt lat="49.87661" lon="2.17409">
        <ele>76.9</ele>
        <time>2022-01-12T14:58:56Z</time>
      </trkpt>
      <trkpt lat="49.8766" lon="2.17409">
        <ele>76.9</ele>
        <time>2022-01-12T14:58:57Z</time>
      </trkpt>
      <trkpt lat="49.87659" lon="2.1741">
        <ele>76.8</ele>
        <time>2022-01-12T14:58:59Z</time>
      </trkpt>
      <trkpt lat="49.87658" lon="2.1741">
        <ele>76.7</ele>
        <time>2022-01-12T14:59:00Z</time>
      </trkpt>
      <trkpt lat="49.87657" lon="2.17411">
        <ele>76.7</ele>
        <time>2022-01-12T14:59:01Z</time>
      </trkpt>
      <trkpt lat="49.87656" lon="2.17411">
        <ele>76.6</ele>
        <time>2022-01-12T14:59:02Z</time>
      </trkpt>
      <trkpt lat="49.87655" lon="2.17412">
        <ele>76.6</ele>
        <time>2022-01-12T14:59:03Z</time>
      </trkpt>
      <trkpt lat="49.87654" lon="2.17413">
        <ele>76.5</ele>
        <time>2022-01-12T14:59:04Z</time>
      </trkpt>
      <trkpt lat="49.87653" lon="2.17413">
        <ele>76.5</ele>
        <time>2022-01-12T14:59:05Z</time>
      </trkpt>
      <trkpt lat="49.87652" lon="2.17414">
        <ele>76.5</ele>
        <time>2022-01-12T14:59:06Z</time>
      </trkpt>
      <trkpt lat="49.87652" lon="2.17415">
        <ele>76.4</ele>
        <time>2022-01-12T14:59:08Z</time>
      </trkpt>
      <trkpt lat="49.87651" lon="2.17416">
        <ele>76.4</ele>
        <time>2022-01-12T14:59:09Z</time>
      </trkpt>
      <trkpt lat="49.87649" lon="2.17417">
        <ele>76.3</ele>
        <time>2022-01-12T14:59:10Z</time>
      </trkpt>
      <trkpt lat="49.87648" lon="2.17419">
        <ele>76.2</ele>
        <time>2022-01-12T14:59:11Z</time>
      </trkpt>
      <trkpt lat="49.87647" lon="2.1742">
        <ele>76.2</ele>
        <time>2022-01-12T14:59:12Z</time>
      </trkpt>
      <trkpt lat="49.87646" lon="2.17421">
        <ele>76.1</ele>
        <time>2022-01-12T14:59:13Z</time>
      </trkpt>
      <trkpt lat="49.87645" lon="2.17422">
        <ele>76.1</ele>
        <time>2022-01-12T14:59:14Z</time>
      </trkpt>
      <trkpt lat="49.87644" lon="2.17423">
        <ele>76</ele>
        <time>2022-01-12T14:59:15Z</time>
      </trkpt>
      <trkpt lat="49.87643" lon="2.17424">
        <ele>76</ele>
        <time>2022-01-12T14:59:16Z</time>
      </trkpt>
      <trkpt lat="49.87642" lon="2.17424">
        <ele>76</ele>
        <time>2022-01-12T14:59:18Z</time>
      </trkpt>
      <trkpt lat="49.87641" lon="2.17425">
        <ele>75.9</ele>
        <time>2022-01-12T14:59:19Z</time>
      </trkpt>
      <trkpt lat="49.87639" lon="2.17426">
        <ele>75.9</ele>
        <time>2022-01-12T14:59:20Z</time>
      </trkpt>
      <trkpt lat="49.87638" lon="2.17427">
        <ele>75.8</ele>
        <time>2022-01-12T14:59:21Z</time>
      </trkpt>
      <trkpt lat="49.87637" lon="2.17428">
        <ele>75.7</ele>
        <time>2022-01-12T14:59:22Z</time>
      </trkpt>
      <trkpt lat="49.87636" lon="2.17429">
        <ele>75.7</ele>
        <time>2022-01-12T14:59:23Z</time>
      </trkpt>
      <trkpt lat="49.87635" lon="2.1743">
        <ele>75.7</ele>
        <time>2022-01-12T14:59:24Z</time>
      </trkpt>
      <trkpt lat="49.87634" lon="2.17431">
        <ele>75.6</ele>
        <time>2022-01-12T14:59:25Z</time>
      </trkpt>
      <trkpt lat="49.87633" lon="2.17433">
        <ele>75.6</ele>
        <time>2022-01-12T14:59:27Z</time>
      </trkpt>
      <trkpt lat="49.87631" lon="2.17434">
        <ele>75.5</ele>
        <time>2022-01-12T14:59:28Z</time>
      </trkpt>
      <trkpt lat="49.8763" lon="2.17436">
        <ele>75.5</ele>
        <time>2022-01-12T14:59:29Z</time>
      </trkpt>
      <trkpt lat="49.87628" lon="2.17437">
        <ele>75.4</ele>
        <time>2022-01-12T14:59:31Z</time>
      </trkpt>
      <trkpt lat="49.87627" lon="2.17439">
        <ele>75.4</ele>
        <time>2022-01-12T14:59:32Z</time>
      </trkpt>
      <trkpt lat="49.87626" lon="2.1744">
        <ele>75.3</ele>
        <time>2022-01-12T14:59:33Z</time>
      </trkpt>
      <trkpt lat="49.87625" lon="2.1744">
        <ele>75.3</ele>
        <time>2022-01-12T14:59:34Z</time>
      </trkpt>
      <trkpt lat="49.87624" lon="2.17441">
        <ele>75.3</ele>
        <time>2022-01-12T14:59:36Z</time>
      </trkpt>
      <trkpt lat="49.87623" lon="2.17443">
        <ele>75.3</ele>
        <time>2022-01-12T14:59:37Z</time>
      </trkpt>
      <trkpt lat="49.87622" lon="2.17444">
        <ele>75.2</ele>
        <time>2022-01-12T14:59:38Z</time>
      </trkpt>
      <trkpt lat="49.8762" lon="2.17445">
        <ele>75.2</ele>
        <time>2022-01-12T14:59:40Z</time>
      </trkpt>
      <trkpt lat="49.87619" lon="2.17446">
        <ele>75.2</ele>
        <time>2022-01-12T14:59:41Z</time>
      </trkpt>
      <trkpt lat="49.87618" lon="2.17447">
        <ele>75.1</ele>
        <time>2022-01-12T14:59:42Z</time>
      </trkpt>
      <trkpt lat="49.87617" lon="2.17448">
        <ele>75.1</ele>
        <time>2022-01-12T14:59:43Z</time>
      </trkpt>
      <trkpt lat="49.87616" lon="2.17449">
        <ele>75.1</ele>
        <time>2022-01-12T14:59:44Z</time>
      </trkpt>
      <trkpt lat="49.87615" lon="2.1745">
        <ele>75.1</ele>
        <time>2022-01-12T14:59:46Z</time>
      </trkpt>
      <trkpt lat="49.87613" lon="2.17451">
        <ele>75.1</ele>
        <time>2022-01-12T14:59:47Z</time>
      </trkpt>
      <trkpt lat="49.87611" lon="2.17452">
        <ele>75</ele>
        <time>2022-01-12T14:59:48Z</time>
      </trkpt>
      <trkpt lat="49.87611" lon="2.17453">
        <ele>75</ele>
        <time>2022-01-12T14:59:49Z</time>
      </trkpt>
      <trkpt lat="49.8761" lon="2.17453">
        <ele>75</ele>
        <time>2022-01-12T14:59:50Z</time>
      </trkpt>
      <trkpt lat="49.87609" lon="2.17454">
        <ele>75</ele>
        <time>2022-01-12T14:59:51Z</time>
      </trkpt>
      <trkpt lat="49.87608" lon="2.17455">
        <ele>75</ele>
        <time>2022-01-12T14:59:52Z</time>
      </trkpt>
      <trkpt lat="49.87607" lon="2.17456">
        <ele>75</ele>
        <time>2022-01-12T14:59:53Z</time>
      </trkpt>
      <trkpt lat="49.87605" lon="2.17458">
        <ele>75</ele>
        <time>2022-01-12T14:59:55Z</time>
      </trkpt>
      <trkpt lat="49.87605" lon="2.17458">
        <ele>75</ele>
        <time>2022-01-12T14:59:56Z</time>
      </trkpt>
      <trkpt lat="49.87604" lon="2.17459">
        <ele>75</ele>
        <time>2022-01-12T14:59:57Z</time>
      </trkpt>
      <trkpt lat="49.87602" lon="2.17461">
        <ele>74.9</ele>
        <time>2022-01-12T14:59:58Z</time>
      </trkpt>
      <trkpt lat="49.87601" lon="2.17461">
        <ele>74.9</ele>
        <time>2022-01-12T14:59:59Z</time>
      </trkpt>
      <trkpt lat="49.87601" lon="2.17462">
        <ele>74.9</ele>
        <time>2022-01-12T15:00:00Z</time>
      </trkpt>
      <trkpt lat="49.876" lon="2.17463">
        <ele>74.9</ele>
        <time>2022-01-12T15:00:01Z</time>
      </trkpt>
      <trkpt lat="49.87599" lon="2.17463">
        <ele>74.9</ele>
        <time>2022-01-12T15:00:03Z</time>
      </trkpt>
      <trkpt lat="49.87598" lon="2.17464">
        <ele>74.9</ele>
        <time>2022-01-12T15:00:04Z</time>
      </trkpt>
      <trkpt lat="49.87596" lon="2.17466">
        <ele>74.9</ele>
        <time>2022-01-12T15:00:05Z</time>
      </trkpt>
      <trkpt lat="49.87596" lon="2.17466">
        <ele>74.9</ele>
        <time>2022-01-12T15:00:06Z</time>
      </trkpt>
      <trkpt lat="49.87595" lon="2.17467">
        <ele>74.9</ele>
        <time>2022-01-12T15:00:07Z</time>
      </trkpt>
      <trkpt lat="49.87594" lon="2.17468">
        <ele>74.9</ele>
        <time>2022-01-12T15:00:08Z</time>
      </trkpt>
      <trkpt lat="49.87593" lon="2.1747">
        <ele>74.9</ele>
        <time>2022-01-12T15:00:09Z</time>
      </trkpt>
      <trkpt lat="49.87592" lon="2.17471">
        <ele>74.9</ele>
        <time>2022-01-12T15:00:11Z</time>
      </trkpt>
      <trkpt lat="49.8759" lon="2.17472">
        <ele>74.9</ele>
        <time>2022-01-12T15:00:12Z</time>
      </trkpt>
      <trkpt lat="49.87589" lon="2.17473">
        <ele>74.9</ele>
        <time>2022-01-12T15:00:13Z</time>
      </trkpt>
      <trkpt lat="49.87588" lon="2.17474">
        <ele>74.9</ele>
        <time>2022-01-12T15:00:14Z</time>
      </trkpt>
      <trkpt lat="49.87587" lon="2.17475">
        <ele>74.9</ele>
        <time>2022-01-12T15:00:15Z</time>
      </trkpt>
      <trkpt lat="49.87586" lon="2.17477">
        <ele>75</ele>
        <time>2022-01-12T15:00:16Z</time>
      </trkpt>
      <trkpt lat="49.87585" lon="2.17477">
        <ele>75</ele>
        <time>2022-01-12T15:00:17Z</time>
      </trkpt>
      <trkpt lat="49.87584" lon="2.17478">
        <ele>75</ele>
        <time>2022-01-12T15:00:18Z</time>
      </trkpt>
      <trkpt lat="49.87583" lon="2.1748">
        <ele>75</ele>
        <time>2022-01-12T15:00:20Z</time>
      </trkpt>
      <trkpt lat="49.87582" lon="2.17481">
        <ele>75</ele>
        <time>2022-01-12T15:00:21Z</time>
      </trkpt>
      <trkpt lat="49.87581" lon="2.17482">
        <ele>75</ele>
        <time>2022-01-12T15:00:22Z</time>
      </trkpt>
      <trkpt lat="49.8758" lon="2.17482">
        <ele>75</ele>
        <time>2022-01-12T15:00:24Z</time>
      </trkpt>
      <trkpt lat="49.87579" lon="2.17483">
        <ele>75</ele>
        <time>2022-01-12T15:00:25Z</time>
      </trkpt>
      <trkpt lat="49.87577" lon="2.17484">
        <ele>75.1</ele>
        <time>2022-01-12T15:00:26Z</time>
      </trkpt>
      <trkpt lat="49.87576" lon="2.17484">
        <ele>75.1</ele>
        <time>2022-01-12T15:00:27Z</time>
      </trkpt>
      <trkpt lat="49.87575" lon="2.17485">
        <ele>75.1</ele>
        <time>2022-01-12T15:00:29Z</time>
      </trkpt>
      <trkpt lat="49.87574" lon="2.17487">
        <ele>75.2</ele>
        <time>2022-01-12T15:00:30Z</time>
      </trkpt>
      <trkpt lat="49.87573" lon="2.17488">
        <ele>75.2</ele>
        <time>2022-01-12T15:00:31Z</time>
      </trkpt>
      <trkpt lat="49.87572" lon="2.17488">
        <ele>75.2</ele>
        <time>2022-01-12T15:00:33Z</time>
      </trkpt>
      <trkpt lat="49.87572" lon="2.17489">
        <ele>75.2</ele>
        <time>2022-01-12T15:00:34Z</time>
      </trkpt>
      <trkpt lat="49.8757" lon="2.17491">
        <ele>75.3</ele>
        <time>2022-01-12T15:00:35Z</time>
      </trkpt>
      <trkpt lat="49.87569" lon="2.17492">
        <ele>75.3</ele>
        <time>2022-01-12T15:00:36Z</time>
      </trkpt>
      <trkpt lat="49.87569" lon="2.17492">
        <ele>75.3</ele>
        <time>2022-01-12T15:00:37Z</time>
      </trkpt>
      <trkpt lat="49.87568" lon="2.17493">
        <ele>75.4</ele>
        <time>2022-01-12T15:00:38Z</time>
      </trkpt>
      <trkpt lat="49.87567" lon="2.17494">
        <ele>75.4</ele>
        <time>2022-01-12T15:00:39Z</time>
      </trkpt>
      <trkpt lat="49.87566" lon="2.17495">
        <ele>75.5</ele>
        <time>2022-01-12T15:00:40Z</time>
      </trkpt>
      <trkpt lat="49.87565" lon="2.17496">
        <ele>75.5</ele>
        <time>2022-01-12T15:00:41Z</time>
      </trkpt>
      <trkpt lat="49.87563" lon="2.17497">
        <ele>75.6</ele>
        <time>2022-01-12T15:00:43Z</time>
      </trkpt>
      <trkpt lat="49.87562" lon="2.17498">
        <ele>75.6</ele>
        <time>2022-01-12T15:00:44Z</time>
      </trkpt>
      <trkpt lat="49.87561" lon="2.17499">
        <ele>75.7</ele>
        <time>2022-01-12T15:00:45Z</time>
      </trkpt>
      <trkpt lat="49.87559" lon="2.175">
        <ele>75.8</ele>
        <time>2022-01-12T15:00:46Z</time>
      </trkpt>
      <trkpt lat="49.87558" lon="2.17501">
        <ele>75.8</ele>
        <time>2022-01-12T15:00:47Z</time>
      </trkpt>
      <trkpt lat="49.87557" lon="2.17502">
        <ele>75.9</ele>
        <time>2022-01-12T15:00:49Z</time>
      </trkpt>
      <trkpt lat="49.87556" lon="2.17503">
        <ele>75.9</ele>
        <time>2022-01-12T15:00:50Z</time>
      </trkpt>
      <trkpt lat="49.87555" lon="2.17504">
        <ele>76</ele>
        <time>2022-01-12T15:00:51Z</time>
      </trkpt>
      <trkpt lat="49.87554" lon="2.17504">
        <ele>76</ele>
        <time>2022-01-12T15:00:52Z</time>
      </trkpt>
      <trkpt lat="49.87553" lon="2.17505">
        <ele>76.1</ele>
        <time>2022-01-12T15:00:53Z</time>
      </trkpt>
      <trkpt lat="49.87552" lon="2.17506">
        <ele>76.2</ele>
        <time>2022-01-12T15:00:54Z</time>
      </trkpt>
      <trkpt lat="49.87551" lon="2.17507">
        <ele>76.2</ele>
        <time>2022-01-12T15:00:56Z</time>
      </trkpt>
      <trkpt lat="49.87549" lon="2.17508">
        <ele>76.3</ele>
        <time>2022-01-12T15:00:57Z</time>
      </trkpt>
      <trkpt lat="49.87549" lon="2.17508">
        <ele>76.4</ele>
        <time>2022-01-12T15:00:58Z</time>
      </trkpt>
      <trkpt lat="49.87548" lon="2.17509">
        <ele>76.4</ele>
        <time>2022-01-12T15:00:59Z</time>
      </trkpt>
      <trkpt lat="49.87547" lon="2.1751">
        <ele>76.5</ele>
        <time>2022-01-12T15:01:00Z</time>
      </trkpt>
      <trkpt lat="49.87545" lon="2.17511">
        <ele>76.6</ele>
        <time>2022-01-12T15:01:02Z</time>
      </trkpt>
      <trkpt lat="49.87544" lon="2.17512">
        <ele>76.6</ele>
        <time>2022-01-12T15:01:03Z</time>
      </trkpt>
      <trkpt lat="49.87544" lon="2.17513">
        <ele>76.7</ele>
        <time>2022-01-12T15:01:04Z</time>
      </trkpt>
      <trkpt lat="49.87542" lon="2.17514">
        <ele>76.8</ele>
        <time>2022-01-12T15:01:06Z</time>
      </trkpt>
      <trkpt lat="49.87541" lon="2.17515">
        <ele>76.8</ele>
        <time>2022-01-12T15:01:07Z</time>
      </trkpt>
      <trkpt lat="49.8754" lon="2.17516">
        <ele>76.9</ele>
        <time>2022-01-12T15:01:08Z</time>
      </trkpt>
      <trkpt lat="49.8754" lon="2.17517">
        <ele>77</ele>
        <time>2022-01-12T15:01:09Z</time>
      </trkpt>
      <trkpt lat="49.87539" lon="2.17518">
        <ele>77</ele>
        <time>2022-01-12T15:01:11Z</time>
      </trkpt>
      <trkpt lat="49.87538" lon="2.17518">
        <ele>77.1</ele>
        <time>2022-01-12T15:01:12Z</time>
      </trkpt>
      <trkpt lat="49.87537" lon="2.17519">
        <ele>77.2</ele>
        <time>2022-01-12T15:01:13Z</time>
      </trkpt>
      <trkpt lat="49.87535" lon="2.17521">
        <ele>77.3</ele>
        <time>2022-01-12T15:01:14Z</time>
      </trkpt>
      <trkpt lat="49.87534" lon="2.17522">
        <ele>77.3</ele>
        <time>2022-01-12T15:01:15Z</time>
      </trkpt>
      <trkpt lat="49.87533" lon="2.17523">
        <ele>77.4</ele>
        <time>2022-01-12T15:01:16Z</time>
      </trkpt>
      <trkpt lat="49.87532" lon="2.17524">
        <ele>77.5</ele>
        <time>2022-01-12T15:01:18Z</time>
      </trkpt>
      <trkpt lat="49.8753" lon="2.17525">
        <ele>77.6</ele>
        <time>2022-01-12T15:01:19Z</time>
      </trkpt>
      <trkpt lat="49.87529" lon="2.17526">
        <ele>77.7</ele>
        <time>2022-01-12T15:01:20Z</time>
      </trkpt>
      <trkpt lat="49.87528" lon="2.17527">
        <ele>77.8</ele>
        <time>2022-01-12T15:01:21Z</time>
      </trkpt>
      <trkpt lat="49.87527" lon="2.17528">
        <ele>77.9</ele>
        <time>2022-01-12T15:01:22Z</time>
      </trkpt>
      <trkpt lat="49.87526" lon="2.17529">
        <ele>77.9</ele>
        <time>2022-01-12T15:01:23Z</time>
      </trkpt>
      <trkpt lat="49.87525" lon="2.1753">
        <ele>78</ele>
        <time>2022-01-12T15:01:25Z</time>
      </trkpt>
      <trkpt lat="49.87524" lon="2.1753">
        <ele>78.1</ele>
        <time>2022-01-12T15:01:26Z</time>
      </trkpt>
      <trkpt lat="49.87523" lon="2.17531">
        <ele>78.2</ele>
        <time>2022-01-12T15:01:27Z</time>
      </trkpt>
      <trkpt lat="49.87522" lon="2.17532">
        <ele>78.2</ele>
        <time>2022-01-12T15:01:28Z</time>
      </trkpt>
      <trkpt lat="49.87521" lon="2.17533">
        <ele>78.3</ele>
        <time>2022-01-12T15:01:29Z</time>
      </trkpt>
      <trkpt lat="49.8752" lon="2.17534">
        <ele>78.4</ele>
        <time>2022-01-12T15:01:31Z</time>
      </trkpt>
      <trkpt lat="49.8752" lon="2.17535">
        <ele>78.5</ele>
        <time>2022-01-12T15:01:32Z</time>
      </trkpt>
      <trkpt lat="49.87519" lon="2.17535">
        <ele>78.5</ele>
        <time>2022-01-12T15:01:33Z</time>
      </trkpt>
      <trkpt lat="49.87518" lon="2.17536">
        <ele>78.6</ele>
        <time>2022-01-12T15:01:34Z</time>
      </trkpt>
      <trkpt lat="49.87516" lon="2.17538">
        <ele>78.8</ele>
        <time>2022-01-12T15:01:35Z</time>
      </trkpt>
      <trkpt lat="49.87516" lon="2.17539">
        <ele>78.8</ele>
        <time>2022-01-12T15:01:37Z</time>
      </trkpt>
      <trkpt lat="49.87515" lon="2.1754">
        <ele>78.9</ele>
        <time>2022-01-12T15:01:38Z</time>
      </trkpt>
      <trkpt lat="49.87514" lon="2.17541">
        <ele>79</ele>
        <time>2022-01-12T15:01:39Z</time>
      </trkpt>
      <trkpt lat="49.87513" lon="2.17542">
        <ele>79.1</ele>
        <time>2022-01-12T15:01:40Z</time>
      </trkpt>
      <trkpt lat="49.87512" lon="2.17543">
        <ele>79.2</ele>
        <time>2022-01-12T15:01:41Z</time>
      </trkpt>
      <trkpt lat="49.87511" lon="2.17544">
        <ele>79.3</ele>
        <time>2022-01-12T15:01:43Z</time>
      </trkpt>
      <trkpt lat="49.8751" lon="2.17545">
        <ele>79.3</ele>
        <time>2022-01-12T15:01:44Z</time>
      </trkpt>
      <trkpt lat="49.87509" lon="2.17546">
        <ele>79.4</ele>
        <time>2022-01-12T15:01:45Z</time>
      </trkpt>
      <trkpt lat="49.87508" lon="2.17546">
        <ele>79.5</ele>
        <time>2022-01-12T15:01:46Z</time>
      </trkpt>
      <trkpt lat="49.87507" lon="2.17548">
        <ele>79.6</ele>
        <time>2022-01-12T15:01:47Z</time>
      </trkpt>
      <trkpt lat="49.87505" lon="2.17549">
        <ele>79.8</ele>
        <time>2022-01-12T15:01:49Z</time>
      </trkpt>
      <trkpt lat="49.87504" lon="2.1755">
        <ele>79.9</ele>
        <time>2022-01-12T15:01:50Z</time>
      </trkpt>
      <trkpt lat="49.87503" lon="2.17552">
        <ele>80</ele>
        <time>2022-01-12T15:01:52Z</time>
      </trkpt>
      <trkpt lat="49.87502" lon="2.17552">
        <ele>80.1</ele>
        <time>2022-01-12T15:01:53Z</time>
      </trkpt>
      <trkpt lat="49.875" lon="2.17554">
        <ele>80.3</ele>
        <time>2022-01-12T15:01:55Z</time>
      </trkpt>
      <trkpt lat="49.87499" lon="2.17554">
        <ele>80.3</ele>
        <time>2022-01-12T15:01:56Z</time>
      </trkpt>
      <trkpt lat="49.87498" lon="2.17556">
        <ele>80.4</ele>
        <time>2022-01-12T15:01:58Z</time>
      </trkpt>
      <trkpt lat="49.87497" lon="2.17556">
        <ele>80.5</ele>
        <time>2022-01-12T15:01:59Z</time>
      </trkpt>
      <trkpt lat="49.87496" lon="2.17557">
        <ele>80.6</ele>
        <time>2022-01-12T15:02:00Z</time>
      </trkpt>
      <trkpt lat="49.87495" lon="2.17558">
        <ele>80.7</ele>
        <time>2022-01-12T15:02:01Z</time>
      </trkpt>
      <trkpt lat="49.87494" lon="2.17559">
        <ele>80.8</ele>
        <time>2022-01-12T15:02:03Z</time>
      </trkpt>
      <trkpt lat="49.87493" lon="2.17559">
        <ele>80.9</ele>
        <time>2022-01-12T15:02:04Z</time>
      </trkpt>
      <trkpt lat="49.87492" lon="2.1756">
        <ele>81</ele>
        <time>2022-01-12T15:02:05Z</time>
      </trkpt>
      <trkpt lat="49.87492" lon="2.17561">
        <ele>81.1</ele>
        <time>2022-01-12T15:02:06Z</time>
      </trkpt>
      <trkpt lat="49.8749" lon="2.17562">
        <ele>81.2</ele>
        <time>2022-01-12T15:02:08Z</time>
      </trkpt>
      <trkpt lat="49.87489" lon="2.17562">
        <ele>81.3</ele>
        <time>2022-01-12T15:02:09Z</time>
      </trkpt>
      <trkpt lat="49.87488" lon="2.17564">
        <ele>81.4</ele>
        <time>2022-01-12T15:02:11Z</time>
      </trkpt>
      <trkpt lat="49.87487" lon="2.17564">
        <ele>81.5</ele>
        <time>2022-01-12T15:02:12Z</time>
      </trkpt>
      <trkpt lat="49.87486" lon="2.17565">
        <ele>81.6</ele>
        <time>2022-01-12T15:02:13Z</time>
      </trkpt>
      <trkpt lat="49.87485" lon="2.17567">
        <ele>81.8</ele>
        <time>2022-01-12T15:02:15Z</time>
      </trkpt>
      <trkpt lat="49.87484" lon="2.17568">
        <ele>81.9</ele>
        <time>2022-01-12T15:02:16Z</time>
      </trkpt>
      <trkpt lat="49.87482" lon="2.17569">
        <ele>82</ele>
        <time>2022-01-12T15:02:18Z</time>
      </trkpt>
      <trkpt lat="49.87481" lon="2.1757">
        <ele>82.1</ele>
        <time>2022-01-12T15:02:19Z</time>
      </trkpt>
      <trkpt lat="49.8748" lon="2.17571">
        <ele>82.2</ele>
        <time>2022-01-12T15:02:20Z</time>
      </trkpt>
      <trkpt lat="49.87479" lon="2.17572">
        <ele>82.4</ele>
        <time>2022-01-12T15:02:22Z</time>
      </trkpt>
      <trkpt lat="49.87478" lon="2.17572">
        <ele>82.5</ele>
        <time>2022-01-12T15:02:23Z</time>
      </trkpt>
      <trkpt lat="49.87477" lon="2.17573">
        <ele>82.6</ele>
        <time>2022-01-12T15:02:24Z</time>
      </trkpt>
      <trkpt lat="49.87476" lon="2.17573">
        <ele>82.7</ele>
        <time>2022-01-12T15:02:25Z</time>
      </trkpt>
      <trkpt lat="49.87475" lon="2.17574">
        <ele>82.9</ele>
        <time>2022-01-12T15:02:27Z</time>
      </trkpt>
      <trkpt lat="49.87474" lon="2.17574">
        <ele>83</ele>
        <time>2022-01-12T15:02:28Z</time>
      </trkpt>
      <trkpt lat="49.87473" lon="2.17575">
        <ele>83.1</ele>
        <time>2022-01-12T15:02:29Z</time>
      </trkpt>
      <trkpt lat="49.87472" lon="2.17575">
        <ele>83.3</ele>
        <time>2022-01-12T15:02:30Z</time>
      </trkpt>
      <trkpt lat="49.87471" lon="2.17576">
        <ele>83.4</ele>
        <time>2022-01-12T15:02:31Z</time>
      </trkpt>
      <trkpt lat="49.87469" lon="2.17577">
        <ele>83.6</ele>
        <time>2022-01-12T15:02:33Z</time>
      </trkpt>
      <trkpt lat="49.87468" lon="2.17577">
        <ele>83.7</ele>
        <time>2022-01-12T15:02:35Z</time>
      </trkpt>
      <trkpt lat="49.87467" lon="2.17578">
        <ele>83.8</ele>
        <time>2022-01-12T15:02:36Z</time>
      </trkpt>
      <trkpt lat="49.87466" lon="2.17578">
        <ele>84</ele>
        <time>2022-01-12T15:02:37Z</time>
      </trkpt>
      <trkpt lat="49.87465" lon="2.17579">
        <ele>84.1</ele>
        <time>2022-01-12T15:02:38Z</time>
      </trkpt>
      <trkpt lat="49.87465" lon="2.17579">
        <ele>84.1</ele>
        <time>2022-01-12T15:02:39Z</time>
      </trkpt>
      <trkpt lat="49.87464" lon="2.1758">
        <ele>84.3</ele>
        <time>2022-01-12T15:02:40Z</time>
      </trkpt>
      <trkpt lat="49.87463" lon="2.1758">
        <ele>84.4</ele>
        <time>2022-01-12T15:02:42Z</time>
      </trkpt>
      <trkpt lat="49.87462" lon="2.1758">
        <ele>84.5</ele>
        <time>2022-01-12T15:02:43Z</time>
      </trkpt>
      <trkpt lat="49.87461" lon="2.17581">
        <ele>84.7</ele>
        <time>2022-01-12T15:02:45Z</time>
      </trkpt>
      <trkpt lat="49.8746" lon="2.17581">
        <ele>84.8</ele>
        <time>2022-01-12T15:02:46Z</time>
      </trkpt>
      <trkpt lat="49.87458" lon="2.17582">
        <ele>84.9</ele>
        <time>2022-01-12T15:02:47Z</time>
      </trkpt>
      <trkpt lat="49.87457" lon="2.17582">
        <ele>85</ele>
        <time>2022-01-12T15:02:49Z</time>
      </trkpt>
      <trkpt lat="49.87456" lon="2.17583">
        <ele>85.2</ele>
        <time>2022-01-12T15:02:50Z</time>
      </trkpt>
      <trkpt lat="49.87456" lon="2.17584">
        <ele>85.3</ele>
        <time>2022-01-12T15:02:51Z</time>
      </trkpt>
      <trkpt lat="49.87455" lon="2.17585">
        <ele>85.4</ele>
        <time>2022-01-12T15:02:53Z</time>
      </trkpt>
      <trkpt lat="49.87454" lon="2.17585">
        <ele>85.5</ele>
        <time>2022-01-12T15:02:54Z</time>
      </trkpt>
      <trkpt lat="49.87453" lon="2.17586">
        <ele>85.6</ele>
        <time>2022-01-12T15:02:56Z</time>
      </trkpt>
      <trkpt lat="49.87452" lon="2.17587">
        <ele>85.8</ele>
        <time>2022-01-12T15:02:57Z</time>
      </trkpt>
      <trkpt lat="49.87451" lon="2.17588">
        <ele>85.9</ele>
        <time>2022-01-12T15:02:58Z</time>
      </trkpt>
      <trkpt lat="49.8745" lon="2.17588">
        <ele>86</ele>
        <time>2022-01-12T15:03:00Z</time>
      </trkpt>
      <trkpt lat="49.87449" lon="2.17589">
        <ele>86.1</ele>
        <time>2022-01-12T15:03:01Z</time>
      </trkpt>
      <trkpt lat="49.87448" lon="2.1759">
        <ele>86.3</ele>
        <time>2022-01-12T15:03:02Z</time>
      </trkpt>
      <trkpt lat="49.87447" lon="2.17591">
        <ele>86.4</ele>
        <time>2022-01-12T15:03:04Z</time>
      </trkpt>
      <trkpt lat="49.87446" lon="2.17592">
        <ele>86.5</ele>
        <time>2022-01-12T15:03:05Z</time>
      </trkpt>
      <trkpt lat="49.87445" lon="2.17592">
        <ele>86.6</ele>
        <time>2022-01-12T15:03:07Z</time>
      </trkpt>
      <trkpt lat="49.87444" lon="2.17593">
        <ele>86.8</ele>
        <time>2022-01-12T15:03:08Z</time>
      </trkpt>
      <trkpt lat="49.87443" lon="2.17593">
        <ele>86.9</ele>
        <time>2022-01-12T15:03:09Z</time>
      </trkpt>
      <trkpt lat="49.87442" lon="2.17593">
        <ele>87</ele>
        <time>2022-01-12T15:03:11Z</time>
      </trkpt>
      <trkpt lat="49.87441" lon="2.17594">
        <ele>87.2</ele>
        <time>2022-01-12T15:03:12Z</time>
      </trkpt>
      <trkpt lat="49.87439" lon="2.17594">
        <ele>87.3</ele>
        <time>2022-01-12T15:03:13Z</time>
      </trkpt>
      <trkpt lat="49.87439" lon="2.17595">
        <ele>87.4</ele>
        <time>2022-01-12T15:03:14Z</time>
      </trkpt>
      <trkpt lat="49.87437" lon="2.17595">
        <ele>87.5</ele>
        <time>2022-01-12T15:03:16Z</time>
      </trkpt>
      <trkpt lat="49.87436" lon="2.17596">
        <ele>87.7</ele>
        <time>2022-01-12T15:03:17Z</time>
      </trkpt>
      <trkpt lat="49.87435" lon="2.17596">
        <ele>87.7</ele>
        <time>2022-01-12T15:03:18Z</time>
      </trkpt>
      <trkpt lat="49.87434" lon="2.17597">
        <ele>88</ele>
        <time>2022-01-12T15:03:19Z</time>
      </trkpt>
      <trkpt lat="49.87433" lon="2.17597">
        <ele>88.1</ele>
        <time>2022-01-12T15:03:21Z</time>
      </trkpt>
      <trkpt lat="49.87432" lon="2.17597">
        <ele>88.2</ele>
        <time>2022-01-12T15:03:23Z</time>
      </trkpt>
      <trkpt lat="49.87431" lon="2.17597">
        <ele>88.2</ele>
        <time>2022-01-12T15:03:24Z</time>
      </trkpt>
      <trkpt lat="49.8743" lon="2.17598">
        <ele>88.4</ele>
        <time>2022-01-12T15:03:26Z</time>
      </trkpt>
      <trkpt lat="49.87429" lon="2.17598">
        <ele>88.4</ele>
        <time>2022-01-12T15:03:27Z</time>
      </trkpt>
      <trkpt lat="49.87429" lon="2.17598">
        <ele>88.6</ele>
        <time>2022-01-12T15:03:28Z</time>
      </trkpt>
      <trkpt lat="49.87428" lon="2.17598">
        <ele>88.6</ele>
        <time>2022-01-12T15:03:29Z</time>
      </trkpt>
      <trkpt lat="49.87427" lon="2.17599">
        <ele>88.8</ele>
        <time>2022-01-12T15:03:31Z</time>
      </trkpt>
      <trkpt lat="49.87426" lon="2.176">
        <ele>88.9</ele>
        <time>2022-01-12T15:03:32Z</time>
      </trkpt>
      <trkpt lat="49.87425" lon="2.176">
        <ele>89</ele>
        <time>2022-01-12T15:03:34Z</time>
      </trkpt>
      <trkpt lat="49.87424" lon="2.17601">
        <ele>89.1</ele>
        <time>2022-01-12T15:03:35Z</time>
      </trkpt>
      <trkpt lat="49.87423" lon="2.17601">
        <ele>89.2</ele>
        <time>2022-01-12T15:03:36Z</time>
      </trkpt>
      <trkpt lat="49.87422" lon="2.17602">
        <ele>89.4</ele>
        <time>2022-01-12T15:03:38Z</time>
      </trkpt>
      <trkpt lat="49.87421" lon="2.17603">
        <ele>89.5</ele>
        <time>2022-01-12T15:03:39Z</time>
      </trkpt>
      <trkpt lat="49.8742" lon="2.17603">
        <ele>89.6</ele>
        <time>2022-01-12T15:03:41Z</time>
      </trkpt>
      <trkpt lat="49.87419" lon="2.17604">
        <ele>89.8</ele>
        <time>2022-01-12T15:03:42Z</time>
      </trkpt>
      <trkpt lat="49.87418" lon="2.17605">
        <ele>89.9</ele>
        <time>2022-01-12T15:03:43Z</time>
      </trkpt>
      <trkpt lat="49.87417" lon="2.17606">
        <ele>90</ele>
        <time>2022-01-12T15:03:45Z</time>
      </trkpt>
      <trkpt lat="49.87416" lon="2.17607">
        <ele>90.1</ele>
        <time>2022-01-12T15:03:46Z</time>
      </trkpt>
      <trkpt lat="49.87415" lon="2.17607">
        <ele>90.2</ele>
        <time>2022-01-12T15:03:47Z</time>
      </trkpt>
      <trkpt lat="49.87414" lon="2.17608">
        <ele>90.4</ele>
        <time>2022-01-12T15:03:49Z</time>
      </trkpt>
      <trkpt lat="49.87413" lon="2.17608">
        <ele>90.5</ele>
        <time>2022-01-12T15:03:50Z</time>
      </trkpt>
      <trkpt lat="49.87413" lon="2.17609">
        <ele>90.6</ele>
        <time>2022-01-12T15:03:52Z</time>
      </trkpt>
      <trkpt lat="49.87412" lon="2.1761">
        <ele>90.7</ele>
        <time>2022-01-12T15:03:53Z</time>
      </trkpt>
      <trkpt lat="49.8741" lon="2.1761">
        <ele>90.9</ele>
        <time>2022-01-12T15:03:54Z</time>
      </trkpt>
      <trkpt lat="49.87409" lon="2.1761">
        <ele>91</ele>
        <time>2022-01-12T15:03:56Z</time>
      </trkpt>
      <trkpt lat="49.87408" lon="2.17611">
        <ele>91.2</ele>
        <time>2022-01-12T15:03:57Z</time>
      </trkpt>
      <trkpt lat="49.87407" lon="2.17611">
        <ele>91.3</ele>
        <time>2022-01-12T15:03:59Z</time>
      </trkpt>
      <trkpt lat="49.87407" lon="2.17612">
        <ele>91.4</ele>
        <time>2022-01-12T15:04:00Z</time>
      </trkpt>
      <trkpt lat="49.87406" lon="2.17612">
        <ele>91.5</ele>
        <time>2022-01-12T15:04:02Z</time>
      </trkpt>
      <trkpt lat="49.87405" lon="2.17613">
        <ele>91.6</ele>
        <time>2022-01-12T15:04:03Z</time>
      </trkpt>
      <trkpt lat="49.87405" lon="2.17613">
        <ele>91.6</ele>
        <time>2022-01-12T15:04:04Z</time>
      </trkpt>
      <trkpt lat="49.87404" lon="2.17613">
        <ele>91.7</ele>
        <time>2022-01-12T15:04:06Z</time>
      </trkpt>
      <trkpt lat="49.87403" lon="2.17614">
        <ele>91.8</ele>
        <time>2022-01-12T15:04:07Z</time>
      </trkpt>
      <trkpt lat="49.87402" lon="2.17614">
        <ele>91.9</ele>
        <time>2022-01-12T15:04:09Z</time>
      </trkpt>
      <trkpt lat="49.87401" lon="2.17615">
        <ele>92</ele>
        <time>2022-01-12T15:04:10Z</time>
      </trkpt>
      <trkpt lat="49.87401" lon="2.17616">
        <ele>92.2</ele>
        <time>2022-01-12T15:04:12Z</time>
      </trkpt>
      <trkpt lat="49.874" lon="2.17617">
        <ele>92.3</ele>
        <time>2022-01-12T15:04:13Z</time>
      </trkpt>
      <trkpt lat="49.87399" lon="2.17617">
        <ele>92.4</ele>
        <time>2022-01-12T15:04:14Z</time>
      </trkpt>
      <trkpt lat="49.87398" lon="2.17618">
        <ele>92.5</ele>
        <time>2022-01-12T15:04:16Z</time>
      </trkpt>
      <trkpt lat="49.87397" lon="2.17619">
        <ele>92.7</ele>
        <time>2022-01-12T15:04:17Z</time>
      </trkpt>
      <trkpt lat="49.87396" lon="2.1762">
        <ele>92.8</ele>
        <time>2022-01-12T15:04:19Z</time>
      </trkpt>
      <trkpt lat="49.87395" lon="2.17621">
        <ele>92.9</ele>
        <time>2022-01-12T15:04:20Z</time>
      </trkpt>
      <trkpt lat="49.87394" lon="2.17621">
        <ele>93</ele>
        <time>2022-01-12T15:04:21Z</time>
      </trkpt>
      <trkpt lat="49.87393" lon="2.17622">
        <ele>93.2</ele>
        <time>2022-01-12T15:04:23Z</time>
      </trkpt>
      <trkpt lat="49.87392" lon="2.17622">
        <ele>93.3</ele>
        <time>2022-01-12T15:04:24Z</time>
      </trkpt>
      <trkpt lat="49.87391" lon="2.17623">
        <ele>93.5</ele>
        <time>2022-01-12T15:04:26Z</time>
      </trkpt>
      <trkpt lat="49.8739" lon="2.17624">
        <ele>93.6</ele>
        <time>2022-01-12T15:04:27Z</time>
      </trkpt>
      <trkpt lat="49.87389" lon="2.17624">
        <ele>93.7</ele>
        <time>2022-01-12T15:04:28Z</time>
      </trkpt>
      <trkpt lat="49.87388" lon="2.17624">
        <ele>93.8</ele>
        <time>2022-01-12T15:04:30Z</time>
      </trkpt>
      <trkpt lat="49.87387" lon="2.17625">
        <ele>93.9</ele>
        <time>2022-01-12T15:04:31Z</time>
      </trkpt>
      <trkpt lat="49.87386" lon="2.17626">
        <ele>94</ele>
        <time>2022-01-12T15:04:33Z</time>
      </trkpt>
      <trkpt lat="49.87385" lon="2.17626">
        <ele>94.2</ele>
        <time>2022-01-12T15:04:34Z</time>
      </trkpt>
      <trkpt lat="49.87384" lon="2.17626">
        <ele>94.2</ele>
        <time>2022-01-12T15:04:35Z</time>
      </trkpt>
      <trkpt lat="49.87383" lon="2.17627">
        <ele>94.4</ele>
        <time>2022-01-12T15:04:37Z</time>
      </trkpt>
      <trkpt lat="49.87382" lon="2.17627">
        <ele>94.5</ele>
        <time>2022-01-12T15:04:38Z</time>
      </trkpt>
      <trkpt lat="49.87381" lon="2.17628">
        <ele>94.6</ele>
        <time>2022-01-12T15:04:40Z</time>
      </trkpt>
      <trkpt lat="49.8738" lon="2.17629">
        <ele>94.7</ele>
        <time>2022-01-12T15:04:41Z</time>
      </trkpt>
      <trkpt lat="49.8738" lon="2.17629">
        <ele>94.8</ele>
        <time>2022-01-12T15:04:42Z</time>
      </trkpt>
      <trkpt lat="49.87379" lon="2.1763">
        <ele>95</ele>
        <time>2022-01-12T15:04:44Z</time>
      </trkpt>
      <trkpt lat="49.87378" lon="2.1763">
        <ele>95.1</ele>
        <time>2022-01-12T15:04:45Z</time>
      </trkpt>
      <trkpt lat="49.87377" lon="2.17631">
        <ele>95.2</ele>
        <time>2022-01-12T15:04:47Z</time>
      </trkpt>
      <trkpt lat="49.87376" lon="2.17631">
        <ele>95.3</ele>
        <time>2022-01-12T15:04:48Z</time>
      </trkpt>
      <trkpt lat="49.87375" lon="2.17632">
        <ele>95.4</ele>
        <time>2022-01-12T15:04:50Z</time>
      </trkpt>
      <trkpt lat="49.87374" lon="2.17632">
        <ele>95.6</ele>
        <time>2022-01-12T15:04:51Z</time>
      </trkpt>
      <trkpt lat="49.87373" lon="2.17633">
        <ele>95.7</ele>
        <time>2022-01-12T15:04:52Z</time>
      </trkpt>
      <trkpt lat="49.87373" lon="2.17633">
        <ele>95.8</ele>
        <time>2022-01-12T15:04:53Z</time>
      </trkpt>
      <trkpt lat="49.87372" lon="2.17633">
        <ele>95.9</ele>
        <time>2022-01-12T15:04:55Z</time>
      </trkpt>
      <trkpt lat="49.87371" lon="2.17634">
        <ele>96</ele>
        <time>2022-01-12T15:04:56Z</time>
      </trkpt>
      <trkpt lat="49.8737" lon="2.17634">
        <ele>96.1</ele>
        <time>2022-01-12T15:04:57Z</time>
      </trkpt>
      <trkpt lat="49.87369" lon="2.17635">
        <ele>96.2</ele>
        <time>2022-01-12T15:04:58Z</time>
      </trkpt>
      <trkpt lat="49.87368" lon="2.17636">
        <ele>96.3</ele>
        <time>2022-01-12T15:05:00Z</time>
      </trkpt>
      <trkpt lat="49.87368" lon="2.17636">
        <ele>96.4</ele>
        <time>2022-01-12T15:05:01Z</time>
      </trkpt>
      <trkpt lat="49.87367" lon="2.17637">
        <ele>96.5</ele>
        <time>2022-01-12T15:05:03Z</time>
      </trkpt>
      <trkpt lat="49.87366" lon="2.17637">
        <ele>96.7</ele>
        <time>2022-01-12T15:05:04Z</time>
      </trkpt>
      <trkpt lat="49.87365" lon="2.17638">
        <ele>96.8</ele>
        <time>2022-01-12T15:05:06Z</time>
      </trkpt>
      <trkpt lat="49.87364" lon="2.17638">
        <ele>96.9</ele>
        <time>2022-01-12T15:05:07Z</time>
      </trkpt>
      <trkpt lat="49.87363" lon="2.17639">
        <ele>97</ele>
        <time>2022-01-12T15:05:09Z</time>
      </trkpt>
      <trkpt lat="49.87362" lon="2.17639">
        <ele>97.1</ele>
        <time>2022-01-12T15:05:10Z</time>
      </trkpt>
      <trkpt lat="49.87362" lon="2.17639">
        <ele>97.2</ele>
        <time>2022-01-12T15:05:11Z</time>
      </trkpt>
      <trkpt lat="49.87361" lon="2.17639">
        <ele>97.2</ele>
        <time>2022-01-12T15:05:12Z</time>
      </trkpt>
      <trkpt lat="49.8736" lon="2.1764">
        <ele>97.3</ele>
        <time>2022-01-12T15:05:14Z</time>
      </trkpt>
      <trkpt lat="49.87359" lon="2.17641">
        <ele>97.4</ele>
        <time>2022-01-12T15:05:15Z</time>
      </trkpt>
      <trkpt lat="49.87358" lon="2.17641">
        <ele>97.6</ele>
        <time>2022-01-12T15:05:17Z</time>
      </trkpt>
      <trkpt lat="49.87358" lon="2.17641">
        <ele>97.7</ele>
        <time>2022-01-12T15:05:18Z</time>
      </trkpt>
      <trkpt lat="49.87356" lon="2.17642">
        <ele>97.8</ele>
        <time>2022-01-12T15:05:19Z</time>
      </trkpt>
      <trkpt lat="49.87355" lon="2.17642">
        <ele>97.9</ele>
        <time>2022-01-12T15:05:21Z</time>
      </trkpt>
      <trkpt lat="49.87354" lon="2.17643">
        <ele>98</ele>
        <time>2022-01-12T15:05:22Z</time>
      </trkpt>
      <trkpt lat="49.87353" lon="2.17643">
        <ele>98.1</ele>
        <time>2022-01-12T15:05:24Z</time>
      </trkpt>
      <trkpt lat="49.87352" lon="2.17643">
        <ele>98.2</ele>
        <time>2022-01-12T15:05:25Z</time>
      </trkpt>
      <trkpt lat="49.87352" lon="2.17644">
        <ele>98.3</ele>
        <time>2022-01-12T15:05:26Z</time>
      </trkpt>
      <trkpt lat="49.87351" lon="2.17646">
        <ele>98.5</ele>
        <time>2022-01-12T15:05:28Z</time>
      </trkpt>
      <trkpt lat="49.8735" lon="2.17647">
        <ele>98.6</ele>
        <time>2022-01-12T15:05:29Z</time>
      </trkpt>
      <trkpt lat="49.8735" lon="2.17647">
        <ele>98.6</ele>
        <time>2022-01-12T15:05:31Z</time>
      </trkpt>
      <trkpt lat="49.87349" lon="2.17648">
        <ele>98.7</ele>
        <time>2022-01-12T15:05:32Z</time>
      </trkpt>
      <trkpt lat="49.87349" lon="2.17649">
        <ele>98.9</ele>
        <time>2022-01-12T15:05:34Z</time>
      </trkpt>
      <trkpt lat="49.87349" lon="2.1765">
        <ele>98.9</ele>
        <time>2022-01-12T15:05:35Z</time>
      </trkpt>
      <trkpt lat="49.87349" lon="2.17651">
        <ele>99</ele>
        <time>2022-01-12T15:05:36Z</time>
      </trkpt>
      <trkpt lat="49.87348" lon="2.17651">
        <ele>99.1</ele>
        <time>2022-01-12T15:05:38Z</time>
      </trkpt>
      <trkpt lat="49.87347" lon="2.17651">
        <ele>99.2</ele>
        <time>2022-01-12T15:05:39Z</time>
      </trkpt>
      <trkpt lat="49.87346" lon="2.17651">
        <ele>99.3</ele>
        <time>2022-01-12T15:05:41Z</time>
      </trkpt>
      <trkpt lat="49.87345" lon="2.1765">
        <ele>99.4</ele>
        <time>2022-01-12T15:05:42Z</time>
      </trkpt>
      <trkpt lat="49.87344" lon="2.1765">
        <ele>99.4</ele>
        <time>2022-01-12T15:05:43Z</time>
      </trkpt>
      <trkpt lat="49.87344" lon="2.1765">
        <ele>99.5</ele>
        <time>2022-01-12T15:05:44Z</time>
      </trkpt>
      <trkpt lat="49.87342" lon="2.17651">
        <ele>99.7</ele>
        <time>2022-01-12T15:05:46Z</time>
      </trkpt>
      <trkpt lat="49.87341" lon="2.17651">
        <ele>99.8</ele>
        <time>2022-01-12T15:05:47Z</time>
      </trkpt>
      <trkpt lat="49.8734" lon="2.17651">
        <ele>99.9</ele>
        <time>2022-01-12T15:05:49Z</time>
      </trkpt>
      <trkpt lat="49.87339" lon="2.17651">
        <ele>100</ele>
        <time>2022-01-12T15:05:50Z</time>
      </trkpt>
      <trkpt lat="49.87338" lon="2.17651">
        <ele>100.2</ele>
        <time>2022-01-12T15:05:51Z</time>
      </trkpt>
      <trkpt lat="49.87337" lon="2.17652">
        <ele>100.2</ele>
        <time>2022-01-12T15:05:52Z</time>
      </trkpt>
      <trkpt lat="49.87336" lon="2.17652">
        <ele>100.3</ele>
        <time>2022-01-12T15:05:54Z</time>
      </trkpt>
      <trkpt lat="49.87335" lon="2.17652">
        <ele>100.4</ele>
        <time>2022-01-12T15:05:55Z</time>
      </trkpt>
      <trkpt lat="49.87335" lon="2.17652">
        <ele>100.5</ele>
        <time>2022-01-12T15:05:56Z</time>
      </trkpt>
      <trkpt lat="49.87334" lon="2.17652">
        <ele>100.6</ele>
        <time>2022-01-12T15:05:58Z</time>
      </trkpt>
      <trkpt lat="49.87333" lon="2.17652">
        <ele>100.7</ele>
        <time>2022-01-12T15:05:59Z</time>
      </trkpt>
      <trkpt lat="49.87332" lon="2.17653">
        <ele>100.7</ele>
        <time>2022-01-12T15:06:00Z</time>
      </trkpt>
      <trkpt lat="49.87331" lon="2.17653">
        <ele>100.8</ele>
        <time>2022-01-12T15:06:02Z</time>
      </trkpt>
      <trkpt lat="49.8733" lon="2.17653">
        <ele>100.9</ele>
        <time>2022-01-12T15:06:03Z</time>
      </trkpt>
      <trkpt lat="49.87329" lon="2.17653">
        <ele>101</ele>
        <time>2022-01-12T15:06:04Z</time>
      </trkpt>
      <trkpt lat="49.87328" lon="2.17654">
        <ele>101.1</ele>
        <time>2022-01-12T15:06:06Z</time>
      </trkpt>
      <trkpt lat="49.87327" lon="2.17654">
        <ele>101.2</ele>
        <time>2022-01-12T15:06:07Z</time>
      </trkpt>
      <trkpt lat="49.87326" lon="2.17654">
        <ele>101.3</ele>
        <time>2022-01-12T15:06:08Z</time>
      </trkpt>
      <trkpt lat="49.87325" lon="2.17654">
        <ele>101.4</ele>
        <time>2022-01-12T15:06:10Z</time>
      </trkpt>
      <trkpt lat="49.87323" lon="2.17654">
        <ele>101.6</ele>
        <time>2022-01-12T15:06:11Z</time>
      </trkpt>
      <trkpt lat="49.87322" lon="2.17654">
        <ele>101.6</ele>
        <time>2022-01-12T15:06:12Z</time>
      </trkpt>
      <trkpt lat="49.87322" lon="2.17655">
        <ele>101.7</ele>
        <time>2022-01-12T15:06:13Z</time>
      </trkpt>
      <trkpt lat="49.87321" lon="2.17655">
        <ele>101.8</ele>
        <time>2022-01-12T15:06:15Z</time>
      </trkpt>
      <trkpt lat="49.8732" lon="2.17655">
        <ele>101.9</ele>
        <time>2022-01-12T15:06:16Z</time>
      </trkpt>
      <trkpt lat="49.87319" lon="2.17655">
        <ele>102</ele>
        <time>2022-01-12T15:06:17Z</time>
      </trkpt>
      <trkpt lat="49.87318" lon="2.17655">
        <ele>102.1</ele>
        <time>2022-01-12T15:06:18Z</time>
      </trkpt>
      <trkpt lat="49.87317" lon="2.17656">
        <ele>102.2</ele>
        <time>2022-01-12T15:06:20Z</time>
      </trkpt>
      <trkpt lat="49.87316" lon="2.17656">
        <ele>102.2</ele>
        <time>2022-01-12T15:06:21Z</time>
      </trkpt>
      <trkpt lat="49.87315" lon="2.17656">
        <ele>102.4</ele>
        <time>2022-01-12T15:06:23Z</time>
      </trkpt>
      <trkpt lat="49.87313" lon="2.17656">
        <ele>102.4</ele>
        <time>2022-01-12T15:06:24Z</time>
      </trkpt>
      <trkpt lat="49.87312" lon="2.17656">
        <ele>102.5</ele>
        <time>2022-01-12T15:06:25Z</time>
      </trkpt>
      <trkpt lat="49.87311" lon="2.17656">
        <ele>102.6</ele>
        <time>2022-01-12T15:06:26Z</time>
      </trkpt>
      <trkpt lat="49.8731" lon="2.17657">
        <ele>102.8</ele>
        <time>2022-01-12T15:06:28Z</time>
      </trkpt>
      <trkpt lat="49.87309" lon="2.17657">
        <ele>102.9</ele>
        <time>2022-01-12T15:06:29Z</time>
      </trkpt>
      <trkpt lat="49.87308" lon="2.17658">
        <ele>103</ele>
        <time>2022-01-12T15:06:30Z</time>
      </trkpt>
      <trkpt lat="49.87307" lon="2.17658">
        <ele>103</ele>
        <time>2022-01-12T15:06:31Z</time>
      </trkpt>
      <trkpt lat="49.87306" lon="2.17658">
        <ele>103.1</ele>
        <time>2022-01-12T15:06:32Z</time>
      </trkpt>
      <trkpt lat="49.87304" lon="2.17659">
        <ele>103.2</ele>
        <time>2022-01-12T15:06:34Z</time>
      </trkpt>
      <trkpt lat="49.87303" lon="2.17659">
        <ele>103.3</ele>
        <time>2022-01-12T15:06:35Z</time>
      </trkpt>
      <trkpt lat="49.87302" lon="2.17659">
        <ele>103.4</ele>
        <time>2022-01-12T15:06:36Z</time>
      </trkpt>
      <trkpt lat="49.873" lon="2.17659">
        <ele>103.5</ele>
        <time>2022-01-12T15:06:38Z</time>
      </trkpt>
      <trkpt lat="49.873" lon="2.17659">
        <ele>103.6</ele>
        <time>2022-01-12T15:06:39Z</time>
      </trkpt>
      <trkpt lat="49.87298" lon="2.17659">
        <ele>103.7</ele>
        <time>2022-01-12T15:06:41Z</time>
      </trkpt>
      <trkpt lat="49.87297" lon="2.17659">
        <ele>103.8</ele>
        <time>2022-01-12T15:06:42Z</time>
      </trkpt>
      <trkpt lat="49.87296" lon="2.17659">
        <ele>103.9</ele>
        <time>2022-01-12T15:06:43Z</time>
      </trkpt>
      <trkpt lat="49.87294" lon="2.1766">
        <ele>104</ele>
        <time>2022-01-12T15:06:45Z</time>
      </trkpt>
      <trkpt lat="49.87293" lon="2.1766">
        <ele>104.2</ele>
        <time>2022-01-12T15:06:47Z</time>
      </trkpt>
      <trkpt lat="49.87292" lon="2.1766">
        <ele>104.3</ele>
        <time>2022-01-12T15:06:48Z</time>
      </trkpt>
      <trkpt lat="49.87291" lon="2.17661">
        <ele>104.3</ele>
        <time>2022-01-12T15:06:49Z</time>
      </trkpt>
      <trkpt lat="49.8729" lon="2.17661">
        <ele>104.4</ele>
        <time>2022-01-12T15:06:50Z</time>
      </trkpt>
      <trkpt lat="49.87289" lon="2.17662">
        <ele>104.5</ele>
        <time>2022-01-12T15:06:52Z</time>
      </trkpt>
      <trkpt lat="49.87288" lon="2.17662">
        <ele>104.6</ele>
        <time>2022-01-12T15:06:53Z</time>
      </trkpt>
      <trkpt lat="49.87287" lon="2.17662">
        <ele>104.7</ele>
        <time>2022-01-12T15:06:54Z</time>
      </trkpt>
      <trkpt lat="49.87286" lon="2.17663">
        <ele>104.7</ele>
        <time>2022-01-12T15:06:56Z</time>
      </trkpt>
      <trkpt lat="49.87285" lon="2.17663">
        <ele>104.8</ele>
        <time>2022-01-12T15:06:57Z</time>
      </trkpt>
      <trkpt lat="49.87284" lon="2.17663">
        <ele>104.9</ele>
        <time>2022-01-12T15:06:58Z</time>
      </trkpt>
      <trkpt lat="49.87282" lon="2.17663">
        <ele>105</ele>
        <time>2022-01-12T15:07:00Z</time>
      </trkpt>
      <trkpt lat="49.87281" lon="2.17664">
        <ele>105.1</ele>
        <time>2022-01-12T15:07:01Z</time>
      </trkpt>
      <trkpt lat="49.8728" lon="2.17664">
        <ele>105.2</ele>
        <time>2022-01-12T15:07:02Z</time>
      </trkpt>
      <trkpt lat="49.87279" lon="2.17663">
        <ele>105.3</ele>
        <time>2022-01-12T15:07:04Z</time>
      </trkpt>
      <trkpt lat="49.87278" lon="2.17663">
        <ele>105.3</ele>
        <time>2022-01-12T15:07:05Z</time>
      </trkpt>
      <trkpt lat="49.87278" lon="2.17663">
        <ele>105.4</ele>
        <time>2022-01-12T15:07:06Z</time>
      </trkpt>
      <trkpt lat="49.87277" lon="2.17663">
        <ele>105.5</ele>
        <time>2022-01-12T15:07:07Z</time>
      </trkpt>
      <trkpt lat="49.87275" lon="2.17664">
        <ele>105.6</ele>
        <time>2022-01-12T15:07:09Z</time>
      </trkpt>
      <trkpt lat="49.87275" lon="2.17664">
        <ele>105.6</ele>
        <time>2022-01-12T15:07:10Z</time>
      </trkpt>
      <trkpt lat="49.87274" lon="2.17665">
        <ele>105.7</ele>
        <time>2022-01-12T15:07:11Z</time>
      </trkpt>
      <trkpt lat="49.87272" lon="2.17665">
        <ele>105.8</ele>
        <time>2022-01-12T15:07:13Z</time>
      </trkpt>
      <trkpt lat="49.87271" lon="2.17665">
        <ele>105.9</ele>
        <time>2022-01-12T15:07:15Z</time>
      </trkpt>
      <trkpt lat="49.8727" lon="2.17666">
        <ele>105.9</ele>
        <time>2022-01-12T15:07:16Z</time>
      </trkpt>
      <trkpt lat="49.8727" lon="2.17666">
        <ele>106</ele>
        <time>2022-01-12T15:07:17Z</time>
      </trkpt>
      <trkpt lat="49.87268" lon="2.17667">
        <ele>106.1</ele>
        <time>2022-01-12T15:07:18Z</time>
      </trkpt>
      <trkpt lat="49.87267" lon="2.17667">
        <ele>106.2</ele>
        <time>2022-01-12T15:07:19Z</time>
      </trkpt>
      <trkpt lat="49.87267" lon="2.17667">
        <ele>106.2</ele>
        <time>2022-01-12T15:07:21Z</time>
      </trkpt>
      <trkpt lat="49.87266" lon="2.17668">
        <ele>106.3</ele>
        <time>2022-01-12T15:07:22Z</time>
      </trkpt>
      <trkpt lat="49.87265" lon="2.17668">
        <ele>106.4</ele>
        <time>2022-01-12T15:07:23Z</time>
      </trkpt>
      <trkpt lat="49.87265" lon="2.17668">
        <ele>106.4</ele>
        <time>2022-01-12T15:07:24Z</time>
      </trkpt>
      <trkpt lat="49.87264" lon="2.17669">
        <ele>106.4</ele>
        <time>2022-01-12T15:07:25Z</time>
      </trkpt>
      <trkpt lat="49.87263" lon="2.17669">
        <ele>106.5</ele>
        <time>2022-01-12T15:07:27Z</time>
      </trkpt>
      <trkpt lat="49.87262" lon="2.1767">
        <ele>106.6</ele>
        <time>2022-01-12T15:07:28Z</time>
      </trkpt>
      <trkpt lat="49.87261" lon="2.1767">
        <ele>106.6</ele>
        <time>2022-01-12T15:07:29Z</time>
      </trkpt>
      <trkpt lat="49.87261" lon="2.17671">
        <ele>106.7</ele>
        <time>2022-01-12T15:07:31Z</time>
      </trkpt>
      <trkpt lat="49.8726" lon="2.17671">
        <ele>106.7</ele>
        <time>2022-01-12T15:07:32Z</time>
      </trkpt>
      <trkpt lat="49.87259" lon="2.17672">
        <ele>106.8</ele>
        <time>2022-01-12T15:07:33Z</time>
      </trkpt>
      <trkpt lat="49.87259" lon="2.17672">
        <ele>106.8</ele>
        <time>2022-01-12T15:07:34Z</time>
      </trkpt>
      <trkpt lat="49.87257" lon="2.17673">
        <ele>106.9</ele>
        <time>2022-01-12T15:07:36Z</time>
      </trkpt>
      <trkpt lat="49.87256" lon="2.17674">
        <ele>107</ele>
        <time>2022-01-12T15:07:37Z</time>
      </trkpt>
      <trkpt lat="49.87255" lon="2.17675">
        <ele>107.1</ele>
        <time>2022-01-12T15:07:38Z</time>
      </trkpt>
      <trkpt lat="49.87255" lon="2.17676">
        <ele>107.2</ele>
        <time>2022-01-12T15:07:39Z</time>
      </trkpt>
      <trkpt lat="49.87253" lon="2.17677">
        <ele>107.3</ele>
        <time>2022-01-12T15:07:41Z</time>
      </trkpt>
      <trkpt lat="49.87252" lon="2.17678">
        <ele>107.3</ele>
        <time>2022-01-12T15:07:42Z</time>
      </trkpt>
      <trkpt lat="49.87251" lon="2.17679">
        <ele>107.4</ele>
        <time>2022-01-12T15:07:43Z</time>
      </trkpt>
      <trkpt lat="49.8725" lon="2.1768">
        <ele>107.5</ele>
        <time>2022-01-12T15:07:44Z</time>
      </trkpt>
      <trkpt lat="49.87249" lon="2.17681">
        <ele>107.6</ele>
        <time>2022-01-12T15:07:46Z</time>
      </trkpt>
      <trkpt lat="49.87248" lon="2.17683">
        <ele>107.6</ele>
        <time>2022-01-12T15:07:47Z</time>
      </trkpt>
      <trkpt lat="49.87247" lon="2.17684">
        <ele>107.7</ele>
        <time>2022-01-12T15:07:48Z</time>
      </trkpt>
      <trkpt lat="49.87246" lon="2.17685">
        <ele>107.7</ele>
        <time>2022-01-12T15:07:49Z</time>
      </trkpt>
      <trkpt lat="49.87245" lon="2.17686">
        <ele>107.8</ele>
        <time>2022-01-12T15:07:51Z</time>
      </trkpt>
      <trkpt lat="49.87244" lon="2.17687">
        <ele>107.9</ele>
        <time>2022-01-12T15:07:52Z</time>
      </trkpt>
      <trkpt lat="49.87243" lon="2.17688">
        <ele>107.9</ele>
        <time>2022-01-12T15:07:54Z</time>
      </trkpt>
      <trkpt lat="49.87242" lon="2.17689">
        <ele>108</ele>
        <time>2022-01-12T15:07:55Z</time>
      </trkpt>
      <trkpt lat="49.87241" lon="2.1769">
        <ele>108</ele>
        <time>2022-01-12T15:07:56Z</time>
      </trkpt>
      <trkpt lat="49.87241" lon="2.17691">
        <ele>108.1</ele>
        <time>2022-01-12T15:07:57Z</time>
      </trkpt>
      <trkpt lat="49.8724" lon="2.17692">
        <ele>108.1</ele>
        <time>2022-01-12T15:07:58Z</time>
      </trkpt>
      <trkpt lat="49.87239" lon="2.17693">
        <ele>108.2</ele>
        <time>2022-01-12T15:08:00Z</time>
      </trkpt>
      <trkpt lat="49.87238" lon="2.17694">
        <ele>108.3</ele>
        <time>2022-01-12T15:08:01Z</time>
      </trkpt>
      <trkpt lat="49.87236" lon="2.17695">
        <ele>108.4</ele>
        <time>2022-01-12T15:08:02Z</time>
      </trkpt>
      <trkpt lat="49.87235" lon="2.17696">
        <ele>108.4</ele>
        <time>2022-01-12T15:08:04Z</time>
      </trkpt>
      <trkpt lat="49.87233" lon="2.17697">
        <ele>108.5</ele>
        <time>2022-01-12T15:08:05Z</time>
      </trkpt>
      <trkpt lat="49.87233" lon="2.17697">
        <ele>108.5</ele>
        <time>2022-01-12T15:08:06Z</time>
      </trkpt>
      <trkpt lat="49.87232" lon="2.17698">
        <ele>108.6</ele>
        <time>2022-01-12T15:08:07Z</time>
      </trkpt>
      <trkpt lat="49.87231" lon="2.17699">
        <ele>108.6</ele>
        <time>2022-01-12T15:08:08Z</time>
      </trkpt>
      <trkpt lat="49.8723" lon="2.177">
        <ele>108.7</ele>
        <time>2022-01-12T15:08:09Z</time>
      </trkpt>
      <trkpt lat="49.87229" lon="2.17701">
        <ele>108.7</ele>
        <time>2022-01-12T15:08:11Z</time>
      </trkpt>
      <trkpt lat="49.87228" lon="2.17702">
        <ele>108.8</ele>
        <time>2022-01-12T15:08:12Z</time>
      </trkpt>
      <trkpt lat="49.87228" lon="2.17704">
        <ele>108.8</ele>
        <time>2022-01-12T15:08:13Z</time>
      </trkpt>
      <trkpt lat="49.87227" lon="2.17705">
        <ele>108.9</ele>
        <time>2022-01-12T15:08:14Z</time>
      </trkpt>
      <trkpt lat="49.87226" lon="2.17707">
        <ele>109</ele>
        <time>2022-01-12T15:08:16Z</time>
      </trkpt>
      <trkpt lat="49.87226" lon="2.17707">
        <ele>109</ele>
        <time>2022-01-12T15:08:17Z</time>
      </trkpt>
      <trkpt lat="49.87225" lon="2.17709">
        <ele>109</ele>
        <time>2022-01-12T15:08:19Z</time>
      </trkpt>
      <trkpt lat="49.87224" lon="2.1771">
        <ele>109.1</ele>
        <time>2022-01-12T15:08:20Z</time>
      </trkpt>
      <trkpt lat="49.87223" lon="2.1771">
        <ele>109.1</ele>
        <time>2022-01-12T15:08:21Z</time>
      </trkpt>
      <trkpt lat="49.87223" lon="2.17711">
        <ele>109.1</ele>
        <time>2022-01-12T15:08:22Z</time>
      </trkpt>
      <trkpt lat="49.87221" lon="2.17711">
        <ele>109.2</ele>
        <time>2022-01-12T15:08:24Z</time>
      </trkpt>
      <trkpt lat="49.8722" lon="2.17711">
        <ele>109.2</ele>
        <time>2022-01-12T15:08:25Z</time>
      </trkpt>
      <trkpt lat="49.87218" lon="2.17711">
        <ele>109.3</ele>
        <time>2022-01-12T15:08:27Z</time>
      </trkpt>
      <trkpt lat="49.87217" lon="2.17712">
        <ele>109.4</ele>
        <time>2022-01-12T15:08:29Z</time>
      </trkpt>
      <trkpt lat="49.87216" lon="2.17714">
        <ele>109.4</ele>
        <time>2022-01-12T15:08:31Z</time>
      </trkpt>
      <trkpt lat="49.87216" lon="2.17715">
        <ele>109.5</ele>
        <time>2022-01-12T15:08:32Z</time>
      </trkpt>
      <trkpt lat="49.87215" lon="2.17716">
        <ele>109.5</ele>
        <time>2022-01-12T15:08:33Z</time>
      </trkpt>
      <trkpt lat="49.87215" lon="2.17717">
        <ele>109.5</ele>
        <time>2022-01-12T15:08:35Z</time>
      </trkpt>
      <trkpt lat="49.87215" lon="2.17717">
        <ele>109.5</ele>
        <time>2022-01-12T15:08:36Z</time>
      </trkpt>
      <trkpt lat="49.87214" lon="2.17717">
        <ele>109.5</ele>
        <time>2022-01-12T15:08:37Z</time>
      </trkpt>
      <trkpt lat="49.87214" lon="2.17716">
        <ele>109.6</ele>
        <time>2022-01-12T15:08:39Z</time>
      </trkpt>
      <trkpt lat="49.87215" lon="2.17715">
        <ele>109.6</ele>
        <time>2022-01-12T15:08:41Z</time>
      </trkpt>
      <trkpt lat="49.87215" lon="2.17715">
        <ele>109.6</ele>
        <time>2022-01-12T15:08:43Z</time>
      </trkpt>
      <trkpt lat="49.87215" lon="2.17715">
        <ele>109.6</ele>
        <time>2022-01-12T15:08:44Z</time>
      </trkpt>
      <trkpt lat="49.87215" lon="2.17714">
        <ele>109.6</ele>
        <time>2022-01-12T15:08:46Z</time>
      </trkpt>
      <trkpt lat="49.87215" lon="2.17714">
        <ele>109.6</ele>
        <time>2022-01-12T15:08:47Z</time>
      </trkpt>
      <trkpt lat="49.87214" lon="2.17714">
        <ele>109.7</ele>
        <time>2022-01-12T15:08:48Z</time>
      </trkpt>
      <trkpt lat="49.87214" lon="2.17714">
        <ele>109.7</ele>
        <time>2022-01-12T15:08:49Z</time>
      </trkpt>
      <trkpt lat="49.87212" lon="2.17714">
        <ele>109.7</ele>
        <time>2022-01-12T15:08:51Z</time>
      </trkpt>
      <trkpt lat="49.87212" lon="2.17714">
        <ele>109.7</ele>
        <time>2022-01-12T15:08:52Z</time>
      </trkpt>
      <trkpt lat="49.87211" lon="2.17713">
        <ele>109.8</ele>
        <time>2022-01-12T15:08:53Z</time>
      </trkpt>
      <trkpt lat="49.8721" lon="2.17713">
        <ele>109.8</ele>
        <time>2022-01-12T15:08:54Z</time>
      </trkpt>
      <trkpt lat="49.87209" lon="2.17712">
        <ele>109.9</ele>
        <time>2022-01-12T15:08:56Z</time>
      </trkpt>
      <trkpt lat="49.87208" lon="2.1771">
        <ele>109.9</ele>
        <time>2022-01-12T15:08:57Z</time>
      </trkpt>
      <trkpt lat="49.87207" lon="2.17709">
        <ele>109.9</ele>
        <time>2022-01-12T15:08:59Z</time>
      </trkpt>
      <trkpt lat="49.87206" lon="2.17709">
        <ele>109.9</ele>
        <time>2022-01-12T15:09:00Z</time>
      </trkpt>
      <trkpt lat="49.87205" lon="2.17708">
        <ele>109.9</ele>
        <time>2022-01-12T15:09:01Z</time>
      </trkpt>
      <trkpt lat="49.87203" lon="2.17708">
        <ele>109.9</ele>
        <time>2022-01-12T15:09:03Z</time>
      </trkpt>
      <trkpt lat="49.87202" lon="2.17707">
        <ele>110</ele>
        <time>2022-01-12T15:09:05Z</time>
      </trkpt>
      <trkpt lat="49.872" lon="2.17707">
        <ele>110</ele>
        <time>2022-01-12T15:09:06Z</time>
      </trkpt>
      <trkpt lat="49.87199" lon="2.17706">
        <ele>110</ele>
        <time>2022-01-12T15:09:08Z</time>
      </trkpt>
      <trkpt lat="49.87198" lon="2.17706">
        <ele>110</ele>
        <time>2022-01-12T15:09:09Z</time>
      </trkpt>
      <trkpt lat="49.87197" lon="2.17705">
        <ele>110</ele>
        <time>2022-01-12T15:09:10Z</time>
      </trkpt>
      <trkpt lat="49.87196" lon="2.17705">
        <ele>110</ele>
        <time>2022-01-12T15:09:12Z</time>
      </trkpt>
      <trkpt lat="49.87195" lon="2.17704">
        <ele>110</ele>
        <time>2022-01-12T15:09:13Z</time>
      </trkpt>
      <trkpt lat="49.87194" lon="2.17704">
        <ele>110</ele>
        <time>2022-01-12T15:09:14Z</time>
      </trkpt>
      <trkpt lat="49.87194" lon="2.17704">
        <ele>110</ele>
        <time>2022-01-12T15:09:16Z</time>
      </trkpt>
      <trkpt lat="49.87193" lon="2.17704">
        <ele>110.1</ele>
        <time>2022-01-12T15:09:17Z</time>
      </trkpt>
      <trkpt lat="49.87192" lon="2.17705">
        <ele>110.1</ele>
        <time>2022-01-12T15:09:18Z</time>
      </trkpt>
      <trkpt lat="49.87192" lon="2.17705">
        <ele>110.1</ele>
        <time>2022-01-12T15:09:20Z</time>
      </trkpt>
      <trkpt lat="49.87191" lon="2.17705">
        <ele>110.1</ele>
        <time>2022-01-12T15:09:21Z</time>
      </trkpt>
      <trkpt lat="49.87191" lon="2.17706">
        <ele>110.1</ele>
        <time>2022-01-12T15:09:22Z</time>
      </trkpt>
      <trkpt lat="49.8719" lon="2.17706">
        <ele>110.1</ele>
        <time>2022-01-12T15:09:24Z</time>
      </trkpt>
      <trkpt lat="49.87189" lon="2.17705">
        <ele>110.1</ele>
        <time>2022-01-12T15:09:25Z</time>
      </trkpt>
      <trkpt lat="49.87188" lon="2.17705">
        <ele>110.1</ele>
        <time>2022-01-12T15:09:26Z</time>
      </trkpt>
      <trkpt lat="49.87188" lon="2.17706">
        <ele>110.1</ele>
        <time>2022-01-12T15:09:28Z</time>
      </trkpt>
      <trkpt lat="49.87188" lon="2.17707">
        <ele>110.1</ele>
        <time>2022-01-12T15:09:29Z</time>
      </trkpt>
      <trkpt lat="49.87187" lon="2.17707">
        <ele>110.1</ele>
        <time>2022-01-12T15:09:30Z</time>
      </trkpt>
      <trkpt lat="49.87187" lon="2.17708">
        <ele>110.1</ele>
        <time>2022-01-12T15:09:32Z</time>
      </trkpt>
      <trkpt lat="49.87186" lon="2.17708">
        <ele>110.1</ele>
        <time>2022-01-12T15:09:33Z</time>
      </trkpt>
      <trkpt lat="49.87185" lon="2.17708">
        <ele>110.1</ele>
        <time>2022-01-12T15:09:34Z</time>
      </trkpt>
      <trkpt lat="49.87185" lon="2.17709">
        <ele>110.1</ele>
        <time>2022-01-12T15:09:35Z</time>
      </trkpt>
      <trkpt lat="49.87184" lon="2.17709">
        <ele>110.1</ele>
        <time>2022-01-12T15:09:37Z</time>
      </trkpt>
      <trkpt lat="49.87183" lon="2.1771">
        <ele>110.2</ele>
        <time>2022-01-12T15:09:38Z</time>
      </trkpt>
      <trkpt lat="49.87182" lon="2.17711">
        <ele>110.2</ele>
        <time>2022-01-12T15:09:39Z</time>
      </trkpt>
      <trkpt lat="49.87181" lon="2.17712">
        <ele>110.2</ele>
        <time>2022-01-12T15:09:40Z</time>
      </trkpt>
      <trkpt lat="49.87181" lon="2.17712">
        <ele>110.2</ele>
        <time>2022-01-12T15:09:41Z</time>
      </trkpt>
      <trkpt lat="49.87179" lon="2.17713">
        <ele>110.2</ele>
        <time>2022-01-12T15:09:43Z</time>
      </trkpt>
      <trkpt lat="49.87178" lon="2.17714">
        <ele>110.2</ele>
        <time>2022-01-12T15:09:44Z</time>
      </trkpt>
      <trkpt lat="49.87176" lon="2.17714">
        <ele>110.2</ele>
        <time>2022-01-12T15:09:46Z</time>
      </trkpt>
      <trkpt lat="49.87175" lon="2.17715">
        <ele>110.2</ele>
        <time>2022-01-12T15:09:47Z</time>
      </trkpt>
      <trkpt lat="49.87174" lon="2.17715">
        <ele>110.2</ele>
        <time>2022-01-12T15:09:49Z</time>
      </trkpt>
      <trkpt lat="49.87172" lon="2.17715">
        <ele>110.2</ele>
        <time>2022-01-12T15:09:50Z</time>
      </trkpt>
      <trkpt lat="49.87171" lon="2.17715">
        <ele>110.2</ele>
        <time>2022-01-12T15:09:51Z</time>
      </trkpt>
      <trkpt lat="49.8717" lon="2.17715">
        <ele>110.2</ele>
        <time>2022-01-12T15:09:52Z</time>
      </trkpt>
      <trkpt lat="49.8717" lon="2.17715">
        <ele>110.2</ele>
        <time>2022-01-12T15:09:53Z</time>
      </trkpt>
      <trkpt lat="49.87168" lon="2.17714">
        <ele>110.2</ele>
        <time>2022-01-12T15:09:55Z</time>
      </trkpt>
      <trkpt lat="49.87167" lon="2.17714">
        <ele>110.2</ele>
        <time>2022-01-12T15:09:56Z</time>
      </trkpt>
      <trkpt lat="49.87166" lon="2.17714">
        <ele>110.2</ele>
        <time>2022-01-12T15:09:57Z</time>
      </trkpt>
      <trkpt lat="49.87165" lon="2.17714">
        <ele>110.2</ele>
        <time>2022-01-12T15:09:58Z</time>
      </trkpt>
      <trkpt lat="49.87164" lon="2.17714">
        <ele>110.3</ele>
        <time>2022-01-12T15:10:00Z</time>
      </trkpt>
      <trkpt lat="49.87162" lon="2.17714">
        <ele>110.3</ele>
        <time>2022-01-12T15:10:01Z</time>
      </trkpt>
      <trkpt lat="49.87161" lon="2.17714">
        <ele>110.3</ele>
        <time>2022-01-12T15:10:03Z</time>
      </trkpt>
      <trkpt lat="49.8716" lon="2.17714">
        <ele>110.3</ele>
        <time>2022-01-12T15:10:04Z</time>
      </trkpt>
      <trkpt lat="49.87159" lon="2.17715">
        <ele>110.3</ele>
        <time>2022-01-12T15:10:05Z</time>
      </trkpt>
      <trkpt lat="49.87158" lon="2.17715">
        <ele>110.3</ele>
        <time>2022-01-12T15:10:06Z</time>
      </trkpt>
      <trkpt lat="49.87156" lon="2.17714">
        <ele>110.3</ele>
        <time>2022-01-12T15:10:07Z</time>
      </trkpt>
      <trkpt lat="49.87155" lon="2.17714">
        <ele>110.3</ele>
        <time>2022-01-12T15:10:09Z</time>
      </trkpt>
      <trkpt lat="49.87154" lon="2.17714">
        <ele>110.3</ele>
        <time>2022-01-12T15:10:10Z</time>
      </trkpt>
      <trkpt lat="49.87153" lon="2.17713">
        <ele>110.3</ele>
        <time>2022-01-12T15:10:11Z</time>
      </trkpt>
      <trkpt lat="49.87152" lon="2.17713">
        <ele>110.3</ele>
        <time>2022-01-12T15:10:12Z</time>
      </trkpt>
      <trkpt lat="49.87151" lon="2.17713">
        <ele>110.3</ele>
        <time>2022-01-12T15:10:13Z</time>
      </trkpt>
      <trkpt lat="49.8715" lon="2.17714">
        <ele>110.3</ele>
        <time>2022-01-12T15:10:14Z</time>
      </trkpt>
      <trkpt lat="49.87149" lon="2.17714">
        <ele>110.3</ele>
        <time>2022-01-12T15:10:16Z</time>
      </trkpt>
      <trkpt lat="49.87148" lon="2.17714">
        <ele>110.3</ele>
        <time>2022-01-12T15:10:17Z</time>
      </trkpt>
      <trkpt lat="49.87147" lon="2.17714">
        <ele>110.4</ele>
        <time>2022-01-12T15:10:18Z</time>
      </trkpt>
      <trkpt lat="49.87147" lon="2.17715">
        <ele>110.4</ele>
        <time>2022-01-12T15:10:19Z</time>
      </trkpt>
      <trkpt lat="49.87146" lon="2.17715">
        <ele>110.4</ele>
        <time>2022-01-12T15:10:20Z</time>
      </trkpt>
      <trkpt lat="49.87144" lon="2.17715">
        <ele>110.4</ele>
        <time>2022-01-12T15:10:21Z</time>
      </trkpt>
      <trkpt lat="49.87142" lon="2.17715">
        <ele>110.4</ele>
        <time>2022-01-12T15:10:22Z</time>
      </trkpt>
      <trkpt lat="49.87142" lon="2.17714">
        <ele>110.4</ele>
        <time>2022-01-12T15:10:24Z</time>
      </trkpt>
      <trkpt lat="49.87141" lon="2.17714">
        <ele>110.4</ele>
        <time>2022-01-12T15:10:25Z</time>
      </trkpt>
      <trkpt lat="49.87139" lon="2.17714">
        <ele>110.4</ele>
        <time>2022-01-12T15:10:26Z</time>
      </trkpt>
      <trkpt lat="49.87138" lon="2.17714">
        <ele>110.4</ele>
        <time>2022-01-12T15:10:27Z</time>
      </trkpt>
      <trkpt lat="49.87137" lon="2.17713">
        <ele>110.4</ele>
        <time>2022-01-12T15:10:28Z</time>
      </trkpt>
      <trkpt lat="49.87136" lon="2.17713">
        <ele>110.4</ele>
        <time>2022-01-12T15:10:29Z</time>
      </trkpt>
      <trkpt lat="49.87135" lon="2.17713">
        <ele>110.4</ele>
        <time>2022-01-12T15:10:30Z</time>
      </trkpt>
      <trkpt lat="49.87132" lon="2.17712">
        <ele>110.4</ele>
        <time>2022-01-12T15:10:31Z</time>
      </trkpt>
      <trkpt lat="49.87132" lon="2.17712">
        <ele>110.4</ele>
        <time>2022-01-12T15:10:33Z</time>
      </trkpt>
      <trkpt lat="49.87131" lon="2.17711">
        <ele>110.4</ele>
        <time>2022-01-12T15:10:34Z</time>
      </trkpt>
      <trkpt lat="49.87129" lon="2.1771">
        <ele>110.5</ele>
        <time>2022-01-12T15:10:35Z</time>
      </trkpt>
      <trkpt lat="49.87128" lon="2.1771">
        <ele>110.5</ele>
        <time>2022-01-12T15:10:36Z</time>
      </trkpt>
      <trkpt lat="49.87127" lon="2.17709">
        <ele>110.5</ele>
        <time>2022-01-12T15:10:37Z</time>
      </trkpt>
      <trkpt lat="49.87126" lon="2.17709">
        <ele>110.5</ele>
        <time>2022-01-12T15:10:38Z</time>
      </trkpt>
      <trkpt lat="49.87125" lon="2.17708">
        <ele>110.5</ele>
        <time>2022-01-12T15:10:39Z</time>
      </trkpt>
      <trkpt lat="49.87124" lon="2.17708">
        <ele>110.5</ele>
        <time>2022-01-12T15:10:41Z</time>
      </trkpt>
      <trkpt lat="49.87123" lon="2.17707">
        <ele>110.5</ele>
        <time>2022-01-12T15:10:42Z</time>
      </trkpt>
      <trkpt lat="49.87121" lon="2.17707">
        <ele>110.5</ele>
        <time>2022-01-12T15:10:43Z</time>
      </trkpt>
      <trkpt lat="49.8712" lon="2.17707">
        <ele>110.5</ele>
        <time>2022-01-12T15:10:44Z</time>
      </trkpt>
      <trkpt lat="49.87119" lon="2.17706">
        <ele>110.5</ele>
        <time>2022-01-12T15:10:45Z</time>
      </trkpt>
      <trkpt lat="49.87118" lon="2.17706">
        <ele>110.5</ele>
        <time>2022-01-12T15:10:46Z</time>
      </trkpt>
      <trkpt lat="49.87117" lon="2.17706">
        <ele>110.5</ele>
        <time>2022-01-12T15:10:47Z</time>
      </trkpt>
      <trkpt lat="49.87116" lon="2.17705">
        <ele>110.5</ele>
        <time>2022-01-12T15:10:49Z</time>
      </trkpt>
      <trkpt lat="49.87115" lon="2.17705">
        <ele>110.5</ele>
        <time>2022-01-12T15:10:50Z</time>
      </trkpt>
      <trkpt lat="49.87115" lon="2.17704">
        <ele>110.5</ele>
        <time>2022-01-12T15:10:51Z</time>
      </trkpt>
      <trkpt lat="49.87114" lon="2.17704">
        <ele>110.5</ele>
        <time>2022-01-12T15:10:52Z</time>
      </trkpt>
      <trkpt lat="49.87113" lon="2.17703">
        <ele>110.5</ele>
        <time>2022-01-12T15:10:53Z</time>
      </trkpt>
      <trkpt lat="49.87113" lon="2.17703">
        <ele>110.6</ele>
        <time>2022-01-12T15:10:55Z</time>
      </trkpt>
      <trkpt lat="49.87112" lon="2.17703">
        <ele>110.6</ele>
        <time>2022-01-12T15:10:56Z</time>
      </trkpt>
      <trkpt lat="49.87111" lon="2.17703">
        <ele>110.6</ele>
        <time>2022-01-12T15:10:57Z</time>
      </trkpt>
      <trkpt lat="49.8711" lon="2.17703">
        <ele>110.6</ele>
        <time>2022-01-12T15:10:58Z</time>
      </trkpt>
      <trkpt lat="49.87109" lon="2.17703">
        <ele>110.6</ele>
        <time>2022-01-12T15:10:59Z</time>
      </trkpt>
      <trkpt lat="49.87108" lon="2.17703">
        <ele>110.6</ele>
        <time>2022-01-12T15:11:00Z</time>
      </trkpt>
      <trkpt lat="49.87107" lon="2.17703">
        <ele>110.6</ele>
        <time>2022-01-12T15:11:02Z</time>
      </trkpt>
      <trkpt lat="49.87106" lon="2.17703">
        <ele>110.6</ele>
        <time>2022-01-12T15:11:03Z</time>
      </trkpt>
      <trkpt lat="49.87105" lon="2.17703">
        <ele>110.6</ele>
        <time>2022-01-12T15:11:04Z</time>
      </trkpt>
      <trkpt lat="49.87104" lon="2.17703">
        <ele>110.6</ele>
        <time>2022-01-12T15:11:06Z</time>
      </trkpt>
      <trkpt lat="49.87103" lon="2.17703">
        <ele>110.6</ele>
        <time>2022-01-12T15:11:07Z</time>
      </trkpt>
      <trkpt lat="49.87102" lon="2.17703">
        <ele>110.6</ele>
        <time>2022-01-12T15:11:08Z</time>
      </trkpt>
      <trkpt lat="49.87101" lon="2.17703">
        <ele>110.6</ele>
        <time>2022-01-12T15:11:09Z</time>
      </trkpt>
      <trkpt lat="49.871" lon="2.17704">
        <ele>110.6</ele>
        <time>2022-01-12T15:11:10Z</time>
      </trkpt>
      <trkpt lat="49.87099" lon="2.17705">
        <ele>110.6</ele>
        <time>2022-01-12T15:11:11Z</time>
      </trkpt>
      <trkpt lat="49.87098" lon="2.17706">
        <ele>110.6</ele>
        <time>2022-01-12T15:11:13Z</time>
      </trkpt>
      <trkpt lat="49.87097" lon="2.17706">
        <ele>110.6</ele>
        <time>2022-01-12T15:11:14Z</time>
      </trkpt>
      <trkpt lat="49.87096" lon="2.17707">
        <ele>110.6</ele>
        <time>2022-01-12T15:11:15Z</time>
      </trkpt>
      <trkpt lat="49.87095" lon="2.17707">
        <ele>110.6</ele>
        <time>2022-01-12T15:11:16Z</time>
      </trkpt>
      <trkpt lat="49.87094" lon="2.17707">
        <ele>110.6</ele>
        <time>2022-01-12T15:11:17Z</time>
      </trkpt>
      <trkpt lat="49.87093" lon="2.17707">
        <ele>110.6</ele>
        <time>2022-01-12T15:11:19Z</time>
      </trkpt>
      <trkpt lat="49.87091" lon="2.17707">
        <ele>110.6</ele>
        <time>2022-01-12T15:11:20Z</time>
      </trkpt>
      <trkpt lat="49.8709" lon="2.17708">
        <ele>110.6</ele>
        <time>2022-01-12T15:11:21Z</time>
      </trkpt>
      <trkpt lat="49.87089" lon="2.17708">
        <ele>110.6</ele>
        <time>2022-01-12T15:11:22Z</time>
      </trkpt>
      <trkpt lat="49.87088" lon="2.17707">
        <ele>110.6</ele>
        <time>2022-01-12T15:11:23Z</time>
      </trkpt>
      <trkpt lat="49.87087" lon="2.17707">
        <ele>110.6</ele>
        <time>2022-01-12T15:11:25Z</time>
      </trkpt>
      <trkpt lat="49.87085" lon="2.17707">
        <ele>110.6</ele>
        <time>2022-01-12T15:11:26Z</time>
      </trkpt>
      <trkpt lat="49.87084" lon="2.17706">
        <ele>110.6</ele>
        <time>2022-01-12T15:11:27Z</time>
      </trkpt>
      <trkpt lat="49.87083" lon="2.17706">
        <ele>110.6</ele>
        <time>2022-01-12T15:11:28Z</time>
      </trkpt>
      <trkpt lat="49.87082" lon="2.17706">
        <ele>110.6</ele>
        <time>2022-01-12T15:11:29Z</time>
      </trkpt>
      <trkpt lat="49.87081" lon="2.17705">
        <ele>110.6</ele>
        <time>2022-01-12T15:11:30Z</time>
      </trkpt>
      <trkpt lat="49.8708" lon="2.17705">
        <ele>110.6</ele>
        <time>2022-01-12T15:11:32Z</time>
      </trkpt>
      <trkpt lat="49.87079" lon="2.17704">
        <ele>110.6</ele>
        <time>2022-01-12T15:11:33Z</time>
      </trkpt>
      <trkpt lat="49.87078" lon="2.17703">
        <ele>110.6</ele>
        <time>2022-01-12T15:11:34Z</time>
      </trkpt>
      <trkpt lat="49.87077" lon="2.17703">
        <ele>110.6</ele>
        <time>2022-01-12T15:11:35Z</time>
      </trkpt>
      <trkpt lat="49.87076" lon="2.17702">
        <ele>110.6</ele>
        <time>2022-01-12T15:11:36Z</time>
      </trkpt>
      <trkpt lat="49.87075" lon="2.17701">
        <ele>110.6</ele>
        <time>2022-01-12T15:11:38Z</time>
      </trkpt>
      <trkpt lat="49.87074" lon="2.177">
        <ele>110.6</ele>
        <time>2022-01-12T15:11:39Z</time>
      </trkpt>
      <trkpt lat="49.87072" lon="2.17699">
        <ele>110.7</ele>
        <time>2022-01-12T15:11:40Z</time>
      </trkpt>
      <trkpt lat="49.87071" lon="2.17699">
        <ele>110.7</ele>
        <time>2022-01-12T15:11:41Z</time>
      </trkpt>
      <trkpt lat="49.8707" lon="2.17698">
        <ele>110.7</ele>
        <time>2022-01-12T15:11:42Z</time>
      </trkpt>
      <trkpt lat="49.87069" lon="2.17697">
        <ele>110.7</ele>
        <time>2022-01-12T15:11:43Z</time>
      </trkpt>
      <trkpt lat="49.87068" lon="2.17695">
        <ele>110.7</ele>
        <time>2022-01-12T15:11:44Z</time>
      </trkpt>
      <trkpt lat="49.87066" lon="2.17694">
        <ele>110.7</ele>
        <time>2022-01-12T15:11:46Z</time>
      </trkpt>
      <trkpt lat="49.87065" lon="2.17693">
        <ele>110.7</ele>
        <time>2022-01-12T15:11:47Z</time>
      </trkpt>
      <trkpt lat="49.87065" lon="2.17693">
        <ele>110.7</ele>
        <time>2022-01-12T15:11:48Z</time>
      </trkpt>
      <trkpt lat="49.87064" lon="2.17692">
        <ele>110.7</ele>
        <time>2022-01-12T15:11:49Z</time>
      </trkpt>
      <trkpt lat="49.87063" lon="2.17691">
        <ele>110.7</ele>
        <time>2022-01-12T15:11:50Z</time>
      </trkpt>
      <trkpt lat="49.87062" lon="2.1769">
        <ele>110.7</ele>
        <time>2022-01-12T15:11:52Z</time>
      </trkpt>
      <trkpt lat="49.8706" lon="2.17689">
        <ele>110.7</ele>
        <time>2022-01-12T15:11:53Z</time>
      </trkpt>
      <trkpt lat="49.87059" lon="2.17688">
        <ele>110.7</ele>
        <time>2022-01-12T15:11:54Z</time>
      </trkpt>
      <trkpt lat="49.87059" lon="2.17687">
        <ele>110.7</ele>
        <time>2022-01-12T15:11:55Z</time>
      </trkpt>
      <trkpt lat="49.87058" lon="2.17686">
        <ele>110.7</ele>
        <time>2022-01-12T15:11:56Z</time>
      </trkpt>
      <trkpt lat="49.87057" lon="2.17685">
        <ele>110.7</ele>
        <time>2022-01-12T15:11:57Z</time>
      </trkpt>
      <trkpt lat="49.87055" lon="2.17683">
        <ele>110.7</ele>
        <time>2022-01-12T15:11:59Z</time>
      </trkpt>
      <trkpt lat="49.87054" lon="2.17682">
        <ele>110.7</ele>
        <time>2022-01-12T15:12:00Z</time>
      </trkpt>
      <trkpt lat="49.87054" lon="2.17681">
        <ele>110.7</ele>
        <time>2022-01-12T15:12:01Z</time>
      </trkpt>
      <trkpt lat="49.87053" lon="2.1768">
        <ele>110.7</ele>
        <time>2022-01-12T15:12:03Z</time>
      </trkpt>
      <trkpt lat="49.87052" lon="2.17679">
        <ele>110.7</ele>
        <time>2022-01-12T15:12:04Z</time>
      </trkpt>
      <trkpt lat="49.87051" lon="2.17678">
        <ele>110.7</ele>
        <time>2022-01-12T15:12:05Z</time>
      </trkpt>
      <trkpt lat="49.8705" lon="2.17678">
        <ele>110.7</ele>
        <time>2022-01-12T15:12:06Z</time>
      </trkpt>
      <trkpt lat="49.87049" lon="2.17677">
        <ele>110.7</ele>
        <time>2022-01-12T15:12:07Z</time>
      </trkpt>
      <trkpt lat="49.87048" lon="2.17676">
        <ele>110.7</ele>
        <time>2022-01-12T15:12:09Z</time>
      </trkpt>
      <trkpt lat="49.87048" lon="2.17674">
        <ele>110.7</ele>
        <time>2022-01-12T15:12:10Z</time>
      </trkpt>
      <trkpt lat="49.87048" lon="2.17671">
        <ele>110.7</ele>
        <time>2022-01-12T15:12:12Z</time>
      </trkpt>
      <trkpt lat="49.87048" lon="2.1767">
        <ele>110.7</ele>
        <time>2022-01-12T15:12:13Z</time>
      </trkpt>
      <trkpt lat="49.87047" lon="2.17668">
        <ele>110.7</ele>
        <time>2022-01-12T15:12:15Z</time>
      </trkpt>
      <trkpt lat="49.87046" lon="2.17666">
        <ele>110.7</ele>
        <time>2022-01-12T15:12:16Z</time>
      </trkpt>
      <trkpt lat="49.87045" lon="2.17665">
        <ele>110.7</ele>
        <time>2022-01-12T15:12:18Z</time>
      </trkpt>
      <trkpt lat="49.87045" lon="2.17664">
        <ele>110.7</ele>
        <time>2022-01-12T15:12:19Z</time>
      </trkpt>
      <trkpt lat="49.87044" lon="2.17663">
        <ele>110.7</ele>
        <time>2022-01-12T15:12:20Z</time>
      </trkpt>
      <trkpt lat="49.87043" lon="2.17662">
        <ele>110.7</ele>
        <time>2022-01-12T15:12:21Z</time>
      </trkpt>
      <trkpt lat="49.87042" lon="2.17662">
        <ele>110.7</ele>
        <time>2022-01-12T15:12:23Z</time>
      </trkpt>
      <trkpt lat="49.87042" lon="2.17661">
        <ele>110.7</ele>
        <time>2022-01-12T15:12:24Z</time>
      </trkpt>
      <trkpt lat="49.87041" lon="2.1766">
        <ele>110.7</ele>
        <time>2022-01-12T15:12:25Z</time>
      </trkpt>
      <trkpt lat="49.87041" lon="2.17659">
        <ele>110.7</ele>
        <time>2022-01-12T15:12:26Z</time>
      </trkpt>
      <trkpt lat="49.87041" lon="2.17657">
        <ele>110.7</ele>
        <time>2022-01-12T15:12:28Z</time>
      </trkpt>
      <trkpt lat="49.8704" lon="2.17656">
        <ele>110.7</ele>
        <time>2022-01-12T15:12:29Z</time>
      </trkpt>
      <trkpt lat="49.8704" lon="2.17656">
        <ele>110.7</ele>
        <time>2022-01-12T15:12:30Z</time>
      </trkpt>
      <trkpt lat="49.8704" lon="2.17656">
        <ele>110.7</ele>
        <time>2022-01-12T15:12:31Z</time>
      </trkpt>
      <trkpt lat="49.8704" lon="2.17655">
        <ele>110.7</ele>
        <time>2022-01-12T15:12:32Z</time>
      </trkpt>
      <trkpt lat="49.87039" lon="2.17654">
        <ele>110.7</ele>
        <time>2022-01-12T15:12:34Z</time>
      </trkpt>
      <trkpt lat="49.87039" lon="2.17653">
        <ele>110.7</ele>
        <time>2022-01-12T15:12:35Z</time>
      </trkpt>
      <trkpt lat="49.87038" lon="2.17652">
        <ele>110.7</ele>
        <time>2022-01-12T15:12:37Z</time>
      </trkpt>
      <trkpt lat="49.87038" lon="2.17651">
        <ele>110.7</ele>
        <time>2022-01-12T15:12:38Z</time>
      </trkpt>
      <trkpt lat="49.87038" lon="2.1765">
        <ele>110.7</ele>
        <time>2022-01-12T15:12:40Z</time>
      </trkpt>
      <trkpt lat="49.87039" lon="2.1765">
        <ele>110.7</ele>
        <time>2022-01-12T15:12:42Z</time>
      </trkpt>
      <trkpt lat="49.87039" lon="2.17651">
        <ele>110.7</ele>
        <time>2022-01-12T15:12:43Z</time>
      </trkpt>
      <trkpt lat="49.8704" lon="2.17651">
        <ele>110.7</ele>
        <time>2022-01-12T15:12:45Z</time>
      </trkpt>
      <trkpt lat="49.8704" lon="2.17651">
        <ele>110.7</ele>
        <time>2022-01-12T15:12:47Z</time>
      </trkpt>
      <trkpt lat="49.8704" lon="2.17651">
        <ele>110.7</ele>
        <time>2022-01-12T15:12:49Z</time>
      </trkpt>
      <trkpt lat="49.8704" lon="2.17651">
        <ele>110.7</ele>
        <time>2022-01-12T15:12:51Z</time>
      </trkpt>
      <trkpt lat="49.8704" lon="2.1765">
        <ele>110.7</ele>
        <time>2022-01-12T15:12:52Z</time>
      </trkpt>
      <trkpt lat="49.8704" lon="2.17649">
        <ele>110.7</ele>
        <time>2022-01-12T15:12:53Z</time>
      </trkpt>
      <trkpt lat="49.8704" lon="2.17648">
        <ele>110.7</ele>
        <time>2022-01-12T15:12:54Z</time>
      </trkpt>
      <trkpt lat="49.87041" lon="2.17647">
        <ele>110.7</ele>
        <time>2022-01-12T15:12:56Z</time>
      </trkpt>
      <trkpt lat="49.87042" lon="2.17646">
        <ele>110.7</ele>
        <time>2022-01-12T15:12:57Z</time>
      </trkpt>
      <trkpt lat="49.87043" lon="2.17646">
        <ele>110.7</ele>
        <time>2022-01-12T15:12:59Z</time>
      </trkpt>
      <trkpt lat="49.87044" lon="2.17645">
        <ele>110.7</ele>
        <time>2022-01-12T15:13:00Z</time>
      </trkpt>
      <trkpt lat="49.87045" lon="2.17644">
        <ele>110.7</ele>
        <time>2022-01-12T15:13:02Z</time>
      </trkpt>
      <trkpt lat="49.87046" lon="2.17644">
        <ele>110.7</ele>
        <time>2022-01-12T15:13:04Z</time>
      </trkpt>
      <trkpt lat="49.87046" lon="2.17643">
        <ele>110.7</ele>
        <time>2022-01-12T15:13:05Z</time>
      </trkpt>
      <trkpt lat="49.87047" lon="2.17643">
        <ele>110.7</ele>
        <time>2022-01-12T15:13:07Z</time>
      </trkpt>
      <trkpt lat="49.87047" lon="2.17643">
        <ele>110.7</ele>
        <time>2022-01-12T15:13:08Z</time>
      </trkpt>
      <trkpt lat="49.87047" lon="2.17643">
        <ele>110.7</ele>
        <time>2022-01-12T15:13:10Z</time>
      </trkpt>
      <trkpt lat="49.87047" lon="2.17643">
        <ele>110.7</ele>
        <time>2022-01-12T15:13:11Z</time>
      </trkpt>
      <trkpt lat="49.87047" lon="2.17643">
        <ele>110.7</ele>
        <time>2022-01-12T15:13:12Z</time>
      </trkpt>
      <trkpt lat="49.87047" lon="2.17643">
        <ele>110.7</ele>
        <time>2022-01-12T15:13:13Z</time>
      </trkpt>
      <trkpt lat="49.87047" lon="2.17643">
        <ele>110.7</ele>
        <time>2022-01-12T15:13:15Z</time>
      </trkpt>
      <trkpt lat="49.87047" lon="2.17644">
        <ele>110.7</ele>
        <time>2022-01-12T15:13:16Z</time>
      </trkpt>
      <trkpt lat="49.87047" lon="2.17645">
        <ele>110.7</ele>
        <time>2022-01-12T15:13:18Z</time>
      </trkpt>
      <trkpt lat="49.87047" lon="2.17646">
        <ele>110.7</ele>
        <time>2022-01-12T15:13:20Z</time>
      </trkpt>
      <trkpt lat="49.87047" lon="2.17646">
        <ele>110.7</ele>
        <time>2022-01-12T15:13:21Z</time>
      </trkpt>
      <trkpt lat="49.87046" lon="2.17647">
        <ele>110.7</ele>
        <time>2022-01-12T15:13:23Z</time>
      </trkpt>
      <trkpt lat="49.87046" lon="2.17647">
        <ele>110.7</ele>
        <time>2022-01-12T15:13:25Z</time>
      </trkpt>
      <trkpt lat="49.87046" lon="2.17647">
        <ele>110.7</ele>
        <time>2022-01-12T15:13:27Z</time>
      </trkpt>
      <trkpt lat="49.87046" lon="2.17648">
        <ele>110.7</ele>
        <time>2022-01-12T15:13:29Z</time>
      </trkpt>
      <trkpt lat="49.87046" lon="2.17648">
        <ele>110.7</ele>
        <time>2022-01-12T15:13:30Z</time>
      </trkpt>
      <trkpt lat="49.87046" lon="2.17648">
        <ele>110.7</ele>
        <time>2022-01-12T15:13:32Z</time>
      </trkpt>
      <trkpt lat="49.87045" lon="2.17648">
        <ele>110.7</ele>
        <time>2022-01-12T15:13:33Z</time>
      </trkpt>
      <trkpt lat="49.87045" lon="2.17648">
        <ele>110.7</ele>
        <time>2022-01-12T15:13:34Z</time>
      </trkpt>
      <trkpt lat="49.87045" lon="2.17648">
        <ele>110.7</ele>
        <time>2022-01-12T15:13:36Z</time>
      </trkpt>
      <trkpt lat="49.87045" lon="2.17648">
        <ele>110.7</ele>
        <time>2022-01-12T15:13:37Z</time>
      </trkpt>
      <trkpt lat="49.87045" lon="2.17648">
        <ele>110.7</ele>
        <time>2022-01-12T15:13:39Z</time>
      </trkpt>
      <trkpt lat="49.87045" lon="2.17648">
        <ele>110.7</ele>
        <time>2022-01-12T15:13:41Z</time>
      </trkpt>
      <trkpt lat="49.87045" lon="2.17648">
        <ele>110.7</ele>
        <time>2022-01-12T15:13:42Z</time>
      </trkpt>
      <trkpt lat="49.87045" lon="2.17648">
        <ele>110.7</ele>
        <time>2022-01-12T15:13:43Z</time>
      </trkpt>
      <trkpt lat="49.87045" lon="2.17648">
        <ele>110.7</ele>
        <time>2022-01-12T15:13:45Z</time>
      </trkpt>
      <trkpt lat="49.87045" lon="2.17648">
        <ele>110.7</ele>
        <time>2022-01-12T15:13:47Z</time>
      </trkpt>
      <trkpt lat="49.87045" lon="2.17648">
        <ele>110.7</ele>
        <time>2022-01-12T15:13:48Z</time>
      </trkpt>
      <trkpt lat="49.87045" lon="2.17648">
        <ele>110.7</ele>
        <time>2022-01-12T15:13:50Z</time>
      </trkpt>
      <trkpt lat="49.87045" lon="2.17648">
        <ele>110.7</ele>
        <time>2022-01-12T15:13:51Z</time>
      </trkpt>
      <trkpt lat="49.87045" lon="2.17648">
        <ele>110.7</ele>
        <time>2022-01-12T15:13:52Z</time>
      </trkpt>
      <trkpt lat="49.87045" lon="2.17648">
        <ele>110.7</ele>
        <time>2022-01-12T15:13:54Z</time>
      </trkpt>
      <trkpt lat="49.87045" lon="2.17648">
        <ele>110.7</ele>
        <time>2022-01-12T15:13:56Z</time>
      </trkpt>
      <trkpt lat="49.87045" lon="2.17648">
        <ele>110.7</ele>
        <time>2022-01-12T15:13:58Z</time>
      </trkpt>
      <trkpt lat="49.87045" lon="2.17648">
        <ele>110.7</ele>
        <time>2022-01-12T15:13:59Z</time>
      </trkpt>
    </trkseg>
  </trk>
</gpx>